<?xml version="1.0" encoding="UTF-8" standalone="no" ?>
<gpx xmlns="http://www.topografix.com/GPX/1/1" xmlns:xsi="http://www.w3.org/2001/XMLSchema-instance" xsi:schemaLocation="http://www.topografix.com/GPX/1/1 http://www.topografix.com/GPX/1/1/gpx.xsd" version="1.1" creator="VisuGPX - https://www.visugpx.com">
  <metadata>
    <name>Thann Viel Armand</name>
    <desc><![CDATA[Singles sympas]]></desc>
  </metadata>
  <trk>
    <name><![CDATA[Thann Cyclisme]]></name>
    <trkseg>
      <trkpt lat="47.81119" lon="7.10489">
        <ele>334</ele>
        <time>2019-11-10T07:09:58.000Z</time>
      </trkpt>
      <trkpt lat="47.81118" lon="7.10484">
        <ele>334</ele>
        <time>2019-11-10T07:10:01.000Z</time>
      </trkpt>
      <trkpt lat="47.81118" lon="7.10484">
        <ele>334.60000610352</ele>
        <time>2019-11-10T07:10:02.000Z</time>
      </trkpt>
      <trkpt lat="47.81118" lon="7.10484">
        <ele>334.60000610352</ele>
        <time>2019-11-10T07:10:03.000Z</time>
      </trkpt>
      <trkpt lat="47.81118" lon="7.10483">
        <ele>334.60000610352</ele>
        <time>2019-11-10T07:10:04.000Z</time>
      </trkpt>
      <trkpt lat="47.81115" lon="7.10486">
        <ele>334.60000610352</ele>
        <time>2019-11-10T07:16:28.000Z</time>
      </trkpt>
      <trkpt lat="47.81115" lon="7.10489">
        <ele>334.60000610352</ele>
        <time>2019-11-10T07:16:29.000Z</time>
      </trkpt>
      <trkpt lat="47.81116" lon="7.10491">
        <ele>334.60000610352</ele>
        <time>2019-11-10T07:16:30.000Z</time>
      </trkpt>
      <trkpt lat="47.81118" lon="7.10487">
        <ele>334.60000610352</ele>
        <time>2019-11-10T07:16:33.000Z</time>
      </trkpt>
      <trkpt lat="47.81122" lon="7.10482">
        <ele>334.60000610352</ele>
        <time>2019-11-10T07:16:38.000Z</time>
      </trkpt>
      <trkpt lat="47.81128" lon="7.10474">
        <ele>334.60000610352</ele>
        <time>2019-11-10T07:16:44.000Z</time>
      </trkpt>
      <trkpt lat="47.81129" lon="7.10469">
        <ele>334.60000610352</ele>
        <time>2019-11-10T07:16:46.000Z</time>
      </trkpt>
      <trkpt lat="47.81133" lon="7.10463">
        <ele>334.60000610352</ele>
        <time>2019-11-10T07:16:50.000Z</time>
      </trkpt>
      <trkpt lat="47.81136" lon="7.10463">
        <ele>334.60000610352</ele>
        <time>2019-11-10T07:16:52.000Z</time>
      </trkpt>
      <trkpt lat="47.8114" lon="7.10467">
        <ele>334.60000610352</ele>
        <time>2019-11-10T07:16:56.000Z</time>
      </trkpt>
      <trkpt lat="47.81141" lon="7.10469">
        <ele>334.60000610352</ele>
        <time>2019-11-10T07:16:57.000Z</time>
      </trkpt>
      <trkpt lat="47.81148" lon="7.10468">
        <ele>334.60000610352</ele>
        <time>2019-11-10T07:17:01.000Z</time>
      </trkpt>
      <trkpt lat="47.81153" lon="7.10471">
        <ele>334.60000610352</ele>
        <time>2019-11-10T07:17:04.000Z</time>
      </trkpt>
      <trkpt lat="47.81158" lon="7.10473">
        <ele>334.60000610352</ele>
        <time>2019-11-10T07:17:07.000Z</time>
      </trkpt>
      <trkpt lat="47.81161" lon="7.10472">
        <ele>334.60000610352</ele>
        <time>2019-11-10T07:17:09.000Z</time>
      </trkpt>
      <trkpt lat="47.81163" lon="7.10469">
        <ele>335</ele>
        <time>2019-11-10T07:17:11.000Z</time>
      </trkpt>
      <trkpt lat="47.81164" lon="7.10468">
        <ele>335.39999389648</ele>
        <time>2019-11-10T07:17:12.000Z</time>
      </trkpt>
      <trkpt lat="47.81165" lon="7.10468">
        <ele>335.79998779297</ele>
        <time>2019-11-10T07:17:13.000Z</time>
      </trkpt>
      <trkpt lat="47.81167" lon="7.10468">
        <ele>336.20001220703</ele>
        <time>2019-11-10T07:17:14.000Z</time>
      </trkpt>
      <trkpt lat="47.81168" lon="7.10467">
        <ele>336.60000610352</ele>
        <time>2019-11-10T07:17:15.000Z</time>
      </trkpt>
      <trkpt lat="47.81171" lon="7.10465">
        <ele>336.60000610352</ele>
        <time>2019-11-10T07:17:17.000Z</time>
      </trkpt>
      <trkpt lat="47.81173" lon="7.10465">
        <ele>336.60000610352</ele>
        <time>2019-11-10T07:17:18.000Z</time>
      </trkpt>
      <trkpt lat="47.81179" lon="7.10466">
        <ele>336.60000610352</ele>
        <time>2019-11-10T07:17:22.000Z</time>
      </trkpt>
      <trkpt lat="47.8118" lon="7.10466">
        <ele>336.60000610352</ele>
        <time>2019-11-10T07:17:23.000Z</time>
      </trkpt>
      <trkpt lat="47.81194" lon="7.10471">
        <ele>336.60000610352</ele>
        <time>2019-11-10T07:17:30.000Z</time>
      </trkpt>
      <trkpt lat="47.81208" lon="7.10474">
        <ele>336.60000610352</ele>
        <time>2019-11-10T07:17:38.000Z</time>
      </trkpt>
      <trkpt lat="47.81224" lon="7.10477">
        <ele>336.60000610352</ele>
        <time>2019-11-10T07:17:46.000Z</time>
      </trkpt>
      <trkpt lat="47.81233" lon="7.10476">
        <ele>336.60000610352</ele>
        <time>2019-11-10T07:17:52.000Z</time>
      </trkpt>
      <trkpt lat="47.81238" lon="7.10479">
        <ele>336.60000610352</ele>
        <time>2019-11-10T07:17:56.000Z</time>
      </trkpt>
      <trkpt lat="47.81238" lon="7.10481">
        <ele>336.60000610352</ele>
        <time>2019-11-10T07:17:57.000Z</time>
      </trkpt>
      <trkpt lat="47.81248" lon="7.10488">
        <ele>336.60000610352</ele>
        <time>2019-11-10T07:18:02.000Z</time>
      </trkpt>
      <trkpt lat="47.81267" lon="7.10496">
        <ele>336.60000610352</ele>
        <time>2019-11-10T07:18:10.000Z</time>
      </trkpt>
      <trkpt lat="47.81282" lon="7.10496">
        <ele>336.60000610352</ele>
        <time>2019-11-10T07:18:16.000Z</time>
      </trkpt>
      <trkpt lat="47.81293" lon="7.10495">
        <ele>337</ele>
        <time>2019-11-10T07:18:21.000Z</time>
      </trkpt>
      <trkpt lat="47.81294" lon="7.10494">
        <ele>337.60000610352</ele>
        <time>2019-11-10T07:18:22.000Z</time>
      </trkpt>
      <trkpt lat="47.81297" lon="7.10493">
        <ele>338</ele>
        <time>2019-11-10T07:18:23.000Z</time>
      </trkpt>
      <trkpt lat="47.81299" lon="7.10493">
        <ele>338.39999389648</ele>
        <time>2019-11-10T07:18:24.000Z</time>
      </trkpt>
      <trkpt lat="47.81301" lon="7.10492">
        <ele>338.79998779297</ele>
        <time>2019-11-10T07:18:25.000Z</time>
      </trkpt>
      <trkpt lat="47.81305" lon="7.1049">
        <ele>338.79998779297</ele>
        <time>2019-11-10T07:18:27.000Z</time>
      </trkpt>
      <trkpt lat="47.81318" lon="7.10481">
        <ele>338.79998779297</ele>
        <time>2019-11-10T07:18:34.000Z</time>
      </trkpt>
      <trkpt lat="47.81325" lon="7.10471">
        <ele>338.79998779297</ele>
        <time>2019-11-10T07:18:39.000Z</time>
      </trkpt>
      <trkpt lat="47.81327" lon="7.10469">
        <ele>339.20001220703</ele>
        <time>2019-11-10T07:18:40.000Z</time>
      </trkpt>
      <trkpt lat="47.81328" lon="7.10467">
        <ele>339.60000610352</ele>
        <time>2019-11-10T07:18:41.000Z</time>
      </trkpt>
      <trkpt lat="47.8133" lon="7.10465">
        <ele>340</ele>
        <time>2019-11-10T07:18:42.000Z</time>
      </trkpt>
      <trkpt lat="47.81331" lon="7.10463">
        <ele>340.39999389648</ele>
        <time>2019-11-10T07:18:43.000Z</time>
      </trkpt>
      <trkpt lat="47.81332" lon="7.10461">
        <ele>340.79998779297</ele>
        <time>2019-11-10T07:18:44.000Z</time>
      </trkpt>
      <trkpt lat="47.81336" lon="7.10457">
        <ele>340.79998779297</ele>
        <time>2019-11-10T07:18:46.000Z</time>
      </trkpt>
      <trkpt lat="47.81343" lon="7.10447">
        <ele>340.79998779297</ele>
        <time>2019-11-10T07:18:51.000Z</time>
      </trkpt>
      <trkpt lat="47.81347" lon="7.10443">
        <ele>341.20001220703</ele>
        <time>2019-11-10T07:18:54.000Z</time>
      </trkpt>
      <trkpt lat="47.81348" lon="7.10441">
        <ele>341.60000610352</ele>
        <time>2019-11-10T07:18:55.000Z</time>
      </trkpt>
      <trkpt lat="47.81349" lon="7.10439">
        <ele>342.20001220703</ele>
        <time>2019-11-10T07:18:56.000Z</time>
      </trkpt>
      <trkpt lat="47.8135" lon="7.10437">
        <ele>342.60000610352</ele>
        <time>2019-11-10T07:18:57.000Z</time>
      </trkpt>
      <trkpt lat="47.81351" lon="7.10436">
        <ele>343</ele>
        <time>2019-11-10T07:18:58.000Z</time>
      </trkpt>
      <trkpt lat="47.81353" lon="7.10436">
        <ele>343</ele>
        <time>2019-11-10T07:18:59.000Z</time>
      </trkpt>
      <trkpt lat="47.81355" lon="7.10438">
        <ele>343</ele>
        <time>2019-11-10T07:19:01.000Z</time>
      </trkpt>
      <trkpt lat="47.81362" lon="7.10444">
        <ele>343</ele>
        <time>2019-11-10T07:19:05.000Z</time>
      </trkpt>
      <trkpt lat="47.81372" lon="7.10453">
        <ele>343</ele>
        <time>2019-11-10T07:19:11.000Z</time>
      </trkpt>
      <trkpt lat="47.8138" lon="7.10461">
        <ele>343</ele>
        <time>2019-11-10T07:19:16.000Z</time>
      </trkpt>
      <trkpt lat="47.81389" lon="7.10468">
        <ele>343</ele>
        <time>2019-11-10T07:19:21.000Z</time>
      </trkpt>
      <trkpt lat="47.81393" lon="7.1047">
        <ele>343.39999389648</ele>
        <time>2019-11-10T07:19:23.000Z</time>
      </trkpt>
      <trkpt lat="47.81394" lon="7.10472">
        <ele>344.20001220703</ele>
        <time>2019-11-10T07:19:24.000Z</time>
      </trkpt>
      <trkpt lat="47.81396" lon="7.10472">
        <ele>344.60000610352</ele>
        <time>2019-11-10T07:19:25.000Z</time>
      </trkpt>
      <trkpt lat="47.81397" lon="7.10473">
        <ele>345</ele>
        <time>2019-11-10T07:19:26.000Z</time>
      </trkpt>
      <trkpt lat="47.81402" lon="7.10478">
        <ele>345</ele>
        <time>2019-11-10T07:19:30.000Z</time>
      </trkpt>
      <trkpt lat="47.81414" lon="7.10487">
        <ele>345</ele>
        <time>2019-11-10T07:19:36.000Z</time>
      </trkpt>
      <trkpt lat="47.81425" lon="7.10497">
        <ele>345.39999389648</ele>
        <time>2019-11-10T07:19:42.000Z</time>
      </trkpt>
      <trkpt lat="47.81427" lon="7.10498">
        <ele>345.79998779297</ele>
        <time>2019-11-10T07:19:43.000Z</time>
      </trkpt>
      <trkpt lat="47.81429" lon="7.105">
        <ele>346.20001220703</ele>
        <time>2019-11-10T07:19:44.000Z</time>
      </trkpt>
      <trkpt lat="47.81431" lon="7.105">
        <ele>346.60000610352</ele>
        <time>2019-11-10T07:19:45.000Z</time>
      </trkpt>
      <trkpt lat="47.81432" lon="7.10501">
        <ele>347</ele>
        <time>2019-11-10T07:19:46.000Z</time>
      </trkpt>
      <trkpt lat="47.81441" lon="7.10503">
        <ele>347</ele>
        <time>2019-11-10T07:19:50.000Z</time>
      </trkpt>
      <trkpt lat="47.81457" lon="7.10506">
        <ele>347</ele>
        <time>2019-11-10T07:19:57.000Z</time>
      </trkpt>
      <trkpt lat="47.81462" lon="7.10507">
        <ele>347.39999389648</ele>
        <time>2019-11-10T07:19:59.000Z</time>
      </trkpt>
      <trkpt lat="47.81464" lon="7.10509">
        <ele>347.79998779297</ele>
        <time>2019-11-10T07:20:00.000Z</time>
      </trkpt>
      <trkpt lat="47.81466" lon="7.1051">
        <ele>348.39999389648</ele>
        <time>2019-11-10T07:20:01.000Z</time>
      </trkpt>
      <trkpt lat="47.81468" lon="7.10511">
        <ele>348.79998779297</ele>
        <time>2019-11-10T07:20:02.000Z</time>
      </trkpt>
      <trkpt lat="47.8147" lon="7.10511">
        <ele>349.20001220703</ele>
        <time>2019-11-10T07:20:03.000Z</time>
      </trkpt>
      <trkpt lat="47.81472" lon="7.10512">
        <ele>349.20001220703</ele>
        <time>2019-11-10T07:20:04.000Z</time>
      </trkpt>
      <trkpt lat="47.81485" lon="7.10515">
        <ele>349.20001220703</ele>
        <time>2019-11-10T07:20:10.000Z</time>
      </trkpt>
      <trkpt lat="47.81499" lon="7.10526">
        <ele>349.20001220703</ele>
        <time>2019-11-10T07:20:18.000Z</time>
      </trkpt>
      <trkpt lat="47.81504" lon="7.1053">
        <ele>349.60000610352</ele>
        <time>2019-11-10T07:20:21.000Z</time>
      </trkpt>
      <trkpt lat="47.81505" lon="7.10531">
        <ele>350</ele>
        <time>2019-11-10T07:20:22.000Z</time>
      </trkpt>
      <trkpt lat="47.81506" lon="7.10532">
        <ele>350.39999389648</ele>
        <time>2019-11-10T07:20:23.000Z</time>
      </trkpt>
      <trkpt lat="47.81508" lon="7.10534">
        <ele>350.79998779297</ele>
        <time>2019-11-10T07:20:24.000Z</time>
      </trkpt>
      <trkpt lat="47.81509" lon="7.10535">
        <ele>351.20001220703</ele>
        <time>2019-11-10T07:20:25.000Z</time>
      </trkpt>
      <trkpt lat="47.81519" lon="7.10543">
        <ele>351.20001220703</ele>
        <time>2019-11-10T07:20:31.000Z</time>
      </trkpt>
      <trkpt lat="47.81532" lon="7.10552">
        <ele>351.20001220703</ele>
        <time>2019-11-10T07:20:38.000Z</time>
      </trkpt>
      <trkpt lat="47.81534" lon="7.10554">
        <ele>351.60000610352</ele>
        <time>2019-11-10T07:20:39.000Z</time>
      </trkpt>
      <trkpt lat="47.81536" lon="7.10556">
        <ele>352</ele>
        <time>2019-11-10T07:20:40.000Z</time>
      </trkpt>
      <trkpt lat="47.81538" lon="7.10558">
        <ele>352.39999389648</ele>
        <time>2019-11-10T07:20:41.000Z</time>
      </trkpt>
      <trkpt lat="47.81539" lon="7.1056">
        <ele>352.79998779297</ele>
        <time>2019-11-10T07:20:42.000Z</time>
      </trkpt>
      <trkpt lat="47.81541" lon="7.10562">
        <ele>353.20001220703</ele>
        <time>2019-11-10T07:20:43.000Z</time>
      </trkpt>
      <trkpt lat="47.81544" lon="7.10566">
        <ele>353.20001220703</ele>
        <time>2019-11-10T07:20:45.000Z</time>
      </trkpt>
      <trkpt lat="47.81552" lon="7.1058">
        <ele>353.20001220703</ele>
        <time>2019-11-10T07:20:51.000Z</time>
      </trkpt>
      <trkpt lat="47.81561" lon="7.10598">
        <ele>353.60000610352</ele>
        <time>2019-11-10T07:20:59.000Z</time>
      </trkpt>
      <trkpt lat="47.81562" lon="7.106">
        <ele>354.20001220703</ele>
        <time>2019-11-10T07:21:00.000Z</time>
      </trkpt>
      <trkpt lat="47.81563" lon="7.10602">
        <ele>354.60000610352</ele>
        <time>2019-11-10T07:21:01.000Z</time>
      </trkpt>
      <trkpt lat="47.81565" lon="7.10605">
        <ele>355</ele>
        <time>2019-11-10T07:21:02.000Z</time>
      </trkpt>
      <trkpt lat="47.81567" lon="7.10606">
        <ele>355.39999389648</ele>
        <time>2019-11-10T07:21:03.000Z</time>
      </trkpt>
      <trkpt lat="47.81571" lon="7.10613">
        <ele>355.39999389648</ele>
        <time>2019-11-10T07:21:06.000Z</time>
      </trkpt>
      <trkpt lat="47.8158" lon="7.10625">
        <ele>355.39999389648</ele>
        <time>2019-11-10T07:21:12.000Z</time>
      </trkpt>
      <trkpt lat="47.8159" lon="7.10642">
        <ele>355.79998779297</ele>
        <time>2019-11-10T07:21:20.000Z</time>
      </trkpt>
      <trkpt lat="47.81592" lon="7.10645">
        <ele>356.20001220703</ele>
        <time>2019-11-10T07:21:21.000Z</time>
      </trkpt>
      <trkpt lat="47.81594" lon="7.10647">
        <ele>356.60000610352</ele>
        <time>2019-11-10T07:21:22.000Z</time>
      </trkpt>
      <trkpt lat="47.81595" lon="7.10649">
        <ele>357</ele>
        <time>2019-11-10T07:21:23.000Z</time>
      </trkpt>
      <trkpt lat="47.81596" lon="7.10651">
        <ele>357.39999389648</ele>
        <time>2019-11-10T07:21:24.000Z</time>
      </trkpt>
      <trkpt lat="47.816" lon="7.10657">
        <ele>357.39999389648</ele>
        <time>2019-11-10T07:21:27.000Z</time>
      </trkpt>
      <trkpt lat="47.81609" lon="7.10669">
        <ele>357.39999389648</ele>
        <time>2019-11-10T07:21:33.000Z</time>
      </trkpt>
      <trkpt lat="47.81617" lon="7.10682">
        <ele>357.39999389648</ele>
        <time>2019-11-10T07:21:39.000Z</time>
      </trkpt>
      <trkpt lat="47.81622" lon="7.10689">
        <ele>357.79998779297</ele>
        <time>2019-11-10T07:21:42.000Z</time>
      </trkpt>
      <trkpt lat="47.81623" lon="7.10691">
        <ele>358.20001220703</ele>
        <time>2019-11-10T07:21:43.000Z</time>
      </trkpt>
      <trkpt lat="47.81625" lon="7.10693">
        <ele>358.60000610352</ele>
        <time>2019-11-10T07:21:44.000Z</time>
      </trkpt>
      <trkpt lat="47.81626" lon="7.10696">
        <ele>359</ele>
        <time>2019-11-10T07:21:45.000Z</time>
      </trkpt>
      <trkpt lat="47.81627" lon="7.10697">
        <ele>359.39999389648</ele>
        <time>2019-11-10T07:21:46.000Z</time>
      </trkpt>
      <trkpt lat="47.81639" lon="7.10711">
        <ele>359.39999389648</ele>
        <time>2019-11-10T07:21:53.000Z</time>
      </trkpt>
      <trkpt lat="47.8165" lon="7.10726">
        <ele>359.39999389648</ele>
        <time>2019-11-10T07:22:01.000Z</time>
      </trkpt>
      <trkpt lat="47.81652" lon="7.10728">
        <ele>359.79998779297</ele>
        <time>2019-11-10T07:22:02.000Z</time>
      </trkpt>
      <trkpt lat="47.81654" lon="7.1073">
        <ele>360.20001220703</ele>
        <time>2019-11-10T07:22:03.000Z</time>
      </trkpt>
      <trkpt lat="47.81656" lon="7.10731">
        <ele>360.60000610352</ele>
        <time>2019-11-10T07:22:04.000Z</time>
      </trkpt>
      <trkpt lat="47.81657" lon="7.10733">
        <ele>361</ele>
        <time>2019-11-10T07:22:05.000Z</time>
      </trkpt>
      <trkpt lat="47.81658" lon="7.10736">
        <ele>361.39999389648</ele>
        <time>2019-11-10T07:22:06.000Z</time>
      </trkpt>
      <trkpt lat="47.8166" lon="7.10739">
        <ele>361.39999389648</ele>
        <time>2019-11-10T07:22:08.000Z</time>
      </trkpt>
      <trkpt lat="47.81668" lon="7.1075">
        <ele>361.39999389648</ele>
        <time>2019-11-10T07:22:14.000Z</time>
      </trkpt>
      <trkpt lat="47.81676" lon="7.10759">
        <ele>361.79998779297</ele>
        <time>2019-11-10T07:22:19.000Z</time>
      </trkpt>
      <trkpt lat="47.81677" lon="7.10761">
        <ele>362.39999389648</ele>
        <time>2019-11-10T07:22:20.000Z</time>
      </trkpt>
      <trkpt lat="47.81679" lon="7.10763">
        <ele>362.79998779297</ele>
        <time>2019-11-10T07:22:21.000Z</time>
      </trkpt>
      <trkpt lat="47.8168" lon="7.10765">
        <ele>363.20001220703</ele>
        <time>2019-11-10T07:22:22.000Z</time>
      </trkpt>
      <trkpt lat="47.81682" lon="7.10768">
        <ele>363.60000610352</ele>
        <time>2019-11-10T07:22:23.000Z</time>
      </trkpt>
      <trkpt lat="47.81692" lon="7.1078">
        <ele>363.60000610352</ele>
        <time>2019-11-10T07:22:30.000Z</time>
      </trkpt>
      <trkpt lat="47.81699" lon="7.10783">
        <ele>364</ele>
        <time>2019-11-10T07:22:34.000Z</time>
      </trkpt>
      <trkpt lat="47.81701" lon="7.10783">
        <ele>364.39999389648</ele>
        <time>2019-11-10T07:22:35.000Z</time>
      </trkpt>
      <trkpt lat="47.81703" lon="7.10783">
        <ele>365</ele>
        <time>2019-11-10T07:22:36.000Z</time>
      </trkpt>
      <trkpt lat="47.81704" lon="7.10783">
        <ele>365.39999389648</ele>
        <time>2019-11-10T07:22:37.000Z</time>
      </trkpt>
      <trkpt lat="47.81706" lon="7.10783">
        <ele>365.79998779297</ele>
        <time>2019-11-10T07:22:38.000Z</time>
      </trkpt>
      <trkpt lat="47.81714" lon="7.10784">
        <ele>365.79998779297</ele>
        <time>2019-11-10T07:22:43.000Z</time>
      </trkpt>
      <trkpt lat="47.81726" lon="7.10788">
        <ele>365.79998779297</ele>
        <time>2019-11-10T07:22:50.000Z</time>
      </trkpt>
      <trkpt lat="47.81733" lon="7.10793">
        <ele>365.79998779297</ele>
        <time>2019-11-10T07:22:55.000Z</time>
      </trkpt>
      <trkpt lat="47.81736" lon="7.10794">
        <ele>365.79998779297</ele>
        <time>2019-11-10T07:22:57.000Z</time>
      </trkpt>
      <trkpt lat="47.81741" lon="7.10797">
        <ele>366.20001220703</ele>
        <time>2019-11-10T07:23:00.000Z</time>
      </trkpt>
      <trkpt lat="47.81743" lon="7.10798">
        <ele>366.60000610352</ele>
        <time>2019-11-10T07:23:01.000Z</time>
      </trkpt>
      <trkpt lat="47.81744" lon="7.10798">
        <ele>367</ele>
        <time>2019-11-10T07:23:02.000Z</time>
      </trkpt>
      <trkpt lat="47.81746" lon="7.10799">
        <ele>367.39999389648</ele>
        <time>2019-11-10T07:23:03.000Z</time>
      </trkpt>
      <trkpt lat="47.81747" lon="7.10799">
        <ele>367.79998779297</ele>
        <time>2019-11-10T07:23:04.000Z</time>
      </trkpt>
      <trkpt lat="47.81754" lon="7.10796">
        <ele>367.79998779297</ele>
        <time>2019-11-10T07:23:10.000Z</time>
      </trkpt>
      <trkpt lat="47.81755" lon="7.10796">
        <ele>368.20001220703</ele>
        <time>2019-11-10T07:23:11.000Z</time>
      </trkpt>
      <trkpt lat="47.81756" lon="7.10797">
        <ele>368.60000610352</ele>
        <time>2019-11-10T07:23:12.000Z</time>
      </trkpt>
      <trkpt lat="47.81757" lon="7.10797">
        <ele>369</ele>
        <time>2019-11-10T07:23:13.000Z</time>
      </trkpt>
      <trkpt lat="47.81758" lon="7.10798">
        <ele>369.39999389648</ele>
        <time>2019-11-10T07:23:14.000Z</time>
      </trkpt>
      <trkpt lat="47.81759" lon="7.10799">
        <ele>369.79998779297</ele>
        <time>2019-11-10T07:23:15.000Z</time>
      </trkpt>
      <trkpt lat="47.8176" lon="7.108">
        <ele>369.79998779297</ele>
        <time>2019-11-10T07:23:16.000Z</time>
      </trkpt>
      <trkpt lat="47.8177" lon="7.10802">
        <ele>369.79998779297</ele>
        <time>2019-11-10T07:23:23.000Z</time>
      </trkpt>
      <trkpt lat="47.81771" lon="7.10802">
        <ele>370.20001220703</ele>
        <time>2019-11-10T07:23:24.000Z</time>
      </trkpt>
      <trkpt lat="47.81772" lon="7.10802">
        <ele>370.60000610352</ele>
        <time>2019-11-10T07:23:25.000Z</time>
      </trkpt>
      <trkpt lat="47.81773" lon="7.10802">
        <ele>371</ele>
        <time>2019-11-10T07:23:26.000Z</time>
      </trkpt>
      <trkpt lat="47.81775" lon="7.10803">
        <ele>371.39999389648</ele>
        <time>2019-11-10T07:23:27.000Z</time>
      </trkpt>
      <trkpt lat="47.81777" lon="7.10803">
        <ele>371.79998779297</ele>
        <time>2019-11-10T07:23:28.000Z</time>
      </trkpt>
      <trkpt lat="47.81779" lon="7.10805">
        <ele>371.79998779297</ele>
        <time>2019-11-10T07:23:30.000Z</time>
      </trkpt>
      <trkpt lat="47.81788" lon="7.10814">
        <ele>372.20001220703</ele>
        <time>2019-11-10T07:23:37.000Z</time>
      </trkpt>
      <trkpt lat="47.8179" lon="7.10815">
        <ele>372.60000610352</ele>
        <time>2019-11-10T07:23:38.000Z</time>
      </trkpt>
      <trkpt lat="47.81791" lon="7.10817">
        <ele>373</ele>
        <time>2019-11-10T07:23:39.000Z</time>
      </trkpt>
      <trkpt lat="47.81793" lon="7.10818">
        <ele>373.39999389648</ele>
        <time>2019-11-10T07:23:40.000Z</time>
      </trkpt>
      <trkpt lat="47.81794" lon="7.10819">
        <ele>373.79998779297</ele>
        <time>2019-11-10T07:23:41.000Z</time>
      </trkpt>
      <trkpt lat="47.81797" lon="7.10821">
        <ele>373.79998779297</ele>
        <time>2019-11-10T07:23:43.000Z</time>
      </trkpt>
      <trkpt lat="47.81798" lon="7.10822">
        <ele>373.79998779297</ele>
        <time>2019-11-10T07:23:44.000Z</time>
      </trkpt>
      <trkpt lat="47.81806" lon="7.10826">
        <ele>374.39999389648</ele>
        <time>2019-11-10T07:23:48.000Z</time>
      </trkpt>
      <trkpt lat="47.81808" lon="7.10827">
        <ele>374.79998779297</ele>
        <time>2019-11-10T07:23:49.000Z</time>
      </trkpt>
      <trkpt lat="47.81809" lon="7.10827">
        <ele>375.20001220703</ele>
        <time>2019-11-10T07:23:50.000Z</time>
      </trkpt>
      <trkpt lat="47.81811" lon="7.10828">
        <ele>375.60000610352</ele>
        <time>2019-11-10T07:23:51.000Z</time>
      </trkpt>
      <trkpt lat="47.81813" lon="7.10829">
        <ele>376</ele>
        <time>2019-11-10T07:23:52.000Z</time>
      </trkpt>
      <trkpt lat="47.81821" lon="7.10834">
        <ele>376.60000610352</ele>
        <time>2019-11-10T07:23:57.000Z</time>
      </trkpt>
      <trkpt lat="47.81823" lon="7.10836">
        <ele>377</ele>
        <time>2019-11-10T07:23:58.000Z</time>
      </trkpt>
      <trkpt lat="47.81825" lon="7.10835">
        <ele>377.39999389648</ele>
        <time>2019-11-10T07:23:59.000Z</time>
      </trkpt>
      <trkpt lat="47.81826" lon="7.10838">
        <ele>377.79998779297</ele>
        <time>2019-11-10T07:24:00.000Z</time>
      </trkpt>
      <trkpt lat="47.81828" lon="7.10838">
        <ele>378.20001220703</ele>
        <time>2019-11-10T07:24:01.000Z</time>
      </trkpt>
      <trkpt lat="47.81833" lon="7.10841">
        <ele>378.60000610352</ele>
        <time>2019-11-10T07:24:05.000Z</time>
      </trkpt>
      <trkpt lat="47.81835" lon="7.10842">
        <ele>379.20001220703</ele>
        <time>2019-11-10T07:24:06.000Z</time>
      </trkpt>
      <trkpt lat="47.81837" lon="7.10842">
        <ele>379.60000610352</ele>
        <time>2019-11-10T07:24:07.000Z</time>
      </trkpt>
      <trkpt lat="47.81839" lon="7.10843">
        <ele>380</ele>
        <time>2019-11-10T07:24:08.000Z</time>
      </trkpt>
      <trkpt lat="47.81841" lon="7.10844">
        <ele>380.39999389648</ele>
        <time>2019-11-10T07:24:09.000Z</time>
      </trkpt>
      <trkpt lat="47.81849" lon="7.10848">
        <ele>380.79998779297</ele>
        <time>2019-11-10T07:24:14.000Z</time>
      </trkpt>
      <trkpt lat="47.81849" lon="7.10848">
        <ele>381.20001220703</ele>
        <time>2019-11-10T07:24:15.000Z</time>
      </trkpt>
      <trkpt lat="47.8185" lon="7.10849">
        <ele>381.60000610352</ele>
        <time>2019-11-10T07:24:16.000Z</time>
      </trkpt>
      <trkpt lat="47.81851" lon="7.10849">
        <ele>382</ele>
        <time>2019-11-10T07:24:17.000Z</time>
      </trkpt>
      <trkpt lat="47.81853" lon="7.1085">
        <ele>382.39999389648</ele>
        <time>2019-11-10T07:24:18.000Z</time>
      </trkpt>
      <trkpt lat="47.81856" lon="7.10852">
        <ele>383</ele>
        <time>2019-11-10T07:24:20.000Z</time>
      </trkpt>
      <trkpt lat="47.81858" lon="7.10855">
        <ele>383.39999389648</ele>
        <time>2019-11-10T07:24:21.000Z</time>
      </trkpt>
      <trkpt lat="47.81859" lon="7.10856">
        <ele>383.79998779297</ele>
        <time>2019-11-10T07:24:22.000Z</time>
      </trkpt>
      <trkpt lat="47.81861" lon="7.10857">
        <ele>384.20001220703</ele>
        <time>2019-11-10T07:24:23.000Z</time>
      </trkpt>
      <trkpt lat="47.81862" lon="7.10858">
        <ele>384.60000610352</ele>
        <time>2019-11-10T07:24:24.000Z</time>
      </trkpt>
      <trkpt lat="47.81864" lon="7.10859">
        <ele>384.60000610352</ele>
        <time>2019-11-10T07:24:25.000Z</time>
      </trkpt>
      <trkpt lat="47.81868" lon="7.10862">
        <ele>385</ele>
        <time>2019-11-10T07:24:28.000Z</time>
      </trkpt>
      <trkpt lat="47.8187" lon="7.10863">
        <ele>385.39999389648</ele>
        <time>2019-11-10T07:24:29.000Z</time>
      </trkpt>
      <trkpt lat="47.81871" lon="7.10864">
        <ele>385.79998779297</ele>
        <time>2019-11-10T07:24:30.000Z</time>
      </trkpt>
      <trkpt lat="47.81873" lon="7.10864">
        <ele>386.39999389648</ele>
        <time>2019-11-10T07:24:31.000Z</time>
      </trkpt>
      <trkpt lat="47.81874" lon="7.10865">
        <ele>386.79998779297</ele>
        <time>2019-11-10T07:24:32.000Z</time>
      </trkpt>
      <trkpt lat="47.81878" lon="7.10867">
        <ele>387.20001220703</ele>
        <time>2019-11-10T07:24:35.000Z</time>
      </trkpt>
      <trkpt lat="47.81879" lon="7.10867">
        <ele>387.60000610352</ele>
        <time>2019-11-10T07:24:36.000Z</time>
      </trkpt>
      <trkpt lat="47.8188" lon="7.10868">
        <ele>388</ele>
        <time>2019-11-10T07:24:37.000Z</time>
      </trkpt>
      <trkpt lat="47.81881" lon="7.10869">
        <ele>388.39999389648</ele>
        <time>2019-11-10T07:24:38.000Z</time>
      </trkpt>
      <trkpt lat="47.81883" lon="7.1087">
        <ele>388.79998779297</ele>
        <time>2019-11-10T07:24:39.000Z</time>
      </trkpt>
      <trkpt lat="47.81886" lon="7.10871">
        <ele>389.39999389648</ele>
        <time>2019-11-10T07:24:43.000Z</time>
      </trkpt>
      <trkpt lat="47.81888" lon="7.10872">
        <ele>389.79998779297</ele>
        <time>2019-11-10T07:24:44.000Z</time>
      </trkpt>
      <trkpt lat="47.81889" lon="7.10873">
        <ele>390.60000610352</ele>
        <time>2019-11-10T07:24:45.000Z</time>
      </trkpt>
      <trkpt lat="47.8189" lon="7.10874">
        <ele>391</ele>
        <time>2019-11-10T07:24:46.000Z</time>
      </trkpt>
      <trkpt lat="47.81895" lon="7.10877">
        <ele>391.39999389648</ele>
        <time>2019-11-10T07:24:50.000Z</time>
      </trkpt>
      <trkpt lat="47.81896" lon="7.10878">
        <ele>392</ele>
        <time>2019-11-10T07:24:51.000Z</time>
      </trkpt>
      <trkpt lat="47.81898" lon="7.10879">
        <ele>392.39999389648</ele>
        <time>2019-11-10T07:24:52.000Z</time>
      </trkpt>
      <trkpt lat="47.819" lon="7.1088">
        <ele>392.79998779297</ele>
        <time>2019-11-10T07:24:53.000Z</time>
      </trkpt>
      <trkpt lat="47.81902" lon="7.1088">
        <ele>393.20001220703</ele>
        <time>2019-11-10T07:24:54.000Z</time>
      </trkpt>
      <trkpt lat="47.81908" lon="7.10882">
        <ele>393.20001220703</ele>
        <time>2019-11-10T07:24:58.000Z</time>
      </trkpt>
      <trkpt lat="47.8191" lon="7.10882">
        <ele>393.60000610352</ele>
        <time>2019-11-10T07:24:59.000Z</time>
      </trkpt>
      <trkpt lat="47.81911" lon="7.10883">
        <ele>394.20001220703</ele>
        <time>2019-11-10T07:25:00.000Z</time>
      </trkpt>
      <trkpt lat="47.81912" lon="7.10882">
        <ele>394.60000610352</ele>
        <time>2019-11-10T07:25:01.000Z</time>
      </trkpt>
      <trkpt lat="47.81914" lon="7.10882">
        <ele>395</ele>
        <time>2019-11-10T07:25:02.000Z</time>
      </trkpt>
      <trkpt lat="47.81916" lon="7.10883">
        <ele>395.39999389648</ele>
        <time>2019-11-10T07:25:03.000Z</time>
      </trkpt>
      <trkpt lat="47.81922" lon="7.10885">
        <ele>395.79998779297</ele>
        <time>2019-11-10T07:25:07.000Z</time>
      </trkpt>
      <trkpt lat="47.81924" lon="7.10886">
        <ele>396.39999389648</ele>
        <time>2019-11-10T07:25:08.000Z</time>
      </trkpt>
      <trkpt lat="47.81926" lon="7.10886">
        <ele>396.79998779297</ele>
        <time>2019-11-10T07:25:09.000Z</time>
      </trkpt>
      <trkpt lat="47.81927" lon="7.10886">
        <ele>397.60000610352</ele>
        <time>2019-11-10T07:25:10.000Z</time>
      </trkpt>
      <trkpt lat="47.81928" lon="7.10886">
        <ele>397.60000610352</ele>
        <time>2019-11-10T07:25:11.000Z</time>
      </trkpt>
      <trkpt lat="47.81932" lon="7.10888">
        <ele>398.20001220703</ele>
        <time>2019-11-10T07:25:14.000Z</time>
      </trkpt>
      <trkpt lat="47.81933" lon="7.10888">
        <ele>398.60000610352</ele>
        <time>2019-11-10T07:25:15.000Z</time>
      </trkpt>
      <trkpt lat="47.81935" lon="7.10889">
        <ele>399</ele>
        <time>2019-11-10T07:25:16.000Z</time>
      </trkpt>
      <trkpt lat="47.81937" lon="7.10889">
        <ele>399.39999389648</ele>
        <time>2019-11-10T07:25:17.000Z</time>
      </trkpt>
      <trkpt lat="47.81938" lon="7.10889">
        <ele>399.79998779297</ele>
        <time>2019-11-10T07:25:18.000Z</time>
      </trkpt>
      <trkpt lat="47.81943" lon="7.10888">
        <ele>400.20001220703</ele>
        <time>2019-11-10T07:25:21.000Z</time>
      </trkpt>
      <trkpt lat="47.81945" lon="7.10889">
        <ele>400.79998779297</ele>
        <time>2019-11-10T07:25:22.000Z</time>
      </trkpt>
      <trkpt lat="47.81946" lon="7.10889">
        <ele>401.20001220703</ele>
        <time>2019-11-10T07:25:23.000Z</time>
      </trkpt>
      <trkpt lat="47.81948" lon="7.10888">
        <ele>401.60000610352</ele>
        <time>2019-11-10T07:25:24.000Z</time>
      </trkpt>
      <trkpt lat="47.8195" lon="7.10888">
        <ele>402</ele>
        <time>2019-11-10T07:25:25.000Z</time>
      </trkpt>
      <trkpt lat="47.81954" lon="7.10886">
        <ele>402.39999389648</ele>
        <time>2019-11-10T07:25:27.000Z</time>
      </trkpt>
      <trkpt lat="47.81956" lon="7.10886">
        <ele>402.79998779297</ele>
        <time>2019-11-10T07:25:28.000Z</time>
      </trkpt>
      <trkpt lat="47.81958" lon="7.10886">
        <ele>403.39999389648</ele>
        <time>2019-11-10T07:25:29.000Z</time>
      </trkpt>
      <trkpt lat="47.8196" lon="7.10886">
        <ele>403.79998779297</ele>
        <time>2019-11-10T07:25:30.000Z</time>
      </trkpt>
      <trkpt lat="47.81961" lon="7.10886">
        <ele>404.20001220703</ele>
        <time>2019-11-10T07:25:31.000Z</time>
      </trkpt>
      <trkpt lat="47.81964" lon="7.10886">
        <ele>404.60000610352</ele>
        <time>2019-11-10T07:25:33.000Z</time>
      </trkpt>
      <trkpt lat="47.81966" lon="7.10885">
        <ele>405.39999389648</ele>
        <time>2019-11-10T07:25:34.000Z</time>
      </trkpt>
      <trkpt lat="47.81968" lon="7.10883">
        <ele>405.79998779297</ele>
        <time>2019-11-10T07:25:35.000Z</time>
      </trkpt>
      <trkpt lat="47.81968" lon="7.10883">
        <ele>406.20001220703</ele>
        <time>2019-11-10T07:25:36.000Z</time>
      </trkpt>
      <trkpt lat="47.8197" lon="7.10882">
        <ele>406.60000610352</ele>
        <time>2019-11-10T07:25:38.000Z</time>
      </trkpt>
      <trkpt lat="47.81971" lon="7.10881">
        <ele>407.20001220703</ele>
        <time>2019-11-10T07:25:39.000Z</time>
      </trkpt>
      <trkpt lat="47.81972" lon="7.10881">
        <ele>407.60000610352</ele>
        <time>2019-11-10T07:25:40.000Z</time>
      </trkpt>
      <trkpt lat="47.81974" lon="7.1088">
        <ele>408</ele>
        <time>2019-11-10T07:25:41.000Z</time>
      </trkpt>
      <trkpt lat="47.81976" lon="7.1088">
        <ele>408.39999389648</ele>
        <time>2019-11-10T07:25:42.000Z</time>
      </trkpt>
      <trkpt lat="47.81979" lon="7.10878">
        <ele>408.79998779297</ele>
        <time>2019-11-10T07:25:45.000Z</time>
      </trkpt>
      <trkpt lat="47.8198" lon="7.10878">
        <ele>409.20001220703</ele>
        <time>2019-11-10T07:25:46.000Z</time>
      </trkpt>
      <trkpt lat="47.81982" lon="7.10877">
        <ele>409.60000610352</ele>
        <time>2019-11-10T07:25:47.000Z</time>
      </trkpt>
      <trkpt lat="47.81984" lon="7.10876">
        <ele>410</ele>
        <time>2019-11-10T07:25:48.000Z</time>
      </trkpt>
      <trkpt lat="47.81985" lon="7.10876">
        <ele>410.60000610352</ele>
        <time>2019-11-10T07:25:49.000Z</time>
      </trkpt>
      <trkpt lat="47.81987" lon="7.10875">
        <ele>410.60000610352</ele>
        <time>2019-11-10T07:25:51.000Z</time>
      </trkpt>
      <trkpt lat="47.81988" lon="7.10874">
        <ele>411</ele>
        <time>2019-11-10T07:25:52.000Z</time>
      </trkpt>
      <trkpt lat="47.81989" lon="7.10874">
        <ele>411.39999389648</ele>
        <time>2019-11-10T07:25:53.000Z</time>
      </trkpt>
      <trkpt lat="47.81989" lon="7.10874">
        <ele>411.79998779297</ele>
        <time>2019-11-10T07:25:54.000Z</time>
      </trkpt>
      <trkpt lat="47.82003" lon="7.10867">
        <ele>416.79998779297</ele>
        <time>2019-11-10T07:27:09.000Z</time>
      </trkpt>
      <trkpt lat="47.82004" lon="7.10868">
        <ele>416.79998779297</ele>
        <time>2019-11-10T07:27:10.000Z</time>
      </trkpt>
      <trkpt lat="47.82007" lon="7.10868">
        <ele>416.79998779297</ele>
        <time>2019-11-10T07:27:11.000Z</time>
      </trkpt>
      <trkpt lat="47.8201" lon="7.10866">
        <ele>417.60000610352</ele>
        <time>2019-11-10T07:27:13.000Z</time>
      </trkpt>
      <trkpt lat="47.82012" lon="7.10865">
        <ele>418.20001220703</ele>
        <time>2019-11-10T07:27:14.000Z</time>
      </trkpt>
      <trkpt lat="47.82013" lon="7.10865">
        <ele>418.60000610352</ele>
        <time>2019-11-10T07:27:15.000Z</time>
      </trkpt>
      <trkpt lat="47.82015" lon="7.10865">
        <ele>419</ele>
        <time>2019-11-10T07:27:16.000Z</time>
      </trkpt>
      <trkpt lat="47.82019" lon="7.10866">
        <ele>419.60000610352</ele>
        <time>2019-11-10T07:27:18.000Z</time>
      </trkpt>
      <trkpt lat="47.8202" lon="7.10866">
        <ele>420</ele>
        <time>2019-11-10T07:27:19.000Z</time>
      </trkpt>
      <trkpt lat="47.82021" lon="7.10866">
        <ele>420.39999389648</ele>
        <time>2019-11-10T07:27:20.000Z</time>
      </trkpt>
      <trkpt lat="47.82023" lon="7.10867">
        <ele>421</ele>
        <time>2019-11-10T07:27:21.000Z</time>
      </trkpt>
      <trkpt lat="47.82024" lon="7.10868">
        <ele>421.39999389648</ele>
        <time>2019-11-10T07:27:22.000Z</time>
      </trkpt>
      <trkpt lat="47.82028" lon="7.1087">
        <ele>422</ele>
        <time>2019-11-10T07:27:24.000Z</time>
      </trkpt>
      <trkpt lat="47.82028" lon="7.10872">
        <ele>422.39999389648</ele>
        <time>2019-11-10T07:27:25.000Z</time>
      </trkpt>
      <trkpt lat="47.82029" lon="7.10873">
        <ele>422.79998779297</ele>
        <time>2019-11-10T07:27:26.000Z</time>
      </trkpt>
      <trkpt lat="47.8203" lon="7.10875">
        <ele>423.20001220703</ele>
        <time>2019-11-10T07:27:27.000Z</time>
      </trkpt>
      <trkpt lat="47.82031" lon="7.10876">
        <ele>423.79998779297</ele>
        <time>2019-11-10T07:27:28.000Z</time>
      </trkpt>
      <trkpt lat="47.82033" lon="7.10879">
        <ele>424.20001220703</ele>
        <time>2019-11-10T07:27:29.000Z</time>
      </trkpt>
      <trkpt lat="47.82034" lon="7.10881">
        <ele>424.60000610352</ele>
        <time>2019-11-10T07:27:30.000Z</time>
      </trkpt>
      <trkpt lat="47.82035" lon="7.10882">
        <ele>425</ele>
        <time>2019-11-10T07:27:31.000Z</time>
      </trkpt>
      <trkpt lat="47.82036" lon="7.10883">
        <ele>425.39999389648</ele>
        <time>2019-11-10T07:27:32.000Z</time>
      </trkpt>
      <trkpt lat="47.82038" lon="7.10884">
        <ele>425.79998779297</ele>
        <time>2019-11-10T07:27:33.000Z</time>
      </trkpt>
      <trkpt lat="47.8204" lon="7.10887">
        <ele>426.20001220703</ele>
        <time>2019-11-10T07:27:35.000Z</time>
      </trkpt>
      <trkpt lat="47.82041" lon="7.10889">
        <ele>426.79998779297</ele>
        <time>2019-11-10T07:27:36.000Z</time>
      </trkpt>
      <trkpt lat="47.82042" lon="7.10891">
        <ele>427.20001220703</ele>
        <time>2019-11-10T07:27:37.000Z</time>
      </trkpt>
      <trkpt lat="47.82042" lon="7.10892">
        <ele>428.20001220703</ele>
        <time>2019-11-10T07:27:38.000Z</time>
      </trkpt>
      <trkpt lat="47.82044" lon="7.10893">
        <ele>428.60000610352</ele>
        <time>2019-11-10T07:27:39.000Z</time>
      </trkpt>
      <trkpt lat="47.82045" lon="7.10896">
        <ele>429</ele>
        <time>2019-11-10T07:27:40.000Z</time>
      </trkpt>
      <trkpt lat="47.82047" lon="7.10896">
        <ele>429.39999389648</ele>
        <time>2019-11-10T07:27:41.000Z</time>
      </trkpt>
      <trkpt lat="47.82049" lon="7.10896">
        <ele>429.79998779297</ele>
        <time>2019-11-10T07:27:42.000Z</time>
      </trkpt>
      <trkpt lat="47.8205" lon="7.10897">
        <ele>430.20001220703</ele>
        <time>2019-11-10T07:27:43.000Z</time>
      </trkpt>
      <trkpt lat="47.82051" lon="7.10898">
        <ele>430.79998779297</ele>
        <time>2019-11-10T07:27:44.000Z</time>
      </trkpt>
      <trkpt lat="47.82052" lon="7.10899">
        <ele>431.20001220703</ele>
        <time>2019-11-10T07:27:45.000Z</time>
      </trkpt>
      <trkpt lat="47.82053" lon="7.10899">
        <ele>431.79998779297</ele>
        <time>2019-11-10T07:27:46.000Z</time>
      </trkpt>
      <trkpt lat="47.82054" lon="7.109">
        <ele>432.20001220703</ele>
        <time>2019-11-10T07:27:47.000Z</time>
      </trkpt>
      <trkpt lat="47.82057" lon="7.10901">
        <ele>432.79998779297</ele>
        <time>2019-11-10T07:27:49.000Z</time>
      </trkpt>
      <trkpt lat="47.82058" lon="7.10901">
        <ele>433.20001220703</ele>
        <time>2019-11-10T07:27:50.000Z</time>
      </trkpt>
      <trkpt lat="47.82059" lon="7.10901">
        <ele>433.60000610352</ele>
        <time>2019-11-10T07:27:51.000Z</time>
      </trkpt>
      <trkpt lat="47.82059" lon="7.10901">
        <ele>434.20001220703</ele>
        <time>2019-11-10T07:27:52.000Z</time>
      </trkpt>
      <trkpt lat="47.82061" lon="7.10902">
        <ele>434.60000610352</ele>
        <time>2019-11-10T07:27:53.000Z</time>
      </trkpt>
      <trkpt lat="47.82063" lon="7.10902">
        <ele>435</ele>
        <time>2019-11-10T07:27:54.000Z</time>
      </trkpt>
      <trkpt lat="47.82064" lon="7.10902">
        <ele>435.39999389648</ele>
        <time>2019-11-10T07:27:55.000Z</time>
      </trkpt>
      <trkpt lat="47.82066" lon="7.10902">
        <ele>435.79998779297</ele>
        <time>2019-11-10T07:27:56.000Z</time>
      </trkpt>
      <trkpt lat="47.82067" lon="7.10902">
        <ele>436.20001220703</ele>
        <time>2019-11-10T07:27:57.000Z</time>
      </trkpt>
      <trkpt lat="47.82068" lon="7.10902">
        <ele>436.79998779297</ele>
        <time>2019-11-10T07:27:58.000Z</time>
      </trkpt>
      <trkpt lat="47.82072" lon="7.10902">
        <ele>437.20001220703</ele>
        <time>2019-11-10T07:28:00.000Z</time>
      </trkpt>
      <trkpt lat="47.82074" lon="7.10902">
        <ele>437.60000610352</ele>
        <time>2019-11-10T07:28:01.000Z</time>
      </trkpt>
      <trkpt lat="47.82076" lon="7.10902">
        <ele>438.39999389648</ele>
        <time>2019-11-10T07:28:02.000Z</time>
      </trkpt>
      <trkpt lat="47.82078" lon="7.10902">
        <ele>438.79998779297</ele>
        <time>2019-11-10T07:28:03.000Z</time>
      </trkpt>
      <trkpt lat="47.82085" lon="7.10904">
        <ele>439.39999389648</ele>
        <time>2019-11-10T07:28:07.000Z</time>
      </trkpt>
      <trkpt lat="47.82087" lon="7.10904">
        <ele>439.79998779297</ele>
        <time>2019-11-10T07:28:08.000Z</time>
      </trkpt>
      <trkpt lat="47.82088" lon="7.10905">
        <ele>440.20001220703</ele>
        <time>2019-11-10T07:28:09.000Z</time>
      </trkpt>
      <trkpt lat="47.8209" lon="7.10905">
        <ele>440.60000610352</ele>
        <time>2019-11-10T07:28:10.000Z</time>
      </trkpt>
      <trkpt lat="47.82091" lon="7.10905">
        <ele>441</ele>
        <time>2019-11-10T07:28:11.000Z</time>
      </trkpt>
      <trkpt lat="47.82096" lon="7.10905">
        <ele>441</ele>
        <time>2019-11-10T07:28:14.000Z</time>
      </trkpt>
      <trkpt lat="47.82098" lon="7.10905">
        <ele>441.39999389648</ele>
        <time>2019-11-10T07:28:15.000Z</time>
      </trkpt>
      <trkpt lat="47.82099" lon="7.10904">
        <ele>442</ele>
        <time>2019-11-10T07:28:16.000Z</time>
      </trkpt>
      <trkpt lat="47.82101" lon="7.10904">
        <ele>442.39999389648</ele>
        <time>2019-11-10T07:28:17.000Z</time>
      </trkpt>
      <trkpt lat="47.82102" lon="7.10903">
        <ele>442.79998779297</ele>
        <time>2019-11-10T07:28:18.000Z</time>
      </trkpt>
      <trkpt lat="47.82103" lon="7.10903">
        <ele>443.20001220703</ele>
        <time>2019-11-10T07:28:19.000Z</time>
      </trkpt>
      <trkpt lat="47.82106" lon="7.109">
        <ele>443.60000610352</ele>
        <time>2019-11-10T07:28:21.000Z</time>
      </trkpt>
      <trkpt lat="47.82107" lon="7.109">
        <ele>444</ele>
        <time>2019-11-10T07:28:22.000Z</time>
      </trkpt>
      <trkpt lat="47.82108" lon="7.109">
        <ele>444.60000610352</ele>
        <time>2019-11-10T07:28:23.000Z</time>
      </trkpt>
      <trkpt lat="47.8211" lon="7.109">
        <ele>445</ele>
        <time>2019-11-10T07:28:24.000Z</time>
      </trkpt>
      <trkpt lat="47.82112" lon="7.109">
        <ele>445.60000610352</ele>
        <time>2019-11-10T07:28:25.000Z</time>
      </trkpt>
      <trkpt lat="47.82113" lon="7.10898">
        <ele>445.60000610352</ele>
        <time>2019-11-10T07:28:26.000Z</time>
      </trkpt>
      <trkpt lat="47.82115" lon="7.10897">
        <ele>446</ele>
        <time>2019-11-10T07:28:27.000Z</time>
      </trkpt>
      <trkpt lat="47.82117" lon="7.10896">
        <ele>446.39999389648</ele>
        <time>2019-11-10T07:28:28.000Z</time>
      </trkpt>
      <trkpt lat="47.82118" lon="7.10895">
        <ele>447</ele>
        <time>2019-11-10T07:28:29.000Z</time>
      </trkpt>
      <trkpt lat="47.8212" lon="7.10894">
        <ele>447.39999389648</ele>
        <time>2019-11-10T07:28:30.000Z</time>
      </trkpt>
      <trkpt lat="47.82122" lon="7.10892">
        <ele>447.79998779297</ele>
        <time>2019-11-10T07:28:31.000Z</time>
      </trkpt>
      <trkpt lat="47.82123" lon="7.10891">
        <ele>448.39999389648</ele>
        <time>2019-11-10T07:28:32.000Z</time>
      </trkpt>
      <trkpt lat="47.82125" lon="7.10891">
        <ele>448.79998779297</ele>
        <time>2019-11-10T07:28:33.000Z</time>
      </trkpt>
      <trkpt lat="47.82126" lon="7.10891">
        <ele>449.39999389648</ele>
        <time>2019-11-10T07:28:34.000Z</time>
      </trkpt>
      <trkpt lat="47.82128" lon="7.10889">
        <ele>449.79998779297</ele>
        <time>2019-11-10T07:28:35.000Z</time>
      </trkpt>
      <trkpt lat="47.8213" lon="7.10888">
        <ele>450.39999389648</ele>
        <time>2019-11-10T07:28:36.000Z</time>
      </trkpt>
      <trkpt lat="47.82132" lon="7.10886">
        <ele>450.39999389648</ele>
        <time>2019-11-10T07:28:38.000Z</time>
      </trkpt>
      <trkpt lat="47.82134" lon="7.10885">
        <ele>450.79998779297</ele>
        <time>2019-11-10T07:28:40.000Z</time>
      </trkpt>
      <trkpt lat="47.82136" lon="7.10883">
        <ele>451.20001220703</ele>
        <time>2019-11-10T07:28:41.000Z</time>
      </trkpt>
      <trkpt lat="47.82138" lon="7.10882">
        <ele>451.79998779297</ele>
        <time>2019-11-10T07:28:42.000Z</time>
      </trkpt>
      <trkpt lat="47.8214" lon="7.1088">
        <ele>452.20001220703</ele>
        <time>2019-11-10T07:28:43.000Z</time>
      </trkpt>
      <trkpt lat="47.8214" lon="7.10879">
        <ele>452.60000610352</ele>
        <time>2019-11-10T07:28:44.000Z</time>
      </trkpt>
      <trkpt lat="47.82148" lon="7.1087">
        <ele>453</ele>
        <time>2019-11-10T07:28:50.000Z</time>
      </trkpt>
      <trkpt lat="47.82151" lon="7.1087">
        <ele>453.60000610352</ele>
        <time>2019-11-10T07:28:51.000Z</time>
      </trkpt>
      <trkpt lat="47.82152" lon="7.10868">
        <ele>454.39999389648</ele>
        <time>2019-11-10T07:28:52.000Z</time>
      </trkpt>
      <trkpt lat="47.82154" lon="7.10868">
        <ele>454.79998779297</ele>
        <time>2019-11-10T07:28:53.000Z</time>
      </trkpt>
      <trkpt lat="47.82158" lon="7.10863">
        <ele>455.20001220703</ele>
        <time>2019-11-10T07:28:57.000Z</time>
      </trkpt>
      <trkpt lat="47.82164" lon="7.10861">
        <ele>457</ele>
        <time>2019-11-10T07:28:59.000Z</time>
      </trkpt>
      <trkpt lat="47.82168" lon="7.1086">
        <ele>457.39999389648</ele>
        <time>2019-11-10T07:29:04.000Z</time>
      </trkpt>
      <trkpt lat="47.82169" lon="7.10859">
        <ele>457.79998779297</ele>
        <time>2019-11-10T07:29:05.000Z</time>
      </trkpt>
      <trkpt lat="47.82171" lon="7.10858">
        <ele>458.39999389648</ele>
        <time>2019-11-10T07:29:06.000Z</time>
      </trkpt>
      <trkpt lat="47.82172" lon="7.10857">
        <ele>458.79998779297</ele>
        <time>2019-11-10T07:29:07.000Z</time>
      </trkpt>
      <trkpt lat="47.82174" lon="7.10856">
        <ele>459.20001220703</ele>
        <time>2019-11-10T07:29:08.000Z</time>
      </trkpt>
      <trkpt lat="47.82182" lon="7.10852">
        <ele>459.60000610352</ele>
        <time>2019-11-10T07:29:12.000Z</time>
      </trkpt>
      <trkpt lat="47.82183" lon="7.10851">
        <ele>460.20001220703</ele>
        <time>2019-11-10T07:29:13.000Z</time>
      </trkpt>
      <trkpt lat="47.82184" lon="7.1085">
        <ele>460.60000610352</ele>
        <time>2019-11-10T07:29:14.000Z</time>
      </trkpt>
      <trkpt lat="47.82185" lon="7.1085">
        <ele>461</ele>
        <time>2019-11-10T07:29:15.000Z</time>
      </trkpt>
      <trkpt lat="47.82187" lon="7.10849">
        <ele>461.39999389648</ele>
        <time>2019-11-10T07:29:16.000Z</time>
      </trkpt>
      <trkpt lat="47.82187" lon="7.10848">
        <ele>461.79998779297</ele>
        <time>2019-11-10T07:29:17.000Z</time>
      </trkpt>
      <trkpt lat="47.82188" lon="7.10847">
        <ele>462.20001220703</ele>
        <time>2019-11-10T07:29:18.000Z</time>
      </trkpt>
      <trkpt lat="47.8219" lon="7.10846">
        <ele>462.60000610352</ele>
        <time>2019-11-10T07:29:19.000Z</time>
      </trkpt>
      <trkpt lat="47.82192" lon="7.10844">
        <ele>463</ele>
        <time>2019-11-10T07:29:20.000Z</time>
      </trkpt>
      <trkpt lat="47.82193" lon="7.10843">
        <ele>463.60000610352</ele>
        <time>2019-11-10T07:29:21.000Z</time>
      </trkpt>
      <trkpt lat="47.82195" lon="7.10841">
        <ele>464</ele>
        <time>2019-11-10T07:29:23.000Z</time>
      </trkpt>
      <trkpt lat="47.82196" lon="7.10841">
        <ele>464.39999389648</ele>
        <time>2019-11-10T07:29:24.000Z</time>
      </trkpt>
      <trkpt lat="47.82198" lon="7.10839">
        <ele>464.79998779297</ele>
        <time>2019-11-10T07:29:25.000Z</time>
      </trkpt>
      <trkpt lat="47.822" lon="7.10838">
        <ele>465.20001220703</ele>
        <time>2019-11-10T07:29:26.000Z</time>
      </trkpt>
      <trkpt lat="47.82201" lon="7.10836">
        <ele>465.60000610352</ele>
        <time>2019-11-10T07:29:27.000Z</time>
      </trkpt>
      <trkpt lat="47.82204" lon="7.10834">
        <ele>466</ele>
        <time>2019-11-10T07:29:30.000Z</time>
      </trkpt>
      <trkpt lat="47.82205" lon="7.10833">
        <ele>466.39999389648</ele>
        <time>2019-11-10T07:29:31.000Z</time>
      </trkpt>
      <trkpt lat="47.82207" lon="7.1083">
        <ele>466.79998779297</ele>
        <time>2019-11-10T07:29:32.000Z</time>
      </trkpt>
      <trkpt lat="47.82208" lon="7.10829">
        <ele>467.39999389648</ele>
        <time>2019-11-10T07:29:33.000Z</time>
      </trkpt>
      <trkpt lat="47.82209" lon="7.10827">
        <ele>467.79998779297</ele>
        <time>2019-11-10T07:29:34.000Z</time>
      </trkpt>
      <trkpt lat="47.82211" lon="7.10825">
        <ele>468.20001220703</ele>
        <time>2019-11-10T07:29:36.000Z</time>
      </trkpt>
      <trkpt lat="47.82214" lon="7.10823">
        <ele>468.60000610352</ele>
        <time>2019-11-10T07:29:37.000Z</time>
      </trkpt>
      <trkpt lat="47.82215" lon="7.10821">
        <ele>469</ele>
        <time>2019-11-10T07:29:38.000Z</time>
      </trkpt>
      <trkpt lat="47.82216" lon="7.1082">
        <ele>469.39999389648</ele>
        <time>2019-11-10T07:29:39.000Z</time>
      </trkpt>
      <trkpt lat="47.82217" lon="7.10818">
        <ele>469.79998779297</ele>
        <time>2019-11-10T07:29:40.000Z</time>
      </trkpt>
      <trkpt lat="47.82218" lon="7.10817">
        <ele>470.20001220703</ele>
        <time>2019-11-10T07:29:41.000Z</time>
      </trkpt>
      <trkpt lat="47.8222" lon="7.10816">
        <ele>470.79998779297</ele>
        <time>2019-11-10T07:29:42.000Z</time>
      </trkpt>
      <trkpt lat="47.82221" lon="7.10815">
        <ele>471.20001220703</ele>
        <time>2019-11-10T07:29:43.000Z</time>
      </trkpt>
      <trkpt lat="47.82223" lon="7.10814">
        <ele>471.60000610352</ele>
        <time>2019-11-10T07:29:44.000Z</time>
      </trkpt>
      <trkpt lat="47.82224" lon="7.10813">
        <ele>472</ele>
        <time>2019-11-10T07:29:45.000Z</time>
      </trkpt>
      <trkpt lat="47.82227" lon="7.10809">
        <ele>472.60000610352</ele>
        <time>2019-11-10T07:29:47.000Z</time>
      </trkpt>
      <trkpt lat="47.82227" lon="7.10809">
        <ele>473</ele>
        <time>2019-11-10T07:29:48.000Z</time>
      </trkpt>
      <trkpt lat="47.82229" lon="7.10806">
        <ele>473.39999389648</ele>
        <time>2019-11-10T07:29:49.000Z</time>
      </trkpt>
      <trkpt lat="47.8223" lon="7.10803">
        <ele>474</ele>
        <time>2019-11-10T07:29:50.000Z</time>
      </trkpt>
      <trkpt lat="47.82231" lon="7.10801">
        <ele>474.39999389648</ele>
        <time>2019-11-10T07:29:51.000Z</time>
      </trkpt>
      <trkpt lat="47.82231" lon="7.10799">
        <ele>474.79998779297</ele>
        <time>2019-11-10T07:29:52.000Z</time>
      </trkpt>
      <trkpt lat="47.82232" lon="7.10797">
        <ele>475.20001220703</ele>
        <time>2019-11-10T07:29:53.000Z</time>
      </trkpt>
      <trkpt lat="47.82234" lon="7.10795">
        <ele>475.60000610352</ele>
        <time>2019-11-10T07:29:54.000Z</time>
      </trkpt>
      <trkpt lat="47.82235" lon="7.10794">
        <ele>476</ele>
        <time>2019-11-10T07:29:55.000Z</time>
      </trkpt>
      <trkpt lat="47.82237" lon="7.10792">
        <ele>476.39999389648</ele>
        <time>2019-11-10T07:29:56.000Z</time>
      </trkpt>
      <trkpt lat="47.82238" lon="7.1079">
        <ele>476.79998779297</ele>
        <time>2019-11-10T07:29:58.000Z</time>
      </trkpt>
      <trkpt lat="47.82239" lon="7.10788">
        <ele>477.39999389648</ele>
        <time>2019-11-10T07:29:59.000Z</time>
      </trkpt>
      <trkpt lat="47.82239" lon="7.10788">
        <ele>477.79998779297</ele>
        <time>2019-11-10T07:30:00.000Z</time>
      </trkpt>
      <trkpt lat="47.8224" lon="7.10787">
        <ele>478.20001220703</ele>
        <time>2019-11-10T07:30:01.000Z</time>
      </trkpt>
      <trkpt lat="47.82241" lon="7.10785">
        <ele>478.79998779297</ele>
        <time>2019-11-10T07:30:02.000Z</time>
      </trkpt>
      <trkpt lat="47.82244" lon="7.10781">
        <ele>479.60000610352</ele>
        <time>2019-11-10T07:30:05.000Z</time>
      </trkpt>
      <trkpt lat="47.82245" lon="7.1078">
        <ele>480</ele>
        <time>2019-11-10T07:30:06.000Z</time>
      </trkpt>
      <trkpt lat="47.82246" lon="7.10778">
        <ele>480.39999389648</ele>
        <time>2019-11-10T07:30:07.000Z</time>
      </trkpt>
      <trkpt lat="47.82247" lon="7.10776">
        <ele>480.79998779297</ele>
        <time>2019-11-10T07:30:08.000Z</time>
      </trkpt>
      <trkpt lat="47.82249" lon="7.10773">
        <ele>481.39999389648</ele>
        <time>2019-11-10T07:30:10.000Z</time>
      </trkpt>
      <trkpt lat="47.8225" lon="7.10771">
        <ele>481.79998779297</ele>
        <time>2019-11-10T07:30:11.000Z</time>
      </trkpt>
      <trkpt lat="47.82251" lon="7.1077">
        <ele>482.20001220703</ele>
        <time>2019-11-10T07:30:12.000Z</time>
      </trkpt>
      <trkpt lat="47.82253" lon="7.10768">
        <ele>482.60000610352</ele>
        <time>2019-11-10T07:30:13.000Z</time>
      </trkpt>
      <trkpt lat="47.82254" lon="7.10766">
        <ele>483</ele>
        <time>2019-11-10T07:30:14.000Z</time>
      </trkpt>
      <trkpt lat="47.82257" lon="7.10763">
        <ele>483.39999389648</ele>
        <time>2019-11-10T07:30:16.000Z</time>
      </trkpt>
      <trkpt lat="47.82259" lon="7.10761">
        <ele>483.79998779297</ele>
        <time>2019-11-10T07:30:17.000Z</time>
      </trkpt>
      <trkpt lat="47.8226" lon="7.10759">
        <ele>484.39999389648</ele>
        <time>2019-11-10T07:30:18.000Z</time>
      </trkpt>
      <trkpt lat="47.82261" lon="7.10758">
        <ele>484.79998779297</ele>
        <time>2019-11-10T07:30:19.000Z</time>
      </trkpt>
      <trkpt lat="47.82263" lon="7.10756">
        <ele>485.20001220703</ele>
        <time>2019-11-10T07:30:20.000Z</time>
      </trkpt>
      <trkpt lat="47.82265" lon="7.10756">
        <ele>485.60000610352</ele>
        <time>2019-11-10T07:30:21.000Z</time>
      </trkpt>
      <trkpt lat="47.82266" lon="7.10755">
        <ele>486</ele>
        <time>2019-11-10T07:30:22.000Z</time>
      </trkpt>
      <trkpt lat="47.82268" lon="7.10754">
        <ele>486.60000610352</ele>
        <time>2019-11-10T07:30:23.000Z</time>
      </trkpt>
      <trkpt lat="47.82269" lon="7.10754">
        <ele>487</ele>
        <time>2019-11-10T07:30:24.000Z</time>
      </trkpt>
      <trkpt lat="47.82271" lon="7.10754">
        <ele>487.60000610352</ele>
        <time>2019-11-10T07:30:25.000Z</time>
      </trkpt>
      <trkpt lat="47.82272" lon="7.10754">
        <ele>488</ele>
        <time>2019-11-10T07:30:26.000Z</time>
      </trkpt>
      <trkpt lat="47.82274" lon="7.10755">
        <ele>488.60000610352</ele>
        <time>2019-11-10T07:30:27.000Z</time>
      </trkpt>
      <trkpt lat="47.82276" lon="7.10754">
        <ele>489</ele>
        <time>2019-11-10T07:30:28.000Z</time>
      </trkpt>
      <trkpt lat="47.82278" lon="7.10755">
        <ele>489.60000610352</ele>
        <time>2019-11-10T07:30:29.000Z</time>
      </trkpt>
      <trkpt lat="47.82279" lon="7.10755">
        <ele>490.60000610352</ele>
        <time>2019-11-10T07:30:30.000Z</time>
      </trkpt>
      <trkpt lat="47.8228" lon="7.10755">
        <ele>491.20001220703</ele>
        <time>2019-11-10T07:30:31.000Z</time>
      </trkpt>
      <trkpt lat="47.82282" lon="7.10755">
        <ele>491.60000610352</ele>
        <time>2019-11-10T07:30:32.000Z</time>
      </trkpt>
      <trkpt lat="47.82284" lon="7.10755">
        <ele>492</ele>
        <time>2019-11-10T07:30:33.000Z</time>
      </trkpt>
      <trkpt lat="47.82286" lon="7.10757">
        <ele>492.60000610352</ele>
        <time>2019-11-10T07:30:34.000Z</time>
      </trkpt>
      <trkpt lat="47.82288" lon="7.10756">
        <ele>493</ele>
        <time>2019-11-10T07:30:35.000Z</time>
      </trkpt>
      <trkpt lat="47.8229" lon="7.10756">
        <ele>493.39999389648</ele>
        <time>2019-11-10T07:30:36.000Z</time>
      </trkpt>
      <trkpt lat="47.82291" lon="7.10756">
        <ele>494</ele>
        <time>2019-11-10T07:30:37.000Z</time>
      </trkpt>
      <trkpt lat="47.82293" lon="7.10756">
        <ele>494.60000610352</ele>
        <time>2019-11-10T07:30:38.000Z</time>
      </trkpt>
      <trkpt lat="47.82295" lon="7.10755">
        <ele>495</ele>
        <time>2019-11-10T07:30:39.000Z</time>
      </trkpt>
      <trkpt lat="47.82296" lon="7.10754">
        <ele>495.60000610352</ele>
        <time>2019-11-10T07:30:40.000Z</time>
      </trkpt>
      <trkpt lat="47.82297" lon="7.10755">
        <ele>496</ele>
        <time>2019-11-10T07:30:41.000Z</time>
      </trkpt>
      <trkpt lat="47.82299" lon="7.10754">
        <ele>496.39999389648</ele>
        <time>2019-11-10T07:30:42.000Z</time>
      </trkpt>
      <trkpt lat="47.823" lon="7.10754">
        <ele>497</ele>
        <time>2019-11-10T07:30:43.000Z</time>
      </trkpt>
      <trkpt lat="47.82302" lon="7.10753">
        <ele>497.39999389648</ele>
        <time>2019-11-10T07:30:44.000Z</time>
      </trkpt>
      <trkpt lat="47.82303" lon="7.10753">
        <ele>497.79998779297</ele>
        <time>2019-11-10T07:30:45.000Z</time>
      </trkpt>
      <trkpt lat="47.82305" lon="7.10752">
        <ele>498.20001220703</ele>
        <time>2019-11-10T07:30:46.000Z</time>
      </trkpt>
      <trkpt lat="47.82309" lon="7.1075">
        <ele>498.60000610352</ele>
        <time>2019-11-10T07:30:49.000Z</time>
      </trkpt>
      <trkpt lat="47.82311" lon="7.10749">
        <ele>499.20001220703</ele>
        <time>2019-11-10T07:30:50.000Z</time>
      </trkpt>
      <trkpt lat="47.82311" lon="7.10748">
        <ele>499.60000610352</ele>
        <time>2019-11-10T07:30:51.000Z</time>
      </trkpt>
      <trkpt lat="47.82313" lon="7.10747">
        <ele>500.20001220703</ele>
        <time>2019-11-10T07:30:52.000Z</time>
      </trkpt>
      <trkpt lat="47.82314" lon="7.10746">
        <ele>500.60000610352</ele>
        <time>2019-11-10T07:30:53.000Z</time>
      </trkpt>
      <trkpt lat="47.82314" lon="7.10747">
        <ele>501.20001220703</ele>
        <time>2019-11-10T07:30:54.000Z</time>
      </trkpt>
      <trkpt lat="47.82315" lon="7.10746">
        <ele>502.20001220703</ele>
        <time>2019-11-10T07:30:55.000Z</time>
      </trkpt>
      <trkpt lat="47.82316" lon="7.10746">
        <ele>502.79998779297</ele>
        <time>2019-11-10T07:30:56.000Z</time>
      </trkpt>
      <trkpt lat="47.82317" lon="7.10744">
        <ele>502.79998779297</ele>
        <time>2019-11-10T07:30:58.000Z</time>
      </trkpt>
      <trkpt lat="47.82319" lon="7.10743">
        <ele>502.79998779297</ele>
        <time>2019-11-10T07:33:51.000Z</time>
      </trkpt>
      <trkpt lat="47.8232" lon="7.10742">
        <ele>502.79998779297</ele>
        <time>2019-11-10T07:33:52.000Z</time>
      </trkpt>
      <trkpt lat="47.82323" lon="7.10739">
        <ele>502.79998779297</ele>
        <time>2019-11-10T07:33:54.000Z</time>
      </trkpt>
      <trkpt lat="47.82325" lon="7.10736">
        <ele>503.20001220703</ele>
        <time>2019-11-10T07:33:56.000Z</time>
      </trkpt>
      <trkpt lat="47.82327" lon="7.10735">
        <ele>503.79998779297</ele>
        <time>2019-11-10T07:33:57.000Z</time>
      </trkpt>
      <trkpt lat="47.82328" lon="7.10734">
        <ele>504.20001220703</ele>
        <time>2019-11-10T07:33:58.000Z</time>
      </trkpt>
      <trkpt lat="47.82329" lon="7.10733">
        <ele>504.60000610352</ele>
        <time>2019-11-10T07:33:59.000Z</time>
      </trkpt>
      <trkpt lat="47.8233" lon="7.10731">
        <ele>505.20001220703</ele>
        <time>2019-11-10T07:34:00.000Z</time>
      </trkpt>
      <trkpt lat="47.82332" lon="7.10728">
        <ele>505.79998779297</ele>
        <time>2019-11-10T07:34:01.000Z</time>
      </trkpt>
      <trkpt lat="47.82333" lon="7.10728">
        <ele>506.20001220703</ele>
        <time>2019-11-10T07:34:02.000Z</time>
      </trkpt>
      <trkpt lat="47.82335" lon="7.10726">
        <ele>506.79998779297</ele>
        <time>2019-11-10T07:34:03.000Z</time>
      </trkpt>
      <trkpt lat="47.82338" lon="7.10722">
        <ele>507.20001220703</ele>
        <time>2019-11-10T07:34:04.000Z</time>
      </trkpt>
      <trkpt lat="47.8234" lon="7.1072">
        <ele>507.20001220703</ele>
        <time>2019-11-10T07:34:05.000Z</time>
      </trkpt>
      <trkpt lat="47.82342" lon="7.10718">
        <ele>507.20001220703</ele>
        <time>2019-11-10T07:34:06.000Z</time>
      </trkpt>
      <trkpt lat="47.82345" lon="7.10714">
        <ele>507.79998779297</ele>
        <time>2019-11-10T07:34:08.000Z</time>
      </trkpt>
      <trkpt lat="47.82345" lon="7.10713">
        <ele>508.20001220703</ele>
        <time>2019-11-10T07:34:09.000Z</time>
      </trkpt>
      <trkpt lat="47.82347" lon="7.1071">
        <ele>508.60000610352</ele>
        <time>2019-11-10T07:34:10.000Z</time>
      </trkpt>
      <trkpt lat="47.82349" lon="7.10707">
        <ele>509.20001220703</ele>
        <time>2019-11-10T07:34:11.000Z</time>
      </trkpt>
      <trkpt lat="47.82351" lon="7.10703">
        <ele>509.60000610352</ele>
        <time>2019-11-10T07:34:12.000Z</time>
      </trkpt>
      <trkpt lat="47.82354" lon="7.10696">
        <ele>510</ele>
        <time>2019-11-10T07:34:14.000Z</time>
      </trkpt>
      <trkpt lat="47.82356" lon="7.10694">
        <ele>510.39999389648</ele>
        <time>2019-11-10T07:34:15.000Z</time>
      </trkpt>
      <trkpt lat="47.82357" lon="7.10691">
        <ele>510.79998779297</ele>
        <time>2019-11-10T07:34:16.000Z</time>
      </trkpt>
      <trkpt lat="47.82358" lon="7.10689">
        <ele>511.20001220703</ele>
        <time>2019-11-10T07:34:17.000Z</time>
      </trkpt>
      <trkpt lat="47.8236" lon="7.10688">
        <ele>511.79998779297</ele>
        <time>2019-11-10T07:34:18.000Z</time>
      </trkpt>
      <trkpt lat="47.82363" lon="7.10683">
        <ele>511.79998779297</ele>
        <time>2019-11-10T07:34:20.000Z</time>
      </trkpt>
      <trkpt lat="47.82366" lon="7.10679">
        <ele>512.20001220703</ele>
        <time>2019-11-10T07:34:22.000Z</time>
      </trkpt>
      <trkpt lat="47.82367" lon="7.10679">
        <ele>512.59997558594</ele>
        <time>2019-11-10T07:34:23.000Z</time>
      </trkpt>
      <trkpt lat="47.82369" lon="7.10677">
        <ele>513.20001220703</ele>
        <time>2019-11-10T07:34:24.000Z</time>
      </trkpt>
      <trkpt lat="47.82369" lon="7.10676">
        <ele>513.59997558594</ele>
        <time>2019-11-10T07:34:25.000Z</time>
      </trkpt>
      <trkpt lat="47.8237" lon="7.10674">
        <ele>514</ele>
        <time>2019-11-10T07:34:26.000Z</time>
      </trkpt>
      <trkpt lat="47.82373" lon="7.1067">
        <ele>514</ele>
        <time>2019-11-10T07:34:27.000Z</time>
      </trkpt>
      <trkpt lat="47.82375" lon="7.10667">
        <ele>514.59997558594</ele>
        <time>2019-11-10T07:34:28.000Z</time>
      </trkpt>
      <trkpt lat="47.82377" lon="7.10665">
        <ele>515</ele>
        <time>2019-11-10T07:34:29.000Z</time>
      </trkpt>
      <trkpt lat="47.82379" lon="7.10664">
        <ele>515.40002441406</ele>
        <time>2019-11-10T07:34:30.000Z</time>
      </trkpt>
      <trkpt lat="47.82382" lon="7.10662">
        <ele>515.79998779297</ele>
        <time>2019-11-10T07:34:31.000Z</time>
      </trkpt>
      <trkpt lat="47.82384" lon="7.10661">
        <ele>516.40002441406</ele>
        <time>2019-11-10T07:34:32.000Z</time>
      </trkpt>
      <trkpt lat="47.82385" lon="7.1066">
        <ele>516.40002441406</ele>
        <time>2019-11-10T07:34:33.000Z</time>
      </trkpt>
      <trkpt lat="47.82391" lon="7.10656">
        <ele>516.79998779297</ele>
        <time>2019-11-10T07:34:35.000Z</time>
      </trkpt>
      <trkpt lat="47.82392" lon="7.10655">
        <ele>517.20001220703</ele>
        <time>2019-11-10T07:34:36.000Z</time>
      </trkpt>
      <trkpt lat="47.82394" lon="7.10654">
        <ele>518.20001220703</ele>
        <time>2019-11-10T07:34:37.000Z</time>
      </trkpt>
      <trkpt lat="47.82396" lon="7.10653">
        <ele>518.59997558594</ele>
        <time>2019-11-10T07:34:38.000Z</time>
      </trkpt>
      <trkpt lat="47.82399" lon="7.10652">
        <ele>519</ele>
        <time>2019-11-10T07:34:39.000Z</time>
      </trkpt>
      <trkpt lat="47.824" lon="7.10652">
        <ele>519.59997558594</ele>
        <time>2019-11-10T07:34:40.000Z</time>
      </trkpt>
      <trkpt lat="47.82402" lon="7.1065">
        <ele>520</ele>
        <time>2019-11-10T07:34:41.000Z</time>
      </trkpt>
      <trkpt lat="47.82403" lon="7.1065">
        <ele>520.59997558594</ele>
        <time>2019-11-10T07:34:42.000Z</time>
      </trkpt>
      <trkpt lat="47.82405" lon="7.10649">
        <ele>521</ele>
        <time>2019-11-10T07:34:43.000Z</time>
      </trkpt>
      <trkpt lat="47.82407" lon="7.10649">
        <ele>521.59997558594</ele>
        <time>2019-11-10T07:34:44.000Z</time>
      </trkpt>
      <trkpt lat="47.82407" lon="7.10649">
        <ele>522.20001220703</ele>
        <time>2019-11-10T07:34:45.000Z</time>
      </trkpt>
      <trkpt lat="47.82448" lon="7.10607">
        <ele>541.20001220703</ele>
        <time>2019-11-10T07:37:52.000Z</time>
      </trkpt>
      <trkpt lat="47.8245" lon="7.10606">
        <ele>541.59997558594</ele>
        <time>2019-11-10T07:37:53.000Z</time>
      </trkpt>
      <trkpt lat="47.82451" lon="7.10606">
        <ele>542.20001220703</ele>
        <time>2019-11-10T07:37:54.000Z</time>
      </trkpt>
      <trkpt lat="47.82452" lon="7.10604">
        <ele>542.59997558594</ele>
        <time>2019-11-10T07:37:55.000Z</time>
      </trkpt>
      <trkpt lat="47.82454" lon="7.10602">
        <ele>543</ele>
        <time>2019-11-10T07:37:56.000Z</time>
      </trkpt>
      <trkpt lat="47.82456" lon="7.10601">
        <ele>543.59997558594</ele>
        <time>2019-11-10T07:37:57.000Z</time>
      </trkpt>
      <trkpt lat="47.82458" lon="7.10599">
        <ele>544</ele>
        <time>2019-11-10T07:37:58.000Z</time>
      </trkpt>
      <trkpt lat="47.8246" lon="7.10598">
        <ele>544.40002441406</ele>
        <time>2019-11-10T07:37:59.000Z</time>
      </trkpt>
      <trkpt lat="47.82461" lon="7.10596">
        <ele>544.79998779297</ele>
        <time>2019-11-10T07:38:00.000Z</time>
      </trkpt>
      <trkpt lat="47.82462" lon="7.10594">
        <ele>545.20001220703</ele>
        <time>2019-11-10T07:38:01.000Z</time>
      </trkpt>
      <trkpt lat="47.82463" lon="7.10592">
        <ele>545.59997558594</ele>
        <time>2019-11-10T07:38:02.000Z</time>
      </trkpt>
      <trkpt lat="47.82464" lon="7.10589">
        <ele>546</ele>
        <time>2019-11-10T07:38:03.000Z</time>
      </trkpt>
      <trkpt lat="47.82465" lon="7.10587">
        <ele>546.40002441406</ele>
        <time>2019-11-10T07:38:04.000Z</time>
      </trkpt>
      <trkpt lat="47.82466" lon="7.10585">
        <ele>547</ele>
        <time>2019-11-10T07:38:05.000Z</time>
      </trkpt>
      <trkpt lat="47.82467" lon="7.10582">
        <ele>547.40002441406</ele>
        <time>2019-11-10T07:38:06.000Z</time>
      </trkpt>
      <trkpt lat="47.82468" lon="7.1058">
        <ele>547.79998779297</ele>
        <time>2019-11-10T07:38:07.000Z</time>
      </trkpt>
      <trkpt lat="47.82469" lon="7.10577">
        <ele>548.20001220703</ele>
        <time>2019-11-10T07:38:08.000Z</time>
      </trkpt>
      <trkpt lat="47.82471" lon="7.10574">
        <ele>548.79998779297</ele>
        <time>2019-11-10T07:38:09.000Z</time>
      </trkpt>
      <trkpt lat="47.82472" lon="7.10572">
        <ele>549.20001220703</ele>
        <time>2019-11-10T07:38:10.000Z</time>
      </trkpt>
      <trkpt lat="47.82474" lon="7.1057">
        <ele>549.59997558594</ele>
        <time>2019-11-10T07:38:11.000Z</time>
      </trkpt>
      <trkpt lat="47.82475" lon="7.10567">
        <ele>550</ele>
        <time>2019-11-10T07:38:12.000Z</time>
      </trkpt>
      <trkpt lat="47.82476" lon="7.10564">
        <ele>550.40002441406</ele>
        <time>2019-11-10T07:38:13.000Z</time>
      </trkpt>
      <trkpt lat="47.82477" lon="7.10561">
        <ele>550.79998779297</ele>
        <time>2019-11-10T07:38:14.000Z</time>
      </trkpt>
      <trkpt lat="47.82478" lon="7.10559">
        <ele>551.20001220703</ele>
        <time>2019-11-10T07:38:15.000Z</time>
      </trkpt>
      <trkpt lat="47.82479" lon="7.10556">
        <ele>551.59997558594</ele>
        <time>2019-11-10T07:38:16.000Z</time>
      </trkpt>
      <trkpt lat="47.82481" lon="7.10554">
        <ele>552</ele>
        <time>2019-11-10T07:38:17.000Z</time>
      </trkpt>
      <trkpt lat="47.82481" lon="7.10551">
        <ele>552.40002441406</ele>
        <time>2019-11-10T07:38:18.000Z</time>
      </trkpt>
      <trkpt lat="47.82482" lon="7.10548">
        <ele>552.79998779297</ele>
        <time>2019-11-10T07:38:19.000Z</time>
      </trkpt>
      <trkpt lat="47.82482" lon="7.10545">
        <ele>554</ele>
        <time>2019-11-10T07:38:20.000Z</time>
      </trkpt>
      <trkpt lat="47.82483" lon="7.10542">
        <ele>554.40002441406</ele>
        <time>2019-11-10T07:38:21.000Z</time>
      </trkpt>
      <trkpt lat="47.82484" lon="7.10539">
        <ele>555</ele>
        <time>2019-11-10T07:38:22.000Z</time>
      </trkpt>
      <trkpt lat="47.82485" lon="7.10536">
        <ele>555.40002441406</ele>
        <time>2019-11-10T07:38:23.000Z</time>
      </trkpt>
      <trkpt lat="47.82486" lon="7.10533">
        <ele>555.79998779297</ele>
        <time>2019-11-10T07:38:24.000Z</time>
      </trkpt>
      <trkpt lat="47.82486" lon="7.10531">
        <ele>556.20001220703</ele>
        <time>2019-11-10T07:38:25.000Z</time>
      </trkpt>
      <trkpt lat="47.82487" lon="7.10528">
        <ele>556.59997558594</ele>
        <time>2019-11-10T07:38:26.000Z</time>
      </trkpt>
      <trkpt lat="47.82488" lon="7.10525">
        <ele>557.20001220703</ele>
        <time>2019-11-10T07:38:27.000Z</time>
      </trkpt>
      <trkpt lat="47.82489" lon="7.10522">
        <ele>557.59997558594</ele>
        <time>2019-11-10T07:38:28.000Z</time>
      </trkpt>
      <trkpt lat="47.82491" lon="7.10515">
        <ele>558</ele>
        <time>2019-11-10T07:38:30.000Z</time>
      </trkpt>
      <trkpt lat="47.82492" lon="7.10512">
        <ele>558.40002441406</ele>
        <time>2019-11-10T07:38:31.000Z</time>
      </trkpt>
      <trkpt lat="47.82494" lon="7.10509">
        <ele>558.79998779297</ele>
        <time>2019-11-10T07:38:32.000Z</time>
      </trkpt>
      <trkpt lat="47.82495" lon="7.10507">
        <ele>559.20001220703</ele>
        <time>2019-11-10T07:38:33.000Z</time>
      </trkpt>
      <trkpt lat="47.82496" lon="7.10504">
        <ele>559.59997558594</ele>
        <time>2019-11-10T07:38:34.000Z</time>
      </trkpt>
      <trkpt lat="47.82497" lon="7.10501">
        <ele>559.59997558594</ele>
        <time>2019-11-10T07:38:35.000Z</time>
      </trkpt>
      <trkpt lat="47.82498" lon="7.10498">
        <ele>560</ele>
        <time>2019-11-10T07:38:36.000Z</time>
      </trkpt>
      <trkpt lat="47.82499" lon="7.10496">
        <ele>560.40002441406</ele>
        <time>2019-11-10T07:38:37.000Z</time>
      </trkpt>
      <trkpt lat="47.82501" lon="7.10493">
        <ele>561</ele>
        <time>2019-11-10T07:38:38.000Z</time>
      </trkpt>
      <trkpt lat="47.82501" lon="7.10492">
        <ele>561.40002441406</ele>
        <time>2019-11-10T07:38:39.000Z</time>
      </trkpt>
      <trkpt lat="47.82502" lon="7.10489">
        <ele>561.79998779297</ele>
        <time>2019-11-10T07:38:40.000Z</time>
      </trkpt>
      <trkpt lat="47.82503" lon="7.10484">
        <ele>561.79998779297</ele>
        <time>2019-11-10T07:38:42.000Z</time>
      </trkpt>
      <trkpt lat="47.82505" lon="7.10479">
        <ele>562.20001220703</ele>
        <time>2019-11-10T07:38:44.000Z</time>
      </trkpt>
      <trkpt lat="47.82506" lon="7.10476">
        <ele>563.20001220703</ele>
        <time>2019-11-10T07:38:45.000Z</time>
      </trkpt>
      <trkpt lat="47.82507" lon="7.10474">
        <ele>563.59997558594</ele>
        <time>2019-11-10T07:38:46.000Z</time>
      </trkpt>
      <trkpt lat="47.82508" lon="7.10473">
        <ele>564</ele>
        <time>2019-11-10T07:38:47.000Z</time>
      </trkpt>
      <trkpt lat="47.82511" lon="7.10469">
        <ele>564.59997558594</ele>
        <time>2019-11-10T07:38:49.000Z</time>
      </trkpt>
      <trkpt lat="47.82512" lon="7.10467">
        <ele>565</ele>
        <time>2019-11-10T07:38:50.000Z</time>
      </trkpt>
      <trkpt lat="47.82513" lon="7.10466">
        <ele>565.59997558594</ele>
        <time>2019-11-10T07:38:51.000Z</time>
      </trkpt>
      <trkpt lat="47.82514" lon="7.10465">
        <ele>566</ele>
        <time>2019-11-10T07:38:52.000Z</time>
      </trkpt>
      <trkpt lat="47.82515" lon="7.10463">
        <ele>566.59997558594</ele>
        <time>2019-11-10T07:38:53.000Z</time>
      </trkpt>
      <trkpt lat="47.82516" lon="7.10462">
        <ele>567</ele>
        <time>2019-11-10T07:38:54.000Z</time>
      </trkpt>
      <trkpt lat="47.82517" lon="7.10461">
        <ele>567.59997558594</ele>
        <time>2019-11-10T07:38:55.000Z</time>
      </trkpt>
      <trkpt lat="47.82519" lon="7.10459">
        <ele>568</ele>
        <time>2019-11-10T07:38:56.000Z</time>
      </trkpt>
      <trkpt lat="47.82521" lon="7.10457">
        <ele>568.59997558594</ele>
        <time>2019-11-10T07:38:57.000Z</time>
      </trkpt>
      <trkpt lat="47.82524" lon="7.10455">
        <ele>569.20001220703</ele>
        <time>2019-11-10T07:38:58.000Z</time>
      </trkpt>
      <trkpt lat="47.82525" lon="7.10454">
        <ele>569.79998779297</ele>
        <time>2019-11-10T07:38:59.000Z</time>
      </trkpt>
      <trkpt lat="47.82527" lon="7.10453">
        <ele>570.40002441406</ele>
        <time>2019-11-10T07:39:00.000Z</time>
      </trkpt>
      <trkpt lat="47.82529" lon="7.10452">
        <ele>571</ele>
        <time>2019-11-10T07:39:01.000Z</time>
      </trkpt>
      <trkpt lat="47.82531" lon="7.10452">
        <ele>571.59997558594</ele>
        <time>2019-11-10T07:39:02.000Z</time>
      </trkpt>
      <trkpt lat="47.82534" lon="7.10451">
        <ele>572.20001220703</ele>
        <time>2019-11-10T07:39:03.000Z</time>
      </trkpt>
      <trkpt lat="47.82537" lon="7.1045">
        <ele>572.59997558594</ele>
        <time>2019-11-10T07:39:04.000Z</time>
      </trkpt>
      <trkpt lat="47.8254" lon="7.10449">
        <ele>573.20001220703</ele>
        <time>2019-11-10T07:39:05.000Z</time>
      </trkpt>
      <trkpt lat="47.82549" lon="7.10442">
        <ele>573.59997558594</ele>
        <time>2019-11-10T07:39:09.000Z</time>
      </trkpt>
      <trkpt lat="47.8255" lon="7.10441">
        <ele>574.59997558594</ele>
        <time>2019-11-10T07:39:10.000Z</time>
      </trkpt>
      <trkpt lat="47.82551" lon="7.10439">
        <ele>575.20001220703</ele>
        <time>2019-11-10T07:39:11.000Z</time>
      </trkpt>
      <trkpt lat="47.82552" lon="7.10437">
        <ele>575.59997558594</ele>
        <time>2019-11-10T07:39:12.000Z</time>
      </trkpt>
      <trkpt lat="47.82553" lon="7.10436">
        <ele>576.20001220703</ele>
        <time>2019-11-10T07:39:13.000Z</time>
      </trkpt>
      <trkpt lat="47.82555" lon="7.10435">
        <ele>576.79998779297</ele>
        <time>2019-11-10T07:39:14.000Z</time>
      </trkpt>
      <trkpt lat="47.82556" lon="7.10434">
        <ele>577.40002441406</ele>
        <time>2019-11-10T07:39:15.000Z</time>
      </trkpt>
      <trkpt lat="47.82558" lon="7.10432">
        <ele>577.79998779297</ele>
        <time>2019-11-10T07:39:16.000Z</time>
      </trkpt>
      <trkpt lat="47.8256" lon="7.10431">
        <ele>578.20001220703</ele>
        <time>2019-11-10T07:39:17.000Z</time>
      </trkpt>
      <trkpt lat="47.82563" lon="7.10429">
        <ele>578.79998779297</ele>
        <time>2019-11-10T07:39:18.000Z</time>
      </trkpt>
      <trkpt lat="47.82564" lon="7.10428">
        <ele>579.20001220703</ele>
        <time>2019-11-10T07:39:19.000Z</time>
      </trkpt>
      <trkpt lat="47.82567" lon="7.10426">
        <ele>579.59997558594</ele>
        <time>2019-11-10T07:39:20.000Z</time>
      </trkpt>
      <trkpt lat="47.82568" lon="7.10424">
        <ele>580</ele>
        <time>2019-11-10T07:39:21.000Z</time>
      </trkpt>
      <trkpt lat="47.8257" lon="7.10423">
        <ele>580.40002441406</ele>
        <time>2019-11-10T07:39:22.000Z</time>
      </trkpt>
      <trkpt lat="47.82572" lon="7.10421">
        <ele>580.79998779297</ele>
        <time>2019-11-10T07:39:23.000Z</time>
      </trkpt>
      <trkpt lat="47.82574" lon="7.10419">
        <ele>581.20001220703</ele>
        <time>2019-11-10T07:39:24.000Z</time>
      </trkpt>
      <trkpt lat="47.82576" lon="7.10418">
        <ele>581.59997558594</ele>
        <time>2019-11-10T07:39:25.000Z</time>
      </trkpt>
      <trkpt lat="47.82579" lon="7.10417">
        <ele>582</ele>
        <time>2019-11-10T07:39:26.000Z</time>
      </trkpt>
      <trkpt lat="47.82584" lon="7.10414">
        <ele>582.40002441406</ele>
        <time>2019-11-10T07:39:29.000Z</time>
      </trkpt>
      <trkpt lat="47.82585" lon="7.10411">
        <ele>583</ele>
        <time>2019-11-10T07:39:30.000Z</time>
      </trkpt>
      <trkpt lat="47.82586" lon="7.10409">
        <ele>583.40002441406</ele>
        <time>2019-11-10T07:39:31.000Z</time>
      </trkpt>
      <trkpt lat="47.82586" lon="7.10407">
        <ele>583.79998779297</ele>
        <time>2019-11-10T07:39:32.000Z</time>
      </trkpt>
      <trkpt lat="47.82586" lon="7.10404">
        <ele>584.20001220703</ele>
        <time>2019-11-10T07:39:33.000Z</time>
      </trkpt>
      <trkpt lat="47.82586" lon="7.10402">
        <ele>584.20001220703</ele>
        <time>2019-11-10T07:39:34.000Z</time>
      </trkpt>
      <trkpt lat="47.82589" lon="7.10392">
        <ele>584.20001220703</ele>
        <time>2019-11-10T07:39:38.000Z</time>
      </trkpt>
      <trkpt lat="47.8259" lon="7.10386">
        <ele>584.20001220703</ele>
        <time>2019-11-10T07:39:43.000Z</time>
      </trkpt>
      <trkpt lat="47.82596" lon="7.1038">
        <ele>585</ele>
        <time>2019-11-10T07:39:48.000Z</time>
      </trkpt>
      <trkpt lat="47.82597" lon="7.10379">
        <ele>585.40002441406</ele>
        <time>2019-11-10T07:39:49.000Z</time>
      </trkpt>
      <trkpt lat="47.82598" lon="7.10378">
        <ele>585.79998779297</ele>
        <time>2019-11-10T07:39:50.000Z</time>
      </trkpt>
      <trkpt lat="47.826" lon="7.10376">
        <ele>586.20001220703</ele>
        <time>2019-11-10T07:39:51.000Z</time>
      </trkpt>
      <trkpt lat="47.82603" lon="7.10374">
        <ele>586.20001220703</ele>
        <time>2019-11-10T07:39:55.000Z</time>
      </trkpt>
      <trkpt lat="47.82608" lon="7.10366">
        <ele>586.20001220703</ele>
        <time>2019-11-10T07:43:00.000Z</time>
      </trkpt>
      <trkpt lat="47.8261" lon="7.10362">
        <ele>586.20001220703</ele>
        <time>2019-11-10T07:43:02.000Z</time>
      </trkpt>
      <trkpt lat="47.82613" lon="7.10353">
        <ele>586.20001220703</ele>
        <time>2019-11-10T07:43:06.000Z</time>
      </trkpt>
      <trkpt lat="47.82615" lon="7.10345">
        <ele>586.20001220703</ele>
        <time>2019-11-10T07:43:09.000Z</time>
      </trkpt>
      <trkpt lat="47.82616" lon="7.10339">
        <ele>586.20001220703</ele>
        <time>2019-11-10T07:43:11.000Z</time>
      </trkpt>
      <trkpt lat="47.82616" lon="7.10336">
        <ele>586.20001220703</ele>
        <time>2019-11-10T07:43:12.000Z</time>
      </trkpt>
      <trkpt lat="47.82622" lon="7.10322">
        <ele>586.20001220703</ele>
        <time>2019-11-10T07:43:17.000Z</time>
      </trkpt>
      <trkpt lat="47.82624" lon="7.10314">
        <ele>586.20001220703</ele>
        <time>2019-11-10T07:43:19.000Z</time>
      </trkpt>
      <trkpt lat="47.82627" lon="7.10298">
        <ele>586.20001220703</ele>
        <time>2019-11-10T07:43:22.000Z</time>
      </trkpt>
      <trkpt lat="47.8263" lon="7.10286">
        <ele>586.20001220703</ele>
        <time>2019-11-10T07:43:24.000Z</time>
      </trkpt>
      <trkpt lat="47.82631" lon="7.10279">
        <ele>585.79998779297</ele>
        <time>2019-11-10T07:43:25.000Z</time>
      </trkpt>
      <trkpt lat="47.82633" lon="7.10273">
        <ele>585.40002441406</ele>
        <time>2019-11-10T07:43:26.000Z</time>
      </trkpt>
      <trkpt lat="47.82635" lon="7.10267">
        <ele>585</ele>
        <time>2019-11-10T07:43:27.000Z</time>
      </trkpt>
      <trkpt lat="47.82637" lon="7.1026">
        <ele>584.59997558594</ele>
        <time>2019-11-10T07:43:28.000Z</time>
      </trkpt>
      <trkpt lat="47.82639" lon="7.10252">
        <ele>584</ele>
        <time>2019-11-10T07:43:29.000Z</time>
      </trkpt>
      <trkpt lat="47.82644" lon="7.10237">
        <ele>583.59997558594</ele>
        <time>2019-11-10T07:43:31.000Z</time>
      </trkpt>
      <trkpt lat="47.82645" lon="7.10229">
        <ele>583.20001220703</ele>
        <time>2019-11-10T07:43:32.000Z</time>
      </trkpt>
      <trkpt lat="47.82647" lon="7.10221">
        <ele>582.79998779297</ele>
        <time>2019-11-10T07:43:33.000Z</time>
      </trkpt>
      <trkpt lat="47.82648" lon="7.10214">
        <ele>582.40002441406</ele>
        <time>2019-11-10T07:43:34.000Z</time>
      </trkpt>
      <trkpt lat="47.8265" lon="7.10206">
        <ele>582</ele>
        <time>2019-11-10T07:43:35.000Z</time>
      </trkpt>
      <trkpt lat="47.82653" lon="7.10198">
        <ele>582</ele>
        <time>2019-11-10T07:43:36.000Z</time>
      </trkpt>
      <trkpt lat="47.82655" lon="7.10191">
        <ele>581.59997558594</ele>
        <time>2019-11-10T07:43:37.000Z</time>
      </trkpt>
      <trkpt lat="47.82657" lon="7.10182">
        <ele>581.20001220703</ele>
        <time>2019-11-10T07:43:38.000Z</time>
      </trkpt>
      <trkpt lat="47.82659" lon="7.10174">
        <ele>580.79998779297</ele>
        <time>2019-11-10T07:43:39.000Z</time>
      </trkpt>
      <trkpt lat="47.82662" lon="7.10165">
        <ele>580.40002441406</ele>
        <time>2019-11-10T07:43:40.000Z</time>
      </trkpt>
      <trkpt lat="47.82664" lon="7.10156">
        <ele>580</ele>
        <time>2019-11-10T07:43:41.000Z</time>
      </trkpt>
      <trkpt lat="47.82666" lon="7.10147">
        <ele>579.40002441406</ele>
        <time>2019-11-10T07:43:42.000Z</time>
      </trkpt>
      <trkpt lat="47.82669" lon="7.10137">
        <ele>579</ele>
        <time>2019-11-10T07:43:43.000Z</time>
      </trkpt>
      <trkpt lat="47.82672" lon="7.10127">
        <ele>578.40002441406</ele>
        <time>2019-11-10T07:43:44.000Z</time>
      </trkpt>
      <trkpt lat="47.82675" lon="7.10117">
        <ele>578</ele>
        <time>2019-11-10T07:43:45.000Z</time>
      </trkpt>
      <trkpt lat="47.82678" lon="7.10107">
        <ele>577.40002441406</ele>
        <time>2019-11-10T07:43:46.000Z</time>
      </trkpt>
      <trkpt lat="47.8268" lon="7.10096">
        <ele>576.79998779297</ele>
        <time>2019-11-10T07:43:47.000Z</time>
      </trkpt>
      <trkpt lat="47.82682" lon="7.10085">
        <ele>576.20001220703</ele>
        <time>2019-11-10T07:43:48.000Z</time>
      </trkpt>
      <trkpt lat="47.82684" lon="7.10074">
        <ele>575.59997558594</ele>
        <time>2019-11-10T07:43:49.000Z</time>
      </trkpt>
      <trkpt lat="47.82686" lon="7.10063">
        <ele>575</ele>
        <time>2019-11-10T07:43:50.000Z</time>
      </trkpt>
      <trkpt lat="47.82688" lon="7.10051">
        <ele>574.59997558594</ele>
        <time>2019-11-10T07:43:51.000Z</time>
      </trkpt>
      <trkpt lat="47.82689" lon="7.1004">
        <ele>574.20001220703</ele>
        <time>2019-11-10T07:43:52.000Z</time>
      </trkpt>
      <trkpt lat="47.8269" lon="7.10029">
        <ele>573.79998779297</ele>
        <time>2019-11-10T07:43:53.000Z</time>
      </trkpt>
      <trkpt lat="47.82692" lon="7.10017">
        <ele>573.20001220703</ele>
        <time>2019-11-10T07:43:54.000Z</time>
      </trkpt>
      <trkpt lat="47.82693" lon="7.10005">
        <ele>572.59997558594</ele>
        <time>2019-11-10T07:43:55.000Z</time>
      </trkpt>
      <trkpt lat="47.82695" lon="7.09994">
        <ele>572</ele>
        <time>2019-11-10T07:43:56.000Z</time>
      </trkpt>
      <trkpt lat="47.82697" lon="7.09983">
        <ele>571.59997558594</ele>
        <time>2019-11-10T07:43:57.000Z</time>
      </trkpt>
      <trkpt lat="47.827" lon="7.0997">
        <ele>571</ele>
        <time>2019-11-10T07:43:58.000Z</time>
      </trkpt>
      <trkpt lat="47.82703" lon="7.09959">
        <ele>570.20001220703</ele>
        <time>2019-11-10T07:43:59.000Z</time>
      </trkpt>
      <trkpt lat="47.82707" lon="7.09949">
        <ele>569.59997558594</ele>
        <time>2019-11-10T07:44:00.000Z</time>
      </trkpt>
      <trkpt lat="47.82712" lon="7.09939">
        <ele>569</ele>
        <time>2019-11-10T07:44:01.000Z</time>
      </trkpt>
      <trkpt lat="47.82716" lon="7.09929">
        <ele>568.40002441406</ele>
        <time>2019-11-10T07:44:02.000Z</time>
      </trkpt>
      <trkpt lat="47.82721" lon="7.09919">
        <ele>567.59997558594</ele>
        <time>2019-11-10T07:44:03.000Z</time>
      </trkpt>
      <trkpt lat="47.82726" lon="7.09909">
        <ele>567</ele>
        <time>2019-11-10T07:44:04.000Z</time>
      </trkpt>
      <trkpt lat="47.82731" lon="7.099">
        <ele>566.40002441406</ele>
        <time>2019-11-10T07:44:05.000Z</time>
      </trkpt>
      <trkpt lat="47.82736" lon="7.09889">
        <ele>565.20001220703</ele>
        <time>2019-11-10T07:44:06.000Z</time>
      </trkpt>
      <trkpt lat="47.8274" lon="7.09879">
        <ele>564.59997558594</ele>
        <time>2019-11-10T07:44:07.000Z</time>
      </trkpt>
      <trkpt lat="47.82742" lon="7.09868">
        <ele>564</ele>
        <time>2019-11-10T07:44:08.000Z</time>
      </trkpt>
      <trkpt lat="47.82742" lon="7.09858">
        <ele>563.40002441406</ele>
        <time>2019-11-10T07:44:09.000Z</time>
      </trkpt>
      <trkpt lat="47.82743" lon="7.09847">
        <ele>563</ele>
        <time>2019-11-10T07:44:10.000Z</time>
      </trkpt>
      <trkpt lat="47.82743" lon="7.09836">
        <ele>562.40002441406</ele>
        <time>2019-11-10T07:44:11.000Z</time>
      </trkpt>
      <trkpt lat="47.82744" lon="7.09824">
        <ele>562</ele>
        <time>2019-11-10T07:44:12.000Z</time>
      </trkpt>
      <trkpt lat="47.82745" lon="7.09813">
        <ele>561.40002441406</ele>
        <time>2019-11-10T07:44:13.000Z</time>
      </trkpt>
      <trkpt lat="47.82744" lon="7.09802">
        <ele>560.79998779297</ele>
        <time>2019-11-10T07:44:14.000Z</time>
      </trkpt>
      <trkpt lat="47.82744" lon="7.0979">
        <ele>560.20001220703</ele>
        <time>2019-11-10T07:44:15.000Z</time>
      </trkpt>
      <trkpt lat="47.82741" lon="7.0978">
        <ele>559.59997558594</ele>
        <time>2019-11-10T07:44:16.000Z</time>
      </trkpt>
      <trkpt lat="47.82736" lon="7.09769">
        <ele>559</ele>
        <time>2019-11-10T07:44:17.000Z</time>
      </trkpt>
      <trkpt lat="47.82731" lon="7.0976">
        <ele>558.59997558594</ele>
        <time>2019-11-10T07:44:18.000Z</time>
      </trkpt>
      <trkpt lat="47.82726" lon="7.09751">
        <ele>558</ele>
        <time>2019-11-10T07:44:19.000Z</time>
      </trkpt>
      <trkpt lat="47.82721" lon="7.09741">
        <ele>557.59997558594</ele>
        <time>2019-11-10T07:44:20.000Z</time>
      </trkpt>
      <trkpt lat="47.82716" lon="7.09731">
        <ele>557</ele>
        <time>2019-11-10T07:44:21.000Z</time>
      </trkpt>
      <trkpt lat="47.82712" lon="7.09719">
        <ele>556.40002441406</ele>
        <time>2019-11-10T07:44:22.000Z</time>
      </trkpt>
      <trkpt lat="47.82709" lon="7.09707">
        <ele>555.79998779297</ele>
        <time>2019-11-10T07:44:23.000Z</time>
      </trkpt>
      <trkpt lat="47.82706" lon="7.09696">
        <ele>555.20001220703</ele>
        <time>2019-11-10T07:44:24.000Z</time>
      </trkpt>
      <trkpt lat="47.82705" lon="7.09684">
        <ele>554.59997558594</ele>
        <time>2019-11-10T07:44:25.000Z</time>
      </trkpt>
      <trkpt lat="47.82704" lon="7.09672">
        <ele>553.79998779297</ele>
        <time>2019-11-10T07:44:26.000Z</time>
      </trkpt>
      <trkpt lat="47.82705" lon="7.09661">
        <ele>553.20001220703</ele>
        <time>2019-11-10T07:44:27.000Z</time>
      </trkpt>
      <trkpt lat="47.82706" lon="7.0965">
        <ele>552.40002441406</ele>
        <time>2019-11-10T07:44:28.000Z</time>
      </trkpt>
      <trkpt lat="47.82705" lon="7.09638">
        <ele>551.79998779297</ele>
        <time>2019-11-10T07:44:29.000Z</time>
      </trkpt>
      <trkpt lat="47.82705" lon="7.09628">
        <ele>550.79998779297</ele>
        <time>2019-11-10T07:44:30.000Z</time>
      </trkpt>
      <trkpt lat="47.82704" lon="7.09618">
        <ele>550.40002441406</ele>
        <time>2019-11-10T07:44:31.000Z</time>
      </trkpt>
      <trkpt lat="47.82701" lon="7.0961">
        <ele>550</ele>
        <time>2019-11-10T07:44:32.000Z</time>
      </trkpt>
      <trkpt lat="47.82699" lon="7.09602">
        <ele>549.59997558594</ele>
        <time>2019-11-10T07:44:33.000Z</time>
      </trkpt>
      <trkpt lat="47.82695" lon="7.09595">
        <ele>549.59997558594</ele>
        <time>2019-11-10T07:44:34.000Z</time>
      </trkpt>
      <trkpt lat="47.82692" lon="7.09587">
        <ele>549.59997558594</ele>
        <time>2019-11-10T07:44:35.000Z</time>
      </trkpt>
      <trkpt lat="47.82688" lon="7.09579">
        <ele>549.20001220703</ele>
        <time>2019-11-10T07:44:36.000Z</time>
      </trkpt>
      <trkpt lat="47.82684" lon="7.09571">
        <ele>548.59997558594</ele>
        <time>2019-11-10T07:44:37.000Z</time>
      </trkpt>
      <trkpt lat="47.8268" lon="7.09562">
        <ele>548.20001220703</ele>
        <time>2019-11-10T07:44:38.000Z</time>
      </trkpt>
      <trkpt lat="47.82676" lon="7.09553">
        <ele>547.59997558594</ele>
        <time>2019-11-10T07:44:39.000Z</time>
      </trkpt>
      <trkpt lat="47.82671" lon="7.09544">
        <ele>547</ele>
        <time>2019-11-10T07:44:40.000Z</time>
      </trkpt>
      <trkpt lat="47.82667" lon="7.09535">
        <ele>546.59997558594</ele>
        <time>2019-11-10T07:44:41.000Z</time>
      </trkpt>
      <trkpt lat="47.82663" lon="7.09525">
        <ele>545.79998779297</ele>
        <time>2019-11-10T07:44:42.000Z</time>
      </trkpt>
      <trkpt lat="47.8266" lon="7.09515">
        <ele>545.20001220703</ele>
        <time>2019-11-10T07:44:43.000Z</time>
      </trkpt>
      <trkpt lat="47.82656" lon="7.09504">
        <ele>544.59997558594</ele>
        <time>2019-11-10T07:44:44.000Z</time>
      </trkpt>
      <trkpt lat="47.82652" lon="7.09493">
        <ele>544</ele>
        <time>2019-11-10T07:44:45.000Z</time>
      </trkpt>
      <trkpt lat="47.82648" lon="7.09483">
        <ele>543.40002441406</ele>
        <time>2019-11-10T07:44:46.000Z</time>
      </trkpt>
      <trkpt lat="47.82644" lon="7.09472">
        <ele>542.79998779297</ele>
        <time>2019-11-10T07:44:47.000Z</time>
      </trkpt>
      <trkpt lat="47.82641" lon="7.09461">
        <ele>542.20001220703</ele>
        <time>2019-11-10T07:44:48.000Z</time>
      </trkpt>
      <trkpt lat="47.82637" lon="7.09451">
        <ele>541.59997558594</ele>
        <time>2019-11-10T07:44:49.000Z</time>
      </trkpt>
      <trkpt lat="47.82635" lon="7.0944">
        <ele>541</ele>
        <time>2019-11-10T07:44:50.000Z</time>
      </trkpt>
      <trkpt lat="47.82632" lon="7.09429">
        <ele>540.40002441406</ele>
        <time>2019-11-10T07:44:51.000Z</time>
      </trkpt>
      <trkpt lat="47.82629" lon="7.09418">
        <ele>539.79998779297</ele>
        <time>2019-11-10T07:44:52.000Z</time>
      </trkpt>
      <trkpt lat="47.82627" lon="7.09407">
        <ele>539.40002441406</ele>
        <time>2019-11-10T07:44:53.000Z</time>
      </trkpt>
      <trkpt lat="47.82626" lon="7.09396">
        <ele>538.79998779297</ele>
        <time>2019-11-10T07:44:54.000Z</time>
      </trkpt>
      <trkpt lat="47.82623" lon="7.09384">
        <ele>537.59997558594</ele>
        <time>2019-11-10T07:44:55.000Z</time>
      </trkpt>
      <trkpt lat="47.82621" lon="7.09374">
        <ele>537</ele>
        <time>2019-11-10T07:44:56.000Z</time>
      </trkpt>
      <trkpt lat="47.82619" lon="7.09364">
        <ele>536.59997558594</ele>
        <time>2019-11-10T07:44:57.000Z</time>
      </trkpt>
      <trkpt lat="47.82617" lon="7.09353">
        <ele>535.79998779297</ele>
        <time>2019-11-10T07:44:58.000Z</time>
      </trkpt>
      <trkpt lat="47.82615" lon="7.09343">
        <ele>535.20001220703</ele>
        <time>2019-11-10T07:44:59.000Z</time>
      </trkpt>
      <trkpt lat="47.82614" lon="7.09334">
        <ele>534.59997558594</ele>
        <time>2019-11-10T07:45:00.000Z</time>
      </trkpt>
      <trkpt lat="47.82613" lon="7.09324">
        <ele>534</ele>
        <time>2019-11-10T07:45:01.000Z</time>
      </trkpt>
      <trkpt lat="47.82611" lon="7.09315">
        <ele>533.40002441406</ele>
        <time>2019-11-10T07:45:02.000Z</time>
      </trkpt>
      <trkpt lat="47.82605" lon="7.09286">
        <ele>533</ele>
        <time>2019-11-10T07:45:05.000Z</time>
      </trkpt>
      <trkpt lat="47.82603" lon="7.09277">
        <ele>532.40002441406</ele>
        <time>2019-11-10T07:45:06.000Z</time>
      </trkpt>
      <trkpt lat="47.826" lon="7.09268">
        <ele>532</ele>
        <time>2019-11-10T07:45:07.000Z</time>
      </trkpt>
      <trkpt lat="47.82598" lon="7.09258">
        <ele>531.59997558594</ele>
        <time>2019-11-10T07:45:08.000Z</time>
      </trkpt>
      <trkpt lat="47.82595" lon="7.09249">
        <ele>531</ele>
        <time>2019-11-10T07:45:09.000Z</time>
      </trkpt>
      <trkpt lat="47.82593" lon="7.0924">
        <ele>530.59997558594</ele>
        <time>2019-11-10T07:45:10.000Z</time>
      </trkpt>
      <trkpt lat="47.8259" lon="7.0923">
        <ele>530</ele>
        <time>2019-11-10T07:45:11.000Z</time>
      </trkpt>
      <trkpt lat="47.82587" lon="7.0922">
        <ele>529.59997558594</ele>
        <time>2019-11-10T07:45:12.000Z</time>
      </trkpt>
      <trkpt lat="47.82584" lon="7.09211">
        <ele>529</ele>
        <time>2019-11-10T07:45:13.000Z</time>
      </trkpt>
      <trkpt lat="47.8258" lon="7.09202">
        <ele>528.40002441406</ele>
        <time>2019-11-10T07:45:14.000Z</time>
      </trkpt>
      <trkpt lat="47.82576" lon="7.09195">
        <ele>527.79998779297</ele>
        <time>2019-11-10T07:45:15.000Z</time>
      </trkpt>
      <trkpt lat="47.82572" lon="7.0919">
        <ele>527.20001220703</ele>
        <time>2019-11-10T07:45:16.000Z</time>
      </trkpt>
      <trkpt lat="47.82567" lon="7.09185">
        <ele>526.59997558594</ele>
        <time>2019-11-10T07:45:17.000Z</time>
      </trkpt>
      <trkpt lat="47.82562" lon="7.09182">
        <ele>526</ele>
        <time>2019-11-10T07:45:18.000Z</time>
      </trkpt>
      <trkpt lat="47.82558" lon="7.09179">
        <ele>525.59997558594</ele>
        <time>2019-11-10T07:45:19.000Z</time>
      </trkpt>
      <trkpt lat="47.82554" lon="7.09176">
        <ele>524.59997558594</ele>
        <time>2019-11-10T07:45:20.000Z</time>
      </trkpt>
      <trkpt lat="47.82551" lon="7.09173">
        <ele>524.20001220703</ele>
        <time>2019-11-10T07:45:21.000Z</time>
      </trkpt>
      <trkpt lat="47.82545" lon="7.09168">
        <ele>524.20001220703</ele>
        <time>2019-11-10T07:45:24.000Z</time>
      </trkpt>
      <trkpt lat="47.82542" lon="7.09165">
        <ele>523.79998779297</ele>
        <time>2019-11-10T07:45:28.000Z</time>
      </trkpt>
      <trkpt lat="47.82542" lon="7.09164">
        <ele>523.40002441406</ele>
        <time>2019-11-10T07:45:29.000Z</time>
      </trkpt>
      <trkpt lat="47.82545" lon="7.09168">
        <ele>522.20001220703</ele>
        <time>2019-11-10T07:46:30.000Z</time>
      </trkpt>
      <trkpt lat="47.82548" lon="7.09172">
        <ele>522.20001220703</ele>
        <time>2019-11-10T07:46:33.000Z</time>
      </trkpt>
      <trkpt lat="47.82549" lon="7.09174">
        <ele>522.20001220703</ele>
        <time>2019-11-10T07:46:34.000Z</time>
      </trkpt>
      <trkpt lat="47.82553" lon="7.09175">
        <ele>522.20001220703</ele>
        <time>2019-11-10T07:46:38.000Z</time>
      </trkpt>
      <trkpt lat="47.82557" lon="7.09179">
        <ele>522.20001220703</ele>
        <time>2019-11-10T07:47:27.000Z</time>
      </trkpt>
      <trkpt lat="47.8256" lon="7.09182">
        <ele>522.20001220703</ele>
        <time>2019-11-10T07:47:29.000Z</time>
      </trkpt>
      <trkpt lat="47.82569" lon="7.0919">
        <ele>522.20001220703</ele>
        <time>2019-11-10T07:47:34.000Z</time>
      </trkpt>
      <trkpt lat="47.82572" lon="7.09194">
        <ele>522.59997558594</ele>
        <time>2019-11-10T07:47:36.000Z</time>
      </trkpt>
      <trkpt lat="47.82573" lon="7.09196">
        <ele>523</ele>
        <time>2019-11-10T07:47:37.000Z</time>
      </trkpt>
      <trkpt lat="47.82575" lon="7.09199">
        <ele>523.59997558594</ele>
        <time>2019-11-10T07:47:38.000Z</time>
      </trkpt>
      <trkpt lat="47.82576" lon="7.09201">
        <ele>524</ele>
        <time>2019-11-10T07:47:39.000Z</time>
      </trkpt>
      <trkpt lat="47.82577" lon="7.09203">
        <ele>524.40002441406</ele>
        <time>2019-11-10T07:47:40.000Z</time>
      </trkpt>
      <trkpt lat="47.82586" lon="7.09222">
        <ele>524.79998779297</ele>
        <time>2019-11-10T07:47:47.000Z</time>
      </trkpt>
      <trkpt lat="47.82587" lon="7.09225">
        <ele>525.59997558594</ele>
        <time>2019-11-10T07:47:48.000Z</time>
      </trkpt>
      <trkpt lat="47.82588" lon="7.09228">
        <ele>526</ele>
        <time>2019-11-10T07:47:49.000Z</time>
      </trkpt>
      <trkpt lat="47.82589" lon="7.0923">
        <ele>526.59997558594</ele>
        <time>2019-11-10T07:47:50.000Z</time>
      </trkpt>
      <trkpt lat="47.82592" lon="7.09239">
        <ele>526.59997558594</ele>
        <time>2019-11-10T07:47:53.000Z</time>
      </trkpt>
      <trkpt lat="47.82597" lon="7.09256">
        <ele>527</ele>
        <time>2019-11-10T07:47:59.000Z</time>
      </trkpt>
      <trkpt lat="47.82598" lon="7.09259">
        <ele>527.40002441406</ele>
        <time>2019-11-10T07:48:00.000Z</time>
      </trkpt>
      <trkpt lat="47.82598" lon="7.09262">
        <ele>527.79998779297</ele>
        <time>2019-11-10T07:48:01.000Z</time>
      </trkpt>
      <trkpt lat="47.826" lon="7.09265">
        <ele>528.20001220703</ele>
        <time>2019-11-10T07:48:02.000Z</time>
      </trkpt>
      <trkpt lat="47.82601" lon="7.09269">
        <ele>528.59997558594</ele>
        <time>2019-11-10T07:48:03.000Z</time>
      </trkpt>
      <trkpt lat="47.82604" lon="7.09278">
        <ele>528.59997558594</ele>
        <time>2019-11-10T07:48:06.000Z</time>
      </trkpt>
      <trkpt lat="47.82607" lon="7.09296">
        <ele>528.59997558594</ele>
        <time>2019-11-10T07:48:11.000Z</time>
      </trkpt>
      <trkpt lat="47.82608" lon="7.09303">
        <ele>529.59997558594</ele>
        <time>2019-11-10T07:48:13.000Z</time>
      </trkpt>
      <trkpt lat="47.82608" lon="7.09307">
        <ele>530</ele>
        <time>2019-11-10T07:48:14.000Z</time>
      </trkpt>
      <trkpt lat="47.82608" lon="7.09311">
        <ele>530.40002441406</ele>
        <time>2019-11-10T07:48:15.000Z</time>
      </trkpt>
      <trkpt lat="47.82609" lon="7.09315">
        <ele>530.79998779297</ele>
        <time>2019-11-10T07:48:16.000Z</time>
      </trkpt>
      <trkpt lat="47.82609" lon="7.09319">
        <ele>530.79998779297</ele>
        <time>2019-11-10T07:48:17.000Z</time>
      </trkpt>
      <trkpt lat="47.82613" lon="7.09344">
        <ele>530.79998779297</ele>
        <time>2019-11-10T07:48:24.000Z</time>
      </trkpt>
      <trkpt lat="47.82615" lon="7.09351">
        <ele>531.40002441406</ele>
        <time>2019-11-10T07:48:26.000Z</time>
      </trkpt>
      <trkpt lat="47.82615" lon="7.09354">
        <ele>531.79998779297</ele>
        <time>2019-11-10T07:48:27.000Z</time>
      </trkpt>
      <trkpt lat="47.82615" lon="7.09358">
        <ele>532.20001220703</ele>
        <time>2019-11-10T07:48:28.000Z</time>
      </trkpt>
      <trkpt lat="47.82616" lon="7.09361">
        <ele>532.59997558594</ele>
        <time>2019-11-10T07:48:29.000Z</time>
      </trkpt>
      <trkpt lat="47.82617" lon="7.09364">
        <ele>533</ele>
        <time>2019-11-10T07:48:30.000Z</time>
      </trkpt>
      <trkpt lat="47.82618" lon="7.09367">
        <ele>533</ele>
        <time>2019-11-10T07:48:31.000Z</time>
      </trkpt>
      <trkpt lat="47.82624" lon="7.09388">
        <ele>533</ele>
        <time>2019-11-10T07:48:38.000Z</time>
      </trkpt>
      <trkpt lat="47.82626" lon="7.09394">
        <ele>533.40002441406</ele>
        <time>2019-11-10T07:48:40.000Z</time>
      </trkpt>
      <trkpt lat="47.82627" lon="7.09396">
        <ele>533.79998779297</ele>
        <time>2019-11-10T07:48:41.000Z</time>
      </trkpt>
      <trkpt lat="47.82627" lon="7.09399">
        <ele>534.40002441406</ele>
        <time>2019-11-10T07:48:42.000Z</time>
      </trkpt>
      <trkpt lat="47.82628" lon="7.09402">
        <ele>534.79998779297</ele>
        <time>2019-11-10T07:48:43.000Z</time>
      </trkpt>
      <trkpt lat="47.82628" lon="7.09405">
        <ele>535.20001220703</ele>
        <time>2019-11-10T07:48:44.000Z</time>
      </trkpt>
      <trkpt lat="47.82632" lon="7.09434">
        <ele>535.59997558594</ele>
        <time>2019-11-10T07:48:52.000Z</time>
      </trkpt>
      <trkpt lat="47.82632" lon="7.09437">
        <ele>536</ele>
        <time>2019-11-10T07:48:53.000Z</time>
      </trkpt>
      <trkpt lat="47.82633" lon="7.09441">
        <ele>536.59997558594</ele>
        <time>2019-11-10T07:48:54.000Z</time>
      </trkpt>
      <trkpt lat="47.82633" lon="7.09443">
        <ele>537</ele>
        <time>2019-11-10T07:48:55.000Z</time>
      </trkpt>
      <trkpt lat="47.82634" lon="7.09446">
        <ele>537.40002441406</ele>
        <time>2019-11-10T07:48:56.000Z</time>
      </trkpt>
      <trkpt lat="47.82636" lon="7.09451">
        <ele>537.40002441406</ele>
        <time>2019-11-10T07:48:57.000Z</time>
      </trkpt>
      <trkpt lat="47.82641" lon="7.09467">
        <ele>537.40002441406</ele>
        <time>2019-11-10T07:49:02.000Z</time>
      </trkpt>
      <trkpt lat="47.82642" lon="7.0947">
        <ele>537.79998779297</ele>
        <time>2019-11-10T07:49:03.000Z</time>
      </trkpt>
      <trkpt lat="47.82643" lon="7.09473">
        <ele>538.20001220703</ele>
        <time>2019-11-10T07:49:04.000Z</time>
      </trkpt>
      <trkpt lat="47.82645" lon="7.09476">
        <ele>538.59997558594</ele>
        <time>2019-11-10T07:49:05.000Z</time>
      </trkpt>
      <trkpt lat="47.82645" lon="7.09479">
        <ele>539</ele>
        <time>2019-11-10T07:49:06.000Z</time>
      </trkpt>
      <trkpt lat="47.82647" lon="7.09482">
        <ele>539.59997558594</ele>
        <time>2019-11-10T07:49:07.000Z</time>
      </trkpt>
      <trkpt lat="47.8265" lon="7.09488">
        <ele>539.59997558594</ele>
        <time>2019-11-10T07:49:09.000Z</time>
      </trkpt>
      <trkpt lat="47.82658" lon="7.09508">
        <ele>540</ele>
        <time>2019-11-10T07:49:15.000Z</time>
      </trkpt>
      <trkpt lat="47.82659" lon="7.09512">
        <ele>540.40002441406</ele>
        <time>2019-11-10T07:49:16.000Z</time>
      </trkpt>
      <trkpt lat="47.8266" lon="7.09515">
        <ele>540.79998779297</ele>
        <time>2019-11-10T07:49:17.000Z</time>
      </trkpt>
      <trkpt lat="47.82661" lon="7.09517">
        <ele>541.20001220703</ele>
        <time>2019-11-10T07:49:18.000Z</time>
      </trkpt>
      <trkpt lat="47.82662" lon="7.0952">
        <ele>541.59997558594</ele>
        <time>2019-11-10T07:49:19.000Z</time>
      </trkpt>
      <trkpt lat="47.82665" lon="7.09528">
        <ele>541.59997558594</ele>
        <time>2019-11-10T07:49:22.000Z</time>
      </trkpt>
      <trkpt lat="47.82672" lon="7.09545">
        <ele>542</ele>
        <time>2019-11-10T07:49:27.000Z</time>
      </trkpt>
      <trkpt lat="47.82673" lon="7.09547">
        <ele>542.40002441406</ele>
        <time>2019-11-10T07:49:28.000Z</time>
      </trkpt>
      <trkpt lat="47.82674" lon="7.09549">
        <ele>542.79998779297</ele>
        <time>2019-11-10T07:49:29.000Z</time>
      </trkpt>
      <trkpt lat="47.82675" lon="7.09552">
        <ele>543.20001220703</ele>
        <time>2019-11-10T07:49:30.000Z</time>
      </trkpt>
      <trkpt lat="47.82676" lon="7.09554">
        <ele>543.59997558594</ele>
        <time>2019-11-10T07:49:31.000Z</time>
      </trkpt>
      <trkpt lat="47.8268" lon="7.09561">
        <ele>543.59997558594</ele>
        <time>2019-11-10T07:49:34.000Z</time>
      </trkpt>
      <trkpt lat="47.82686" lon="7.09568">
        <ele>544</ele>
        <time>2019-11-10T07:49:37.000Z</time>
      </trkpt>
      <trkpt lat="47.82688" lon="7.09572">
        <ele>544.59997558594</ele>
        <time>2019-11-10T07:49:38.000Z</time>
      </trkpt>
      <trkpt lat="47.8269" lon="7.09576">
        <ele>545</ele>
        <time>2019-11-10T07:49:39.000Z</time>
      </trkpt>
      <trkpt lat="47.82691" lon="7.09579">
        <ele>545.40002441406</ele>
        <time>2019-11-10T07:49:40.000Z</time>
      </trkpt>
      <trkpt lat="47.82693" lon="7.09582">
        <ele>545.79998779297</ele>
        <time>2019-11-10T07:49:41.000Z</time>
      </trkpt>
      <trkpt lat="47.827" lon="7.09595">
        <ele>545.79998779297</ele>
        <time>2019-11-10T07:49:45.000Z</time>
      </trkpt>
      <trkpt lat="47.82706" lon="7.0961">
        <ele>546.20001220703</ele>
        <time>2019-11-10T07:49:50.000Z</time>
      </trkpt>
      <trkpt lat="47.82706" lon="7.09613">
        <ele>546.59997558594</ele>
        <time>2019-11-10T07:49:51.000Z</time>
      </trkpt>
      <trkpt lat="47.82707" lon="7.09616">
        <ele>547.40002441406</ele>
        <time>2019-11-10T07:49:52.000Z</time>
      </trkpt>
      <trkpt lat="47.82708" lon="7.09619">
        <ele>547.79998779297</ele>
        <time>2019-11-10T07:49:53.000Z</time>
      </trkpt>
      <trkpt lat="47.82708" lon="7.09635">
        <ele>547.79998779297</ele>
        <time>2019-11-10T07:49:56.000Z</time>
      </trkpt>
      <trkpt lat="47.82706" lon="7.09656">
        <ele>548.40002441406</ele>
        <time>2019-11-10T07:50:01.000Z</time>
      </trkpt>
      <trkpt lat="47.82706" lon="7.09659">
        <ele>548.79998779297</ele>
        <time>2019-11-10T07:50:02.000Z</time>
      </trkpt>
      <trkpt lat="47.82706" lon="7.09663">
        <ele>549.20001220703</ele>
        <time>2019-11-10T07:50:03.000Z</time>
      </trkpt>
      <trkpt lat="47.82706" lon="7.09666">
        <ele>549.59997558594</ele>
        <time>2019-11-10T07:50:04.000Z</time>
      </trkpt>
      <trkpt lat="47.82706" lon="7.09671">
        <ele>550.20001220703</ele>
        <time>2019-11-10T07:50:05.000Z</time>
      </trkpt>
      <trkpt lat="47.82709" lon="7.09682">
        <ele>550.20001220703</ele>
        <time>2019-11-10T07:50:08.000Z</time>
      </trkpt>
      <trkpt lat="47.82713" lon="7.09708">
        <ele>550.20001220703</ele>
        <time>2019-11-10T07:50:14.000Z</time>
      </trkpt>
      <trkpt lat="47.82714" lon="7.09712">
        <ele>550.59997558594</ele>
        <time>2019-11-10T07:50:15.000Z</time>
      </trkpt>
      <trkpt lat="47.82715" lon="7.09715">
        <ele>551.40002441406</ele>
        <time>2019-11-10T07:50:16.000Z</time>
      </trkpt>
      <trkpt lat="47.82716" lon="7.09718">
        <ele>551.79998779297</ele>
        <time>2019-11-10T07:50:17.000Z</time>
      </trkpt>
      <trkpt lat="47.82717" lon="7.09722">
        <ele>552.20001220703</ele>
        <time>2019-11-10T07:50:18.000Z</time>
      </trkpt>
      <trkpt lat="47.82719" lon="7.0973">
        <ele>552.20001220703</ele>
        <time>2019-11-10T07:50:21.000Z</time>
      </trkpt>
      <trkpt lat="47.82725" lon="7.09742">
        <ele>552.59997558594</ele>
        <time>2019-11-10T07:50:25.000Z</time>
      </trkpt>
      <trkpt lat="47.82726" lon="7.09744">
        <ele>553</ele>
        <time>2019-11-10T07:50:26.000Z</time>
      </trkpt>
      <trkpt lat="47.82728" lon="7.09747">
        <ele>553.40002441406</ele>
        <time>2019-11-10T07:50:27.000Z</time>
      </trkpt>
      <trkpt lat="47.8273" lon="7.0975">
        <ele>553.79998779297</ele>
        <time>2019-11-10T07:50:28.000Z</time>
      </trkpt>
      <trkpt lat="47.82732" lon="7.09753">
        <ele>554.20001220703</ele>
        <time>2019-11-10T07:50:29.000Z</time>
      </trkpt>
      <trkpt lat="47.8274" lon="7.09768">
        <ele>554.20001220703</ele>
        <time>2019-11-10T07:50:34.000Z</time>
      </trkpt>
      <trkpt lat="47.82742" lon="7.09774">
        <ele>554.79998779297</ele>
        <time>2019-11-10T07:50:36.000Z</time>
      </trkpt>
      <trkpt lat="47.82743" lon="7.09777">
        <ele>555.20001220703</ele>
        <time>2019-11-10T07:50:37.000Z</time>
      </trkpt>
      <trkpt lat="47.82744" lon="7.0978">
        <ele>555.59997558594</ele>
        <time>2019-11-10T07:50:38.000Z</time>
      </trkpt>
      <trkpt lat="47.82745" lon="7.09783">
        <ele>556</ele>
        <time>2019-11-10T07:50:39.000Z</time>
      </trkpt>
      <trkpt lat="47.82745" lon="7.09787">
        <ele>556.59997558594</ele>
        <time>2019-11-10T07:50:40.000Z</time>
      </trkpt>
      <trkpt lat="47.82745" lon="7.0979">
        <ele>556.59997558594</ele>
        <time>2019-11-10T07:50:41.000Z</time>
      </trkpt>
      <trkpt lat="47.82746" lon="7.09806">
        <ele>556.59997558594</ele>
        <time>2019-11-10T07:50:46.000Z</time>
      </trkpt>
      <trkpt lat="47.82745" lon="7.0981">
        <ele>556.59997558594</ele>
        <time>2019-11-10T07:50:48.000Z</time>
      </trkpt>
      <trkpt lat="47.82744" lon="7.09815">
        <ele>556.59997558594</ele>
        <time>2019-11-10T07:50:51.000Z</time>
      </trkpt>
      <trkpt lat="47.82745" lon="7.09816">
        <ele>556.59997558594</ele>
        <time>2019-11-10T07:50:53.000Z</time>
      </trkpt>
      <trkpt lat="47.82746" lon="7.09816">
        <ele>558.59997558594</ele>
        <time>2019-11-10T07:51:16.000Z</time>
      </trkpt>
      <trkpt lat="47.82747" lon="7.09814">
        <ele>558.59997558594</ele>
        <time>2019-11-10T07:51:17.000Z</time>
      </trkpt>
      <trkpt lat="47.8275" lon="7.09801">
        <ele>558.59997558594</ele>
        <time>2019-11-10T07:51:21.000Z</time>
      </trkpt>
      <trkpt lat="47.82751" lon="7.09791">
        <ele>558.59997558594</ele>
        <time>2019-11-10T07:51:24.000Z</time>
      </trkpt>
      <trkpt lat="47.82751" lon="7.09787">
        <ele>559</ele>
        <time>2019-11-10T07:51:25.000Z</time>
      </trkpt>
      <trkpt lat="47.82751" lon="7.09782">
        <ele>559.40002441406</ele>
        <time>2019-11-10T07:51:26.000Z</time>
      </trkpt>
      <trkpt lat="47.8275" lon="7.09778">
        <ele>559.79998779297</ele>
        <time>2019-11-10T07:51:27.000Z</time>
      </trkpt>
      <trkpt lat="47.8275" lon="7.09775">
        <ele>560.20001220703</ele>
        <time>2019-11-10T07:51:28.000Z</time>
      </trkpt>
      <trkpt lat="47.8275" lon="7.09773">
        <ele>560.79998779297</ele>
        <time>2019-11-10T07:51:29.000Z</time>
      </trkpt>
      <trkpt lat="47.82749" lon="7.09771">
        <ele>561.20001220703</ele>
        <time>2019-11-10T07:51:30.000Z</time>
      </trkpt>
      <trkpt lat="47.82747" lon="7.09769">
        <ele>562.20001220703</ele>
        <time>2019-11-10T07:51:31.000Z</time>
      </trkpt>
      <trkpt lat="47.82746" lon="7.09765">
        <ele>562.59997558594</ele>
        <time>2019-11-10T07:51:32.000Z</time>
      </trkpt>
      <trkpt lat="47.82746" lon="7.09762">
        <ele>563</ele>
        <time>2019-11-10T07:51:33.000Z</time>
      </trkpt>
      <trkpt lat="47.82746" lon="7.09747">
        <ele>563.40002441406</ele>
        <time>2019-11-10T07:51:38.000Z</time>
      </trkpt>
      <trkpt lat="47.82745" lon="7.09743">
        <ele>564</ele>
        <time>2019-11-10T07:51:39.000Z</time>
      </trkpt>
      <trkpt lat="47.82744" lon="7.09739">
        <ele>564.40002441406</ele>
        <time>2019-11-10T07:51:40.000Z</time>
      </trkpt>
      <trkpt lat="47.82743" lon="7.09735">
        <ele>564.79998779297</ele>
        <time>2019-11-10T07:51:41.000Z</time>
      </trkpt>
      <trkpt lat="47.82742" lon="7.09731">
        <ele>565.20001220703</ele>
        <time>2019-11-10T07:51:42.000Z</time>
      </trkpt>
      <trkpt lat="47.82742" lon="7.09728">
        <ele>565.20001220703</ele>
        <time>2019-11-10T07:51:43.000Z</time>
      </trkpt>
      <trkpt lat="47.82741" lon="7.09724">
        <ele>565.59997558594</ele>
        <time>2019-11-10T07:51:44.000Z</time>
      </trkpt>
      <trkpt lat="47.82741" lon="7.0972">
        <ele>566.20001220703</ele>
        <time>2019-11-10T07:51:45.000Z</time>
      </trkpt>
      <trkpt lat="47.8274" lon="7.09715">
        <ele>566.59997558594</ele>
        <time>2019-11-10T07:51:46.000Z</time>
      </trkpt>
      <trkpt lat="47.8274" lon="7.09711">
        <ele>567</ele>
        <time>2019-11-10T07:51:47.000Z</time>
      </trkpt>
      <trkpt lat="47.8274" lon="7.09707">
        <ele>567.40002441406</ele>
        <time>2019-11-10T07:51:48.000Z</time>
      </trkpt>
      <trkpt lat="47.8274" lon="7.09705">
        <ele>567.40002441406</ele>
        <time>2019-11-10T07:51:49.000Z</time>
      </trkpt>
      <trkpt lat="47.8274" lon="7.09696">
        <ele>567.79998779297</ele>
        <time>2019-11-10T07:51:51.000Z</time>
      </trkpt>
      <trkpt lat="47.82741" lon="7.09693">
        <ele>568.20001220703</ele>
        <time>2019-11-10T07:51:52.000Z</time>
      </trkpt>
      <trkpt lat="47.82741" lon="7.0969">
        <ele>568.59997558594</ele>
        <time>2019-11-10T07:51:53.000Z</time>
      </trkpt>
      <trkpt lat="47.82741" lon="7.09686">
        <ele>569</ele>
        <time>2019-11-10T07:51:54.000Z</time>
      </trkpt>
      <trkpt lat="47.82742" lon="7.09683">
        <ele>569.40002441406</ele>
        <time>2019-11-10T07:51:55.000Z</time>
      </trkpt>
      <trkpt lat="47.82743" lon="7.0968">
        <ele>570.40002441406</ele>
        <time>2019-11-10T07:51:56.000Z</time>
      </trkpt>
      <trkpt lat="47.82743" lon="7.09676">
        <ele>570.79998779297</ele>
        <time>2019-11-10T07:51:57.000Z</time>
      </trkpt>
      <trkpt lat="47.82744" lon="7.09673">
        <ele>571.20001220703</ele>
        <time>2019-11-10T07:51:58.000Z</time>
      </trkpt>
      <trkpt lat="47.82744" lon="7.0967">
        <ele>571.59997558594</ele>
        <time>2019-11-10T07:51:59.000Z</time>
      </trkpt>
      <trkpt lat="47.82745" lon="7.09663">
        <ele>571.59997558594</ele>
        <time>2019-11-10T07:52:01.000Z</time>
      </trkpt>
      <trkpt lat="47.82746" lon="7.0966">
        <ele>572</ele>
        <time>2019-11-10T07:52:02.000Z</time>
      </trkpt>
      <trkpt lat="47.82746" lon="7.09657">
        <ele>572.40002441406</ele>
        <time>2019-11-10T07:52:03.000Z</time>
      </trkpt>
      <trkpt lat="47.82746" lon="7.09654">
        <ele>573</ele>
        <time>2019-11-10T07:52:04.000Z</time>
      </trkpt>
      <trkpt lat="47.82746" lon="7.09652">
        <ele>573.40002441406</ele>
        <time>2019-11-10T07:52:05.000Z</time>
      </trkpt>
      <trkpt lat="47.82746" lon="7.09649">
        <ele>573.79998779297</ele>
        <time>2019-11-10T07:52:06.000Z</time>
      </trkpt>
      <trkpt lat="47.82748" lon="7.09638">
        <ele>574.20001220703</ele>
        <time>2019-11-10T07:52:10.000Z</time>
      </trkpt>
      <trkpt lat="47.82748" lon="7.09635">
        <ele>574.59997558594</ele>
        <time>2019-11-10T07:52:11.000Z</time>
      </trkpt>
      <trkpt lat="47.82749" lon="7.09632">
        <ele>575</ele>
        <time>2019-11-10T07:52:12.000Z</time>
      </trkpt>
      <trkpt lat="47.82749" lon="7.09629">
        <ele>575.40002441406</ele>
        <time>2019-11-10T07:52:13.000Z</time>
      </trkpt>
      <trkpt lat="47.82749" lon="7.09626">
        <ele>575.79998779297</ele>
        <time>2019-11-10T07:52:14.000Z</time>
      </trkpt>
      <trkpt lat="47.82749" lon="7.09611">
        <ele>575.79998779297</ele>
        <time>2019-11-10T07:52:18.000Z</time>
      </trkpt>
      <trkpt lat="47.8275" lon="7.09607">
        <ele>576.20001220703</ele>
        <time>2019-11-10T07:52:20.000Z</time>
      </trkpt>
      <trkpt lat="47.8275" lon="7.09605">
        <ele>577</ele>
        <time>2019-11-10T07:52:21.000Z</time>
      </trkpt>
      <trkpt lat="47.82751" lon="7.09603">
        <ele>577.40002441406</ele>
        <time>2019-11-10T07:52:22.000Z</time>
      </trkpt>
      <trkpt lat="47.8275" lon="7.096">
        <ele>577.79998779297</ele>
        <time>2019-11-10T07:52:23.000Z</time>
      </trkpt>
      <trkpt lat="47.82749" lon="7.09587">
        <ele>578.20001220703</ele>
        <time>2019-11-10T07:52:28.000Z</time>
      </trkpt>
      <trkpt lat="47.82748" lon="7.09584">
        <ele>578.59997558594</ele>
        <time>2019-11-10T07:52:29.000Z</time>
      </trkpt>
      <trkpt lat="47.82747" lon="7.09581">
        <ele>579</ele>
        <time>2019-11-10T07:52:30.000Z</time>
      </trkpt>
      <trkpt lat="47.82747" lon="7.09577">
        <ele>579.40002441406</ele>
        <time>2019-11-10T07:52:31.000Z</time>
      </trkpt>
      <trkpt lat="47.82747" lon="7.09574">
        <ele>579.79998779297</ele>
        <time>2019-11-10T07:52:32.000Z</time>
      </trkpt>
      <trkpt lat="47.82744" lon="7.09557">
        <ele>579.79998779297</ele>
        <time>2019-11-10T07:52:37.000Z</time>
      </trkpt>
      <trkpt lat="47.82743" lon="7.09554">
        <ele>580.40002441406</ele>
        <time>2019-11-10T07:52:38.000Z</time>
      </trkpt>
      <trkpt lat="47.82743" lon="7.09552">
        <ele>580.79998779297</ele>
        <time>2019-11-10T07:52:39.000Z</time>
      </trkpt>
      <trkpt lat="47.82742" lon="7.09549">
        <ele>581.20001220703</ele>
        <time>2019-11-10T07:52:40.000Z</time>
      </trkpt>
      <trkpt lat="47.82742" lon="7.09549">
        <ele>581.59997558594</ele>
        <time>2019-11-10T07:52:41.000Z</time>
      </trkpt>
      <trkpt lat="47.82742" lon="7.09547">
        <ele>582</ele>
        <time>2019-11-10T07:52:42.000Z</time>
      </trkpt>
      <trkpt lat="47.82741" lon="7.09546">
        <ele>582</ele>
        <time>2019-11-10T07:52:43.000Z</time>
      </trkpt>
      <trkpt lat="47.82739" lon="7.09538">
        <ele>583</ele>
        <time>2019-11-10T07:52:46.000Z</time>
      </trkpt>
      <trkpt lat="47.82738" lon="7.09535">
        <ele>583.40002441406</ele>
        <time>2019-11-10T07:52:47.000Z</time>
      </trkpt>
      <trkpt lat="47.82738" lon="7.09531">
        <ele>583.79998779297</ele>
        <time>2019-11-10T07:52:48.000Z</time>
      </trkpt>
      <trkpt lat="47.82737" lon="7.09528">
        <ele>584.40002441406</ele>
        <time>2019-11-10T07:52:49.000Z</time>
      </trkpt>
      <trkpt lat="47.82735" lon="7.09511">
        <ele>584.40002441406</ele>
        <time>2019-11-10T07:52:53.000Z</time>
      </trkpt>
      <trkpt lat="47.82734" lon="7.09505">
        <ele>584.79998779297</ele>
        <time>2019-11-10T07:52:55.000Z</time>
      </trkpt>
      <trkpt lat="47.82734" lon="7.09503">
        <ele>585.20001220703</ele>
        <time>2019-11-10T07:52:56.000Z</time>
      </trkpt>
      <trkpt lat="47.82733" lon="7.095">
        <ele>585.59997558594</ele>
        <time>2019-11-10T07:52:57.000Z</time>
      </trkpt>
      <trkpt lat="47.82733" lon="7.09498">
        <ele>586.20001220703</ele>
        <time>2019-11-10T07:52:58.000Z</time>
      </trkpt>
      <trkpt lat="47.82733" lon="7.09496">
        <ele>586.59997558594</ele>
        <time>2019-11-10T07:52:59.000Z</time>
      </trkpt>
      <trkpt lat="47.82732" lon="7.09493">
        <ele>586.59997558594</ele>
        <time>2019-11-10T07:53:01.000Z</time>
      </trkpt>
      <trkpt lat="47.82732" lon="7.09483">
        <ele>587</ele>
        <time>2019-11-10T07:53:04.000Z</time>
      </trkpt>
      <trkpt lat="47.82732" lon="7.09479">
        <ele>587.40002441406</ele>
        <time>2019-11-10T07:53:05.000Z</time>
      </trkpt>
      <trkpt lat="47.82732" lon="7.09475">
        <ele>587.79998779297</ele>
        <time>2019-11-10T07:53:06.000Z</time>
      </trkpt>
      <trkpt lat="47.82732" lon="7.09472">
        <ele>588.20001220703</ele>
        <time>2019-11-10T07:53:07.000Z</time>
      </trkpt>
      <trkpt lat="47.82732" lon="7.09468">
        <ele>588.79998779297</ele>
        <time>2019-11-10T07:53:08.000Z</time>
      </trkpt>
      <trkpt lat="47.82729" lon="7.09456">
        <ele>589.20001220703</ele>
        <time>2019-11-10T07:53:11.000Z</time>
      </trkpt>
      <trkpt lat="47.82728" lon="7.09453">
        <ele>589.59997558594</ele>
        <time>2019-11-10T07:53:12.000Z</time>
      </trkpt>
      <trkpt lat="47.82727" lon="7.09449">
        <ele>590.20001220703</ele>
        <time>2019-11-10T07:53:13.000Z</time>
      </trkpt>
      <trkpt lat="47.82726" lon="7.09445">
        <ele>590.59997558594</ele>
        <time>2019-11-10T07:53:14.000Z</time>
      </trkpt>
      <trkpt lat="47.82726" lon="7.09442">
        <ele>591</ele>
        <time>2019-11-10T07:53:15.000Z</time>
      </trkpt>
      <trkpt lat="47.82724" lon="7.09428">
        <ele>591.59997558594</ele>
        <time>2019-11-10T07:53:19.000Z</time>
      </trkpt>
      <trkpt lat="47.82723" lon="7.09425">
        <ele>592</ele>
        <time>2019-11-10T07:53:20.000Z</time>
      </trkpt>
      <trkpt lat="47.82723" lon="7.09422">
        <ele>592.40002441406</ele>
        <time>2019-11-10T07:53:21.000Z</time>
      </trkpt>
      <trkpt lat="47.82723" lon="7.09418">
        <ele>592.79998779297</ele>
        <time>2019-11-10T07:53:22.000Z</time>
      </trkpt>
      <trkpt lat="47.82724" lon="7.09415">
        <ele>593.20001220703</ele>
        <time>2019-11-10T07:53:23.000Z</time>
      </trkpt>
      <trkpt lat="47.82726" lon="7.09408">
        <ele>593.20001220703</ele>
        <time>2019-11-10T07:53:26.000Z</time>
      </trkpt>
      <trkpt lat="47.82726" lon="7.09406">
        <ele>593.59997558594</ele>
        <time>2019-11-10T07:53:27.000Z</time>
      </trkpt>
      <trkpt lat="47.82726" lon="7.09402">
        <ele>594</ele>
        <time>2019-11-10T07:53:28.000Z</time>
      </trkpt>
      <trkpt lat="47.82725" lon="7.09397">
        <ele>594.40002441406</ele>
        <time>2019-11-10T07:53:29.000Z</time>
      </trkpt>
      <trkpt lat="47.82723" lon="7.09391">
        <ele>594.79998779297</ele>
        <time>2019-11-10T07:53:30.000Z</time>
      </trkpt>
      <trkpt lat="47.82722" lon="7.09387">
        <ele>595.20001220703</ele>
        <time>2019-11-10T07:53:31.000Z</time>
      </trkpt>
      <trkpt lat="47.82718" lon="7.09373">
        <ele>596</ele>
        <time>2019-11-10T07:53:35.000Z</time>
      </trkpt>
      <trkpt lat="47.82717" lon="7.09371">
        <ele>596.40002441406</ele>
        <time>2019-11-10T07:53:36.000Z</time>
      </trkpt>
      <trkpt lat="47.82717" lon="7.0937">
        <ele>596.79998779297</ele>
        <time>2019-11-10T07:53:37.000Z</time>
      </trkpt>
      <trkpt lat="47.82717" lon="7.09368">
        <ele>597.20001220703</ele>
        <time>2019-11-10T07:53:38.000Z</time>
      </trkpt>
      <trkpt lat="47.82717" lon="7.09363">
        <ele>597.20001220703</ele>
        <time>2019-11-10T07:53:40.000Z</time>
      </trkpt>
      <trkpt lat="47.82719" lon="7.09349">
        <ele>597.59997558594</ele>
        <time>2019-11-10T07:53:45.000Z</time>
      </trkpt>
      <trkpt lat="47.82719" lon="7.09346">
        <ele>598</ele>
        <time>2019-11-10T07:53:46.000Z</time>
      </trkpt>
      <trkpt lat="47.82719" lon="7.09342">
        <ele>598.40002441406</ele>
        <time>2019-11-10T07:53:47.000Z</time>
      </trkpt>
      <trkpt lat="47.82721" lon="7.0934">
        <ele>598.79998779297</ele>
        <time>2019-11-10T07:53:48.000Z</time>
      </trkpt>
      <trkpt lat="47.82721" lon="7.09337">
        <ele>599.40002441406</ele>
        <time>2019-11-10T07:53:49.000Z</time>
      </trkpt>
      <trkpt lat="47.82721" lon="7.09334">
        <ele>599.40002441406</ele>
        <time>2019-11-10T07:53:50.000Z</time>
      </trkpt>
      <trkpt lat="47.8272" lon="7.09329">
        <ele>599.40002441406</ele>
        <time>2019-11-10T07:53:51.000Z</time>
      </trkpt>
      <trkpt lat="47.82721" lon="7.09321">
        <ele>599.79998779297</ele>
        <time>2019-11-10T07:53:53.000Z</time>
      </trkpt>
      <trkpt lat="47.82721" lon="7.09317">
        <ele>600.20001220703</ele>
        <time>2019-11-10T07:53:54.000Z</time>
      </trkpt>
      <trkpt lat="47.82721" lon="7.09314">
        <ele>600.59997558594</ele>
        <time>2019-11-10T07:53:55.000Z</time>
      </trkpt>
      <trkpt lat="47.82721" lon="7.0931">
        <ele>601</ele>
        <time>2019-11-10T07:53:56.000Z</time>
      </trkpt>
      <trkpt lat="47.82721" lon="7.09307">
        <ele>601.40002441406</ele>
        <time>2019-11-10T07:53:57.000Z</time>
      </trkpt>
      <trkpt lat="47.82721" lon="7.09304">
        <ele>601.40002441406</ele>
        <time>2019-11-10T07:53:58.000Z</time>
      </trkpt>
      <trkpt lat="47.82722" lon="7.09302">
        <ele>601.79998779297</ele>
        <time>2019-11-10T07:53:59.000Z</time>
      </trkpt>
      <trkpt lat="47.82722" lon="7.09298">
        <ele>602.59997558594</ele>
        <time>2019-11-10T07:54:00.000Z</time>
      </trkpt>
      <trkpt lat="47.82722" lon="7.09295">
        <ele>603</ele>
        <time>2019-11-10T07:54:01.000Z</time>
      </trkpt>
      <trkpt lat="47.82722" lon="7.09292">
        <ele>603.40002441406</ele>
        <time>2019-11-10T07:54:02.000Z</time>
      </trkpt>
      <trkpt lat="47.82721" lon="7.09286">
        <ele>603.79998779297</ele>
        <time>2019-11-10T07:54:04.000Z</time>
      </trkpt>
      <trkpt lat="47.8272" lon="7.09284">
        <ele>604.20001220703</ele>
        <time>2019-11-10T07:54:05.000Z</time>
      </trkpt>
      <trkpt lat="47.82721" lon="7.0928">
        <ele>604.59997558594</ele>
        <time>2019-11-10T07:54:06.000Z</time>
      </trkpt>
      <trkpt lat="47.82722" lon="7.09277">
        <ele>605</ele>
        <time>2019-11-10T07:54:07.000Z</time>
      </trkpt>
      <trkpt lat="47.82724" lon="7.09274">
        <ele>605.59997558594</ele>
        <time>2019-11-10T07:54:08.000Z</time>
      </trkpt>
      <trkpt lat="47.82726" lon="7.09268">
        <ele>605.59997558594</ele>
        <time>2019-11-10T07:54:10.000Z</time>
      </trkpt>
      <trkpt lat="47.82726" lon="7.09266">
        <ele>605.59997558594</ele>
        <time>2019-11-10T07:54:11.000Z</time>
      </trkpt>
      <trkpt lat="47.82728" lon="7.09258">
        <ele>605.59997558594</ele>
        <time>2019-11-10T07:54:15.000Z</time>
      </trkpt>
      <trkpt lat="47.82728" lon="7.09257">
        <ele>606</ele>
        <time>2019-11-10T07:54:16.000Z</time>
      </trkpt>
      <trkpt lat="47.82728" lon="7.09256">
        <ele>606.40002441406</ele>
        <time>2019-11-10T07:54:17.000Z</time>
      </trkpt>
      <trkpt lat="47.82729" lon="7.09254">
        <ele>606.79998779297</ele>
        <time>2019-11-10T07:54:18.000Z</time>
      </trkpt>
      <trkpt lat="47.82728" lon="7.09254">
        <ele>607.59997558594</ele>
        <time>2019-11-10T07:59:30.000Z</time>
      </trkpt>
      <trkpt lat="47.82727" lon="7.09258">
        <ele>607.59997558594</ele>
        <time>2019-11-10T07:59:31.000Z</time>
      </trkpt>
      <trkpt lat="47.82725" lon="7.09269">
        <ele>607.59997558594</ele>
        <time>2019-11-10T07:59:35.000Z</time>
      </trkpt>
      <trkpt lat="47.82726" lon="7.09291">
        <ele>607.59997558594</ele>
        <time>2019-11-10T07:59:41.000Z</time>
      </trkpt>
      <trkpt lat="47.82727" lon="7.09304">
        <ele>607</ele>
        <time>2019-11-10T07:59:44.000Z</time>
      </trkpt>
      <trkpt lat="47.82727" lon="7.09308">
        <ele>606.59997558594</ele>
        <time>2019-11-10T07:59:45.000Z</time>
      </trkpt>
      <trkpt lat="47.82727" lon="7.09311">
        <ele>605.79998779297</ele>
        <time>2019-11-10T07:59:46.000Z</time>
      </trkpt>
      <trkpt lat="47.82728" lon="7.09316">
        <ele>605.40002441406</ele>
        <time>2019-11-10T07:59:47.000Z</time>
      </trkpt>
      <trkpt lat="47.82733" lon="7.09343">
        <ele>605.40002441406</ele>
        <time>2019-11-10T07:59:53.000Z</time>
      </trkpt>
      <trkpt lat="47.82737" lon="7.09361">
        <ele>605.79998779297</ele>
        <time>2019-11-10T07:59:57.000Z</time>
      </trkpt>
      <trkpt lat="47.82738" lon="7.09364">
        <ele>606.20001220703</ele>
        <time>2019-11-10T07:59:58.000Z</time>
      </trkpt>
      <trkpt lat="47.8274" lon="7.09369">
        <ele>606.59997558594</ele>
        <time>2019-11-10T07:59:59.000Z</time>
      </trkpt>
      <trkpt lat="47.82742" lon="7.09373">
        <ele>607</ele>
        <time>2019-11-10T08:00:00.000Z</time>
      </trkpt>
      <trkpt lat="47.82743" lon="7.09378">
        <ele>607.40002441406</ele>
        <time>2019-11-10T08:00:01.000Z</time>
      </trkpt>
      <trkpt lat="47.82748" lon="7.09404">
        <ele>607.79998779297</ele>
        <time>2019-11-10T08:00:07.000Z</time>
      </trkpt>
      <trkpt lat="47.82749" lon="7.09408">
        <ele>608.20001220703</ele>
        <time>2019-11-10T08:00:08.000Z</time>
      </trkpt>
      <trkpt lat="47.82751" lon="7.09413">
        <ele>608.59997558594</ele>
        <time>2019-11-10T08:00:09.000Z</time>
      </trkpt>
      <trkpt lat="47.82751" lon="7.09418">
        <ele>609.40002441406</ele>
        <time>2019-11-10T08:00:10.000Z</time>
      </trkpt>
      <trkpt lat="47.82753" lon="7.09427">
        <ele>609.40002441406</ele>
        <time>2019-11-10T08:00:12.000Z</time>
      </trkpt>
      <trkpt lat="47.82757" lon="7.09443">
        <ele>609.79998779297</ele>
        <time>2019-11-10T08:00:16.000Z</time>
      </trkpt>
      <trkpt lat="47.82757" lon="7.09446">
        <ele>610.20001220703</ele>
        <time>2019-11-10T08:00:17.000Z</time>
      </trkpt>
      <trkpt lat="47.82758" lon="7.0945">
        <ele>610.59997558594</ele>
        <time>2019-11-10T08:00:18.000Z</time>
      </trkpt>
      <trkpt lat="47.82759" lon="7.09454">
        <ele>611</ele>
        <time>2019-11-10T08:00:19.000Z</time>
      </trkpt>
      <trkpt lat="47.8276" lon="7.09458">
        <ele>611.40002441406</ele>
        <time>2019-11-10T08:00:20.000Z</time>
      </trkpt>
      <trkpt lat="47.82764" lon="7.09479">
        <ele>611.40002441406</ele>
        <time>2019-11-10T08:00:25.000Z</time>
      </trkpt>
      <trkpt lat="47.82773" lon="7.09502">
        <ele>611.40002441406</ele>
        <time>2019-11-10T08:00:31.000Z</time>
      </trkpt>
      <trkpt lat="47.82775" lon="7.09511">
        <ele>611.79998779297</ele>
        <time>2019-11-10T08:00:34.000Z</time>
      </trkpt>
      <trkpt lat="47.82777" lon="7.09515">
        <ele>612.79998779297</ele>
        <time>2019-11-10T08:00:35.000Z</time>
      </trkpt>
      <trkpt lat="47.82778" lon="7.09518">
        <ele>613.20001220703</ele>
        <time>2019-11-10T08:00:36.000Z</time>
      </trkpt>
      <trkpt lat="47.82779" lon="7.0952">
        <ele>613.59997558594</ele>
        <time>2019-11-10T08:00:37.000Z</time>
      </trkpt>
      <trkpt lat="47.82781" lon="7.09528">
        <ele>613.59997558594</ele>
        <time>2019-11-10T08:00:40.000Z</time>
      </trkpt>
      <trkpt lat="47.82781" lon="7.0953">
        <ele>614</ele>
        <time>2019-11-10T08:00:41.000Z</time>
      </trkpt>
      <trkpt lat="47.82782" lon="7.09533">
        <ele>614.40002441406</ele>
        <time>2019-11-10T08:00:42.000Z</time>
      </trkpt>
      <trkpt lat="47.82783" lon="7.09535">
        <ele>614.79998779297</ele>
        <time>2019-11-10T08:00:43.000Z</time>
      </trkpt>
      <trkpt lat="47.82784" lon="7.09538">
        <ele>615.20001220703</ele>
        <time>2019-11-10T08:00:44.000Z</time>
      </trkpt>
      <trkpt lat="47.82785" lon="7.09542">
        <ele>615.59997558594</ele>
        <time>2019-11-10T08:00:45.000Z</time>
      </trkpt>
      <trkpt lat="47.82786" lon="7.09547">
        <ele>615.59997558594</ele>
        <time>2019-11-10T08:00:46.000Z</time>
      </trkpt>
      <trkpt lat="47.8279" lon="7.09554">
        <ele>615.59997558594</ele>
        <time>2019-11-10T08:00:48.000Z</time>
      </trkpt>
      <trkpt lat="47.82796" lon="7.09574">
        <ele>615.59997558594</ele>
        <time>2019-11-10T08:00:53.000Z</time>
      </trkpt>
      <trkpt lat="47.82798" lon="7.09582">
        <ele>616</ele>
        <time>2019-11-10T08:00:55.000Z</time>
      </trkpt>
      <trkpt lat="47.82799" lon="7.09585">
        <ele>616.40002441406</ele>
        <time>2019-11-10T08:00:56.000Z</time>
      </trkpt>
      <trkpt lat="47.828" lon="7.09587">
        <ele>616.79998779297</ele>
        <time>2019-11-10T08:00:57.000Z</time>
      </trkpt>
      <trkpt lat="47.82801" lon="7.09591">
        <ele>617.40002441406</ele>
        <time>2019-11-10T08:00:58.000Z</time>
      </trkpt>
      <trkpt lat="47.82803" lon="7.09594">
        <ele>617.79998779297</ele>
        <time>2019-11-10T08:00:59.000Z</time>
      </trkpt>
      <trkpt lat="47.82808" lon="7.09611">
        <ele>617.79998779297</ele>
        <time>2019-11-10T08:01:04.000Z</time>
      </trkpt>
      <trkpt lat="47.8281" lon="7.09623">
        <ele>618.20001220703</ele>
        <time>2019-11-10T08:01:08.000Z</time>
      </trkpt>
      <trkpt lat="47.82811" lon="7.09626">
        <ele>618.59997558594</ele>
        <time>2019-11-10T08:01:09.000Z</time>
      </trkpt>
      <trkpt lat="47.82812" lon="7.09629">
        <ele>619</ele>
        <time>2019-11-10T08:01:10.000Z</time>
      </trkpt>
      <trkpt lat="47.82813" lon="7.09633">
        <ele>619.59997558594</ele>
        <time>2019-11-10T08:01:11.000Z</time>
      </trkpt>
      <trkpt lat="47.82814" lon="7.09636">
        <ele>620</ele>
        <time>2019-11-10T08:01:12.000Z</time>
      </trkpt>
      <trkpt lat="47.82815" lon="7.09638">
        <ele>620</ele>
        <time>2019-11-10T08:01:13.000Z</time>
      </trkpt>
      <trkpt lat="47.82817" lon="7.0964">
        <ele>620</ele>
        <time>2019-11-10T08:01:15.000Z</time>
      </trkpt>
      <trkpt lat="47.82823" lon="7.09645">
        <ele>620</ele>
        <time>2019-11-10T08:01:21.000Z</time>
      </trkpt>
      <trkpt lat="47.82828" lon="7.0966">
        <ele>620</ele>
        <time>2019-11-10T08:01:27.000Z</time>
      </trkpt>
      <trkpt lat="47.82834" lon="7.09672">
        <ele>620.40002441406</ele>
        <time>2019-11-10T08:01:32.000Z</time>
      </trkpt>
      <trkpt lat="47.82836" lon="7.09675">
        <ele>620.79998779297</ele>
        <time>2019-11-10T08:01:33.000Z</time>
      </trkpt>
      <trkpt lat="47.82838" lon="7.09677">
        <ele>621.20001220703</ele>
        <time>2019-11-10T08:01:34.000Z</time>
      </trkpt>
      <trkpt lat="47.82839" lon="7.0968">
        <ele>621.79998779297</ele>
        <time>2019-11-10T08:01:35.000Z</time>
      </trkpt>
      <trkpt lat="47.82841" lon="7.09682">
        <ele>622.20001220703</ele>
        <time>2019-11-10T08:01:36.000Z</time>
      </trkpt>
      <trkpt lat="47.82843" lon="7.09686">
        <ele>622.59997558594</ele>
        <time>2019-11-10T08:01:38.000Z</time>
      </trkpt>
      <trkpt lat="47.82845" lon="7.09687">
        <ele>623</ele>
        <time>2019-11-10T08:01:39.000Z</time>
      </trkpt>
      <trkpt lat="47.82847" lon="7.09689">
        <ele>623.40002441406</ele>
        <time>2019-11-10T08:01:40.000Z</time>
      </trkpt>
      <trkpt lat="47.82849" lon="7.09691">
        <ele>624</ele>
        <time>2019-11-10T08:01:41.000Z</time>
      </trkpt>
      <trkpt lat="47.82851" lon="7.09694">
        <ele>624.40002441406</ele>
        <time>2019-11-10T08:01:42.000Z</time>
      </trkpt>
      <trkpt lat="47.82855" lon="7.09697">
        <ele>624.79998779297</ele>
        <time>2019-11-10T08:01:44.000Z</time>
      </trkpt>
      <trkpt lat="47.82855" lon="7.09699">
        <ele>625.40002441406</ele>
        <time>2019-11-10T08:01:45.000Z</time>
      </trkpt>
      <trkpt lat="47.82856" lon="7.097">
        <ele>625.79998779297</ele>
        <time>2019-11-10T08:01:46.000Z</time>
      </trkpt>
      <trkpt lat="47.82856" lon="7.09702">
        <ele>626.40002441406</ele>
        <time>2019-11-10T08:01:47.000Z</time>
      </trkpt>
      <trkpt lat="47.82858" lon="7.09704">
        <ele>626.79998779297</ele>
        <time>2019-11-10T08:01:48.000Z</time>
      </trkpt>
      <trkpt lat="47.8286" lon="7.09707">
        <ele>627.59997558594</ele>
        <time>2019-11-10T08:01:49.000Z</time>
      </trkpt>
      <trkpt lat="47.82861" lon="7.09709">
        <ele>628.20001220703</ele>
        <time>2019-11-10T08:01:50.000Z</time>
      </trkpt>
      <trkpt lat="47.82864" lon="7.09712">
        <ele>628.59997558594</ele>
        <time>2019-11-10T08:01:51.000Z</time>
      </trkpt>
      <trkpt lat="47.82865" lon="7.09714">
        <ele>629</ele>
        <time>2019-11-10T08:01:52.000Z</time>
      </trkpt>
      <trkpt lat="47.82868" lon="7.09723">
        <ele>629</ele>
        <time>2019-11-10T08:01:55.000Z</time>
      </trkpt>
      <trkpt lat="47.82869" lon="7.09729">
        <ele>629.40002441406</ele>
        <time>2019-11-10T08:01:57.000Z</time>
      </trkpt>
      <trkpt lat="47.82869" lon="7.09732">
        <ele>629.79998779297</ele>
        <time>2019-11-10T08:01:58.000Z</time>
      </trkpt>
      <trkpt lat="47.82869" lon="7.09736">
        <ele>630.20001220703</ele>
        <time>2019-11-10T08:01:59.000Z</time>
      </trkpt>
      <trkpt lat="47.8287" lon="7.0974">
        <ele>630.59997558594</ele>
        <time>2019-11-10T08:02:00.000Z</time>
      </trkpt>
      <trkpt lat="47.82871" lon="7.09742">
        <ele>631</ele>
        <time>2019-11-10T08:02:01.000Z</time>
      </trkpt>
      <trkpt lat="47.82872" lon="7.09762">
        <ele>631</ele>
        <time>2019-11-10T08:02:06.000Z</time>
      </trkpt>
      <trkpt lat="47.82874" lon="7.09785">
        <ele>631</ele>
        <time>2019-11-10T08:02:12.000Z</time>
      </trkpt>
      <trkpt lat="47.82875" lon="7.09805">
        <ele>631</ele>
        <time>2019-11-10T08:02:18.000Z</time>
      </trkpt>
      <trkpt lat="47.82877" lon="7.09813">
        <ele>631.40002441406</ele>
        <time>2019-11-10T08:02:22.000Z</time>
      </trkpt>
      <trkpt lat="47.82877" lon="7.09813">
        <ele>631.79998779297</ele>
        <time>2019-11-10T08:02:23.000Z</time>
      </trkpt>
      <trkpt lat="47.82878" lon="7.09814">
        <ele>632.20001220703</ele>
        <time>2019-11-10T08:02:24.000Z</time>
      </trkpt>
      <trkpt lat="47.82878" lon="7.09814">
        <ele>632.59997558594</ele>
        <time>2019-11-10T08:02:25.000Z</time>
      </trkpt>
      <trkpt lat="47.8288" lon="7.09823">
        <ele>633</ele>
        <time>2019-11-10T08:02:31.000Z</time>
      </trkpt>
      <trkpt lat="47.8288" lon="7.09828">
        <ele>633</ele>
        <time>2019-11-10T08:02:32.000Z</time>
      </trkpt>
      <trkpt lat="47.8288" lon="7.0985">
        <ele>633</ele>
        <time>2019-11-10T08:02:38.000Z</time>
      </trkpt>
      <trkpt lat="47.82882" lon="7.09877">
        <ele>633.59997558594</ele>
        <time>2019-11-10T08:02:44.000Z</time>
      </trkpt>
      <trkpt lat="47.82882" lon="7.09881">
        <ele>634</ele>
        <time>2019-11-10T08:02:45.000Z</time>
      </trkpt>
      <trkpt lat="47.82882" lon="7.09885">
        <ele>634.40002441406</ele>
        <time>2019-11-10T08:02:46.000Z</time>
      </trkpt>
      <trkpt lat="47.82883" lon="7.09888">
        <ele>634.79998779297</ele>
        <time>2019-11-10T08:02:47.000Z</time>
      </trkpt>
      <trkpt lat="47.82883" lon="7.0989">
        <ele>635.20001220703</ele>
        <time>2019-11-10T08:02:48.000Z</time>
      </trkpt>
      <trkpt lat="47.82885" lon="7.09903">
        <ele>635.20001220703</ele>
        <time>2019-11-10T08:02:51.000Z</time>
      </trkpt>
      <trkpt lat="47.82886" lon="7.09918">
        <ele>635.59997558594</ele>
        <time>2019-11-10T08:02:55.000Z</time>
      </trkpt>
      <trkpt lat="47.82886" lon="7.09921">
        <ele>636</ele>
        <time>2019-11-10T08:02:56.000Z</time>
      </trkpt>
      <trkpt lat="47.82886" lon="7.09925">
        <ele>636.40002441406</ele>
        <time>2019-11-10T08:02:57.000Z</time>
      </trkpt>
      <trkpt lat="47.82886" lon="7.09927">
        <ele>636.79998779297</ele>
        <time>2019-11-10T08:02:58.000Z</time>
      </trkpt>
      <trkpt lat="47.82886" lon="7.09931">
        <ele>637.20001220703</ele>
        <time>2019-11-10T08:02:59.000Z</time>
      </trkpt>
      <trkpt lat="47.82886" lon="7.09944">
        <ele>637.20001220703</ele>
        <time>2019-11-10T08:03:03.000Z</time>
      </trkpt>
      <trkpt lat="47.82893" lon="7.09966">
        <ele>637.20001220703</ele>
        <time>2019-11-10T08:03:09.000Z</time>
      </trkpt>
      <trkpt lat="47.82893" lon="7.09977">
        <ele>637.59997558594</ele>
        <time>2019-11-10T08:03:11.000Z</time>
      </trkpt>
      <trkpt lat="47.82894" lon="7.09981">
        <ele>638</ele>
        <time>2019-11-10T08:03:12.000Z</time>
      </trkpt>
      <trkpt lat="47.82896" lon="7.09986">
        <ele>638.59997558594</ele>
        <time>2019-11-10T08:03:13.000Z</time>
      </trkpt>
      <trkpt lat="47.82896" lon="7.0999">
        <ele>639</ele>
        <time>2019-11-10T08:03:14.000Z</time>
      </trkpt>
      <trkpt lat="47.82897" lon="7.09993">
        <ele>639.40002441406</ele>
        <time>2019-11-10T08:03:15.000Z</time>
      </trkpt>
      <trkpt lat="47.829" lon="7.10002">
        <ele>639.79998779297</ele>
        <time>2019-11-10T08:03:17.000Z</time>
      </trkpt>
      <trkpt lat="47.82901" lon="7.10005">
        <ele>640.20001220703</ele>
        <time>2019-11-10T08:03:18.000Z</time>
      </trkpt>
      <trkpt lat="47.82902" lon="7.10009">
        <ele>640.59997558594</ele>
        <time>2019-11-10T08:03:19.000Z</time>
      </trkpt>
      <trkpt lat="47.82904" lon="7.10013">
        <ele>641</ele>
        <time>2019-11-10T08:03:20.000Z</time>
      </trkpt>
      <trkpt lat="47.82905" lon="7.10017">
        <ele>641.40002441406</ele>
        <time>2019-11-10T08:03:21.000Z</time>
      </trkpt>
      <trkpt lat="47.82907" lon="7.10021">
        <ele>641.40002441406</ele>
        <time>2019-11-10T08:03:22.000Z</time>
      </trkpt>
      <trkpt lat="47.82911" lon="7.10037">
        <ele>641.79998779297</ele>
        <time>2019-11-10T08:03:26.000Z</time>
      </trkpt>
      <trkpt lat="47.82912" lon="7.1004">
        <ele>642.20001220703</ele>
        <time>2019-11-10T08:03:27.000Z</time>
      </trkpt>
      <trkpt lat="47.82913" lon="7.10044">
        <ele>643</ele>
        <time>2019-11-10T08:03:28.000Z</time>
      </trkpt>
      <trkpt lat="47.82915" lon="7.10046">
        <ele>643.40002441406</ele>
        <time>2019-11-10T08:03:29.000Z</time>
      </trkpt>
      <trkpt lat="47.82918" lon="7.10058">
        <ele>644</ele>
        <time>2019-11-10T08:03:33.000Z</time>
      </trkpt>
      <trkpt lat="47.8292" lon="7.10061">
        <ele>644.40002441406</ele>
        <time>2019-11-10T08:03:34.000Z</time>
      </trkpt>
      <trkpt lat="47.82921" lon="7.10064">
        <ele>644.79998779297</ele>
        <time>2019-11-10T08:03:35.000Z</time>
      </trkpt>
      <trkpt lat="47.82922" lon="7.10067">
        <ele>645.40002441406</ele>
        <time>2019-11-10T08:03:36.000Z</time>
      </trkpt>
      <trkpt lat="47.82924" lon="7.1007">
        <ele>645.79998779297</ele>
        <time>2019-11-10T08:03:37.000Z</time>
      </trkpt>
      <trkpt lat="47.82927" lon="7.1008">
        <ele>645.79998779297</ele>
        <time>2019-11-10T08:03:40.000Z</time>
      </trkpt>
      <trkpt lat="47.82931" lon="7.10095">
        <ele>646.20001220703</ele>
        <time>2019-11-10T08:03:44.000Z</time>
      </trkpt>
      <trkpt lat="47.82932" lon="7.10098">
        <ele>646.59997558594</ele>
        <time>2019-11-10T08:03:45.000Z</time>
      </trkpt>
      <trkpt lat="47.82932" lon="7.101">
        <ele>647</ele>
        <time>2019-11-10T08:03:46.000Z</time>
      </trkpt>
      <trkpt lat="47.82934" lon="7.10104">
        <ele>647.40002441406</ele>
        <time>2019-11-10T08:03:47.000Z</time>
      </trkpt>
      <trkpt lat="47.82935" lon="7.10108">
        <ele>647.79998779297</ele>
        <time>2019-11-10T08:03:48.000Z</time>
      </trkpt>
      <trkpt lat="47.82937" lon="7.10122">
        <ele>648.20001220703</ele>
        <time>2019-11-10T08:03:52.000Z</time>
      </trkpt>
      <trkpt lat="47.82937" lon="7.10125">
        <ele>649.20001220703</ele>
        <time>2019-11-10T08:03:53.000Z</time>
      </trkpt>
      <trkpt lat="47.82938" lon="7.10127">
        <ele>649.59997558594</ele>
        <time>2019-11-10T08:03:54.000Z</time>
      </trkpt>
      <trkpt lat="47.82939" lon="7.1013">
        <ele>650</ele>
        <time>2019-11-10T08:03:55.000Z</time>
      </trkpt>
      <trkpt lat="47.8294" lon="7.10135">
        <ele>650</ele>
        <time>2019-11-10T08:03:57.000Z</time>
      </trkpt>
      <trkpt lat="47.8294" lon="7.1014">
        <ele>650</ele>
        <time>2019-11-10T08:04:01.000Z</time>
      </trkpt>
      <trkpt lat="47.82944" lon="7.10139">
        <ele>651.40002441406</ele>
        <time>2019-11-10T08:04:33.000Z</time>
      </trkpt>
      <trkpt lat="47.82946" lon="7.10138">
        <ele>651.79998779297</ele>
        <time>2019-11-10T08:04:34.000Z</time>
      </trkpt>
      <trkpt lat="47.82948" lon="7.10138">
        <ele>652.20001220703</ele>
        <time>2019-11-10T08:04:35.000Z</time>
      </trkpt>
      <trkpt lat="47.82953" lon="7.10137">
        <ele>652.59997558594</ele>
        <time>2019-11-10T08:04:38.000Z</time>
      </trkpt>
      <trkpt lat="47.82955" lon="7.10137">
        <ele>653</ele>
        <time>2019-11-10T08:04:39.000Z</time>
      </trkpt>
      <trkpt lat="47.82956" lon="7.10137">
        <ele>653.40002441406</ele>
        <time>2019-11-10T08:04:40.000Z</time>
      </trkpt>
      <trkpt lat="47.82957" lon="7.10136">
        <ele>653.79998779297</ele>
        <time>2019-11-10T08:04:41.000Z</time>
      </trkpt>
      <trkpt lat="47.82958" lon="7.10135">
        <ele>654.79998779297</ele>
        <time>2019-11-10T08:04:42.000Z</time>
      </trkpt>
      <trkpt lat="47.82961" lon="7.10133">
        <ele>655.20001220703</ele>
        <time>2019-11-10T08:04:43.000Z</time>
      </trkpt>
      <trkpt lat="47.82963" lon="7.10133">
        <ele>655.59997558594</ele>
        <time>2019-11-10T08:04:44.000Z</time>
      </trkpt>
      <trkpt lat="47.82966" lon="7.10131">
        <ele>656</ele>
        <time>2019-11-10T08:04:45.000Z</time>
      </trkpt>
      <trkpt lat="47.82966" lon="7.1013">
        <ele>656.40002441406</ele>
        <time>2019-11-10T08:04:46.000Z</time>
      </trkpt>
      <trkpt lat="47.82974" lon="7.10126">
        <ele>656.40002441406</ele>
        <time>2019-11-10T08:04:50.000Z</time>
      </trkpt>
      <trkpt lat="47.82976" lon="7.10125">
        <ele>657</ele>
        <time>2019-11-10T08:04:51.000Z</time>
      </trkpt>
      <trkpt lat="47.82977" lon="7.10123">
        <ele>657.40002441406</ele>
        <time>2019-11-10T08:04:52.000Z</time>
      </trkpt>
      <trkpt lat="47.82979" lon="7.10122">
        <ele>657.79998779297</ele>
        <time>2019-11-10T08:04:53.000Z</time>
      </trkpt>
      <trkpt lat="47.82981" lon="7.10121">
        <ele>658.40002441406</ele>
        <time>2019-11-10T08:04:54.000Z</time>
      </trkpt>
      <trkpt lat="47.82984" lon="7.10121">
        <ele>658.79998779297</ele>
        <time>2019-11-10T08:04:55.000Z</time>
      </trkpt>
      <trkpt lat="47.82985" lon="7.1012">
        <ele>658.79998779297</ele>
        <time>2019-11-10T08:04:56.000Z</time>
      </trkpt>
      <trkpt lat="47.82987" lon="7.10118">
        <ele>659.20001220703</ele>
        <time>2019-11-10T08:04:57.000Z</time>
      </trkpt>
      <trkpt lat="47.8299" lon="7.10117">
        <ele>659.59997558594</ele>
        <time>2019-11-10T08:04:58.000Z</time>
      </trkpt>
      <trkpt lat="47.82992" lon="7.10116">
        <ele>660</ele>
        <time>2019-11-10T08:04:59.000Z</time>
      </trkpt>
      <trkpt lat="47.82994" lon="7.10114">
        <ele>660.40002441406</ele>
        <time>2019-11-10T08:05:00.000Z</time>
      </trkpt>
      <trkpt lat="47.82996" lon="7.10113">
        <ele>660.79998779297</ele>
        <time>2019-11-10T08:05:01.000Z</time>
      </trkpt>
      <trkpt lat="47.83" lon="7.10113">
        <ele>661.40002441406</ele>
        <time>2019-11-10T08:05:03.000Z</time>
      </trkpt>
      <trkpt lat="47.83001" lon="7.10112">
        <ele>661.79998779297</ele>
        <time>2019-11-10T08:05:04.000Z</time>
      </trkpt>
      <trkpt lat="47.83003" lon="7.10111">
        <ele>662.20001220703</ele>
        <time>2019-11-10T08:05:05.000Z</time>
      </trkpt>
      <trkpt lat="47.83005" lon="7.1011">
        <ele>662.59997558594</ele>
        <time>2019-11-10T08:05:06.000Z</time>
      </trkpt>
      <trkpt lat="47.83007" lon="7.1011">
        <ele>663.20001220703</ele>
        <time>2019-11-10T08:05:07.000Z</time>
      </trkpt>
      <trkpt lat="47.83008" lon="7.1011">
        <ele>663.59997558594</ele>
        <time>2019-11-10T08:05:08.000Z</time>
      </trkpt>
      <trkpt lat="47.8301" lon="7.10109">
        <ele>664</ele>
        <time>2019-11-10T08:05:09.000Z</time>
      </trkpt>
      <trkpt lat="47.83012" lon="7.10109">
        <ele>664.40002441406</ele>
        <time>2019-11-10T08:05:10.000Z</time>
      </trkpt>
      <trkpt lat="47.83014" lon="7.10108">
        <ele>664.79998779297</ele>
        <time>2019-11-10T08:05:11.000Z</time>
      </trkpt>
      <trkpt lat="47.83016" lon="7.10107">
        <ele>665.40002441406</ele>
        <time>2019-11-10T08:05:12.000Z</time>
      </trkpt>
      <trkpt lat="47.83023" lon="7.10105">
        <ele>665.79998779297</ele>
        <time>2019-11-10T08:05:16.000Z</time>
      </trkpt>
      <trkpt lat="47.83026" lon="7.10103">
        <ele>666.20001220703</ele>
        <time>2019-11-10T08:05:17.000Z</time>
      </trkpt>
      <trkpt lat="47.83028" lon="7.10102">
        <ele>666.59997558594</ele>
        <time>2019-11-10T08:05:18.000Z</time>
      </trkpt>
      <trkpt lat="47.8303" lon="7.10102">
        <ele>667.20001220703</ele>
        <time>2019-11-10T08:05:19.000Z</time>
      </trkpt>
      <trkpt lat="47.83032" lon="7.10102">
        <ele>667.59997558594</ele>
        <time>2019-11-10T08:05:20.000Z</time>
      </trkpt>
      <trkpt lat="47.83037" lon="7.10099">
        <ele>667.59997558594</ele>
        <time>2019-11-10T08:05:23.000Z</time>
      </trkpt>
      <trkpt lat="47.83042" lon="7.10097">
        <ele>668</ele>
        <time>2019-11-10T08:05:25.000Z</time>
      </trkpt>
      <trkpt lat="47.83043" lon="7.10096">
        <ele>668.59997558594</ele>
        <time>2019-11-10T08:05:26.000Z</time>
      </trkpt>
      <trkpt lat="47.83045" lon="7.10095">
        <ele>669</ele>
        <time>2019-11-10T08:05:27.000Z</time>
      </trkpt>
      <trkpt lat="47.83047" lon="7.10094">
        <ele>669.40002441406</ele>
        <time>2019-11-10T08:05:28.000Z</time>
      </trkpt>
      <trkpt lat="47.83048" lon="7.10092">
        <ele>669.79998779297</ele>
        <time>2019-11-10T08:05:29.000Z</time>
      </trkpt>
      <trkpt lat="47.83053" lon="7.10086">
        <ele>669.79998779297</ele>
        <time>2019-11-10T08:05:34.000Z</time>
      </trkpt>
      <trkpt lat="47.83055" lon="7.10084">
        <ele>669.79998779297</ele>
        <time>2019-11-10T08:05:35.000Z</time>
      </trkpt>
      <trkpt lat="47.83057" lon="7.10082">
        <ele>670.40002441406</ele>
        <time>2019-11-10T08:05:36.000Z</time>
      </trkpt>
      <trkpt lat="47.83058" lon="7.1008">
        <ele>670.79998779297</ele>
        <time>2019-11-10T08:05:37.000Z</time>
      </trkpt>
      <trkpt lat="47.83059" lon="7.10078">
        <ele>671.20001220703</ele>
        <time>2019-11-10T08:05:38.000Z</time>
      </trkpt>
      <trkpt lat="47.8306" lon="7.10077">
        <ele>671.59997558594</ele>
        <time>2019-11-10T08:05:39.000Z</time>
      </trkpt>
      <trkpt lat="47.8306" lon="7.10077">
        <ele>672</ele>
        <time>2019-11-10T08:05:40.000Z</time>
      </trkpt>
      <trkpt lat="47.83064" lon="7.10074">
        <ele>672</ele>
        <time>2019-11-10T08:05:42.000Z</time>
      </trkpt>
      <trkpt lat="47.83069" lon="7.10067">
        <ele>672</ele>
        <time>2019-11-10T08:05:45.000Z</time>
      </trkpt>
      <trkpt lat="47.83074" lon="7.10066">
        <ele>672.40002441406</ele>
        <time>2019-11-10T08:05:47.000Z</time>
      </trkpt>
      <trkpt lat="47.83078" lon="7.10064">
        <ele>672.79998779297</ele>
        <time>2019-11-10T08:05:48.000Z</time>
      </trkpt>
      <trkpt lat="47.8308" lon="7.10063">
        <ele>673.20001220703</ele>
        <time>2019-11-10T08:05:49.000Z</time>
      </trkpt>
      <trkpt lat="47.83082" lon="7.10061">
        <ele>673.59997558594</ele>
        <time>2019-11-10T08:05:50.000Z</time>
      </trkpt>
      <trkpt lat="47.83085" lon="7.10058">
        <ele>674</ele>
        <time>2019-11-10T08:05:51.000Z</time>
      </trkpt>
      <trkpt lat="47.83092" lon="7.10052">
        <ele>674</ele>
        <time>2019-11-10T08:05:54.000Z</time>
      </trkpt>
      <trkpt lat="47.83095" lon="7.1005">
        <ele>674.59997558594</ele>
        <time>2019-11-10T08:05:55.000Z</time>
      </trkpt>
      <trkpt lat="47.83097" lon="7.10048">
        <ele>675</ele>
        <time>2019-11-10T08:05:56.000Z</time>
      </trkpt>
      <trkpt lat="47.83098" lon="7.10045">
        <ele>675.40002441406</ele>
        <time>2019-11-10T08:05:57.000Z</time>
      </trkpt>
      <trkpt lat="47.83101" lon="7.10044">
        <ele>675.79998779297</ele>
        <time>2019-11-10T08:05:58.000Z</time>
      </trkpt>
      <trkpt lat="47.83102" lon="7.10042">
        <ele>676.20001220703</ele>
        <time>2019-11-10T08:05:59.000Z</time>
      </trkpt>
      <trkpt lat="47.83109" lon="7.10034">
        <ele>676.59997558594</ele>
        <time>2019-11-10T08:06:03.000Z</time>
      </trkpt>
      <trkpt lat="47.83111" lon="7.10034">
        <ele>677</ele>
        <time>2019-11-10T08:06:04.000Z</time>
      </trkpt>
      <trkpt lat="47.83113" lon="7.10035">
        <ele>677.59997558594</ele>
        <time>2019-11-10T08:06:05.000Z</time>
      </trkpt>
      <trkpt lat="47.83117" lon="7.10035">
        <ele>678</ele>
        <time>2019-11-10T08:06:06.000Z</time>
      </trkpt>
      <trkpt lat="47.83121" lon="7.10036">
        <ele>678.40002441406</ele>
        <time>2019-11-10T08:06:07.000Z</time>
      </trkpt>
      <trkpt lat="47.83126" lon="7.10035">
        <ele>678.40002441406</ele>
        <time>2019-11-10T08:06:09.000Z</time>
      </trkpt>
      <trkpt lat="47.83142" lon="7.10037">
        <ele>678.40002441406</ele>
        <time>2019-11-10T08:06:14.000Z</time>
      </trkpt>
      <trkpt lat="47.8315" lon="7.10042">
        <ele>678.40002441406</ele>
        <time>2019-11-10T08:06:18.000Z</time>
      </trkpt>
      <trkpt lat="47.83151" lon="7.10044">
        <ele>678.40002441406</ele>
        <time>2019-11-10T08:06:19.000Z</time>
      </trkpt>
      <trkpt lat="47.83156" lon="7.10054">
        <ele>678.40002441406</ele>
        <time>2019-11-10T08:06:23.000Z</time>
      </trkpt>
      <trkpt lat="47.83157" lon="7.10057">
        <ele>678.79998779297</ele>
        <time>2019-11-10T08:06:24.000Z</time>
      </trkpt>
      <trkpt lat="47.83159" lon="7.1006">
        <ele>679.20001220703</ele>
        <time>2019-11-10T08:06:25.000Z</time>
      </trkpt>
      <trkpt lat="47.8316" lon="7.10062">
        <ele>679.59997558594</ele>
        <time>2019-11-10T08:06:26.000Z</time>
      </trkpt>
      <trkpt lat="47.83161" lon="7.10065">
        <ele>680.20001220703</ele>
        <time>2019-11-10T08:06:27.000Z</time>
      </trkpt>
      <trkpt lat="47.83163" lon="7.10068">
        <ele>680.59997558594</ele>
        <time>2019-11-10T08:06:28.000Z</time>
      </trkpt>
      <trkpt lat="47.83165" lon="7.10071">
        <ele>681</ele>
        <time>2019-11-10T08:06:29.000Z</time>
      </trkpt>
      <trkpt lat="47.83168" lon="7.10073">
        <ele>681.40002441406</ele>
        <time>2019-11-10T08:06:30.000Z</time>
      </trkpt>
      <trkpt lat="47.8317" lon="7.10076">
        <ele>681.79998779297</ele>
        <time>2019-11-10T08:06:31.000Z</time>
      </trkpt>
      <trkpt lat="47.83173" lon="7.1008">
        <ele>682.40002441406</ele>
        <time>2019-11-10T08:06:32.000Z</time>
      </trkpt>
      <trkpt lat="47.83176" lon="7.10084">
        <ele>682.79998779297</ele>
        <time>2019-11-10T08:06:33.000Z</time>
      </trkpt>
      <trkpt lat="47.83179" lon="7.10091">
        <ele>682.79998779297</ele>
        <time>2019-11-10T08:06:35.000Z</time>
      </trkpt>
      <trkpt lat="47.83182" lon="7.10092">
        <ele>682.79998779297</ele>
        <time>2019-11-10T08:06:37.000Z</time>
      </trkpt>
      <trkpt lat="47.83183" lon="7.10094">
        <ele>683.20001220703</ele>
        <time>2019-11-10T08:06:38.000Z</time>
      </trkpt>
      <trkpt lat="47.83185" lon="7.10097">
        <ele>683.59997558594</ele>
        <time>2019-11-10T08:06:39.000Z</time>
      </trkpt>
      <trkpt lat="47.83186" lon="7.10099">
        <ele>684.20001220703</ele>
        <time>2019-11-10T08:06:40.000Z</time>
      </trkpt>
      <trkpt lat="47.83188" lon="7.10101">
        <ele>684.59997558594</ele>
        <time>2019-11-10T08:06:41.000Z</time>
      </trkpt>
      <trkpt lat="47.83189" lon="7.10102">
        <ele>685</ele>
        <time>2019-11-10T08:06:42.000Z</time>
      </trkpt>
      <trkpt lat="47.83193" lon="7.10107">
        <ele>685.40002441406</ele>
        <time>2019-11-10T08:06:45.000Z</time>
      </trkpt>
      <trkpt lat="47.83194" lon="7.10109">
        <ele>685.79998779297</ele>
        <time>2019-11-10T08:06:46.000Z</time>
      </trkpt>
      <trkpt lat="47.83195" lon="7.10111">
        <ele>686.20001220703</ele>
        <time>2019-11-10T08:06:47.000Z</time>
      </trkpt>
      <trkpt lat="47.83198" lon="7.10115">
        <ele>686.79998779297</ele>
        <time>2019-11-10T08:06:48.000Z</time>
      </trkpt>
      <trkpt lat="47.83199" lon="7.10118">
        <ele>687.20001220703</ele>
        <time>2019-11-10T08:06:49.000Z</time>
      </trkpt>
      <trkpt lat="47.83201" lon="7.10121">
        <ele>687.59997558594</ele>
        <time>2019-11-10T08:06:51.000Z</time>
      </trkpt>
      <trkpt lat="47.83203" lon="7.10124">
        <ele>688</ele>
        <time>2019-11-10T08:06:52.000Z</time>
      </trkpt>
      <trkpt lat="47.83204" lon="7.10128">
        <ele>688.40002441406</ele>
        <time>2019-11-10T08:06:53.000Z</time>
      </trkpt>
      <trkpt lat="47.83206" lon="7.10129">
        <ele>688.79998779297</ele>
        <time>2019-11-10T08:06:54.000Z</time>
      </trkpt>
      <trkpt lat="47.83208" lon="7.1013">
        <ele>689.20001220703</ele>
        <time>2019-11-10T08:06:55.000Z</time>
      </trkpt>
      <trkpt lat="47.83209" lon="7.10134">
        <ele>689.20001220703</ele>
        <time>2019-11-10T08:06:56.000Z</time>
      </trkpt>
      <trkpt lat="47.83211" lon="7.10136">
        <ele>689.59997558594</ele>
        <time>2019-11-10T08:06:57.000Z</time>
      </trkpt>
      <trkpt lat="47.83213" lon="7.10137">
        <ele>690</ele>
        <time>2019-11-10T08:06:58.000Z</time>
      </trkpt>
      <trkpt lat="47.83215" lon="7.1014">
        <ele>690.40002441406</ele>
        <time>2019-11-10T08:06:59.000Z</time>
      </trkpt>
      <trkpt lat="47.83216" lon="7.10142">
        <ele>690.79998779297</ele>
        <time>2019-11-10T08:07:00.000Z</time>
      </trkpt>
      <trkpt lat="47.83218" lon="7.10144">
        <ele>691.20001220703</ele>
        <time>2019-11-10T08:07:01.000Z</time>
      </trkpt>
      <trkpt lat="47.83221" lon="7.10148">
        <ele>691.59997558594</ele>
        <time>2019-11-10T08:07:03.000Z</time>
      </trkpt>
      <trkpt lat="47.83223" lon="7.10149">
        <ele>692.20001220703</ele>
        <time>2019-11-10T08:07:04.000Z</time>
      </trkpt>
      <trkpt lat="47.83225" lon="7.1015">
        <ele>692.59997558594</ele>
        <time>2019-11-10T08:07:05.000Z</time>
      </trkpt>
      <trkpt lat="47.83226" lon="7.10151">
        <ele>693</ele>
        <time>2019-11-10T08:07:06.000Z</time>
      </trkpt>
      <trkpt lat="47.83228" lon="7.10151">
        <ele>693.59997558594</ele>
        <time>2019-11-10T08:07:07.000Z</time>
      </trkpt>
      <trkpt lat="47.83232" lon="7.10152">
        <ele>694.40002441406</ele>
        <time>2019-11-10T08:07:09.000Z</time>
      </trkpt>
      <trkpt lat="47.83233" lon="7.10151">
        <ele>695</ele>
        <time>2019-11-10T08:07:10.000Z</time>
      </trkpt>
      <trkpt lat="47.83234" lon="7.1015">
        <ele>695.40002441406</ele>
        <time>2019-11-10T08:07:11.000Z</time>
      </trkpt>
      <trkpt lat="47.83236" lon="7.10149">
        <ele>695.79998779297</ele>
        <time>2019-11-10T08:07:12.000Z</time>
      </trkpt>
      <trkpt lat="47.83238" lon="7.10149">
        <ele>695.79998779297</ele>
        <time>2019-11-10T08:07:13.000Z</time>
      </trkpt>
      <trkpt lat="47.83245" lon="7.10149">
        <ele>695.79998779297</ele>
        <time>2019-11-10T08:07:16.000Z</time>
      </trkpt>
      <trkpt lat="47.83251" lon="7.10149">
        <ele>695.79998779297</ele>
        <time>2019-11-10T08:07:19.000Z</time>
      </trkpt>
      <trkpt lat="47.83266" lon="7.10154">
        <ele>696.20001220703</ele>
        <time>2019-11-10T08:07:25.000Z</time>
      </trkpt>
      <trkpt lat="47.83269" lon="7.10154">
        <ele>696.79998779297</ele>
        <time>2019-11-10T08:07:26.000Z</time>
      </trkpt>
      <trkpt lat="47.83271" lon="7.10156">
        <ele>697.20001220703</ele>
        <time>2019-11-10T08:07:27.000Z</time>
      </trkpt>
      <trkpt lat="47.83273" lon="7.10156">
        <ele>697.59997558594</ele>
        <time>2019-11-10T08:07:28.000Z</time>
      </trkpt>
      <trkpt lat="47.83275" lon="7.10157">
        <ele>698</ele>
        <time>2019-11-10T08:07:29.000Z</time>
      </trkpt>
      <trkpt lat="47.83277" lon="7.10158">
        <ele>698</ele>
        <time>2019-11-10T08:07:30.000Z</time>
      </trkpt>
      <trkpt lat="47.83279" lon="7.10159">
        <ele>698.40002441406</ele>
        <time>2019-11-10T08:07:31.000Z</time>
      </trkpt>
      <trkpt lat="47.8328" lon="7.10159">
        <ele>698.79998779297</ele>
        <time>2019-11-10T08:07:32.000Z</time>
      </trkpt>
      <trkpt lat="47.83283" lon="7.10159">
        <ele>699.20001220703</ele>
        <time>2019-11-10T08:07:33.000Z</time>
      </trkpt>
      <trkpt lat="47.83284" lon="7.1016">
        <ele>699.59997558594</ele>
        <time>2019-11-10T08:07:34.000Z</time>
      </trkpt>
      <trkpt lat="47.83285" lon="7.10161">
        <ele>700</ele>
        <time>2019-11-10T08:07:35.000Z</time>
      </trkpt>
      <trkpt lat="47.83289" lon="7.10161">
        <ele>700.40002441406</ele>
        <time>2019-11-10T08:07:37.000Z</time>
      </trkpt>
      <trkpt lat="47.83291" lon="7.10161">
        <ele>700.79998779297</ele>
        <time>2019-11-10T08:07:38.000Z</time>
      </trkpt>
      <trkpt lat="47.83292" lon="7.10162">
        <ele>701.20001220703</ele>
        <time>2019-11-10T08:07:39.000Z</time>
      </trkpt>
      <trkpt lat="47.83294" lon="7.10162">
        <ele>701.79998779297</ele>
        <time>2019-11-10T08:07:40.000Z</time>
      </trkpt>
      <trkpt lat="47.83297" lon="7.10162">
        <ele>702.20001220703</ele>
        <time>2019-11-10T08:07:41.000Z</time>
      </trkpt>
      <trkpt lat="47.83303" lon="7.10163">
        <ele>702.59997558594</ele>
        <time>2019-11-10T08:07:45.000Z</time>
      </trkpt>
      <trkpt lat="47.83306" lon="7.10162">
        <ele>703</ele>
        <time>2019-11-10T08:07:46.000Z</time>
      </trkpt>
      <trkpt lat="47.83307" lon="7.10163">
        <ele>703.40002441406</ele>
        <time>2019-11-10T08:07:47.000Z</time>
      </trkpt>
      <trkpt lat="47.8331" lon="7.10161">
        <ele>704</ele>
        <time>2019-11-10T08:07:48.000Z</time>
      </trkpt>
      <trkpt lat="47.83311" lon="7.1016">
        <ele>704.40002441406</ele>
        <time>2019-11-10T08:07:49.000Z</time>
      </trkpt>
      <trkpt lat="47.83313" lon="7.10157">
        <ele>704.79998779297</ele>
        <time>2019-11-10T08:07:51.000Z</time>
      </trkpt>
      <trkpt lat="47.83314" lon="7.10156">
        <ele>705.20001220703</ele>
        <time>2019-11-10T08:07:52.000Z</time>
      </trkpt>
      <trkpt lat="47.83316" lon="7.10156">
        <ele>705.79998779297</ele>
        <time>2019-11-10T08:07:53.000Z</time>
      </trkpt>
      <trkpt lat="47.83317" lon="7.10156">
        <ele>706.20001220703</ele>
        <time>2019-11-10T08:07:54.000Z</time>
      </trkpt>
      <trkpt lat="47.83319" lon="7.10156">
        <ele>706.59997558594</ele>
        <time>2019-11-10T08:07:55.000Z</time>
      </trkpt>
      <trkpt lat="47.83321" lon="7.10156">
        <ele>707.20001220703</ele>
        <time>2019-11-10T08:07:56.000Z</time>
      </trkpt>
      <trkpt lat="47.83322" lon="7.10156">
        <ele>707.59997558594</ele>
        <time>2019-11-10T08:07:57.000Z</time>
      </trkpt>
      <trkpt lat="47.83324" lon="7.10155">
        <ele>708</ele>
        <time>2019-11-10T08:07:58.000Z</time>
      </trkpt>
      <trkpt lat="47.83325" lon="7.10154">
        <ele>708.40002441406</ele>
        <time>2019-11-10T08:07:59.000Z</time>
      </trkpt>
      <trkpt lat="47.83327" lon="7.10154">
        <ele>708.79998779297</ele>
        <time>2019-11-10T08:08:00.000Z</time>
      </trkpt>
      <trkpt lat="47.83328" lon="7.10153">
        <ele>708.79998779297</ele>
        <time>2019-11-10T08:08:01.000Z</time>
      </trkpt>
      <trkpt lat="47.83331" lon="7.10151">
        <ele>709.20001220703</ele>
        <time>2019-11-10T08:08:03.000Z</time>
      </trkpt>
      <trkpt lat="47.83332" lon="7.1015">
        <ele>709.59997558594</ele>
        <time>2019-11-10T08:08:04.000Z</time>
      </trkpt>
      <trkpt lat="47.83334" lon="7.10149">
        <ele>710</ele>
        <time>2019-11-10T08:08:05.000Z</time>
      </trkpt>
      <trkpt lat="47.83337" lon="7.10149">
        <ele>710.40002441406</ele>
        <time>2019-11-10T08:08:06.000Z</time>
      </trkpt>
      <trkpt lat="47.83339" lon="7.10147">
        <ele>710.79998779297</ele>
        <time>2019-11-10T08:08:07.000Z</time>
      </trkpt>
      <trkpt lat="47.83347" lon="7.10141">
        <ele>711.40002441406</ele>
        <time>2019-11-10T08:08:11.000Z</time>
      </trkpt>
      <trkpt lat="47.83349" lon="7.1014">
        <ele>711.79998779297</ele>
        <time>2019-11-10T08:08:12.000Z</time>
      </trkpt>
      <trkpt lat="47.83351" lon="7.10138">
        <ele>712.20001220703</ele>
        <time>2019-11-10T08:08:13.000Z</time>
      </trkpt>
      <trkpt lat="47.83353" lon="7.10137">
        <ele>712.79998779297</ele>
        <time>2019-11-10T08:08:14.000Z</time>
      </trkpt>
      <trkpt lat="47.83355" lon="7.10135">
        <ele>713.20001220703</ele>
        <time>2019-11-10T08:08:15.000Z</time>
      </trkpt>
      <trkpt lat="47.83357" lon="7.10134">
        <ele>713.20001220703</ele>
        <time>2019-11-10T08:08:16.000Z</time>
      </trkpt>
      <trkpt lat="47.8336" lon="7.1013">
        <ele>713.59997558594</ele>
        <time>2019-11-10T08:08:17.000Z</time>
      </trkpt>
      <trkpt lat="47.83363" lon="7.10126">
        <ele>714</ele>
        <time>2019-11-10T08:08:18.000Z</time>
      </trkpt>
      <trkpt lat="47.83365" lon="7.10125">
        <ele>714.59997558594</ele>
        <time>2019-11-10T08:08:19.000Z</time>
      </trkpt>
      <trkpt lat="47.83368" lon="7.10123">
        <ele>715</ele>
        <time>2019-11-10T08:08:20.000Z</time>
      </trkpt>
      <trkpt lat="47.8337" lon="7.10121">
        <ele>715.40002441406</ele>
        <time>2019-11-10T08:08:21.000Z</time>
      </trkpt>
      <trkpt lat="47.83372" lon="7.1012">
        <ele>715.79998779297</ele>
        <time>2019-11-10T08:08:22.000Z</time>
      </trkpt>
      <trkpt lat="47.83374" lon="7.10118">
        <ele>716.20001220703</ele>
        <time>2019-11-10T08:08:23.000Z</time>
      </trkpt>
      <trkpt lat="47.83375" lon="7.10117">
        <ele>717</ele>
        <time>2019-11-10T08:08:24.000Z</time>
      </trkpt>
      <trkpt lat="47.83377" lon="7.10114">
        <ele>717.40002441406</ele>
        <time>2019-11-10T08:08:25.000Z</time>
      </trkpt>
      <trkpt lat="47.83381" lon="7.1011">
        <ele>717.40002441406</ele>
        <time>2019-11-10T08:08:27.000Z</time>
      </trkpt>
      <trkpt lat="47.83384" lon="7.10106">
        <ele>717.40002441406</ele>
        <time>2019-11-10T08:08:29.000Z</time>
      </trkpt>
      <trkpt lat="47.83389" lon="7.10102">
        <ele>717.79998779297</ele>
        <time>2019-11-10T08:08:31.000Z</time>
      </trkpt>
      <trkpt lat="47.8339" lon="7.101">
        <ele>718.20001220703</ele>
        <time>2019-11-10T08:08:32.000Z</time>
      </trkpt>
      <trkpt lat="47.83393" lon="7.10099">
        <ele>718.59997558594</ele>
        <time>2019-11-10T08:08:33.000Z</time>
      </trkpt>
      <trkpt lat="47.83394" lon="7.10097">
        <ele>719</ele>
        <time>2019-11-10T08:08:34.000Z</time>
      </trkpt>
      <trkpt lat="47.83396" lon="7.10095">
        <ele>719.40002441406</ele>
        <time>2019-11-10T08:08:35.000Z</time>
      </trkpt>
      <trkpt lat="47.83398" lon="7.10093">
        <ele>720</ele>
        <time>2019-11-10T08:08:37.000Z</time>
      </trkpt>
      <trkpt lat="47.83399" lon="7.10092">
        <ele>720.40002441406</ele>
        <time>2019-11-10T08:08:38.000Z</time>
      </trkpt>
      <trkpt lat="47.834" lon="7.1009">
        <ele>720.79998779297</ele>
        <time>2019-11-10T08:08:39.000Z</time>
      </trkpt>
      <trkpt lat="47.83409" lon="7.10082">
        <ele>724</ele>
        <time>2019-11-10T08:08:47.000Z</time>
      </trkpt>
      <trkpt lat="47.83412" lon="7.10079">
        <ele>724</ele>
        <time>2019-11-10T08:08:49.000Z</time>
      </trkpt>
      <trkpt lat="47.83414" lon="7.10078">
        <ele>724.40002441406</ele>
        <time>2019-11-10T08:08:50.000Z</time>
      </trkpt>
      <trkpt lat="47.83415" lon="7.10076">
        <ele>724.79998779297</ele>
        <time>2019-11-10T08:08:51.000Z</time>
      </trkpt>
      <trkpt lat="47.83416" lon="7.10075">
        <ele>725.40002441406</ele>
        <time>2019-11-10T08:08:52.000Z</time>
      </trkpt>
      <trkpt lat="47.83431" lon="7.10068">
        <ele>728.20001220703</ele>
        <time>2019-11-10T08:09:13.000Z</time>
      </trkpt>
      <trkpt lat="47.83437" lon="7.10067">
        <ele>728.59997558594</ele>
        <time>2019-11-10T08:09:17.000Z</time>
      </trkpt>
      <trkpt lat="47.83439" lon="7.10067">
        <ele>729.20001220703</ele>
        <time>2019-11-10T08:09:18.000Z</time>
      </trkpt>
      <trkpt lat="47.83441" lon="7.10067">
        <ele>729.59997558594</ele>
        <time>2019-11-10T08:09:19.000Z</time>
      </trkpt>
      <trkpt lat="47.83443" lon="7.10067">
        <ele>730</ele>
        <time>2019-11-10T08:09:20.000Z</time>
      </trkpt>
      <trkpt lat="47.83444" lon="7.10066">
        <ele>730.40002441406</ele>
        <time>2019-11-10T08:09:21.000Z</time>
      </trkpt>
      <trkpt lat="47.83448" lon="7.10066">
        <ele>730.40002441406</ele>
        <time>2019-11-10T08:09:23.000Z</time>
      </trkpt>
      <trkpt lat="47.83449" lon="7.10066">
        <ele>730.79998779297</ele>
        <time>2019-11-10T08:09:24.000Z</time>
      </trkpt>
      <trkpt lat="47.83451" lon="7.10066">
        <ele>731.20001220703</ele>
        <time>2019-11-10T08:09:25.000Z</time>
      </trkpt>
      <trkpt lat="47.83453" lon="7.10065">
        <ele>731.59997558594</ele>
        <time>2019-11-10T08:09:26.000Z</time>
      </trkpt>
      <trkpt lat="47.83455" lon="7.10065">
        <ele>732</ele>
        <time>2019-11-10T08:09:27.000Z</time>
      </trkpt>
      <trkpt lat="47.83457" lon="7.10065">
        <ele>732.40002441406</ele>
        <time>2019-11-10T08:09:28.000Z</time>
      </trkpt>
      <trkpt lat="47.83459" lon="7.10065">
        <ele>732.79998779297</ele>
        <time>2019-11-10T08:09:29.000Z</time>
      </trkpt>
      <trkpt lat="47.8346" lon="7.10064">
        <ele>733.20001220703</ele>
        <time>2019-11-10T08:09:30.000Z</time>
      </trkpt>
      <trkpt lat="47.83462" lon="7.10063">
        <ele>733.59997558594</ele>
        <time>2019-11-10T08:09:31.000Z</time>
      </trkpt>
      <trkpt lat="47.83464" lon="7.10063">
        <ele>734</ele>
        <time>2019-11-10T08:09:32.000Z</time>
      </trkpt>
      <trkpt lat="47.83466" lon="7.10063">
        <ele>734.40002441406</ele>
        <time>2019-11-10T08:09:33.000Z</time>
      </trkpt>
      <trkpt lat="47.83467" lon="7.10063">
        <ele>734.40002441406</ele>
        <time>2019-11-10T08:09:34.000Z</time>
      </trkpt>
      <trkpt lat="47.83468" lon="7.10063">
        <ele>735</ele>
        <time>2019-11-10T08:09:35.000Z</time>
      </trkpt>
      <trkpt lat="47.83478" lon="7.1007">
        <ele>736.79998779297</ele>
        <time>2019-11-10T08:09:51.000Z</time>
      </trkpt>
      <trkpt lat="47.83481" lon="7.10075">
        <ele>736.79998779297</ele>
        <time>2019-11-10T08:09:53.000Z</time>
      </trkpt>
      <trkpt lat="47.83488" lon="7.10088">
        <ele>737.20001220703</ele>
        <time>2019-11-10T08:09:59.000Z</time>
      </trkpt>
      <trkpt lat="47.83489" lon="7.10091">
        <ele>737.59997558594</ele>
        <time>2019-11-10T08:10:00.000Z</time>
      </trkpt>
      <trkpt lat="47.8349" lon="7.10094">
        <ele>738</ele>
        <time>2019-11-10T08:10:01.000Z</time>
      </trkpt>
      <trkpt lat="47.83491" lon="7.10098">
        <ele>738.40002441406</ele>
        <time>2019-11-10T08:10:02.000Z</time>
      </trkpt>
      <trkpt lat="47.83491" lon="7.10101">
        <ele>738.79998779297</ele>
        <time>2019-11-10T08:10:03.000Z</time>
      </trkpt>
      <trkpt lat="47.83491" lon="7.10104">
        <ele>739.79998779297</ele>
        <time>2019-11-10T08:10:04.000Z</time>
      </trkpt>
      <trkpt lat="47.83492" lon="7.10106">
        <ele>740.20001220703</ele>
        <time>2019-11-10T08:10:05.000Z</time>
      </trkpt>
      <trkpt lat="47.83493" lon="7.10109">
        <ele>740.59997558594</ele>
        <time>2019-11-10T08:10:06.000Z</time>
      </trkpt>
      <trkpt lat="47.83494" lon="7.10111">
        <ele>741.20001220703</ele>
        <time>2019-11-10T08:10:07.000Z</time>
      </trkpt>
      <trkpt lat="47.83494" lon="7.10113">
        <ele>741.59997558594</ele>
        <time>2019-11-10T08:10:08.000Z</time>
      </trkpt>
      <trkpt lat="47.83495" lon="7.10115">
        <ele>742.20001220703</ele>
        <time>2019-11-10T08:10:09.000Z</time>
      </trkpt>
      <trkpt lat="47.83496" lon="7.10118">
        <ele>742.59997558594</ele>
        <time>2019-11-10T08:10:10.000Z</time>
      </trkpt>
      <trkpt lat="47.83497" lon="7.10121">
        <ele>743.20001220703</ele>
        <time>2019-11-10T08:10:11.000Z</time>
      </trkpt>
      <trkpt lat="47.835" lon="7.10129">
        <ele>743.59997558594</ele>
        <time>2019-11-10T08:10:14.000Z</time>
      </trkpt>
      <trkpt lat="47.83501" lon="7.10132">
        <ele>744</ele>
        <time>2019-11-10T08:10:15.000Z</time>
      </trkpt>
      <trkpt lat="47.83502" lon="7.10135">
        <ele>744.40002441406</ele>
        <time>2019-11-10T08:10:16.000Z</time>
      </trkpt>
      <trkpt lat="47.83503" lon="7.10138">
        <ele>744.79998779297</ele>
        <time>2019-11-10T08:10:17.000Z</time>
      </trkpt>
      <trkpt lat="47.83504" lon="7.1014">
        <ele>745.20001220703</ele>
        <time>2019-11-10T08:10:18.000Z</time>
      </trkpt>
      <trkpt lat="47.83507" lon="7.10147">
        <ele>745.59997558594</ele>
        <time>2019-11-10T08:10:21.000Z</time>
      </trkpt>
      <trkpt lat="47.83508" lon="7.10149">
        <ele>746.20001220703</ele>
        <time>2019-11-10T08:10:22.000Z</time>
      </trkpt>
      <trkpt lat="47.83509" lon="7.10152">
        <ele>746.59997558594</ele>
        <time>2019-11-10T08:10:23.000Z</time>
      </trkpt>
      <trkpt lat="47.83509" lon="7.10154">
        <ele>747.20001220703</ele>
        <time>2019-11-10T08:10:24.000Z</time>
      </trkpt>
      <trkpt lat="47.8351" lon="7.10156">
        <ele>747.59997558594</ele>
        <time>2019-11-10T08:10:25.000Z</time>
      </trkpt>
      <trkpt lat="47.83513" lon="7.10164">
        <ele>748</ele>
        <time>2019-11-10T08:10:28.000Z</time>
      </trkpt>
      <trkpt lat="47.83514" lon="7.10166">
        <ele>748.59997558594</ele>
        <time>2019-11-10T08:10:29.000Z</time>
      </trkpt>
      <trkpt lat="47.83515" lon="7.10168">
        <ele>749</ele>
        <time>2019-11-10T08:10:30.000Z</time>
      </trkpt>
      <trkpt lat="47.83516" lon="7.10171">
        <ele>749.59997558594</ele>
        <time>2019-11-10T08:10:31.000Z</time>
      </trkpt>
      <trkpt lat="47.83517" lon="7.10174">
        <ele>750</ele>
        <time>2019-11-10T08:10:32.000Z</time>
      </trkpt>
      <trkpt lat="47.83518" lon="7.10176">
        <ele>750.40002441406</ele>
        <time>2019-11-10T08:10:33.000Z</time>
      </trkpt>
      <trkpt lat="47.83519" lon="7.10177">
        <ele>751</ele>
        <time>2019-11-10T08:10:34.000Z</time>
      </trkpt>
      <trkpt lat="47.83521" lon="7.10179">
        <ele>751.40002441406</ele>
        <time>2019-11-10T08:10:35.000Z</time>
      </trkpt>
      <trkpt lat="47.83522" lon="7.10181">
        <ele>751.79998779297</ele>
        <time>2019-11-10T08:10:36.000Z</time>
      </trkpt>
      <trkpt lat="47.83524" lon="7.10182">
        <ele>752.20001220703</ele>
        <time>2019-11-10T08:10:37.000Z</time>
      </trkpt>
      <trkpt lat="47.83525" lon="7.10183">
        <ele>752.20001220703</ele>
        <time>2019-11-10T08:10:38.000Z</time>
      </trkpt>
      <trkpt lat="47.83527" lon="7.10184">
        <ele>752.20001220703</ele>
        <time>2019-11-10T08:10:39.000Z</time>
      </trkpt>
      <trkpt lat="47.83529" lon="7.1019">
        <ele>752.59997558594</ele>
        <time>2019-11-10T08:10:42.000Z</time>
      </trkpt>
      <trkpt lat="47.83531" lon="7.10192">
        <ele>753</ele>
        <time>2019-11-10T08:10:43.000Z</time>
      </trkpt>
      <trkpt lat="47.83532" lon="7.10194">
        <ele>753.40002441406</ele>
        <time>2019-11-10T08:10:44.000Z</time>
      </trkpt>
      <trkpt lat="47.83534" lon="7.10197">
        <ele>754</ele>
        <time>2019-11-10T08:10:45.000Z</time>
      </trkpt>
      <trkpt lat="47.83536" lon="7.10202">
        <ele>754.40002441406</ele>
        <time>2019-11-10T08:10:46.000Z</time>
      </trkpt>
      <trkpt lat="47.83539" lon="7.10208">
        <ele>754.79998779297</ele>
        <time>2019-11-10T08:10:48.000Z</time>
      </trkpt>
      <trkpt lat="47.83541" lon="7.1021">
        <ele>755.20001220703</ele>
        <time>2019-11-10T08:10:49.000Z</time>
      </trkpt>
      <trkpt lat="47.83542" lon="7.10213">
        <ele>755.59997558594</ele>
        <time>2019-11-10T08:10:50.000Z</time>
      </trkpt>
      <trkpt lat="47.83544" lon="7.10216">
        <ele>756</ele>
        <time>2019-11-10T08:10:51.000Z</time>
      </trkpt>
      <trkpt lat="47.83545" lon="7.10219">
        <ele>756.40002441406</ele>
        <time>2019-11-10T08:10:52.000Z</time>
      </trkpt>
      <trkpt lat="47.83546" lon="7.10221">
        <ele>756.79998779297</ele>
        <time>2019-11-10T08:10:53.000Z</time>
      </trkpt>
      <trkpt lat="47.83548" lon="7.10224">
        <ele>757.20001220703</ele>
        <time>2019-11-10T08:10:54.000Z</time>
      </trkpt>
      <trkpt lat="47.83549" lon="7.10226">
        <ele>757.59997558594</ele>
        <time>2019-11-10T08:10:55.000Z</time>
      </trkpt>
      <trkpt lat="47.8355" lon="7.10229">
        <ele>758</ele>
        <time>2019-11-10T08:10:56.000Z</time>
      </trkpt>
      <trkpt lat="47.83551" lon="7.10232">
        <ele>758.40002441406</ele>
        <time>2019-11-10T08:10:57.000Z</time>
      </trkpt>
      <trkpt lat="47.83551" lon="7.10235">
        <ele>758.40002441406</ele>
        <time>2019-11-10T08:10:58.000Z</time>
      </trkpt>
      <trkpt lat="47.83552" lon="7.10241">
        <ele>759</ele>
        <time>2019-11-10T08:11:00.000Z</time>
      </trkpt>
      <trkpt lat="47.83552" lon="7.10245">
        <ele>759.40002441406</ele>
        <time>2019-11-10T08:11:01.000Z</time>
      </trkpt>
      <trkpt lat="47.83552" lon="7.10249">
        <ele>759.79998779297</ele>
        <time>2019-11-10T08:11:02.000Z</time>
      </trkpt>
      <trkpt lat="47.83552" lon="7.10252">
        <ele>760.20001220703</ele>
        <time>2019-11-10T08:11:03.000Z</time>
      </trkpt>
      <trkpt lat="47.83552" lon="7.10255">
        <ele>760.59997558594</ele>
        <time>2019-11-10T08:11:04.000Z</time>
      </trkpt>
      <trkpt lat="47.83553" lon="7.10258">
        <ele>760.59997558594</ele>
        <time>2019-11-10T08:11:05.000Z</time>
      </trkpt>
      <trkpt lat="47.83553" lon="7.10262">
        <ele>761</ele>
        <time>2019-11-10T08:11:06.000Z</time>
      </trkpt>
      <trkpt lat="47.83553" lon="7.10265">
        <ele>761.40002441406</ele>
        <time>2019-11-10T08:11:07.000Z</time>
      </trkpt>
      <trkpt lat="47.83553" lon="7.10269">
        <ele>762</ele>
        <time>2019-11-10T08:11:08.000Z</time>
      </trkpt>
      <trkpt lat="47.83553" lon="7.10272">
        <ele>762.40002441406</ele>
        <time>2019-11-10T08:11:09.000Z</time>
      </trkpt>
      <trkpt lat="47.83553" lon="7.10275">
        <ele>762.79998779297</ele>
        <time>2019-11-10T08:11:10.000Z</time>
      </trkpt>
      <trkpt lat="47.83554" lon="7.10283">
        <ele>762.79998779297</ele>
        <time>2019-11-10T08:11:12.000Z</time>
      </trkpt>
      <trkpt lat="47.83557" lon="7.10301">
        <ele>762.79998779297</ele>
        <time>2019-11-10T08:11:18.000Z</time>
      </trkpt>
      <trkpt lat="47.83558" lon="7.10306">
        <ele>763.20001220703</ele>
        <time>2019-11-10T08:11:20.000Z</time>
      </trkpt>
      <trkpt lat="47.83558" lon="7.10307">
        <ele>763.79998779297</ele>
        <time>2019-11-10T08:11:21.000Z</time>
      </trkpt>
      <trkpt lat="47.83559" lon="7.1031">
        <ele>764.20001220703</ele>
        <time>2019-11-10T08:11:22.000Z</time>
      </trkpt>
      <trkpt lat="47.83558" lon="7.10314">
        <ele>764.59997558594</ele>
        <time>2019-11-10T08:11:23.000Z</time>
      </trkpt>
      <trkpt lat="47.83558" lon="7.10316">
        <ele>765</ele>
        <time>2019-11-10T08:11:24.000Z</time>
      </trkpt>
      <trkpt lat="47.83557" lon="7.10326">
        <ele>765.59997558594</ele>
        <time>2019-11-10T08:11:28.000Z</time>
      </trkpt>
      <trkpt lat="47.83557" lon="7.10329">
        <ele>766</ele>
        <time>2019-11-10T08:11:29.000Z</time>
      </trkpt>
      <trkpt lat="47.83557" lon="7.10332">
        <ele>766.40002441406</ele>
        <time>2019-11-10T08:11:30.000Z</time>
      </trkpt>
      <trkpt lat="47.83557" lon="7.10334">
        <ele>766.79998779297</ele>
        <time>2019-11-10T08:11:31.000Z</time>
      </trkpt>
      <trkpt lat="47.83557" lon="7.10338">
        <ele>767.20001220703</ele>
        <time>2019-11-10T08:11:32.000Z</time>
      </trkpt>
      <trkpt lat="47.83557" lon="7.10342">
        <ele>767.20001220703</ele>
        <time>2019-11-10T08:11:33.000Z</time>
      </trkpt>
      <trkpt lat="47.83557" lon="7.10345">
        <ele>767.59997558594</ele>
        <time>2019-11-10T08:11:34.000Z</time>
      </trkpt>
      <trkpt lat="47.83557" lon="7.10348">
        <ele>768</ele>
        <time>2019-11-10T08:11:35.000Z</time>
      </trkpt>
      <trkpt lat="47.83558" lon="7.10352">
        <ele>768.59997558594</ele>
        <time>2019-11-10T08:11:36.000Z</time>
      </trkpt>
      <trkpt lat="47.83558" lon="7.10355">
        <ele>769</ele>
        <time>2019-11-10T08:11:37.000Z</time>
      </trkpt>
      <trkpt lat="47.83558" lon="7.10357">
        <ele>769.40002441406</ele>
        <time>2019-11-10T08:11:38.000Z</time>
      </trkpt>
      <trkpt lat="47.83558" lon="7.10361">
        <ele>769.40002441406</ele>
        <time>2019-11-10T08:11:40.000Z</time>
      </trkpt>
      <trkpt lat="47.83557" lon="7.10362">
        <ele>769.40002441406</ele>
        <time>2019-11-10T08:11:41.000Z</time>
      </trkpt>
      <trkpt lat="47.83557" lon="7.10363">
        <ele>771.40002441406</ele>
        <time>2019-11-10T08:13:28.000Z</time>
      </trkpt>
      <trkpt lat="47.83561" lon="7.10366">
        <ele>771.40002441406</ele>
        <time>2019-11-10T08:13:30.000Z</time>
      </trkpt>
      <trkpt lat="47.83572" lon="7.10374">
        <ele>771.40002441406</ele>
        <time>2019-11-10T08:13:35.000Z</time>
      </trkpt>
      <trkpt lat="47.83584" lon="7.10391">
        <ele>771.40002441406</ele>
        <time>2019-11-10T08:13:41.000Z</time>
      </trkpt>
      <trkpt lat="47.83597" lon="7.10408">
        <ele>771.40002441406</ele>
        <time>2019-11-10T08:13:46.000Z</time>
      </trkpt>
      <trkpt lat="47.83613" lon="7.10415">
        <ele>771.40002441406</ele>
        <time>2019-11-10T08:13:51.000Z</time>
      </trkpt>
      <trkpt lat="47.8363" lon="7.10421">
        <ele>771.40002441406</ele>
        <time>2019-11-10T08:13:57.000Z</time>
      </trkpt>
      <trkpt lat="47.83648" lon="7.10427">
        <ele>771.40002441406</ele>
        <time>2019-11-10T08:14:01.000Z</time>
      </trkpt>
      <trkpt lat="47.83652" lon="7.10429">
        <ele>771.40002441406</ele>
        <time>2019-11-10T08:14:02.000Z</time>
      </trkpt>
      <trkpt lat="47.83658" lon="7.10432">
        <ele>771.40002441406</ele>
        <time>2019-11-10T08:14:04.000Z</time>
      </trkpt>
      <trkpt lat="47.83662" lon="7.10436">
        <ele>771.40002441406</ele>
        <time>2019-11-10T08:14:06.000Z</time>
      </trkpt>
      <trkpt lat="47.83665" lon="7.1044">
        <ele>771.79998779297</ele>
        <time>2019-11-10T08:14:08.000Z</time>
      </trkpt>
      <trkpt lat="47.83667" lon="7.10442">
        <ele>772.20001220703</ele>
        <time>2019-11-10T08:14:09.000Z</time>
      </trkpt>
      <trkpt lat="47.83668" lon="7.10443">
        <ele>773.20001220703</ele>
        <time>2019-11-10T08:14:10.000Z</time>
      </trkpt>
      <trkpt lat="47.83669" lon="7.10446">
        <ele>773.59997558594</ele>
        <time>2019-11-10T08:14:11.000Z</time>
      </trkpt>
      <trkpt lat="47.83671" lon="7.10448">
        <ele>774</ele>
        <time>2019-11-10T08:14:12.000Z</time>
      </trkpt>
      <trkpt lat="47.83672" lon="7.1045">
        <ele>774.40002441406</ele>
        <time>2019-11-10T08:14:13.000Z</time>
      </trkpt>
      <trkpt lat="47.83673" lon="7.1045">
        <ele>774.79998779297</ele>
        <time>2019-11-10T08:14:14.000Z</time>
      </trkpt>
      <trkpt lat="47.83679" lon="7.10455">
        <ele>775.79998779297</ele>
        <time>2019-11-10T08:14:27.000Z</time>
      </trkpt>
      <trkpt lat="47.83682" lon="7.10461">
        <ele>775.79998779297</ele>
        <time>2019-11-10T08:14:29.000Z</time>
      </trkpt>
      <trkpt lat="47.83691" lon="7.10472">
        <ele>776.20001220703</ele>
        <time>2019-11-10T08:14:34.000Z</time>
      </trkpt>
      <trkpt lat="47.83693" lon="7.10473">
        <ele>777.20001220703</ele>
        <time>2019-11-10T08:14:35.000Z</time>
      </trkpt>
      <trkpt lat="47.83695" lon="7.10475">
        <ele>777.59997558594</ele>
        <time>2019-11-10T08:14:36.000Z</time>
      </trkpt>
      <trkpt lat="47.83696" lon="7.10477">
        <ele>778</ele>
        <time>2019-11-10T08:14:37.000Z</time>
      </trkpt>
      <trkpt lat="47.83697" lon="7.10478">
        <ele>778</ele>
        <time>2019-11-10T08:14:38.000Z</time>
      </trkpt>
      <trkpt lat="47.83703" lon="7.10483">
        <ele>778</ele>
        <time>2019-11-10T08:14:42.000Z</time>
      </trkpt>
      <trkpt lat="47.83717" lon="7.10497">
        <ele>778</ele>
        <time>2019-11-10T08:14:47.000Z</time>
      </trkpt>
      <trkpt lat="47.83723" lon="7.10525">
        <ele>778</ele>
        <time>2019-11-10T08:14:52.000Z</time>
      </trkpt>
      <trkpt lat="47.83725" lon="7.10544">
        <ele>778</ele>
        <time>2019-11-10T08:14:56.000Z</time>
      </trkpt>
      <trkpt lat="47.83727" lon="7.10559">
        <ele>778</ele>
        <time>2019-11-10T08:15:00.000Z</time>
      </trkpt>
      <trkpt lat="47.83728" lon="7.10564">
        <ele>778</ele>
        <time>2019-11-10T08:15:02.000Z</time>
      </trkpt>
      <trkpt lat="47.83727" lon="7.10575">
        <ele>777.59997558594</ele>
        <time>2019-11-10T08:15:05.000Z</time>
      </trkpt>
      <trkpt lat="47.83727" lon="7.10581">
        <ele>777.20001220703</ele>
        <time>2019-11-10T08:15:06.000Z</time>
      </trkpt>
      <trkpt lat="47.83727" lon="7.10587">
        <ele>776.79998779297</ele>
        <time>2019-11-10T08:15:07.000Z</time>
      </trkpt>
      <trkpt lat="47.83726" lon="7.10592">
        <ele>776.40002441406</ele>
        <time>2019-11-10T08:15:08.000Z</time>
      </trkpt>
      <trkpt lat="47.83726" lon="7.10599">
        <ele>776</ele>
        <time>2019-11-10T08:15:09.000Z</time>
      </trkpt>
      <trkpt lat="47.83726" lon="7.10605">
        <ele>776</ele>
        <time>2019-11-10T08:15:10.000Z</time>
      </trkpt>
      <trkpt lat="47.83727" lon="7.10629">
        <ele>776</ele>
        <time>2019-11-10T08:15:15.000Z</time>
      </trkpt>
      <trkpt lat="47.83729" lon="7.1065">
        <ele>776</ele>
        <time>2019-11-10T08:15:19.000Z</time>
      </trkpt>
      <trkpt lat="47.8373" lon="7.1066">
        <ele>776.40002441406</ele>
        <time>2019-11-10T08:15:21.000Z</time>
      </trkpt>
      <trkpt lat="47.8373" lon="7.10664">
        <ele>777</ele>
        <time>2019-11-10T08:15:22.000Z</time>
      </trkpt>
      <trkpt lat="47.83729" lon="7.10669">
        <ele>777.40002441406</ele>
        <time>2019-11-10T08:15:23.000Z</time>
      </trkpt>
      <trkpt lat="47.83729" lon="7.10674">
        <ele>778</ele>
        <time>2019-11-10T08:15:24.000Z</time>
      </trkpt>
      <trkpt lat="47.83729" lon="7.10679">
        <ele>778.40002441406</ele>
        <time>2019-11-10T08:15:25.000Z</time>
      </trkpt>
      <trkpt lat="47.83731" lon="7.10713">
        <ele>778.40002441406</ele>
        <time>2019-11-10T08:15:30.000Z</time>
      </trkpt>
      <trkpt lat="47.83733" lon="7.10733">
        <ele>778.40002441406</ele>
        <time>2019-11-10T08:15:33.000Z</time>
      </trkpt>
      <trkpt lat="47.83733" lon="7.10746">
        <ele>778.40002441406</ele>
        <time>2019-11-10T08:15:35.000Z</time>
      </trkpt>
      <trkpt lat="47.83734" lon="7.10768">
        <ele>779</ele>
        <time>2019-11-10T08:15:39.000Z</time>
      </trkpt>
      <trkpt lat="47.83733" lon="7.10772">
        <ele>779.40002441406</ele>
        <time>2019-11-10T08:15:40.000Z</time>
      </trkpt>
      <trkpt lat="47.83733" lon="7.10777">
        <ele>779.79998779297</ele>
        <time>2019-11-10T08:15:41.000Z</time>
      </trkpt>
      <trkpt lat="47.83733" lon="7.10782">
        <ele>780.20001220703</ele>
        <time>2019-11-10T08:15:42.000Z</time>
      </trkpt>
      <trkpt lat="47.83733" lon="7.10787">
        <ele>780.59997558594</ele>
        <time>2019-11-10T08:15:43.000Z</time>
      </trkpt>
      <trkpt lat="47.83735" lon="7.10796">
        <ele>780.59997558594</ele>
        <time>2019-11-10T08:15:45.000Z</time>
      </trkpt>
      <trkpt lat="47.83738" lon="7.10802">
        <ele>781</ele>
        <time>2019-11-10T08:15:47.000Z</time>
      </trkpt>
      <trkpt lat="47.83739" lon="7.10805">
        <ele>781.40002441406</ele>
        <time>2019-11-10T08:15:48.000Z</time>
      </trkpt>
      <trkpt lat="47.8374" lon="7.10807">
        <ele>782.40002441406</ele>
        <time>2019-11-10T08:15:49.000Z</time>
      </trkpt>
      <trkpt lat="47.8374" lon="7.1081">
        <ele>782.79998779297</ele>
        <time>2019-11-10T08:15:50.000Z</time>
      </trkpt>
      <trkpt lat="47.83741" lon="7.10812">
        <ele>783.20001220703</ele>
        <time>2019-11-10T08:15:51.000Z</time>
      </trkpt>
      <trkpt lat="47.83742" lon="7.10815">
        <ele>783.59997558594</ele>
        <time>2019-11-10T08:15:52.000Z</time>
      </trkpt>
      <trkpt lat="47.83743" lon="7.10818">
        <ele>784</ele>
        <time>2019-11-10T08:15:53.000Z</time>
      </trkpt>
      <trkpt lat="47.83744" lon="7.10821">
        <ele>784.40002441406</ele>
        <time>2019-11-10T08:15:54.000Z</time>
      </trkpt>
      <trkpt lat="47.83744" lon="7.10823">
        <ele>784.79998779297</ele>
        <time>2019-11-10T08:15:55.000Z</time>
      </trkpt>
      <trkpt lat="47.83746" lon="7.10828">
        <ele>784.79998779297</ele>
        <time>2019-11-10T08:15:57.000Z</time>
      </trkpt>
      <trkpt lat="47.83747" lon="7.10831">
        <ele>785.20001220703</ele>
        <time>2019-11-10T08:15:58.000Z</time>
      </trkpt>
      <trkpt lat="47.83748" lon="7.10834">
        <ele>785.59997558594</ele>
        <time>2019-11-10T08:15:59.000Z</time>
      </trkpt>
      <trkpt lat="47.83749" lon="7.10836">
        <ele>786</ele>
        <time>2019-11-10T08:16:00.000Z</time>
      </trkpt>
      <trkpt lat="47.83751" lon="7.10839">
        <ele>786.59997558594</ele>
        <time>2019-11-10T08:16:01.000Z</time>
      </trkpt>
      <trkpt lat="47.83751" lon="7.10842">
        <ele>787</ele>
        <time>2019-11-10T08:16:02.000Z</time>
      </trkpt>
      <trkpt lat="47.83753" lon="7.10846">
        <ele>787</ele>
        <time>2019-11-10T08:16:04.000Z</time>
      </trkpt>
      <trkpt lat="47.83755" lon="7.10849">
        <ele>787</ele>
        <time>2019-11-10T08:16:06.000Z</time>
      </trkpt>
      <trkpt lat="47.83756" lon="7.1085">
        <ele>787.40002441406</ele>
        <time>2019-11-10T08:16:07.000Z</time>
      </trkpt>
      <trkpt lat="47.83758" lon="7.1085">
        <ele>787.79998779297</ele>
        <time>2019-11-10T08:16:08.000Z</time>
      </trkpt>
      <trkpt lat="47.83759" lon="7.1085">
        <ele>788.20001220703</ele>
        <time>2019-11-10T08:16:09.000Z</time>
      </trkpt>
      <trkpt lat="47.8376" lon="7.10849">
        <ele>788.59997558594</ele>
        <time>2019-11-10T08:16:10.000Z</time>
      </trkpt>
      <trkpt lat="47.83761" lon="7.1085">
        <ele>789</ele>
        <time>2019-11-10T08:16:11.000Z</time>
      </trkpt>
      <trkpt lat="47.83765" lon="7.1085">
        <ele>789</ele>
        <time>2019-11-10T08:16:14.000Z</time>
      </trkpt>
      <trkpt lat="47.83766" lon="7.10851">
        <ele>789.59997558594</ele>
        <time>2019-11-10T08:16:15.000Z</time>
      </trkpt>
      <trkpt lat="47.83767" lon="7.10851">
        <ele>790</ele>
        <time>2019-11-10T08:16:16.000Z</time>
      </trkpt>
      <trkpt lat="47.83769" lon="7.10852">
        <ele>790.40002441406</ele>
        <time>2019-11-10T08:16:17.000Z</time>
      </trkpt>
      <trkpt lat="47.83771" lon="7.10852">
        <ele>790.79998779297</ele>
        <time>2019-11-10T08:16:18.000Z</time>
      </trkpt>
      <trkpt lat="47.83772" lon="7.10853">
        <ele>791.20001220703</ele>
        <time>2019-11-10T08:16:19.000Z</time>
      </trkpt>
      <trkpt lat="47.83774" lon="7.10854">
        <ele>791.20001220703</ele>
        <time>2019-11-10T08:16:20.000Z</time>
      </trkpt>
      <trkpt lat="47.83775" lon="7.10855">
        <ele>791.20001220703</ele>
        <time>2019-11-10T08:16:21.000Z</time>
      </trkpt>
      <trkpt lat="47.8378" lon="7.10859">
        <ele>791.59997558594</ele>
        <time>2019-11-10T08:16:25.000Z</time>
      </trkpt>
      <trkpt lat="47.83782" lon="7.10861">
        <ele>792.20001220703</ele>
        <time>2019-11-10T08:16:26.000Z</time>
      </trkpt>
      <trkpt lat="47.83784" lon="7.10864">
        <ele>792.59997558594</ele>
        <time>2019-11-10T08:16:27.000Z</time>
      </trkpt>
      <trkpt lat="47.83785" lon="7.10866">
        <ele>793</ele>
        <time>2019-11-10T08:16:28.000Z</time>
      </trkpt>
      <trkpt lat="47.83787" lon="7.10868">
        <ele>793.40002441406</ele>
        <time>2019-11-10T08:16:29.000Z</time>
      </trkpt>
      <trkpt lat="47.8379" lon="7.10874">
        <ele>793.40002441406</ele>
        <time>2019-11-10T08:16:32.000Z</time>
      </trkpt>
      <trkpt lat="47.83795" lon="7.10877">
        <ele>793.79998779297</ele>
        <time>2019-11-10T08:16:34.000Z</time>
      </trkpt>
      <trkpt lat="47.83797" lon="7.10879">
        <ele>794.20001220703</ele>
        <time>2019-11-10T08:16:35.000Z</time>
      </trkpt>
      <trkpt lat="47.83798" lon="7.10881">
        <ele>794.59997558594</ele>
        <time>2019-11-10T08:16:36.000Z</time>
      </trkpt>
      <trkpt lat="47.83799" lon="7.10883">
        <ele>795</ele>
        <time>2019-11-10T08:16:37.000Z</time>
      </trkpt>
      <trkpt lat="47.838" lon="7.10884">
        <ele>795.40002441406</ele>
        <time>2019-11-10T08:16:38.000Z</time>
      </trkpt>
      <trkpt lat="47.83803" lon="7.10889">
        <ele>795.79998779297</ele>
        <time>2019-11-10T08:16:41.000Z</time>
      </trkpt>
      <trkpt lat="47.83805" lon="7.10891">
        <ele>796.20001220703</ele>
        <time>2019-11-10T08:16:42.000Z</time>
      </trkpt>
      <trkpt lat="47.83806" lon="7.10892">
        <ele>796.59997558594</ele>
        <time>2019-11-10T08:16:43.000Z</time>
      </trkpt>
      <trkpt lat="47.83807" lon="7.10894">
        <ele>797</ele>
        <time>2019-11-10T08:16:44.000Z</time>
      </trkpt>
      <trkpt lat="47.83809" lon="7.10895">
        <ele>797.40002441406</ele>
        <time>2019-11-10T08:16:45.000Z</time>
      </trkpt>
      <trkpt lat="47.83814" lon="7.10903">
        <ele>797.79998779297</ele>
        <time>2019-11-10T08:16:50.000Z</time>
      </trkpt>
      <trkpt lat="47.83816" lon="7.10905">
        <ele>798.40002441406</ele>
        <time>2019-11-10T08:16:51.000Z</time>
      </trkpt>
      <trkpt lat="47.83817" lon="7.10906">
        <ele>798.79998779297</ele>
        <time>2019-11-10T08:16:52.000Z</time>
      </trkpt>
      <trkpt lat="47.83818" lon="7.10908">
        <ele>799.20001220703</ele>
        <time>2019-11-10T08:16:53.000Z</time>
      </trkpt>
      <trkpt lat="47.83819" lon="7.10909">
        <ele>799.59997558594</ele>
        <time>2019-11-10T08:16:54.000Z</time>
      </trkpt>
      <trkpt lat="47.83819" lon="7.1091">
        <ele>799.59997558594</ele>
        <time>2019-11-10T08:16:55.000Z</time>
      </trkpt>
      <trkpt lat="47.83821" lon="7.10911">
        <ele>800.20001220703</ele>
        <time>2019-11-10T08:16:57.000Z</time>
      </trkpt>
      <trkpt lat="47.83823" lon="7.10913">
        <ele>800.59997558594</ele>
        <time>2019-11-10T08:16:58.000Z</time>
      </trkpt>
      <trkpt lat="47.83824" lon="7.10914">
        <ele>801</ele>
        <time>2019-11-10T08:16:59.000Z</time>
      </trkpt>
      <trkpt lat="47.83825" lon="7.10915">
        <ele>801.40002441406</ele>
        <time>2019-11-10T08:17:00.000Z</time>
      </trkpt>
      <trkpt lat="47.83826" lon="7.10917">
        <ele>801.79998779297</ele>
        <time>2019-11-10T08:17:01.000Z</time>
      </trkpt>
      <trkpt lat="47.83828" lon="7.10918">
        <ele>801.79998779297</ele>
        <time>2019-11-10T08:17:02.000Z</time>
      </trkpt>
      <trkpt lat="47.8383" lon="7.10922">
        <ele>802.20001220703</ele>
        <time>2019-11-10T08:17:04.000Z</time>
      </trkpt>
      <trkpt lat="47.83832" lon="7.10924">
        <ele>802.59997558594</ele>
        <time>2019-11-10T08:17:05.000Z</time>
      </trkpt>
      <trkpt lat="47.83833" lon="7.10927">
        <ele>803</ele>
        <time>2019-11-10T08:17:06.000Z</time>
      </trkpt>
      <trkpt lat="47.83835" lon="7.10928">
        <ele>803.59997558594</ele>
        <time>2019-11-10T08:17:07.000Z</time>
      </trkpt>
      <trkpt lat="47.83835" lon="7.10929">
        <ele>804</ele>
        <time>2019-11-10T08:17:08.000Z</time>
      </trkpt>
      <trkpt lat="47.8384" lon="7.10936">
        <ele>804.40002441406</ele>
        <time>2019-11-10T08:17:11.000Z</time>
      </trkpt>
      <trkpt lat="47.83842" lon="7.10938">
        <ele>804.79998779297</ele>
        <time>2019-11-10T08:17:12.000Z</time>
      </trkpt>
      <trkpt lat="47.83843" lon="7.1094">
        <ele>805.20001220703</ele>
        <time>2019-11-10T08:17:13.000Z</time>
      </trkpt>
      <trkpt lat="47.83844" lon="7.10942">
        <ele>805.59997558594</ele>
        <time>2019-11-10T08:17:14.000Z</time>
      </trkpt>
      <trkpt lat="47.83846" lon="7.10944">
        <ele>806</ele>
        <time>2019-11-10T08:17:15.000Z</time>
      </trkpt>
      <trkpt lat="47.83851" lon="7.10949">
        <ele>806.40002441406</ele>
        <time>2019-11-10T08:17:19.000Z</time>
      </trkpt>
      <trkpt lat="47.83852" lon="7.1095">
        <ele>807</ele>
        <time>2019-11-10T08:17:20.000Z</time>
      </trkpt>
      <trkpt lat="47.83853" lon="7.10952">
        <ele>807.40002441406</ele>
        <time>2019-11-10T08:17:21.000Z</time>
      </trkpt>
      <trkpt lat="47.83854" lon="7.10953">
        <ele>807.79998779297</ele>
        <time>2019-11-10T08:17:22.000Z</time>
      </trkpt>
      <trkpt lat="47.83854" lon="7.10955">
        <ele>808.20001220703</ele>
        <time>2019-11-10T08:17:23.000Z</time>
      </trkpt>
      <trkpt lat="47.83856" lon="7.10958">
        <ele>808.20001220703</ele>
        <time>2019-11-10T08:17:25.000Z</time>
      </trkpt>
      <trkpt lat="47.83858" lon="7.10961">
        <ele>809</ele>
        <time>2019-11-10T08:17:27.000Z</time>
      </trkpt>
      <trkpt lat="47.83858" lon="7.10963">
        <ele>809.40002441406</ele>
        <time>2019-11-10T08:17:28.000Z</time>
      </trkpt>
      <trkpt lat="47.83859" lon="7.10965">
        <ele>810</ele>
        <time>2019-11-10T08:17:29.000Z</time>
      </trkpt>
      <trkpt lat="47.8386" lon="7.10967">
        <ele>810.40002441406</ele>
        <time>2019-11-10T08:17:30.000Z</time>
      </trkpt>
      <trkpt lat="47.83864" lon="7.10974">
        <ele>810.79998779297</ele>
        <time>2019-11-10T08:17:34.000Z</time>
      </trkpt>
      <trkpt lat="47.83865" lon="7.10976">
        <ele>811.20001220703</ele>
        <time>2019-11-10T08:17:35.000Z</time>
      </trkpt>
      <trkpt lat="47.83865" lon="7.10977">
        <ele>811.59997558594</ele>
        <time>2019-11-10T08:17:36.000Z</time>
      </trkpt>
      <trkpt lat="47.83867" lon="7.10978">
        <ele>812</ele>
        <time>2019-11-10T08:17:37.000Z</time>
      </trkpt>
      <trkpt lat="47.83868" lon="7.1098">
        <ele>812.40002441406</ele>
        <time>2019-11-10T08:17:38.000Z</time>
      </trkpt>
      <trkpt lat="47.83869" lon="7.10982">
        <ele>812.40002441406</ele>
        <time>2019-11-10T08:17:39.000Z</time>
      </trkpt>
      <trkpt lat="47.83871" lon="7.10983">
        <ele>812.40002441406</ele>
        <time>2019-11-10T08:17:41.000Z</time>
      </trkpt>
      <trkpt lat="47.83874" lon="7.10987">
        <ele>812.79998779297</ele>
        <time>2019-11-10T08:17:43.000Z</time>
      </trkpt>
      <trkpt lat="47.83875" lon="7.10988">
        <ele>813.20001220703</ele>
        <time>2019-11-10T08:17:44.000Z</time>
      </trkpt>
      <trkpt lat="47.83876" lon="7.1099">
        <ele>813.59997558594</ele>
        <time>2019-11-10T08:17:45.000Z</time>
      </trkpt>
      <trkpt lat="47.83878" lon="7.10992">
        <ele>814</ele>
        <time>2019-11-10T08:17:46.000Z</time>
      </trkpt>
      <trkpt lat="47.83879" lon="7.10994">
        <ele>814.59997558594</ele>
        <time>2019-11-10T08:17:47.000Z</time>
      </trkpt>
      <trkpt lat="47.83885" lon="7.10997">
        <ele>814.59997558594</ele>
        <time>2019-11-10T08:17:51.000Z</time>
      </trkpt>
      <trkpt lat="47.83892" lon="7.11001">
        <ele>815</ele>
        <time>2019-11-10T08:17:54.000Z</time>
      </trkpt>
      <trkpt lat="47.83894" lon="7.11002">
        <ele>815.40002441406</ele>
        <time>2019-11-10T08:17:55.000Z</time>
      </trkpt>
      <trkpt lat="47.83896" lon="7.11002">
        <ele>815.79998779297</ele>
        <time>2019-11-10T08:17:56.000Z</time>
      </trkpt>
      <trkpt lat="47.83898" lon="7.11003">
        <ele>816.20001220703</ele>
        <time>2019-11-10T08:17:57.000Z</time>
      </trkpt>
      <trkpt lat="47.83899" lon="7.11004">
        <ele>816.59997558594</ele>
        <time>2019-11-10T08:17:58.000Z</time>
      </trkpt>
      <trkpt lat="47.83905" lon="7.11009">
        <ele>817</ele>
        <time>2019-11-10T08:18:02.000Z</time>
      </trkpt>
      <trkpt lat="47.83906" lon="7.11011">
        <ele>817.40002441406</ele>
        <time>2019-11-10T08:18:03.000Z</time>
      </trkpt>
      <trkpt lat="47.83906" lon="7.11012">
        <ele>817.79998779297</ele>
        <time>2019-11-10T08:18:04.000Z</time>
      </trkpt>
      <trkpt lat="47.83907" lon="7.11015">
        <ele>818.20001220703</ele>
        <time>2019-11-10T08:18:05.000Z</time>
      </trkpt>
      <trkpt lat="47.83908" lon="7.11017">
        <ele>818.59997558594</ele>
        <time>2019-11-10T08:18:06.000Z</time>
      </trkpt>
      <trkpt lat="47.83911" lon="7.11024">
        <ele>818.59997558594</ele>
        <time>2019-11-10T08:18:09.000Z</time>
      </trkpt>
      <trkpt lat="47.83912" lon="7.11026">
        <ele>819</ele>
        <time>2019-11-10T08:18:10.000Z</time>
      </trkpt>
      <trkpt lat="47.83912" lon="7.11028">
        <ele>819.59997558594</ele>
        <time>2019-11-10T08:18:11.000Z</time>
      </trkpt>
      <trkpt lat="47.83913" lon="7.11031">
        <ele>820</ele>
        <time>2019-11-10T08:18:12.000Z</time>
      </trkpt>
      <trkpt lat="47.83913" lon="7.11034">
        <ele>820.40002441406</ele>
        <time>2019-11-10T08:18:13.000Z</time>
      </trkpt>
      <trkpt lat="47.83914" lon="7.11037">
        <ele>820.79998779297</ele>
        <time>2019-11-10T08:18:14.000Z</time>
      </trkpt>
      <trkpt lat="47.83915" lon="7.11039">
        <ele>820.79998779297</ele>
        <time>2019-11-10T08:18:15.000Z</time>
      </trkpt>
      <trkpt lat="47.83917" lon="7.11047">
        <ele>821.20001220703</ele>
        <time>2019-11-10T08:18:18.000Z</time>
      </trkpt>
      <trkpt lat="47.83918" lon="7.1105">
        <ele>821.79998779297</ele>
        <time>2019-11-10T08:18:19.000Z</time>
      </trkpt>
      <trkpt lat="47.83918" lon="7.11051">
        <ele>822.20001220703</ele>
        <time>2019-11-10T08:18:20.000Z</time>
      </trkpt>
      <trkpt lat="47.83918" lon="7.11052">
        <ele>822.59997558594</ele>
        <time>2019-11-10T08:18:21.000Z</time>
      </trkpt>
      <trkpt lat="47.83919" lon="7.11054">
        <ele>823</ele>
        <time>2019-11-10T08:18:22.000Z</time>
      </trkpt>
      <trkpt lat="47.83922" lon="7.11066">
        <ele>823</ele>
        <time>2019-11-10T08:18:27.000Z</time>
      </trkpt>
      <trkpt lat="47.83923" lon="7.11069">
        <ele>823.40002441406</ele>
        <time>2019-11-10T08:18:28.000Z</time>
      </trkpt>
      <trkpt lat="47.83925" lon="7.11071">
        <ele>823.79998779297</ele>
        <time>2019-11-10T08:18:29.000Z</time>
      </trkpt>
      <trkpt lat="47.83927" lon="7.11074">
        <ele>824.20001220703</ele>
        <time>2019-11-10T08:18:30.000Z</time>
      </trkpt>
      <trkpt lat="47.83928" lon="7.11077">
        <ele>824.79998779297</ele>
        <time>2019-11-10T08:18:31.000Z</time>
      </trkpt>
      <trkpt lat="47.83928" lon="7.1108">
        <ele>825.20001220703</ele>
        <time>2019-11-10T08:18:32.000Z</time>
      </trkpt>
      <trkpt lat="47.83935" lon="7.11098">
        <ele>825.20001220703</ele>
        <time>2019-11-10T08:18:39.000Z</time>
      </trkpt>
      <trkpt lat="47.83936" lon="7.111">
        <ele>825.59997558594</ele>
        <time>2019-11-10T08:18:40.000Z</time>
      </trkpt>
      <trkpt lat="47.83937" lon="7.11103">
        <ele>826.40002441406</ele>
        <time>2019-11-10T08:18:41.000Z</time>
      </trkpt>
      <trkpt lat="47.83939" lon="7.11106">
        <ele>826.79998779297</ele>
        <time>2019-11-10T08:18:42.000Z</time>
      </trkpt>
      <trkpt lat="47.8394" lon="7.11108">
        <ele>827.40002441406</ele>
        <time>2019-11-10T08:18:43.000Z</time>
      </trkpt>
      <trkpt lat="47.83942" lon="7.11111">
        <ele>827.40002441406</ele>
        <time>2019-11-10T08:18:44.000Z</time>
      </trkpt>
      <trkpt lat="47.83947" lon="7.11123">
        <ele>827.79998779297</ele>
        <time>2019-11-10T08:18:49.000Z</time>
      </trkpt>
      <trkpt lat="47.83947" lon="7.11126">
        <ele>828.20001220703</ele>
        <time>2019-11-10T08:18:50.000Z</time>
      </trkpt>
      <trkpt lat="47.83948" lon="7.11128">
        <ele>828.59997558594</ele>
        <time>2019-11-10T08:18:51.000Z</time>
      </trkpt>
      <trkpt lat="47.83949" lon="7.11131">
        <ele>829</ele>
        <time>2019-11-10T08:18:52.000Z</time>
      </trkpt>
      <trkpt lat="47.8395" lon="7.11133">
        <ele>829.40002441406</ele>
        <time>2019-11-10T08:18:53.000Z</time>
      </trkpt>
      <trkpt lat="47.83953" lon="7.1114">
        <ele>829.40002441406</ele>
        <time>2019-11-10T08:18:56.000Z</time>
      </trkpt>
      <trkpt lat="47.83959" lon="7.11151">
        <ele>829.79998779297</ele>
        <time>2019-11-10T08:19:01.000Z</time>
      </trkpt>
      <trkpt lat="47.8396" lon="7.11153">
        <ele>830.20001220703</ele>
        <time>2019-11-10T08:19:02.000Z</time>
      </trkpt>
      <trkpt lat="47.83961" lon="7.11155">
        <ele>830.59997558594</ele>
        <time>2019-11-10T08:19:03.000Z</time>
      </trkpt>
      <trkpt lat="47.83962" lon="7.11158">
        <ele>831</ele>
        <time>2019-11-10T08:19:04.000Z</time>
      </trkpt>
      <trkpt lat="47.83963" lon="7.11161">
        <ele>831.40002441406</ele>
        <time>2019-11-10T08:19:05.000Z</time>
      </trkpt>
      <trkpt lat="47.83968" lon="7.11172">
        <ele>831.40002441406</ele>
        <time>2019-11-10T08:19:09.000Z</time>
      </trkpt>
      <trkpt lat="47.83969" lon="7.11174">
        <ele>831.79998779297</ele>
        <time>2019-11-10T08:19:10.000Z</time>
      </trkpt>
      <trkpt lat="47.8397" lon="7.11177">
        <ele>832.20001220703</ele>
        <time>2019-11-10T08:19:11.000Z</time>
      </trkpt>
      <trkpt lat="47.83971" lon="7.1118">
        <ele>832.79998779297</ele>
        <time>2019-11-10T08:19:12.000Z</time>
      </trkpt>
      <trkpt lat="47.83971" lon="7.11183">
        <ele>833.20001220703</ele>
        <time>2019-11-10T08:19:13.000Z</time>
      </trkpt>
      <trkpt lat="47.83972" lon="7.11186">
        <ele>833.59997558594</ele>
        <time>2019-11-10T08:19:14.000Z</time>
      </trkpt>
      <trkpt lat="47.83973" lon="7.11192">
        <ele>833.59997558594</ele>
        <time>2019-11-10T08:19:16.000Z</time>
      </trkpt>
      <trkpt lat="47.83974" lon="7.11203">
        <ele>834</ele>
        <time>2019-11-10T08:19:20.000Z</time>
      </trkpt>
      <trkpt lat="47.83974" lon="7.11206">
        <ele>834.40002441406</ele>
        <time>2019-11-10T08:19:21.000Z</time>
      </trkpt>
      <trkpt lat="47.83974" lon="7.1121">
        <ele>834.79998779297</ele>
        <time>2019-11-10T08:19:22.000Z</time>
      </trkpt>
      <trkpt lat="47.83973" lon="7.11212">
        <ele>835.20001220703</ele>
        <time>2019-11-10T08:19:23.000Z</time>
      </trkpt>
      <trkpt lat="47.83973" lon="7.11215">
        <ele>835.59997558594</ele>
        <time>2019-11-10T08:19:24.000Z</time>
      </trkpt>
      <trkpt lat="47.83973" lon="7.11233">
        <ele>835.59997558594</ele>
        <time>2019-11-10T08:19:30.000Z</time>
      </trkpt>
      <trkpt lat="47.83974" lon="7.11236">
        <ele>836.40002441406</ele>
        <time>2019-11-10T08:19:31.000Z</time>
      </trkpt>
      <trkpt lat="47.83976" lon="7.11239">
        <ele>836.79998779297</ele>
        <time>2019-11-10T08:19:32.000Z</time>
      </trkpt>
      <trkpt lat="47.83977" lon="7.11242">
        <ele>837.20001220703</ele>
        <time>2019-11-10T08:19:33.000Z</time>
      </trkpt>
      <trkpt lat="47.83978" lon="7.11245">
        <ele>837.59997558594</ele>
        <time>2019-11-10T08:19:34.000Z</time>
      </trkpt>
      <trkpt lat="47.83979" lon="7.11248">
        <ele>837.59997558594</ele>
        <time>2019-11-10T08:19:35.000Z</time>
      </trkpt>
      <trkpt lat="47.83986" lon="7.11261">
        <ele>838</ele>
        <time>2019-11-10T08:19:40.000Z</time>
      </trkpt>
      <trkpt lat="47.83988" lon="7.11263">
        <ele>838.40002441406</ele>
        <time>2019-11-10T08:19:41.000Z</time>
      </trkpt>
      <trkpt lat="47.83989" lon="7.11265">
        <ele>838.79998779297</ele>
        <time>2019-11-10T08:19:42.000Z</time>
      </trkpt>
      <trkpt lat="47.83991" lon="7.11267">
        <ele>839.20001220703</ele>
        <time>2019-11-10T08:19:43.000Z</time>
      </trkpt>
      <trkpt lat="47.83992" lon="7.11269">
        <ele>839.59997558594</ele>
        <time>2019-11-10T08:19:44.000Z</time>
      </trkpt>
      <trkpt lat="47.83994" lon="7.11271">
        <ele>839.59997558594</ele>
        <time>2019-11-10T08:19:45.000Z</time>
      </trkpt>
      <trkpt lat="47.84" lon="7.11286">
        <ele>839.59997558594</ele>
        <time>2019-11-10T08:19:50.000Z</time>
      </trkpt>
      <trkpt lat="47.84004" lon="7.11291">
        <ele>840.20001220703</ele>
        <time>2019-11-10T08:19:52.000Z</time>
      </trkpt>
      <trkpt lat="47.84005" lon="7.11293">
        <ele>840.59997558594</ele>
        <time>2019-11-10T08:19:53.000Z</time>
      </trkpt>
      <trkpt lat="47.84005" lon="7.11295">
        <ele>841</ele>
        <time>2019-11-10T08:19:54.000Z</time>
      </trkpt>
      <trkpt lat="47.84007" lon="7.11298">
        <ele>841.40002441406</ele>
        <time>2019-11-10T08:19:55.000Z</time>
      </trkpt>
      <trkpt lat="47.84008" lon="7.11301">
        <ele>841.79998779297</ele>
        <time>2019-11-10T08:19:56.000Z</time>
      </trkpt>
      <trkpt lat="47.84013" lon="7.11313">
        <ele>841.79998779297</ele>
        <time>2019-11-10T08:20:00.000Z</time>
      </trkpt>
      <trkpt lat="47.84013" lon="7.11315">
        <ele>842.20001220703</ele>
        <time>2019-11-10T08:20:01.000Z</time>
      </trkpt>
      <trkpt lat="47.84014" lon="7.11319">
        <ele>842.59997558594</ele>
        <time>2019-11-10T08:20:02.000Z</time>
      </trkpt>
      <trkpt lat="47.84014" lon="7.11321">
        <ele>843.20001220703</ele>
        <time>2019-11-10T08:20:03.000Z</time>
      </trkpt>
      <trkpt lat="47.84014" lon="7.11324">
        <ele>843.59997558594</ele>
        <time>2019-11-10T08:20:04.000Z</time>
      </trkpt>
      <trkpt lat="47.84014" lon="7.11327">
        <ele>844</ele>
        <time>2019-11-10T08:20:05.000Z</time>
      </trkpt>
      <trkpt lat="47.84015" lon="7.11333">
        <ele>844</ele>
        <time>2019-11-10T08:20:07.000Z</time>
      </trkpt>
      <trkpt lat="47.84018" lon="7.11344">
        <ele>844.40002441406</ele>
        <time>2019-11-10T08:20:11.000Z</time>
      </trkpt>
      <trkpt lat="47.84018" lon="7.11347">
        <ele>844.79998779297</ele>
        <time>2019-11-10T08:20:12.000Z</time>
      </trkpt>
      <trkpt lat="47.84019" lon="7.11349">
        <ele>845.20001220703</ele>
        <time>2019-11-10T08:20:13.000Z</time>
      </trkpt>
      <trkpt lat="47.8402" lon="7.11351">
        <ele>845.79998779297</ele>
        <time>2019-11-10T08:20:14.000Z</time>
      </trkpt>
      <trkpt lat="47.84021" lon="7.11353">
        <ele>846.20001220703</ele>
        <time>2019-11-10T08:20:15.000Z</time>
      </trkpt>
      <trkpt lat="47.84023" lon="7.11362">
        <ele>846.20001220703</ele>
        <time>2019-11-10T08:20:19.000Z</time>
      </trkpt>
      <trkpt lat="47.84027" lon="7.1137">
        <ele>846.59997558594</ele>
        <time>2019-11-10T08:20:22.000Z</time>
      </trkpt>
      <trkpt lat="47.84028" lon="7.11372">
        <ele>847</ele>
        <time>2019-11-10T08:20:23.000Z</time>
      </trkpt>
      <trkpt lat="47.84029" lon="7.11375">
        <ele>847.40002441406</ele>
        <time>2019-11-10T08:20:24.000Z</time>
      </trkpt>
      <trkpt lat="47.84031" lon="7.11377">
        <ele>847.79998779297</ele>
        <time>2019-11-10T08:20:25.000Z</time>
      </trkpt>
      <trkpt lat="47.84033" lon="7.11379">
        <ele>848.20001220703</ele>
        <time>2019-11-10T08:20:26.000Z</time>
      </trkpt>
      <trkpt lat="47.84037" lon="7.11382">
        <ele>848.20001220703</ele>
        <time>2019-11-10T08:20:28.000Z</time>
      </trkpt>
      <trkpt lat="47.84045" lon="7.11391">
        <ele>848.20001220703</ele>
        <time>2019-11-10T08:20:33.000Z</time>
      </trkpt>
      <trkpt lat="47.84049" lon="7.11393">
        <ele>848.59997558594</ele>
        <time>2019-11-10T08:20:35.000Z</time>
      </trkpt>
      <trkpt lat="47.8405" lon="7.11395">
        <ele>849</ele>
        <time>2019-11-10T08:20:36.000Z</time>
      </trkpt>
      <trkpt lat="47.84051" lon="7.11395">
        <ele>849.40002441406</ele>
        <time>2019-11-10T08:20:37.000Z</time>
      </trkpt>
      <trkpt lat="47.84053" lon="7.11395">
        <ele>849.79998779297</ele>
        <time>2019-11-10T08:20:38.000Z</time>
      </trkpt>
      <trkpt lat="47.84054" lon="7.11396">
        <ele>850.40002441406</ele>
        <time>2019-11-10T08:20:39.000Z</time>
      </trkpt>
      <trkpt lat="47.84059" lon="7.114">
        <ele>850.40002441406</ele>
        <time>2019-11-10T08:20:42.000Z</time>
      </trkpt>
      <trkpt lat="47.84066" lon="7.11406">
        <ele>850.40002441406</ele>
        <time>2019-11-10T08:20:46.000Z</time>
      </trkpt>
      <trkpt lat="47.84068" lon="7.11407">
        <ele>850.40002441406</ele>
        <time>2019-11-10T08:20:47.000Z</time>
      </trkpt>
      <trkpt lat="47.84073" lon="7.11416">
        <ele>850.79998779297</ele>
        <time>2019-11-10T08:20:50.000Z</time>
      </trkpt>
      <trkpt lat="47.84075" lon="7.1142">
        <ele>851.20001220703</ele>
        <time>2019-11-10T08:20:51.000Z</time>
      </trkpt>
      <trkpt lat="47.84076" lon="7.11424">
        <ele>851.59997558594</ele>
        <time>2019-11-10T08:20:52.000Z</time>
      </trkpt>
      <trkpt lat="47.84078" lon="7.11427">
        <ele>852</ele>
        <time>2019-11-10T08:20:53.000Z</time>
      </trkpt>
      <trkpt lat="47.8408" lon="7.11429">
        <ele>852.40002441406</ele>
        <time>2019-11-10T08:20:54.000Z</time>
      </trkpt>
      <trkpt lat="47.84081" lon="7.11431">
        <ele>853</ele>
        <time>2019-11-10T08:20:55.000Z</time>
      </trkpt>
      <trkpt lat="47.84082" lon="7.11433">
        <ele>853.59997558594</ele>
        <time>2019-11-10T08:20:56.000Z</time>
      </trkpt>
      <trkpt lat="47.84082" lon="7.11434">
        <ele>854.20001220703</ele>
        <time>2019-11-10T08:20:57.000Z</time>
      </trkpt>
      <trkpt lat="47.84083" lon="7.11436">
        <ele>854.79998779297</ele>
        <time>2019-11-10T08:20:58.000Z</time>
      </trkpt>
      <trkpt lat="47.84083" lon="7.11439">
        <ele>855.59997558594</ele>
        <time>2019-11-10T08:20:59.000Z</time>
      </trkpt>
      <trkpt lat="47.84085" lon="7.11441">
        <ele>856.20001220703</ele>
        <time>2019-11-10T08:21:00.000Z</time>
      </trkpt>
      <trkpt lat="47.84086" lon="7.11442">
        <ele>856.79998779297</ele>
        <time>2019-11-10T08:21:01.000Z</time>
      </trkpt>
      <trkpt lat="47.84088" lon="7.11443">
        <ele>857.40002441406</ele>
        <time>2019-11-10T08:21:02.000Z</time>
      </trkpt>
      <trkpt lat="47.84089" lon="7.11443">
        <ele>857.79998779297</ele>
        <time>2019-11-10T08:21:03.000Z</time>
      </trkpt>
      <trkpt lat="47.8409" lon="7.11443">
        <ele>858.20001220703</ele>
        <time>2019-11-10T08:21:04.000Z</time>
      </trkpt>
      <trkpt lat="47.84092" lon="7.11443">
        <ele>858.79998779297</ele>
        <time>2019-11-10T08:21:05.000Z</time>
      </trkpt>
      <trkpt lat="47.84093" lon="7.11442">
        <ele>859.20001220703</ele>
        <time>2019-11-10T08:21:06.000Z</time>
      </trkpt>
      <trkpt lat="47.84094" lon="7.11442">
        <ele>859.59997558594</ele>
        <time>2019-11-10T08:21:07.000Z</time>
      </trkpt>
      <trkpt lat="47.84095" lon="7.11442">
        <ele>860</ele>
        <time>2019-11-10T08:21:08.000Z</time>
      </trkpt>
      <trkpt lat="47.84096" lon="7.11442">
        <ele>860.40002441406</ele>
        <time>2019-11-10T08:21:09.000Z</time>
      </trkpt>
      <trkpt lat="47.84097" lon="7.11442">
        <ele>861.20001220703</ele>
        <time>2019-11-10T08:21:10.000Z</time>
      </trkpt>
      <trkpt lat="47.84097" lon="7.11442">
        <ele>861.20001220703</ele>
        <time>2019-11-10T08:21:11.000Z</time>
      </trkpt>
      <trkpt lat="47.84107" lon="7.11436">
        <ele>861.20001220703</ele>
        <time>2019-11-10T08:23:32.000Z</time>
      </trkpt>
      <trkpt lat="47.8411" lon="7.11436">
        <ele>861.20001220703</ele>
        <time>2019-11-10T08:23:34.000Z</time>
      </trkpt>
      <trkpt lat="47.84122" lon="7.11438">
        <ele>861.20001220703</ele>
        <time>2019-11-10T08:23:41.000Z</time>
      </trkpt>
      <trkpt lat="47.84135" lon="7.11445">
        <ele>861.20001220703</ele>
        <time>2019-11-10T08:23:45.000Z</time>
      </trkpt>
      <trkpt lat="47.84141" lon="7.11453">
        <ele>861.20001220703</ele>
        <time>2019-11-10T08:23:49.000Z</time>
      </trkpt>
      <trkpt lat="47.84151" lon="7.11463">
        <ele>861.59997558594</ele>
        <time>2019-11-10T08:23:55.000Z</time>
      </trkpt>
      <trkpt lat="47.84154" lon="7.11464">
        <ele>862</ele>
        <time>2019-11-10T08:23:56.000Z</time>
      </trkpt>
      <trkpt lat="47.84156" lon="7.11465">
        <ele>862.40002441406</ele>
        <time>2019-11-10T08:23:57.000Z</time>
      </trkpt>
      <trkpt lat="47.84158" lon="7.11467">
        <ele>862.79998779297</ele>
        <time>2019-11-10T08:23:58.000Z</time>
      </trkpt>
      <trkpt lat="47.84161" lon="7.11469">
        <ele>863.20001220703</ele>
        <time>2019-11-10T08:23:59.000Z</time>
      </trkpt>
      <trkpt lat="47.84163" lon="7.11471">
        <ele>863.20001220703</ele>
        <time>2019-11-10T08:24:00.000Z</time>
      </trkpt>
      <trkpt lat="47.84172" lon="7.11479">
        <ele>863.79998779297</ele>
        <time>2019-11-10T08:24:05.000Z</time>
      </trkpt>
      <trkpt lat="47.84174" lon="7.11481">
        <ele>864.20001220703</ele>
        <time>2019-11-10T08:24:06.000Z</time>
      </trkpt>
      <trkpt lat="47.84175" lon="7.11482">
        <ele>864.59997558594</ele>
        <time>2019-11-10T08:24:07.000Z</time>
      </trkpt>
      <trkpt lat="47.84177" lon="7.11484">
        <ele>865</ele>
        <time>2019-11-10T08:24:08.000Z</time>
      </trkpt>
      <trkpt lat="47.84179" lon="7.11486">
        <ele>865.40002441406</ele>
        <time>2019-11-10T08:24:09.000Z</time>
      </trkpt>
      <trkpt lat="47.84186" lon="7.11493">
        <ele>865.40002441406</ele>
        <time>2019-11-10T08:24:13.000Z</time>
      </trkpt>
      <trkpt lat="47.84197" lon="7.11506">
        <ele>865.40002441406</ele>
        <time>2019-11-10T08:24:19.000Z</time>
      </trkpt>
      <trkpt lat="47.84212" lon="7.11523">
        <ele>865.79998779297</ele>
        <time>2019-11-10T08:24:25.000Z</time>
      </trkpt>
      <trkpt lat="47.84214" lon="7.11525">
        <ele>866.20001220703</ele>
        <time>2019-11-10T08:24:26.000Z</time>
      </trkpt>
      <trkpt lat="47.84216" lon="7.11526">
        <ele>866.59997558594</ele>
        <time>2019-11-10T08:24:27.000Z</time>
      </trkpt>
      <trkpt lat="47.84217" lon="7.11528">
        <ele>867.59997558594</ele>
        <time>2019-11-10T08:24:28.000Z</time>
      </trkpt>
      <trkpt lat="47.84227" lon="7.11534">
        <ele>867.59997558594</ele>
        <time>2019-11-10T08:24:33.000Z</time>
      </trkpt>
      <trkpt lat="47.84229" lon="7.11536">
        <ele>868</ele>
        <time>2019-11-10T08:24:34.000Z</time>
      </trkpt>
      <trkpt lat="47.84231" lon="7.11539">
        <ele>868.40002441406</ele>
        <time>2019-11-10T08:24:35.000Z</time>
      </trkpt>
      <trkpt lat="47.84233" lon="7.1154">
        <ele>868.79998779297</ele>
        <time>2019-11-10T08:24:36.000Z</time>
      </trkpt>
      <trkpt lat="47.84235" lon="7.11542">
        <ele>869.20001220703</ele>
        <time>2019-11-10T08:24:37.000Z</time>
      </trkpt>
      <trkpt lat="47.84237" lon="7.11544">
        <ele>869.59997558594</ele>
        <time>2019-11-10T08:24:38.000Z</time>
      </trkpt>
      <trkpt lat="47.84242" lon="7.1155">
        <ele>869.59997558594</ele>
        <time>2019-11-10T08:24:41.000Z</time>
      </trkpt>
      <trkpt lat="47.84246" lon="7.11554">
        <ele>869.59997558594</ele>
        <time>2019-11-10T08:24:43.000Z</time>
      </trkpt>
      <trkpt lat="47.84249" lon="7.11556">
        <ele>870</ele>
        <time>2019-11-10T08:24:45.000Z</time>
      </trkpt>
      <trkpt lat="47.84251" lon="7.11557">
        <ele>870.40002441406</ele>
        <time>2019-11-10T08:24:46.000Z</time>
      </trkpt>
      <trkpt lat="47.84253" lon="7.11558">
        <ele>870.79998779297</ele>
        <time>2019-11-10T08:24:47.000Z</time>
      </trkpt>
      <trkpt lat="47.84255" lon="7.11559">
        <ele>871.20001220703</ele>
        <time>2019-11-10T08:24:48.000Z</time>
      </trkpt>
      <trkpt lat="47.84257" lon="7.1156">
        <ele>871.59997558594</ele>
        <time>2019-11-10T08:24:49.000Z</time>
      </trkpt>
      <trkpt lat="47.84268" lon="7.11567">
        <ele>871.59997558594</ele>
        <time>2019-11-10T08:24:54.000Z</time>
      </trkpt>
      <trkpt lat="47.84274" lon="7.11572">
        <ele>872</ele>
        <time>2019-11-10T08:24:57.000Z</time>
      </trkpt>
      <trkpt lat="47.84276" lon="7.11573">
        <ele>872.59997558594</ele>
        <time>2019-11-10T08:24:58.000Z</time>
      </trkpt>
      <trkpt lat="47.84278" lon="7.11574">
        <ele>873</ele>
        <time>2019-11-10T08:24:59.000Z</time>
      </trkpt>
      <trkpt lat="47.8428" lon="7.11575">
        <ele>873.40002441406</ele>
        <time>2019-11-10T08:25:00.000Z</time>
      </trkpt>
      <trkpt lat="47.84281" lon="7.11576">
        <ele>874</ele>
        <time>2019-11-10T08:25:01.000Z</time>
      </trkpt>
      <trkpt lat="47.84289" lon="7.11583">
        <ele>874.40002441406</ele>
        <time>2019-11-10T08:25:05.000Z</time>
      </trkpt>
      <trkpt lat="47.84291" lon="7.11585">
        <ele>874.79998779297</ele>
        <time>2019-11-10T08:25:06.000Z</time>
      </trkpt>
      <trkpt lat="47.84293" lon="7.11586">
        <ele>875.20001220703</ele>
        <time>2019-11-10T08:25:07.000Z</time>
      </trkpt>
      <trkpt lat="47.84295" lon="7.11588">
        <ele>875.59997558594</ele>
        <time>2019-11-10T08:25:08.000Z</time>
      </trkpt>
      <trkpt lat="47.84296" lon="7.1159">
        <ele>876.20001220703</ele>
        <time>2019-11-10T08:25:09.000Z</time>
      </trkpt>
      <trkpt lat="47.84298" lon="7.11593">
        <ele>876.20001220703</ele>
        <time>2019-11-10T08:25:11.000Z</time>
      </trkpt>
      <trkpt lat="47.84307" lon="7.11604">
        <ele>876.59997558594</ele>
        <time>2019-11-10T08:25:16.000Z</time>
      </trkpt>
      <trkpt lat="47.84308" lon="7.11607">
        <ele>877</ele>
        <time>2019-11-10T08:25:17.000Z</time>
      </trkpt>
      <trkpt lat="47.8431" lon="7.1161">
        <ele>877.79998779297</ele>
        <time>2019-11-10T08:25:18.000Z</time>
      </trkpt>
      <trkpt lat="47.84312" lon="7.11612">
        <ele>878.20001220703</ele>
        <time>2019-11-10T08:25:19.000Z</time>
      </trkpt>
      <trkpt lat="47.84318" lon="7.11615">
        <ele>878.20001220703</ele>
        <time>2019-11-10T08:25:22.000Z</time>
      </trkpt>
      <trkpt lat="47.84324" lon="7.11621">
        <ele>878.79998779297</ele>
        <time>2019-11-10T08:25:25.000Z</time>
      </trkpt>
      <trkpt lat="47.84326" lon="7.11622">
        <ele>879.20001220703</ele>
        <time>2019-11-10T08:25:26.000Z</time>
      </trkpt>
      <trkpt lat="47.84328" lon="7.11624">
        <ele>879.59997558594</ele>
        <time>2019-11-10T08:25:27.000Z</time>
      </trkpt>
      <trkpt lat="47.84331" lon="7.11625">
        <ele>880</ele>
        <time>2019-11-10T08:25:28.000Z</time>
      </trkpt>
      <trkpt lat="47.84333" lon="7.11627">
        <ele>880.40002441406</ele>
        <time>2019-11-10T08:25:29.000Z</time>
      </trkpt>
      <trkpt lat="47.84337" lon="7.11632">
        <ele>880.40002441406</ele>
        <time>2019-11-10T08:25:31.000Z</time>
      </trkpt>
      <trkpt lat="47.84349" lon="7.11648">
        <ele>880.40002441406</ele>
        <time>2019-11-10T08:25:38.000Z</time>
      </trkpt>
      <trkpt lat="47.8435" lon="7.11651">
        <ele>880.79998779297</ele>
        <time>2019-11-10T08:25:39.000Z</time>
      </trkpt>
      <trkpt lat="47.84352" lon="7.11654">
        <ele>881.40002441406</ele>
        <time>2019-11-10T08:25:40.000Z</time>
      </trkpt>
      <trkpt lat="47.84355" lon="7.11659">
        <ele>881.79998779297</ele>
        <time>2019-11-10T08:25:41.000Z</time>
      </trkpt>
      <trkpt lat="47.84357" lon="7.11663">
        <ele>882.20001220703</ele>
        <time>2019-11-10T08:25:42.000Z</time>
      </trkpt>
      <trkpt lat="47.84359" lon="7.11666">
        <ele>882.59997558594</ele>
        <time>2019-11-10T08:25:43.000Z</time>
      </trkpt>
      <trkpt lat="47.84375" lon="7.11684">
        <ele>882.59997558594</ele>
        <time>2019-11-10T08:25:49.000Z</time>
      </trkpt>
      <trkpt lat="47.8439" lon="7.11689">
        <ele>882.59997558594</ele>
        <time>2019-11-10T08:25:55.000Z</time>
      </trkpt>
      <trkpt lat="47.84405" lon="7.11689">
        <ele>882.59997558594</ele>
        <time>2019-11-10T08:26:00.000Z</time>
      </trkpt>
      <trkpt lat="47.84424" lon="7.1169">
        <ele>882.59997558594</ele>
        <time>2019-11-10T08:26:06.000Z</time>
      </trkpt>
      <trkpt lat="47.84437" lon="7.1169">
        <ele>882.59997558594</ele>
        <time>2019-11-10T08:26:11.000Z</time>
      </trkpt>
      <trkpt lat="47.84445" lon="7.11687">
        <ele>883</ele>
        <time>2019-11-10T08:26:14.000Z</time>
      </trkpt>
      <trkpt lat="47.84448" lon="7.11687">
        <ele>883.40002441406</ele>
        <time>2019-11-10T08:26:15.000Z</time>
      </trkpt>
      <trkpt lat="47.84451" lon="7.11687">
        <ele>883.79998779297</ele>
        <time>2019-11-10T08:26:16.000Z</time>
      </trkpt>
      <trkpt lat="47.84453" lon="7.11687">
        <ele>884.20001220703</ele>
        <time>2019-11-10T08:26:17.000Z</time>
      </trkpt>
      <trkpt lat="47.84455" lon="7.11687">
        <ele>884.59997558594</ele>
        <time>2019-11-10T08:26:18.000Z</time>
      </trkpt>
      <trkpt lat="47.84463" lon="7.11687">
        <ele>884.59997558594</ele>
        <time>2019-11-10T08:26:21.000Z</time>
      </trkpt>
      <trkpt lat="47.84479" lon="7.11687">
        <ele>885</ele>
        <time>2019-11-10T08:26:27.000Z</time>
      </trkpt>
      <trkpt lat="47.84482" lon="7.11687">
        <ele>885.59997558594</ele>
        <time>2019-11-10T08:26:28.000Z</time>
      </trkpt>
      <trkpt lat="47.84485" lon="7.11686">
        <ele>886</ele>
        <time>2019-11-10T08:26:29.000Z</time>
      </trkpt>
      <trkpt lat="47.84488" lon="7.11686">
        <ele>886.40002441406</ele>
        <time>2019-11-10T08:26:30.000Z</time>
      </trkpt>
      <trkpt lat="47.84491" lon="7.11687">
        <ele>886.79998779297</ele>
        <time>2019-11-10T08:26:31.000Z</time>
      </trkpt>
      <trkpt lat="47.84497" lon="7.11686">
        <ele>886.79998779297</ele>
        <time>2019-11-10T08:26:33.000Z</time>
      </trkpt>
      <trkpt lat="47.84517" lon="7.11689">
        <ele>886.79998779297</ele>
        <time>2019-11-10T08:26:40.000Z</time>
      </trkpt>
      <trkpt lat="47.84533" lon="7.11693">
        <ele>886.79998779297</ele>
        <time>2019-11-10T08:26:45.000Z</time>
      </trkpt>
      <trkpt lat="47.84556" lon="7.11699">
        <ele>886.79998779297</ele>
        <time>2019-11-10T08:26:53.000Z</time>
      </trkpt>
      <trkpt lat="47.84563" lon="7.11699">
        <ele>887.20001220703</ele>
        <time>2019-11-10T08:26:56.000Z</time>
      </trkpt>
      <trkpt lat="47.84565" lon="7.11699">
        <ele>888</ele>
        <time>2019-11-10T08:26:57.000Z</time>
      </trkpt>
      <trkpt lat="47.84568" lon="7.11699">
        <ele>888.40002441406</ele>
        <time>2019-11-10T08:26:58.000Z</time>
      </trkpt>
      <trkpt lat="47.84571" lon="7.11699">
        <ele>888.79998779297</ele>
        <time>2019-11-10T08:26:59.000Z</time>
      </trkpt>
      <trkpt lat="47.84588" lon="7.11693">
        <ele>888.79998779297</ele>
        <time>2019-11-10T08:27:05.000Z</time>
      </trkpt>
      <trkpt lat="47.84601" lon="7.11688">
        <ele>888.79998779297</ele>
        <time>2019-11-10T08:27:10.000Z</time>
      </trkpt>
      <trkpt lat="47.84611" lon="7.11687">
        <ele>889.20001220703</ele>
        <time>2019-11-10T08:27:14.000Z</time>
      </trkpt>
      <trkpt lat="47.84615" lon="7.11685">
        <ele>889.59997558594</ele>
        <time>2019-11-10T08:27:15.000Z</time>
      </trkpt>
      <trkpt lat="47.84617" lon="7.11685">
        <ele>890</ele>
        <time>2019-11-10T08:27:16.000Z</time>
      </trkpt>
      <trkpt lat="47.84619" lon="7.11685">
        <ele>890.40002441406</ele>
        <time>2019-11-10T08:27:17.000Z</time>
      </trkpt>
      <trkpt lat="47.84622" lon="7.11685">
        <ele>890.79998779297</ele>
        <time>2019-11-10T08:27:18.000Z</time>
      </trkpt>
      <trkpt lat="47.84634" lon="7.11687">
        <ele>890.79998779297</ele>
        <time>2019-11-10T08:27:23.000Z</time>
      </trkpt>
      <trkpt lat="47.84638" lon="7.11688">
        <ele>891.20001220703</ele>
        <time>2019-11-10T08:27:25.000Z</time>
      </trkpt>
      <trkpt lat="47.8464" lon="7.11687">
        <ele>891.59997558594</ele>
        <time>2019-11-10T08:27:26.000Z</time>
      </trkpt>
      <trkpt lat="47.84642" lon="7.11687">
        <ele>892.20001220703</ele>
        <time>2019-11-10T08:27:27.000Z</time>
      </trkpt>
      <trkpt lat="47.84644" lon="7.11687">
        <ele>892.59997558594</ele>
        <time>2019-11-10T08:27:28.000Z</time>
      </trkpt>
      <trkpt lat="47.84646" lon="7.11687">
        <ele>893</ele>
        <time>2019-11-10T08:27:29.000Z</time>
      </trkpt>
      <trkpt lat="47.84654" lon="7.11689">
        <ele>893.40002441406</ele>
        <time>2019-11-10T08:27:33.000Z</time>
      </trkpt>
      <trkpt lat="47.84656" lon="7.1169">
        <ele>893.79998779297</ele>
        <time>2019-11-10T08:27:34.000Z</time>
      </trkpt>
      <trkpt lat="47.84658" lon="7.11691">
        <ele>894.20001220703</ele>
        <time>2019-11-10T08:27:35.000Z</time>
      </trkpt>
      <trkpt lat="47.8466" lon="7.11691">
        <ele>894.59997558594</ele>
        <time>2019-11-10T08:27:36.000Z</time>
      </trkpt>
      <trkpt lat="47.84662" lon="7.11691">
        <ele>895.20001220703</ele>
        <time>2019-11-10T08:27:37.000Z</time>
      </trkpt>
      <trkpt lat="47.84664" lon="7.11691">
        <ele>895.59997558594</ele>
        <time>2019-11-10T08:27:38.000Z</time>
      </trkpt>
      <trkpt lat="47.84666" lon="7.11691">
        <ele>896</ele>
        <time>2019-11-10T08:27:39.000Z</time>
      </trkpt>
      <trkpt lat="47.84668" lon="7.11691">
        <ele>896.40002441406</ele>
        <time>2019-11-10T08:27:40.000Z</time>
      </trkpt>
      <trkpt lat="47.8467" lon="7.11691">
        <ele>896.79998779297</ele>
        <time>2019-11-10T08:27:41.000Z</time>
      </trkpt>
      <trkpt lat="47.84672" lon="7.11691">
        <ele>897.20001220703</ele>
        <time>2019-11-10T08:27:42.000Z</time>
      </trkpt>
      <trkpt lat="47.84675" lon="7.1169">
        <ele>897.59997558594</ele>
        <time>2019-11-10T08:27:44.000Z</time>
      </trkpt>
      <trkpt lat="47.84678" lon="7.11689">
        <ele>898.40002441406</ele>
        <time>2019-11-10T08:27:45.000Z</time>
      </trkpt>
      <trkpt lat="47.8468" lon="7.11689">
        <ele>898.79998779297</ele>
        <time>2019-11-10T08:27:46.000Z</time>
      </trkpt>
      <trkpt lat="47.84682" lon="7.11689">
        <ele>899.20001220703</ele>
        <time>2019-11-10T08:27:47.000Z</time>
      </trkpt>
      <trkpt lat="47.8469" lon="7.11688">
        <ele>899.20001220703</ele>
        <time>2019-11-10T08:27:51.000Z</time>
      </trkpt>
      <trkpt lat="47.84692" lon="7.11689">
        <ele>899.59997558594</ele>
        <time>2019-11-10T08:27:52.000Z</time>
      </trkpt>
      <trkpt lat="47.84694" lon="7.1169">
        <ele>900</ele>
        <time>2019-11-10T08:27:53.000Z</time>
      </trkpt>
      <trkpt lat="47.84696" lon="7.11691">
        <ele>900.40002441406</ele>
        <time>2019-11-10T08:27:54.000Z</time>
      </trkpt>
      <trkpt lat="47.84699" lon="7.11692">
        <ele>900.79998779297</ele>
        <time>2019-11-10T08:27:55.000Z</time>
      </trkpt>
      <trkpt lat="47.84701" lon="7.11693">
        <ele>901.20001220703</ele>
        <time>2019-11-10T08:27:56.000Z</time>
      </trkpt>
      <trkpt lat="47.84704" lon="7.11695">
        <ele>901.20001220703</ele>
        <time>2019-11-10T08:27:57.000Z</time>
      </trkpt>
      <trkpt lat="47.84715" lon="7.11706">
        <ele>901.20001220703</ele>
        <time>2019-11-10T08:28:03.000Z</time>
      </trkpt>
      <trkpt lat="47.84728" lon="7.11718">
        <ele>901.20001220703</ele>
        <time>2019-11-10T08:28:09.000Z</time>
      </trkpt>
      <trkpt lat="47.84739" lon="7.11729">
        <ele>901.20001220703</ele>
        <time>2019-11-10T08:28:14.000Z</time>
      </trkpt>
      <trkpt lat="47.84752" lon="7.11741">
        <ele>901.20001220703</ele>
        <time>2019-11-10T08:28:20.000Z</time>
      </trkpt>
      <trkpt lat="47.84754" lon="7.11741">
        <ele>901.79998779297</ele>
        <time>2019-11-10T08:28:21.000Z</time>
      </trkpt>
      <trkpt lat="47.84756" lon="7.11741">
        <ele>902.20001220703</ele>
        <time>2019-11-10T08:28:22.000Z</time>
      </trkpt>
      <trkpt lat="47.84758" lon="7.11742">
        <ele>902.59997558594</ele>
        <time>2019-11-10T08:28:23.000Z</time>
      </trkpt>
      <trkpt lat="47.8476" lon="7.11743">
        <ele>903</ele>
        <time>2019-11-10T08:28:24.000Z</time>
      </trkpt>
      <trkpt lat="47.84763" lon="7.11744">
        <ele>903.40002441406</ele>
        <time>2019-11-10T08:28:25.000Z</time>
      </trkpt>
      <trkpt lat="47.84765" lon="7.11745">
        <ele>903.40002441406</ele>
        <time>2019-11-10T08:28:26.000Z</time>
      </trkpt>
      <trkpt lat="47.84779" lon="7.11755">
        <ele>903.40002441406</ele>
        <time>2019-11-10T08:28:32.000Z</time>
      </trkpt>
      <trkpt lat="47.84781" lon="7.11755">
        <ele>904</ele>
        <time>2019-11-10T08:28:33.000Z</time>
      </trkpt>
      <trkpt lat="47.84783" lon="7.11757">
        <ele>904.40002441406</ele>
        <time>2019-11-10T08:28:34.000Z</time>
      </trkpt>
      <trkpt lat="47.84785" lon="7.11758">
        <ele>905.20001220703</ele>
        <time>2019-11-10T08:28:35.000Z</time>
      </trkpt>
      <trkpt lat="47.84788" lon="7.11759">
        <ele>905.59997558594</ele>
        <time>2019-11-10T08:28:36.000Z</time>
      </trkpt>
      <trkpt lat="47.84796" lon="7.11763">
        <ele>905.59997558594</ele>
        <time>2019-11-10T08:28:39.000Z</time>
      </trkpt>
      <trkpt lat="47.84801" lon="7.11766">
        <ele>906</ele>
        <time>2019-11-10T08:28:43.000Z</time>
      </trkpt>
      <trkpt lat="47.84803" lon="7.11768">
        <ele>906.40002441406</ele>
        <time>2019-11-10T08:28:44.000Z</time>
      </trkpt>
      <trkpt lat="47.84804" lon="7.11768">
        <ele>906.79998779297</ele>
        <time>2019-11-10T08:28:45.000Z</time>
      </trkpt>
      <trkpt lat="47.84806" lon="7.11769">
        <ele>907.20001220703</ele>
        <time>2019-11-10T08:28:46.000Z</time>
      </trkpt>
      <trkpt lat="47.84808" lon="7.1177">
        <ele>907.59997558594</ele>
        <time>2019-11-10T08:28:47.000Z</time>
      </trkpt>
      <trkpt lat="47.84817" lon="7.11774">
        <ele>907.59997558594</ele>
        <time>2019-11-10T08:28:51.000Z</time>
      </trkpt>
      <trkpt lat="47.84827" lon="7.1178">
        <ele>908</ele>
        <time>2019-11-10T08:28:56.000Z</time>
      </trkpt>
      <trkpt lat="47.84828" lon="7.11781">
        <ele>908.40002441406</ele>
        <time>2019-11-10T08:28:57.000Z</time>
      </trkpt>
      <trkpt lat="47.84831" lon="7.11781">
        <ele>909</ele>
        <time>2019-11-10T08:28:58.000Z</time>
      </trkpt>
      <trkpt lat="47.84834" lon="7.11781">
        <ele>909.79998779297</ele>
        <time>2019-11-10T08:28:59.000Z</time>
      </trkpt>
      <trkpt lat="47.84843" lon="7.11781">
        <ele>910.20001220703</ele>
        <time>2019-11-10T08:29:03.000Z</time>
      </trkpt>
      <trkpt lat="47.84845" lon="7.11781">
        <ele>910.59997558594</ele>
        <time>2019-11-10T08:29:04.000Z</time>
      </trkpt>
      <trkpt lat="47.84846" lon="7.11781">
        <ele>911.20001220703</ele>
        <time>2019-11-10T08:29:05.000Z</time>
      </trkpt>
      <trkpt lat="47.84848" lon="7.11781">
        <ele>911.59997558594</ele>
        <time>2019-11-10T08:29:06.000Z</time>
      </trkpt>
      <trkpt lat="47.8485" lon="7.11781">
        <ele>912</ele>
        <time>2019-11-10T08:29:07.000Z</time>
      </trkpt>
      <trkpt lat="47.84851" lon="7.11781">
        <ele>912.40002441406</ele>
        <time>2019-11-10T08:29:08.000Z</time>
      </trkpt>
      <trkpt lat="47.84853" lon="7.1178">
        <ele>912.79998779297</ele>
        <time>2019-11-10T08:29:09.000Z</time>
      </trkpt>
      <trkpt lat="47.84855" lon="7.11779">
        <ele>913.20001220703</ele>
        <time>2019-11-10T08:29:10.000Z</time>
      </trkpt>
      <trkpt lat="47.84858" lon="7.1178">
        <ele>913.59997558594</ele>
        <time>2019-11-10T08:29:11.000Z</time>
      </trkpt>
      <trkpt lat="47.8486" lon="7.11779">
        <ele>914</ele>
        <time>2019-11-10T08:29:12.000Z</time>
      </trkpt>
      <trkpt lat="47.84865" lon="7.11776">
        <ele>914</ele>
        <time>2019-11-10T08:29:15.000Z</time>
      </trkpt>
      <trkpt lat="47.84874" lon="7.11771">
        <ele>914</ele>
        <time>2019-11-10T08:29:20.000Z</time>
      </trkpt>
      <trkpt lat="47.84875" lon="7.11771">
        <ele>914</ele>
        <time>2019-11-10T08:29:21.000Z</time>
      </trkpt>
      <trkpt lat="47.84878" lon="7.1177">
        <ele>914.79998779297</ele>
        <time>2019-11-10T08:29:24.000Z</time>
      </trkpt>
      <trkpt lat="47.84879" lon="7.11769">
        <ele>915.20001220703</ele>
        <time>2019-11-10T08:29:25.000Z</time>
      </trkpt>
      <trkpt lat="47.84881" lon="7.11768">
        <ele>915.59997558594</ele>
        <time>2019-11-10T08:29:26.000Z</time>
      </trkpt>
      <trkpt lat="47.84882" lon="7.11766">
        <ele>916</ele>
        <time>2019-11-10T08:29:27.000Z</time>
      </trkpt>
      <trkpt lat="47.8488" lon="7.11763">
        <ele>916</ele>
        <time>2019-11-10T08:29:31.000Z</time>
      </trkpt>
      <trkpt lat="47.84879" lon="7.11764">
        <ele>916</ele>
        <time>2019-11-10T08:29:32.000Z</time>
      </trkpt>
      <trkpt lat="47.84876" lon="7.11769">
        <ele>916</ele>
        <time>2019-11-10T08:29:35.000Z</time>
      </trkpt>
      <trkpt lat="47.84877" lon="7.11769">
        <ele>916</ele>
        <time>2019-11-10T08:29:36.000Z</time>
      </trkpt>
      <trkpt lat="47.84881" lon="7.11771">
        <ele>916</ele>
        <time>2019-11-10T08:30:19.000Z</time>
      </trkpt>
      <trkpt lat="47.84888" lon="7.11776">
        <ele>916</ele>
        <time>2019-11-10T08:30:24.000Z</time>
      </trkpt>
      <trkpt lat="47.84892" lon="7.11777">
        <ele>916.59997558594</ele>
        <time>2019-11-10T08:30:27.000Z</time>
      </trkpt>
      <trkpt lat="47.84894" lon="7.11777">
        <ele>917</ele>
        <time>2019-11-10T08:30:28.000Z</time>
      </trkpt>
      <trkpt lat="47.84897" lon="7.11778">
        <ele>917.40002441406</ele>
        <time>2019-11-10T08:30:29.000Z</time>
      </trkpt>
      <trkpt lat="47.84899" lon="7.11781">
        <ele>917.79998779297</ele>
        <time>2019-11-10T08:30:30.000Z</time>
      </trkpt>
      <trkpt lat="47.84899" lon="7.11781">
        <ele>918.40002441406</ele>
        <time>2019-11-10T08:30:31.000Z</time>
      </trkpt>
      <trkpt lat="47.84901" lon="7.11783">
        <ele>918.40002441406</ele>
        <time>2019-11-10T08:30:33.000Z</time>
      </trkpt>
      <trkpt lat="47.84905" lon="7.11788">
        <ele>918.79998779297</ele>
        <time>2019-11-10T08:30:36.000Z</time>
      </trkpt>
      <trkpt lat="47.84905" lon="7.1179">
        <ele>919.20001220703</ele>
        <time>2019-11-10T08:30:37.000Z</time>
      </trkpt>
      <trkpt lat="47.84906" lon="7.11792">
        <ele>920.20001220703</ele>
        <time>2019-11-10T08:30:38.000Z</time>
      </trkpt>
      <trkpt lat="47.84908" lon="7.11796">
        <ele>920.59997558594</ele>
        <time>2019-11-10T08:30:39.000Z</time>
      </trkpt>
      <trkpt lat="47.84909" lon="7.11799">
        <ele>920.59997558594</ele>
        <time>2019-11-10T08:30:40.000Z</time>
      </trkpt>
      <trkpt lat="47.84913" lon="7.11808">
        <ele>921</ele>
        <time>2019-11-10T08:30:43.000Z</time>
      </trkpt>
      <trkpt lat="47.84915" lon="7.11812">
        <ele>921.40002441406</ele>
        <time>2019-11-10T08:30:44.000Z</time>
      </trkpt>
      <trkpt lat="47.84916" lon="7.11814">
        <ele>921.79998779297</ele>
        <time>2019-11-10T08:30:45.000Z</time>
      </trkpt>
      <trkpt lat="47.84916" lon="7.11816">
        <ele>922.40002441406</ele>
        <time>2019-11-10T08:30:46.000Z</time>
      </trkpt>
      <trkpt lat="47.84917" lon="7.11819">
        <ele>922.79998779297</ele>
        <time>2019-11-10T08:30:47.000Z</time>
      </trkpt>
      <trkpt lat="47.84919" lon="7.11826">
        <ele>922.79998779297</ele>
        <time>2019-11-10T08:30:49.000Z</time>
      </trkpt>
      <trkpt lat="47.84921" lon="7.11828">
        <ele>922.79998779297</ele>
        <time>2019-11-10T08:30:50.000Z</time>
      </trkpt>
      <trkpt lat="47.84923" lon="7.11829">
        <ele>923.20001220703</ele>
        <time>2019-11-10T08:30:51.000Z</time>
      </trkpt>
      <trkpt lat="47.84924" lon="7.11832">
        <ele>923.59997558594</ele>
        <time>2019-11-10T08:30:52.000Z</time>
      </trkpt>
      <trkpt lat="47.84925" lon="7.11835">
        <ele>924.20001220703</ele>
        <time>2019-11-10T08:30:53.000Z</time>
      </trkpt>
      <trkpt lat="47.84926" lon="7.11838">
        <ele>924.59997558594</ele>
        <time>2019-11-10T08:30:54.000Z</time>
      </trkpt>
      <trkpt lat="47.84927" lon="7.11839">
        <ele>925</ele>
        <time>2019-11-10T08:30:55.000Z</time>
      </trkpt>
      <trkpt lat="47.84929" lon="7.11842">
        <ele>925</ele>
        <time>2019-11-10T08:30:57.000Z</time>
      </trkpt>
      <trkpt lat="47.84933" lon="7.11845">
        <ele>925.40002441406</ele>
        <time>2019-11-10T08:30:59.000Z</time>
      </trkpt>
      <trkpt lat="47.84933" lon="7.11847">
        <ele>925.79998779297</ele>
        <time>2019-11-10T08:31:00.000Z</time>
      </trkpt>
      <trkpt lat="47.84934" lon="7.11848">
        <ele>926.40002441406</ele>
        <time>2019-11-10T08:31:01.000Z</time>
      </trkpt>
      <trkpt lat="47.84937" lon="7.11849">
        <ele>926.79998779297</ele>
        <time>2019-11-10T08:31:02.000Z</time>
      </trkpt>
      <trkpt lat="47.84938" lon="7.11852">
        <ele>927.20001220703</ele>
        <time>2019-11-10T08:31:03.000Z</time>
      </trkpt>
      <trkpt lat="47.84943" lon="7.1186">
        <ele>927.59997558594</ele>
        <time>2019-11-10T08:31:07.000Z</time>
      </trkpt>
      <trkpt lat="47.84944" lon="7.11862">
        <ele>928</ele>
        <time>2019-11-10T08:31:08.000Z</time>
      </trkpt>
      <trkpt lat="47.84945" lon="7.11865">
        <ele>928.40002441406</ele>
        <time>2019-11-10T08:31:09.000Z</time>
      </trkpt>
      <trkpt lat="47.84947" lon="7.11869">
        <ele>928.79998779297</ele>
        <time>2019-11-10T08:31:10.000Z</time>
      </trkpt>
      <trkpt lat="47.84948" lon="7.11872">
        <ele>929.20001220703</ele>
        <time>2019-11-10T08:31:11.000Z</time>
      </trkpt>
      <trkpt lat="47.84949" lon="7.11879">
        <ele>929.79998779297</ele>
        <time>2019-11-10T08:31:14.000Z</time>
      </trkpt>
      <trkpt lat="47.8495" lon="7.11881">
        <ele>930.20001220703</ele>
        <time>2019-11-10T08:31:15.000Z</time>
      </trkpt>
      <trkpt lat="47.84951" lon="7.11882">
        <ele>930.59997558594</ele>
        <time>2019-11-10T08:31:16.000Z</time>
      </trkpt>
      <trkpt lat="47.84953" lon="7.11884">
        <ele>931</ele>
        <time>2019-11-10T08:31:17.000Z</time>
      </trkpt>
      <trkpt lat="47.84954" lon="7.11886">
        <ele>931.40002441406</ele>
        <time>2019-11-10T08:31:18.000Z</time>
      </trkpt>
      <trkpt lat="47.84957" lon="7.11888">
        <ele>931.40002441406</ele>
        <time>2019-11-10T08:31:19.000Z</time>
      </trkpt>
      <trkpt lat="47.8496" lon="7.11891">
        <ele>931</ele>
        <time>2019-11-10T08:31:20.000Z</time>
      </trkpt>
      <trkpt lat="47.84964" lon="7.11894">
        <ele>930.40002441406</ele>
        <time>2019-11-10T08:31:21.000Z</time>
      </trkpt>
      <trkpt lat="47.84968" lon="7.11896">
        <ele>930</ele>
        <time>2019-11-10T08:31:22.000Z</time>
      </trkpt>
      <trkpt lat="47.84972" lon="7.11897">
        <ele>929.40002441406</ele>
        <time>2019-11-10T08:31:23.000Z</time>
      </trkpt>
      <trkpt lat="47.84977" lon="7.11898">
        <ele>928.59997558594</ele>
        <time>2019-11-10T08:31:24.000Z</time>
      </trkpt>
      <trkpt lat="47.84982" lon="7.11898">
        <ele>928</ele>
        <time>2019-11-10T08:31:25.000Z</time>
      </trkpt>
      <trkpt lat="47.84987" lon="7.11898">
        <ele>927.20001220703</ele>
        <time>2019-11-10T08:31:26.000Z</time>
      </trkpt>
      <trkpt lat="47.84992" lon="7.11896">
        <ele>926.59997558594</ele>
        <time>2019-11-10T08:31:27.000Z</time>
      </trkpt>
      <trkpt lat="47.84996" lon="7.11895">
        <ele>925.40002441406</ele>
        <time>2019-11-10T08:31:28.000Z</time>
      </trkpt>
      <trkpt lat="47.85" lon="7.11894">
        <ele>924.79998779297</ele>
        <time>2019-11-10T08:31:29.000Z</time>
      </trkpt>
      <trkpt lat="47.85005" lon="7.11892">
        <ele>924.20001220703</ele>
        <time>2019-11-10T08:31:30.000Z</time>
      </trkpt>
      <trkpt lat="47.8502" lon="7.11885">
        <ele>924.20001220703</ele>
        <time>2019-11-10T08:31:35.000Z</time>
      </trkpt>
      <trkpt lat="47.85026" lon="7.11883">
        <ele>924.20001220703</ele>
        <time>2019-11-10T08:31:37.000Z</time>
      </trkpt>
      <trkpt lat="47.85028" lon="7.11883">
        <ele>924.59997558594</ele>
        <time>2019-11-10T08:31:38.000Z</time>
      </trkpt>
      <trkpt lat="47.8503" lon="7.11883">
        <ele>925</ele>
        <time>2019-11-10T08:31:39.000Z</time>
      </trkpt>
      <trkpt lat="47.85032" lon="7.11882">
        <ele>925.40002441406</ele>
        <time>2019-11-10T08:31:40.000Z</time>
      </trkpt>
      <trkpt lat="47.85032" lon="7.11882">
        <ele>925.79998779297</ele>
        <time>2019-11-10T08:31:41.000Z</time>
      </trkpt>
      <trkpt lat="47.85033" lon="7.11882">
        <ele>926.20001220703</ele>
        <time>2019-11-10T08:31:42.000Z</time>
      </trkpt>
      <trkpt lat="47.85038" lon="7.11883">
        <ele>926.20001220703</ele>
        <time>2019-11-10T08:31:47.000Z</time>
      </trkpt>
      <trkpt lat="47.85043" lon="7.11888">
        <ele>926.20001220703</ele>
        <time>2019-11-10T08:31:49.000Z</time>
      </trkpt>
      <trkpt lat="47.85048" lon="7.1189">
        <ele>926.20001220703</ele>
        <time>2019-11-10T08:31:52.000Z</time>
      </trkpt>
      <trkpt lat="47.85058" lon="7.11898">
        <ele>926.20001220703</ele>
        <time>2019-11-10T08:31:56.000Z</time>
      </trkpt>
      <trkpt lat="47.85071" lon="7.11905">
        <ele>926.20001220703</ele>
        <time>2019-11-10T08:32:01.000Z</time>
      </trkpt>
      <trkpt lat="47.85082" lon="7.11912">
        <ele>926.20001220703</ele>
        <time>2019-11-10T08:32:05.000Z</time>
      </trkpt>
      <trkpt lat="47.85095" lon="7.11918">
        <ele>926.20001220703</ele>
        <time>2019-11-10T08:32:10.000Z</time>
      </trkpt>
      <trkpt lat="47.85105" lon="7.11926">
        <ele>926.20001220703</ele>
        <time>2019-11-10T08:32:15.000Z</time>
      </trkpt>
      <trkpt lat="47.85119" lon="7.1193">
        <ele>926.20001220703</ele>
        <time>2019-11-10T08:32:20.000Z</time>
      </trkpt>
      <trkpt lat="47.85135" lon="7.11938">
        <ele>926.20001220703</ele>
        <time>2019-11-10T08:32:25.000Z</time>
      </trkpt>
      <trkpt lat="47.85154" lon="7.11945">
        <ele>926.20001220703</ele>
        <time>2019-11-10T08:32:30.000Z</time>
      </trkpt>
      <trkpt lat="47.85172" lon="7.11948">
        <ele>926.20001220703</ele>
        <time>2019-11-10T08:32:35.000Z</time>
      </trkpt>
      <trkpt lat="47.85183" lon="7.11956">
        <ele>926.20001220703</ele>
        <time>2019-11-10T08:32:39.000Z</time>
      </trkpt>
      <trkpt lat="47.85197" lon="7.11963">
        <ele>926.20001220703</ele>
        <time>2019-11-10T08:32:45.000Z</time>
      </trkpt>
      <trkpt lat="47.85217" lon="7.11963">
        <ele>926.20001220703</ele>
        <time>2019-11-10T08:32:50.000Z</time>
      </trkpt>
      <trkpt lat="47.85227" lon="7.11968">
        <ele>926.20001220703</ele>
        <time>2019-11-10T08:32:53.000Z</time>
      </trkpt>
      <trkpt lat="47.85229" lon="7.11971">
        <ele>926.20001220703</ele>
        <time>2019-11-10T08:32:54.000Z</time>
      </trkpt>
      <trkpt lat="47.85232" lon="7.11973">
        <ele>926.20001220703</ele>
        <time>2019-11-10T08:32:55.000Z</time>
      </trkpt>
      <trkpt lat="47.85243" lon="7.11979">
        <ele>926.20001220703</ele>
        <time>2019-11-10T08:32:58.000Z</time>
      </trkpt>
      <trkpt lat="47.85257" lon="7.11995">
        <ele>926.20001220703</ele>
        <time>2019-11-10T08:33:03.000Z</time>
      </trkpt>
      <trkpt lat="47.85261" lon="7.12003">
        <ele>926.20001220703</ele>
        <time>2019-11-10T08:33:06.000Z</time>
      </trkpt>
      <trkpt lat="47.85265" lon="7.12009">
        <ele>926.20001220703</ele>
        <time>2019-11-10T08:33:08.000Z</time>
      </trkpt>
      <trkpt lat="47.8528" lon="7.1203">
        <ele>926.20001220703</ele>
        <time>2019-11-10T08:33:14.000Z</time>
      </trkpt>
      <trkpt lat="47.85291" lon="7.12051">
        <ele>926.20001220703</ele>
        <time>2019-11-10T08:33:19.000Z</time>
      </trkpt>
      <trkpt lat="47.85298" lon="7.12073">
        <ele>926.20001220703</ele>
        <time>2019-11-10T08:33:24.000Z</time>
      </trkpt>
      <trkpt lat="47.85308" lon="7.12086">
        <ele>926.20001220703</ele>
        <time>2019-11-10T08:33:27.000Z</time>
      </trkpt>
      <trkpt lat="47.85315" lon="7.12098">
        <ele>926.20001220703</ele>
        <time>2019-11-10T08:33:31.000Z</time>
      </trkpt>
      <trkpt lat="47.85328" lon="7.12112">
        <ele>926.20001220703</ele>
        <time>2019-11-10T08:33:35.000Z</time>
      </trkpt>
      <trkpt lat="47.85336" lon="7.12127">
        <ele>926.20001220703</ele>
        <time>2019-11-10T08:33:39.000Z</time>
      </trkpt>
      <trkpt lat="47.85345" lon="7.12145">
        <ele>926.20001220703</ele>
        <time>2019-11-10T08:33:43.000Z</time>
      </trkpt>
      <trkpt lat="47.85355" lon="7.12167">
        <ele>926.59997558594</ele>
        <time>2019-11-10T08:33:48.000Z</time>
      </trkpt>
      <trkpt lat="47.85358" lon="7.12171">
        <ele>927</ele>
        <time>2019-11-10T08:33:49.000Z</time>
      </trkpt>
      <trkpt lat="47.85361" lon="7.12175">
        <ele>927.40002441406</ele>
        <time>2019-11-10T08:33:50.000Z</time>
      </trkpt>
      <trkpt lat="47.85364" lon="7.12179">
        <ele>927.79998779297</ele>
        <time>2019-11-10T08:33:51.000Z</time>
      </trkpt>
      <trkpt lat="47.85366" lon="7.12183">
        <ele>928.20001220703</ele>
        <time>2019-11-10T08:33:52.000Z</time>
      </trkpt>
      <trkpt lat="47.85374" lon="7.12194">
        <ele>928.20001220703</ele>
        <time>2019-11-10T08:33:55.000Z</time>
      </trkpt>
      <trkpt lat="47.85387" lon="7.12214">
        <ele>928.20001220703</ele>
        <time>2019-11-10T08:34:00.000Z</time>
      </trkpt>
      <trkpt lat="47.85393" lon="7.12221">
        <ele>928.20001220703</ele>
        <time>2019-11-10T08:34:02.000Z</time>
      </trkpt>
      <trkpt lat="47.85403" lon="7.12231">
        <ele>928.20001220703</ele>
        <time>2019-11-10T08:34:05.000Z</time>
      </trkpt>
      <trkpt lat="47.8541" lon="7.12238">
        <ele>928.20001220703</ele>
        <time>2019-11-10T08:34:07.000Z</time>
      </trkpt>
      <trkpt lat="47.85418" lon="7.12248">
        <ele>928.20001220703</ele>
        <time>2019-11-10T08:34:10.000Z</time>
      </trkpt>
      <trkpt lat="47.85425" lon="7.12255">
        <ele>928.20001220703</ele>
        <time>2019-11-10T08:34:13.000Z</time>
      </trkpt>
      <trkpt lat="47.85428" lon="7.12257">
        <ele>928.20001220703</ele>
        <time>2019-11-10T08:34:14.000Z</time>
      </trkpt>
      <trkpt lat="47.85442" lon="7.12269">
        <ele>928.20001220703</ele>
        <time>2019-11-10T08:34:19.000Z</time>
      </trkpt>
      <trkpt lat="47.85455" lon="7.12274">
        <ele>928.20001220703</ele>
        <time>2019-11-10T08:34:22.000Z</time>
      </trkpt>
      <trkpt lat="47.85458" lon="7.12277">
        <ele>928.20001220703</ele>
        <time>2019-11-10T08:34:23.000Z</time>
      </trkpt>
      <trkpt lat="47.85471" lon="7.12286">
        <ele>928.20001220703</ele>
        <time>2019-11-10T08:34:26.000Z</time>
      </trkpt>
      <trkpt lat="47.85478" lon="7.12294">
        <ele>928.20001220703</ele>
        <time>2019-11-10T08:34:28.000Z</time>
      </trkpt>
      <trkpt lat="47.85496" lon="7.12314">
        <ele>928.20001220703</ele>
        <time>2019-11-10T08:34:34.000Z</time>
      </trkpt>
      <trkpt lat="47.85506" lon="7.12331">
        <ele>928.20001220703</ele>
        <time>2019-11-10T08:34:39.000Z</time>
      </trkpt>
      <trkpt lat="47.85516" lon="7.12346">
        <ele>928.20001220703</ele>
        <time>2019-11-10T08:34:43.000Z</time>
      </trkpt>
      <trkpt lat="47.85528" lon="7.12363">
        <ele>928.20001220703</ele>
        <time>2019-11-10T08:34:47.000Z</time>
      </trkpt>
      <trkpt lat="47.85532" lon="7.12368">
        <ele>928.20001220703</ele>
        <time>2019-11-10T08:34:48.000Z</time>
      </trkpt>
      <trkpt lat="47.85548" lon="7.12391">
        <ele>928.20001220703</ele>
        <time>2019-11-10T08:34:53.000Z</time>
      </trkpt>
      <trkpt lat="47.85555" lon="7.12401">
        <ele>928.20001220703</ele>
        <time>2019-11-10T08:34:57.000Z</time>
      </trkpt>
      <trkpt lat="47.85569" lon="7.12418">
        <ele>928.20001220703</ele>
        <time>2019-11-10T08:35:02.000Z</time>
      </trkpt>
      <trkpt lat="47.85583" lon="7.12425">
        <ele>928.20001220703</ele>
        <time>2019-11-10T08:35:06.000Z</time>
      </trkpt>
      <trkpt lat="47.85585" lon="7.1243">
        <ele>928.20001220703</ele>
        <time>2019-11-10T08:35:07.000Z</time>
      </trkpt>
      <trkpt lat="47.8559" lon="7.1244">
        <ele>928.20001220703</ele>
        <time>2019-11-10T08:35:10.000Z</time>
      </trkpt>
      <trkpt lat="47.85592" lon="7.12442">
        <ele>928.20001220703</ele>
        <time>2019-11-10T08:35:12.000Z</time>
      </trkpt>
      <trkpt lat="47.85596" lon="7.1245">
        <ele>928.20001220703</ele>
        <time>2019-11-10T08:35:42.000Z</time>
      </trkpt>
      <trkpt lat="47.85598" lon="7.1245">
        <ele>928.20001220703</ele>
        <time>2019-11-10T08:35:43.000Z</time>
      </trkpt>
      <trkpt lat="47.85607" lon="7.12459">
        <ele>928.20001220703</ele>
        <time>2019-11-10T08:35:47.000Z</time>
      </trkpt>
      <trkpt lat="47.85617" lon="7.12465">
        <ele>928.20001220703</ele>
        <time>2019-11-10T08:35:50.000Z</time>
      </trkpt>
      <trkpt lat="47.85619" lon="7.12467">
        <ele>928.20001220703</ele>
        <time>2019-11-10T08:35:51.000Z</time>
      </trkpt>
      <trkpt lat="47.85624" lon="7.12471">
        <ele>928.20001220703</ele>
        <time>2019-11-10T08:35:54.000Z</time>
      </trkpt>
      <trkpt lat="47.85626" lon="7.12471">
        <ele>928.20001220703</ele>
        <time>2019-11-10T08:35:55.000Z</time>
      </trkpt>
      <trkpt lat="47.85628" lon="7.12473">
        <ele>928.79998779297</ele>
        <time>2019-11-10T08:35:56.000Z</time>
      </trkpt>
      <trkpt lat="47.85631" lon="7.12474">
        <ele>929.20001220703</ele>
        <time>2019-11-10T08:35:57.000Z</time>
      </trkpt>
      <trkpt lat="47.85634" lon="7.12476">
        <ele>929.59997558594</ele>
        <time>2019-11-10T08:35:58.000Z</time>
      </trkpt>
      <trkpt lat="47.85637" lon="7.12477">
        <ele>930</ele>
        <time>2019-11-10T08:35:59.000Z</time>
      </trkpt>
      <trkpt lat="47.8564" lon="7.12477">
        <ele>930.40002441406</ele>
        <time>2019-11-10T08:36:00.000Z</time>
      </trkpt>
      <trkpt lat="47.85648" lon="7.1248">
        <ele>930.40002441406</ele>
        <time>2019-11-10T08:36:02.000Z</time>
      </trkpt>
      <trkpt lat="47.85653" lon="7.12483">
        <ele>930.40002441406</ele>
        <time>2019-11-10T08:36:03.000Z</time>
      </trkpt>
      <trkpt lat="47.85656" lon="7.12486">
        <ele>930.40002441406</ele>
        <time>2019-11-10T08:36:04.000Z</time>
      </trkpt>
      <trkpt lat="47.85662" lon="7.12494">
        <ele>930.40002441406</ele>
        <time>2019-11-10T08:36:08.000Z</time>
      </trkpt>
      <trkpt lat="47.85665" lon="7.12496">
        <ele>930.40002441406</ele>
        <time>2019-11-10T08:36:09.000Z</time>
      </trkpt>
      <trkpt lat="47.85674" lon="7.12503">
        <ele>930.40002441406</ele>
        <time>2019-11-10T08:36:12.000Z</time>
      </trkpt>
      <trkpt lat="47.8569" lon="7.12513">
        <ele>930.40002441406</ele>
        <time>2019-11-10T08:36:16.000Z</time>
      </trkpt>
      <trkpt lat="47.85694" lon="7.12515">
        <ele>930.40002441406</ele>
        <time>2019-11-10T08:36:17.000Z</time>
      </trkpt>
      <trkpt lat="47.8572" lon="7.1252">
        <ele>930.40002441406</ele>
        <time>2019-11-10T08:36:23.000Z</time>
      </trkpt>
      <trkpt lat="47.85742" lon="7.12527">
        <ele>930.40002441406</ele>
        <time>2019-11-10T08:36:27.000Z</time>
      </trkpt>
      <trkpt lat="47.85753" lon="7.12533">
        <ele>930.40002441406</ele>
        <time>2019-11-10T08:36:29.000Z</time>
      </trkpt>
      <trkpt lat="47.85769" lon="7.12544">
        <ele>930.40002441406</ele>
        <time>2019-11-10T08:36:32.000Z</time>
      </trkpt>
      <trkpt lat="47.85779" lon="7.1255">
        <ele>930.40002441406</ele>
        <time>2019-11-10T08:36:34.000Z</time>
      </trkpt>
      <trkpt lat="47.85788" lon="7.12554">
        <ele>930.40002441406</ele>
        <time>2019-11-10T08:36:36.000Z</time>
      </trkpt>
      <trkpt lat="47.85798" lon="7.12555">
        <ele>930.40002441406</ele>
        <time>2019-11-10T08:36:38.000Z</time>
      </trkpt>
      <trkpt lat="47.85808" lon="7.12557">
        <ele>930.40002441406</ele>
        <time>2019-11-10T08:36:40.000Z</time>
      </trkpt>
      <trkpt lat="47.85821" lon="7.12558">
        <ele>930.40002441406</ele>
        <time>2019-11-10T08:36:43.000Z</time>
      </trkpt>
      <trkpt lat="47.85826" lon="7.12557">
        <ele>930.40002441406</ele>
        <time>2019-11-10T08:36:44.000Z</time>
      </trkpt>
      <trkpt lat="47.85838" lon="7.12544">
        <ele>930.40002441406</ele>
        <time>2019-11-10T08:36:47.000Z</time>
      </trkpt>
      <trkpt lat="47.85848" lon="7.12519">
        <ele>930.40002441406</ele>
        <time>2019-11-10T08:36:51.000Z</time>
      </trkpt>
      <trkpt lat="47.85864" lon="7.12496">
        <ele>930.40002441406</ele>
        <time>2019-11-10T08:36:55.000Z</time>
      </trkpt>
      <trkpt lat="47.85866" lon="7.12489">
        <ele>930.40002441406</ele>
        <time>2019-11-10T08:36:56.000Z</time>
      </trkpt>
      <trkpt lat="47.85874" lon="7.12472">
        <ele>930.40002441406</ele>
        <time>2019-11-10T08:36:59.000Z</time>
      </trkpt>
      <trkpt lat="47.85878" lon="7.1246">
        <ele>930.40002441406</ele>
        <time>2019-11-10T08:37:01.000Z</time>
      </trkpt>
      <trkpt lat="47.85888" lon="7.12426">
        <ele>930.40002441406</ele>
        <time>2019-11-10T08:37:06.000Z</time>
      </trkpt>
      <trkpt lat="47.85893" lon="7.12411">
        <ele>930.40002441406</ele>
        <time>2019-11-10T08:37:09.000Z</time>
      </trkpt>
      <trkpt lat="47.85895" lon="7.12406">
        <ele>930.40002441406</ele>
        <time>2019-11-10T08:37:10.000Z</time>
      </trkpt>
      <trkpt lat="47.85899" lon="7.12386">
        <ele>930.40002441406</ele>
        <time>2019-11-10T08:37:13.000Z</time>
      </trkpt>
      <trkpt lat="47.85899" lon="7.12379">
        <ele>930.40002441406</ele>
        <time>2019-11-10T08:37:14.000Z</time>
      </trkpt>
      <trkpt lat="47.85902" lon="7.12344">
        <ele>930.40002441406</ele>
        <time>2019-11-10T08:37:19.000Z</time>
      </trkpt>
      <trkpt lat="47.85903" lon="7.12329">
        <ele>930.40002441406</ele>
        <time>2019-11-10T08:37:21.000Z</time>
      </trkpt>
      <trkpt lat="47.85905" lon="7.12308">
        <ele>930.40002441406</ele>
        <time>2019-11-10T08:37:24.000Z</time>
      </trkpt>
      <trkpt lat="47.85907" lon="7.12297">
        <ele>930.40002441406</ele>
        <time>2019-11-10T08:37:26.000Z</time>
      </trkpt>
      <trkpt lat="47.8591" lon="7.12286">
        <ele>930.40002441406</ele>
        <time>2019-11-10T08:37:28.000Z</time>
      </trkpt>
      <trkpt lat="47.85919" lon="7.12258">
        <ele>930.40002441406</ele>
        <time>2019-11-10T08:37:33.000Z</time>
      </trkpt>
      <trkpt lat="47.85927" lon="7.12234">
        <ele>930.40002441406</ele>
        <time>2019-11-10T08:37:38.000Z</time>
      </trkpt>
      <trkpt lat="47.85931" lon="7.12226">
        <ele>930.79998779297</ele>
        <time>2019-11-10T08:37:40.000Z</time>
      </trkpt>
      <trkpt lat="47.85933" lon="7.12223">
        <ele>931.20001220703</ele>
        <time>2019-11-10T08:37:41.000Z</time>
      </trkpt>
      <trkpt lat="47.85935" lon="7.1222">
        <ele>931.59997558594</ele>
        <time>2019-11-10T08:37:42.000Z</time>
      </trkpt>
      <trkpt lat="47.85936" lon="7.12217">
        <ele>932.20001220703</ele>
        <time>2019-11-10T08:37:43.000Z</time>
      </trkpt>
      <trkpt lat="47.85937" lon="7.12215">
        <ele>932.59997558594</ele>
        <time>2019-11-10T08:37:44.000Z</time>
      </trkpt>
      <trkpt lat="47.85938" lon="7.12197">
        <ele>932.59997558594</ele>
        <time>2019-11-10T08:37:48.000Z</time>
      </trkpt>
      <trkpt lat="47.85939" lon="7.12185">
        <ele>932.59997558594</ele>
        <time>2019-11-10T08:37:52.000Z</time>
      </trkpt>
      <trkpt lat="47.85939" lon="7.1218">
        <ele>932.59997558594</ele>
        <time>2019-11-10T08:38:13.000Z</time>
      </trkpt>
      <trkpt lat="47.85946" lon="7.12166">
        <ele>932.59997558594</ele>
        <time>2019-11-10T08:38:17.000Z</time>
      </trkpt>
      <trkpt lat="47.85947" lon="7.12156">
        <ele>932.59997558594</ele>
        <time>2019-11-10T08:38:20.000Z</time>
      </trkpt>
      <trkpt lat="47.85953" lon="7.12135">
        <ele>932.59997558594</ele>
        <time>2019-11-10T08:38:24.000Z</time>
      </trkpt>
      <trkpt lat="47.85959" lon="7.12124">
        <ele>932.59997558594</ele>
        <time>2019-11-10T08:38:27.000Z</time>
      </trkpt>
      <trkpt lat="47.85968" lon="7.12099">
        <ele>932.59997558594</ele>
        <time>2019-11-10T08:38:32.000Z</time>
      </trkpt>
      <trkpt lat="47.8598" lon="7.1207">
        <ele>932.59997558594</ele>
        <time>2019-11-10T08:38:38.000Z</time>
      </trkpt>
      <trkpt lat="47.85983" lon="7.12065">
        <ele>932.59997558594</ele>
        <time>2019-11-10T08:38:39.000Z</time>
      </trkpt>
      <trkpt lat="47.8599" lon="7.12048">
        <ele>932.59997558594</ele>
        <time>2019-11-10T08:38:42.000Z</time>
      </trkpt>
      <trkpt lat="47.86004" lon="7.12027">
        <ele>932.59997558594</ele>
        <time>2019-11-10T08:38:47.000Z</time>
      </trkpt>
      <trkpt lat="47.86016" lon="7.12009">
        <ele>932.59997558594</ele>
        <time>2019-11-10T08:38:52.000Z</time>
      </trkpt>
      <trkpt lat="47.86028" lon="7.11988">
        <ele>932.59997558594</ele>
        <time>2019-11-10T08:38:57.000Z</time>
      </trkpt>
      <trkpt lat="47.86039" lon="7.11978">
        <ele>933</ele>
        <time>2019-11-10T08:39:00.000Z</time>
      </trkpt>
      <trkpt lat="47.86041" lon="7.11978">
        <ele>933.40002441406</ele>
        <time>2019-11-10T08:39:01.000Z</time>
      </trkpt>
      <trkpt lat="47.86044" lon="7.11978">
        <ele>933.79998779297</ele>
        <time>2019-11-10T08:39:02.000Z</time>
      </trkpt>
      <trkpt lat="47.86046" lon="7.1198">
        <ele>934.20001220703</ele>
        <time>2019-11-10T08:39:03.000Z</time>
      </trkpt>
      <trkpt lat="47.86048" lon="7.11984">
        <ele>934.59997558594</ele>
        <time>2019-11-10T08:39:04.000Z</time>
      </trkpt>
      <trkpt lat="47.86053" lon="7.11993">
        <ele>934.59997558594</ele>
        <time>2019-11-10T08:39:06.000Z</time>
      </trkpt>
      <trkpt lat="47.86057" lon="7.12003">
        <ele>934.59997558594</ele>
        <time>2019-11-10T08:39:08.000Z</time>
      </trkpt>
      <trkpt lat="47.86063" lon="7.12017">
        <ele>934.59997558594</ele>
        <time>2019-11-10T08:39:11.000Z</time>
      </trkpt>
      <trkpt lat="47.8607" lon="7.12044">
        <ele>934.59997558594</ele>
        <time>2019-11-10T08:39:16.000Z</time>
      </trkpt>
      <trkpt lat="47.86079" lon="7.12071">
        <ele>934.59997558594</ele>
        <time>2019-11-10T08:39:21.000Z</time>
      </trkpt>
      <trkpt lat="47.86087" lon="7.12089">
        <ele>934.59997558594</ele>
        <time>2019-11-10T08:39:26.000Z</time>
      </trkpt>
      <trkpt lat="47.86092" lon="7.121">
        <ele>934.59997558594</ele>
        <time>2019-11-10T08:39:31.000Z</time>
      </trkpt>
      <trkpt lat="47.86102" lon="7.12113">
        <ele>934.59997558594</ele>
        <time>2019-11-10T08:39:36.000Z</time>
      </trkpt>
      <trkpt lat="47.86104" lon="7.12119">
        <ele>934.59997558594</ele>
        <time>2019-11-10T08:39:37.000Z</time>
      </trkpt>
      <trkpt lat="47.86109" lon="7.12128">
        <ele>934.59997558594</ele>
        <time>2019-11-10T08:39:39.000Z</time>
      </trkpt>
      <trkpt lat="47.86124" lon="7.12154">
        <ele>934.59997558594</ele>
        <time>2019-11-10T08:39:45.000Z</time>
      </trkpt>
      <trkpt lat="47.86136" lon="7.12179">
        <ele>934.59997558594</ele>
        <time>2019-11-10T08:39:50.000Z</time>
      </trkpt>
      <trkpt lat="47.86148" lon="7.12195">
        <ele>934.59997558594</ele>
        <time>2019-11-10T08:39:55.000Z</time>
      </trkpt>
      <trkpt lat="47.86152" lon="7.122">
        <ele>934.59997558594</ele>
        <time>2019-11-10T08:39:58.000Z</time>
      </trkpt>
      <trkpt lat="47.86154" lon="7.12203">
        <ele>934.59997558594</ele>
        <time>2019-11-10T08:40:00.000Z</time>
      </trkpt>
      <trkpt lat="47.86156" lon="7.12206">
        <ele>934.59997558594</ele>
        <time>2019-11-10T08:40:03.000Z</time>
      </trkpt>
      <trkpt lat="47.86179" lon="7.12226">
        <ele>934.59997558594</ele>
        <time>2019-11-10T08:41:01.000Z</time>
      </trkpt>
      <trkpt lat="47.8618" lon="7.12227">
        <ele>934.59997558594</ele>
        <time>2019-11-10T08:41:02.000Z</time>
      </trkpt>
      <trkpt lat="47.86183" lon="7.12232">
        <ele>934.59997558594</ele>
        <time>2019-11-10T08:41:07.000Z</time>
      </trkpt>
      <trkpt lat="47.86185" lon="7.12235">
        <ele>934.59997558594</ele>
        <time>2019-11-10T08:41:09.000Z</time>
      </trkpt>
      <trkpt lat="47.8619" lon="7.12247">
        <ele>934.59997558594</ele>
        <time>2019-11-10T08:41:14.000Z</time>
      </trkpt>
      <trkpt lat="47.86191" lon="7.12248">
        <ele>934.59997558594</ele>
        <time>2019-11-10T08:41:15.000Z</time>
      </trkpt>
      <trkpt lat="47.86194" lon="7.12252">
        <ele>934.59997558594</ele>
        <time>2019-11-10T08:41:43.000Z</time>
      </trkpt>
      <trkpt lat="47.86196" lon="7.12255">
        <ele>934.59997558594</ele>
        <time>2019-11-10T08:41:45.000Z</time>
      </trkpt>
      <trkpt lat="47.86216" lon="7.12272">
        <ele>932.59997558594</ele>
        <time>2019-11-10T08:43:10.000Z</time>
      </trkpt>
      <trkpt lat="47.86221" lon="7.12275">
        <ele>932.59997558594</ele>
        <time>2019-11-10T08:43:12.000Z</time>
      </trkpt>
      <trkpt lat="47.86237" lon="7.12284">
        <ele>932.20001220703</ele>
        <time>2019-11-10T08:43:17.000Z</time>
      </trkpt>
      <trkpt lat="47.86241" lon="7.12286">
        <ele>931.59997558594</ele>
        <time>2019-11-10T08:43:18.000Z</time>
      </trkpt>
      <trkpt lat="47.86244" lon="7.12287">
        <ele>931.20001220703</ele>
        <time>2019-11-10T08:43:19.000Z</time>
      </trkpt>
      <trkpt lat="47.86246" lon="7.12289">
        <ele>930.79998779297</ele>
        <time>2019-11-10T08:43:20.000Z</time>
      </trkpt>
      <trkpt lat="47.86249" lon="7.12292">
        <ele>930.40002441406</ele>
        <time>2019-11-10T08:43:21.000Z</time>
      </trkpt>
      <trkpt lat="47.86252" lon="7.12294">
        <ele>930</ele>
        <time>2019-11-10T08:43:22.000Z</time>
      </trkpt>
      <trkpt lat="47.86255" lon="7.12296">
        <ele>929</ele>
        <time>2019-11-10T08:43:23.000Z</time>
      </trkpt>
      <trkpt lat="47.86257" lon="7.12299">
        <ele>928.40002441406</ele>
        <time>2019-11-10T08:43:24.000Z</time>
      </trkpt>
      <trkpt lat="47.86259" lon="7.12302">
        <ele>928</ele>
        <time>2019-11-10T08:43:25.000Z</time>
      </trkpt>
      <trkpt lat="47.86262" lon="7.12308">
        <ele>928</ele>
        <time>2019-11-10T08:43:27.000Z</time>
      </trkpt>
      <trkpt lat="47.86269" lon="7.12327">
        <ele>928.40002441406</ele>
        <time>2019-11-10T08:43:35.000Z</time>
      </trkpt>
      <trkpt lat="47.8627" lon="7.12329">
        <ele>929</ele>
        <time>2019-11-10T08:43:36.000Z</time>
      </trkpt>
      <trkpt lat="47.86271" lon="7.12331">
        <ele>929.40002441406</ele>
        <time>2019-11-10T08:43:37.000Z</time>
      </trkpt>
      <trkpt lat="47.86273" lon="7.12333">
        <ele>929.79998779297</ele>
        <time>2019-11-10T08:43:38.000Z</time>
      </trkpt>
      <trkpt lat="47.86274" lon="7.12335">
        <ele>930.20001220703</ele>
        <time>2019-11-10T08:43:39.000Z</time>
      </trkpt>
      <trkpt lat="47.86275" lon="7.12337">
        <ele>930.59997558594</ele>
        <time>2019-11-10T08:43:40.000Z</time>
      </trkpt>
      <trkpt lat="47.86276" lon="7.1234">
        <ele>931.20001220703</ele>
        <time>2019-11-10T08:43:41.000Z</time>
      </trkpt>
      <trkpt lat="47.86276" lon="7.12342">
        <ele>931.59997558594</ele>
        <time>2019-11-10T08:43:42.000Z</time>
      </trkpt>
      <trkpt lat="47.86277" lon="7.12344">
        <ele>932</ele>
        <time>2019-11-10T08:43:43.000Z</time>
      </trkpt>
      <trkpt lat="47.86278" lon="7.12346">
        <ele>932.40002441406</ele>
        <time>2019-11-10T08:43:44.000Z</time>
      </trkpt>
      <trkpt lat="47.86279" lon="7.12349">
        <ele>932.79998779297</ele>
        <time>2019-11-10T08:43:46.000Z</time>
      </trkpt>
      <trkpt lat="47.86279" lon="7.1235">
        <ele>933.20001220703</ele>
        <time>2019-11-10T08:43:47.000Z</time>
      </trkpt>
      <trkpt lat="47.86279" lon="7.12351">
        <ele>934</ele>
        <time>2019-11-10T08:43:48.000Z</time>
      </trkpt>
      <trkpt lat="47.86266" lon="7.12357">
        <ele>938.59997558594</ele>
        <time>2019-11-10T08:45:40.000Z</time>
      </trkpt>
      <trkpt lat="47.86265" lon="7.12356">
        <ele>938.59997558594</ele>
        <time>2019-11-10T08:45:41.000Z</time>
      </trkpt>
      <trkpt lat="47.86255" lon="7.12354">
        <ele>939</ele>
        <time>2019-11-10T08:45:46.000Z</time>
      </trkpt>
      <trkpt lat="47.86254" lon="7.12352">
        <ele>939.59997558594</ele>
        <time>2019-11-10T08:45:47.000Z</time>
      </trkpt>
      <trkpt lat="47.86253" lon="7.12351">
        <ele>940</ele>
        <time>2019-11-10T08:45:48.000Z</time>
      </trkpt>
      <trkpt lat="47.86252" lon="7.1235">
        <ele>940.40002441406</ele>
        <time>2019-11-10T08:45:49.000Z</time>
      </trkpt>
      <trkpt lat="47.86251" lon="7.12349">
        <ele>941</ele>
        <time>2019-11-10T08:45:50.000Z</time>
      </trkpt>
      <trkpt lat="47.86249" lon="7.12348">
        <ele>941</ele>
        <time>2019-11-10T08:45:51.000Z</time>
      </trkpt>
      <trkpt lat="47.86245" lon="7.12347">
        <ele>941.40002441406</ele>
        <time>2019-11-10T08:45:54.000Z</time>
      </trkpt>
      <trkpt lat="47.86243" lon="7.12348">
        <ele>941.79998779297</ele>
        <time>2019-11-10T08:45:55.000Z</time>
      </trkpt>
      <trkpt lat="47.86243" lon="7.12348">
        <ele>942.40002441406</ele>
        <time>2019-11-10T08:45:56.000Z</time>
      </trkpt>
      <trkpt lat="47.86243" lon="7.12349">
        <ele>942.79998779297</ele>
        <time>2019-11-10T08:45:57.000Z</time>
      </trkpt>
      <trkpt lat="47.86218" lon="7.12337">
        <ele>949.59997558594</ele>
        <time>2019-11-10T08:47:00.000Z</time>
      </trkpt>
      <trkpt lat="47.86216" lon="7.12337">
        <ele>949.59997558594</ele>
        <time>2019-11-10T08:47:02.000Z</time>
      </trkpt>
      <trkpt lat="47.86215" lon="7.12336">
        <ele>949.59997558594</ele>
        <time>2019-11-10T08:47:04.000Z</time>
      </trkpt>
      <trkpt lat="47.86127" lon="7.12392">
        <ele>1000</ele>
        <time>2019-11-10T08:55:07.000Z</time>
      </trkpt>
      <trkpt lat="47.86125" lon="7.1239">
        <ele>1000</ele>
        <time>2019-11-10T08:55:08.000Z</time>
      </trkpt>
      <trkpt lat="47.86123" lon="7.12389">
        <ele>1000.4000244141</ele>
        <time>2019-11-10T08:55:09.000Z</time>
      </trkpt>
      <trkpt lat="47.86121" lon="7.12387">
        <ele>1000.799987793</ele>
        <time>2019-11-10T08:55:10.000Z</time>
      </trkpt>
      <trkpt lat="47.86119" lon="7.12385">
        <ele>1001.200012207</ele>
        <time>2019-11-10T08:55:11.000Z</time>
      </trkpt>
      <trkpt lat="47.86117" lon="7.12384">
        <ele>1001.5999755859</ele>
        <time>2019-11-10T08:55:12.000Z</time>
      </trkpt>
      <trkpt lat="47.86115" lon="7.12383">
        <ele>1002.200012207</ele>
        <time>2019-11-10T08:55:13.000Z</time>
      </trkpt>
      <trkpt lat="47.86114" lon="7.12382">
        <ele>1002.5999755859</ele>
        <time>2019-11-10T08:55:14.000Z</time>
      </trkpt>
      <trkpt lat="47.86113" lon="7.12381">
        <ele>1003</ele>
        <time>2019-11-10T08:55:15.000Z</time>
      </trkpt>
      <trkpt lat="47.86111" lon="7.1238">
        <ele>1003.5999755859</ele>
        <time>2019-11-10T08:55:16.000Z</time>
      </trkpt>
      <trkpt lat="47.8611" lon="7.12379">
        <ele>1004.200012207</ele>
        <time>2019-11-10T08:55:17.000Z</time>
      </trkpt>
      <trkpt lat="47.86108" lon="7.12377">
        <ele>1004.5999755859</ele>
        <time>2019-11-10T08:55:18.000Z</time>
      </trkpt>
      <trkpt lat="47.86106" lon="7.12375">
        <ele>1005.799987793</ele>
        <time>2019-11-10T08:55:19.000Z</time>
      </trkpt>
      <trkpt lat="47.86104" lon="7.12373">
        <ele>1006.200012207</ele>
        <time>2019-11-10T08:55:20.000Z</time>
      </trkpt>
      <trkpt lat="47.86101" lon="7.1237">
        <ele>1006.799987793</ele>
        <time>2019-11-10T08:55:22.000Z</time>
      </trkpt>
      <trkpt lat="47.86101" lon="7.12369">
        <ele>1007.200012207</ele>
        <time>2019-11-10T08:55:23.000Z</time>
      </trkpt>
      <trkpt lat="47.86086" lon="7.12366">
        <ele>1012.799987793</ele>
        <time>2019-11-10T08:56:00.000Z</time>
      </trkpt>
      <trkpt lat="47.86082" lon="7.12372">
        <ele>1012.799987793</ele>
        <time>2019-11-10T08:56:05.000Z</time>
      </trkpt>
      <trkpt lat="47.86078" lon="7.12376">
        <ele>1013.200012207</ele>
        <time>2019-11-10T08:56:07.000Z</time>
      </trkpt>
      <trkpt lat="47.86077" lon="7.12379">
        <ele>1013.5999755859</ele>
        <time>2019-11-10T08:56:08.000Z</time>
      </trkpt>
      <trkpt lat="47.86076" lon="7.12381">
        <ele>1014.4000244141</ele>
        <time>2019-11-10T08:56:09.000Z</time>
      </trkpt>
      <trkpt lat="47.86075" lon="7.12383">
        <ele>1014.799987793</ele>
        <time>2019-11-10T08:56:10.000Z</time>
      </trkpt>
      <trkpt lat="47.86074" lon="7.12385">
        <ele>1014.799987793</ele>
        <time>2019-11-10T08:56:11.000Z</time>
      </trkpt>
      <trkpt lat="47.86074" lon="7.12387">
        <ele>1015.4000244141</ele>
        <time>2019-11-10T08:56:12.000Z</time>
      </trkpt>
      <trkpt lat="47.86074" lon="7.1239">
        <ele>1015.799987793</ele>
        <time>2019-11-10T08:56:13.000Z</time>
      </trkpt>
      <trkpt lat="47.86075" lon="7.12393">
        <ele>1016.200012207</ele>
        <time>2019-11-10T08:56:14.000Z</time>
      </trkpt>
      <trkpt lat="47.86074" lon="7.12395">
        <ele>1016.5999755859</ele>
        <time>2019-11-10T08:56:15.000Z</time>
      </trkpt>
      <trkpt lat="47.86074" lon="7.12397">
        <ele>1017</ele>
        <time>2019-11-10T08:56:16.000Z</time>
      </trkpt>
      <trkpt lat="47.86074" lon="7.12399">
        <ele>1017.4000244141</ele>
        <time>2019-11-10T08:56:17.000Z</time>
      </trkpt>
      <trkpt lat="47.86074" lon="7.12401">
        <ele>1017.799987793</ele>
        <time>2019-11-10T08:56:18.000Z</time>
      </trkpt>
      <trkpt lat="47.86074" lon="7.12403">
        <ele>1018.200012207</ele>
        <time>2019-11-10T08:56:19.000Z</time>
      </trkpt>
      <trkpt lat="47.86074" lon="7.12406">
        <ele>1018.799987793</ele>
        <time>2019-11-10T08:56:20.000Z</time>
      </trkpt>
      <trkpt lat="47.86075" lon="7.12408">
        <ele>1019.200012207</ele>
        <time>2019-11-10T08:56:21.000Z</time>
      </trkpt>
      <trkpt lat="47.86075" lon="7.12412">
        <ele>1019.200012207</ele>
        <time>2019-11-10T08:56:23.000Z</time>
      </trkpt>
      <trkpt lat="47.86075" lon="7.12418">
        <ele>1019.5999755859</ele>
        <time>2019-11-10T08:56:25.000Z</time>
      </trkpt>
      <trkpt lat="47.86074" lon="7.1242">
        <ele>1020</ele>
        <time>2019-11-10T08:56:26.000Z</time>
      </trkpt>
      <trkpt lat="47.86074" lon="7.12422">
        <ele>1020.4000244141</ele>
        <time>2019-11-10T08:56:27.000Z</time>
      </trkpt>
      <trkpt lat="47.86074" lon="7.12423">
        <ele>1020.799987793</ele>
        <time>2019-11-10T08:56:28.000Z</time>
      </trkpt>
      <trkpt lat="47.86074" lon="7.12423">
        <ele>1021.200012207</ele>
        <time>2019-11-10T08:56:29.000Z</time>
      </trkpt>
      <trkpt lat="47.86074" lon="7.12426">
        <ele>1021.200012207</ele>
        <time>2019-11-10T08:57:48.000Z</time>
      </trkpt>
      <trkpt lat="47.86073" lon="7.12428">
        <ele>1021.200012207</ele>
        <time>2019-11-10T08:57:49.000Z</time>
      </trkpt>
      <trkpt lat="47.86073" lon="7.1243">
        <ele>1021.200012207</ele>
        <time>2019-11-10T08:57:50.000Z</time>
      </trkpt>
      <trkpt lat="47.86073" lon="7.12437">
        <ele>1021.200012207</ele>
        <time>2019-11-10T08:57:53.000Z</time>
      </trkpt>
      <trkpt lat="47.86071" lon="7.12446">
        <ele>1021.200012207</ele>
        <time>2019-11-10T08:57:57.000Z</time>
      </trkpt>
      <trkpt lat="47.8607" lon="7.12448">
        <ele>1021.200012207</ele>
        <time>2019-11-10T08:57:58.000Z</time>
      </trkpt>
      <trkpt lat="47.8607" lon="7.12457">
        <ele>1021.200012207</ele>
        <time>2019-11-10T08:58:02.000Z</time>
      </trkpt>
      <trkpt lat="47.8607" lon="7.1246">
        <ele>1021.200012207</ele>
        <time>2019-11-10T08:58:03.000Z</time>
      </trkpt>
      <trkpt lat="47.86069" lon="7.12472">
        <ele>1021.200012207</ele>
        <time>2019-11-10T08:58:08.000Z</time>
      </trkpt>
      <trkpt lat="47.86069" lon="7.12486">
        <ele>1021.5999755859</ele>
        <time>2019-11-10T08:58:12.000Z</time>
      </trkpt>
      <trkpt lat="47.86068" lon="7.12489">
        <ele>1022.4000244141</ele>
        <time>2019-11-10T08:58:13.000Z</time>
      </trkpt>
      <trkpt lat="47.86067" lon="7.12493">
        <ele>1022.799987793</ele>
        <time>2019-11-10T08:58:14.000Z</time>
      </trkpt>
      <trkpt lat="47.86067" lon="7.12495">
        <ele>1023.4000244141</ele>
        <time>2019-11-10T08:58:15.000Z</time>
      </trkpt>
      <trkpt lat="47.86065" lon="7.12507">
        <ele>1023.4000244141</ele>
        <time>2019-11-10T08:58:18.000Z</time>
      </trkpt>
      <trkpt lat="47.86061" lon="7.12532">
        <ele>1023.4000244141</ele>
        <time>2019-11-10T08:58:24.000Z</time>
      </trkpt>
      <trkpt lat="47.86056" lon="7.1255">
        <ele>1023.4000244141</ele>
        <time>2019-11-10T08:58:29.000Z</time>
      </trkpt>
      <trkpt lat="47.86054" lon="7.12565">
        <ele>1023.4000244141</ele>
        <time>2019-11-10T08:58:33.000Z</time>
      </trkpt>
      <trkpt lat="47.86046" lon="7.12585">
        <ele>1023.4000244141</ele>
        <time>2019-11-10T08:58:38.000Z</time>
      </trkpt>
      <trkpt lat="47.86033" lon="7.12615">
        <ele>1023.4000244141</ele>
        <time>2019-11-10T08:58:44.000Z</time>
      </trkpt>
      <trkpt lat="47.8603" lon="7.12628">
        <ele>1023</ele>
        <time>2019-11-10T08:58:46.000Z</time>
      </trkpt>
      <trkpt lat="47.86027" lon="7.12634">
        <ele>1022.5999755859</ele>
        <time>2019-11-10T08:58:47.000Z</time>
      </trkpt>
      <trkpt lat="47.86025" lon="7.1264">
        <ele>1022.200012207</ele>
        <time>2019-11-10T08:58:48.000Z</time>
      </trkpt>
      <trkpt lat="47.86024" lon="7.12645">
        <ele>1021.799987793</ele>
        <time>2019-11-10T08:58:49.000Z</time>
      </trkpt>
      <trkpt lat="47.86022" lon="7.12651">
        <ele>1021.4000244141</ele>
        <time>2019-11-10T08:58:50.000Z</time>
      </trkpt>
      <trkpt lat="47.86021" lon="7.12656">
        <ele>1021.4000244141</ele>
        <time>2019-11-10T08:58:51.000Z</time>
      </trkpt>
      <trkpt lat="47.86017" lon="7.12667">
        <ele>1021.4000244141</ele>
        <time>2019-11-10T08:58:53.000Z</time>
      </trkpt>
      <trkpt lat="47.86008" lon="7.12692">
        <ele>1021.4000244141</ele>
        <time>2019-11-10T08:58:58.000Z</time>
      </trkpt>
      <trkpt lat="47.86006" lon="7.127">
        <ele>1020.799987793</ele>
        <time>2019-11-10T08:59:00.000Z</time>
      </trkpt>
      <trkpt lat="47.86005" lon="7.12705">
        <ele>1020.4000244141</ele>
        <time>2019-11-10T08:59:01.000Z</time>
      </trkpt>
      <trkpt lat="47.86003" lon="7.1271">
        <ele>1019.5999755859</ele>
        <time>2019-11-10T08:59:02.000Z</time>
      </trkpt>
      <trkpt lat="47.86002" lon="7.12714">
        <ele>1019.200012207</ele>
        <time>2019-11-10T08:59:03.000Z</time>
      </trkpt>
      <trkpt lat="47.86" lon="7.12718">
        <ele>1019.200012207</ele>
        <time>2019-11-10T08:59:04.000Z</time>
      </trkpt>
      <trkpt lat="47.85992" lon="7.12745">
        <ele>1019.200012207</ele>
        <time>2019-11-10T08:59:11.000Z</time>
      </trkpt>
      <trkpt lat="47.85984" lon="7.12771">
        <ele>1019.200012207</ele>
        <time>2019-11-10T08:59:18.000Z</time>
      </trkpt>
      <trkpt lat="47.85975" lon="7.12798">
        <ele>1019.200012207</ele>
        <time>2019-11-10T08:59:25.000Z</time>
      </trkpt>
      <trkpt lat="47.85967" lon="7.12821">
        <ele>1019.200012207</ele>
        <time>2019-11-10T08:59:31.000Z</time>
      </trkpt>
      <trkpt lat="47.85959" lon="7.12841">
        <ele>1019.200012207</ele>
        <time>2019-11-10T08:59:37.000Z</time>
      </trkpt>
      <trkpt lat="47.85952" lon="7.12864">
        <ele>1019.200012207</ele>
        <time>2019-11-10T08:59:43.000Z</time>
      </trkpt>
      <trkpt lat="47.85951" lon="7.12868">
        <ele>1019.200012207</ele>
        <time>2019-11-10T08:59:45.000Z</time>
      </trkpt>
      <trkpt lat="47.85949" lon="7.12875">
        <ele>1019.200012207</ele>
        <time>2019-11-10T08:59:48.000Z</time>
      </trkpt>
      <trkpt lat="47.85943" lon="7.12884">
        <ele>1019.200012207</ele>
        <time>2019-11-10T08:59:54.000Z</time>
      </trkpt>
      <trkpt lat="47.8594" lon="7.12888">
        <ele>1019.200012207</ele>
        <time>2019-11-10T08:59:57.000Z</time>
      </trkpt>
      <trkpt lat="47.85935" lon="7.12895">
        <ele>1019.5999755859</ele>
        <time>2019-11-10T09:00:01.000Z</time>
      </trkpt>
      <trkpt lat="47.85933" lon="7.12897">
        <ele>1020.200012207</ele>
        <time>2019-11-10T09:00:02.000Z</time>
      </trkpt>
      <trkpt lat="47.85932" lon="7.12899">
        <ele>1020.5999755859</ele>
        <time>2019-11-10T09:00:03.000Z</time>
      </trkpt>
      <trkpt lat="47.8593" lon="7.12901">
        <ele>1021</ele>
        <time>2019-11-10T09:00:04.000Z</time>
      </trkpt>
      <trkpt lat="47.85929" lon="7.12902">
        <ele>1021.4000244141</ele>
        <time>2019-11-10T09:00:05.000Z</time>
      </trkpt>
      <trkpt lat="47.85924" lon="7.12908">
        <ele>1021.799987793</ele>
        <time>2019-11-10T09:00:08.000Z</time>
      </trkpt>
      <trkpt lat="47.85922" lon="7.1291">
        <ele>1022.4000244141</ele>
        <time>2019-11-10T09:00:09.000Z</time>
      </trkpt>
      <trkpt lat="47.8592" lon="7.12912">
        <ele>1022.799987793</ele>
        <time>2019-11-10T09:00:10.000Z</time>
      </trkpt>
      <trkpt lat="47.85918" lon="7.12914">
        <ele>1023.200012207</ele>
        <time>2019-11-10T09:00:11.000Z</time>
      </trkpt>
      <trkpt lat="47.85916" lon="7.12915">
        <ele>1023.5999755859</ele>
        <time>2019-11-10T09:00:12.000Z</time>
      </trkpt>
      <trkpt lat="47.85914" lon="7.12916">
        <ele>1024</ele>
        <time>2019-11-10T09:00:13.000Z</time>
      </trkpt>
      <trkpt lat="47.85912" lon="7.12917">
        <ele>1024.5999755859</ele>
        <time>2019-11-10T09:00:14.000Z</time>
      </trkpt>
      <trkpt lat="47.8591" lon="7.12919">
        <ele>1025</ele>
        <time>2019-11-10T09:00:15.000Z</time>
      </trkpt>
      <trkpt lat="47.85908" lon="7.1292">
        <ele>1026</ele>
        <time>2019-11-10T09:00:16.000Z</time>
      </trkpt>
      <trkpt lat="47.85906" lon="7.12922">
        <ele>1026.4000244141</ele>
        <time>2019-11-10T09:00:17.000Z</time>
      </trkpt>
      <trkpt lat="47.85903" lon="7.12923">
        <ele>1026.8000488281</ele>
        <time>2019-11-10T09:00:18.000Z</time>
      </trkpt>
      <trkpt lat="47.85901" lon="7.12925">
        <ele>1027.4000244141</ele>
        <time>2019-11-10T09:00:19.000Z</time>
      </trkpt>
      <trkpt lat="47.85899" lon="7.12926">
        <ele>1027.8000488281</ele>
        <time>2019-11-10T09:00:20.000Z</time>
      </trkpt>
      <trkpt lat="47.85898" lon="7.12927">
        <ele>1028.4000244141</ele>
        <time>2019-11-10T09:00:21.000Z</time>
      </trkpt>
      <trkpt lat="47.85896" lon="7.12929">
        <ele>1029</ele>
        <time>2019-11-10T09:00:22.000Z</time>
      </trkpt>
      <trkpt lat="47.85894" lon="7.1293">
        <ele>1029.5999755859</ele>
        <time>2019-11-10T09:00:23.000Z</time>
      </trkpt>
      <trkpt lat="47.85892" lon="7.12932">
        <ele>1030</ele>
        <time>2019-11-10T09:00:24.000Z</time>
      </trkpt>
      <trkpt lat="47.8589" lon="7.12934">
        <ele>1030.5999755859</ele>
        <time>2019-11-10T09:00:25.000Z</time>
      </trkpt>
      <trkpt lat="47.85889" lon="7.12937">
        <ele>1031.1999511719</ele>
        <time>2019-11-10T09:00:26.000Z</time>
      </trkpt>
      <trkpt lat="47.85888" lon="7.12939">
        <ele>1031.5999755859</ele>
        <time>2019-11-10T09:00:27.000Z</time>
      </trkpt>
      <trkpt lat="47.85886" lon="7.12941">
        <ele>1032.1999511719</ele>
        <time>2019-11-10T09:00:28.000Z</time>
      </trkpt>
      <trkpt lat="47.85885" lon="7.12943">
        <ele>1032.8000488281</ele>
        <time>2019-11-10T09:00:29.000Z</time>
      </trkpt>
      <trkpt lat="47.85884" lon="7.12945">
        <ele>1033.1999511719</ele>
        <time>2019-11-10T09:00:30.000Z</time>
      </trkpt>
      <trkpt lat="47.85883" lon="7.12946">
        <ele>1033.8000488281</ele>
        <time>2019-11-10T09:00:31.000Z</time>
      </trkpt>
      <trkpt lat="47.85882" lon="7.12947">
        <ele>1034.4000244141</ele>
        <time>2019-11-10T09:00:32.000Z</time>
      </trkpt>
      <trkpt lat="47.85881" lon="7.12949">
        <ele>1034.8000488281</ele>
        <time>2019-11-10T09:00:33.000Z</time>
      </trkpt>
      <trkpt lat="47.8588" lon="7.12951">
        <ele>1035.4000244141</ele>
        <time>2019-11-10T09:00:34.000Z</time>
      </trkpt>
      <trkpt lat="47.85879" lon="7.12953">
        <ele>1035.8000488281</ele>
        <time>2019-11-10T09:00:35.000Z</time>
      </trkpt>
      <trkpt lat="47.85878" lon="7.12955">
        <ele>1036.1999511719</ele>
        <time>2019-11-10T09:00:36.000Z</time>
      </trkpt>
      <trkpt lat="47.85876" lon="7.12956">
        <ele>1036.8000488281</ele>
        <time>2019-11-10T09:00:37.000Z</time>
      </trkpt>
      <trkpt lat="47.85875" lon="7.12958">
        <ele>1037.1999511719</ele>
        <time>2019-11-10T09:00:38.000Z</time>
      </trkpt>
      <trkpt lat="47.85874" lon="7.1296">
        <ele>1037.5999755859</ele>
        <time>2019-11-10T09:00:39.000Z</time>
      </trkpt>
      <trkpt lat="47.85872" lon="7.12962">
        <ele>1038.1999511719</ele>
        <time>2019-11-10T09:00:40.000Z</time>
      </trkpt>
      <trkpt lat="47.85871" lon="7.12964">
        <ele>1039</ele>
        <time>2019-11-10T09:00:41.000Z</time>
      </trkpt>
      <trkpt lat="47.8587" lon="7.12966">
        <ele>1039.5999755859</ele>
        <time>2019-11-10T09:00:42.000Z</time>
      </trkpt>
      <trkpt lat="47.85869" lon="7.12968">
        <ele>1040</ele>
        <time>2019-11-10T09:00:43.000Z</time>
      </trkpt>
      <trkpt lat="47.85868" lon="7.12969">
        <ele>1040.4000244141</ele>
        <time>2019-11-10T09:00:44.000Z</time>
      </trkpt>
      <trkpt lat="47.85867" lon="7.12971">
        <ele>1040.8000488281</ele>
        <time>2019-11-10T09:00:45.000Z</time>
      </trkpt>
      <trkpt lat="47.85865" lon="7.12972">
        <ele>1041.1999511719</ele>
        <time>2019-11-10T09:00:46.000Z</time>
      </trkpt>
      <trkpt lat="47.85864" lon="7.12973">
        <ele>1041.8000488281</ele>
        <time>2019-11-10T09:00:47.000Z</time>
      </trkpt>
      <trkpt lat="47.85863" lon="7.12975">
        <ele>1042.1999511719</ele>
        <time>2019-11-10T09:00:48.000Z</time>
      </trkpt>
      <trkpt lat="47.85861" lon="7.12976">
        <ele>1042.8000488281</ele>
        <time>2019-11-10T09:00:49.000Z</time>
      </trkpt>
      <trkpt lat="47.8586" lon="7.12978">
        <ele>1043.1999511719</ele>
        <time>2019-11-10T09:00:50.000Z</time>
      </trkpt>
      <trkpt lat="47.85858" lon="7.12979">
        <ele>1043.8000488281</ele>
        <time>2019-11-10T09:00:51.000Z</time>
      </trkpt>
      <trkpt lat="47.85857" lon="7.1298">
        <ele>1044.4000244141</ele>
        <time>2019-11-10T09:00:52.000Z</time>
      </trkpt>
      <trkpt lat="47.85855" lon="7.12982">
        <ele>1044.8000488281</ele>
        <time>2019-11-10T09:00:53.000Z</time>
      </trkpt>
      <trkpt lat="47.85854" lon="7.12984">
        <ele>1045.4000244141</ele>
        <time>2019-11-10T09:00:54.000Z</time>
      </trkpt>
      <trkpt lat="47.85853" lon="7.12985">
        <ele>1046</ele>
        <time>2019-11-10T09:00:55.000Z</time>
      </trkpt>
      <trkpt lat="47.85851" lon="7.12986">
        <ele>1046.4000244141</ele>
        <time>2019-11-10T09:00:56.000Z</time>
      </trkpt>
      <trkpt lat="47.8585" lon="7.12987">
        <ele>1046.8000488281</ele>
        <time>2019-11-10T09:00:57.000Z</time>
      </trkpt>
      <trkpt lat="47.85849" lon="7.12988">
        <ele>1047.4000244141</ele>
        <time>2019-11-10T09:00:58.000Z</time>
      </trkpt>
      <trkpt lat="47.85848" lon="7.1299">
        <ele>1047.8000488281</ele>
        <time>2019-11-10T09:00:59.000Z</time>
      </trkpt>
      <trkpt lat="47.85846" lon="7.12991">
        <ele>1048.4000244141</ele>
        <time>2019-11-10T09:01:00.000Z</time>
      </trkpt>
      <trkpt lat="47.85845" lon="7.12991">
        <ele>1048.8000488281</ele>
        <time>2019-11-10T09:01:01.000Z</time>
      </trkpt>
      <trkpt lat="47.85843" lon="7.12992">
        <ele>1049.1999511719</ele>
        <time>2019-11-10T09:01:02.000Z</time>
      </trkpt>
      <trkpt lat="47.85842" lon="7.12995">
        <ele>1049.8000488281</ele>
        <time>2019-11-10T09:01:03.000Z</time>
      </trkpt>
      <trkpt lat="47.85841" lon="7.12996">
        <ele>1050.1999511719</ele>
        <time>2019-11-10T09:01:04.000Z</time>
      </trkpt>
      <trkpt lat="47.8584" lon="7.12997">
        <ele>1050.8000488281</ele>
        <time>2019-11-10T09:01:05.000Z</time>
      </trkpt>
      <trkpt lat="47.85839" lon="7.12997">
        <ele>1051.8000488281</ele>
        <time>2019-11-10T09:01:06.000Z</time>
      </trkpt>
      <trkpt lat="47.85837" lon="7.12999">
        <ele>1052.1999511719</ele>
        <time>2019-11-10T09:01:07.000Z</time>
      </trkpt>
      <trkpt lat="47.85836" lon="7.13001">
        <ele>1052.8000488281</ele>
        <time>2019-11-10T09:01:08.000Z</time>
      </trkpt>
      <trkpt lat="47.85835" lon="7.13002">
        <ele>1053.1999511719</ele>
        <time>2019-11-10T09:01:09.000Z</time>
      </trkpt>
      <trkpt lat="47.85833" lon="7.13003">
        <ele>1053.5999755859</ele>
        <time>2019-11-10T09:01:10.000Z</time>
      </trkpt>
      <trkpt lat="47.85832" lon="7.13004">
        <ele>1054.1999511719</ele>
        <time>2019-11-10T09:01:11.000Z</time>
      </trkpt>
      <trkpt lat="47.85831" lon="7.13006">
        <ele>1054.5999755859</ele>
        <time>2019-11-10T09:01:12.000Z</time>
      </trkpt>
      <trkpt lat="47.8583" lon="7.13008">
        <ele>1055</ele>
        <time>2019-11-10T09:01:13.000Z</time>
      </trkpt>
      <trkpt lat="47.85829" lon="7.13009">
        <ele>1055.5999755859</ele>
        <time>2019-11-10T09:01:14.000Z</time>
      </trkpt>
      <trkpt lat="47.85828" lon="7.13011">
        <ele>1056</ele>
        <time>2019-11-10T09:01:15.000Z</time>
      </trkpt>
      <trkpt lat="47.85827" lon="7.13013">
        <ele>1056.4000244141</ele>
        <time>2019-11-10T09:01:16.000Z</time>
      </trkpt>
      <trkpt lat="47.85826" lon="7.13015">
        <ele>1057</ele>
        <time>2019-11-10T09:01:17.000Z</time>
      </trkpt>
      <trkpt lat="47.85824" lon="7.13017">
        <ele>1057.5999755859</ele>
        <time>2019-11-10T09:01:18.000Z</time>
      </trkpt>
      <trkpt lat="47.85824" lon="7.13018">
        <ele>1058</ele>
        <time>2019-11-10T09:01:19.000Z</time>
      </trkpt>
      <trkpt lat="47.85823" lon="7.1302">
        <ele>1058.5999755859</ele>
        <time>2019-11-10T09:01:20.000Z</time>
      </trkpt>
      <trkpt lat="47.85822" lon="7.13021">
        <ele>1059.1999511719</ele>
        <time>2019-11-10T09:01:21.000Z</time>
      </trkpt>
      <trkpt lat="47.85821" lon="7.13023">
        <ele>1059.5999755859</ele>
        <time>2019-11-10T09:01:22.000Z</time>
      </trkpt>
      <trkpt lat="47.8582" lon="7.13024">
        <ele>1060.1999511719</ele>
        <time>2019-11-10T09:01:23.000Z</time>
      </trkpt>
      <trkpt lat="47.85819" lon="7.13026">
        <ele>1060.8000488281</ele>
        <time>2019-11-10T09:01:24.000Z</time>
      </trkpt>
      <trkpt lat="47.85818" lon="7.13028">
        <ele>1061.1999511719</ele>
        <time>2019-11-10T09:01:25.000Z</time>
      </trkpt>
      <trkpt lat="47.85816" lon="7.13029">
        <ele>1061.8000488281</ele>
        <time>2019-11-10T09:01:26.000Z</time>
      </trkpt>
      <trkpt lat="47.85815" lon="7.1303">
        <ele>1062.1999511719</ele>
        <time>2019-11-10T09:01:27.000Z</time>
      </trkpt>
      <trkpt lat="47.85814" lon="7.13032">
        <ele>1062.8000488281</ele>
        <time>2019-11-10T09:01:28.000Z</time>
      </trkpt>
      <trkpt lat="47.85813" lon="7.13033">
        <ele>1063.4000244141</ele>
        <time>2019-11-10T09:01:29.000Z</time>
      </trkpt>
      <trkpt lat="47.85811" lon="7.13035">
        <ele>1064.4000244141</ele>
        <time>2019-11-10T09:01:30.000Z</time>
      </trkpt>
      <trkpt lat="47.8581" lon="7.13036">
        <ele>1064.8000488281</ele>
        <time>2019-11-10T09:01:31.000Z</time>
      </trkpt>
      <trkpt lat="47.85808" lon="7.13036">
        <ele>1065.1999511719</ele>
        <time>2019-11-10T09:01:32.000Z</time>
      </trkpt>
      <trkpt lat="47.85806" lon="7.13037">
        <ele>1065.8000488281</ele>
        <time>2019-11-10T09:01:33.000Z</time>
      </trkpt>
      <trkpt lat="47.85804" lon="7.13038">
        <ele>1066.1999511719</ele>
        <time>2019-11-10T09:01:34.000Z</time>
      </trkpt>
      <trkpt lat="47.85803" lon="7.1304">
        <ele>1066.5999755859</ele>
        <time>2019-11-10T09:01:35.000Z</time>
      </trkpt>
      <trkpt lat="47.85802" lon="7.13041">
        <ele>1067</ele>
        <time>2019-11-10T09:01:36.000Z</time>
      </trkpt>
      <trkpt lat="47.85801" lon="7.13043">
        <ele>1067.4000244141</ele>
        <time>2019-11-10T09:01:37.000Z</time>
      </trkpt>
      <trkpt lat="47.85799" lon="7.13044">
        <ele>1067.8000488281</ele>
        <time>2019-11-10T09:01:38.000Z</time>
      </trkpt>
      <trkpt lat="47.85798" lon="7.13045">
        <ele>1068.1999511719</ele>
        <time>2019-11-10T09:01:39.000Z</time>
      </trkpt>
      <trkpt lat="47.85796" lon="7.13047">
        <ele>1068.5999755859</ele>
        <time>2019-11-10T09:01:40.000Z</time>
      </trkpt>
      <trkpt lat="47.85795" lon="7.13048">
        <ele>1069</ele>
        <time>2019-11-10T09:01:41.000Z</time>
      </trkpt>
      <trkpt lat="47.85794" lon="7.1305">
        <ele>1069.5999755859</ele>
        <time>2019-11-10T09:01:42.000Z</time>
      </trkpt>
      <trkpt lat="47.85793" lon="7.13052">
        <ele>1070</ele>
        <time>2019-11-10T09:01:43.000Z</time>
      </trkpt>
      <trkpt lat="47.85792" lon="7.13054">
        <ele>1070.4000244141</ele>
        <time>2019-11-10T09:01:44.000Z</time>
      </trkpt>
      <trkpt lat="47.8579" lon="7.13056">
        <ele>1071</ele>
        <time>2019-11-10T09:01:45.000Z</time>
      </trkpt>
      <trkpt lat="47.85788" lon="7.13057">
        <ele>1071.4000244141</ele>
        <time>2019-11-10T09:01:46.000Z</time>
      </trkpt>
      <trkpt lat="47.85787" lon="7.13058">
        <ele>1071.8000488281</ele>
        <time>2019-11-10T09:01:47.000Z</time>
      </trkpt>
      <trkpt lat="47.85786" lon="7.1306">
        <ele>1072.4000244141</ele>
        <time>2019-11-10T09:01:48.000Z</time>
      </trkpt>
      <trkpt lat="47.85785" lon="7.13062">
        <ele>1072.8000488281</ele>
        <time>2019-11-10T09:01:49.000Z</time>
      </trkpt>
      <trkpt lat="47.85784" lon="7.13064">
        <ele>1073.1999511719</ele>
        <time>2019-11-10T09:01:50.000Z</time>
      </trkpt>
      <trkpt lat="47.85783" lon="7.13066">
        <ele>1073.8000488281</ele>
        <time>2019-11-10T09:01:51.000Z</time>
      </trkpt>
      <trkpt lat="47.85782" lon="7.13068">
        <ele>1074.1999511719</ele>
        <time>2019-11-10T09:01:52.000Z</time>
      </trkpt>
      <trkpt lat="47.85781" lon="7.13069">
        <ele>1074.5999755859</ele>
        <time>2019-11-10T09:01:53.000Z</time>
      </trkpt>
      <trkpt lat="47.85779" lon="7.13071">
        <ele>1075</ele>
        <time>2019-11-10T09:01:54.000Z</time>
      </trkpt>
      <trkpt lat="47.85778" lon="7.13072">
        <ele>1076</ele>
        <time>2019-11-10T09:01:55.000Z</time>
      </trkpt>
      <trkpt lat="47.85777" lon="7.13073">
        <ele>1076.4000244141</ele>
        <time>2019-11-10T09:01:56.000Z</time>
      </trkpt>
      <trkpt lat="47.85776" lon="7.13075">
        <ele>1076.8000488281</ele>
        <time>2019-11-10T09:01:57.000Z</time>
      </trkpt>
      <trkpt lat="47.85775" lon="7.13078">
        <ele>1077.4000244141</ele>
        <time>2019-11-10T09:01:58.000Z</time>
      </trkpt>
      <trkpt lat="47.85774" lon="7.13081">
        <ele>1078</ele>
        <time>2019-11-10T09:01:59.000Z</time>
      </trkpt>
      <trkpt lat="47.85774" lon="7.13083">
        <ele>1078.4000244141</ele>
        <time>2019-11-10T09:02:00.000Z</time>
      </trkpt>
      <trkpt lat="47.85773" lon="7.13085">
        <ele>1079</ele>
        <time>2019-11-10T09:02:01.000Z</time>
      </trkpt>
      <trkpt lat="47.85772" lon="7.13087">
        <ele>1079.4000244141</ele>
        <time>2019-11-10T09:02:02.000Z</time>
      </trkpt>
      <trkpt lat="47.85771" lon="7.13089">
        <ele>1079.8000488281</ele>
        <time>2019-11-10T09:02:03.000Z</time>
      </trkpt>
      <trkpt lat="47.85771" lon="7.13091">
        <ele>1080.4000244141</ele>
        <time>2019-11-10T09:02:04.000Z</time>
      </trkpt>
      <trkpt lat="47.8577" lon="7.13093">
        <ele>1080.8000488281</ele>
        <time>2019-11-10T09:02:05.000Z</time>
      </trkpt>
      <trkpt lat="47.85769" lon="7.13095">
        <ele>1081.1999511719</ele>
        <time>2019-11-10T09:02:06.000Z</time>
      </trkpt>
      <trkpt lat="47.85769" lon="7.13097">
        <ele>1081.5999755859</ele>
        <time>2019-11-10T09:02:07.000Z</time>
      </trkpt>
      <trkpt lat="47.85768" lon="7.13099">
        <ele>1082</ele>
        <time>2019-11-10T09:02:08.000Z</time>
      </trkpt>
      <trkpt lat="47.85768" lon="7.13102">
        <ele>1082.4000244141</ele>
        <time>2019-11-10T09:02:09.000Z</time>
      </trkpt>
      <trkpt lat="47.85768" lon="7.13104">
        <ele>1082.8000488281</ele>
        <time>2019-11-10T09:02:10.000Z</time>
      </trkpt>
      <trkpt lat="47.85768" lon="7.13107">
        <ele>1083.1999511719</ele>
        <time>2019-11-10T09:02:11.000Z</time>
      </trkpt>
      <trkpt lat="47.85769" lon="7.1311">
        <ele>1083.5999755859</ele>
        <time>2019-11-10T09:02:12.000Z</time>
      </trkpt>
      <trkpt lat="47.85769" lon="7.13113">
        <ele>1084</ele>
        <time>2019-11-10T09:02:13.000Z</time>
      </trkpt>
      <trkpt lat="47.85769" lon="7.13114">
        <ele>1084.4000244141</ele>
        <time>2019-11-10T09:02:14.000Z</time>
      </trkpt>
      <trkpt lat="47.8577" lon="7.13115">
        <ele>1084.8000488281</ele>
        <time>2019-11-10T09:02:15.000Z</time>
      </trkpt>
      <trkpt lat="47.85769" lon="7.13117">
        <ele>1085.1999511719</ele>
        <time>2019-11-10T09:02:16.000Z</time>
      </trkpt>
      <trkpt lat="47.85768" lon="7.13119">
        <ele>1085.1999511719</ele>
        <time>2019-11-10T09:02:17.000Z</time>
      </trkpt>
      <trkpt lat="47.85766" lon="7.13123">
        <ele>1085.5999755859</ele>
        <time>2019-11-10T09:02:20.000Z</time>
      </trkpt>
      <trkpt lat="47.85766" lon="7.13125">
        <ele>1086</ele>
        <time>2019-11-10T09:02:21.000Z</time>
      </trkpt>
      <trkpt lat="47.85765" lon="7.13127">
        <ele>1086.4000244141</ele>
        <time>2019-11-10T09:02:22.000Z</time>
      </trkpt>
      <trkpt lat="47.85765" lon="7.13128">
        <ele>1087</ele>
        <time>2019-11-10T09:02:23.000Z</time>
      </trkpt>
      <trkpt lat="47.85765" lon="7.1313">
        <ele>1087.4000244141</ele>
        <time>2019-11-10T09:02:24.000Z</time>
      </trkpt>
      <trkpt lat="47.85765" lon="7.13132">
        <ele>1087.4000244141</ele>
        <time>2019-11-10T09:02:26.000Z</time>
      </trkpt>
      <trkpt lat="47.85765" lon="7.13145">
        <ele>1089.4000244141</ele>
        <time>2019-11-10T09:04:37.000Z</time>
      </trkpt>
      <trkpt lat="47.85766" lon="7.13149">
        <ele>1089.4000244141</ele>
        <time>2019-11-10T09:04:38.000Z</time>
      </trkpt>
      <trkpt lat="47.85766" lon="7.13153">
        <ele>1089.4000244141</ele>
        <time>2019-11-10T09:04:40.000Z</time>
      </trkpt>
      <trkpt lat="47.85767" lon="7.13165">
        <ele>1089.4000244141</ele>
        <time>2019-11-10T09:04:45.000Z</time>
      </trkpt>
      <trkpt lat="47.85767" lon="7.13172">
        <ele>1089.4000244141</ele>
        <time>2019-11-10T09:04:49.000Z</time>
      </trkpt>
      <trkpt lat="47.85767" lon="7.13174">
        <ele>1089.4000244141</ele>
        <time>2019-11-10T09:06:07.000Z</time>
      </trkpt>
      <trkpt lat="47.85769" lon="7.1318">
        <ele>1089</ele>
        <time>2019-11-10T09:06:11.000Z</time>
      </trkpt>
      <trkpt lat="47.85769" lon="7.13182">
        <ele>1088.5999755859</ele>
        <time>2019-11-10T09:06:12.000Z</time>
      </trkpt>
      <trkpt lat="47.8577" lon="7.13184">
        <ele>1088.1999511719</ele>
        <time>2019-11-10T09:06:13.000Z</time>
      </trkpt>
      <trkpt lat="47.85769" lon="7.13187">
        <ele>1087.8000488281</ele>
        <time>2019-11-10T09:06:14.000Z</time>
      </trkpt>
      <trkpt lat="47.85769" lon="7.13188">
        <ele>1087.4000244141</ele>
        <time>2019-11-10T09:06:15.000Z</time>
      </trkpt>
      <trkpt lat="47.85769" lon="7.13191">
        <ele>1087.4000244141</ele>
        <time>2019-11-10T09:06:16.000Z</time>
      </trkpt>
      <trkpt lat="47.85768" lon="7.1321">
        <ele>1087.4000244141</ele>
        <time>2019-11-10T09:06:22.000Z</time>
      </trkpt>
      <trkpt lat="47.85768" lon="7.13215">
        <ele>1087.4000244141</ele>
        <time>2019-11-10T09:06:25.000Z</time>
      </trkpt>
      <trkpt lat="47.85768" lon="7.1322">
        <ele>1086.5999755859</ele>
        <time>2019-11-10T09:06:30.000Z</time>
      </trkpt>
      <trkpt lat="47.8577" lon="7.13223">
        <ele>1086.1999511719</ele>
        <time>2019-11-10T09:06:31.000Z</time>
      </trkpt>
      <trkpt lat="47.8577" lon="7.13228">
        <ele>1085.5999755859</ele>
        <time>2019-11-10T09:06:32.000Z</time>
      </trkpt>
      <trkpt lat="47.8577" lon="7.1323">
        <ele>1085.1999511719</ele>
        <time>2019-11-10T09:06:33.000Z</time>
      </trkpt>
      <trkpt lat="47.85771" lon="7.13232">
        <ele>1084.5999755859</ele>
        <time>2019-11-10T09:06:34.000Z</time>
      </trkpt>
      <trkpt lat="47.85772" lon="7.13236">
        <ele>1084.1999511719</ele>
        <time>2019-11-10T09:06:35.000Z</time>
      </trkpt>
      <trkpt lat="47.85773" lon="7.13242">
        <ele>1083.5999755859</ele>
        <time>2019-11-10T09:06:36.000Z</time>
      </trkpt>
      <trkpt lat="47.85773" lon="7.13246">
        <ele>1083</ele>
        <time>2019-11-10T09:06:37.000Z</time>
      </trkpt>
      <trkpt lat="47.85774" lon="7.13251">
        <ele>1082.5999755859</ele>
        <time>2019-11-10T09:06:38.000Z</time>
      </trkpt>
      <trkpt lat="47.85774" lon="7.13253">
        <ele>1082</ele>
        <time>2019-11-10T09:06:39.000Z</time>
      </trkpt>
      <trkpt lat="47.85775" lon="7.13256">
        <ele>1081.4000244141</ele>
        <time>2019-11-10T09:06:40.000Z</time>
      </trkpt>
      <trkpt lat="47.85775" lon="7.1326">
        <ele>1080.8000488281</ele>
        <time>2019-11-10T09:06:41.000Z</time>
      </trkpt>
      <trkpt lat="47.85775" lon="7.13264">
        <ele>1080.1999511719</ele>
        <time>2019-11-10T09:06:42.000Z</time>
      </trkpt>
      <trkpt lat="47.85774" lon="7.13269">
        <ele>1079.8000488281</ele>
        <time>2019-11-10T09:06:43.000Z</time>
      </trkpt>
      <trkpt lat="47.85776" lon="7.13273">
        <ele>1079.1999511719</ele>
        <time>2019-11-10T09:06:44.000Z</time>
      </trkpt>
      <trkpt lat="47.85778" lon="7.13277">
        <ele>1078.5999755859</ele>
        <time>2019-11-10T09:06:45.000Z</time>
      </trkpt>
      <trkpt lat="47.85779" lon="7.13282">
        <ele>1078</ele>
        <time>2019-11-10T09:06:46.000Z</time>
      </trkpt>
      <trkpt lat="47.85778" lon="7.13288">
        <ele>1077.5999755859</ele>
        <time>2019-11-10T09:06:47.000Z</time>
      </trkpt>
      <trkpt lat="47.85778" lon="7.13293">
        <ele>1077</ele>
        <time>2019-11-10T09:06:48.000Z</time>
      </trkpt>
      <trkpt lat="47.85777" lon="7.13297">
        <ele>1076.4000244141</ele>
        <time>2019-11-10T09:06:49.000Z</time>
      </trkpt>
      <trkpt lat="47.85777" lon="7.13303">
        <ele>1075</ele>
        <time>2019-11-10T09:06:50.000Z</time>
      </trkpt>
      <trkpt lat="47.85776" lon="7.13308">
        <ele>1074.4000244141</ele>
        <time>2019-11-10T09:06:51.000Z</time>
      </trkpt>
      <trkpt lat="47.85774" lon="7.13313">
        <ele>1073.5999755859</ele>
        <time>2019-11-10T09:06:52.000Z</time>
      </trkpt>
      <trkpt lat="47.85774" lon="7.13318">
        <ele>1073</ele>
        <time>2019-11-10T09:06:53.000Z</time>
      </trkpt>
      <trkpt lat="47.85775" lon="7.1332">
        <ele>1072.1999511719</ele>
        <time>2019-11-10T09:06:54.000Z</time>
      </trkpt>
      <trkpt lat="47.85776" lon="7.13324">
        <ele>1071.5999755859</ele>
        <time>2019-11-10T09:06:55.000Z</time>
      </trkpt>
      <trkpt lat="47.85777" lon="7.13328">
        <ele>1071.1999511719</ele>
        <time>2019-11-10T09:06:56.000Z</time>
      </trkpt>
      <trkpt lat="47.85778" lon="7.13333">
        <ele>1070.5999755859</ele>
        <time>2019-11-10T09:06:57.000Z</time>
      </trkpt>
      <trkpt lat="47.85777" lon="7.13336">
        <ele>1070.1999511719</ele>
        <time>2019-11-10T09:06:58.000Z</time>
      </trkpt>
      <trkpt lat="47.85776" lon="7.1334">
        <ele>1069.8000488281</ele>
        <time>2019-11-10T09:06:59.000Z</time>
      </trkpt>
      <trkpt lat="47.85776" lon="7.13345">
        <ele>1069.1999511719</ele>
        <time>2019-11-10T09:07:00.000Z</time>
      </trkpt>
      <trkpt lat="47.85776" lon="7.13349">
        <ele>1068.5999755859</ele>
        <time>2019-11-10T09:07:01.000Z</time>
      </trkpt>
      <trkpt lat="47.85776" lon="7.13353">
        <ele>1068</ele>
        <time>2019-11-10T09:07:02.000Z</time>
      </trkpt>
      <trkpt lat="47.85775" lon="7.13356">
        <ele>1067.1999511719</ele>
        <time>2019-11-10T09:07:03.000Z</time>
      </trkpt>
      <trkpt lat="47.85774" lon="7.13361">
        <ele>1066.5999755859</ele>
        <time>2019-11-10T09:07:04.000Z</time>
      </trkpt>
      <trkpt lat="47.85773" lon="7.13365">
        <ele>1065.8000488281</ele>
        <time>2019-11-10T09:07:05.000Z</time>
      </trkpt>
      <trkpt lat="47.85772" lon="7.13369">
        <ele>1065.1999511719</ele>
        <time>2019-11-10T09:07:06.000Z</time>
      </trkpt>
      <trkpt lat="47.85772" lon="7.13374">
        <ele>1064.4000244141</ele>
        <time>2019-11-10T09:07:07.000Z</time>
      </trkpt>
      <trkpt lat="47.85771" lon="7.13379">
        <ele>1063.8000488281</ele>
        <time>2019-11-10T09:07:08.000Z</time>
      </trkpt>
      <trkpt lat="47.8577" lon="7.13384">
        <ele>1062.8000488281</ele>
        <time>2019-11-10T09:07:09.000Z</time>
      </trkpt>
      <trkpt lat="47.8577" lon="7.1339">
        <ele>1062</ele>
        <time>2019-11-10T09:07:10.000Z</time>
      </trkpt>
      <trkpt lat="47.8577" lon="7.13395">
        <ele>1061</ele>
        <time>2019-11-10T09:07:11.000Z</time>
      </trkpt>
      <trkpt lat="47.8577" lon="7.13399">
        <ele>1060</ele>
        <time>2019-11-10T09:07:12.000Z</time>
      </trkpt>
      <trkpt lat="47.85771" lon="7.13404">
        <ele>1058.8000488281</ele>
        <time>2019-11-10T09:07:13.000Z</time>
      </trkpt>
      <trkpt lat="47.85771" lon="7.13407">
        <ele>1057.8000488281</ele>
        <time>2019-11-10T09:07:14.000Z</time>
      </trkpt>
      <trkpt lat="47.85772" lon="7.13411">
        <ele>1055.5999755859</ele>
        <time>2019-11-10T09:07:15.000Z</time>
      </trkpt>
      <trkpt lat="47.85773" lon="7.13415">
        <ele>1054.5999755859</ele>
        <time>2019-11-10T09:07:16.000Z</time>
      </trkpt>
      <trkpt lat="47.85773" lon="7.13419">
        <ele>1053.4000244141</ele>
        <time>2019-11-10T09:07:17.000Z</time>
      </trkpt>
      <trkpt lat="47.85773" lon="7.13424">
        <ele>1052.4000244141</ele>
        <time>2019-11-10T09:07:18.000Z</time>
      </trkpt>
      <trkpt lat="47.85772" lon="7.1343">
        <ele>1051.1999511719</ele>
        <time>2019-11-10T09:07:19.000Z</time>
      </trkpt>
      <trkpt lat="47.85771" lon="7.13435">
        <ele>1050.1999511719</ele>
        <time>2019-11-10T09:07:20.000Z</time>
      </trkpt>
      <trkpt lat="47.85771" lon="7.1344">
        <ele>1049.1999511719</ele>
        <time>2019-11-10T09:07:21.000Z</time>
      </trkpt>
      <trkpt lat="47.85772" lon="7.13445">
        <ele>1048.4000244141</ele>
        <time>2019-11-10T09:07:22.000Z</time>
      </trkpt>
      <trkpt lat="47.85772" lon="7.13451">
        <ele>1047.4000244141</ele>
        <time>2019-11-10T09:07:23.000Z</time>
      </trkpt>
      <trkpt lat="47.85772" lon="7.13457">
        <ele>1046.5999755859</ele>
        <time>2019-11-10T09:07:24.000Z</time>
      </trkpt>
      <trkpt lat="47.85773" lon="7.13462">
        <ele>1045.8000488281</ele>
        <time>2019-11-10T09:07:25.000Z</time>
      </trkpt>
      <trkpt lat="47.85774" lon="7.13467">
        <ele>1044.8000488281</ele>
        <time>2019-11-10T09:07:26.000Z</time>
      </trkpt>
      <trkpt lat="47.85774" lon="7.13471">
        <ele>1044</ele>
        <time>2019-11-10T09:07:27.000Z</time>
      </trkpt>
      <trkpt lat="47.85775" lon="7.13475">
        <ele>1043.4000244141</ele>
        <time>2019-11-10T09:07:28.000Z</time>
      </trkpt>
      <trkpt lat="47.85775" lon="7.1348">
        <ele>1042.8000488281</ele>
        <time>2019-11-10T09:07:29.000Z</time>
      </trkpt>
      <trkpt lat="47.85777" lon="7.13486">
        <ele>1042.1999511719</ele>
        <time>2019-11-10T09:07:30.000Z</time>
      </trkpt>
      <trkpt lat="47.85777" lon="7.13489">
        <ele>1041.5999755859</ele>
        <time>2019-11-10T09:07:31.000Z</time>
      </trkpt>
      <trkpt lat="47.85778" lon="7.13495">
        <ele>1041</ele>
        <time>2019-11-10T09:07:32.000Z</time>
      </trkpt>
      <trkpt lat="47.85777" lon="7.135">
        <ele>1040.4000244141</ele>
        <time>2019-11-10T09:07:33.000Z</time>
      </trkpt>
      <trkpt lat="47.85777" lon="7.13504">
        <ele>1039.8000488281</ele>
        <time>2019-11-10T09:07:34.000Z</time>
      </trkpt>
      <trkpt lat="47.85779" lon="7.1351">
        <ele>1039.1999511719</ele>
        <time>2019-11-10T09:07:35.000Z</time>
      </trkpt>
      <trkpt lat="47.8578" lon="7.13514">
        <ele>1038.5999755859</ele>
        <time>2019-11-10T09:07:36.000Z</time>
      </trkpt>
      <trkpt lat="47.8578" lon="7.13524">
        <ele>1038.1999511719</ele>
        <time>2019-11-10T09:07:38.000Z</time>
      </trkpt>
      <trkpt lat="47.85781" lon="7.13529">
        <ele>1037.8000488281</ele>
        <time>2019-11-10T09:07:39.000Z</time>
      </trkpt>
      <trkpt lat="47.85781" lon="7.13534">
        <ele>1037</ele>
        <time>2019-11-10T09:07:40.000Z</time>
      </trkpt>
      <trkpt lat="47.85782" lon="7.13542">
        <ele>1036.4000244141</ele>
        <time>2019-11-10T09:07:41.000Z</time>
      </trkpt>
      <trkpt lat="47.85782" lon="7.13548">
        <ele>1035.8000488281</ele>
        <time>2019-11-10T09:07:42.000Z</time>
      </trkpt>
      <trkpt lat="47.85784" lon="7.13556">
        <ele>1035.4000244141</ele>
        <time>2019-11-10T09:07:43.000Z</time>
      </trkpt>
      <trkpt lat="47.85786" lon="7.13563">
        <ele>1034.8000488281</ele>
        <time>2019-11-10T09:07:44.000Z</time>
      </trkpt>
      <trkpt lat="47.85785" lon="7.1357">
        <ele>1034.1999511719</ele>
        <time>2019-11-10T09:07:45.000Z</time>
      </trkpt>
      <trkpt lat="47.85785" lon="7.13574">
        <ele>1033.5999755859</ele>
        <time>2019-11-10T09:07:46.000Z</time>
      </trkpt>
      <trkpt lat="47.85784" lon="7.13578">
        <ele>1033.1999511719</ele>
        <time>2019-11-10T09:07:47.000Z</time>
      </trkpt>
      <trkpt lat="47.85784" lon="7.13581">
        <ele>1032.5999755859</ele>
        <time>2019-11-10T09:07:48.000Z</time>
      </trkpt>
      <trkpt lat="47.85784" lon="7.13584">
        <ele>1032.1999511719</ele>
        <time>2019-11-10T09:07:49.000Z</time>
      </trkpt>
      <trkpt lat="47.85784" lon="7.13591">
        <ele>1032.1999511719</ele>
        <time>2019-11-10T09:07:51.000Z</time>
      </trkpt>
      <trkpt lat="47.85785" lon="7.13595">
        <ele>1032.1999511719</ele>
        <time>2019-11-10T09:07:52.000Z</time>
      </trkpt>
      <trkpt lat="47.85786" lon="7.13599">
        <ele>1032.1999511719</ele>
        <time>2019-11-10T09:07:53.000Z</time>
      </trkpt>
      <trkpt lat="47.85788" lon="7.13606">
        <ele>1032.1999511719</ele>
        <time>2019-11-10T09:07:55.000Z</time>
      </trkpt>
      <trkpt lat="47.85788" lon="7.13618">
        <ele>1031.5999755859</ele>
        <time>2019-11-10T09:07:57.000Z</time>
      </trkpt>
      <trkpt lat="47.85788" lon="7.13623">
        <ele>1031.1999511719</ele>
        <time>2019-11-10T09:07:58.000Z</time>
      </trkpt>
      <trkpt lat="47.85787" lon="7.13629">
        <ele>1030.5999755859</ele>
        <time>2019-11-10T09:07:59.000Z</time>
      </trkpt>
      <trkpt lat="47.85787" lon="7.13633">
        <ele>1030.1999511719</ele>
        <time>2019-11-10T09:08:00.000Z</time>
      </trkpt>
      <trkpt lat="47.85787" lon="7.13638">
        <ele>1029.5999755859</ele>
        <time>2019-11-10T09:08:01.000Z</time>
      </trkpt>
      <trkpt lat="47.85786" lon="7.13643">
        <ele>1029.1999511719</ele>
        <time>2019-11-10T09:08:02.000Z</time>
      </trkpt>
      <trkpt lat="47.85786" lon="7.13648">
        <ele>1028.5999755859</ele>
        <time>2019-11-10T09:08:03.000Z</time>
      </trkpt>
      <trkpt lat="47.85786" lon="7.13654">
        <ele>1028</ele>
        <time>2019-11-10T09:08:04.000Z</time>
      </trkpt>
      <trkpt lat="47.85787" lon="7.1366">
        <ele>1026.8000488281</ele>
        <time>2019-11-10T09:08:05.000Z</time>
      </trkpt>
      <trkpt lat="47.85787" lon="7.13665">
        <ele>1026</ele>
        <time>2019-11-10T09:08:06.000Z</time>
      </trkpt>
      <trkpt lat="47.85788" lon="7.1367">
        <ele>1025.4000244141</ele>
        <time>2019-11-10T09:08:07.000Z</time>
      </trkpt>
      <trkpt lat="47.85788" lon="7.13675">
        <ele>1024.5999755859</ele>
        <time>2019-11-10T09:08:08.000Z</time>
      </trkpt>
      <trkpt lat="47.8579" lon="7.1368">
        <ele>1023.799987793</ele>
        <time>2019-11-10T09:08:09.000Z</time>
      </trkpt>
      <trkpt lat="47.85792" lon="7.13684">
        <ele>1023.200012207</ele>
        <time>2019-11-10T09:08:10.000Z</time>
      </trkpt>
      <trkpt lat="47.85793" lon="7.13687">
        <ele>1022.5999755859</ele>
        <time>2019-11-10T09:08:11.000Z</time>
      </trkpt>
      <trkpt lat="47.85793" lon="7.13687">
        <ele>1022</ele>
        <time>2019-11-10T09:08:12.000Z</time>
      </trkpt>
      <trkpt lat="47.85792" lon="7.13697">
        <ele>1020.799987793</ele>
        <time>2019-11-10T09:08:18.000Z</time>
      </trkpt>
      <trkpt lat="47.85793" lon="7.137">
        <ele>1020.4000244141</ele>
        <time>2019-11-10T09:08:19.000Z</time>
      </trkpt>
      <trkpt lat="47.85793" lon="7.13703">
        <ele>1020</ele>
        <time>2019-11-10T09:08:20.000Z</time>
      </trkpt>
      <trkpt lat="47.85794" lon="7.13706">
        <ele>1019.4000244141</ele>
        <time>2019-11-10T09:08:21.000Z</time>
      </trkpt>
      <trkpt lat="47.85794" lon="7.13707">
        <ele>1018.799987793</ele>
        <time>2019-11-10T09:08:22.000Z</time>
      </trkpt>
      <trkpt lat="47.85796" lon="7.13708">
        <ele>1018.200012207</ele>
        <time>2019-11-10T09:08:23.000Z</time>
      </trkpt>
      <trkpt lat="47.85796" lon="7.1371">
        <ele>1017.799987793</ele>
        <time>2019-11-10T09:08:24.000Z</time>
      </trkpt>
      <trkpt lat="47.85797" lon="7.13711">
        <ele>1017.200012207</ele>
        <time>2019-11-10T09:08:25.000Z</time>
      </trkpt>
      <trkpt lat="47.85797" lon="7.13711">
        <ele>1016.5999755859</ele>
        <time>2019-11-10T09:08:26.000Z</time>
      </trkpt>
      <trkpt lat="47.85793" lon="7.13723">
        <ele>1012.4000244141</ele>
        <time>2019-11-10T09:09:05.000Z</time>
      </trkpt>
      <trkpt lat="47.85791" lon="7.13728">
        <ele>1012</ele>
        <time>2019-11-10T09:09:06.000Z</time>
      </trkpt>
      <trkpt lat="47.85791" lon="7.1373">
        <ele>1011.5999755859</ele>
        <time>2019-11-10T09:09:07.000Z</time>
      </trkpt>
      <trkpt lat="47.8579" lon="7.13732">
        <ele>1011.200012207</ele>
        <time>2019-11-10T09:09:08.000Z</time>
      </trkpt>
      <trkpt lat="47.8579" lon="7.13736">
        <ele>1010.799987793</ele>
        <time>2019-11-10T09:09:09.000Z</time>
      </trkpt>
      <trkpt lat="47.85789" lon="7.13741">
        <ele>1010.200012207</ele>
        <time>2019-11-10T09:09:10.000Z</time>
      </trkpt>
      <trkpt lat="47.85788" lon="7.13746">
        <ele>1009.799987793</ele>
        <time>2019-11-10T09:09:11.000Z</time>
      </trkpt>
      <trkpt lat="47.85787" lon="7.13752">
        <ele>1009.200012207</ele>
        <time>2019-11-10T09:09:12.000Z</time>
      </trkpt>
      <trkpt lat="47.85786" lon="7.13757">
        <ele>1008.5999755859</ele>
        <time>2019-11-10T09:09:13.000Z</time>
      </trkpt>
      <trkpt lat="47.85786" lon="7.13759">
        <ele>1008.200012207</ele>
        <time>2019-11-10T09:09:14.000Z</time>
      </trkpt>
      <trkpt lat="47.85785" lon="7.13765">
        <ele>1007.5999755859</ele>
        <time>2019-11-10T09:09:15.000Z</time>
      </trkpt>
      <trkpt lat="47.85784" lon="7.1377">
        <ele>1007.200012207</ele>
        <time>2019-11-10T09:09:16.000Z</time>
      </trkpt>
      <trkpt lat="47.85784" lon="7.13774">
        <ele>1006.5999755859</ele>
        <time>2019-11-10T09:09:17.000Z</time>
      </trkpt>
      <trkpt lat="47.85783" lon="7.13776">
        <ele>1006</ele>
        <time>2019-11-10T09:09:18.000Z</time>
      </trkpt>
      <trkpt lat="47.85783" lon="7.13779">
        <ele>1006</ele>
        <time>2019-11-10T09:09:19.000Z</time>
      </trkpt>
      <trkpt lat="47.85783" lon="7.13785">
        <ele>1006</ele>
        <time>2019-11-10T09:09:23.000Z</time>
      </trkpt>
      <trkpt lat="47.85777" lon="7.13802">
        <ele>1006</ele>
        <time>2019-11-10T09:11:15.000Z</time>
      </trkpt>
      <trkpt lat="47.85776" lon="7.13809">
        <ele>1005.5999755859</ele>
        <time>2019-11-10T09:11:17.000Z</time>
      </trkpt>
      <trkpt lat="47.85775" lon="7.13813">
        <ele>1005.200012207</ele>
        <time>2019-11-10T09:11:18.000Z</time>
      </trkpt>
      <trkpt lat="47.85775" lon="7.13816">
        <ele>1004.799987793</ele>
        <time>2019-11-10T09:11:19.000Z</time>
      </trkpt>
      <trkpt lat="47.85776" lon="7.13818">
        <ele>1004.4000244141</ele>
        <time>2019-11-10T09:11:20.000Z</time>
      </trkpt>
      <trkpt lat="47.85775" lon="7.13824">
        <ele>1004</ele>
        <time>2019-11-10T09:11:21.000Z</time>
      </trkpt>
      <trkpt lat="47.85774" lon="7.1383">
        <ele>1004</ele>
        <time>2019-11-10T09:11:22.000Z</time>
      </trkpt>
      <trkpt lat="47.85775" lon="7.13836">
        <ele>1004</ele>
        <time>2019-11-10T09:11:24.000Z</time>
      </trkpt>
      <trkpt lat="47.85774" lon="7.1384">
        <ele>1004</ele>
        <time>2019-11-10T09:11:25.000Z</time>
      </trkpt>
      <trkpt lat="47.85775" lon="7.13848">
        <ele>1003.5999755859</ele>
        <time>2019-11-10T09:11:27.000Z</time>
      </trkpt>
      <trkpt lat="47.85774" lon="7.13852">
        <ele>1003.200012207</ele>
        <time>2019-11-10T09:11:28.000Z</time>
      </trkpt>
      <trkpt lat="47.85773" lon="7.13856">
        <ele>1002.799987793</ele>
        <time>2019-11-10T09:11:29.000Z</time>
      </trkpt>
      <trkpt lat="47.85771" lon="7.13859">
        <ele>1002.4000244141</ele>
        <time>2019-11-10T09:11:30.000Z</time>
      </trkpt>
      <trkpt lat="47.85771" lon="7.13861">
        <ele>1002</ele>
        <time>2019-11-10T09:11:31.000Z</time>
      </trkpt>
      <trkpt lat="47.8577" lon="7.13863">
        <ele>1002</ele>
        <time>2019-11-10T09:11:33.000Z</time>
      </trkpt>
      <trkpt lat="47.8577" lon="7.13867">
        <ele>1002</ele>
        <time>2019-11-10T09:11:34.000Z</time>
      </trkpt>
      <trkpt lat="47.85768" lon="7.13871">
        <ele>1002</ele>
        <time>2019-11-10T09:12:23.000Z</time>
      </trkpt>
      <trkpt lat="47.85766" lon="7.13875">
        <ele>1002</ele>
        <time>2019-11-10T09:12:24.000Z</time>
      </trkpt>
      <trkpt lat="47.85762" lon="7.1388">
        <ele>1001.5999755859</ele>
        <time>2019-11-10T09:12:25.000Z</time>
      </trkpt>
      <trkpt lat="47.8576" lon="7.13884">
        <ele>1001.200012207</ele>
        <time>2019-11-10T09:12:26.000Z</time>
      </trkpt>
      <trkpt lat="47.85757" lon="7.13889">
        <ele>1000.5999755859</ele>
        <time>2019-11-10T09:12:27.000Z</time>
      </trkpt>
      <trkpt lat="47.85754" lon="7.13897">
        <ele>1000</ele>
        <time>2019-11-10T09:12:28.000Z</time>
      </trkpt>
      <trkpt lat="47.85751" lon="7.13906">
        <ele>999.20001220703</ele>
        <time>2019-11-10T09:12:29.000Z</time>
      </trkpt>
      <trkpt lat="47.85749" lon="7.13914">
        <ele>998.59997558594</ele>
        <time>2019-11-10T09:12:30.000Z</time>
      </trkpt>
      <trkpt lat="47.85749" lon="7.13921">
        <ele>997.79998779297</ele>
        <time>2019-11-10T09:12:31.000Z</time>
      </trkpt>
      <trkpt lat="47.85748" lon="7.13929">
        <ele>997</ele>
        <time>2019-11-10T09:12:32.000Z</time>
      </trkpt>
      <trkpt lat="47.85748" lon="7.13937">
        <ele>996.20001220703</ele>
        <time>2019-11-10T09:12:33.000Z</time>
      </trkpt>
      <trkpt lat="47.85748" lon="7.13944">
        <ele>995.40002441406</ele>
        <time>2019-11-10T09:12:34.000Z</time>
      </trkpt>
      <trkpt lat="47.85748" lon="7.13952">
        <ele>994.79998779297</ele>
        <time>2019-11-10T09:12:35.000Z</time>
      </trkpt>
      <trkpt lat="47.85748" lon="7.13963">
        <ele>993.59997558594</ele>
        <time>2019-11-10T09:12:36.000Z</time>
      </trkpt>
      <trkpt lat="47.85747" lon="7.13972">
        <ele>992.79998779297</ele>
        <time>2019-11-10T09:12:37.000Z</time>
      </trkpt>
      <trkpt lat="47.85748" lon="7.13981">
        <ele>992.20001220703</ele>
        <time>2019-11-10T09:12:38.000Z</time>
      </trkpt>
      <trkpt lat="47.85751" lon="7.13989">
        <ele>991.40002441406</ele>
        <time>2019-11-10T09:12:39.000Z</time>
      </trkpt>
      <trkpt lat="47.85751" lon="7.13998">
        <ele>990.79998779297</ele>
        <time>2019-11-10T09:12:40.000Z</time>
      </trkpt>
      <trkpt lat="47.85752" lon="7.14007">
        <ele>990.20001220703</ele>
        <time>2019-11-10T09:12:41.000Z</time>
      </trkpt>
      <trkpt lat="47.8575" lon="7.14016">
        <ele>989.59997558594</ele>
        <time>2019-11-10T09:12:42.000Z</time>
      </trkpt>
      <trkpt lat="47.85748" lon="7.14025">
        <ele>988.79998779297</ele>
        <time>2019-11-10T09:12:43.000Z</time>
      </trkpt>
      <trkpt lat="47.85746" lon="7.14033">
        <ele>988</ele>
        <time>2019-11-10T09:12:44.000Z</time>
      </trkpt>
      <trkpt lat="47.85743" lon="7.1404">
        <ele>987.20001220703</ele>
        <time>2019-11-10T09:12:45.000Z</time>
      </trkpt>
      <trkpt lat="47.8574" lon="7.14048">
        <ele>986.59997558594</ele>
        <time>2019-11-10T09:12:46.000Z</time>
      </trkpt>
      <trkpt lat="47.85738" lon="7.14055">
        <ele>985.79998779297</ele>
        <time>2019-11-10T09:12:47.000Z</time>
      </trkpt>
      <trkpt lat="47.85736" lon="7.14063">
        <ele>984.79998779297</ele>
        <time>2019-11-10T09:12:48.000Z</time>
      </trkpt>
      <trkpt lat="47.85733" lon="7.14071">
        <ele>983.79998779297</ele>
        <time>2019-11-10T09:12:49.000Z</time>
      </trkpt>
      <trkpt lat="47.85731" lon="7.14079">
        <ele>982.79998779297</ele>
        <time>2019-11-10T09:12:50.000Z</time>
      </trkpt>
      <trkpt lat="47.85726" lon="7.14089">
        <ele>981.79998779297</ele>
        <time>2019-11-10T09:12:51.000Z</time>
      </trkpt>
      <trkpt lat="47.85722" lon="7.14099">
        <ele>980.79998779297</ele>
        <time>2019-11-10T09:12:52.000Z</time>
      </trkpt>
      <trkpt lat="47.85718" lon="7.14108">
        <ele>980</ele>
        <time>2019-11-10T09:12:53.000Z</time>
      </trkpt>
      <trkpt lat="47.85713" lon="7.14119">
        <ele>979</ele>
        <time>2019-11-10T09:12:54.000Z</time>
      </trkpt>
      <trkpt lat="47.85709" lon="7.14129">
        <ele>978.20001220703</ele>
        <time>2019-11-10T09:12:55.000Z</time>
      </trkpt>
      <trkpt lat="47.85706" lon="7.14138">
        <ele>977.40002441406</ele>
        <time>2019-11-10T09:12:56.000Z</time>
      </trkpt>
      <trkpt lat="47.85702" lon="7.14146">
        <ele>976.40002441406</ele>
        <time>2019-11-10T09:12:57.000Z</time>
      </trkpt>
      <trkpt lat="47.85699" lon="7.14154">
        <ele>975.59997558594</ele>
        <time>2019-11-10T09:12:58.000Z</time>
      </trkpt>
      <trkpt lat="47.85698" lon="7.14165">
        <ele>974.79998779297</ele>
        <time>2019-11-10T09:12:59.000Z</time>
      </trkpt>
      <trkpt lat="47.85697" lon="7.14173">
        <ele>974</ele>
        <time>2019-11-10T09:13:00.000Z</time>
      </trkpt>
      <trkpt lat="47.85696" lon="7.1418">
        <ele>972.59997558594</ele>
        <time>2019-11-10T09:13:01.000Z</time>
      </trkpt>
      <trkpt lat="47.85695" lon="7.14187">
        <ele>971.79998779297</ele>
        <time>2019-11-10T09:13:02.000Z</time>
      </trkpt>
      <trkpt lat="47.85694" lon="7.14199">
        <ele>971</ele>
        <time>2019-11-10T09:13:03.000Z</time>
      </trkpt>
      <trkpt lat="47.85694" lon="7.14207">
        <ele>970</ele>
        <time>2019-11-10T09:13:04.000Z</time>
      </trkpt>
      <trkpt lat="47.85696" lon="7.14213">
        <ele>969.20001220703</ele>
        <time>2019-11-10T09:13:05.000Z</time>
      </trkpt>
      <trkpt lat="47.85697" lon="7.14221">
        <ele>968.40002441406</ele>
        <time>2019-11-10T09:13:06.000Z</time>
      </trkpt>
      <trkpt lat="47.85699" lon="7.14228">
        <ele>967.59997558594</ele>
        <time>2019-11-10T09:13:07.000Z</time>
      </trkpt>
      <trkpt lat="47.85701" lon="7.14236">
        <ele>966.79998779297</ele>
        <time>2019-11-10T09:13:08.000Z</time>
      </trkpt>
      <trkpt lat="47.85703" lon="7.14244">
        <ele>966</ele>
        <time>2019-11-10T09:13:09.000Z</time>
      </trkpt>
      <trkpt lat="47.85705" lon="7.14253">
        <ele>965.20001220703</ele>
        <time>2019-11-10T09:13:10.000Z</time>
      </trkpt>
      <trkpt lat="47.85708" lon="7.14261">
        <ele>964.40002441406</ele>
        <time>2019-11-10T09:13:11.000Z</time>
      </trkpt>
      <trkpt lat="47.85709" lon="7.14268">
        <ele>963.79998779297</ele>
        <time>2019-11-10T09:13:12.000Z</time>
      </trkpt>
      <trkpt lat="47.85709" lon="7.14273">
        <ele>963</ele>
        <time>2019-11-10T09:13:13.000Z</time>
      </trkpt>
      <trkpt lat="47.8571" lon="7.14278">
        <ele>962.20001220703</ele>
        <time>2019-11-10T09:13:14.000Z</time>
      </trkpt>
      <trkpt lat="47.8571" lon="7.14281">
        <ele>961.79998779297</ele>
        <time>2019-11-10T09:13:15.000Z</time>
      </trkpt>
      <trkpt lat="47.85711" lon="7.14283">
        <ele>961.20001220703</ele>
        <time>2019-11-10T09:13:16.000Z</time>
      </trkpt>
      <trkpt lat="47.85711" lon="7.14286">
        <ele>960.59997558594</ele>
        <time>2019-11-10T09:13:17.000Z</time>
      </trkpt>
      <trkpt lat="47.85712" lon="7.14289">
        <ele>960</ele>
        <time>2019-11-10T09:13:18.000Z</time>
      </trkpt>
      <trkpt lat="47.85712" lon="7.14293">
        <ele>959.40002441406</ele>
        <time>2019-11-10T09:13:19.000Z</time>
      </trkpt>
      <trkpt lat="47.85712" lon="7.14296">
        <ele>959.40002441406</ele>
        <time>2019-11-10T09:13:20.000Z</time>
      </trkpt>
      <trkpt lat="47.85711" lon="7.14305">
        <ele>959</ele>
        <time>2019-11-10T09:13:21.000Z</time>
      </trkpt>
      <trkpt lat="47.8571" lon="7.14312">
        <ele>958.40002441406</ele>
        <time>2019-11-10T09:13:22.000Z</time>
      </trkpt>
      <trkpt lat="47.85709" lon="7.14321">
        <ele>957.79998779297</ele>
        <time>2019-11-10T09:13:23.000Z</time>
      </trkpt>
      <trkpt lat="47.85709" lon="7.14329">
        <ele>957.20001220703</ele>
        <time>2019-11-10T09:13:24.000Z</time>
      </trkpt>
      <trkpt lat="47.85709" lon="7.14335">
        <ele>956.79998779297</ele>
        <time>2019-11-10T09:13:25.000Z</time>
      </trkpt>
      <trkpt lat="47.85709" lon="7.14345">
        <ele>955.59997558594</ele>
        <time>2019-11-10T09:13:26.000Z</time>
      </trkpt>
      <trkpt lat="47.85709" lon="7.14352">
        <ele>954.79998779297</ele>
        <time>2019-11-10T09:13:27.000Z</time>
      </trkpt>
      <trkpt lat="47.8571" lon="7.14361">
        <ele>954</ele>
        <time>2019-11-10T09:13:28.000Z</time>
      </trkpt>
      <trkpt lat="47.8571" lon="7.14369">
        <ele>953.20001220703</ele>
        <time>2019-11-10T09:13:29.000Z</time>
      </trkpt>
      <trkpt lat="47.85711" lon="7.14377">
        <ele>952.40002441406</ele>
        <time>2019-11-10T09:13:30.000Z</time>
      </trkpt>
      <trkpt lat="47.85711" lon="7.14384">
        <ele>951.59997558594</ele>
        <time>2019-11-10T09:13:31.000Z</time>
      </trkpt>
      <trkpt lat="47.85711" lon="7.14392">
        <ele>951.20001220703</ele>
        <time>2019-11-10T09:13:32.000Z</time>
      </trkpt>
      <trkpt lat="47.85712" lon="7.144">
        <ele>950.79998779297</ele>
        <time>2019-11-10T09:13:33.000Z</time>
      </trkpt>
      <trkpt lat="47.85712" lon="7.14406">
        <ele>950.40002441406</ele>
        <time>2019-11-10T09:13:34.000Z</time>
      </trkpt>
      <trkpt lat="47.85713" lon="7.14411">
        <ele>950</ele>
        <time>2019-11-10T09:13:35.000Z</time>
      </trkpt>
      <trkpt lat="47.85713" lon="7.14416">
        <ele>949.40002441406</ele>
        <time>2019-11-10T09:13:36.000Z</time>
      </trkpt>
      <trkpt lat="47.85714" lon="7.14418">
        <ele>949</ele>
        <time>2019-11-10T09:13:37.000Z</time>
      </trkpt>
      <trkpt lat="47.85715" lon="7.14424">
        <ele>948.40002441406</ele>
        <time>2019-11-10T09:13:38.000Z</time>
      </trkpt>
      <trkpt lat="47.85716" lon="7.14429">
        <ele>947.79998779297</ele>
        <time>2019-11-10T09:13:39.000Z</time>
      </trkpt>
      <trkpt lat="47.85716" lon="7.14435">
        <ele>947.40002441406</ele>
        <time>2019-11-10T09:13:40.000Z</time>
      </trkpt>
      <trkpt lat="47.85716" lon="7.1444">
        <ele>947.40002441406</ele>
        <time>2019-11-10T09:13:41.000Z</time>
      </trkpt>
      <trkpt lat="47.85716" lon="7.14444">
        <ele>946.79998779297</ele>
        <time>2019-11-10T09:13:42.000Z</time>
      </trkpt>
      <trkpt lat="47.85716" lon="7.14448">
        <ele>946.40002441406</ele>
        <time>2019-11-10T09:13:43.000Z</time>
      </trkpt>
      <trkpt lat="47.85716" lon="7.14454">
        <ele>945.20001220703</ele>
        <time>2019-11-10T09:13:44.000Z</time>
      </trkpt>
      <trkpt lat="47.85716" lon="7.1446">
        <ele>944.59997558594</ele>
        <time>2019-11-10T09:13:45.000Z</time>
      </trkpt>
      <trkpt lat="47.85717" lon="7.14465">
        <ele>944</ele>
        <time>2019-11-10T09:13:46.000Z</time>
      </trkpt>
      <trkpt lat="47.85718" lon="7.14471">
        <ele>943.40002441406</ele>
        <time>2019-11-10T09:13:47.000Z</time>
      </trkpt>
      <trkpt lat="47.8572" lon="7.14477">
        <ele>942.59997558594</ele>
        <time>2019-11-10T09:13:48.000Z</time>
      </trkpt>
      <trkpt lat="47.85721" lon="7.14485">
        <ele>941.79998779297</ele>
        <time>2019-11-10T09:13:49.000Z</time>
      </trkpt>
      <trkpt lat="47.85723" lon="7.14494">
        <ele>941.20001220703</ele>
        <time>2019-11-10T09:13:50.000Z</time>
      </trkpt>
      <trkpt lat="47.85724" lon="7.14503">
        <ele>940.59997558594</ele>
        <time>2019-11-10T09:13:51.000Z</time>
      </trkpt>
      <trkpt lat="47.85726" lon="7.1451">
        <ele>939.79998779297</ele>
        <time>2019-11-10T09:13:52.000Z</time>
      </trkpt>
      <trkpt lat="47.85727" lon="7.14517">
        <ele>939.20001220703</ele>
        <time>2019-11-10T09:13:53.000Z</time>
      </trkpt>
      <trkpt lat="47.85729" lon="7.14527">
        <ele>938.40002441406</ele>
        <time>2019-11-10T09:13:54.000Z</time>
      </trkpt>
      <trkpt lat="47.8573" lon="7.14533">
        <ele>937.79998779297</ele>
        <time>2019-11-10T09:13:55.000Z</time>
      </trkpt>
      <trkpt lat="47.85732" lon="7.14542">
        <ele>937</ele>
        <time>2019-11-10T09:13:56.000Z</time>
      </trkpt>
      <trkpt lat="47.85734" lon="7.14548">
        <ele>936.20001220703</ele>
        <time>2019-11-10T09:13:57.000Z</time>
      </trkpt>
      <trkpt lat="47.85735" lon="7.14553">
        <ele>935.59997558594</ele>
        <time>2019-11-10T09:13:58.000Z</time>
      </trkpt>
      <trkpt lat="47.85738" lon="7.1456">
        <ele>935.20001220703</ele>
        <time>2019-11-10T09:13:59.000Z</time>
      </trkpt>
      <trkpt lat="47.85742" lon="7.14565">
        <ele>934.59997558594</ele>
        <time>2019-11-10T09:14:00.000Z</time>
      </trkpt>
      <trkpt lat="47.85746" lon="7.14571">
        <ele>934</ele>
        <time>2019-11-10T09:14:01.000Z</time>
      </trkpt>
      <trkpt lat="47.8575" lon="7.14576">
        <ele>933.20001220703</ele>
        <time>2019-11-10T09:14:02.000Z</time>
      </trkpt>
      <trkpt lat="47.85752" lon="7.14582">
        <ele>932.59997558594</ele>
        <time>2019-11-10T09:14:03.000Z</time>
      </trkpt>
      <trkpt lat="47.85754" lon="7.14586">
        <ele>932</ele>
        <time>2019-11-10T09:14:04.000Z</time>
      </trkpt>
      <trkpt lat="47.85757" lon="7.14592">
        <ele>931.40002441406</ele>
        <time>2019-11-10T09:14:05.000Z</time>
      </trkpt>
      <trkpt lat="47.85759" lon="7.14597">
        <ele>930.79998779297</ele>
        <time>2019-11-10T09:14:06.000Z</time>
      </trkpt>
      <trkpt lat="47.8576" lon="7.14601">
        <ele>930.20001220703</ele>
        <time>2019-11-10T09:14:07.000Z</time>
      </trkpt>
      <trkpt lat="47.85761" lon="7.14606">
        <ele>929</ele>
        <time>2019-11-10T09:14:08.000Z</time>
      </trkpt>
      <trkpt lat="47.85763" lon="7.1461">
        <ele>928.40002441406</ele>
        <time>2019-11-10T09:14:09.000Z</time>
      </trkpt>
      <trkpt lat="47.85764" lon="7.14614">
        <ele>928</ele>
        <time>2019-11-10T09:14:10.000Z</time>
      </trkpt>
      <trkpt lat="47.85765" lon="7.14618">
        <ele>927.59997558594</ele>
        <time>2019-11-10T09:14:11.000Z</time>
      </trkpt>
      <trkpt lat="47.85766" lon="7.14621">
        <ele>927</ele>
        <time>2019-11-10T09:14:12.000Z</time>
      </trkpt>
      <trkpt lat="47.85768" lon="7.14625">
        <ele>926.59997558594</ele>
        <time>2019-11-10T09:14:13.000Z</time>
      </trkpt>
      <trkpt lat="47.85769" lon="7.14628">
        <ele>926.20001220703</ele>
        <time>2019-11-10T09:14:14.000Z</time>
      </trkpt>
      <trkpt lat="47.8577" lon="7.1463">
        <ele>925.79998779297</ele>
        <time>2019-11-10T09:14:15.000Z</time>
      </trkpt>
      <trkpt lat="47.85774" lon="7.14634">
        <ele>925.20001220703</ele>
        <time>2019-11-10T09:14:16.000Z</time>
      </trkpt>
      <trkpt lat="47.85777" lon="7.14641">
        <ele>924.79998779297</ele>
        <time>2019-11-10T09:14:17.000Z</time>
      </trkpt>
      <trkpt lat="47.85777" lon="7.14648">
        <ele>924.20001220703</ele>
        <time>2019-11-10T09:14:18.000Z</time>
      </trkpt>
      <trkpt lat="47.85777" lon="7.14652">
        <ele>923.40002441406</ele>
        <time>2019-11-10T09:14:19.000Z</time>
      </trkpt>
      <trkpt lat="47.85778" lon="7.14657">
        <ele>922.79998779297</ele>
        <time>2019-11-10T09:14:20.000Z</time>
      </trkpt>
      <trkpt lat="47.85778" lon="7.14659">
        <ele>922.20001220703</ele>
        <time>2019-11-10T09:14:21.000Z</time>
      </trkpt>
      <trkpt lat="47.85778" lon="7.14665">
        <ele>921.40002441406</ele>
        <time>2019-11-10T09:14:53.000Z</time>
      </trkpt>
      <trkpt lat="47.85776" lon="7.14666">
        <ele>921.40002441406</ele>
        <time>2019-11-10T09:14:54.000Z</time>
      </trkpt>
      <trkpt lat="47.85773" lon="7.14668">
        <ele>921</ele>
        <time>2019-11-10T09:14:55.000Z</time>
      </trkpt>
      <trkpt lat="47.85769" lon="7.1467">
        <ele>920.59997558594</ele>
        <time>2019-11-10T09:14:56.000Z</time>
      </trkpt>
      <trkpt lat="47.85764" lon="7.14671">
        <ele>919.40002441406</ele>
        <time>2019-11-10T09:14:57.000Z</time>
      </trkpt>
      <trkpt lat="47.85758" lon="7.14673">
        <ele>918.79998779297</ele>
        <time>2019-11-10T09:14:58.000Z</time>
      </trkpt>
      <trkpt lat="47.85752" lon="7.14677">
        <ele>917.79998779297</ele>
        <time>2019-11-10T09:14:59.000Z</time>
      </trkpt>
      <trkpt lat="47.85746" lon="7.14679">
        <ele>917</ele>
        <time>2019-11-10T09:15:00.000Z</time>
      </trkpt>
      <trkpt lat="47.85739" lon="7.1468">
        <ele>916</ele>
        <time>2019-11-10T09:15:01.000Z</time>
      </trkpt>
      <trkpt lat="47.85734" lon="7.14682">
        <ele>914.79998779297</ele>
        <time>2019-11-10T09:15:02.000Z</time>
      </trkpt>
      <trkpt lat="47.85728" lon="7.14684">
        <ele>913.79998779297</ele>
        <time>2019-11-10T09:15:03.000Z</time>
      </trkpt>
      <trkpt lat="47.85725" lon="7.14686">
        <ele>912.79998779297</ele>
        <time>2019-11-10T09:15:04.000Z</time>
      </trkpt>
      <trkpt lat="47.85723" lon="7.14689">
        <ele>911.79998779297</ele>
        <time>2019-11-10T09:15:05.000Z</time>
      </trkpt>
      <trkpt lat="47.85722" lon="7.14696">
        <ele>910.79998779297</ele>
        <time>2019-11-10T09:15:06.000Z</time>
      </trkpt>
      <trkpt lat="47.85723" lon="7.14701">
        <ele>910</ele>
        <time>2019-11-10T09:15:07.000Z</time>
      </trkpt>
      <trkpt lat="47.85724" lon="7.14706">
        <ele>909.20001220703</ele>
        <time>2019-11-10T09:15:08.000Z</time>
      </trkpt>
      <trkpt lat="47.85726" lon="7.1471">
        <ele>908.59997558594</ele>
        <time>2019-11-10T09:15:09.000Z</time>
      </trkpt>
      <trkpt lat="47.85727" lon="7.14714">
        <ele>908</ele>
        <time>2019-11-10T09:15:10.000Z</time>
      </trkpt>
      <trkpt lat="47.85729" lon="7.14719">
        <ele>907.40002441406</ele>
        <time>2019-11-10T09:15:11.000Z</time>
      </trkpt>
      <trkpt lat="47.8573" lon="7.14724">
        <ele>906.79998779297</ele>
        <time>2019-11-10T09:15:12.000Z</time>
      </trkpt>
      <trkpt lat="47.85734" lon="7.14736">
        <ele>906.79998779297</ele>
        <time>2019-11-10T09:15:14.000Z</time>
      </trkpt>
      <trkpt lat="47.85736" lon="7.14742">
        <ele>906.40002441406</ele>
        <time>2019-11-10T09:15:15.000Z</time>
      </trkpt>
      <trkpt lat="47.85739" lon="7.14749">
        <ele>905.79998779297</ele>
        <time>2019-11-10T09:15:16.000Z</time>
      </trkpt>
      <trkpt lat="47.85742" lon="7.14755">
        <ele>905.40002441406</ele>
        <time>2019-11-10T09:15:17.000Z</time>
      </trkpt>
      <trkpt lat="47.85747" lon="7.14763">
        <ele>905</ele>
        <time>2019-11-10T09:15:18.000Z</time>
      </trkpt>
      <trkpt lat="47.85751" lon="7.1477">
        <ele>904.40002441406</ele>
        <time>2019-11-10T09:15:19.000Z</time>
      </trkpt>
      <trkpt lat="47.85756" lon="7.14777">
        <ele>903.79998779297</ele>
        <time>2019-11-10T09:15:20.000Z</time>
      </trkpt>
      <trkpt lat="47.85762" lon="7.14785">
        <ele>903.20001220703</ele>
        <time>2019-11-10T09:15:21.000Z</time>
      </trkpt>
      <trkpt lat="47.85767" lon="7.14792">
        <ele>902</ele>
        <time>2019-11-10T09:15:22.000Z</time>
      </trkpt>
      <trkpt lat="47.85772" lon="7.14799">
        <ele>901.40002441406</ele>
        <time>2019-11-10T09:15:23.000Z</time>
      </trkpt>
      <trkpt lat="47.85777" lon="7.14808">
        <ele>900.79998779297</ele>
        <time>2019-11-10T09:15:24.000Z</time>
      </trkpt>
      <trkpt lat="47.85782" lon="7.14817">
        <ele>900.20001220703</ele>
        <time>2019-11-10T09:15:25.000Z</time>
      </trkpt>
      <trkpt lat="47.85787" lon="7.14826">
        <ele>899.40002441406</ele>
        <time>2019-11-10T09:15:26.000Z</time>
      </trkpt>
      <trkpt lat="47.85791" lon="7.14834">
        <ele>898.79998779297</ele>
        <time>2019-11-10T09:15:27.000Z</time>
      </trkpt>
      <trkpt lat="47.85792" lon="7.14838">
        <ele>898</ele>
        <time>2019-11-10T09:15:28.000Z</time>
      </trkpt>
      <trkpt lat="47.85791" lon="7.14841">
        <ele>897.40002441406</ele>
        <time>2019-11-10T09:15:29.000Z</time>
      </trkpt>
      <trkpt lat="47.8579" lon="7.14842">
        <ele>897.40002441406</ele>
        <time>2019-11-10T09:15:30.000Z</time>
      </trkpt>
      <trkpt lat="47.85775" lon="7.14838">
        <ele>897.40002441406</ele>
        <time>2019-11-10T09:15:36.000Z</time>
      </trkpt>
      <trkpt lat="47.85768" lon="7.14843">
        <ele>897.40002441406</ele>
        <time>2019-11-10T09:15:38.000Z</time>
      </trkpt>
      <trkpt lat="47.85769" lon="7.14856">
        <ele>897.40002441406</ele>
        <time>2019-11-10T09:15:41.000Z</time>
      </trkpt>
      <trkpt lat="47.85779" lon="7.14875">
        <ele>897.40002441406</ele>
        <time>2019-11-10T09:15:46.000Z</time>
      </trkpt>
      <trkpt lat="47.85781" lon="7.14878">
        <ele>897.40002441406</ele>
        <time>2019-11-10T09:15:47.000Z</time>
      </trkpt>
      <trkpt lat="47.85787" lon="7.14895">
        <ele>897.40002441406</ele>
        <time>2019-11-10T09:15:51.000Z</time>
      </trkpt>
      <trkpt lat="47.85795" lon="7.14917">
        <ele>897.40002441406</ele>
        <time>2019-11-10T09:15:56.000Z</time>
      </trkpt>
      <trkpt lat="47.858" lon="7.14945">
        <ele>897.40002441406</ele>
        <time>2019-11-10T09:16:02.000Z</time>
      </trkpt>
      <trkpt lat="47.85807" lon="7.14968">
        <ele>897.40002441406</ele>
        <time>2019-11-10T09:16:07.000Z</time>
      </trkpt>
      <trkpt lat="47.85813" lon="7.14986">
        <ele>897.40002441406</ele>
        <time>2019-11-10T09:16:12.000Z</time>
      </trkpt>
      <trkpt lat="47.8582" lon="7.15012">
        <ele>897.40002441406</ele>
        <time>2019-11-10T09:16:18.000Z</time>
      </trkpt>
      <trkpt lat="47.85823" lon="7.15035">
        <ele>897.40002441406</ele>
        <time>2019-11-10T09:16:23.000Z</time>
      </trkpt>
      <trkpt lat="47.85822" lon="7.1505">
        <ele>896.79998779297</ele>
        <time>2019-11-10T09:16:27.000Z</time>
      </trkpt>
      <trkpt lat="47.85821" lon="7.15053">
        <ele>896.40002441406</ele>
        <time>2019-11-10T09:16:28.000Z</time>
      </trkpt>
      <trkpt lat="47.85822" lon="7.15055">
        <ele>895.59997558594</ele>
        <time>2019-11-10T09:16:29.000Z</time>
      </trkpt>
      <trkpt lat="47.85823" lon="7.15059">
        <ele>895</ele>
        <time>2019-11-10T09:16:30.000Z</time>
      </trkpt>
      <trkpt lat="47.85825" lon="7.1507">
        <ele>895</ele>
        <time>2019-11-10T09:16:32.000Z</time>
      </trkpt>
      <trkpt lat="47.85825" lon="7.15076">
        <ele>894.59997558594</ele>
        <time>2019-11-10T09:16:33.000Z</time>
      </trkpt>
      <trkpt lat="47.85826" lon="7.15084">
        <ele>894.20001220703</ele>
        <time>2019-11-10T09:16:34.000Z</time>
      </trkpt>
      <trkpt lat="47.85826" lon="7.15092">
        <ele>893.79998779297</ele>
        <time>2019-11-10T09:16:35.000Z</time>
      </trkpt>
      <trkpt lat="47.85827" lon="7.151">
        <ele>893.40002441406</ele>
        <time>2019-11-10T09:16:36.000Z</time>
      </trkpt>
      <trkpt lat="47.85828" lon="7.15108">
        <ele>892.79998779297</ele>
        <time>2019-11-10T09:16:37.000Z</time>
      </trkpt>
      <trkpt lat="47.8583" lon="7.15116">
        <ele>892.40002441406</ele>
        <time>2019-11-10T09:16:38.000Z</time>
      </trkpt>
      <trkpt lat="47.85832" lon="7.15125">
        <ele>892</ele>
        <time>2019-11-10T09:16:39.000Z</time>
      </trkpt>
      <trkpt lat="47.85834" lon="7.15134">
        <ele>891.40002441406</ele>
        <time>2019-11-10T09:16:40.000Z</time>
      </trkpt>
      <trkpt lat="47.85836" lon="7.15143">
        <ele>891</ele>
        <time>2019-11-10T09:16:41.000Z</time>
      </trkpt>
      <trkpt lat="47.85838" lon="7.1515">
        <ele>890.40002441406</ele>
        <time>2019-11-10T09:16:42.000Z</time>
      </trkpt>
      <trkpt lat="47.85839" lon="7.15156">
        <ele>890</ele>
        <time>2019-11-10T09:16:43.000Z</time>
      </trkpt>
      <trkpt lat="47.8584" lon="7.15162">
        <ele>889.40002441406</ele>
        <time>2019-11-10T09:16:44.000Z</time>
      </trkpt>
      <trkpt lat="47.85842" lon="7.15169">
        <ele>889</ele>
        <time>2019-11-10T09:16:45.000Z</time>
      </trkpt>
      <trkpt lat="47.85844" lon="7.15177">
        <ele>888.40002441406</ele>
        <time>2019-11-10T09:16:46.000Z</time>
      </trkpt>
      <trkpt lat="47.85847" lon="7.15185">
        <ele>888</ele>
        <time>2019-11-10T09:16:47.000Z</time>
      </trkpt>
      <trkpt lat="47.8585" lon="7.15195">
        <ele>887.40002441406</ele>
        <time>2019-11-10T09:16:48.000Z</time>
      </trkpt>
      <trkpt lat="47.85853" lon="7.15206">
        <ele>886.59997558594</ele>
        <time>2019-11-10T09:16:49.000Z</time>
      </trkpt>
      <trkpt lat="47.85856" lon="7.15217">
        <ele>886</ele>
        <time>2019-11-10T09:16:50.000Z</time>
      </trkpt>
      <trkpt lat="47.85859" lon="7.15228">
        <ele>885</ele>
        <time>2019-11-10T09:16:51.000Z</time>
      </trkpt>
      <trkpt lat="47.85863" lon="7.15239">
        <ele>884</ele>
        <time>2019-11-10T09:16:52.000Z</time>
      </trkpt>
      <trkpt lat="47.85867" lon="7.15249">
        <ele>882.79998779297</ele>
        <time>2019-11-10T09:16:53.000Z</time>
      </trkpt>
      <trkpt lat="47.85872" lon="7.15259">
        <ele>880.40002441406</ele>
        <time>2019-11-10T09:16:54.000Z</time>
      </trkpt>
      <trkpt lat="47.85878" lon="7.15267">
        <ele>879.20001220703</ele>
        <time>2019-11-10T09:16:55.000Z</time>
      </trkpt>
      <trkpt lat="47.85884" lon="7.15273">
        <ele>878</ele>
        <time>2019-11-10T09:16:56.000Z</time>
      </trkpt>
      <trkpt lat="47.85891" lon="7.15276">
        <ele>877.20001220703</ele>
        <time>2019-11-10T09:16:57.000Z</time>
      </trkpt>
      <trkpt lat="47.85898" lon="7.15278">
        <ele>876.20001220703</ele>
        <time>2019-11-10T09:16:58.000Z</time>
      </trkpt>
      <trkpt lat="47.85905" lon="7.15279">
        <ele>875.20001220703</ele>
        <time>2019-11-10T09:16:59.000Z</time>
      </trkpt>
      <trkpt lat="47.85911" lon="7.15279">
        <ele>874.20001220703</ele>
        <time>2019-11-10T09:17:00.000Z</time>
      </trkpt>
      <trkpt lat="47.85917" lon="7.1528">
        <ele>873.20001220703</ele>
        <time>2019-11-10T09:17:01.000Z</time>
      </trkpt>
      <trkpt lat="47.85923" lon="7.1528">
        <ele>873.20001220703</ele>
        <time>2019-11-10T09:17:02.000Z</time>
      </trkpt>
      <trkpt lat="47.85946" lon="7.15282">
        <ele>873.20001220703</ele>
        <time>2019-11-10T09:17:07.000Z</time>
      </trkpt>
      <trkpt lat="47.85956" lon="7.15291">
        <ele>873.79998779297</ele>
        <time>2019-11-10T09:17:11.000Z</time>
      </trkpt>
      <trkpt lat="47.85958" lon="7.15295">
        <ele>874.20001220703</ele>
        <time>2019-11-10T09:17:12.000Z</time>
      </trkpt>
      <trkpt lat="47.8596" lon="7.15301">
        <ele>874.59997558594</ele>
        <time>2019-11-10T09:17:13.000Z</time>
      </trkpt>
      <trkpt lat="47.85962" lon="7.15306">
        <ele>875</ele>
        <time>2019-11-10T09:17:14.000Z</time>
      </trkpt>
      <trkpt lat="47.85965" lon="7.1531">
        <ele>875.59997558594</ele>
        <time>2019-11-10T09:17:15.000Z</time>
      </trkpt>
      <trkpt lat="47.85967" lon="7.15315">
        <ele>875.59997558594</ele>
        <time>2019-11-10T09:17:16.000Z</time>
      </trkpt>
      <trkpt lat="47.85979" lon="7.15342">
        <ele>876</ele>
        <time>2019-11-10T09:17:22.000Z</time>
      </trkpt>
      <trkpt lat="47.8598" lon="7.15347">
        <ele>876.40002441406</ele>
        <time>2019-11-10T09:17:23.000Z</time>
      </trkpt>
      <trkpt lat="47.85981" lon="7.15351">
        <ele>876.79998779297</ele>
        <time>2019-11-10T09:17:24.000Z</time>
      </trkpt>
      <trkpt lat="47.85983" lon="7.15356">
        <ele>877.40002441406</ele>
        <time>2019-11-10T09:17:25.000Z</time>
      </trkpt>
      <trkpt lat="47.85985" lon="7.15357">
        <ele>877.79998779297</ele>
        <time>2019-11-10T09:17:26.000Z</time>
      </trkpt>
      <trkpt lat="47.85986" lon="7.1536">
        <ele>877.79998779297</ele>
        <time>2019-11-10T09:17:27.000Z</time>
      </trkpt>
      <trkpt lat="47.85987" lon="7.15363">
        <ele>878.20001220703</ele>
        <time>2019-11-10T09:17:28.000Z</time>
      </trkpt>
      <trkpt lat="47.85989" lon="7.15367">
        <ele>878.59997558594</ele>
        <time>2019-11-10T09:17:29.000Z</time>
      </trkpt>
      <trkpt lat="47.85989" lon="7.15371">
        <ele>879</ele>
        <time>2019-11-10T09:17:30.000Z</time>
      </trkpt>
      <trkpt lat="47.85991" lon="7.15375">
        <ele>879.40002441406</ele>
        <time>2019-11-10T09:17:31.000Z</time>
      </trkpt>
      <trkpt lat="47.85991" lon="7.15379">
        <ele>879.79998779297</ele>
        <time>2019-11-10T09:17:32.000Z</time>
      </trkpt>
      <trkpt lat="47.85995" lon="7.154">
        <ele>879.79998779297</ele>
        <time>2019-11-10T09:17:37.000Z</time>
      </trkpt>
      <trkpt lat="47.85997" lon="7.1542">
        <ele>880.20001220703</ele>
        <time>2019-11-10T09:17:41.000Z</time>
      </trkpt>
      <trkpt lat="47.85999" lon="7.15425">
        <ele>880.59997558594</ele>
        <time>2019-11-10T09:17:42.000Z</time>
      </trkpt>
      <trkpt lat="47.85999" lon="7.1543">
        <ele>881.40002441406</ele>
        <time>2019-11-10T09:17:43.000Z</time>
      </trkpt>
      <trkpt lat="47.86" lon="7.15436">
        <ele>881.79998779297</ele>
        <time>2019-11-10T09:17:44.000Z</time>
      </trkpt>
      <trkpt lat="47.86002" lon="7.15438">
        <ele>881.79998779297</ele>
        <time>2019-11-10T09:17:45.000Z</time>
      </trkpt>
      <trkpt lat="47.86004" lon="7.15443">
        <ele>881.79998779297</ele>
        <time>2019-11-10T09:17:47.000Z</time>
      </trkpt>
      <trkpt lat="47.86004" lon="7.15453">
        <ele>881.79998779297</ele>
        <time>2019-11-10T09:17:49.000Z</time>
      </trkpt>
      <trkpt lat="47.86005" lon="7.15466">
        <ele>881.79998779297</ele>
        <time>2019-11-10T09:17:51.000Z</time>
      </trkpt>
      <trkpt lat="47.86011" lon="7.15495">
        <ele>882.40002441406</ele>
        <time>2019-11-10T09:17:56.000Z</time>
      </trkpt>
      <trkpt lat="47.86011" lon="7.155">
        <ele>882.79998779297</ele>
        <time>2019-11-10T09:17:57.000Z</time>
      </trkpt>
      <trkpt lat="47.86012" lon="7.15505">
        <ele>883.20001220703</ele>
        <time>2019-11-10T09:17:58.000Z</time>
      </trkpt>
      <trkpt lat="47.86012" lon="7.15511">
        <ele>883.59997558594</ele>
        <time>2019-11-10T09:17:59.000Z</time>
      </trkpt>
      <trkpt lat="47.86012" lon="7.15516">
        <ele>884</ele>
        <time>2019-11-10T09:18:00.000Z</time>
      </trkpt>
      <trkpt lat="47.86013" lon="7.15525">
        <ele>884</ele>
        <time>2019-11-10T09:18:02.000Z</time>
      </trkpt>
      <trkpt lat="47.86013" lon="7.15529">
        <ele>884.40002441406</ele>
        <time>2019-11-10T09:18:03.000Z</time>
      </trkpt>
      <trkpt lat="47.86014" lon="7.15533">
        <ele>884.79998779297</ele>
        <time>2019-11-10T09:18:04.000Z</time>
      </trkpt>
      <trkpt lat="47.86014" lon="7.15537">
        <ele>885.20001220703</ele>
        <time>2019-11-10T09:18:05.000Z</time>
      </trkpt>
      <trkpt lat="47.86013" lon="7.15543">
        <ele>885.59997558594</ele>
        <time>2019-11-10T09:18:06.000Z</time>
      </trkpt>
      <trkpt lat="47.86013" lon="7.15548">
        <ele>886</ele>
        <time>2019-11-10T09:18:07.000Z</time>
      </trkpt>
      <trkpt lat="47.86013" lon="7.15571">
        <ele>886.40002441406</ele>
        <time>2019-11-10T09:18:12.000Z</time>
      </trkpt>
      <trkpt lat="47.86013" lon="7.15576">
        <ele>886.79998779297</ele>
        <time>2019-11-10T09:18:13.000Z</time>
      </trkpt>
      <trkpt lat="47.86012" lon="7.15579">
        <ele>887.20001220703</ele>
        <time>2019-11-10T09:18:14.000Z</time>
      </trkpt>
      <trkpt lat="47.86013" lon="7.15585">
        <ele>887.59997558594</ele>
        <time>2019-11-10T09:18:15.000Z</time>
      </trkpt>
      <trkpt lat="47.86013" lon="7.1559">
        <ele>888.20001220703</ele>
        <time>2019-11-10T09:18:16.000Z</time>
      </trkpt>
      <trkpt lat="47.86014" lon="7.156">
        <ele>888.59997558594</ele>
        <time>2019-11-10T09:18:18.000Z</time>
      </trkpt>
      <trkpt lat="47.86014" lon="7.15604">
        <ele>889</ele>
        <time>2019-11-10T09:18:19.000Z</time>
      </trkpt>
      <trkpt lat="47.86015" lon="7.15609">
        <ele>889.40002441406</ele>
        <time>2019-11-10T09:18:20.000Z</time>
      </trkpt>
      <trkpt lat="47.86015" lon="7.15614">
        <ele>889.79998779297</ele>
        <time>2019-11-10T09:18:21.000Z</time>
      </trkpt>
      <trkpt lat="47.86016" lon="7.15619">
        <ele>890.20001220703</ele>
        <time>2019-11-10T09:18:22.000Z</time>
      </trkpt>
      <trkpt lat="47.86016" lon="7.15624">
        <ele>890.59997558594</ele>
        <time>2019-11-10T09:18:23.000Z</time>
      </trkpt>
      <trkpt lat="47.86017" lon="7.15629">
        <ele>891</ele>
        <time>2019-11-10T09:18:24.000Z</time>
      </trkpt>
      <trkpt lat="47.86017" lon="7.15634">
        <ele>891.40002441406</ele>
        <time>2019-11-10T09:18:25.000Z</time>
      </trkpt>
      <trkpt lat="47.86018" lon="7.15638">
        <ele>891.79998779297</ele>
        <time>2019-11-10T09:18:26.000Z</time>
      </trkpt>
      <trkpt lat="47.86018" lon="7.15642">
        <ele>892.20001220703</ele>
        <time>2019-11-10T09:18:27.000Z</time>
      </trkpt>
      <trkpt lat="47.86019" lon="7.15646">
        <ele>892.79998779297</ele>
        <time>2019-11-10T09:18:28.000Z</time>
      </trkpt>
      <trkpt lat="47.86019" lon="7.15651">
        <ele>893.20001220703</ele>
        <time>2019-11-10T09:18:29.000Z</time>
      </trkpt>
      <trkpt lat="47.8602" lon="7.15653">
        <ele>893.59997558594</ele>
        <time>2019-11-10T09:18:30.000Z</time>
      </trkpt>
      <trkpt lat="47.8602" lon="7.15656">
        <ele>894.20001220703</ele>
        <time>2019-11-10T09:18:31.000Z</time>
      </trkpt>
      <trkpt lat="47.8602" lon="7.1566">
        <ele>894.59997558594</ele>
        <time>2019-11-10T09:18:32.000Z</time>
      </trkpt>
      <trkpt lat="47.8602" lon="7.15664">
        <ele>895.40002441406</ele>
        <time>2019-11-10T09:18:33.000Z</time>
      </trkpt>
      <trkpt lat="47.8602" lon="7.15668">
        <ele>895.79998779297</ele>
        <time>2019-11-10T09:18:34.000Z</time>
      </trkpt>
      <trkpt lat="47.8602" lon="7.15673">
        <ele>896.20001220703</ele>
        <time>2019-11-10T09:18:35.000Z</time>
      </trkpt>
      <trkpt lat="47.86019" lon="7.15677">
        <ele>896.59997558594</ele>
        <time>2019-11-10T09:18:36.000Z</time>
      </trkpt>
      <trkpt lat="47.86019" lon="7.15681">
        <ele>897</ele>
        <time>2019-11-10T09:18:37.000Z</time>
      </trkpt>
      <trkpt lat="47.86019" lon="7.15685">
        <ele>897.40002441406</ele>
        <time>2019-11-10T09:18:38.000Z</time>
      </trkpt>
      <trkpt lat="47.86018" lon="7.15689">
        <ele>897.79998779297</ele>
        <time>2019-11-10T09:18:39.000Z</time>
      </trkpt>
      <trkpt lat="47.86018" lon="7.15693">
        <ele>898.20001220703</ele>
        <time>2019-11-10T09:18:40.000Z</time>
      </trkpt>
      <trkpt lat="47.86018" lon="7.15698">
        <ele>898.79998779297</ele>
        <time>2019-11-10T09:18:41.000Z</time>
      </trkpt>
      <trkpt lat="47.86016" lon="7.15706">
        <ele>899.20001220703</ele>
        <time>2019-11-10T09:18:43.000Z</time>
      </trkpt>
      <trkpt lat="47.86016" lon="7.15711">
        <ele>899.59997558594</ele>
        <time>2019-11-10T09:18:44.000Z</time>
      </trkpt>
      <trkpt lat="47.86016" lon="7.15715">
        <ele>900</ele>
        <time>2019-11-10T09:18:45.000Z</time>
      </trkpt>
      <trkpt lat="47.86016" lon="7.1572">
        <ele>900.40002441406</ele>
        <time>2019-11-10T09:18:46.000Z</time>
      </trkpt>
      <trkpt lat="47.86015" lon="7.15724">
        <ele>900.79998779297</ele>
        <time>2019-11-10T09:18:47.000Z</time>
      </trkpt>
      <trkpt lat="47.86014" lon="7.15732">
        <ele>901.20001220703</ele>
        <time>2019-11-10T09:18:49.000Z</time>
      </trkpt>
      <trkpt lat="47.86014" lon="7.15736">
        <ele>901.79998779297</ele>
        <time>2019-11-10T09:18:50.000Z</time>
      </trkpt>
      <trkpt lat="47.86014" lon="7.1574">
        <ele>902.20001220703</ele>
        <time>2019-11-10T09:18:51.000Z</time>
      </trkpt>
      <trkpt lat="47.86015" lon="7.15743">
        <ele>902.59997558594</ele>
        <time>2019-11-10T09:18:52.000Z</time>
      </trkpt>
      <trkpt lat="47.86015" lon="7.15746">
        <ele>903.20001220703</ele>
        <time>2019-11-10T09:18:53.000Z</time>
      </trkpt>
      <trkpt lat="47.86015" lon="7.15748">
        <ele>903.59997558594</ele>
        <time>2019-11-10T09:18:54.000Z</time>
      </trkpt>
      <trkpt lat="47.86016" lon="7.15751">
        <ele>904</ele>
        <time>2019-11-10T09:18:55.000Z</time>
      </trkpt>
      <trkpt lat="47.86017" lon="7.15754">
        <ele>904.40002441406</ele>
        <time>2019-11-10T09:18:56.000Z</time>
      </trkpt>
      <trkpt lat="47.86018" lon="7.15756">
        <ele>905.20001220703</ele>
        <time>2019-11-10T09:18:57.000Z</time>
      </trkpt>
      <trkpt lat="47.86018" lon="7.15758">
        <ele>905.59997558594</ele>
        <time>2019-11-10T09:18:58.000Z</time>
      </trkpt>
      <trkpt lat="47.86019" lon="7.15762">
        <ele>906</ele>
        <time>2019-11-10T09:18:59.000Z</time>
      </trkpt>
      <trkpt lat="47.8602" lon="7.15764">
        <ele>906.40002441406</ele>
        <time>2019-11-10T09:19:00.000Z</time>
      </trkpt>
      <trkpt lat="47.8602" lon="7.15767">
        <ele>906.79998779297</ele>
        <time>2019-11-10T09:19:01.000Z</time>
      </trkpt>
      <trkpt lat="47.86021" lon="7.15769">
        <ele>907.20001220703</ele>
        <time>2019-11-10T09:19:02.000Z</time>
      </trkpt>
      <trkpt lat="47.86021" lon="7.15773">
        <ele>907.59997558594</ele>
        <time>2019-11-10T09:19:04.000Z</time>
      </trkpt>
      <trkpt lat="47.86021" lon="7.15775">
        <ele>908.20001220703</ele>
        <time>2019-11-10T09:19:05.000Z</time>
      </trkpt>
      <trkpt lat="47.86021" lon="7.15776">
        <ele>908.59997558594</ele>
        <time>2019-11-10T09:19:06.000Z</time>
      </trkpt>
      <trkpt lat="47.8602" lon="7.15779">
        <ele>909</ele>
        <time>2019-11-10T09:19:07.000Z</time>
      </trkpt>
      <trkpt lat="47.8602" lon="7.15781">
        <ele>909.40002441406</ele>
        <time>2019-11-10T09:19:08.000Z</time>
      </trkpt>
      <trkpt lat="47.86018" lon="7.15787">
        <ele>909.40002441406</ele>
        <time>2019-11-10T09:19:10.000Z</time>
      </trkpt>
      <trkpt lat="47.86016" lon="7.15796">
        <ele>909.40002441406</ele>
        <time>2019-11-10T09:19:13.000Z</time>
      </trkpt>
      <trkpt lat="47.86015" lon="7.15807">
        <ele>909.79998779297</ele>
        <time>2019-11-10T09:19:17.000Z</time>
      </trkpt>
      <trkpt lat="47.86015" lon="7.1581">
        <ele>910.20001220703</ele>
        <time>2019-11-10T09:19:18.000Z</time>
      </trkpt>
      <trkpt lat="47.86014" lon="7.15813">
        <ele>910.59997558594</ele>
        <time>2019-11-10T09:19:19.000Z</time>
      </trkpt>
      <trkpt lat="47.86014" lon="7.15816">
        <ele>911</ele>
        <time>2019-11-10T09:19:20.000Z</time>
      </trkpt>
      <trkpt lat="47.86014" lon="7.15818">
        <ele>911.40002441406</ele>
        <time>2019-11-10T09:19:21.000Z</time>
      </trkpt>
      <trkpt lat="47.86013" lon="7.15821">
        <ele>911.40002441406</ele>
        <time>2019-11-10T09:19:22.000Z</time>
      </trkpt>
      <trkpt lat="47.86012" lon="7.15824">
        <ele>911.79998779297</ele>
        <time>2019-11-10T09:19:23.000Z</time>
      </trkpt>
      <trkpt lat="47.86012" lon="7.15827">
        <ele>912.40002441406</ele>
        <time>2019-11-10T09:19:24.000Z</time>
      </trkpt>
      <trkpt lat="47.86011" lon="7.1583">
        <ele>912.79998779297</ele>
        <time>2019-11-10T09:19:25.000Z</time>
      </trkpt>
      <trkpt lat="47.8601" lon="7.15833">
        <ele>913.20001220703</ele>
        <time>2019-11-10T09:19:26.000Z</time>
      </trkpt>
      <trkpt lat="47.86009" lon="7.15835">
        <ele>913.59997558594</ele>
        <time>2019-11-10T09:19:27.000Z</time>
      </trkpt>
      <trkpt lat="47.86005" lon="7.15845">
        <ele>913.59997558594</ele>
        <time>2019-11-10T09:19:31.000Z</time>
      </trkpt>
      <trkpt lat="47.86004" lon="7.15847">
        <ele>913.59997558594</ele>
        <time>2019-11-10T09:19:32.000Z</time>
      </trkpt>
      <trkpt lat="47.86" lon="7.15857">
        <ele>913.59997558594</ele>
        <time>2019-11-10T09:19:37.000Z</time>
      </trkpt>
      <trkpt lat="47.85994" lon="7.15871">
        <ele>913.59997558594</ele>
        <time>2019-11-10T09:19:41.000Z</time>
      </trkpt>
      <trkpt lat="47.85992" lon="7.15888">
        <ele>913.59997558594</ele>
        <time>2019-11-10T09:19:45.000Z</time>
      </trkpt>
      <trkpt lat="47.85987" lon="7.15909">
        <ele>913.59997558594</ele>
        <time>2019-11-10T09:19:50.000Z</time>
      </trkpt>
      <trkpt lat="47.85982" lon="7.15926">
        <ele>913.59997558594</ele>
        <time>2019-11-10T09:19:54.000Z</time>
      </trkpt>
      <trkpt lat="47.85973" lon="7.15941">
        <ele>913.59997558594</ele>
        <time>2019-11-10T09:19:57.000Z</time>
      </trkpt>
      <trkpt lat="47.8597" lon="7.1595">
        <ele>913.59997558594</ele>
        <time>2019-11-10T09:19:59.000Z</time>
      </trkpt>
      <trkpt lat="47.85969" lon="7.15959">
        <ele>914</ele>
        <time>2019-11-10T09:20:02.000Z</time>
      </trkpt>
      <trkpt lat="47.85968" lon="7.15962">
        <ele>914.40002441406</ele>
        <time>2019-11-10T09:20:03.000Z</time>
      </trkpt>
      <trkpt lat="47.85966" lon="7.15967">
        <ele>914.79998779297</ele>
        <time>2019-11-10T09:20:04.000Z</time>
      </trkpt>
      <trkpt lat="47.85965" lon="7.15971">
        <ele>915.40002441406</ele>
        <time>2019-11-10T09:20:05.000Z</time>
      </trkpt>
      <trkpt lat="47.85965" lon="7.15973">
        <ele>915.79998779297</ele>
        <time>2019-11-10T09:20:06.000Z</time>
      </trkpt>
      <trkpt lat="47.85964" lon="7.1598">
        <ele>915.79998779297</ele>
        <time>2019-11-10T09:20:09.000Z</time>
      </trkpt>
      <trkpt lat="47.85964" lon="7.1598">
        <ele>915.79998779297</ele>
        <time>2019-11-10T09:20:10.000Z</time>
      </trkpt>
      <trkpt lat="47.85962" lon="7.15984">
        <ele>917.79998779297</ele>
        <time>2019-11-10T09:20:50.000Z</time>
      </trkpt>
      <trkpt lat="47.85962" lon="7.15991">
        <ele>917.79998779297</ele>
        <time>2019-11-10T09:20:52.000Z</time>
      </trkpt>
      <trkpt lat="47.85961" lon="7.16001">
        <ele>917.79998779297</ele>
        <time>2019-11-10T09:20:55.000Z</time>
      </trkpt>
      <trkpt lat="47.8596" lon="7.16006">
        <ele>917.79998779297</ele>
        <time>2019-11-10T09:20:57.000Z</time>
      </trkpt>
      <trkpt lat="47.85959" lon="7.16015">
        <ele>917.79998779297</ele>
        <time>2019-11-10T09:21:01.000Z</time>
      </trkpt>
      <trkpt lat="47.85959" lon="7.16017">
        <ele>918.20001220703</ele>
        <time>2019-11-10T09:21:03.000Z</time>
      </trkpt>
      <trkpt lat="47.85957" lon="7.16021">
        <ele>920</ele>
        <time>2019-11-10T09:21:11.000Z</time>
      </trkpt>
      <trkpt lat="47.85957" lon="7.16022">
        <ele>920</ele>
        <time>2019-11-10T09:21:12.000Z</time>
      </trkpt>
      <trkpt lat="47.85957" lon="7.16022">
        <ele>920</ele>
        <time>2019-11-10T09:21:13.000Z</time>
      </trkpt>
      <trkpt lat="47.85955" lon="7.16027">
        <ele>920</ele>
        <time>2019-11-10T09:21:26.000Z</time>
      </trkpt>
      <trkpt lat="47.85954" lon="7.16029">
        <ele>920</ele>
        <time>2019-11-10T09:21:27.000Z</time>
      </trkpt>
      <trkpt lat="47.85952" lon="7.16039">
        <ele>920</ele>
        <time>2019-11-10T09:21:32.000Z</time>
      </trkpt>
      <trkpt lat="47.85953" lon="7.16043">
        <ele>920</ele>
        <time>2019-11-10T09:21:33.000Z</time>
      </trkpt>
      <trkpt lat="47.85955" lon="7.1605">
        <ele>920</ele>
        <time>2019-11-10T09:21:36.000Z</time>
      </trkpt>
      <trkpt lat="47.85955" lon="7.16052">
        <ele>920</ele>
        <time>2019-11-10T09:21:38.000Z</time>
      </trkpt>
      <trkpt lat="47.85956" lon="7.16055">
        <ele>920</ele>
        <time>2019-11-10T09:21:54.000Z</time>
      </trkpt>
      <trkpt lat="47.85957" lon="7.16059">
        <ele>920</ele>
        <time>2019-11-10T09:21:55.000Z</time>
      </trkpt>
      <trkpt lat="47.85957" lon="7.16063">
        <ele>920.40002441406</ele>
        <time>2019-11-10T09:21:56.000Z</time>
      </trkpt>
      <trkpt lat="47.85956" lon="7.16067">
        <ele>920.79998779297</ele>
        <time>2019-11-10T09:21:57.000Z</time>
      </trkpt>
      <trkpt lat="47.85955" lon="7.16071">
        <ele>921.20001220703</ele>
        <time>2019-11-10T09:21:58.000Z</time>
      </trkpt>
      <trkpt lat="47.85954" lon="7.16075">
        <ele>921.59997558594</ele>
        <time>2019-11-10T09:21:59.000Z</time>
      </trkpt>
      <trkpt lat="47.85954" lon="7.16079">
        <ele>922</ele>
        <time>2019-11-10T09:22:00.000Z</time>
      </trkpt>
      <trkpt lat="47.85954" lon="7.16086">
        <ele>922</ele>
        <time>2019-11-10T09:22:02.000Z</time>
      </trkpt>
      <trkpt lat="47.85955" lon="7.1609">
        <ele>922</ele>
        <time>2019-11-10T09:22:04.000Z</time>
      </trkpt>
      <trkpt lat="47.85957" lon="7.16097">
        <ele>922.40002441406</ele>
        <time>2019-11-10T09:22:07.000Z</time>
      </trkpt>
      <trkpt lat="47.85958" lon="7.16098">
        <ele>922.79998779297</ele>
        <time>2019-11-10T09:22:08.000Z</time>
      </trkpt>
      <trkpt lat="47.85958" lon="7.161">
        <ele>923.20001220703</ele>
        <time>2019-11-10T09:22:09.000Z</time>
      </trkpt>
      <trkpt lat="47.85959" lon="7.16101">
        <ele>923.59997558594</ele>
        <time>2019-11-10T09:22:10.000Z</time>
      </trkpt>
      <trkpt lat="47.8596" lon="7.16104">
        <ele>924</ele>
        <time>2019-11-10T09:22:11.000Z</time>
      </trkpt>
      <trkpt lat="47.85962" lon="7.1611">
        <ele>924.59997558594</ele>
        <time>2019-11-10T09:22:13.000Z</time>
      </trkpt>
      <trkpt lat="47.85963" lon="7.16114">
        <ele>925</ele>
        <time>2019-11-10T09:22:14.000Z</time>
      </trkpt>
      <trkpt lat="47.85964" lon="7.16118">
        <ele>925.79998779297</ele>
        <time>2019-11-10T09:22:15.000Z</time>
      </trkpt>
      <trkpt lat="47.85964" lon="7.16122">
        <ele>926.40002441406</ele>
        <time>2019-11-10T09:22:16.000Z</time>
      </trkpt>
      <trkpt lat="47.85965" lon="7.16129">
        <ele>926.40002441406</ele>
        <time>2019-11-10T09:22:18.000Z</time>
      </trkpt>
      <trkpt lat="47.85967" lon="7.1614">
        <ele>926.79998779297</ele>
        <time>2019-11-10T09:22:21.000Z</time>
      </trkpt>
      <trkpt lat="47.85968" lon="7.16144">
        <ele>927.20001220703</ele>
        <time>2019-11-10T09:22:22.000Z</time>
      </trkpt>
      <trkpt lat="47.85969" lon="7.16147">
        <ele>927.59997558594</ele>
        <time>2019-11-10T09:22:23.000Z</time>
      </trkpt>
      <trkpt lat="47.8597" lon="7.1615">
        <ele>928.20001220703</ele>
        <time>2019-11-10T09:22:24.000Z</time>
      </trkpt>
      <trkpt lat="47.85971" lon="7.16153">
        <ele>928.59997558594</ele>
        <time>2019-11-10T09:22:25.000Z</time>
      </trkpt>
      <trkpt lat="47.85971" lon="7.16156">
        <ele>928.59997558594</ele>
        <time>2019-11-10T09:22:26.000Z</time>
      </trkpt>
      <trkpt lat="47.85971" lon="7.1616">
        <ele>929</ele>
        <time>2019-11-10T09:22:27.000Z</time>
      </trkpt>
      <trkpt lat="47.85971" lon="7.16165">
        <ele>929.40002441406</ele>
        <time>2019-11-10T09:22:28.000Z</time>
      </trkpt>
      <trkpt lat="47.85972" lon="7.16167">
        <ele>929.79998779297</ele>
        <time>2019-11-10T09:22:29.000Z</time>
      </trkpt>
      <trkpt lat="47.85973" lon="7.1617">
        <ele>930.20001220703</ele>
        <time>2019-11-10T09:22:30.000Z</time>
      </trkpt>
      <trkpt lat="47.85973" lon="7.16174">
        <ele>930.59997558594</ele>
        <time>2019-11-10T09:22:31.000Z</time>
      </trkpt>
      <trkpt lat="47.85976" lon="7.16181">
        <ele>930.59997558594</ele>
        <time>2019-11-10T09:22:34.000Z</time>
      </trkpt>
      <trkpt lat="47.85978" lon="7.16181">
        <ele>930.59997558594</ele>
        <time>2019-11-10T09:22:35.000Z</time>
      </trkpt>
      <trkpt lat="47.85981" lon="7.16183">
        <ele>931.20001220703</ele>
        <time>2019-11-10T09:22:37.000Z</time>
      </trkpt>
      <trkpt lat="47.85981" lon="7.16184">
        <ele>931.59997558594</ele>
        <time>2019-11-10T09:22:38.000Z</time>
      </trkpt>
      <trkpt lat="47.85982" lon="7.16187">
        <ele>932</ele>
        <time>2019-11-10T09:22:39.000Z</time>
      </trkpt>
      <trkpt lat="47.85981" lon="7.1619">
        <ele>932.79998779297</ele>
        <time>2019-11-10T09:22:40.000Z</time>
      </trkpt>
      <trkpt lat="47.85979" lon="7.16201">
        <ele>932.79998779297</ele>
        <time>2019-11-10T09:22:43.000Z</time>
      </trkpt>
      <trkpt lat="47.85979" lon="7.16213">
        <ele>932.79998779297</ele>
        <time>2019-11-10T09:22:47.000Z</time>
      </trkpt>
      <trkpt lat="47.85979" lon="7.16232">
        <ele>932.79998779297</ele>
        <time>2019-11-10T09:22:51.000Z</time>
      </trkpt>
      <trkpt lat="47.85979" lon="7.16239">
        <ele>932.79998779297</ele>
        <time>2019-11-10T09:22:53.000Z</time>
      </trkpt>
      <trkpt lat="47.85978" lon="7.16243">
        <ele>932.79998779297</ele>
        <time>2019-11-10T09:22:55.000Z</time>
      </trkpt>
      <trkpt lat="47.85973" lon="7.16253">
        <ele>932.79998779297</ele>
        <time>2019-11-10T09:22:59.000Z</time>
      </trkpt>
      <trkpt lat="47.8597" lon="7.16262">
        <ele>932.79998779297</ele>
        <time>2019-11-10T09:23:02.000Z</time>
      </trkpt>
      <trkpt lat="47.85969" lon="7.16268">
        <ele>932.40002441406</ele>
        <time>2019-11-10T09:23:03.000Z</time>
      </trkpt>
      <trkpt lat="47.85969" lon="7.16274">
        <ele>931.40002441406</ele>
        <time>2019-11-10T09:23:04.000Z</time>
      </trkpt>
      <trkpt lat="47.85969" lon="7.16277">
        <ele>930.79998779297</ele>
        <time>2019-11-10T09:23:05.000Z</time>
      </trkpt>
      <trkpt lat="47.85969" lon="7.16282">
        <ele>930.40002441406</ele>
        <time>2019-11-10T09:23:06.000Z</time>
      </trkpt>
      <trkpt lat="47.85969" lon="7.1629">
        <ele>930</ele>
        <time>2019-11-10T09:23:08.000Z</time>
      </trkpt>
      <trkpt lat="47.8597" lon="7.16291">
        <ele>929.59997558594</ele>
        <time>2019-11-10T09:23:09.000Z</time>
      </trkpt>
      <trkpt lat="47.85977" lon="7.16302">
        <ele>928.40002441406</ele>
        <time>2019-11-10T09:23:54.000Z</time>
      </trkpt>
      <trkpt lat="47.85982" lon="7.163">
        <ele>928.40002441406</ele>
        <time>2019-11-10T09:23:56.000Z</time>
      </trkpt>
      <trkpt lat="47.8599" lon="7.16297">
        <ele>928.40002441406</ele>
        <time>2019-11-10T09:23:59.000Z</time>
      </trkpt>
      <trkpt lat="47.85992" lon="7.16297">
        <ele>928.40002441406</ele>
        <time>2019-11-10T09:24:00.000Z</time>
      </trkpt>
      <trkpt lat="47.85994" lon="7.16299">
        <ele>928.40002441406</ele>
        <time>2019-11-10T09:24:01.000Z</time>
      </trkpt>
      <trkpt lat="47.85998" lon="7.16301">
        <ele>928.40002441406</ele>
        <time>2019-11-10T09:24:03.000Z</time>
      </trkpt>
      <trkpt lat="47.86003" lon="7.163">
        <ele>928.79998779297</ele>
        <time>2019-11-10T09:24:05.000Z</time>
      </trkpt>
      <trkpt lat="47.86006" lon="7.16298">
        <ele>929.20001220703</ele>
        <time>2019-11-10T09:24:06.000Z</time>
      </trkpt>
      <trkpt lat="47.86008" lon="7.16297">
        <ele>929.79998779297</ele>
        <time>2019-11-10T09:24:07.000Z</time>
      </trkpt>
      <trkpt lat="47.8601" lon="7.16296">
        <ele>930.20001220703</ele>
        <time>2019-11-10T09:24:08.000Z</time>
      </trkpt>
      <trkpt lat="47.86012" lon="7.16294">
        <ele>930.59997558594</ele>
        <time>2019-11-10T09:24:09.000Z</time>
      </trkpt>
      <trkpt lat="47.86014" lon="7.1629">
        <ele>930.59997558594</ele>
        <time>2019-11-10T09:24:10.000Z</time>
      </trkpt>
      <trkpt lat="47.86016" lon="7.16283">
        <ele>931</ele>
        <time>2019-11-10T09:24:12.000Z</time>
      </trkpt>
      <trkpt lat="47.86018" lon="7.1628">
        <ele>931.40002441406</ele>
        <time>2019-11-10T09:24:13.000Z</time>
      </trkpt>
      <trkpt lat="47.86019" lon="7.16277">
        <ele>932</ele>
        <time>2019-11-10T09:24:14.000Z</time>
      </trkpt>
      <trkpt lat="47.8602" lon="7.16274">
        <ele>932.40002441406</ele>
        <time>2019-11-10T09:24:15.000Z</time>
      </trkpt>
      <trkpt lat="47.86021" lon="7.16271">
        <ele>932.79998779297</ele>
        <time>2019-11-10T09:24:16.000Z</time>
      </trkpt>
      <trkpt lat="47.86022" lon="7.16267">
        <ele>933.20001220703</ele>
        <time>2019-11-10T09:24:17.000Z</time>
      </trkpt>
      <trkpt lat="47.86023" lon="7.16265">
        <ele>934.20001220703</ele>
        <time>2019-11-10T09:24:18.000Z</time>
      </trkpt>
      <trkpt lat="47.86024" lon="7.16262">
        <ele>934.59997558594</ele>
        <time>2019-11-10T09:24:19.000Z</time>
      </trkpt>
      <trkpt lat="47.86025" lon="7.16259">
        <ele>935</ele>
        <time>2019-11-10T09:24:20.000Z</time>
      </trkpt>
      <trkpt lat="47.86026" lon="7.16254">
        <ele>935.59997558594</ele>
        <time>2019-11-10T09:24:22.000Z</time>
      </trkpt>
      <trkpt lat="47.86027" lon="7.16251">
        <ele>936</ele>
        <time>2019-11-10T09:24:23.000Z</time>
      </trkpt>
      <trkpt lat="47.86027" lon="7.16248">
        <ele>936.40002441406</ele>
        <time>2019-11-10T09:24:24.000Z</time>
      </trkpt>
      <trkpt lat="47.86028" lon="7.16245">
        <ele>936.79998779297</ele>
        <time>2019-11-10T09:24:25.000Z</time>
      </trkpt>
      <trkpt lat="47.86028" lon="7.16242">
        <ele>937.20001220703</ele>
        <time>2019-11-10T09:24:26.000Z</time>
      </trkpt>
      <trkpt lat="47.8603" lon="7.16238">
        <ele>937.20001220703</ele>
        <time>2019-11-10T09:24:28.000Z</time>
      </trkpt>
      <trkpt lat="47.86034" lon="7.16237">
        <ele>937.20001220703</ele>
        <time>2019-11-10T09:24:30.000Z</time>
      </trkpt>
      <trkpt lat="47.86036" lon="7.16237">
        <ele>937.59997558594</ele>
        <time>2019-11-10T09:24:31.000Z</time>
      </trkpt>
      <trkpt lat="47.86037" lon="7.16236">
        <ele>938</ele>
        <time>2019-11-10T09:24:32.000Z</time>
      </trkpt>
      <trkpt lat="47.86039" lon="7.16235">
        <ele>938.40002441406</ele>
        <time>2019-11-10T09:24:33.000Z</time>
      </trkpt>
      <trkpt lat="47.86041" lon="7.16234">
        <ele>938.79998779297</ele>
        <time>2019-11-10T09:24:34.000Z</time>
      </trkpt>
      <trkpt lat="47.86042" lon="7.16233">
        <ele>939.20001220703</ele>
        <time>2019-11-10T09:24:35.000Z</time>
      </trkpt>
      <trkpt lat="47.86044" lon="7.16226">
        <ele>939.20001220703</ele>
        <time>2019-11-10T09:24:37.000Z</time>
      </trkpt>
      <trkpt lat="47.86046" lon="7.16223">
        <ele>939.20001220703</ele>
        <time>2019-11-10T09:24:38.000Z</time>
      </trkpt>
      <trkpt lat="47.86054" lon="7.1621">
        <ele>939.59997558594</ele>
        <time>2019-11-10T09:24:43.000Z</time>
      </trkpt>
      <trkpt lat="47.86054" lon="7.16207">
        <ele>940</ele>
        <time>2019-11-10T09:24:44.000Z</time>
      </trkpt>
      <trkpt lat="47.86055" lon="7.16204">
        <ele>940.40002441406</ele>
        <time>2019-11-10T09:24:45.000Z</time>
      </trkpt>
      <trkpt lat="47.86055" lon="7.16202">
        <ele>940.79998779297</ele>
        <time>2019-11-10T09:24:46.000Z</time>
      </trkpt>
      <trkpt lat="47.86056" lon="7.16199">
        <ele>941.40002441406</ele>
        <time>2019-11-10T09:24:47.000Z</time>
      </trkpt>
      <trkpt lat="47.86059" lon="7.16195">
        <ele>941.40002441406</ele>
        <time>2019-11-10T09:24:49.000Z</time>
      </trkpt>
      <trkpt lat="47.86062" lon="7.16191">
        <ele>941.79998779297</ele>
        <time>2019-11-10T09:24:51.000Z</time>
      </trkpt>
      <trkpt lat="47.86063" lon="7.16189">
        <ele>942.20001220703</ele>
        <time>2019-11-10T09:24:52.000Z</time>
      </trkpt>
      <trkpt lat="47.86064" lon="7.16187">
        <ele>942.59997558594</ele>
        <time>2019-11-10T09:24:53.000Z</time>
      </trkpt>
      <trkpt lat="47.86065" lon="7.16184">
        <ele>943</ele>
        <time>2019-11-10T09:24:54.000Z</time>
      </trkpt>
      <trkpt lat="47.86067" lon="7.16182">
        <ele>943.40002441406</ele>
        <time>2019-11-10T09:24:55.000Z</time>
      </trkpt>
      <trkpt lat="47.86068" lon="7.16168">
        <ele>943.40002441406</ele>
        <time>2019-11-10T09:25:00.000Z</time>
      </trkpt>
      <trkpt lat="47.8607" lon="7.16162">
        <ele>943.79998779297</ele>
        <time>2019-11-10T09:25:02.000Z</time>
      </trkpt>
      <trkpt lat="47.86071" lon="7.1616">
        <ele>944.20001220703</ele>
        <time>2019-11-10T09:25:03.000Z</time>
      </trkpt>
      <trkpt lat="47.86071" lon="7.16157">
        <ele>944.79998779297</ele>
        <time>2019-11-10T09:25:04.000Z</time>
      </trkpt>
      <trkpt lat="47.86073" lon="7.16156">
        <ele>945.20001220703</ele>
        <time>2019-11-10T09:25:05.000Z</time>
      </trkpt>
      <trkpt lat="47.86074" lon="7.16153">
        <ele>945.59997558594</ele>
        <time>2019-11-10T09:25:06.000Z</time>
      </trkpt>
      <trkpt lat="47.86075" lon="7.16152">
        <ele>945.59997558594</ele>
        <time>2019-11-10T09:25:07.000Z</time>
      </trkpt>
      <trkpt lat="47.86078" lon="7.16145">
        <ele>946</ele>
        <time>2019-11-10T09:25:10.000Z</time>
      </trkpt>
      <trkpt lat="47.86078" lon="7.16142">
        <ele>946.40002441406</ele>
        <time>2019-11-10T09:25:11.000Z</time>
      </trkpt>
      <trkpt lat="47.86079" lon="7.16139">
        <ele>947</ele>
        <time>2019-11-10T09:25:12.000Z</time>
      </trkpt>
      <trkpt lat="47.8608" lon="7.16137">
        <ele>947.40002441406</ele>
        <time>2019-11-10T09:25:13.000Z</time>
      </trkpt>
      <trkpt lat="47.86081" lon="7.16135">
        <ele>947.79998779297</ele>
        <time>2019-11-10T09:25:14.000Z</time>
      </trkpt>
      <trkpt lat="47.86083" lon="7.16126">
        <ele>947.79998779297</ele>
        <time>2019-11-10T09:25:19.000Z</time>
      </trkpt>
      <trkpt lat="47.86084" lon="7.16125">
        <ele>948.20001220703</ele>
        <time>2019-11-10T09:25:20.000Z</time>
      </trkpt>
      <trkpt lat="47.86084" lon="7.16124">
        <ele>948.59997558594</ele>
        <time>2019-11-10T09:25:21.000Z</time>
      </trkpt>
      <trkpt lat="47.86084" lon="7.16124">
        <ele>949</ele>
        <time>2019-11-10T09:25:22.000Z</time>
      </trkpt>
      <trkpt lat="47.86082" lon="7.16127">
        <ele>949.79998779297</ele>
        <time>2019-11-10T09:35:39.000Z</time>
      </trkpt>
      <trkpt lat="47.86081" lon="7.16131">
        <ele>949.79998779297</ele>
        <time>2019-11-10T09:35:40.000Z</time>
      </trkpt>
      <trkpt lat="47.8608" lon="7.16137">
        <ele>949.79998779297</ele>
        <time>2019-11-10T09:35:41.000Z</time>
      </trkpt>
      <trkpt lat="47.86075" lon="7.16149">
        <ele>949.40002441406</ele>
        <time>2019-11-10T09:35:43.000Z</time>
      </trkpt>
      <trkpt lat="47.86072" lon="7.16155">
        <ele>948.79998779297</ele>
        <time>2019-11-10T09:35:44.000Z</time>
      </trkpt>
      <trkpt lat="47.86069" lon="7.16162">
        <ele>948.40002441406</ele>
        <time>2019-11-10T09:35:45.000Z</time>
      </trkpt>
      <trkpt lat="47.86068" lon="7.16169">
        <ele>947.79998779297</ele>
        <time>2019-11-10T09:35:46.000Z</time>
      </trkpt>
      <trkpt lat="47.86067" lon="7.16178">
        <ele>947.40002441406</ele>
        <time>2019-11-10T09:35:47.000Z</time>
      </trkpt>
      <trkpt lat="47.86065" lon="7.16186">
        <ele>946.79998779297</ele>
        <time>2019-11-10T09:35:48.000Z</time>
      </trkpt>
      <trkpt lat="47.86062" lon="7.16192">
        <ele>946.20001220703</ele>
        <time>2019-11-10T09:35:49.000Z</time>
      </trkpt>
      <trkpt lat="47.86059" lon="7.16197">
        <ele>945</ele>
        <time>2019-11-10T09:35:50.000Z</time>
      </trkpt>
      <trkpt lat="47.86056" lon="7.16202">
        <ele>944.40002441406</ele>
        <time>2019-11-10T09:35:51.000Z</time>
      </trkpt>
      <trkpt lat="47.86055" lon="7.16208">
        <ele>943.79998779297</ele>
        <time>2019-11-10T09:35:52.000Z</time>
      </trkpt>
      <trkpt lat="47.86052" lon="7.16214">
        <ele>943.20001220703</ele>
        <time>2019-11-10T09:35:53.000Z</time>
      </trkpt>
      <trkpt lat="47.86049" lon="7.1622">
        <ele>942.59997558594</ele>
        <time>2019-11-10T09:35:54.000Z</time>
      </trkpt>
      <trkpt lat="47.86046" lon="7.16227">
        <ele>942</ele>
        <time>2019-11-10T09:35:55.000Z</time>
      </trkpt>
      <trkpt lat="47.86042" lon="7.16232">
        <ele>941.59997558594</ele>
        <time>2019-11-10T09:35:56.000Z</time>
      </trkpt>
      <trkpt lat="47.86038" lon="7.16236">
        <ele>941</ele>
        <time>2019-11-10T09:35:57.000Z</time>
      </trkpt>
      <trkpt lat="47.86033" lon="7.16239">
        <ele>940.59997558594</ele>
        <time>2019-11-10T09:35:58.000Z</time>
      </trkpt>
      <trkpt lat="47.86031" lon="7.16243">
        <ele>940</ele>
        <time>2019-11-10T09:35:59.000Z</time>
      </trkpt>
      <trkpt lat="47.8603" lon="7.16249">
        <ele>939.59997558594</ele>
        <time>2019-11-10T09:36:00.000Z</time>
      </trkpt>
      <trkpt lat="47.86028" lon="7.16256">
        <ele>939.20001220703</ele>
        <time>2019-11-10T09:36:01.000Z</time>
      </trkpt>
      <trkpt lat="47.86026" lon="7.16264">
        <ele>938.59997558594</ele>
        <time>2019-11-10T09:36:02.000Z</time>
      </trkpt>
      <trkpt lat="47.86025" lon="7.16273">
        <ele>938.20001220703</ele>
        <time>2019-11-10T09:36:03.000Z</time>
      </trkpt>
      <trkpt lat="47.86023" lon="7.16282">
        <ele>937.59997558594</ele>
        <time>2019-11-10T09:36:04.000Z</time>
      </trkpt>
      <trkpt lat="47.8602" lon="7.1629">
        <ele>937.20001220703</ele>
        <time>2019-11-10T09:36:05.000Z</time>
      </trkpt>
      <trkpt lat="47.86019" lon="7.16297">
        <ele>936.40002441406</ele>
        <time>2019-11-10T09:36:06.000Z</time>
      </trkpt>
      <trkpt lat="47.86017" lon="7.16301">
        <ele>935.59997558594</ele>
        <time>2019-11-10T09:36:07.000Z</time>
      </trkpt>
      <trkpt lat="47.86013" lon="7.16305">
        <ele>935</ele>
        <time>2019-11-10T09:36:08.000Z</time>
      </trkpt>
      <trkpt lat="47.86009" lon="7.16308">
        <ele>934.20001220703</ele>
        <time>2019-11-10T09:36:09.000Z</time>
      </trkpt>
      <trkpt lat="47.86005" lon="7.16309">
        <ele>933.59997558594</ele>
        <time>2019-11-10T09:36:10.000Z</time>
      </trkpt>
      <trkpt lat="47.86" lon="7.1631">
        <ele>933</ele>
        <time>2019-11-10T09:36:11.000Z</time>
      </trkpt>
      <trkpt lat="47.85997" lon="7.16309">
        <ele>932.40002441406</ele>
        <time>2019-11-10T09:36:12.000Z</time>
      </trkpt>
      <trkpt lat="47.85993" lon="7.16309">
        <ele>931.79998779297</ele>
        <time>2019-11-10T09:36:13.000Z</time>
      </trkpt>
      <trkpt lat="47.85989" lon="7.16308">
        <ele>930.79998779297</ele>
        <time>2019-11-10T09:36:14.000Z</time>
      </trkpt>
      <trkpt lat="47.85987" lon="7.16309">
        <ele>930.20001220703</ele>
        <time>2019-11-10T09:36:15.000Z</time>
      </trkpt>
      <trkpt lat="47.85986" lon="7.16311">
        <ele>929.79998779297</ele>
        <time>2019-11-10T09:36:16.000Z</time>
      </trkpt>
      <trkpt lat="47.85985" lon="7.16312">
        <ele>929.20001220703</ele>
        <time>2019-11-10T09:36:17.000Z</time>
      </trkpt>
      <trkpt lat="47.85985" lon="7.16312">
        <ele>928.79998779297</ele>
        <time>2019-11-10T09:36:18.000Z</time>
      </trkpt>
      <trkpt lat="47.85982" lon="7.16313">
        <ele>927.20001220703</ele>
        <time>2019-11-10T09:36:41.000Z</time>
      </trkpt>
      <trkpt lat="47.85979" lon="7.16313">
        <ele>927.20001220703</ele>
        <time>2019-11-10T09:36:43.000Z</time>
      </trkpt>
      <trkpt lat="47.85978" lon="7.16313">
        <ele>927.20001220703</ele>
        <time>2019-11-10T09:36:44.000Z</time>
      </trkpt>
      <trkpt lat="47.85975" lon="7.16306">
        <ele>927.20001220703</ele>
        <time>2019-11-10T09:37:45.000Z</time>
      </trkpt>
      <trkpt lat="47.85975" lon="7.16303">
        <ele>927.20001220703</ele>
        <time>2019-11-10T09:37:46.000Z</time>
      </trkpt>
      <trkpt lat="47.85977" lon="7.16295">
        <ele>927.20001220703</ele>
        <time>2019-11-10T09:37:50.000Z</time>
      </trkpt>
      <trkpt lat="47.85976" lon="7.16293">
        <ele>927.20001220703</ele>
        <time>2019-11-10T09:37:52.000Z</time>
      </trkpt>
      <trkpt lat="47.85974" lon="7.1629">
        <ele>927.20001220703</ele>
        <time>2019-11-10T09:38:06.000Z</time>
      </trkpt>
      <trkpt lat="47.85972" lon="7.16289">
        <ele>927.20001220703</ele>
        <time>2019-11-10T09:38:07.000Z</time>
      </trkpt>
      <trkpt lat="47.85961" lon="7.16289">
        <ele>927.20001220703</ele>
        <time>2019-11-10T09:38:11.000Z</time>
      </trkpt>
      <trkpt lat="47.85958" lon="7.16288">
        <ele>926.59997558594</ele>
        <time>2019-11-10T09:38:12.000Z</time>
      </trkpt>
      <trkpt lat="47.85957" lon="7.16287">
        <ele>926.20001220703</ele>
        <time>2019-11-10T09:38:13.000Z</time>
      </trkpt>
      <trkpt lat="47.85955" lon="7.16287">
        <ele>925.59997558594</ele>
        <time>2019-11-10T09:38:14.000Z</time>
      </trkpt>
      <trkpt lat="47.85954" lon="7.16287">
        <ele>925</ele>
        <time>2019-11-10T09:38:15.000Z</time>
      </trkpt>
      <trkpt lat="47.85953" lon="7.16287">
        <ele>924.40002441406</ele>
        <time>2019-11-10T09:38:16.000Z</time>
      </trkpt>
      <trkpt lat="47.85952" lon="7.16286">
        <ele>923.79998779297</ele>
        <time>2019-11-10T09:38:17.000Z</time>
      </trkpt>
      <trkpt lat="47.8595" lon="7.16283">
        <ele>922.59997558594</ele>
        <time>2019-11-10T09:38:18.000Z</time>
      </trkpt>
      <trkpt lat="47.85947" lon="7.1628">
        <ele>922.20001220703</ele>
        <time>2019-11-10T09:38:19.000Z</time>
      </trkpt>
      <trkpt lat="47.85943" lon="7.16278">
        <ele>921.79998779297</ele>
        <time>2019-11-10T09:38:20.000Z</time>
      </trkpt>
      <trkpt lat="47.85941" lon="7.16277">
        <ele>921.40002441406</ele>
        <time>2019-11-10T09:38:21.000Z</time>
      </trkpt>
      <trkpt lat="47.85938" lon="7.16275">
        <ele>920.79998779297</ele>
        <time>2019-11-10T09:38:22.000Z</time>
      </trkpt>
      <trkpt lat="47.85935" lon="7.16273">
        <ele>920.40002441406</ele>
        <time>2019-11-10T09:38:23.000Z</time>
      </trkpt>
      <trkpt lat="47.8593" lon="7.16271">
        <ele>920</ele>
        <time>2019-11-10T09:38:25.000Z</time>
      </trkpt>
      <trkpt lat="47.85928" lon="7.16271">
        <ele>919.59997558594</ele>
        <time>2019-11-10T09:38:26.000Z</time>
      </trkpt>
      <trkpt lat="47.85926" lon="7.1627">
        <ele>919</ele>
        <time>2019-11-10T09:38:27.000Z</time>
      </trkpt>
      <trkpt lat="47.85925" lon="7.16269">
        <ele>918.59997558594</ele>
        <time>2019-11-10T09:38:28.000Z</time>
      </trkpt>
      <trkpt lat="47.85919" lon="7.16267">
        <ele>916.20001220703</ele>
        <time>2019-11-10T09:38:33.000Z</time>
      </trkpt>
      <trkpt lat="47.85913" lon="7.16266">
        <ele>915.59997558594</ele>
        <time>2019-11-10T09:38:35.000Z</time>
      </trkpt>
      <trkpt lat="47.85911" lon="7.16266">
        <ele>915</ele>
        <time>2019-11-10T09:38:36.000Z</time>
      </trkpt>
      <trkpt lat="47.85908" lon="7.16267">
        <ele>914.40002441406</ele>
        <time>2019-11-10T09:38:37.000Z</time>
      </trkpt>
      <trkpt lat="47.85905" lon="7.16267">
        <ele>914</ele>
        <time>2019-11-10T09:38:38.000Z</time>
      </trkpt>
      <trkpt lat="47.85902" lon="7.16267">
        <ele>913.20001220703</ele>
        <time>2019-11-10T09:38:39.000Z</time>
      </trkpt>
      <trkpt lat="47.85899" lon="7.16267">
        <ele>912.59997558594</ele>
        <time>2019-11-10T09:38:40.000Z</time>
      </trkpt>
      <trkpt lat="47.85897" lon="7.16266">
        <ele>912</ele>
        <time>2019-11-10T09:38:41.000Z</time>
      </trkpt>
      <trkpt lat="47.85895" lon="7.16265">
        <ele>911.20001220703</ele>
        <time>2019-11-10T09:38:42.000Z</time>
      </trkpt>
      <trkpt lat="47.85893" lon="7.16265">
        <ele>909.79998779297</ele>
        <time>2019-11-10T09:38:43.000Z</time>
      </trkpt>
      <trkpt lat="47.85891" lon="7.16265">
        <ele>909</ele>
        <time>2019-11-10T09:38:44.000Z</time>
      </trkpt>
      <trkpt lat="47.85889" lon="7.16266">
        <ele>908.40002441406</ele>
        <time>2019-11-10T09:38:45.000Z</time>
      </trkpt>
      <trkpt lat="47.85886" lon="7.16267">
        <ele>907.59997558594</ele>
        <time>2019-11-10T09:38:46.000Z</time>
      </trkpt>
      <trkpt lat="47.85884" lon="7.16267">
        <ele>907</ele>
        <time>2019-11-10T09:38:47.000Z</time>
      </trkpt>
      <trkpt lat="47.85882" lon="7.16267">
        <ele>906.40002441406</ele>
        <time>2019-11-10T09:38:48.000Z</time>
      </trkpt>
      <trkpt lat="47.85881" lon="7.16267">
        <ele>905.59997558594</ele>
        <time>2019-11-10T09:38:49.000Z</time>
      </trkpt>
      <trkpt lat="47.85879" lon="7.16266">
        <ele>905</ele>
        <time>2019-11-10T09:38:50.000Z</time>
      </trkpt>
      <trkpt lat="47.85878" lon="7.16264">
        <ele>904.20001220703</ele>
        <time>2019-11-10T09:38:51.000Z</time>
      </trkpt>
      <trkpt lat="47.85876" lon="7.16263">
        <ele>903.59997558594</ele>
        <time>2019-11-10T09:38:52.000Z</time>
      </trkpt>
      <trkpt lat="47.85875" lon="7.16261">
        <ele>903</ele>
        <time>2019-11-10T09:38:53.000Z</time>
      </trkpt>
      <trkpt lat="47.85873" lon="7.16259">
        <ele>902.40002441406</ele>
        <time>2019-11-10T09:38:54.000Z</time>
      </trkpt>
      <trkpt lat="47.85871" lon="7.16258">
        <ele>902</ele>
        <time>2019-11-10T09:38:55.000Z</time>
      </trkpt>
      <trkpt lat="47.85868" lon="7.16256">
        <ele>901.20001220703</ele>
        <time>2019-11-10T09:38:56.000Z</time>
      </trkpt>
      <trkpt lat="47.85865" lon="7.16253">
        <ele>900.59997558594</ele>
        <time>2019-11-10T09:38:57.000Z</time>
      </trkpt>
      <trkpt lat="47.85862" lon="7.16249">
        <ele>900</ele>
        <time>2019-11-10T09:38:58.000Z</time>
      </trkpt>
      <trkpt lat="47.8586" lon="7.16245">
        <ele>899.20001220703</ele>
        <time>2019-11-10T09:38:59.000Z</time>
      </trkpt>
      <trkpt lat="47.85858" lon="7.1624">
        <ele>898.59997558594</ele>
        <time>2019-11-10T09:39:00.000Z</time>
      </trkpt>
      <trkpt lat="47.85857" lon="7.16236">
        <ele>897.79998779297</ele>
        <time>2019-11-10T09:39:01.000Z</time>
      </trkpt>
      <trkpt lat="47.85856" lon="7.16231">
        <ele>897</ele>
        <time>2019-11-10T09:39:02.000Z</time>
      </trkpt>
      <trkpt lat="47.85854" lon="7.16227">
        <ele>896.40002441406</ele>
        <time>2019-11-10T09:39:03.000Z</time>
      </trkpt>
      <trkpt lat="47.85849" lon="7.16216">
        <ele>896.40002441406</ele>
        <time>2019-11-10T09:39:06.000Z</time>
      </trkpt>
      <trkpt lat="47.85842" lon="7.16206">
        <ele>896.40002441406</ele>
        <time>2019-11-10T09:39:09.000Z</time>
      </trkpt>
      <trkpt lat="47.85841" lon="7.16205">
        <ele>896.40002441406</ele>
        <time>2019-11-10T09:39:11.000Z</time>
      </trkpt>
      <trkpt lat="47.8584" lon="7.16204">
        <ele>896.40002441406</ele>
        <time>2019-11-10T09:39:36.000Z</time>
      </trkpt>
      <trkpt lat="47.85839" lon="7.16204">
        <ele>896.40002441406</ele>
        <time>2019-11-10T09:39:37.000Z</time>
      </trkpt>
      <trkpt lat="47.85836" lon="7.16204">
        <ele>896</ele>
        <time>2019-11-10T09:39:39.000Z</time>
      </trkpt>
      <trkpt lat="47.85835" lon="7.16206">
        <ele>895.40002441406</ele>
        <time>2019-11-10T09:39:40.000Z</time>
      </trkpt>
      <trkpt lat="47.85834" lon="7.16207">
        <ele>895</ele>
        <time>2019-11-10T09:39:41.000Z</time>
      </trkpt>
      <trkpt lat="47.85832" lon="7.16207">
        <ele>894.40002441406</ele>
        <time>2019-11-10T09:39:42.000Z</time>
      </trkpt>
      <trkpt lat="47.85831" lon="7.16208">
        <ele>893.79998779297</ele>
        <time>2019-11-10T09:39:43.000Z</time>
      </trkpt>
      <trkpt lat="47.8583" lon="7.16208">
        <ele>893.20001220703</ele>
        <time>2019-11-10T09:39:44.000Z</time>
      </trkpt>
      <trkpt lat="47.85829" lon="7.16207">
        <ele>892.59997558594</ele>
        <time>2019-11-10T09:39:45.000Z</time>
      </trkpt>
      <trkpt lat="47.85827" lon="7.16206">
        <ele>892</ele>
        <time>2019-11-10T09:39:46.000Z</time>
      </trkpt>
      <trkpt lat="47.85819" lon="7.16198">
        <ele>892</ele>
        <time>2019-11-10T09:39:50.000Z</time>
      </trkpt>
      <trkpt lat="47.85816" lon="7.16197">
        <ele>891.59997558594</ele>
        <time>2019-11-10T09:39:51.000Z</time>
      </trkpt>
      <trkpt lat="47.85815" lon="7.16197">
        <ele>891.20001220703</ele>
        <time>2019-11-10T09:39:52.000Z</time>
      </trkpt>
      <trkpt lat="47.85813" lon="7.16198">
        <ele>890.59997558594</ele>
        <time>2019-11-10T09:39:53.000Z</time>
      </trkpt>
      <trkpt lat="47.85811" lon="7.16198">
        <ele>890.20001220703</ele>
        <time>2019-11-10T09:39:54.000Z</time>
      </trkpt>
      <trkpt lat="47.8581" lon="7.16197">
        <ele>889.79998779297</ele>
        <time>2019-11-10T09:39:55.000Z</time>
      </trkpt>
      <trkpt lat="47.85806" lon="7.16196">
        <ele>889.20001220703</ele>
        <time>2019-11-10T09:39:57.000Z</time>
      </trkpt>
      <trkpt lat="47.85804" lon="7.16195">
        <ele>888.79998779297</ele>
        <time>2019-11-10T09:39:58.000Z</time>
      </trkpt>
      <trkpt lat="47.85803" lon="7.16194">
        <ele>888.40002441406</ele>
        <time>2019-11-10T09:39:59.000Z</time>
      </trkpt>
      <trkpt lat="47.85803" lon="7.16193">
        <ele>887.79998779297</ele>
        <time>2019-11-10T09:40:00.000Z</time>
      </trkpt>
      <trkpt lat="47.85802" lon="7.16193">
        <ele>887.40002441406</ele>
        <time>2019-11-10T09:40:01.000Z</time>
      </trkpt>
      <trkpt lat="47.85802" lon="7.16191">
        <ele>887.40002441406</ele>
        <time>2019-11-10T09:40:02.000Z</time>
      </trkpt>
      <trkpt lat="47.85801" lon="7.16189">
        <ele>887.40002441406</ele>
        <time>2019-11-10T09:40:03.000Z</time>
      </trkpt>
      <trkpt lat="47.85797" lon="7.16182">
        <ele>887.40002441406</ele>
        <time>2019-11-10T09:40:06.000Z</time>
      </trkpt>
      <trkpt lat="47.85795" lon="7.1618">
        <ele>886.79998779297</ele>
        <time>2019-11-10T09:40:07.000Z</time>
      </trkpt>
      <trkpt lat="47.85793" lon="7.16178">
        <ele>886.40002441406</ele>
        <time>2019-11-10T09:40:08.000Z</time>
      </trkpt>
      <trkpt lat="47.85792" lon="7.16177">
        <ele>886</ele>
        <time>2019-11-10T09:40:09.000Z</time>
      </trkpt>
      <trkpt lat="47.8579" lon="7.16175">
        <ele>885.59997558594</ele>
        <time>2019-11-10T09:40:10.000Z</time>
      </trkpt>
      <trkpt lat="47.85788" lon="7.16175">
        <ele>885</ele>
        <time>2019-11-10T09:40:11.000Z</time>
      </trkpt>
      <trkpt lat="47.85786" lon="7.16175">
        <ele>884.59997558594</ele>
        <time>2019-11-10T09:40:12.000Z</time>
      </trkpt>
      <trkpt lat="47.85784" lon="7.16174">
        <ele>884</ele>
        <time>2019-11-10T09:40:13.000Z</time>
      </trkpt>
      <trkpt lat="47.85782" lon="7.16172">
        <ele>883.40002441406</ele>
        <time>2019-11-10T09:40:14.000Z</time>
      </trkpt>
      <trkpt lat="47.85779" lon="7.16171">
        <ele>882.79998779297</ele>
        <time>2019-11-10T09:40:15.000Z</time>
      </trkpt>
      <trkpt lat="47.85777" lon="7.1617">
        <ele>882.20001220703</ele>
        <time>2019-11-10T09:40:16.000Z</time>
      </trkpt>
      <trkpt lat="47.85774" lon="7.16169">
        <ele>881.59997558594</ele>
        <time>2019-11-10T09:40:17.000Z</time>
      </trkpt>
      <trkpt lat="47.85771" lon="7.16168">
        <ele>881</ele>
        <time>2019-11-10T09:40:18.000Z</time>
      </trkpt>
      <trkpt lat="47.85769" lon="7.16166">
        <ele>880.40002441406</ele>
        <time>2019-11-10T09:40:19.000Z</time>
      </trkpt>
      <trkpt lat="47.85767" lon="7.16164">
        <ele>879.79998779297</ele>
        <time>2019-11-10T09:40:20.000Z</time>
      </trkpt>
      <trkpt lat="47.85764" lon="7.16162">
        <ele>879.40002441406</ele>
        <time>2019-11-10T09:40:21.000Z</time>
      </trkpt>
      <trkpt lat="47.85763" lon="7.16163">
        <ele>878.20001220703</ele>
        <time>2019-11-10T09:40:22.000Z</time>
      </trkpt>
      <trkpt lat="47.85761" lon="7.16164">
        <ele>877.59997558594</ele>
        <time>2019-11-10T09:40:23.000Z</time>
      </trkpt>
      <trkpt lat="47.85759" lon="7.16164">
        <ele>877</ele>
        <time>2019-11-10T09:40:24.000Z</time>
      </trkpt>
      <trkpt lat="47.85758" lon="7.16164">
        <ele>876.20001220703</ele>
        <time>2019-11-10T09:40:25.000Z</time>
      </trkpt>
      <trkpt lat="47.85756" lon="7.16162">
        <ele>875.79998779297</ele>
        <time>2019-11-10T09:40:26.000Z</time>
      </trkpt>
      <trkpt lat="47.85754" lon="7.1616">
        <ele>875.40002441406</ele>
        <time>2019-11-10T09:40:27.000Z</time>
      </trkpt>
      <trkpt lat="47.85752" lon="7.16157">
        <ele>874.79998779297</ele>
        <time>2019-11-10T09:40:28.000Z</time>
      </trkpt>
      <trkpt lat="47.8575" lon="7.16156">
        <ele>874.40002441406</ele>
        <time>2019-11-10T09:40:29.000Z</time>
      </trkpt>
      <trkpt lat="47.85749" lon="7.16157">
        <ele>874</ele>
        <time>2019-11-10T09:40:30.000Z</time>
      </trkpt>
      <trkpt lat="47.85747" lon="7.1616">
        <ele>873.40002441406</ele>
        <time>2019-11-10T09:40:31.000Z</time>
      </trkpt>
      <trkpt lat="47.85745" lon="7.16162">
        <ele>873</ele>
        <time>2019-11-10T09:40:32.000Z</time>
      </trkpt>
      <trkpt lat="47.85743" lon="7.16165">
        <ele>872.59997558594</ele>
        <time>2019-11-10T09:40:33.000Z</time>
      </trkpt>
      <trkpt lat="47.85741" lon="7.16166">
        <ele>872</ele>
        <time>2019-11-10T09:40:34.000Z</time>
      </trkpt>
      <trkpt lat="47.85739" lon="7.16166">
        <ele>871.20001220703</ele>
        <time>2019-11-10T09:40:35.000Z</time>
      </trkpt>
      <trkpt lat="47.85737" lon="7.16165">
        <ele>870.59997558594</ele>
        <time>2019-11-10T09:40:36.000Z</time>
      </trkpt>
      <trkpt lat="47.85736" lon="7.16163">
        <ele>870</ele>
        <time>2019-11-10T09:40:37.000Z</time>
      </trkpt>
      <trkpt lat="47.85734" lon="7.1616">
        <ele>869.40002441406</ele>
        <time>2019-11-10T09:40:38.000Z</time>
      </trkpt>
      <trkpt lat="47.85733" lon="7.16158">
        <ele>869.40002441406</ele>
        <time>2019-11-10T09:40:39.000Z</time>
      </trkpt>
      <trkpt lat="47.85725" lon="7.1615">
        <ele>869</ele>
        <time>2019-11-10T09:40:43.000Z</time>
      </trkpt>
      <trkpt lat="47.85722" lon="7.1615">
        <ele>868.59997558594</ele>
        <time>2019-11-10T09:40:44.000Z</time>
      </trkpt>
      <trkpt lat="47.85719" lon="7.16152">
        <ele>868.20001220703</ele>
        <time>2019-11-10T09:40:45.000Z</time>
      </trkpt>
      <trkpt lat="47.85716" lon="7.16155">
        <ele>867.79998779297</ele>
        <time>2019-11-10T09:40:46.000Z</time>
      </trkpt>
      <trkpt lat="47.85713" lon="7.16155">
        <ele>867</ele>
        <time>2019-11-10T09:40:47.000Z</time>
      </trkpt>
      <trkpt lat="47.8571" lon="7.16154">
        <ele>866.40002441406</ele>
        <time>2019-11-10T09:40:48.000Z</time>
      </trkpt>
      <trkpt lat="47.85708" lon="7.16153">
        <ele>866</ele>
        <time>2019-11-10T09:40:49.000Z</time>
      </trkpt>
      <trkpt lat="47.85707" lon="7.1615">
        <ele>865.59997558594</ele>
        <time>2019-11-10T09:40:50.000Z</time>
      </trkpt>
      <trkpt lat="47.85706" lon="7.16148">
        <ele>865.20001220703</ele>
        <time>2019-11-10T09:40:51.000Z</time>
      </trkpt>
      <trkpt lat="47.85705" lon="7.16147">
        <ele>864.59997558594</ele>
        <time>2019-11-10T09:40:52.000Z</time>
      </trkpt>
      <trkpt lat="47.85704" lon="7.16146">
        <ele>864.20001220703</ele>
        <time>2019-11-10T09:40:53.000Z</time>
      </trkpt>
      <trkpt lat="47.85703" lon="7.16147">
        <ele>863.79998779297</ele>
        <time>2019-11-10T09:40:54.000Z</time>
      </trkpt>
      <trkpt lat="47.85702" lon="7.16147">
        <ele>863.40002441406</ele>
        <time>2019-11-10T09:40:55.000Z</time>
      </trkpt>
      <trkpt lat="47.85701" lon="7.16148">
        <ele>863</ele>
        <time>2019-11-10T09:40:56.000Z</time>
      </trkpt>
      <trkpt lat="47.857" lon="7.16149">
        <ele>862.40002441406</ele>
        <time>2019-11-10T09:40:57.000Z</time>
      </trkpt>
      <trkpt lat="47.85699" lon="7.16151">
        <ele>862</ele>
        <time>2019-11-10T09:40:58.000Z</time>
      </trkpt>
      <trkpt lat="47.85697" lon="7.16153">
        <ele>861.59997558594</ele>
        <time>2019-11-10T09:40:59.000Z</time>
      </trkpt>
      <trkpt lat="47.85696" lon="7.16155">
        <ele>861.20001220703</ele>
        <time>2019-11-10T09:41:00.000Z</time>
      </trkpt>
      <trkpt lat="47.85694" lon="7.16156">
        <ele>860.59997558594</ele>
        <time>2019-11-10T09:41:01.000Z</time>
      </trkpt>
      <trkpt lat="47.85693" lon="7.16157">
        <ele>860.20001220703</ele>
        <time>2019-11-10T09:41:02.000Z</time>
      </trkpt>
      <trkpt lat="47.85693" lon="7.16158">
        <ele>859.59997558594</ele>
        <time>2019-11-10T09:41:03.000Z</time>
      </trkpt>
      <trkpt lat="47.85694" lon="7.1616">
        <ele>859</ele>
        <time>2019-11-10T09:41:04.000Z</time>
      </trkpt>
      <trkpt lat="47.85694" lon="7.16161">
        <ele>858.59997558594</ele>
        <time>2019-11-10T09:41:05.000Z</time>
      </trkpt>
      <trkpt lat="47.85694" lon="7.16162">
        <ele>858.59997558594</ele>
        <time>2019-11-10T09:41:06.000Z</time>
      </trkpt>
      <trkpt lat="47.85694" lon="7.16164">
        <ele>858.59997558594</ele>
        <time>2019-11-10T09:41:34.000Z</time>
      </trkpt>
      <trkpt lat="47.85696" lon="7.16169">
        <ele>857.59997558594</ele>
        <time>2019-11-10T09:41:36.000Z</time>
      </trkpt>
      <trkpt lat="47.85697" lon="7.16172">
        <ele>857.20001220703</ele>
        <time>2019-11-10T09:41:37.000Z</time>
      </trkpt>
      <trkpt lat="47.857" lon="7.16176">
        <ele>856.79998779297</ele>
        <time>2019-11-10T09:41:38.000Z</time>
      </trkpt>
      <trkpt lat="47.85701" lon="7.16178">
        <ele>856.40002441406</ele>
        <time>2019-11-10T09:41:39.000Z</time>
      </trkpt>
      <trkpt lat="47.85701" lon="7.1618">
        <ele>856.40002441406</ele>
        <time>2019-11-10T09:41:40.000Z</time>
      </trkpt>
      <trkpt lat="47.85701" lon="7.16182">
        <ele>856</ele>
        <time>2019-11-10T09:41:41.000Z</time>
      </trkpt>
      <trkpt lat="47.85702" lon="7.16184">
        <ele>855.59997558594</ele>
        <time>2019-11-10T09:41:42.000Z</time>
      </trkpt>
      <trkpt lat="47.85702" lon="7.16185">
        <ele>855</ele>
        <time>2019-11-10T09:41:43.000Z</time>
      </trkpt>
      <trkpt lat="47.85702" lon="7.16186">
        <ele>854.59997558594</ele>
        <time>2019-11-10T09:41:44.000Z</time>
      </trkpt>
      <trkpt lat="47.85702" lon="7.16187">
        <ele>854.20001220703</ele>
        <time>2019-11-10T09:41:45.000Z</time>
      </trkpt>
      <trkpt lat="47.85701" lon="7.16187">
        <ele>853.79998779297</ele>
        <time>2019-11-10T09:41:46.000Z</time>
      </trkpt>
      <trkpt lat="47.857" lon="7.16188">
        <ele>853.40002441406</ele>
        <time>2019-11-10T09:41:47.000Z</time>
      </trkpt>
      <trkpt lat="47.85697" lon="7.16188">
        <ele>853</ele>
        <time>2019-11-10T09:41:48.000Z</time>
      </trkpt>
      <trkpt lat="47.85694" lon="7.16189">
        <ele>852.40002441406</ele>
        <time>2019-11-10T09:41:49.000Z</time>
      </trkpt>
      <trkpt lat="47.85692" lon="7.1619">
        <ele>852</ele>
        <time>2019-11-10T09:41:50.000Z</time>
      </trkpt>
      <trkpt lat="47.8569" lon="7.1619">
        <ele>851.40002441406</ele>
        <time>2019-11-10T09:41:51.000Z</time>
      </trkpt>
      <trkpt lat="47.85689" lon="7.16192">
        <ele>851</ele>
        <time>2019-11-10T09:41:52.000Z</time>
      </trkpt>
      <trkpt lat="47.85687" lon="7.16194">
        <ele>850.40002441406</ele>
        <time>2019-11-10T09:41:53.000Z</time>
      </trkpt>
      <trkpt lat="47.85685" lon="7.16196">
        <ele>849.79998779297</ele>
        <time>2019-11-10T09:41:54.000Z</time>
      </trkpt>
      <trkpt lat="47.85684" lon="7.16198">
        <ele>849.40002441406</ele>
        <time>2019-11-10T09:41:55.000Z</time>
      </trkpt>
      <trkpt lat="47.85682" lon="7.162">
        <ele>848.79998779297</ele>
        <time>2019-11-10T09:41:56.000Z</time>
      </trkpt>
      <trkpt lat="47.8568" lon="7.16201">
        <ele>848</ele>
        <time>2019-11-10T09:41:57.000Z</time>
      </trkpt>
      <trkpt lat="47.85678" lon="7.16201">
        <ele>847.20001220703</ele>
        <time>2019-11-10T09:41:58.000Z</time>
      </trkpt>
      <trkpt lat="47.85676" lon="7.16201">
        <ele>846.40002441406</ele>
        <time>2019-11-10T09:41:59.000Z</time>
      </trkpt>
      <trkpt lat="47.85675" lon="7.162">
        <ele>845.59997558594</ele>
        <time>2019-11-10T09:42:00.000Z</time>
      </trkpt>
      <trkpt lat="47.85673" lon="7.162">
        <ele>843.59997558594</ele>
        <time>2019-11-10T09:42:01.000Z</time>
      </trkpt>
      <trkpt lat="47.85673" lon="7.162">
        <ele>843.59997558594</ele>
        <time>2019-11-10T09:42:02.000Z</time>
      </trkpt>
      <trkpt lat="47.85667" lon="7.162">
        <ele>842.40002441406</ele>
        <time>2019-11-10T09:42:10.000Z</time>
      </trkpt>
      <trkpt lat="47.85664" lon="7.16202">
        <ele>842</ele>
        <time>2019-11-10T09:42:11.000Z</time>
      </trkpt>
      <trkpt lat="47.85662" lon="7.16203">
        <ele>841.40002441406</ele>
        <time>2019-11-10T09:42:12.000Z</time>
      </trkpt>
      <trkpt lat="47.85661" lon="7.16204">
        <ele>841</ele>
        <time>2019-11-10T09:42:13.000Z</time>
      </trkpt>
      <trkpt lat="47.8566" lon="7.16204">
        <ele>840.40002441406</ele>
        <time>2019-11-10T09:42:14.000Z</time>
      </trkpt>
      <trkpt lat="47.85658" lon="7.16204">
        <ele>839.40002441406</ele>
        <time>2019-11-10T09:42:16.000Z</time>
      </trkpt>
      <trkpt lat="47.85657" lon="7.16204">
        <ele>839</ele>
        <time>2019-11-10T09:42:17.000Z</time>
      </trkpt>
      <trkpt lat="47.85656" lon="7.16203">
        <ele>838.40002441406</ele>
        <time>2019-11-10T09:42:18.000Z</time>
      </trkpt>
      <trkpt lat="47.85655" lon="7.16202">
        <ele>838</ele>
        <time>2019-11-10T09:42:19.000Z</time>
      </trkpt>
      <trkpt lat="47.85654" lon="7.16202">
        <ele>837.40002441406</ele>
        <time>2019-11-10T09:42:21.000Z</time>
      </trkpt>
      <trkpt lat="47.85647" lon="7.1621">
        <ele>833</ele>
        <time>2019-11-10T09:42:53.000Z</time>
      </trkpt>
      <trkpt lat="47.85642" lon="7.16212">
        <ele>832.59997558594</ele>
        <time>2019-11-10T09:42:54.000Z</time>
      </trkpt>
      <trkpt lat="47.85637" lon="7.16212">
        <ele>832</ele>
        <time>2019-11-10T09:42:55.000Z</time>
      </trkpt>
      <trkpt lat="47.85634" lon="7.1621">
        <ele>831.40002441406</ele>
        <time>2019-11-10T09:42:56.000Z</time>
      </trkpt>
      <trkpt lat="47.85633" lon="7.16208">
        <ele>830.79998779297</ele>
        <time>2019-11-10T09:42:57.000Z</time>
      </trkpt>
      <trkpt lat="47.85632" lon="7.16206">
        <ele>830.20001220703</ele>
        <time>2019-11-10T09:42:58.000Z</time>
      </trkpt>
      <trkpt lat="47.85633" lon="7.16204">
        <ele>830.20001220703</ele>
        <time>2019-11-10T09:43:00.000Z</time>
      </trkpt>
      <trkpt lat="47.85632" lon="7.16197">
        <ele>830.20001220703</ele>
        <time>2019-11-10T09:43:15.000Z</time>
      </trkpt>
      <trkpt lat="47.85631" lon="7.16183">
        <ele>830.20001220703</ele>
        <time>2019-11-10T09:43:21.000Z</time>
      </trkpt>
      <trkpt lat="47.85631" lon="7.16181">
        <ele>830.20001220703</ele>
        <time>2019-11-10T09:43:22.000Z</time>
      </trkpt>
      <trkpt lat="47.85633" lon="7.16165">
        <ele>830.20001220703</ele>
        <time>2019-11-10T09:43:28.000Z</time>
      </trkpt>
      <trkpt lat="47.85634" lon="7.16153">
        <ele>830.20001220703</ele>
        <time>2019-11-10T09:43:33.000Z</time>
      </trkpt>
      <trkpt lat="47.85635" lon="7.16151">
        <ele>830.20001220703</ele>
        <time>2019-11-10T09:43:34.000Z</time>
      </trkpt>
      <trkpt lat="47.8564" lon="7.16135">
        <ele>830.20001220703</ele>
        <time>2019-11-10T09:43:40.000Z</time>
      </trkpt>
      <trkpt lat="47.85639" lon="7.16117">
        <ele>830.20001220703</ele>
        <time>2019-11-10T09:43:45.000Z</time>
      </trkpt>
      <trkpt lat="47.85638" lon="7.16111">
        <ele>830.59997558594</ele>
        <time>2019-11-10T09:43:47.000Z</time>
      </trkpt>
      <trkpt lat="47.85637" lon="7.16108">
        <ele>831</ele>
        <time>2019-11-10T09:43:48.000Z</time>
      </trkpt>
      <trkpt lat="47.85636" lon="7.16105">
        <ele>831.40002441406</ele>
        <time>2019-11-10T09:43:49.000Z</time>
      </trkpt>
      <trkpt lat="47.85636" lon="7.16102">
        <ele>831.79998779297</ele>
        <time>2019-11-10T09:43:50.000Z</time>
      </trkpt>
      <trkpt lat="47.85635" lon="7.16099">
        <ele>832.20001220703</ele>
        <time>2019-11-10T09:43:51.000Z</time>
      </trkpt>
      <trkpt lat="47.85634" lon="7.16091">
        <ele>832.20001220703</ele>
        <time>2019-11-10T09:43:53.000Z</time>
      </trkpt>
      <trkpt lat="47.85637" lon="7.16074">
        <ele>832.20001220703</ele>
        <time>2019-11-10T09:43:58.000Z</time>
      </trkpt>
      <trkpt lat="47.85642" lon="7.16064">
        <ele>832.59997558594</ele>
        <time>2019-11-10T09:44:01.000Z</time>
      </trkpt>
      <trkpt lat="47.85643" lon="7.1606">
        <ele>833</ele>
        <time>2019-11-10T09:44:02.000Z</time>
      </trkpt>
      <trkpt lat="47.85644" lon="7.16057">
        <ele>833.59997558594</ele>
        <time>2019-11-10T09:44:03.000Z</time>
      </trkpt>
      <trkpt lat="47.85646" lon="7.16054">
        <ele>834</ele>
        <time>2019-11-10T09:44:04.000Z</time>
      </trkpt>
      <trkpt lat="47.85647" lon="7.16051">
        <ele>834.40002441406</ele>
        <time>2019-11-10T09:44:05.000Z</time>
      </trkpt>
      <trkpt lat="47.85655" lon="7.16039">
        <ele>834.40002441406</ele>
        <time>2019-11-10T09:44:09.000Z</time>
      </trkpt>
      <trkpt lat="47.85666" lon="7.16023">
        <ele>834.40002441406</ele>
        <time>2019-11-10T09:44:14.000Z</time>
      </trkpt>
      <trkpt lat="47.85676" lon="7.16004">
        <ele>834.40002441406</ele>
        <time>2019-11-10T09:44:19.000Z</time>
      </trkpt>
      <trkpt lat="47.85682" lon="7.15993">
        <ele>834.79998779297</ele>
        <time>2019-11-10T09:44:22.000Z</time>
      </trkpt>
      <trkpt lat="47.85683" lon="7.15989">
        <ele>835.20001220703</ele>
        <time>2019-11-10T09:44:23.000Z</time>
      </trkpt>
      <trkpt lat="47.85685" lon="7.15986">
        <ele>835.59997558594</ele>
        <time>2019-11-10T09:44:24.000Z</time>
      </trkpt>
      <trkpt lat="47.85687" lon="7.15983">
        <ele>836</ele>
        <time>2019-11-10T09:44:25.000Z</time>
      </trkpt>
      <trkpt lat="47.85688" lon="7.1598">
        <ele>836.40002441406</ele>
        <time>2019-11-10T09:44:26.000Z</time>
      </trkpt>
      <trkpt lat="47.8569" lon="7.15977">
        <ele>836.40002441406</ele>
        <time>2019-11-10T09:44:27.000Z</time>
      </trkpt>
      <trkpt lat="47.85699" lon="7.15959">
        <ele>836.40002441406</ele>
        <time>2019-11-10T09:44:32.000Z</time>
      </trkpt>
      <trkpt lat="47.85713" lon="7.15938">
        <ele>836.79998779297</ele>
        <time>2019-11-10T09:44:38.000Z</time>
      </trkpt>
      <trkpt lat="47.85716" lon="7.15935">
        <ele>837.20001220703</ele>
        <time>2019-11-10T09:44:39.000Z</time>
      </trkpt>
      <trkpt lat="47.85718" lon="7.15931">
        <ele>837.59997558594</ele>
        <time>2019-11-10T09:44:40.000Z</time>
      </trkpt>
      <trkpt lat="47.8572" lon="7.15928">
        <ele>838</ele>
        <time>2019-11-10T09:44:41.000Z</time>
      </trkpt>
      <trkpt lat="47.85722" lon="7.15924">
        <ele>838.40002441406</ele>
        <time>2019-11-10T09:44:42.000Z</time>
      </trkpt>
      <trkpt lat="47.85732" lon="7.15911">
        <ele>838.40002441406</ele>
        <time>2019-11-10T09:44:46.000Z</time>
      </trkpt>
      <trkpt lat="47.85741" lon="7.15894">
        <ele>838.40002441406</ele>
        <time>2019-11-10T09:44:51.000Z</time>
      </trkpt>
      <trkpt lat="47.85754" lon="7.15866">
        <ele>838.40002441406</ele>
        <time>2019-11-10T09:44:57.000Z</time>
      </trkpt>
      <trkpt lat="47.85766" lon="7.15837">
        <ele>838.40002441406</ele>
        <time>2019-11-10T09:45:03.000Z</time>
      </trkpt>
      <trkpt lat="47.85777" lon="7.15806">
        <ele>838.40002441406</ele>
        <time>2019-11-10T09:45:09.000Z</time>
      </trkpt>
      <trkpt lat="47.85788" lon="7.15776">
        <ele>838.40002441406</ele>
        <time>2019-11-10T09:45:15.000Z</time>
      </trkpt>
      <trkpt lat="47.85791" lon="7.15758">
        <ele>838.40002441406</ele>
        <time>2019-11-10T09:45:18.000Z</time>
      </trkpt>
      <trkpt lat="47.85794" lon="7.15738">
        <ele>838.40002441406</ele>
        <time>2019-11-10T09:45:21.000Z</time>
      </trkpt>
      <trkpt lat="47.85796" lon="7.15709">
        <ele>838.40002441406</ele>
        <time>2019-11-10T09:45:26.000Z</time>
      </trkpt>
      <trkpt lat="47.85801" lon="7.15673">
        <ele>838.40002441406</ele>
        <time>2019-11-10T09:45:33.000Z</time>
      </trkpt>
      <trkpt lat="47.85799" lon="7.15649">
        <ele>838.40002441406</ele>
        <time>2019-11-10T09:45:38.000Z</time>
      </trkpt>
      <trkpt lat="47.85795" lon="7.15624">
        <ele>838.40002441406</ele>
        <time>2019-11-10T09:45:43.000Z</time>
      </trkpt>
      <trkpt lat="47.85793" lon="7.15617">
        <ele>838</ele>
        <time>2019-11-10T09:45:44.000Z</time>
      </trkpt>
      <trkpt lat="47.85792" lon="7.15611">
        <ele>837.59997558594</ele>
        <time>2019-11-10T09:45:45.000Z</time>
      </trkpt>
      <trkpt lat="47.85791" lon="7.15604">
        <ele>837.20001220703</ele>
        <time>2019-11-10T09:45:46.000Z</time>
      </trkpt>
      <trkpt lat="47.8579" lon="7.15597">
        <ele>836.79998779297</ele>
        <time>2019-11-10T09:45:47.000Z</time>
      </trkpt>
      <trkpt lat="47.85788" lon="7.1559">
        <ele>836.40002441406</ele>
        <time>2019-11-10T09:45:48.000Z</time>
      </trkpt>
      <trkpt lat="47.85787" lon="7.15583">
        <ele>836.40002441406</ele>
        <time>2019-11-10T09:45:49.000Z</time>
      </trkpt>
      <trkpt lat="47.85786" lon="7.15576">
        <ele>836.40002441406</ele>
        <time>2019-11-10T09:45:50.000Z</time>
      </trkpt>
      <trkpt lat="47.85782" lon="7.1556">
        <ele>836.40002441406</ele>
        <time>2019-11-10T09:45:53.000Z</time>
      </trkpt>
      <trkpt lat="47.85772" lon="7.15536">
        <ele>836.40002441406</ele>
        <time>2019-11-10T09:45:58.000Z</time>
      </trkpt>
      <trkpt lat="47.8576" lon="7.15514">
        <ele>836.40002441406</ele>
        <time>2019-11-10T09:46:03.000Z</time>
      </trkpt>
      <trkpt lat="47.85746" lon="7.15484">
        <ele>836.40002441406</ele>
        <time>2019-11-10T09:46:09.000Z</time>
      </trkpt>
      <trkpt lat="47.8573" lon="7.15457">
        <ele>836.40002441406</ele>
        <time>2019-11-10T09:46:15.000Z</time>
      </trkpt>
      <trkpt lat="47.85716" lon="7.15446">
        <ele>836.40002441406</ele>
        <time>2019-11-10T09:46:20.000Z</time>
      </trkpt>
      <trkpt lat="47.85705" lon="7.15439">
        <ele>836.40002441406</ele>
        <time>2019-11-10T09:46:25.000Z</time>
      </trkpt>
      <trkpt lat="47.85703" lon="7.15437">
        <ele>836.40002441406</ele>
        <time>2019-11-10T09:46:28.000Z</time>
      </trkpt>
      <trkpt lat="47.857" lon="7.15436">
        <ele>836.40002441406</ele>
        <time>2019-11-10T09:46:31.000Z</time>
      </trkpt>
      <trkpt lat="47.85699" lon="7.15436">
        <ele>836.40002441406</ele>
        <time>2019-11-10T09:46:32.000Z</time>
      </trkpt>
      <trkpt lat="47.85692" lon="7.15437">
        <ele>836.40002441406</ele>
        <time>2019-11-10T09:46:37.000Z</time>
      </trkpt>
      <trkpt lat="47.85689" lon="7.15437">
        <ele>836.40002441406</ele>
        <time>2019-11-10T09:46:39.000Z</time>
      </trkpt>
      <trkpt lat="47.85684" lon="7.15437">
        <ele>836.40002441406</ele>
        <time>2019-11-10T09:46:43.000Z</time>
      </trkpt>
      <trkpt lat="47.85683" lon="7.15437">
        <ele>836.40002441406</ele>
        <time>2019-11-10T09:46:45.000Z</time>
      </trkpt>
      <trkpt lat="47.85682" lon="7.15437">
        <ele>836.40002441406</ele>
        <time>2019-11-10T09:46:46.000Z</time>
      </trkpt>
      <trkpt lat="47.85688" lon="7.15436">
        <ele>836.40002441406</ele>
        <time>2019-11-10T09:50:18.000Z</time>
      </trkpt>
      <trkpt lat="47.85692" lon="7.15435">
        <ele>836.40002441406</ele>
        <time>2019-11-10T09:50:20.000Z</time>
      </trkpt>
      <trkpt lat="47.85697" lon="7.15433">
        <ele>836.40002441406</ele>
        <time>2019-11-10T09:50:23.000Z</time>
      </trkpt>
      <trkpt lat="47.857" lon="7.15435">
        <ele>836.40002441406</ele>
        <time>2019-11-10T09:50:25.000Z</time>
      </trkpt>
      <trkpt lat="47.85708" lon="7.15442">
        <ele>836.40002441406</ele>
        <time>2019-11-10T09:50:30.000Z</time>
      </trkpt>
      <trkpt lat="47.85709" lon="7.15446">
        <ele>836.40002441406</ele>
        <time>2019-11-10T09:50:33.000Z</time>
      </trkpt>
      <trkpt lat="47.85705" lon="7.15449">
        <ele>836.40002441406</ele>
        <time>2019-11-10T09:50:58.000Z</time>
      </trkpt>
      <trkpt lat="47.85699" lon="7.15456">
        <ele>836.40002441406</ele>
        <time>2019-11-10T09:51:02.000Z</time>
      </trkpt>
      <trkpt lat="47.85696" lon="7.15462">
        <ele>836.40002441406</ele>
        <time>2019-11-10T09:51:04.000Z</time>
      </trkpt>
      <trkpt lat="47.85692" lon="7.15476">
        <ele>835.79998779297</ele>
        <time>2019-11-10T09:51:06.000Z</time>
      </trkpt>
      <trkpt lat="47.8569" lon="7.15484">
        <ele>835.40002441406</ele>
        <time>2019-11-10T09:51:07.000Z</time>
      </trkpt>
      <trkpt lat="47.85687" lon="7.15491">
        <ele>835</ele>
        <time>2019-11-10T09:51:08.000Z</time>
      </trkpt>
      <trkpt lat="47.85684" lon="7.15498">
        <ele>834.20001220703</ele>
        <time>2019-11-10T09:51:09.000Z</time>
      </trkpt>
      <trkpt lat="47.8568" lon="7.15505">
        <ele>833.59997558594</ele>
        <time>2019-11-10T09:51:10.000Z</time>
      </trkpt>
      <trkpt lat="47.85676" lon="7.15512">
        <ele>832.20001220703</ele>
        <time>2019-11-10T09:51:11.000Z</time>
      </trkpt>
      <trkpt lat="47.85673" lon="7.1552">
        <ele>831.59997558594</ele>
        <time>2019-11-10T09:51:12.000Z</time>
      </trkpt>
      <trkpt lat="47.8567" lon="7.15529">
        <ele>831</ele>
        <time>2019-11-10T09:51:13.000Z</time>
      </trkpt>
      <trkpt lat="47.85668" lon="7.15537">
        <ele>830.20001220703</ele>
        <time>2019-11-10T09:51:14.000Z</time>
      </trkpt>
      <trkpt lat="47.85666" lon="7.15542">
        <ele>829.59997558594</ele>
        <time>2019-11-10T09:51:15.000Z</time>
      </trkpt>
      <trkpt lat="47.85664" lon="7.15549">
        <ele>828.79998779297</ele>
        <time>2019-11-10T09:51:16.000Z</time>
      </trkpt>
      <trkpt lat="47.85663" lon="7.15554">
        <ele>828</ele>
        <time>2019-11-10T09:51:17.000Z</time>
      </trkpt>
      <trkpt lat="47.85662" lon="7.15558">
        <ele>827.20001220703</ele>
        <time>2019-11-10T09:51:18.000Z</time>
      </trkpt>
      <trkpt lat="47.8566" lon="7.15563">
        <ele>826.59997558594</ele>
        <time>2019-11-10T09:51:19.000Z</time>
      </trkpt>
      <trkpt lat="47.85657" lon="7.15567">
        <ele>826</ele>
        <time>2019-11-10T09:51:20.000Z</time>
      </trkpt>
      <trkpt lat="47.85654" lon="7.15574">
        <ele>825.40002441406</ele>
        <time>2019-11-10T09:51:21.000Z</time>
      </trkpt>
      <trkpt lat="47.85652" lon="7.15579">
        <ele>824.59997558594</ele>
        <time>2019-11-10T09:51:22.000Z</time>
      </trkpt>
      <trkpt lat="47.85648" lon="7.15585">
        <ele>823.79998779297</ele>
        <time>2019-11-10T09:51:23.000Z</time>
      </trkpt>
      <trkpt lat="47.85646" lon="7.15589">
        <ele>822.79998779297</ele>
        <time>2019-11-10T09:51:24.000Z</time>
      </trkpt>
      <trkpt lat="47.85642" lon="7.15594">
        <ele>821.79998779297</ele>
        <time>2019-11-10T09:51:25.000Z</time>
      </trkpt>
      <trkpt lat="47.85639" lon="7.15599">
        <ele>820.79998779297</ele>
        <time>2019-11-10T09:51:26.000Z</time>
      </trkpt>
      <trkpt lat="47.85637" lon="7.15604">
        <ele>820</ele>
        <time>2019-11-10T09:51:27.000Z</time>
      </trkpt>
      <trkpt lat="47.85635" lon="7.15608">
        <ele>819.20001220703</ele>
        <time>2019-11-10T09:51:28.000Z</time>
      </trkpt>
      <trkpt lat="47.85633" lon="7.15613">
        <ele>818.40002441406</ele>
        <time>2019-11-10T09:51:29.000Z</time>
      </trkpt>
      <trkpt lat="47.85629" lon="7.15618">
        <ele>817.59997558594</ele>
        <time>2019-11-10T09:51:30.000Z</time>
      </trkpt>
      <trkpt lat="47.85627" lon="7.15623">
        <ele>816.79998779297</ele>
        <time>2019-11-10T09:51:31.000Z</time>
      </trkpt>
      <trkpt lat="47.85624" lon="7.15629">
        <ele>816.20001220703</ele>
        <time>2019-11-10T09:51:32.000Z</time>
      </trkpt>
      <trkpt lat="47.85621" lon="7.15633">
        <ele>815.40002441406</ele>
        <time>2019-11-10T09:51:33.000Z</time>
      </trkpt>
      <trkpt lat="47.85619" lon="7.15638">
        <ele>814.59997558594</ele>
        <time>2019-11-10T09:51:34.000Z</time>
      </trkpt>
      <trkpt lat="47.85616" lon="7.15643">
        <ele>812.79998779297</ele>
        <time>2019-11-10T09:51:35.000Z</time>
      </trkpt>
      <trkpt lat="47.85613" lon="7.15648">
        <ele>811.79998779297</ele>
        <time>2019-11-10T09:51:36.000Z</time>
      </trkpt>
      <trkpt lat="47.85611" lon="7.15652">
        <ele>811</ele>
        <time>2019-11-10T09:51:37.000Z</time>
      </trkpt>
      <trkpt lat="47.85608" lon="7.15655">
        <ele>810.20001220703</ele>
        <time>2019-11-10T09:51:38.000Z</time>
      </trkpt>
      <trkpt lat="47.85606" lon="7.15658">
        <ele>809.40002441406</ele>
        <time>2019-11-10T09:51:39.000Z</time>
      </trkpt>
      <trkpt lat="47.85603" lon="7.15661">
        <ele>808.40002441406</ele>
        <time>2019-11-10T09:51:40.000Z</time>
      </trkpt>
      <trkpt lat="47.856" lon="7.15666">
        <ele>808</ele>
        <time>2019-11-10T09:51:41.000Z</time>
      </trkpt>
      <trkpt lat="47.85598" lon="7.1567">
        <ele>807.40002441406</ele>
        <time>2019-11-10T09:51:42.000Z</time>
      </trkpt>
      <trkpt lat="47.85595" lon="7.15674">
        <ele>806.79998779297</ele>
        <time>2019-11-10T09:51:43.000Z</time>
      </trkpt>
      <trkpt lat="47.85592" lon="7.1568">
        <ele>806.20001220703</ele>
        <time>2019-11-10T09:51:44.000Z</time>
      </trkpt>
      <trkpt lat="47.85588" lon="7.15685">
        <ele>805.40002441406</ele>
        <time>2019-11-10T09:51:45.000Z</time>
      </trkpt>
      <trkpt lat="47.85586" lon="7.15688">
        <ele>804.79998779297</ele>
        <time>2019-11-10T09:51:46.000Z</time>
      </trkpt>
      <trkpt lat="47.85584" lon="7.15692">
        <ele>804</ele>
        <time>2019-11-10T09:51:47.000Z</time>
      </trkpt>
      <trkpt lat="47.85583" lon="7.15695">
        <ele>803</ele>
        <time>2019-11-10T09:51:48.000Z</time>
      </trkpt>
      <trkpt lat="47.85582" lon="7.15698">
        <ele>802.20001220703</ele>
        <time>2019-11-10T09:51:49.000Z</time>
      </trkpt>
      <trkpt lat="47.8558" lon="7.157">
        <ele>801.59997558594</ele>
        <time>2019-11-10T09:51:50.000Z</time>
      </trkpt>
      <trkpt lat="47.85577" lon="7.15703">
        <ele>800.79998779297</ele>
        <time>2019-11-10T09:51:51.000Z</time>
      </trkpt>
      <trkpt lat="47.85575" lon="7.15706">
        <ele>800</ele>
        <time>2019-11-10T09:51:52.000Z</time>
      </trkpt>
      <trkpt lat="47.85571" lon="7.15709">
        <ele>799.20001220703</ele>
        <time>2019-11-10T09:51:53.000Z</time>
      </trkpt>
      <trkpt lat="47.85568" lon="7.15711">
        <ele>798.20001220703</ele>
        <time>2019-11-10T09:51:54.000Z</time>
      </trkpt>
      <trkpt lat="47.85565" lon="7.15714">
        <ele>797.40002441406</ele>
        <time>2019-11-10T09:51:55.000Z</time>
      </trkpt>
      <trkpt lat="47.85563" lon="7.15716">
        <ele>796.40002441406</ele>
        <time>2019-11-10T09:51:56.000Z</time>
      </trkpt>
      <trkpt lat="47.85561" lon="7.15719">
        <ele>795.40002441406</ele>
        <time>2019-11-10T09:51:57.000Z</time>
      </trkpt>
      <trkpt lat="47.8556" lon="7.15722">
        <ele>794.40002441406</ele>
        <time>2019-11-10T09:51:58.000Z</time>
      </trkpt>
      <trkpt lat="47.85557" lon="7.15725">
        <ele>793.79998779297</ele>
        <time>2019-11-10T09:51:59.000Z</time>
      </trkpt>
      <trkpt lat="47.85554" lon="7.15728">
        <ele>792</ele>
        <time>2019-11-10T09:52:00.000Z</time>
      </trkpt>
      <trkpt lat="47.8555" lon="7.15731">
        <ele>791.20001220703</ele>
        <time>2019-11-10T09:52:01.000Z</time>
      </trkpt>
      <trkpt lat="47.85547" lon="7.15734">
        <ele>790.20001220703</ele>
        <time>2019-11-10T09:52:02.000Z</time>
      </trkpt>
      <trkpt lat="47.85544" lon="7.15736">
        <ele>789.20001220703</ele>
        <time>2019-11-10T09:52:03.000Z</time>
      </trkpt>
      <trkpt lat="47.85541" lon="7.15739">
        <ele>788.40002441406</ele>
        <time>2019-11-10T09:52:04.000Z</time>
      </trkpt>
      <trkpt lat="47.85539" lon="7.1574">
        <ele>787.40002441406</ele>
        <time>2019-11-10T09:52:05.000Z</time>
      </trkpt>
      <trkpt lat="47.85537" lon="7.15742">
        <ele>786.59997558594</ele>
        <time>2019-11-10T09:52:06.000Z</time>
      </trkpt>
      <trkpt lat="47.85534" lon="7.15743">
        <ele>785.59997558594</ele>
        <time>2019-11-10T09:52:07.000Z</time>
      </trkpt>
      <trkpt lat="47.85532" lon="7.15746">
        <ele>784.79998779297</ele>
        <time>2019-11-10T09:52:08.000Z</time>
      </trkpt>
      <trkpt lat="47.85529" lon="7.15748">
        <ele>784</ele>
        <time>2019-11-10T09:52:09.000Z</time>
      </trkpt>
      <trkpt lat="47.85526" lon="7.15751">
        <ele>783</ele>
        <time>2019-11-10T09:52:10.000Z</time>
      </trkpt>
      <trkpt lat="47.85525" lon="7.15754">
        <ele>782</ele>
        <time>2019-11-10T09:52:11.000Z</time>
      </trkpt>
      <trkpt lat="47.85522" lon="7.15756">
        <ele>781.20001220703</ele>
        <time>2019-11-10T09:52:12.000Z</time>
      </trkpt>
      <trkpt lat="47.85521" lon="7.15757">
        <ele>780.40002441406</ele>
        <time>2019-11-10T09:52:13.000Z</time>
      </trkpt>
      <trkpt lat="47.8552" lon="7.15758">
        <ele>779.40002441406</ele>
        <time>2019-11-10T09:52:14.000Z</time>
      </trkpt>
      <trkpt lat="47.85518" lon="7.1576">
        <ele>778.59997558594</ele>
        <time>2019-11-10T09:52:15.000Z</time>
      </trkpt>
      <trkpt lat="47.85515" lon="7.15762">
        <ele>777</ele>
        <time>2019-11-10T09:52:18.000Z</time>
      </trkpt>
      <trkpt lat="47.85508" lon="7.15771">
        <ele>776.40002441406</ele>
        <time>2019-11-10T09:52:21.000Z</time>
      </trkpt>
      <trkpt lat="47.85507" lon="7.15773">
        <ele>776</ele>
        <time>2019-11-10T09:52:22.000Z</time>
      </trkpt>
      <trkpt lat="47.85505" lon="7.15776">
        <ele>775.20001220703</ele>
        <time>2019-11-10T09:52:23.000Z</time>
      </trkpt>
      <trkpt lat="47.85504" lon="7.1578">
        <ele>773.79998779297</ele>
        <time>2019-11-10T09:52:24.000Z</time>
      </trkpt>
      <trkpt lat="47.85503" lon="7.15782">
        <ele>773</ele>
        <time>2019-11-10T09:52:25.000Z</time>
      </trkpt>
      <trkpt lat="47.85501" lon="7.15785">
        <ele>772.20001220703</ele>
        <time>2019-11-10T09:52:26.000Z</time>
      </trkpt>
      <trkpt lat="47.85499" lon="7.15787">
        <ele>771.59997558594</ele>
        <time>2019-11-10T09:52:27.000Z</time>
      </trkpt>
      <trkpt lat="47.85498" lon="7.1579">
        <ele>770.79998779297</ele>
        <time>2019-11-10T09:52:28.000Z</time>
      </trkpt>
      <trkpt lat="47.85496" lon="7.15791">
        <ele>770</ele>
        <time>2019-11-10T09:52:29.000Z</time>
      </trkpt>
      <trkpt lat="47.85494" lon="7.15792">
        <ele>769.40002441406</ele>
        <time>2019-11-10T09:52:30.000Z</time>
      </trkpt>
      <trkpt lat="47.85491" lon="7.15794">
        <ele>768.59997558594</ele>
        <time>2019-11-10T09:52:31.000Z</time>
      </trkpt>
      <trkpt lat="47.8549" lon="7.15796">
        <ele>768</ele>
        <time>2019-11-10T09:52:32.000Z</time>
      </trkpt>
      <trkpt lat="47.85488" lon="7.15799">
        <ele>767.20001220703</ele>
        <time>2019-11-10T09:52:33.000Z</time>
      </trkpt>
      <trkpt lat="47.85486" lon="7.15803">
        <ele>766.40002441406</ele>
        <time>2019-11-10T09:52:34.000Z</time>
      </trkpt>
      <trkpt lat="47.85485" lon="7.15807">
        <ele>765.59997558594</ele>
        <time>2019-11-10T09:52:35.000Z</time>
      </trkpt>
      <trkpt lat="47.85484" lon="7.15809">
        <ele>764.59997558594</ele>
        <time>2019-11-10T09:52:36.000Z</time>
      </trkpt>
      <trkpt lat="47.85483" lon="7.15812">
        <ele>763.59997558594</ele>
        <time>2019-11-10T09:52:37.000Z</time>
      </trkpt>
      <trkpt lat="47.85482" lon="7.15814">
        <ele>762.79998779297</ele>
        <time>2019-11-10T09:52:38.000Z</time>
      </trkpt>
      <trkpt lat="47.85479" lon="7.15817">
        <ele>761.79998779297</ele>
        <time>2019-11-10T09:52:39.000Z</time>
      </trkpt>
      <trkpt lat="47.85477" lon="7.1582">
        <ele>761</ele>
        <time>2019-11-10T09:52:40.000Z</time>
      </trkpt>
      <trkpt lat="47.85475" lon="7.15824">
        <ele>760.20001220703</ele>
        <time>2019-11-10T09:52:41.000Z</time>
      </trkpt>
      <trkpt lat="47.85474" lon="7.15828">
        <ele>759.20001220703</ele>
        <time>2019-11-10T09:52:42.000Z</time>
      </trkpt>
      <trkpt lat="47.85473" lon="7.15833">
        <ele>758.40002441406</ele>
        <time>2019-11-10T09:52:43.000Z</time>
      </trkpt>
      <trkpt lat="47.85471" lon="7.15837">
        <ele>757.40002441406</ele>
        <time>2019-11-10T09:52:44.000Z</time>
      </trkpt>
      <trkpt lat="47.8547" lon="7.15841">
        <ele>756.40002441406</ele>
        <time>2019-11-10T09:52:45.000Z</time>
      </trkpt>
      <trkpt lat="47.85467" lon="7.15845">
        <ele>755.40002441406</ele>
        <time>2019-11-10T09:52:46.000Z</time>
      </trkpt>
      <trkpt lat="47.85464" lon="7.15848">
        <ele>754.40002441406</ele>
        <time>2019-11-10T09:52:47.000Z</time>
      </trkpt>
      <trkpt lat="47.8546" lon="7.15851">
        <ele>753.59997558594</ele>
        <time>2019-11-10T09:52:48.000Z</time>
      </trkpt>
      <trkpt lat="47.85458" lon="7.15854">
        <ele>751.59997558594</ele>
        <time>2019-11-10T09:52:49.000Z</time>
      </trkpt>
      <trkpt lat="47.85456" lon="7.15857">
        <ele>751</ele>
        <time>2019-11-10T09:52:50.000Z</time>
      </trkpt>
      <trkpt lat="47.85455" lon="7.15858">
        <ele>750.40002441406</ele>
        <time>2019-11-10T09:52:51.000Z</time>
      </trkpt>
      <trkpt lat="47.85455" lon="7.15858">
        <ele>749.59997558594</ele>
        <time>2019-11-10T09:52:52.000Z</time>
      </trkpt>
      <trkpt lat="47.85457" lon="7.15875">
        <ele>748.40002441406</ele>
        <time>2019-11-10T09:53:32.000Z</time>
      </trkpt>
      <trkpt lat="47.85456" lon="7.15878">
        <ele>748</ele>
        <time>2019-11-10T09:53:33.000Z</time>
      </trkpt>
      <trkpt lat="47.85454" lon="7.15879">
        <ele>747.40002441406</ele>
        <time>2019-11-10T09:53:34.000Z</time>
      </trkpt>
      <trkpt lat="47.85453" lon="7.15882">
        <ele>747</ele>
        <time>2019-11-10T09:53:35.000Z</time>
      </trkpt>
      <trkpt lat="47.85452" lon="7.15884">
        <ele>746.59997558594</ele>
        <time>2019-11-10T09:53:36.000Z</time>
      </trkpt>
      <trkpt lat="47.85452" lon="7.15885">
        <ele>746</ele>
        <time>2019-11-10T09:53:37.000Z</time>
      </trkpt>
      <trkpt lat="47.85452" lon="7.15887">
        <ele>744.40002441406</ele>
        <time>2019-11-10T09:53:39.000Z</time>
      </trkpt>
      <trkpt lat="47.85451" lon="7.15891">
        <ele>743.79998779297</ele>
        <time>2019-11-10T09:53:40.000Z</time>
      </trkpt>
      <trkpt lat="47.85449" lon="7.15895">
        <ele>743.20001220703</ele>
        <time>2019-11-10T09:53:41.000Z</time>
      </trkpt>
      <trkpt lat="47.85449" lon="7.15898">
        <ele>742.79998779297</ele>
        <time>2019-11-10T09:53:42.000Z</time>
      </trkpt>
      <trkpt lat="47.85448" lon="7.15901">
        <ele>742</ele>
        <time>2019-11-10T09:53:43.000Z</time>
      </trkpt>
      <trkpt lat="47.85447" lon="7.15905">
        <ele>741.40002441406</ele>
        <time>2019-11-10T09:53:44.000Z</time>
      </trkpt>
      <trkpt lat="47.85446" lon="7.15906">
        <ele>740.59997558594</ele>
        <time>2019-11-10T09:53:45.000Z</time>
      </trkpt>
      <trkpt lat="47.85445" lon="7.15907">
        <ele>739.79998779297</ele>
        <time>2019-11-10T09:53:46.000Z</time>
      </trkpt>
      <trkpt lat="47.85444" lon="7.15908">
        <ele>739.20001220703</ele>
        <time>2019-11-10T09:53:47.000Z</time>
      </trkpt>
      <trkpt lat="47.85444" lon="7.15908">
        <ele>738.40002441406</ele>
        <time>2019-11-10T09:53:48.000Z</time>
      </trkpt>
      <trkpt lat="47.85442" lon="7.15909">
        <ele>737</ele>
        <time>2019-11-10T09:54:49.000Z</time>
      </trkpt>
      <trkpt lat="47.8544" lon="7.15909">
        <ele>737</ele>
        <time>2019-11-10T09:54:50.000Z</time>
      </trkpt>
      <trkpt lat="47.8543" lon="7.15911">
        <ele>736.59997558594</ele>
        <time>2019-11-10T09:54:53.000Z</time>
      </trkpt>
      <trkpt lat="47.85425" lon="7.15913">
        <ele>736.20001220703</ele>
        <time>2019-11-10T09:54:54.000Z</time>
      </trkpt>
      <trkpt lat="47.85421" lon="7.15917">
        <ele>735.79998779297</ele>
        <time>2019-11-10T09:54:55.000Z</time>
      </trkpt>
      <trkpt lat="47.85416" lon="7.15923">
        <ele>735.20001220703</ele>
        <time>2019-11-10T09:54:56.000Z</time>
      </trkpt>
      <trkpt lat="47.85411" lon="7.15927">
        <ele>734.59997558594</ele>
        <time>2019-11-10T09:54:57.000Z</time>
      </trkpt>
      <trkpt lat="47.85406" lon="7.15932">
        <ele>734</ele>
        <time>2019-11-10T09:54:58.000Z</time>
      </trkpt>
      <trkpt lat="47.85401" lon="7.15938">
        <ele>733.59997558594</ele>
        <time>2019-11-10T09:54:59.000Z</time>
      </trkpt>
      <trkpt lat="47.85395" lon="7.15943">
        <ele>732.79998779297</ele>
        <time>2019-11-10T09:55:00.000Z</time>
      </trkpt>
      <trkpt lat="47.85389" lon="7.15949">
        <ele>732</ele>
        <time>2019-11-10T09:55:01.000Z</time>
      </trkpt>
      <trkpt lat="47.85383" lon="7.15954">
        <ele>731.20001220703</ele>
        <time>2019-11-10T09:55:02.000Z</time>
      </trkpt>
      <trkpt lat="47.85377" lon="7.15958">
        <ele>730.40002441406</ele>
        <time>2019-11-10T09:55:03.000Z</time>
      </trkpt>
      <trkpt lat="47.8537" lon="7.15961">
        <ele>729.59997558594</ele>
        <time>2019-11-10T09:55:04.000Z</time>
      </trkpt>
      <trkpt lat="47.85364" lon="7.15964">
        <ele>728.79998779297</ele>
        <time>2019-11-10T09:55:05.000Z</time>
      </trkpt>
      <trkpt lat="47.85359" lon="7.15966">
        <ele>728</ele>
        <time>2019-11-10T09:55:06.000Z</time>
      </trkpt>
      <trkpt lat="47.85356" lon="7.15967">
        <ele>727.20001220703</ele>
        <time>2019-11-10T09:55:07.000Z</time>
      </trkpt>
      <trkpt lat="47.85354" lon="7.15968">
        <ele>726.40002441406</ele>
        <time>2019-11-10T09:55:08.000Z</time>
      </trkpt>
      <trkpt lat="47.85354" lon="7.1597">
        <ele>725.59997558594</ele>
        <time>2019-11-10T09:55:09.000Z</time>
      </trkpt>
      <trkpt lat="47.85353" lon="7.15971">
        <ele>724.79998779297</ele>
        <time>2019-11-10T09:55:10.000Z</time>
      </trkpt>
      <trkpt lat="47.85352" lon="7.15972">
        <ele>724.79998779297</ele>
        <time>2019-11-10T09:55:20.000Z</time>
      </trkpt>
      <trkpt lat="47.85348" lon="7.15974">
        <ele>724.40002441406</ele>
        <time>2019-11-10T09:55:22.000Z</time>
      </trkpt>
      <trkpt lat="47.85345" lon="7.15975">
        <ele>724</ele>
        <time>2019-11-10T09:55:23.000Z</time>
      </trkpt>
      <trkpt lat="47.85342" lon="7.15976">
        <ele>723.40002441406</ele>
        <time>2019-11-10T09:55:24.000Z</time>
      </trkpt>
      <trkpt lat="47.85338" lon="7.15977">
        <ele>723</ele>
        <time>2019-11-10T09:55:25.000Z</time>
      </trkpt>
      <trkpt lat="47.85334" lon="7.15979">
        <ele>722.59997558594</ele>
        <time>2019-11-10T09:55:26.000Z</time>
      </trkpt>
      <trkpt lat="47.85329" lon="7.15981">
        <ele>722</ele>
        <time>2019-11-10T09:55:27.000Z</time>
      </trkpt>
      <trkpt lat="47.85324" lon="7.15981">
        <ele>721.59997558594</ele>
        <time>2019-11-10T09:55:28.000Z</time>
      </trkpt>
      <trkpt lat="47.8532" lon="7.15982">
        <ele>721.20001220703</ele>
        <time>2019-11-10T09:55:29.000Z</time>
      </trkpt>
      <trkpt lat="47.85315" lon="7.15983">
        <ele>720.59997558594</ele>
        <time>2019-11-10T09:55:30.000Z</time>
      </trkpt>
      <trkpt lat="47.8531" lon="7.15984">
        <ele>720.20001220703</ele>
        <time>2019-11-10T09:55:31.000Z</time>
      </trkpt>
      <trkpt lat="47.85307" lon="7.15985">
        <ele>719.59997558594</ele>
        <time>2019-11-10T09:55:32.000Z</time>
      </trkpt>
      <trkpt lat="47.85303" lon="7.15987">
        <ele>719.20001220703</ele>
        <time>2019-11-10T09:55:33.000Z</time>
      </trkpt>
      <trkpt lat="47.853" lon="7.1599">
        <ele>718.59997558594</ele>
        <time>2019-11-10T09:55:34.000Z</time>
      </trkpt>
      <trkpt lat="47.85297" lon="7.15992">
        <ele>718.20001220703</ele>
        <time>2019-11-10T09:55:35.000Z</time>
      </trkpt>
      <trkpt lat="47.85294" lon="7.15994">
        <ele>717.79998779297</ele>
        <time>2019-11-10T09:55:36.000Z</time>
      </trkpt>
      <trkpt lat="47.8529" lon="7.15998">
        <ele>717.20001220703</ele>
        <time>2019-11-10T09:55:37.000Z</time>
      </trkpt>
      <trkpt lat="47.85285" lon="7.16001">
        <ele>716.79998779297</ele>
        <time>2019-11-10T09:55:38.000Z</time>
      </trkpt>
      <trkpt lat="47.8528" lon="7.16006">
        <ele>716.40002441406</ele>
        <time>2019-11-10T09:55:39.000Z</time>
      </trkpt>
      <trkpt lat="47.85275" lon="7.16012">
        <ele>715.79998779297</ele>
        <time>2019-11-10T09:55:40.000Z</time>
      </trkpt>
      <trkpt lat="47.8527" lon="7.16018">
        <ele>715.40002441406</ele>
        <time>2019-11-10T09:55:41.000Z</time>
      </trkpt>
      <trkpt lat="47.85265" lon="7.16024">
        <ele>714.79998779297</ele>
        <time>2019-11-10T09:55:42.000Z</time>
      </trkpt>
      <trkpt lat="47.8526" lon="7.16029">
        <ele>713.40002441406</ele>
        <time>2019-11-10T09:55:43.000Z</time>
      </trkpt>
      <trkpt lat="47.85255" lon="7.16035">
        <ele>712.59997558594</ele>
        <time>2019-11-10T09:55:44.000Z</time>
      </trkpt>
      <trkpt lat="47.85249" lon="7.16041">
        <ele>711.79998779297</ele>
        <time>2019-11-10T09:55:45.000Z</time>
      </trkpt>
      <trkpt lat="47.85242" lon="7.16049">
        <ele>711</ele>
        <time>2019-11-10T09:55:46.000Z</time>
      </trkpt>
      <trkpt lat="47.85236" lon="7.16056">
        <ele>710.20001220703</ele>
        <time>2019-11-10T09:55:47.000Z</time>
      </trkpt>
      <trkpt lat="47.85229" lon="7.16065">
        <ele>709.40002441406</ele>
        <time>2019-11-10T09:55:48.000Z</time>
      </trkpt>
      <trkpt lat="47.85222" lon="7.16074">
        <ele>708.40002441406</ele>
        <time>2019-11-10T09:55:49.000Z</time>
      </trkpt>
      <trkpt lat="47.85214" lon="7.16083">
        <ele>707.40002441406</ele>
        <time>2019-11-10T09:55:50.000Z</time>
      </trkpt>
      <trkpt lat="47.85206" lon="7.16093">
        <ele>706.20001220703</ele>
        <time>2019-11-10T09:55:51.000Z</time>
      </trkpt>
      <trkpt lat="47.85199" lon="7.16103">
        <ele>705.20001220703</ele>
        <time>2019-11-10T09:55:52.000Z</time>
      </trkpt>
      <trkpt lat="47.85193" lon="7.16111">
        <ele>704.20001220703</ele>
        <time>2019-11-10T09:55:53.000Z</time>
      </trkpt>
      <trkpt lat="47.85188" lon="7.16116">
        <ele>703.20001220703</ele>
        <time>2019-11-10T09:55:54.000Z</time>
      </trkpt>
      <trkpt lat="47.85182" lon="7.16118">
        <ele>702</ele>
        <time>2019-11-10T09:55:55.000Z</time>
      </trkpt>
      <trkpt lat="47.85174" lon="7.1612">
        <ele>702</ele>
        <time>2019-11-10T09:55:56.000Z</time>
      </trkpt>
      <trkpt lat="47.85168" lon="7.1612">
        <ele>701.59997558594</ele>
        <time>2019-11-10T09:55:57.000Z</time>
      </trkpt>
      <trkpt lat="47.8516" lon="7.16118">
        <ele>701.20001220703</ele>
        <time>2019-11-10T09:55:58.000Z</time>
      </trkpt>
      <trkpt lat="47.85153" lon="7.16116">
        <ele>700.79998779297</ele>
        <time>2019-11-10T09:55:59.000Z</time>
      </trkpt>
      <trkpt lat="47.85146" lon="7.16115">
        <ele>700.40002441406</ele>
        <time>2019-11-10T09:56:00.000Z</time>
      </trkpt>
      <trkpt lat="47.85139" lon="7.16116">
        <ele>700</ele>
        <time>2019-11-10T09:56:01.000Z</time>
      </trkpt>
      <trkpt lat="47.85117" lon="7.16121">
        <ele>699.59997558594</ele>
        <time>2019-11-10T09:56:04.000Z</time>
      </trkpt>
      <trkpt lat="47.8511" lon="7.16123">
        <ele>699.20001220703</ele>
        <time>2019-11-10T09:56:05.000Z</time>
      </trkpt>
      <trkpt lat="47.85103" lon="7.16125">
        <ele>698.79998779297</ele>
        <time>2019-11-10T09:56:06.000Z</time>
      </trkpt>
      <trkpt lat="47.85097" lon="7.16127">
        <ele>698</ele>
        <time>2019-11-10T09:56:07.000Z</time>
      </trkpt>
      <trkpt lat="47.85077" lon="7.16135">
        <ele>698</ele>
        <time>2019-11-10T09:56:10.000Z</time>
      </trkpt>
      <trkpt lat="47.85048" lon="7.16149">
        <ele>698</ele>
        <time>2019-11-10T09:56:15.000Z</time>
      </trkpt>
      <trkpt lat="47.85042" lon="7.16151">
        <ele>697.40002441406</ele>
        <time>2019-11-10T09:56:16.000Z</time>
      </trkpt>
      <trkpt lat="47.85036" lon="7.1615">
        <ele>697</ele>
        <time>2019-11-10T09:56:17.000Z</time>
      </trkpt>
      <trkpt lat="47.8503" lon="7.16149">
        <ele>696.59997558594</ele>
        <time>2019-11-10T09:56:18.000Z</time>
      </trkpt>
      <trkpt lat="47.85024" lon="7.16146">
        <ele>696.20001220703</ele>
        <time>2019-11-10T09:56:19.000Z</time>
      </trkpt>
      <trkpt lat="47.85019" lon="7.16142">
        <ele>695.79998779297</ele>
        <time>2019-11-10T09:56:20.000Z</time>
      </trkpt>
      <trkpt lat="47.85014" lon="7.16138">
        <ele>695.79998779297</ele>
        <time>2019-11-10T09:56:21.000Z</time>
      </trkpt>
      <trkpt lat="47.8501" lon="7.16133">
        <ele>695.79998779297</ele>
        <time>2019-11-10T09:56:22.000Z</time>
      </trkpt>
      <trkpt lat="47.84994" lon="7.16103">
        <ele>695.79998779297</ele>
        <time>2019-11-10T09:56:27.000Z</time>
      </trkpt>
      <trkpt lat="47.84991" lon="7.16073">
        <ele>695.79998779297</ele>
        <time>2019-11-10T09:56:31.000Z</time>
      </trkpt>
      <trkpt lat="47.84991" lon="7.16066">
        <ele>695.79998779297</ele>
        <time>2019-11-10T09:56:32.000Z</time>
      </trkpt>
      <trkpt lat="47.84991" lon="7.16052">
        <ele>695.79998779297</ele>
        <time>2019-11-10T09:56:34.000Z</time>
      </trkpt>
      <trkpt lat="47.84987" lon="7.16039">
        <ele>695.79998779297</ele>
        <time>2019-11-10T09:56:36.000Z</time>
      </trkpt>
      <trkpt lat="47.84978" lon="7.16015">
        <ele>695.40002441406</ele>
        <time>2019-11-10T09:56:40.000Z</time>
      </trkpt>
      <trkpt lat="47.84977" lon="7.16005">
        <ele>695</ele>
        <time>2019-11-10T09:56:41.000Z</time>
      </trkpt>
      <trkpt lat="47.84977" lon="7.15995">
        <ele>694.59997558594</ele>
        <time>2019-11-10T09:56:42.000Z</time>
      </trkpt>
      <trkpt lat="47.84978" lon="7.15983">
        <ele>694.20001220703</ele>
        <time>2019-11-10T09:56:43.000Z</time>
      </trkpt>
      <trkpt lat="47.8498" lon="7.15972">
        <ele>693.79998779297</ele>
        <time>2019-11-10T09:56:44.000Z</time>
      </trkpt>
      <trkpt lat="47.84981" lon="7.15961">
        <ele>693.20001220703</ele>
        <time>2019-11-10T09:56:45.000Z</time>
      </trkpt>
      <trkpt lat="47.84981" lon="7.15951">
        <ele>692.79998779297</ele>
        <time>2019-11-10T09:56:46.000Z</time>
      </trkpt>
      <trkpt lat="47.84982" lon="7.1594">
        <ele>692.20001220703</ele>
        <time>2019-11-10T09:56:47.000Z</time>
      </trkpt>
      <trkpt lat="47.84984" lon="7.15929">
        <ele>691.59997558594</ele>
        <time>2019-11-10T09:56:48.000Z</time>
      </trkpt>
      <trkpt lat="47.84985" lon="7.15917">
        <ele>691.20001220703</ele>
        <time>2019-11-10T09:56:49.000Z</time>
      </trkpt>
      <trkpt lat="47.84986" lon="7.15908">
        <ele>690.79998779297</ele>
        <time>2019-11-10T09:56:50.000Z</time>
      </trkpt>
      <trkpt lat="47.84988" lon="7.15898">
        <ele>690.40002441406</ele>
        <time>2019-11-10T09:56:51.000Z</time>
      </trkpt>
      <trkpt lat="47.84989" lon="7.15889">
        <ele>689.79998779297</ele>
        <time>2019-11-10T09:56:52.000Z</time>
      </trkpt>
      <trkpt lat="47.84991" lon="7.15878">
        <ele>689.40002441406</ele>
        <time>2019-11-10T09:56:53.000Z</time>
      </trkpt>
      <trkpt lat="47.84993" lon="7.15868">
        <ele>688.79998779297</ele>
        <time>2019-11-10T09:56:54.000Z</time>
      </trkpt>
      <trkpt lat="47.84994" lon="7.15856">
        <ele>688.40002441406</ele>
        <time>2019-11-10T09:56:55.000Z</time>
      </trkpt>
      <trkpt lat="47.84995" lon="7.15844">
        <ele>686.79998779297</ele>
        <time>2019-11-10T09:56:56.000Z</time>
      </trkpt>
      <trkpt lat="47.84996" lon="7.15831">
        <ele>685.79998779297</ele>
        <time>2019-11-10T09:56:57.000Z</time>
      </trkpt>
      <trkpt lat="47.84997" lon="7.15818">
        <ele>685</ele>
        <time>2019-11-10T09:56:58.000Z</time>
      </trkpt>
      <trkpt lat="47.84999" lon="7.15805">
        <ele>683.79998779297</ele>
        <time>2019-11-10T09:56:59.000Z</time>
      </trkpt>
      <trkpt lat="47.85" lon="7.15792">
        <ele>682.79998779297</ele>
        <time>2019-11-10T09:57:00.000Z</time>
      </trkpt>
      <trkpt lat="47.85001" lon="7.15778">
        <ele>681.59997558594</ele>
        <time>2019-11-10T09:57:01.000Z</time>
      </trkpt>
      <trkpt lat="47.85001" lon="7.15764">
        <ele>680.59997558594</ele>
        <time>2019-11-10T09:57:02.000Z</time>
      </trkpt>
      <trkpt lat="47.85002" lon="7.1575">
        <ele>679.20001220703</ele>
        <time>2019-11-10T09:57:03.000Z</time>
      </trkpt>
      <trkpt lat="47.85003" lon="7.15737">
        <ele>678</ele>
        <time>2019-11-10T09:57:04.000Z</time>
      </trkpt>
      <trkpt lat="47.85006" lon="7.15724">
        <ele>676.79998779297</ele>
        <time>2019-11-10T09:57:05.000Z</time>
      </trkpt>
      <trkpt lat="47.85009" lon="7.15713">
        <ele>675.40002441406</ele>
        <time>2019-11-10T09:57:06.000Z</time>
      </trkpt>
      <trkpt lat="47.85011" lon="7.15706">
        <ele>674.20001220703</ele>
        <time>2019-11-10T09:57:07.000Z</time>
      </trkpt>
      <trkpt lat="47.85012" lon="7.157">
        <ele>672.79998779297</ele>
        <time>2019-11-10T09:57:08.000Z</time>
      </trkpt>
      <trkpt lat="47.85014" lon="7.15696">
        <ele>671.59997558594</ele>
        <time>2019-11-10T09:57:09.000Z</time>
      </trkpt>
      <trkpt lat="47.85015" lon="7.15694">
        <ele>672</ele>
        <time>2019-11-10T09:57:10.000Z</time>
      </trkpt>
      <trkpt lat="47.85016" lon="7.15693">
        <ele>672.59997558594</ele>
        <time>2019-11-10T09:57:11.000Z</time>
      </trkpt>
      <trkpt lat="47.85016" lon="7.15693">
        <ele>673</ele>
        <time>2019-11-10T09:57:12.000Z</time>
      </trkpt>
      <trkpt lat="47.85016" lon="7.15693">
        <ele>673.59997558594</ele>
        <time>2019-11-10T09:57:13.000Z</time>
      </trkpt>
      <trkpt lat="47.85014" lon="7.15698">
        <ele>676.20001220703</ele>
        <time>2019-11-10T09:57:20.000Z</time>
      </trkpt>
      <trkpt lat="47.85013" lon="7.15706">
        <ele>676.20001220703</ele>
        <time>2019-11-10T09:57:22.000Z</time>
      </trkpt>
      <trkpt lat="47.8501" lon="7.15716">
        <ele>675.79998779297</ele>
        <time>2019-11-10T09:57:24.000Z</time>
      </trkpt>
      <trkpt lat="47.85007" lon="7.15719">
        <ele>675.20001220703</ele>
        <time>2019-11-10T09:57:25.000Z</time>
      </trkpt>
      <trkpt lat="47.85006" lon="7.15721">
        <ele>674.79998779297</ele>
        <time>2019-11-10T09:57:26.000Z</time>
      </trkpt>
      <trkpt lat="47.85004" lon="7.15722">
        <ele>674.40002441406</ele>
        <time>2019-11-10T09:57:27.000Z</time>
      </trkpt>
      <trkpt lat="47.85004" lon="7.15723">
        <ele>673.79998779297</ele>
        <time>2019-11-10T09:57:28.000Z</time>
      </trkpt>
      <trkpt lat="47.85003" lon="7.15726">
        <ele>673.79998779297</ele>
        <time>2019-11-10T09:57:29.000Z</time>
      </trkpt>
      <trkpt lat="47.85005" lon="7.1573">
        <ele>673.79998779297</ele>
        <time>2019-11-10T09:57:34.000Z</time>
      </trkpt>
      <trkpt lat="47.85006" lon="7.1573">
        <ele>673.79998779297</ele>
        <time>2019-11-10T09:58:15.000Z</time>
      </trkpt>
      <trkpt lat="47.85007" lon="7.15728">
        <ele>673.79998779297</ele>
        <time>2019-11-10T09:58:16.000Z</time>
      </trkpt>
      <trkpt lat="47.85008" lon="7.15724">
        <ele>673.79998779297</ele>
        <time>2019-11-10T09:58:18.000Z</time>
      </trkpt>
      <trkpt lat="47.8501" lon="7.15723">
        <ele>673.79998779297</ele>
        <time>2019-11-10T09:58:19.000Z</time>
      </trkpt>
      <trkpt lat="47.85013" lon="7.15718">
        <ele>673.79998779297</ele>
        <time>2019-11-10T09:58:22.000Z</time>
      </trkpt>
      <trkpt lat="47.85016" lon="7.15707">
        <ele>673.79998779297</ele>
        <time>2019-11-10T09:58:27.000Z</time>
      </trkpt>
      <trkpt lat="47.85019" lon="7.15698">
        <ele>673.79998779297</ele>
        <time>2019-11-10T09:58:31.000Z</time>
      </trkpt>
      <trkpt lat="47.85021" lon="7.15694">
        <ele>674.40002441406</ele>
        <time>2019-11-10T09:58:33.000Z</time>
      </trkpt>
      <trkpt lat="47.85021" lon="7.15692">
        <ele>674.79998779297</ele>
        <time>2019-11-10T09:58:34.000Z</time>
      </trkpt>
      <trkpt lat="47.85022" lon="7.1569">
        <ele>675.59997558594</ele>
        <time>2019-11-10T09:58:35.000Z</time>
      </trkpt>
      <trkpt lat="47.85023" lon="7.15689">
        <ele>676.20001220703</ele>
        <time>2019-11-10T09:58:36.000Z</time>
      </trkpt>
      <trkpt lat="47.85025" lon="7.15682">
        <ele>676.59997558594</ele>
        <time>2019-11-10T09:58:39.000Z</time>
      </trkpt>
      <trkpt lat="47.85027" lon="7.15681">
        <ele>677</ele>
        <time>2019-11-10T09:58:40.000Z</time>
      </trkpt>
      <trkpt lat="47.85027" lon="7.15679">
        <ele>677.59997558594</ele>
        <time>2019-11-10T09:58:41.000Z</time>
      </trkpt>
      <trkpt lat="47.85029" lon="7.15678">
        <ele>678</ele>
        <time>2019-11-10T09:58:42.000Z</time>
      </trkpt>
      <trkpt lat="47.8503" lon="7.15676">
        <ele>678.40002441406</ele>
        <time>2019-11-10T09:58:43.000Z</time>
      </trkpt>
      <trkpt lat="47.85034" lon="7.15664">
        <ele>678.79998779297</ele>
        <time>2019-11-10T09:58:48.000Z</time>
      </trkpt>
      <trkpt lat="47.85035" lon="7.15662">
        <ele>679.40002441406</ele>
        <time>2019-11-10T09:58:49.000Z</time>
      </trkpt>
      <trkpt lat="47.85035" lon="7.1566">
        <ele>679.79998779297</ele>
        <time>2019-11-10T09:58:50.000Z</time>
      </trkpt>
      <trkpt lat="47.85036" lon="7.15657">
        <ele>680.20001220703</ele>
        <time>2019-11-10T09:58:51.000Z</time>
      </trkpt>
      <trkpt lat="47.85037" lon="7.15655">
        <ele>680.59997558594</ele>
        <time>2019-11-10T09:58:52.000Z</time>
      </trkpt>
      <trkpt lat="47.85038" lon="7.15649">
        <ele>680.59997558594</ele>
        <time>2019-11-10T09:58:54.000Z</time>
      </trkpt>
      <trkpt lat="47.8504" lon="7.15645">
        <ele>681</ele>
        <time>2019-11-10T09:58:56.000Z</time>
      </trkpt>
      <trkpt lat="47.85041" lon="7.15642">
        <ele>681.40002441406</ele>
        <time>2019-11-10T09:58:57.000Z</time>
      </trkpt>
      <trkpt lat="47.85041" lon="7.15639">
        <ele>681.79998779297</ele>
        <time>2019-11-10T09:58:58.000Z</time>
      </trkpt>
      <trkpt lat="47.85042" lon="7.15638">
        <ele>682.20001220703</ele>
        <time>2019-11-10T09:58:59.000Z</time>
      </trkpt>
      <trkpt lat="47.85043" lon="7.15635">
        <ele>682.59997558594</ele>
        <time>2019-11-10T09:59:00.000Z</time>
      </trkpt>
      <trkpt lat="47.85046" lon="7.15627">
        <ele>683</ele>
        <time>2019-11-10T09:59:04.000Z</time>
      </trkpt>
      <trkpt lat="47.85047" lon="7.15625">
        <ele>683.40002441406</ele>
        <time>2019-11-10T09:59:05.000Z</time>
      </trkpt>
      <trkpt lat="47.85048" lon="7.15624">
        <ele>683.79998779297</ele>
        <time>2019-11-10T09:59:06.000Z</time>
      </trkpt>
      <trkpt lat="47.8505" lon="7.15623">
        <ele>684.40002441406</ele>
        <time>2019-11-10T09:59:07.000Z</time>
      </trkpt>
      <trkpt lat="47.85051" lon="7.15621">
        <ele>684.79998779297</ele>
        <time>2019-11-10T09:59:08.000Z</time>
      </trkpt>
      <trkpt lat="47.85051" lon="7.15618">
        <ele>684.79998779297</ele>
        <time>2019-11-10T09:59:09.000Z</time>
      </trkpt>
      <trkpt lat="47.85051" lon="7.15613">
        <ele>685.20001220703</ele>
        <time>2019-11-10T09:59:11.000Z</time>
      </trkpt>
      <trkpt lat="47.85052" lon="7.15611">
        <ele>685.59997558594</ele>
        <time>2019-11-10T09:59:12.000Z</time>
      </trkpt>
      <trkpt lat="47.85052" lon="7.1561">
        <ele>686</ele>
        <time>2019-11-10T09:59:13.000Z</time>
      </trkpt>
      <trkpt lat="47.85053" lon="7.15608">
        <ele>686.40002441406</ele>
        <time>2019-11-10T09:59:14.000Z</time>
      </trkpt>
      <trkpt lat="47.85054" lon="7.15607">
        <ele>687</ele>
        <time>2019-11-10T09:59:15.000Z</time>
      </trkpt>
      <trkpt lat="47.85056" lon="7.15603">
        <ele>687.40002441406</ele>
        <time>2019-11-10T09:59:18.000Z</time>
      </trkpt>
      <trkpt lat="47.85057" lon="7.15601">
        <ele>687.79998779297</ele>
        <time>2019-11-10T09:59:19.000Z</time>
      </trkpt>
      <trkpt lat="47.85058" lon="7.15599">
        <ele>688.20001220703</ele>
        <time>2019-11-10T09:59:20.000Z</time>
      </trkpt>
      <trkpt lat="47.85059" lon="7.15597">
        <ele>688.59997558594</ele>
        <time>2019-11-10T09:59:21.000Z</time>
      </trkpt>
      <trkpt lat="47.8506" lon="7.15595">
        <ele>689</ele>
        <time>2019-11-10T09:59:22.000Z</time>
      </trkpt>
      <trkpt lat="47.85061" lon="7.15593">
        <ele>689</ele>
        <time>2019-11-10T09:59:23.000Z</time>
      </trkpt>
      <trkpt lat="47.85061" lon="7.15591">
        <ele>689.40002441406</ele>
        <time>2019-11-10T09:59:24.000Z</time>
      </trkpt>
      <trkpt lat="47.85062" lon="7.15589">
        <ele>690.20001220703</ele>
        <time>2019-11-10T09:59:25.000Z</time>
      </trkpt>
      <trkpt lat="47.85063" lon="7.15587">
        <ele>690.59997558594</ele>
        <time>2019-11-10T09:59:26.000Z</time>
      </trkpt>
      <trkpt lat="47.85064" lon="7.15586">
        <ele>691</ele>
        <time>2019-11-10T09:59:27.000Z</time>
      </trkpt>
      <trkpt lat="47.85065" lon="7.15583">
        <ele>691.40002441406</ele>
        <time>2019-11-10T09:59:28.000Z</time>
      </trkpt>
      <trkpt lat="47.85066" lon="7.15582">
        <ele>691.79998779297</ele>
        <time>2019-11-10T09:59:29.000Z</time>
      </trkpt>
      <trkpt lat="47.85067" lon="7.15581">
        <ele>692.20001220703</ele>
        <time>2019-11-10T09:59:30.000Z</time>
      </trkpt>
      <trkpt lat="47.85068" lon="7.15579">
        <ele>692.59997558594</ele>
        <time>2019-11-10T09:59:31.000Z</time>
      </trkpt>
      <trkpt lat="47.85069" lon="7.15578">
        <ele>693</ele>
        <time>2019-11-10T09:59:32.000Z</time>
      </trkpt>
      <trkpt lat="47.85071" lon="7.15575">
        <ele>693.40002441406</ele>
        <time>2019-11-10T09:59:34.000Z</time>
      </trkpt>
      <trkpt lat="47.85072" lon="7.15575">
        <ele>694</ele>
        <time>2019-11-10T09:59:35.000Z</time>
      </trkpt>
      <trkpt lat="47.85073" lon="7.15574">
        <ele>694.40002441406</ele>
        <time>2019-11-10T09:59:36.000Z</time>
      </trkpt>
      <trkpt lat="47.85074" lon="7.15573">
        <ele>694.79998779297</ele>
        <time>2019-11-10T09:59:37.000Z</time>
      </trkpt>
      <trkpt lat="47.85075" lon="7.15571">
        <ele>695.20001220703</ele>
        <time>2019-11-10T09:59:38.000Z</time>
      </trkpt>
      <trkpt lat="47.85077" lon="7.15568">
        <ele>695.79998779297</ele>
        <time>2019-11-10T09:59:40.000Z</time>
      </trkpt>
      <trkpt lat="47.85078" lon="7.15566">
        <ele>696.20001220703</ele>
        <time>2019-11-10T09:59:41.000Z</time>
      </trkpt>
      <trkpt lat="47.85079" lon="7.15564">
        <ele>696.59997558594</ele>
        <time>2019-11-10T09:59:42.000Z</time>
      </trkpt>
      <trkpt lat="47.8508" lon="7.15562">
        <ele>697</ele>
        <time>2019-11-10T09:59:43.000Z</time>
      </trkpt>
      <trkpt lat="47.85081" lon="7.15562">
        <ele>697.40002441406</ele>
        <time>2019-11-10T09:59:44.000Z</time>
      </trkpt>
      <trkpt lat="47.85083" lon="7.15558">
        <ele>697.79998779297</ele>
        <time>2019-11-10T09:59:46.000Z</time>
      </trkpt>
      <trkpt lat="47.85083" lon="7.15556">
        <ele>698.20001220703</ele>
        <time>2019-11-10T09:59:47.000Z</time>
      </trkpt>
      <trkpt lat="47.85084" lon="7.15554">
        <ele>698.79998779297</ele>
        <time>2019-11-10T09:59:48.000Z</time>
      </trkpt>
      <trkpt lat="47.85084" lon="7.15551">
        <ele>699.59997558594</ele>
        <time>2019-11-10T09:59:49.000Z</time>
      </trkpt>
      <trkpt lat="47.85086" lon="7.15547">
        <ele>700</ele>
        <time>2019-11-10T09:59:51.000Z</time>
      </trkpt>
      <trkpt lat="47.85086" lon="7.15545">
        <ele>700.40002441406</ele>
        <time>2019-11-10T09:59:52.000Z</time>
      </trkpt>
      <trkpt lat="47.85087" lon="7.15543">
        <ele>700.79998779297</ele>
        <time>2019-11-10T09:59:53.000Z</time>
      </trkpt>
      <trkpt lat="47.85088" lon="7.1554">
        <ele>701.20001220703</ele>
        <time>2019-11-10T09:59:54.000Z</time>
      </trkpt>
      <trkpt lat="47.85089" lon="7.15537">
        <ele>701.59997558594</ele>
        <time>2019-11-10T09:59:55.000Z</time>
      </trkpt>
      <trkpt lat="47.85092" lon="7.1553">
        <ele>701.59997558594</ele>
        <time>2019-11-10T09:59:59.000Z</time>
      </trkpt>
      <trkpt lat="47.85096" lon="7.15524">
        <ele>702</ele>
        <time>2019-11-10T10:00:03.000Z</time>
      </trkpt>
      <trkpt lat="47.85097" lon="7.15522">
        <ele>702.59997558594</ele>
        <time>2019-11-10T10:00:04.000Z</time>
      </trkpt>
      <trkpt lat="47.85098" lon="7.15519">
        <ele>703</ele>
        <time>2019-11-10T10:00:05.000Z</time>
      </trkpt>
      <trkpt lat="47.85098" lon="7.15517">
        <ele>703.40002441406</ele>
        <time>2019-11-10T10:00:06.000Z</time>
      </trkpt>
      <trkpt lat="47.85099" lon="7.15514">
        <ele>703.79998779297</ele>
        <time>2019-11-10T10:00:07.000Z</time>
      </trkpt>
      <trkpt lat="47.851" lon="7.15507">
        <ele>703.79998779297</ele>
        <time>2019-11-10T10:00:10.000Z</time>
      </trkpt>
      <trkpt lat="47.85102" lon="7.15505">
        <ele>703.79998779297</ele>
        <time>2019-11-10T10:00:12.000Z</time>
      </trkpt>
      <trkpt lat="47.85105" lon="7.15494">
        <ele>703.79998779297</ele>
        <time>2019-11-10T10:00:17.000Z</time>
      </trkpt>
      <trkpt lat="47.85106" lon="7.15493">
        <ele>704.20001220703</ele>
        <time>2019-11-10T10:00:18.000Z</time>
      </trkpt>
      <trkpt lat="47.85106" lon="7.15491">
        <ele>704.59997558594</ele>
        <time>2019-11-10T10:00:19.000Z</time>
      </trkpt>
      <trkpt lat="47.85106" lon="7.15489">
        <ele>705</ele>
        <time>2019-11-10T10:00:20.000Z</time>
      </trkpt>
      <trkpt lat="47.85106" lon="7.15486">
        <ele>705.40002441406</ele>
        <time>2019-11-10T10:00:21.000Z</time>
      </trkpt>
      <trkpt lat="47.85106" lon="7.15483">
        <ele>705.79998779297</ele>
        <time>2019-11-10T10:00:22.000Z</time>
      </trkpt>
      <trkpt lat="47.85108" lon="7.15469">
        <ele>705.79998779297</ele>
        <time>2019-11-10T10:00:27.000Z</time>
      </trkpt>
      <trkpt lat="47.85109" lon="7.15456">
        <ele>706.20001220703</ele>
        <time>2019-11-10T10:00:31.000Z</time>
      </trkpt>
      <trkpt lat="47.8511" lon="7.15454">
        <ele>706.59997558594</ele>
        <time>2019-11-10T10:00:32.000Z</time>
      </trkpt>
      <trkpt lat="47.8511" lon="7.15451">
        <ele>707</ele>
        <time>2019-11-10T10:00:33.000Z</time>
      </trkpt>
      <trkpt lat="47.85111" lon="7.15449">
        <ele>707.40002441406</ele>
        <time>2019-11-10T10:00:34.000Z</time>
      </trkpt>
      <trkpt lat="47.85111" lon="7.15446">
        <ele>707.79998779297</ele>
        <time>2019-11-10T10:00:35.000Z</time>
      </trkpt>
      <trkpt lat="47.85112" lon="7.15438">
        <ele>707.79998779297</ele>
        <time>2019-11-10T10:00:39.000Z</time>
      </trkpt>
      <trkpt lat="47.85112" lon="7.15436">
        <ele>707.79998779297</ele>
        <time>2019-11-10T10:00:40.000Z</time>
      </trkpt>
      <trkpt lat="47.85113" lon="7.15433">
        <ele>708.40002441406</ele>
        <time>2019-11-10T10:00:41.000Z</time>
      </trkpt>
      <trkpt lat="47.85113" lon="7.15432">
        <ele>708.79998779297</ele>
        <time>2019-11-10T10:00:42.000Z</time>
      </trkpt>
      <trkpt lat="47.85113" lon="7.15429">
        <ele>709.20001220703</ele>
        <time>2019-11-10T10:00:43.000Z</time>
      </trkpt>
      <trkpt lat="47.85113" lon="7.15427">
        <ele>709.59997558594</ele>
        <time>2019-11-10T10:00:44.000Z</time>
      </trkpt>
      <trkpt lat="47.85113" lon="7.15424">
        <ele>710</ele>
        <time>2019-11-10T10:00:45.000Z</time>
      </trkpt>
      <trkpt lat="47.85114" lon="7.15423">
        <ele>710</ele>
        <time>2019-11-10T10:00:46.000Z</time>
      </trkpt>
      <trkpt lat="47.85116" lon="7.15414">
        <ele>710.40002441406</ele>
        <time>2019-11-10T10:00:51.000Z</time>
      </trkpt>
      <trkpt lat="47.85117" lon="7.15412">
        <ele>711</ele>
        <time>2019-11-10T10:00:52.000Z</time>
      </trkpt>
      <trkpt lat="47.85117" lon="7.1541">
        <ele>711.40002441406</ele>
        <time>2019-11-10T10:00:53.000Z</time>
      </trkpt>
      <trkpt lat="47.85117" lon="7.15407">
        <ele>711.79998779297</ele>
        <time>2019-11-10T10:00:54.000Z</time>
      </trkpt>
      <trkpt lat="47.85117" lon="7.15406">
        <ele>712.40002441406</ele>
        <time>2019-11-10T10:00:55.000Z</time>
      </trkpt>
      <trkpt lat="47.85118" lon="7.15401">
        <ele>712.40002441406</ele>
        <time>2019-11-10T10:00:57.000Z</time>
      </trkpt>
      <trkpt lat="47.8512" lon="7.15392">
        <ele>712.79998779297</ele>
        <time>2019-11-10T10:01:01.000Z</time>
      </trkpt>
      <trkpt lat="47.85121" lon="7.15389">
        <ele>713.20001220703</ele>
        <time>2019-11-10T10:01:02.000Z</time>
      </trkpt>
      <trkpt lat="47.85121" lon="7.15387">
        <ele>713.59997558594</ele>
        <time>2019-11-10T10:01:03.000Z</time>
      </trkpt>
      <trkpt lat="47.85121" lon="7.15384">
        <ele>714.40002441406</ele>
        <time>2019-11-10T10:01:04.000Z</time>
      </trkpt>
      <trkpt lat="47.85123" lon="7.15375">
        <ele>714.40002441406</ele>
        <time>2019-11-10T10:01:09.000Z</time>
      </trkpt>
      <trkpt lat="47.85124" lon="7.15373">
        <ele>714.79998779297</ele>
        <time>2019-11-10T10:01:10.000Z</time>
      </trkpt>
      <trkpt lat="47.85124" lon="7.15371">
        <ele>715.20001220703</ele>
        <time>2019-11-10T10:01:11.000Z</time>
      </trkpt>
      <trkpt lat="47.85124" lon="7.1537">
        <ele>715.59997558594</ele>
        <time>2019-11-10T10:01:12.000Z</time>
      </trkpt>
      <trkpt lat="47.85124" lon="7.15369">
        <ele>716</ele>
        <time>2019-11-10T10:01:13.000Z</time>
      </trkpt>
      <trkpt lat="47.85124" lon="7.15366">
        <ele>716.40002441406</ele>
        <time>2019-11-10T10:01:14.000Z</time>
      </trkpt>
      <trkpt lat="47.85124" lon="7.15362">
        <ele>716.40002441406</ele>
        <time>2019-11-10T10:01:16.000Z</time>
      </trkpt>
      <trkpt lat="47.85126" lon="7.15354">
        <ele>717</ele>
        <time>2019-11-10T10:01:20.000Z</time>
      </trkpt>
      <trkpt lat="47.85126" lon="7.15352">
        <ele>717.40002441406</ele>
        <time>2019-11-10T10:01:21.000Z</time>
      </trkpt>
      <trkpt lat="47.85127" lon="7.1535">
        <ele>717.79998779297</ele>
        <time>2019-11-10T10:01:22.000Z</time>
      </trkpt>
      <trkpt lat="47.85127" lon="7.15348">
        <ele>718.20001220703</ele>
        <time>2019-11-10T10:01:23.000Z</time>
      </trkpt>
      <trkpt lat="47.85128" lon="7.15346">
        <ele>718.59997558594</ele>
        <time>2019-11-10T10:01:24.000Z</time>
      </trkpt>
      <trkpt lat="47.85129" lon="7.15339">
        <ele>718.59997558594</ele>
        <time>2019-11-10T10:01:27.000Z</time>
      </trkpt>
      <trkpt lat="47.85129" lon="7.15337">
        <ele>719</ele>
        <time>2019-11-10T10:01:28.000Z</time>
      </trkpt>
      <trkpt lat="47.85129" lon="7.15334">
        <ele>719.79998779297</ele>
        <time>2019-11-10T10:01:29.000Z</time>
      </trkpt>
      <trkpt lat="47.85129" lon="7.15331">
        <ele>720.40002441406</ele>
        <time>2019-11-10T10:01:30.000Z</time>
      </trkpt>
      <trkpt lat="47.8513" lon="7.15328">
        <ele>720.79998779297</ele>
        <time>2019-11-10T10:01:31.000Z</time>
      </trkpt>
      <trkpt lat="47.85133" lon="7.15322">
        <ele>721.20001220703</ele>
        <time>2019-11-10T10:01:34.000Z</time>
      </trkpt>
      <trkpt lat="47.85133" lon="7.1532">
        <ele>721.59997558594</ele>
        <time>2019-11-10T10:01:35.000Z</time>
      </trkpt>
      <trkpt lat="47.85133" lon="7.15318">
        <ele>722</ele>
        <time>2019-11-10T10:01:36.000Z</time>
      </trkpt>
      <trkpt lat="47.85133" lon="7.15315">
        <ele>722.40002441406</ele>
        <time>2019-11-10T10:01:37.000Z</time>
      </trkpt>
      <trkpt lat="47.85133" lon="7.15312">
        <ele>722.79998779297</ele>
        <time>2019-11-10T10:01:38.000Z</time>
      </trkpt>
      <trkpt lat="47.85133" lon="7.15309">
        <ele>722.79998779297</ele>
        <time>2019-11-10T10:01:39.000Z</time>
      </trkpt>
      <trkpt lat="47.85135" lon="7.15303">
        <ele>723.20001220703</ele>
        <time>2019-11-10T10:01:42.000Z</time>
      </trkpt>
      <trkpt lat="47.85136" lon="7.15301">
        <ele>723.59997558594</ele>
        <time>2019-11-10T10:01:43.000Z</time>
      </trkpt>
      <trkpt lat="47.85137" lon="7.15299">
        <ele>724.20001220703</ele>
        <time>2019-11-10T10:01:44.000Z</time>
      </trkpt>
      <trkpt lat="47.85137" lon="7.15298">
        <ele>724.59997558594</ele>
        <time>2019-11-10T10:01:45.000Z</time>
      </trkpt>
      <trkpt lat="47.85138" lon="7.15296">
        <ele>725</ele>
        <time>2019-11-10T10:01:46.000Z</time>
      </trkpt>
      <trkpt lat="47.85142" lon="7.15286">
        <ele>725</ele>
        <time>2019-11-10T10:01:50.000Z</time>
      </trkpt>
      <trkpt lat="47.85143" lon="7.15284">
        <ele>725.40002441406</ele>
        <time>2019-11-10T10:01:51.000Z</time>
      </trkpt>
      <trkpt lat="47.85144" lon="7.15283">
        <ele>725.79998779297</ele>
        <time>2019-11-10T10:01:52.000Z</time>
      </trkpt>
      <trkpt lat="47.85145" lon="7.15282">
        <ele>726.79998779297</ele>
        <time>2019-11-10T10:01:53.000Z</time>
      </trkpt>
      <trkpt lat="47.85146" lon="7.15281">
        <ele>727.20001220703</ele>
        <time>2019-11-10T10:01:54.000Z</time>
      </trkpt>
      <trkpt lat="47.85148" lon="7.15277">
        <ele>727.20001220703</ele>
        <time>2019-11-10T10:01:56.000Z</time>
      </trkpt>
      <trkpt lat="47.8515" lon="7.15274">
        <ele>727.59997558594</ele>
        <time>2019-11-10T10:01:58.000Z</time>
      </trkpt>
      <trkpt lat="47.85151" lon="7.15273">
        <ele>728</ele>
        <time>2019-11-10T10:01:59.000Z</time>
      </trkpt>
      <trkpt lat="47.85152" lon="7.15272">
        <ele>728.40002441406</ele>
        <time>2019-11-10T10:02:00.000Z</time>
      </trkpt>
      <trkpt lat="47.85153" lon="7.1527">
        <ele>729</ele>
        <time>2019-11-10T10:02:01.000Z</time>
      </trkpt>
      <trkpt lat="47.85155" lon="7.15268">
        <ele>729.40002441406</ele>
        <time>2019-11-10T10:02:02.000Z</time>
      </trkpt>
      <trkpt lat="47.85157" lon="7.15262">
        <ele>729.79998779297</ele>
        <time>2019-11-10T10:02:05.000Z</time>
      </trkpt>
      <trkpt lat="47.85158" lon="7.15261">
        <ele>730.20001220703</ele>
        <time>2019-11-10T10:02:06.000Z</time>
      </trkpt>
      <trkpt lat="47.85158" lon="7.1526">
        <ele>730.59997558594</ele>
        <time>2019-11-10T10:02:07.000Z</time>
      </trkpt>
      <trkpt lat="47.85161" lon="7.15255">
        <ele>731.40002441406</ele>
        <time>2019-11-10T10:02:10.000Z</time>
      </trkpt>
      <trkpt lat="47.85164" lon="7.15252">
        <ele>731.79998779297</ele>
        <time>2019-11-10T10:02:12.000Z</time>
      </trkpt>
      <trkpt lat="47.85165" lon="7.1525">
        <ele>732.20001220703</ele>
        <time>2019-11-10T10:02:13.000Z</time>
      </trkpt>
      <trkpt lat="47.85166" lon="7.15248">
        <ele>732.59997558594</ele>
        <time>2019-11-10T10:02:14.000Z</time>
      </trkpt>
      <trkpt lat="47.85167" lon="7.15247">
        <ele>733.20001220703</ele>
        <time>2019-11-10T10:02:15.000Z</time>
      </trkpt>
      <trkpt lat="47.85168" lon="7.15246">
        <ele>733.59997558594</ele>
        <time>2019-11-10T10:02:16.000Z</time>
      </trkpt>
      <trkpt lat="47.85169" lon="7.15245">
        <ele>733.59997558594</ele>
        <time>2019-11-10T10:02:17.000Z</time>
      </trkpt>
      <trkpt lat="47.85169" lon="7.15244">
        <ele>734.40002441406</ele>
        <time>2019-11-10T10:02:18.000Z</time>
      </trkpt>
      <trkpt lat="47.8517" lon="7.15242">
        <ele>734.79998779297</ele>
        <time>2019-11-10T10:02:19.000Z</time>
      </trkpt>
      <trkpt lat="47.85172" lon="7.15241">
        <ele>735.40002441406</ele>
        <time>2019-11-10T10:02:20.000Z</time>
      </trkpt>
      <trkpt lat="47.85174" lon="7.15239">
        <ele>735.79998779297</ele>
        <time>2019-11-10T10:02:21.000Z</time>
      </trkpt>
      <trkpt lat="47.85174" lon="7.15238">
        <ele>736.20001220703</ele>
        <time>2019-11-10T10:02:22.000Z</time>
      </trkpt>
      <trkpt lat="47.85176" lon="7.15236">
        <ele>736.59997558594</ele>
        <time>2019-11-10T10:02:23.000Z</time>
      </trkpt>
      <trkpt lat="47.85177" lon="7.15235">
        <ele>737</ele>
        <time>2019-11-10T10:02:24.000Z</time>
      </trkpt>
      <trkpt lat="47.85178" lon="7.15234">
        <ele>737.40002441406</ele>
        <time>2019-11-10T10:02:25.000Z</time>
      </trkpt>
      <trkpt lat="47.85178" lon="7.15232">
        <ele>737.79998779297</ele>
        <time>2019-11-10T10:02:26.000Z</time>
      </trkpt>
      <trkpt lat="47.8518" lon="7.15231">
        <ele>737.79998779297</ele>
        <time>2019-11-10T10:02:27.000Z</time>
      </trkpt>
      <trkpt lat="47.85183" lon="7.15231">
        <ele>738.20001220703</ele>
        <time>2019-11-10T10:02:29.000Z</time>
      </trkpt>
      <trkpt lat="47.85185" lon="7.15229">
        <ele>738.59997558594</ele>
        <time>2019-11-10T10:02:30.000Z</time>
      </trkpt>
      <trkpt lat="47.85186" lon="7.15227">
        <ele>739.20001220703</ele>
        <time>2019-11-10T10:02:31.000Z</time>
      </trkpt>
      <trkpt lat="47.85188" lon="7.15226">
        <ele>739.59997558594</ele>
        <time>2019-11-10T10:02:32.000Z</time>
      </trkpt>
      <trkpt lat="47.8519" lon="7.15225">
        <ele>740</ele>
        <time>2019-11-10T10:02:33.000Z</time>
      </trkpt>
      <trkpt lat="47.85191" lon="7.15224">
        <ele>740</ele>
        <time>2019-11-10T10:02:34.000Z</time>
      </trkpt>
      <trkpt lat="47.85193" lon="7.15222">
        <ele>740</ele>
        <time>2019-11-10T10:02:36.000Z</time>
      </trkpt>
      <trkpt lat="47.85195" lon="7.15219">
        <ele>740.40002441406</ele>
        <time>2019-11-10T10:02:38.000Z</time>
      </trkpt>
      <trkpt lat="47.85197" lon="7.15217">
        <ele>741</ele>
        <time>2019-11-10T10:02:39.000Z</time>
      </trkpt>
      <trkpt lat="47.85198" lon="7.15215">
        <ele>741.40002441406</ele>
        <time>2019-11-10T10:02:40.000Z</time>
      </trkpt>
      <trkpt lat="47.852" lon="7.15214">
        <ele>741.79998779297</ele>
        <time>2019-11-10T10:02:41.000Z</time>
      </trkpt>
      <trkpt lat="47.85201" lon="7.15212">
        <ele>742.40002441406</ele>
        <time>2019-11-10T10:02:42.000Z</time>
      </trkpt>
      <trkpt lat="47.85203" lon="7.1521">
        <ele>742.40002441406</ele>
        <time>2019-11-10T10:02:43.000Z</time>
      </trkpt>
      <trkpt lat="47.85204" lon="7.15209">
        <ele>742.79998779297</ele>
        <time>2019-11-10T10:02:44.000Z</time>
      </trkpt>
      <trkpt lat="47.85206" lon="7.15208">
        <ele>743.20001220703</ele>
        <time>2019-11-10T10:02:45.000Z</time>
      </trkpt>
      <trkpt lat="47.85207" lon="7.15207">
        <ele>743.59997558594</ele>
        <time>2019-11-10T10:02:46.000Z</time>
      </trkpt>
      <trkpt lat="47.85208" lon="7.15206">
        <ele>744</ele>
        <time>2019-11-10T10:02:47.000Z</time>
      </trkpt>
      <trkpt lat="47.8521" lon="7.15205">
        <ele>744.40002441406</ele>
        <time>2019-11-10T10:02:48.000Z</time>
      </trkpt>
      <trkpt lat="47.85213" lon="7.15204">
        <ele>744.40002441406</ele>
        <time>2019-11-10T10:02:50.000Z</time>
      </trkpt>
      <trkpt lat="47.85214" lon="7.15202">
        <ele>745</ele>
        <time>2019-11-10T10:02:51.000Z</time>
      </trkpt>
      <trkpt lat="47.85216" lon="7.15201">
        <ele>745.40002441406</ele>
        <time>2019-11-10T10:02:52.000Z</time>
      </trkpt>
      <trkpt lat="47.85217" lon="7.152">
        <ele>745.79998779297</ele>
        <time>2019-11-10T10:02:53.000Z</time>
      </trkpt>
      <trkpt lat="47.85218" lon="7.15199">
        <ele>746.20001220703</ele>
        <time>2019-11-10T10:02:54.000Z</time>
      </trkpt>
      <trkpt lat="47.85219" lon="7.15199">
        <ele>746.59997558594</ele>
        <time>2019-11-10T10:02:55.000Z</time>
      </trkpt>
      <trkpt lat="47.85222" lon="7.15198">
        <ele>746.59997558594</ele>
        <time>2019-11-10T10:02:57.000Z</time>
      </trkpt>
      <trkpt lat="47.85225" lon="7.15197">
        <ele>747.20001220703</ele>
        <time>2019-11-10T10:02:59.000Z</time>
      </trkpt>
      <trkpt lat="47.85226" lon="7.15196">
        <ele>747.59997558594</ele>
        <time>2019-11-10T10:03:00.000Z</time>
      </trkpt>
      <trkpt lat="47.85227" lon="7.15196">
        <ele>748</ele>
        <time>2019-11-10T10:03:01.000Z</time>
      </trkpt>
      <trkpt lat="47.85229" lon="7.15195">
        <ele>748.59997558594</ele>
        <time>2019-11-10T10:03:02.000Z</time>
      </trkpt>
      <trkpt lat="47.8523" lon="7.15193">
        <ele>749</ele>
        <time>2019-11-10T10:03:03.000Z</time>
      </trkpt>
      <trkpt lat="47.85237" lon="7.15188">
        <ele>749.40002441406</ele>
        <time>2019-11-10T10:03:07.000Z</time>
      </trkpt>
      <trkpt lat="47.85239" lon="7.15186">
        <ele>750.20001220703</ele>
        <time>2019-11-10T10:03:08.000Z</time>
      </trkpt>
      <trkpt lat="47.8524" lon="7.15184">
        <ele>750.59997558594</ele>
        <time>2019-11-10T10:03:09.000Z</time>
      </trkpt>
      <trkpt lat="47.85242" lon="7.15183">
        <ele>751.20001220703</ele>
        <time>2019-11-10T10:03:10.000Z</time>
      </trkpt>
      <trkpt lat="47.85248" lon="7.15179">
        <ele>751.59997558594</ele>
        <time>2019-11-10T10:03:14.000Z</time>
      </trkpt>
      <trkpt lat="47.85249" lon="7.15177">
        <ele>752</ele>
        <time>2019-11-10T10:03:15.000Z</time>
      </trkpt>
      <trkpt lat="47.8525" lon="7.15176">
        <ele>752.40002441406</ele>
        <time>2019-11-10T10:03:16.000Z</time>
      </trkpt>
      <trkpt lat="47.85251" lon="7.15175">
        <ele>752.79998779297</ele>
        <time>2019-11-10T10:03:17.000Z</time>
      </trkpt>
      <trkpt lat="47.85253" lon="7.15174">
        <ele>753.20001220703</ele>
        <time>2019-11-10T10:03:18.000Z</time>
      </trkpt>
      <trkpt lat="47.85258" lon="7.15172">
        <ele>753.20001220703</ele>
        <time>2019-11-10T10:03:20.000Z</time>
      </trkpt>
      <trkpt lat="47.85269" lon="7.15166">
        <ele>753.59997558594</ele>
        <time>2019-11-10T10:03:25.000Z</time>
      </trkpt>
      <trkpt lat="47.85271" lon="7.15166">
        <ele>754</ele>
        <time>2019-11-10T10:03:26.000Z</time>
      </trkpt>
      <trkpt lat="47.85274" lon="7.15164">
        <ele>754.40002441406</ele>
        <time>2019-11-10T10:03:27.000Z</time>
      </trkpt>
      <trkpt lat="47.85277" lon="7.15163">
        <ele>755</ele>
        <time>2019-11-10T10:03:28.000Z</time>
      </trkpt>
      <trkpt lat="47.85278" lon="7.15162">
        <ele>755.40002441406</ele>
        <time>2019-11-10T10:03:29.000Z</time>
      </trkpt>
      <trkpt lat="47.85283" lon="7.1516">
        <ele>755.40002441406</ele>
        <time>2019-11-10T10:03:31.000Z</time>
      </trkpt>
      <trkpt lat="47.85293" lon="7.15154">
        <ele>755.40002441406</ele>
        <time>2019-11-10T10:03:36.000Z</time>
      </trkpt>
      <trkpt lat="47.85302" lon="7.15148">
        <ele>755.79998779297</ele>
        <time>2019-11-10T10:03:41.000Z</time>
      </trkpt>
      <trkpt lat="47.85304" lon="7.15147">
        <ele>756.20001220703</ele>
        <time>2019-11-10T10:03:42.000Z</time>
      </trkpt>
      <trkpt lat="47.85305" lon="7.15146">
        <ele>756.59997558594</ele>
        <time>2019-11-10T10:03:43.000Z</time>
      </trkpt>
      <trkpt lat="47.85307" lon="7.15145">
        <ele>757</ele>
        <time>2019-11-10T10:03:44.000Z</time>
      </trkpt>
      <trkpt lat="47.85309" lon="7.15144">
        <ele>757.40002441406</ele>
        <time>2019-11-10T10:03:45.000Z</time>
      </trkpt>
      <trkpt lat="47.8531" lon="7.15142">
        <ele>757.40002441406</ele>
        <time>2019-11-10T10:03:46.000Z</time>
      </trkpt>
      <trkpt lat="47.85315" lon="7.15139">
        <ele>757.79998779297</ele>
        <time>2019-11-10T10:03:49.000Z</time>
      </trkpt>
      <trkpt lat="47.85317" lon="7.15138">
        <ele>758.20001220703</ele>
        <time>2019-11-10T10:03:50.000Z</time>
      </trkpt>
      <trkpt lat="47.85319" lon="7.15137">
        <ele>758.59997558594</ele>
        <time>2019-11-10T10:03:51.000Z</time>
      </trkpt>
      <trkpt lat="47.85321" lon="7.15136">
        <ele>759</ele>
        <time>2019-11-10T10:03:52.000Z</time>
      </trkpt>
      <trkpt lat="47.85323" lon="7.15136">
        <ele>759.59997558594</ele>
        <time>2019-11-10T10:03:53.000Z</time>
      </trkpt>
      <trkpt lat="47.85329" lon="7.15136">
        <ele>760</ele>
        <time>2019-11-10T10:03:56.000Z</time>
      </trkpt>
      <trkpt lat="47.85331" lon="7.15137">
        <ele>760.79998779297</ele>
        <time>2019-11-10T10:03:57.000Z</time>
      </trkpt>
      <trkpt lat="47.85332" lon="7.15137">
        <ele>761.20001220703</ele>
        <time>2019-11-10T10:03:58.000Z</time>
      </trkpt>
      <trkpt lat="47.85335" lon="7.15136">
        <ele>761.59997558594</ele>
        <time>2019-11-10T10:03:59.000Z</time>
      </trkpt>
      <trkpt lat="47.85338" lon="7.15137">
        <ele>762</ele>
        <time>2019-11-10T10:04:01.000Z</time>
      </trkpt>
      <trkpt lat="47.8534" lon="7.15137">
        <ele>762.40002441406</ele>
        <time>2019-11-10T10:04:02.000Z</time>
      </trkpt>
      <trkpt lat="47.85343" lon="7.15137">
        <ele>762.79998779297</ele>
        <time>2019-11-10T10:04:03.000Z</time>
      </trkpt>
      <trkpt lat="47.85344" lon="7.15138">
        <ele>763.20001220703</ele>
        <time>2019-11-10T10:04:04.000Z</time>
      </trkpt>
      <trkpt lat="47.85347" lon="7.15137">
        <ele>763.79998779297</ele>
        <time>2019-11-10T10:04:05.000Z</time>
      </trkpt>
      <trkpt lat="47.85352" lon="7.15137">
        <ele>764.20001220703</ele>
        <time>2019-11-10T10:04:08.000Z</time>
      </trkpt>
      <trkpt lat="47.85354" lon="7.15136">
        <ele>764.59997558594</ele>
        <time>2019-11-10T10:04:09.000Z</time>
      </trkpt>
      <trkpt lat="47.85356" lon="7.15136">
        <ele>765</ele>
        <time>2019-11-10T10:04:10.000Z</time>
      </trkpt>
      <trkpt lat="47.85358" lon="7.15136">
        <ele>765.40002441406</ele>
        <time>2019-11-10T10:04:11.000Z</time>
      </trkpt>
      <trkpt lat="47.8536" lon="7.15136">
        <ele>765.79998779297</ele>
        <time>2019-11-10T10:04:12.000Z</time>
      </trkpt>
      <trkpt lat="47.8537" lon="7.15136">
        <ele>765.79998779297</ele>
        <time>2019-11-10T10:04:18.000Z</time>
      </trkpt>
      <trkpt lat="47.85373" lon="7.15137">
        <ele>766.20001220703</ele>
        <time>2019-11-10T10:04:19.000Z</time>
      </trkpt>
      <trkpt lat="47.85374" lon="7.15137">
        <ele>766.59997558594</ele>
        <time>2019-11-10T10:04:20.000Z</time>
      </trkpt>
      <trkpt lat="47.85376" lon="7.15138">
        <ele>767.20001220703</ele>
        <time>2019-11-10T10:04:21.000Z</time>
      </trkpt>
      <trkpt lat="47.85378" lon="7.15138">
        <ele>768</ele>
        <time>2019-11-10T10:04:22.000Z</time>
      </trkpt>
      <trkpt lat="47.85392" lon="7.15141">
        <ele>768</ele>
        <time>2019-11-10T10:04:29.000Z</time>
      </trkpt>
      <trkpt lat="47.85396" lon="7.15142">
        <ele>768.40002441406</ele>
        <time>2019-11-10T10:04:31.000Z</time>
      </trkpt>
      <trkpt lat="47.85398" lon="7.15143">
        <ele>768.79998779297</ele>
        <time>2019-11-10T10:04:32.000Z</time>
      </trkpt>
      <trkpt lat="47.854" lon="7.15143">
        <ele>769.20001220703</ele>
        <time>2019-11-10T10:04:33.000Z</time>
      </trkpt>
      <trkpt lat="47.85401" lon="7.15144">
        <ele>769.79998779297</ele>
        <time>2019-11-10T10:04:34.000Z</time>
      </trkpt>
      <trkpt lat="47.85403" lon="7.15145">
        <ele>770.20001220703</ele>
        <time>2019-11-10T10:04:35.000Z</time>
      </trkpt>
      <trkpt lat="47.85409" lon="7.15148">
        <ele>770.59997558594</ele>
        <time>2019-11-10T10:04:38.000Z</time>
      </trkpt>
      <trkpt lat="47.85409" lon="7.15148">
        <ele>771</ele>
        <time>2019-11-10T10:04:39.000Z</time>
      </trkpt>
      <trkpt lat="47.8541" lon="7.15148">
        <ele>771.59997558594</ele>
        <time>2019-11-10T10:04:40.000Z</time>
      </trkpt>
      <trkpt lat="47.85412" lon="7.15148">
        <ele>772</ele>
        <time>2019-11-10T10:04:41.000Z</time>
      </trkpt>
      <trkpt lat="47.85414" lon="7.15149">
        <ele>772.40002441406</ele>
        <time>2019-11-10T10:04:42.000Z</time>
      </trkpt>
      <trkpt lat="47.8542" lon="7.1515">
        <ele>772.79998779297</ele>
        <time>2019-11-10T10:04:45.000Z</time>
      </trkpt>
      <trkpt lat="47.85422" lon="7.1515">
        <ele>773.20001220703</ele>
        <time>2019-11-10T10:04:46.000Z</time>
      </trkpt>
      <trkpt lat="47.85424" lon="7.1515">
        <ele>774</ele>
        <time>2019-11-10T10:04:47.000Z</time>
      </trkpt>
      <trkpt lat="47.85425" lon="7.1515">
        <ele>774.40002441406</ele>
        <time>2019-11-10T10:04:48.000Z</time>
      </trkpt>
      <trkpt lat="47.8543" lon="7.1515">
        <ele>775</ele>
        <time>2019-11-10T10:04:51.000Z</time>
      </trkpt>
      <trkpt lat="47.85432" lon="7.15148">
        <ele>775.40002441406</ele>
        <time>2019-11-10T10:04:52.000Z</time>
      </trkpt>
      <trkpt lat="47.85433" lon="7.15147">
        <ele>775.79998779297</ele>
        <time>2019-11-10T10:04:53.000Z</time>
      </trkpt>
      <trkpt lat="47.85435" lon="7.15147">
        <ele>776.20001220703</ele>
        <time>2019-11-10T10:04:54.000Z</time>
      </trkpt>
      <trkpt lat="47.85435" lon="7.15147">
        <ele>776.79998779297</ele>
        <time>2019-11-10T10:04:55.000Z</time>
      </trkpt>
      <trkpt lat="47.85439" lon="7.15144">
        <ele>777.20001220703</ele>
        <time>2019-11-10T10:04:57.000Z</time>
      </trkpt>
      <trkpt lat="47.8544" lon="7.15143">
        <ele>777.59997558594</ele>
        <time>2019-11-10T10:04:58.000Z</time>
      </trkpt>
      <trkpt lat="47.85441" lon="7.15142">
        <ele>778</ele>
        <time>2019-11-10T10:04:59.000Z</time>
      </trkpt>
      <trkpt lat="47.85442" lon="7.15141">
        <ele>778.40002441406</ele>
        <time>2019-11-10T10:05:00.000Z</time>
      </trkpt>
      <trkpt lat="47.85442" lon="7.1514">
        <ele>779</ele>
        <time>2019-11-10T10:05:01.000Z</time>
      </trkpt>
      <trkpt lat="47.85447" lon="7.15131">
        <ele>779.40002441406</ele>
        <time>2019-11-10T10:05:05.000Z</time>
      </trkpt>
      <trkpt lat="47.85448" lon="7.15128">
        <ele>779.79998779297</ele>
        <time>2019-11-10T10:05:06.000Z</time>
      </trkpt>
      <trkpt lat="47.85449" lon="7.15124">
        <ele>780.20001220703</ele>
        <time>2019-11-10T10:05:07.000Z</time>
      </trkpt>
      <trkpt lat="47.85449" lon="7.1512">
        <ele>780.59997558594</ele>
        <time>2019-11-10T10:05:08.000Z</time>
      </trkpt>
      <trkpt lat="47.85449" lon="7.15117">
        <ele>781</ele>
        <time>2019-11-10T10:05:09.000Z</time>
      </trkpt>
      <trkpt lat="47.8545" lon="7.15115">
        <ele>781</ele>
        <time>2019-11-10T10:05:10.000Z</time>
      </trkpt>
      <trkpt lat="47.8545" lon="7.15107">
        <ele>781.40002441406</ele>
        <time>2019-11-10T10:05:13.000Z</time>
      </trkpt>
      <trkpt lat="47.85449" lon="7.15105">
        <ele>781.79998779297</ele>
        <time>2019-11-10T10:05:14.000Z</time>
      </trkpt>
      <trkpt lat="47.8545" lon="7.15102">
        <ele>782.20001220703</ele>
        <time>2019-11-10T10:05:15.000Z</time>
      </trkpt>
      <trkpt lat="47.85451" lon="7.15099">
        <ele>782.59997558594</ele>
        <time>2019-11-10T10:05:16.000Z</time>
      </trkpt>
      <trkpt lat="47.85451" lon="7.15096">
        <ele>783.20001220703</ele>
        <time>2019-11-10T10:05:17.000Z</time>
      </trkpt>
      <trkpt lat="47.85453" lon="7.15088">
        <ele>783.20001220703</ele>
        <time>2019-11-10T10:05:21.000Z</time>
      </trkpt>
      <trkpt lat="47.85453" lon="7.15086">
        <ele>783.20001220703</ele>
        <time>2019-11-10T10:05:22.000Z</time>
      </trkpt>
      <trkpt lat="47.85453" lon="7.15076">
        <ele>783.59997558594</ele>
        <time>2019-11-10T10:05:26.000Z</time>
      </trkpt>
      <trkpt lat="47.85454" lon="7.15073">
        <ele>784</ele>
        <time>2019-11-10T10:05:27.000Z</time>
      </trkpt>
      <trkpt lat="47.85454" lon="7.1507">
        <ele>784.40002441406</ele>
        <time>2019-11-10T10:05:28.000Z</time>
      </trkpt>
      <trkpt lat="47.85455" lon="7.15067">
        <ele>784.79998779297</ele>
        <time>2019-11-10T10:05:29.000Z</time>
      </trkpt>
      <trkpt lat="47.85455" lon="7.15065">
        <ele>785.20001220703</ele>
        <time>2019-11-10T10:05:30.000Z</time>
      </trkpt>
      <trkpt lat="47.85458" lon="7.15057">
        <ele>785.59997558594</ele>
        <time>2019-11-10T10:05:34.000Z</time>
      </trkpt>
      <trkpt lat="47.85458" lon="7.15056">
        <ele>786</ele>
        <time>2019-11-10T10:05:35.000Z</time>
      </trkpt>
      <trkpt lat="47.85459" lon="7.15054">
        <ele>787</ele>
        <time>2019-11-10T10:05:36.000Z</time>
      </trkpt>
      <trkpt lat="47.8546" lon="7.15051">
        <ele>787.40002441406</ele>
        <time>2019-11-10T10:05:37.000Z</time>
      </trkpt>
      <trkpt lat="47.85461" lon="7.15047">
        <ele>787.79998779297</ele>
        <time>2019-11-10T10:05:39.000Z</time>
      </trkpt>
      <trkpt lat="47.85462" lon="7.15045">
        <ele>788.20001220703</ele>
        <time>2019-11-10T10:05:40.000Z</time>
      </trkpt>
      <trkpt lat="47.85462" lon="7.15041">
        <ele>788.79998779297</ele>
        <time>2019-11-10T10:05:41.000Z</time>
      </trkpt>
      <trkpt lat="47.85463" lon="7.15039">
        <ele>789.20001220703</ele>
        <time>2019-11-10T10:05:42.000Z</time>
      </trkpt>
      <trkpt lat="47.85464" lon="7.15036">
        <ele>789.59997558594</ele>
        <time>2019-11-10T10:05:43.000Z</time>
      </trkpt>
      <trkpt lat="47.85466" lon="7.1503">
        <ele>789.59997558594</ele>
        <time>2019-11-10T10:05:45.000Z</time>
      </trkpt>
      <trkpt lat="47.85469" lon="7.1502">
        <ele>790</ele>
        <time>2019-11-10T10:05:48.000Z</time>
      </trkpt>
      <trkpt lat="47.85469" lon="7.15017">
        <ele>790.40002441406</ele>
        <time>2019-11-10T10:05:49.000Z</time>
      </trkpt>
      <trkpt lat="47.8547" lon="7.15013">
        <ele>790.79998779297</ele>
        <time>2019-11-10T10:05:50.000Z</time>
      </trkpt>
      <trkpt lat="47.8547" lon="7.15013">
        <ele>791.20001220703</ele>
        <time>2019-11-10T10:05:51.000Z</time>
      </trkpt>
      <trkpt lat="47.85471" lon="7.15011">
        <ele>791.79998779297</ele>
        <time>2019-11-10T10:05:52.000Z</time>
      </trkpt>
      <trkpt lat="47.85473" lon="7.15">
        <ele>791.79998779297</ele>
        <time>2019-11-10T10:05:56.000Z</time>
      </trkpt>
      <trkpt lat="47.85474" lon="7.14997">
        <ele>792.20001220703</ele>
        <time>2019-11-10T10:05:57.000Z</time>
      </trkpt>
      <trkpt lat="47.85474" lon="7.14994">
        <ele>792.59997558594</ele>
        <time>2019-11-10T10:05:58.000Z</time>
      </trkpt>
      <trkpt lat="47.85475" lon="7.14992">
        <ele>793</ele>
        <time>2019-11-10T10:05:59.000Z</time>
      </trkpt>
      <trkpt lat="47.85475" lon="7.1499">
        <ele>793.40002441406</ele>
        <time>2019-11-10T10:06:00.000Z</time>
      </trkpt>
      <trkpt lat="47.85476" lon="7.14988">
        <ele>793.79998779297</ele>
        <time>2019-11-10T10:06:01.000Z</time>
      </trkpt>
      <trkpt lat="47.85476" lon="7.14985">
        <ele>793.79998779297</ele>
        <time>2019-11-10T10:06:02.000Z</time>
      </trkpt>
      <trkpt lat="47.85477" lon="7.14979">
        <ele>794.20001220703</ele>
        <time>2019-11-10T10:06:05.000Z</time>
      </trkpt>
      <trkpt lat="47.85478" lon="7.14977">
        <ele>794.59997558594</ele>
        <time>2019-11-10T10:06:06.000Z</time>
      </trkpt>
      <trkpt lat="47.85478" lon="7.14974">
        <ele>795</ele>
        <time>2019-11-10T10:06:07.000Z</time>
      </trkpt>
      <trkpt lat="47.85479" lon="7.14973">
        <ele>795.59997558594</ele>
        <time>2019-11-10T10:06:08.000Z</time>
      </trkpt>
      <trkpt lat="47.85479" lon="7.14971">
        <ele>796</ele>
        <time>2019-11-10T10:06:09.000Z</time>
      </trkpt>
      <trkpt lat="47.85477" lon="7.14965">
        <ele>796</ele>
        <time>2019-11-10T10:06:12.000Z</time>
      </trkpt>
      <trkpt lat="47.85475" lon="7.14963">
        <ele>796.40002441406</ele>
        <time>2019-11-10T10:06:13.000Z</time>
      </trkpt>
      <trkpt lat="47.85474" lon="7.14961">
        <ele>796.79998779297</ele>
        <time>2019-11-10T10:06:14.000Z</time>
      </trkpt>
      <trkpt lat="47.85474" lon="7.14959">
        <ele>797.20001220703</ele>
        <time>2019-11-10T10:06:15.000Z</time>
      </trkpt>
      <trkpt lat="47.85473" lon="7.14958">
        <ele>797.59997558594</ele>
        <time>2019-11-10T10:06:16.000Z</time>
      </trkpt>
      <trkpt lat="47.85471" lon="7.14956">
        <ele>798</ele>
        <time>2019-11-10T10:06:17.000Z</time>
      </trkpt>
      <trkpt lat="47.8547" lon="7.1495">
        <ele>798</ele>
        <time>2019-11-10T10:06:20.000Z</time>
      </trkpt>
      <trkpt lat="47.85468" lon="7.14946">
        <ele>798.59997558594</ele>
        <time>2019-11-10T10:06:22.000Z</time>
      </trkpt>
      <trkpt lat="47.85468" lon="7.14943">
        <ele>799</ele>
        <time>2019-11-10T10:06:23.000Z</time>
      </trkpt>
      <trkpt lat="47.85468" lon="7.14939">
        <ele>799.40002441406</ele>
        <time>2019-11-10T10:06:24.000Z</time>
      </trkpt>
      <trkpt lat="47.85467" lon="7.14936">
        <ele>800.20001220703</ele>
        <time>2019-11-10T10:06:25.000Z</time>
      </trkpt>
      <trkpt lat="47.85466" lon="7.14933">
        <ele>800.20001220703</ele>
        <time>2019-11-10T10:06:26.000Z</time>
      </trkpt>
      <trkpt lat="47.85465" lon="7.1493">
        <ele>800.20001220703</ele>
        <time>2019-11-10T10:06:27.000Z</time>
      </trkpt>
      <trkpt lat="47.85459" lon="7.14913">
        <ele>800.20001220703</ele>
        <time>2019-11-10T10:06:32.000Z</time>
      </trkpt>
      <trkpt lat="47.85458" lon="7.14906">
        <ele>800.59997558594</ele>
        <time>2019-11-10T10:06:34.000Z</time>
      </trkpt>
      <trkpt lat="47.85458" lon="7.14902">
        <ele>801</ele>
        <time>2019-11-10T10:06:35.000Z</time>
      </trkpt>
      <trkpt lat="47.85458" lon="7.14899">
        <ele>801.40002441406</ele>
        <time>2019-11-10T10:06:36.000Z</time>
      </trkpt>
      <trkpt lat="47.85457" lon="7.14897">
        <ele>801.79998779297</ele>
        <time>2019-11-10T10:06:37.000Z</time>
      </trkpt>
      <trkpt lat="47.85458" lon="7.14894">
        <ele>802.20001220703</ele>
        <time>2019-11-10T10:06:38.000Z</time>
      </trkpt>
      <trkpt lat="47.85457" lon="7.14891">
        <ele>802.20001220703</ele>
        <time>2019-11-10T10:06:39.000Z</time>
      </trkpt>
      <trkpt lat="47.85458" lon="7.14878">
        <ele>802.59997558594</ele>
        <time>2019-11-10T10:06:43.000Z</time>
      </trkpt>
      <trkpt lat="47.85459" lon="7.14876">
        <ele>803</ele>
        <time>2019-11-10T10:06:44.000Z</time>
      </trkpt>
      <trkpt lat="47.8546" lon="7.14872">
        <ele>803.40002441406</ele>
        <time>2019-11-10T10:06:45.000Z</time>
      </trkpt>
      <trkpt lat="47.8546" lon="7.14869">
        <ele>804</ele>
        <time>2019-11-10T10:06:46.000Z</time>
      </trkpt>
      <trkpt lat="47.8546" lon="7.14866">
        <ele>804.40002441406</ele>
        <time>2019-11-10T10:06:47.000Z</time>
      </trkpt>
      <trkpt lat="47.8546" lon="7.14858">
        <ele>804.79998779297</ele>
        <time>2019-11-10T10:06:50.000Z</time>
      </trkpt>
      <trkpt lat="47.8546" lon="7.14855">
        <ele>805.20001220703</ele>
        <time>2019-11-10T10:06:51.000Z</time>
      </trkpt>
      <trkpt lat="47.8546" lon="7.14852">
        <ele>805.59997558594</ele>
        <time>2019-11-10T10:06:52.000Z</time>
      </trkpt>
      <trkpt lat="47.8546" lon="7.14849">
        <ele>806</ele>
        <time>2019-11-10T10:06:53.000Z</time>
      </trkpt>
      <trkpt lat="47.85459" lon="7.14846">
        <ele>806.40002441406</ele>
        <time>2019-11-10T10:06:54.000Z</time>
      </trkpt>
      <trkpt lat="47.85459" lon="7.14833">
        <ele>806.40002441406</ele>
        <time>2019-11-10T10:06:58.000Z</time>
      </trkpt>
      <trkpt lat="47.8546" lon="7.14826">
        <ele>806.79998779297</ele>
        <time>2019-11-10T10:07:00.000Z</time>
      </trkpt>
      <trkpt lat="47.85461" lon="7.14823">
        <ele>807.20001220703</ele>
        <time>2019-11-10T10:07:01.000Z</time>
      </trkpt>
      <trkpt lat="47.85461" lon="7.1482">
        <ele>807.59997558594</ele>
        <time>2019-11-10T10:07:02.000Z</time>
      </trkpt>
      <trkpt lat="47.8546" lon="7.14816">
        <ele>808</ele>
        <time>2019-11-10T10:07:03.000Z</time>
      </trkpt>
      <trkpt lat="47.8546" lon="7.14813">
        <ele>808.40002441406</ele>
        <time>2019-11-10T10:07:04.000Z</time>
      </trkpt>
      <trkpt lat="47.8546" lon="7.14801">
        <ele>808.79998779297</ele>
        <time>2019-11-10T10:07:09.000Z</time>
      </trkpt>
      <trkpt lat="47.8546" lon="7.14798">
        <ele>809.20001220703</ele>
        <time>2019-11-10T10:07:10.000Z</time>
      </trkpt>
      <trkpt lat="47.85461" lon="7.14795">
        <ele>809.59997558594</ele>
        <time>2019-11-10T10:07:11.000Z</time>
      </trkpt>
      <trkpt lat="47.85461" lon="7.14791">
        <ele>810</ele>
        <time>2019-11-10T10:07:12.000Z</time>
      </trkpt>
      <trkpt lat="47.85461" lon="7.14787">
        <ele>810.40002441406</ele>
        <time>2019-11-10T10:07:13.000Z</time>
      </trkpt>
      <trkpt lat="47.85459" lon="7.1478">
        <ele>810.40002441406</ele>
        <time>2019-11-10T10:07:15.000Z</time>
      </trkpt>
      <trkpt lat="47.85457" lon="7.14766">
        <ele>810.79998779297</ele>
        <time>2019-11-10T10:07:19.000Z</time>
      </trkpt>
      <trkpt lat="47.85457" lon="7.14763">
        <ele>811.20001220703</ele>
        <time>2019-11-10T10:07:20.000Z</time>
      </trkpt>
      <trkpt lat="47.85457" lon="7.1476">
        <ele>811.59997558594</ele>
        <time>2019-11-10T10:07:21.000Z</time>
      </trkpt>
      <trkpt lat="47.85457" lon="7.14757">
        <ele>812.20001220703</ele>
        <time>2019-11-10T10:07:22.000Z</time>
      </trkpt>
      <trkpt lat="47.85457" lon="7.14754">
        <ele>812.59997558594</ele>
        <time>2019-11-10T10:07:23.000Z</time>
      </trkpt>
      <trkpt lat="47.85456" lon="7.14745">
        <ele>812.59997558594</ele>
        <time>2019-11-10T10:07:26.000Z</time>
      </trkpt>
      <trkpt lat="47.85457" lon="7.14735">
        <ele>813</ele>
        <time>2019-11-10T10:07:29.000Z</time>
      </trkpt>
      <trkpt lat="47.85456" lon="7.14732">
        <ele>813.40002441406</ele>
        <time>2019-11-10T10:07:30.000Z</time>
      </trkpt>
      <trkpt lat="47.85456" lon="7.14728">
        <ele>813.79998779297</ele>
        <time>2019-11-10T10:07:31.000Z</time>
      </trkpt>
      <trkpt lat="47.85455" lon="7.14725">
        <ele>814.20001220703</ele>
        <time>2019-11-10T10:07:32.000Z</time>
      </trkpt>
      <trkpt lat="47.85455" lon="7.14722">
        <ele>814.59997558594</ele>
        <time>2019-11-10T10:07:33.000Z</time>
      </trkpt>
      <trkpt lat="47.85454" lon="7.14708">
        <ele>814.59997558594</ele>
        <time>2019-11-10T10:07:38.000Z</time>
      </trkpt>
      <trkpt lat="47.85454" lon="7.14701">
        <ele>815</ele>
        <time>2019-11-10T10:07:40.000Z</time>
      </trkpt>
      <trkpt lat="47.85453" lon="7.14699">
        <ele>815.59997558594</ele>
        <time>2019-11-10T10:07:41.000Z</time>
      </trkpt>
      <trkpt lat="47.85453" lon="7.14696">
        <ele>816</ele>
        <time>2019-11-10T10:07:42.000Z</time>
      </trkpt>
      <trkpt lat="47.85454" lon="7.14693">
        <ele>816.40002441406</ele>
        <time>2019-11-10T10:07:43.000Z</time>
      </trkpt>
      <trkpt lat="47.85454" lon="7.14689">
        <ele>816.79998779297</ele>
        <time>2019-11-10T10:07:44.000Z</time>
      </trkpt>
      <trkpt lat="47.85452" lon="7.14672">
        <ele>816.79998779297</ele>
        <time>2019-11-10T10:07:49.000Z</time>
      </trkpt>
      <trkpt lat="47.85449" lon="7.14653">
        <ele>816.79998779297</ele>
        <time>2019-11-10T10:07:54.000Z</time>
      </trkpt>
      <trkpt lat="47.8545" lon="7.14629">
        <ele>816.79998779297</ele>
        <time>2019-11-10T10:08:00.000Z</time>
      </trkpt>
      <trkpt lat="47.85452" lon="7.14621">
        <ele>817.20001220703</ele>
        <time>2019-11-10T10:08:03.000Z</time>
      </trkpt>
      <trkpt lat="47.85452" lon="7.14619">
        <ele>818</ele>
        <time>2019-11-10T10:08:04.000Z</time>
      </trkpt>
      <trkpt lat="47.85452" lon="7.14615">
        <ele>818.59997558594</ele>
        <time>2019-11-10T10:08:05.000Z</time>
      </trkpt>
      <trkpt lat="47.85451" lon="7.14613">
        <ele>819</ele>
        <time>2019-11-10T10:08:06.000Z</time>
      </trkpt>
      <trkpt lat="47.85449" lon="7.14603">
        <ele>819</ele>
        <time>2019-11-10T10:08:09.000Z</time>
      </trkpt>
      <trkpt lat="47.85447" lon="7.14602">
        <ele>819</ele>
        <time>2019-11-10T10:08:10.000Z</time>
      </trkpt>
      <trkpt lat="47.85446" lon="7.14596">
        <ele>819</ele>
        <time>2019-11-10T10:08:12.000Z</time>
      </trkpt>
      <trkpt lat="47.85441" lon="7.14579">
        <ele>819</ele>
        <time>2019-11-10T10:08:17.000Z</time>
      </trkpt>
      <trkpt lat="47.85437" lon="7.14569">
        <ele>819</ele>
        <time>2019-11-10T10:08:21.000Z</time>
      </trkpt>
      <trkpt lat="47.85428" lon="7.14554">
        <ele>819</ele>
        <time>2019-11-10T10:08:26.000Z</time>
      </trkpt>
      <trkpt lat="47.85419" lon="7.14527">
        <ele>819</ele>
        <time>2019-11-10T10:08:32.000Z</time>
      </trkpt>
      <trkpt lat="47.85412" lon="7.14507">
        <ele>819</ele>
        <time>2019-11-10T10:08:37.000Z</time>
      </trkpt>
      <trkpt lat="47.85406" lon="7.14487">
        <ele>819</ele>
        <time>2019-11-10T10:08:41.000Z</time>
      </trkpt>
      <trkpt lat="47.85398" lon="7.14478">
        <ele>819</ele>
        <time>2019-11-10T10:08:44.000Z</time>
      </trkpt>
      <trkpt lat="47.85395" lon="7.14477">
        <ele>819</ele>
        <time>2019-11-10T10:08:45.000Z</time>
      </trkpt>
      <trkpt lat="47.85384" lon="7.14478">
        <ele>819</ele>
        <time>2019-11-10T10:08:49.000Z</time>
      </trkpt>
      <trkpt lat="47.8537" lon="7.14485">
        <ele>819</ele>
        <time>2019-11-10T10:08:54.000Z</time>
      </trkpt>
      <trkpt lat="47.85357" lon="7.14496">
        <ele>819.40002441406</ele>
        <time>2019-11-10T10:08:59.000Z</time>
      </trkpt>
      <trkpt lat="47.85355" lon="7.14498">
        <ele>819.79998779297</ele>
        <time>2019-11-10T10:09:00.000Z</time>
      </trkpt>
      <trkpt lat="47.85351" lon="7.14498">
        <ele>820.20001220703</ele>
        <time>2019-11-10T10:09:01.000Z</time>
      </trkpt>
      <trkpt lat="47.85348" lon="7.14499">
        <ele>820.59997558594</ele>
        <time>2019-11-10T10:09:02.000Z</time>
      </trkpt>
      <trkpt lat="47.85345" lon="7.14501">
        <ele>821</ele>
        <time>2019-11-10T10:09:03.000Z</time>
      </trkpt>
      <trkpt lat="47.85341" lon="7.14503">
        <ele>821</ele>
        <time>2019-11-10T10:09:04.000Z</time>
      </trkpt>
      <trkpt lat="47.85325" lon="7.14513">
        <ele>821</ele>
        <time>2019-11-10T10:09:09.000Z</time>
      </trkpt>
      <trkpt lat="47.85307" lon="7.14527">
        <ele>821</ele>
        <time>2019-11-10T10:09:16.000Z</time>
      </trkpt>
      <trkpt lat="47.85305" lon="7.14528">
        <ele>821.40002441406</ele>
        <time>2019-11-10T10:09:17.000Z</time>
      </trkpt>
      <trkpt lat="47.85302" lon="7.1453">
        <ele>821.79998779297</ele>
        <time>2019-11-10T10:09:18.000Z</time>
      </trkpt>
      <trkpt lat="47.853" lon="7.14531">
        <ele>822.59997558594</ele>
        <time>2019-11-10T10:09:19.000Z</time>
      </trkpt>
      <trkpt lat="47.85297" lon="7.14532">
        <ele>823</ele>
        <time>2019-11-10T10:09:20.000Z</time>
      </trkpt>
      <trkpt lat="47.85291" lon="7.14535">
        <ele>823</ele>
        <time>2019-11-10T10:09:22.000Z</time>
      </trkpt>
      <trkpt lat="47.85283" lon="7.14541">
        <ele>823.40002441406</ele>
        <time>2019-11-10T10:09:25.000Z</time>
      </trkpt>
      <trkpt lat="47.8528" lon="7.14543">
        <ele>824</ele>
        <time>2019-11-10T10:09:26.000Z</time>
      </trkpt>
      <trkpt lat="47.85278" lon="7.14545">
        <ele>824.40002441406</ele>
        <time>2019-11-10T10:09:27.000Z</time>
      </trkpt>
      <trkpt lat="47.85275" lon="7.14546">
        <ele>824.79998779297</ele>
        <time>2019-11-10T10:09:28.000Z</time>
      </trkpt>
      <trkpt lat="47.85273" lon="7.14548">
        <ele>825.20001220703</ele>
        <time>2019-11-10T10:09:29.000Z</time>
      </trkpt>
      <trkpt lat="47.85262" lon="7.14557">
        <ele>825.79998779297</ele>
        <time>2019-11-10T10:09:34.000Z</time>
      </trkpt>
      <trkpt lat="47.8526" lon="7.14559">
        <ele>826.20001220703</ele>
        <time>2019-11-10T10:09:35.000Z</time>
      </trkpt>
      <trkpt lat="47.85258" lon="7.1456">
        <ele>826.59997558594</ele>
        <time>2019-11-10T10:09:36.000Z</time>
      </trkpt>
      <trkpt lat="47.85257" lon="7.14562">
        <ele>827</ele>
        <time>2019-11-10T10:09:37.000Z</time>
      </trkpt>
      <trkpt lat="47.85255" lon="7.14563">
        <ele>827.40002441406</ele>
        <time>2019-11-10T10:09:38.000Z</time>
      </trkpt>
      <trkpt lat="47.85253" lon="7.14566">
        <ele>827.40002441406</ele>
        <time>2019-11-10T10:09:40.000Z</time>
      </trkpt>
      <trkpt lat="47.8525" lon="7.14571">
        <ele>828.20001220703</ele>
        <time>2019-11-10T10:09:43.000Z</time>
      </trkpt>
      <trkpt lat="47.8525" lon="7.14572">
        <ele>828.59997558594</ele>
        <time>2019-11-10T10:09:44.000Z</time>
      </trkpt>
      <trkpt lat="47.8523" lon="7.14586">
        <ele>831.59997558594</ele>
        <time>2019-11-10T10:11:20.000Z</time>
      </trkpt>
      <trkpt lat="47.85227" lon="7.14588">
        <ele>831.59997558594</ele>
        <time>2019-11-10T10:11:21.000Z</time>
      </trkpt>
      <trkpt lat="47.85212" lon="7.146">
        <ele>831.59997558594</ele>
        <time>2019-11-10T10:11:26.000Z</time>
      </trkpt>
      <trkpt lat="47.85192" lon="7.14621">
        <ele>831.59997558594</ele>
        <time>2019-11-10T10:11:31.000Z</time>
      </trkpt>
      <trkpt lat="47.85188" lon="7.14626">
        <ele>831</ele>
        <time>2019-11-10T10:11:32.000Z</time>
      </trkpt>
      <trkpt lat="47.85183" lon="7.14631">
        <ele>830.59997558594</ele>
        <time>2019-11-10T10:11:33.000Z</time>
      </trkpt>
      <trkpt lat="47.85178" lon="7.14638">
        <ele>830.20001220703</ele>
        <time>2019-11-10T10:11:34.000Z</time>
      </trkpt>
      <trkpt lat="47.85173" lon="7.14643">
        <ele>829.59997558594</ele>
        <time>2019-11-10T10:11:35.000Z</time>
      </trkpt>
      <trkpt lat="47.85167" lon="7.14648">
        <ele>829.20001220703</ele>
        <time>2019-11-10T10:11:36.000Z</time>
      </trkpt>
      <trkpt lat="47.85156" lon="7.14659">
        <ele>828.79998779297</ele>
        <time>2019-11-10T10:11:38.000Z</time>
      </trkpt>
      <trkpt lat="47.85151" lon="7.14666">
        <ele>828.40002441406</ele>
        <time>2019-11-10T10:11:39.000Z</time>
      </trkpt>
      <trkpt lat="47.85145" lon="7.14672">
        <ele>827.79998779297</ele>
        <time>2019-11-10T10:11:40.000Z</time>
      </trkpt>
      <trkpt lat="47.8514" lon="7.14679">
        <ele>827.40002441406</ele>
        <time>2019-11-10T10:11:41.000Z</time>
      </trkpt>
      <trkpt lat="47.85134" lon="7.14686">
        <ele>827</ele>
        <time>2019-11-10T10:11:42.000Z</time>
      </trkpt>
      <trkpt lat="47.85128" lon="7.14693">
        <ele>826.59997558594</ele>
        <time>2019-11-10T10:11:43.000Z</time>
      </trkpt>
      <trkpt lat="47.85121" lon="7.147">
        <ele>826</ele>
        <time>2019-11-10T10:11:44.000Z</time>
      </trkpt>
      <trkpt lat="47.85115" lon="7.14707">
        <ele>825.59997558594</ele>
        <time>2019-11-10T10:11:45.000Z</time>
      </trkpt>
      <trkpt lat="47.85108" lon="7.14714">
        <ele>825.20001220703</ele>
        <time>2019-11-10T10:11:46.000Z</time>
      </trkpt>
      <trkpt lat="47.85101" lon="7.14722">
        <ele>824</ele>
        <time>2019-11-10T10:11:47.000Z</time>
      </trkpt>
      <trkpt lat="47.85094" lon="7.14728">
        <ele>823.40002441406</ele>
        <time>2019-11-10T10:11:48.000Z</time>
      </trkpt>
      <trkpt lat="47.85087" lon="7.14735">
        <ele>822.79998779297</ele>
        <time>2019-11-10T10:11:49.000Z</time>
      </trkpt>
      <trkpt lat="47.85079" lon="7.1474">
        <ele>822.40002441406</ele>
        <time>2019-11-10T10:11:50.000Z</time>
      </trkpt>
      <trkpt lat="47.85071" lon="7.14746">
        <ele>821.79998779297</ele>
        <time>2019-11-10T10:11:51.000Z</time>
      </trkpt>
      <trkpt lat="47.85063" lon="7.14751">
        <ele>821.20001220703</ele>
        <time>2019-11-10T10:11:52.000Z</time>
      </trkpt>
      <trkpt lat="47.85055" lon="7.14756">
        <ele>820.79998779297</ele>
        <time>2019-11-10T10:11:53.000Z</time>
      </trkpt>
      <trkpt lat="47.85047" lon="7.14761">
        <ele>820.20001220703</ele>
        <time>2019-11-10T10:11:54.000Z</time>
      </trkpt>
      <trkpt lat="47.85039" lon="7.14767">
        <ele>819.79998779297</ele>
        <time>2019-11-10T10:11:55.000Z</time>
      </trkpt>
      <trkpt lat="47.8503" lon="7.14772">
        <ele>819.20001220703</ele>
        <time>2019-11-10T10:11:56.000Z</time>
      </trkpt>
      <trkpt lat="47.85022" lon="7.14777">
        <ele>818.79998779297</ele>
        <time>2019-11-10T10:11:57.000Z</time>
      </trkpt>
      <trkpt lat="47.85013" lon="7.14783">
        <ele>818.20001220703</ele>
        <time>2019-11-10T10:11:58.000Z</time>
      </trkpt>
      <trkpt lat="47.85004" lon="7.14788">
        <ele>817.59997558594</ele>
        <time>2019-11-10T10:11:59.000Z</time>
      </trkpt>
      <trkpt lat="47.84995" lon="7.14793">
        <ele>817.20001220703</ele>
        <time>2019-11-10T10:12:00.000Z</time>
      </trkpt>
      <trkpt lat="47.84987" lon="7.14798">
        <ele>816.59997558594</ele>
        <time>2019-11-10T10:12:01.000Z</time>
      </trkpt>
      <trkpt lat="47.84978" lon="7.14803">
        <ele>816</ele>
        <time>2019-11-10T10:12:02.000Z</time>
      </trkpt>
      <trkpt lat="47.84969" lon="7.14807">
        <ele>815.40002441406</ele>
        <time>2019-11-10T10:12:03.000Z</time>
      </trkpt>
      <trkpt lat="47.8496" lon="7.14808">
        <ele>814.79998779297</ele>
        <time>2019-11-10T10:12:04.000Z</time>
      </trkpt>
      <trkpt lat="47.8495" lon="7.14806">
        <ele>814</ele>
        <time>2019-11-10T10:12:05.000Z</time>
      </trkpt>
      <trkpt lat="47.84942" lon="7.14801">
        <ele>813.40002441406</ele>
        <time>2019-11-10T10:12:06.000Z</time>
      </trkpt>
      <trkpt lat="47.84936" lon="7.14794">
        <ele>813.40002441406</ele>
        <time>2019-11-10T10:12:07.000Z</time>
      </trkpt>
      <trkpt lat="47.84928" lon="7.14759">
        <ele>813.40002441406</ele>
        <time>2019-11-10T10:12:10.000Z</time>
      </trkpt>
      <trkpt lat="47.84926" lon="7.14734">
        <ele>813.40002441406</ele>
        <time>2019-11-10T10:12:12.000Z</time>
      </trkpt>
      <trkpt lat="47.84925" lon="7.14722">
        <ele>813.40002441406</ele>
        <time>2019-11-10T10:12:13.000Z</time>
      </trkpt>
      <trkpt lat="47.8492" lon="7.14702">
        <ele>813.40002441406</ele>
        <time>2019-11-10T10:12:15.000Z</time>
      </trkpt>
      <trkpt lat="47.8491" lon="7.14676">
        <ele>813.40002441406</ele>
        <time>2019-11-10T10:12:18.000Z</time>
      </trkpt>
      <trkpt lat="47.84906" lon="7.14669">
        <ele>813.40002441406</ele>
        <time>2019-11-10T10:12:19.000Z</time>
      </trkpt>
      <trkpt lat="47.84879" lon="7.14629">
        <ele>813.40002441406</ele>
        <time>2019-11-10T10:12:25.000Z</time>
      </trkpt>
      <trkpt lat="47.84852" lon="7.14596">
        <ele>813.40002441406</ele>
        <time>2019-11-10T10:12:31.000Z</time>
      </trkpt>
      <trkpt lat="47.84827" lon="7.14564">
        <ele>813.40002441406</ele>
        <time>2019-11-10T10:12:37.000Z</time>
      </trkpt>
      <trkpt lat="47.848" lon="7.14535">
        <ele>813.40002441406</ele>
        <time>2019-11-10T10:12:44.000Z</time>
      </trkpt>
      <trkpt lat="47.84779" lon="7.14515">
        <ele>813.79998779297</ele>
        <time>2019-11-10T10:12:49.000Z</time>
      </trkpt>
      <trkpt lat="47.84776" lon="7.14511">
        <ele>814.40002441406</ele>
        <time>2019-11-10T10:12:50.000Z</time>
      </trkpt>
      <trkpt lat="47.84772" lon="7.14507">
        <ele>814.79998779297</ele>
        <time>2019-11-10T10:12:51.000Z</time>
      </trkpt>
      <trkpt lat="47.84769" lon="7.14503">
        <ele>815.20001220703</ele>
        <time>2019-11-10T10:12:52.000Z</time>
      </trkpt>
      <trkpt lat="47.84765" lon="7.14499">
        <ele>815.59997558594</ele>
        <time>2019-11-10T10:12:53.000Z</time>
      </trkpt>
      <trkpt lat="47.84752" lon="7.14484">
        <ele>816</ele>
        <time>2019-11-10T10:12:57.000Z</time>
      </trkpt>
      <trkpt lat="47.84749" lon="7.1448">
        <ele>816.40002441406</ele>
        <time>2019-11-10T10:12:58.000Z</time>
      </trkpt>
      <trkpt lat="47.84747" lon="7.14475">
        <ele>816.79998779297</ele>
        <time>2019-11-10T10:12:59.000Z</time>
      </trkpt>
      <trkpt lat="47.84744" lon="7.14471">
        <ele>817.20001220703</ele>
        <time>2019-11-10T10:13:00.000Z</time>
      </trkpt>
      <trkpt lat="47.84741" lon="7.14466">
        <ele>817.59997558594</ele>
        <time>2019-11-10T10:13:01.000Z</time>
      </trkpt>
      <trkpt lat="47.84735" lon="7.14458">
        <ele>817.59997558594</ele>
        <time>2019-11-10T10:13:03.000Z</time>
      </trkpt>
      <trkpt lat="47.84727" lon="7.14446">
        <ele>818</ele>
        <time>2019-11-10T10:13:06.000Z</time>
      </trkpt>
      <trkpt lat="47.84724" lon="7.14442">
        <ele>818.40002441406</ele>
        <time>2019-11-10T10:13:07.000Z</time>
      </trkpt>
      <trkpt lat="47.84722" lon="7.14437">
        <ele>818.79998779297</ele>
        <time>2019-11-10T10:13:08.000Z</time>
      </trkpt>
      <trkpt lat="47.84719" lon="7.14433">
        <ele>819.20001220703</ele>
        <time>2019-11-10T10:13:09.000Z</time>
      </trkpt>
      <trkpt lat="47.84716" lon="7.14429">
        <ele>819.59997558594</ele>
        <time>2019-11-10T10:13:10.000Z</time>
      </trkpt>
      <trkpt lat="47.84706" lon="7.14413">
        <ele>820.20001220703</ele>
        <time>2019-11-10T10:13:14.000Z</time>
      </trkpt>
      <trkpt lat="47.84703" lon="7.14408">
        <ele>820.59997558594</ele>
        <time>2019-11-10T10:13:15.000Z</time>
      </trkpt>
      <trkpt lat="47.84701" lon="7.14404">
        <ele>821</ele>
        <time>2019-11-10T10:13:16.000Z</time>
      </trkpt>
      <trkpt lat="47.84699" lon="7.14399">
        <ele>821.59997558594</ele>
        <time>2019-11-10T10:13:17.000Z</time>
      </trkpt>
      <trkpt lat="47.84697" lon="7.14393">
        <ele>822</ele>
        <time>2019-11-10T10:13:18.000Z</time>
      </trkpt>
      <trkpt lat="47.84693" lon="7.14384">
        <ele>822</ele>
        <time>2019-11-10T10:13:20.000Z</time>
      </trkpt>
      <trkpt lat="47.84688" lon="7.14366">
        <ele>822.40002441406</ele>
        <time>2019-11-10T10:13:24.000Z</time>
      </trkpt>
      <trkpt lat="47.84687" lon="7.14361">
        <ele>822.79998779297</ele>
        <time>2019-11-10T10:13:25.000Z</time>
      </trkpt>
      <trkpt lat="47.84685" lon="7.14356">
        <ele>823.59997558594</ele>
        <time>2019-11-10T10:13:26.000Z</time>
      </trkpt>
      <trkpt lat="47.84683" lon="7.1435">
        <ele>824</ele>
        <time>2019-11-10T10:13:27.000Z</time>
      </trkpt>
      <trkpt lat="47.84673" lon="7.14334">
        <ele>824</ele>
        <time>2019-11-10T10:13:31.000Z</time>
      </trkpt>
      <trkpt lat="47.84656" lon="7.14326">
        <ele>824.59997558594</ele>
        <time>2019-11-10T10:13:36.000Z</time>
      </trkpt>
      <trkpt lat="47.84652" lon="7.14326">
        <ele>825</ele>
        <time>2019-11-10T10:13:37.000Z</time>
      </trkpt>
      <trkpt lat="47.84649" lon="7.14326">
        <ele>825.40002441406</ele>
        <time>2019-11-10T10:13:38.000Z</time>
      </trkpt>
      <trkpt lat="47.84645" lon="7.14326">
        <ele>825.79998779297</ele>
        <time>2019-11-10T10:13:39.000Z</time>
      </trkpt>
      <trkpt lat="47.84642" lon="7.14328">
        <ele>826.20001220703</ele>
        <time>2019-11-10T10:13:40.000Z</time>
      </trkpt>
      <trkpt lat="47.84638" lon="7.14331">
        <ele>826.20001220703</ele>
        <time>2019-11-10T10:13:41.000Z</time>
      </trkpt>
      <trkpt lat="47.84617" lon="7.14341">
        <ele>826.20001220703</ele>
        <time>2019-11-10T10:13:47.000Z</time>
      </trkpt>
      <trkpt lat="47.84603" lon="7.1434">
        <ele>827</ele>
        <time>2019-11-10T10:13:51.000Z</time>
      </trkpt>
      <trkpt lat="47.84599" lon="7.14339">
        <ele>827.40002441406</ele>
        <time>2019-11-10T10:13:52.000Z</time>
      </trkpt>
      <trkpt lat="47.84596" lon="7.14339">
        <ele>827.79998779297</ele>
        <time>2019-11-10T10:13:53.000Z</time>
      </trkpt>
      <trkpt lat="47.84592" lon="7.14337">
        <ele>828.20001220703</ele>
        <time>2019-11-10T10:13:54.000Z</time>
      </trkpt>
      <trkpt lat="47.84579" lon="7.14331">
        <ele>828.20001220703</ele>
        <time>2019-11-10T10:13:58.000Z</time>
      </trkpt>
      <trkpt lat="47.84564" lon="7.14331">
        <ele>828.59997558594</ele>
        <time>2019-11-10T10:14:02.000Z</time>
      </trkpt>
      <trkpt lat="47.8456" lon="7.14331">
        <ele>829</ele>
        <time>2019-11-10T10:14:03.000Z</time>
      </trkpt>
      <trkpt lat="47.84557" lon="7.1433">
        <ele>829.40002441406</ele>
        <time>2019-11-10T10:14:04.000Z</time>
      </trkpt>
      <trkpt lat="47.84554" lon="7.14328">
        <ele>829.79998779297</ele>
        <time>2019-11-10T10:14:05.000Z</time>
      </trkpt>
      <trkpt lat="47.84552" lon="7.14326">
        <ele>830.20001220703</ele>
        <time>2019-11-10T10:14:06.000Z</time>
      </trkpt>
      <trkpt lat="47.8455" lon="7.14324">
        <ele>830.20001220703</ele>
        <time>2019-11-10T10:14:07.000Z</time>
      </trkpt>
      <trkpt lat="47.84548" lon="7.14322">
        <ele>830.20001220703</ele>
        <time>2019-11-10T10:14:09.000Z</time>
      </trkpt>
      <trkpt lat="47.84543" lon="7.14316">
        <ele>830.20001220703</ele>
        <time>2019-11-10T10:14:13.000Z</time>
      </trkpt>
      <trkpt lat="47.8454" lon="7.14312">
        <ele>830.20001220703</ele>
        <time>2019-11-10T10:14:15.000Z</time>
      </trkpt>
      <trkpt lat="47.84538" lon="7.14306">
        <ele>830.20001220703</ele>
        <time>2019-11-10T10:14:18.000Z</time>
      </trkpt>
      <trkpt lat="47.84537" lon="7.14303">
        <ele>830.20001220703</ele>
        <time>2019-11-10T10:14:20.000Z</time>
      </trkpt>
      <trkpt lat="47.84537" lon="7.14302">
        <ele>830.20001220703</ele>
        <time>2019-11-10T10:14:21.000Z</time>
      </trkpt>
      <trkpt lat="47.84538" lon="7.14299">
        <ele>830.20001220703</ele>
        <time>2019-11-10T10:15:46.000Z</time>
      </trkpt>
      <trkpt lat="47.84539" lon="7.14291">
        <ele>830.20001220703</ele>
        <time>2019-11-10T10:15:48.000Z</time>
      </trkpt>
      <trkpt lat="47.84543" lon="7.14266">
        <ele>830.20001220703</ele>
        <time>2019-11-10T10:15:52.000Z</time>
      </trkpt>
      <trkpt lat="47.84546" lon="7.14257">
        <ele>829.79998779297</ele>
        <time>2019-11-10T10:15:53.000Z</time>
      </trkpt>
      <trkpt lat="47.84548" lon="7.14249">
        <ele>829.20001220703</ele>
        <time>2019-11-10T10:15:54.000Z</time>
      </trkpt>
      <trkpt lat="47.84551" lon="7.14239">
        <ele>828.79998779297</ele>
        <time>2019-11-10T10:15:55.000Z</time>
      </trkpt>
      <trkpt lat="47.84554" lon="7.14228">
        <ele>828</ele>
        <time>2019-11-10T10:15:56.000Z</time>
      </trkpt>
      <trkpt lat="47.84557" lon="7.14218">
        <ele>827.20001220703</ele>
        <time>2019-11-10T10:15:57.000Z</time>
      </trkpt>
      <trkpt lat="47.84559" lon="7.14207">
        <ele>826.20001220703</ele>
        <time>2019-11-10T10:15:58.000Z</time>
      </trkpt>
      <trkpt lat="47.84561" lon="7.14195">
        <ele>825.40002441406</ele>
        <time>2019-11-10T10:15:59.000Z</time>
      </trkpt>
      <trkpt lat="47.84562" lon="7.14183">
        <ele>824.40002441406</ele>
        <time>2019-11-10T10:16:00.000Z</time>
      </trkpt>
      <trkpt lat="47.84563" lon="7.14171">
        <ele>823.59997558594</ele>
        <time>2019-11-10T10:16:01.000Z</time>
      </trkpt>
      <trkpt lat="47.84564" lon="7.14157">
        <ele>822.79998779297</ele>
        <time>2019-11-10T10:16:02.000Z</time>
      </trkpt>
      <trkpt lat="47.84565" lon="7.14143">
        <ele>821.79998779297</ele>
        <time>2019-11-10T10:16:03.000Z</time>
      </trkpt>
      <trkpt lat="47.84566" lon="7.14129">
        <ele>820.79998779297</ele>
        <time>2019-11-10T10:16:04.000Z</time>
      </trkpt>
      <trkpt lat="47.84566" lon="7.14114">
        <ele>819.79998779297</ele>
        <time>2019-11-10T10:16:05.000Z</time>
      </trkpt>
      <trkpt lat="47.84567" lon="7.14099">
        <ele>818.79998779297</ele>
        <time>2019-11-10T10:16:06.000Z</time>
      </trkpt>
      <trkpt lat="47.84568" lon="7.14084">
        <ele>817.79998779297</ele>
        <time>2019-11-10T10:16:07.000Z</time>
      </trkpt>
      <trkpt lat="47.8457" lon="7.14069">
        <ele>816.59997558594</ele>
        <time>2019-11-10T10:16:08.000Z</time>
      </trkpt>
      <trkpt lat="47.84572" lon="7.14054">
        <ele>815.59997558594</ele>
        <time>2019-11-10T10:16:09.000Z</time>
      </trkpt>
      <trkpt lat="47.84574" lon="7.14039">
        <ele>814.40002441406</ele>
        <time>2019-11-10T10:16:10.000Z</time>
      </trkpt>
      <trkpt lat="47.84577" lon="7.14027">
        <ele>813.20001220703</ele>
        <time>2019-11-10T10:16:11.000Z</time>
      </trkpt>
      <trkpt lat="47.8458" lon="7.14017">
        <ele>812.20001220703</ele>
        <time>2019-11-10T10:16:12.000Z</time>
      </trkpt>
      <trkpt lat="47.84583" lon="7.1401">
        <ele>811</ele>
        <time>2019-11-10T10:16:13.000Z</time>
      </trkpt>
      <trkpt lat="47.84585" lon="7.14006">
        <ele>811</ele>
        <time>2019-11-10T10:16:14.000Z</time>
      </trkpt>
      <trkpt lat="47.84587" lon="7.14003">
        <ele>811</ele>
        <time>2019-11-10T10:16:15.000Z</time>
      </trkpt>
      <trkpt lat="47.84588" lon="7.14">
        <ele>811.59997558594</ele>
        <time>2019-11-10T10:16:16.000Z</time>
      </trkpt>
      <trkpt lat="47.84589" lon="7.13998">
        <ele>812.20001220703</ele>
        <time>2019-11-10T10:16:17.000Z</time>
      </trkpt>
      <trkpt lat="47.84589" lon="7.13995">
        <ele>812.59997558594</ele>
        <time>2019-11-10T10:16:18.000Z</time>
      </trkpt>
      <trkpt lat="47.8459" lon="7.13992">
        <ele>813.79998779297</ele>
        <time>2019-11-10T10:16:19.000Z</time>
      </trkpt>
      <trkpt lat="47.84591" lon="7.13989">
        <ele>814.20001220703</ele>
        <time>2019-11-10T10:16:20.000Z</time>
      </trkpt>
      <trkpt lat="47.84593" lon="7.13987">
        <ele>814.79998779297</ele>
        <time>2019-11-10T10:16:21.000Z</time>
      </trkpt>
      <trkpt lat="47.84594" lon="7.13984">
        <ele>815.20001220703</ele>
        <time>2019-11-10T10:16:22.000Z</time>
      </trkpt>
      <trkpt lat="47.84596" lon="7.13981">
        <ele>815.79998779297</ele>
        <time>2019-11-10T10:16:23.000Z</time>
      </trkpt>
      <trkpt lat="47.846" lon="7.1397">
        <ele>815.79998779297</ele>
        <time>2019-11-10T10:16:26.000Z</time>
      </trkpt>
      <trkpt lat="47.84601" lon="7.13967">
        <ele>816.20001220703</ele>
        <time>2019-11-10T10:16:27.000Z</time>
      </trkpt>
      <trkpt lat="47.84602" lon="7.13964">
        <ele>816.79998779297</ele>
        <time>2019-11-10T10:16:28.000Z</time>
      </trkpt>
      <trkpt lat="47.84603" lon="7.1396">
        <ele>817.20001220703</ele>
        <time>2019-11-10T10:16:29.000Z</time>
      </trkpt>
      <trkpt lat="47.84605" lon="7.13957">
        <ele>817.59997558594</ele>
        <time>2019-11-10T10:16:30.000Z</time>
      </trkpt>
      <trkpt lat="47.84606" lon="7.13953">
        <ele>818</ele>
        <time>2019-11-10T10:16:31.000Z</time>
      </trkpt>
      <trkpt lat="47.84608" lon="7.1395">
        <ele>818</ele>
        <time>2019-11-10T10:16:32.000Z</time>
      </trkpt>
      <trkpt lat="47.8461" lon="7.13944">
        <ele>818.40002441406</ele>
        <time>2019-11-10T10:16:34.000Z</time>
      </trkpt>
      <trkpt lat="47.84612" lon="7.13941">
        <ele>819</ele>
        <time>2019-11-10T10:16:35.000Z</time>
      </trkpt>
      <trkpt lat="47.84613" lon="7.13937">
        <ele>819.40002441406</ele>
        <time>2019-11-10T10:16:36.000Z</time>
      </trkpt>
      <trkpt lat="47.84614" lon="7.13933">
        <ele>819.79998779297</ele>
        <time>2019-11-10T10:16:37.000Z</time>
      </trkpt>
      <trkpt lat="47.84615" lon="7.13929">
        <ele>820.40002441406</ele>
        <time>2019-11-10T10:16:38.000Z</time>
      </trkpt>
      <trkpt lat="47.8462" lon="7.13915">
        <ele>820.79998779297</ele>
        <time>2019-11-10T10:16:42.000Z</time>
      </trkpt>
      <trkpt lat="47.84621" lon="7.13911">
        <ele>821.20001220703</ele>
        <time>2019-11-10T10:16:43.000Z</time>
      </trkpt>
      <trkpt lat="47.84622" lon="7.13909">
        <ele>822</ele>
        <time>2019-11-10T10:16:44.000Z</time>
      </trkpt>
      <trkpt lat="47.84623" lon="7.13906">
        <ele>822.40002441406</ele>
        <time>2019-11-10T10:16:45.000Z</time>
      </trkpt>
      <trkpt lat="47.84624" lon="7.13904">
        <ele>822.40002441406</ele>
        <time>2019-11-10T10:16:46.000Z</time>
      </trkpt>
      <trkpt lat="47.84629" lon="7.13892">
        <ele>822.79998779297</ele>
        <time>2019-11-10T10:16:51.000Z</time>
      </trkpt>
      <trkpt lat="47.8463" lon="7.13889">
        <ele>823.40002441406</ele>
        <time>2019-11-10T10:16:52.000Z</time>
      </trkpt>
      <trkpt lat="47.84632" lon="7.13885">
        <ele>823.79998779297</ele>
        <time>2019-11-10T10:16:53.000Z</time>
      </trkpt>
      <trkpt lat="47.84633" lon="7.13882">
        <ele>824.20001220703</ele>
        <time>2019-11-10T10:16:54.000Z</time>
      </trkpt>
      <trkpt lat="47.84635" lon="7.13879">
        <ele>824.79998779297</ele>
        <time>2019-11-10T10:16:55.000Z</time>
      </trkpt>
      <trkpt lat="47.84636" lon="7.13875">
        <ele>824.79998779297</ele>
        <time>2019-11-10T10:16:56.000Z</time>
      </trkpt>
      <trkpt lat="47.8464" lon="7.13866">
        <ele>825.20001220703</ele>
        <time>2019-11-10T10:16:59.000Z</time>
      </trkpt>
      <trkpt lat="47.84641" lon="7.13862">
        <ele>825.59997558594</ele>
        <time>2019-11-10T10:17:00.000Z</time>
      </trkpt>
      <trkpt lat="47.84642" lon="7.13859">
        <ele>826</ele>
        <time>2019-11-10T10:17:01.000Z</time>
      </trkpt>
      <trkpt lat="47.84643" lon="7.13857">
        <ele>826.59997558594</ele>
        <time>2019-11-10T10:17:02.000Z</time>
      </trkpt>
      <trkpt lat="47.84644" lon="7.13854">
        <ele>827</ele>
        <time>2019-11-10T10:17:03.000Z</time>
      </trkpt>
      <trkpt lat="47.84648" lon="7.13845">
        <ele>827.40002441406</ele>
        <time>2019-11-10T10:17:06.000Z</time>
      </trkpt>
      <trkpt lat="47.84649" lon="7.13842">
        <ele>827.79998779297</ele>
        <time>2019-11-10T10:17:07.000Z</time>
      </trkpt>
      <trkpt lat="47.8465" lon="7.13839">
        <ele>828.40002441406</ele>
        <time>2019-11-10T10:17:08.000Z</time>
      </trkpt>
      <trkpt lat="47.84651" lon="7.13836">
        <ele>829.20001220703</ele>
        <time>2019-11-10T10:17:09.000Z</time>
      </trkpt>
      <trkpt lat="47.84653" lon="7.13828">
        <ele>829.59997558594</ele>
        <time>2019-11-10T10:17:12.000Z</time>
      </trkpt>
      <trkpt lat="47.84654" lon="7.13824">
        <ele>830.20001220703</ele>
        <time>2019-11-10T10:17:13.000Z</time>
      </trkpt>
      <trkpt lat="47.84655" lon="7.13819">
        <ele>830.59997558594</ele>
        <time>2019-11-10T10:17:14.000Z</time>
      </trkpt>
      <trkpt lat="47.84656" lon="7.13815">
        <ele>831</ele>
        <time>2019-11-10T10:17:15.000Z</time>
      </trkpt>
      <trkpt lat="47.84656" lon="7.1381">
        <ele>831.59997558594</ele>
        <time>2019-11-10T10:17:16.000Z</time>
      </trkpt>
      <trkpt lat="47.84657" lon="7.13802">
        <ele>832</ele>
        <time>2019-11-10T10:17:18.000Z</time>
      </trkpt>
      <trkpt lat="47.84657" lon="7.13799">
        <ele>832.40002441406</ele>
        <time>2019-11-10T10:17:19.000Z</time>
      </trkpt>
      <trkpt lat="47.84657" lon="7.13796">
        <ele>832.79998779297</ele>
        <time>2019-11-10T10:17:20.000Z</time>
      </trkpt>
      <trkpt lat="47.84656" lon="7.13793">
        <ele>833.20001220703</ele>
        <time>2019-11-10T10:17:21.000Z</time>
      </trkpt>
      <trkpt lat="47.84656" lon="7.1379">
        <ele>833.59997558594</ele>
        <time>2019-11-10T10:17:22.000Z</time>
      </trkpt>
      <trkpt lat="47.84655" lon="7.13785">
        <ele>834</ele>
        <time>2019-11-10T10:17:24.000Z</time>
      </trkpt>
      <trkpt lat="47.84654" lon="7.13783">
        <ele>834.40002441406</ele>
        <time>2019-11-10T10:17:25.000Z</time>
      </trkpt>
      <trkpt lat="47.84653" lon="7.13781">
        <ele>834.79998779297</ele>
        <time>2019-11-10T10:17:26.000Z</time>
      </trkpt>
      <trkpt lat="47.84653" lon="7.13779">
        <ele>835.20001220703</ele>
        <time>2019-11-10T10:17:27.000Z</time>
      </trkpt>
      <trkpt lat="47.84652" lon="7.13776">
        <ele>835.59997558594</ele>
        <time>2019-11-10T10:17:28.000Z</time>
      </trkpt>
      <trkpt lat="47.84649" lon="7.1377">
        <ele>835.59997558594</ele>
        <time>2019-11-10T10:17:30.000Z</time>
      </trkpt>
      <trkpt lat="47.84645" lon="7.13765">
        <ele>836</ele>
        <time>2019-11-10T10:17:32.000Z</time>
      </trkpt>
      <trkpt lat="47.84643" lon="7.13763">
        <ele>836.40002441406</ele>
        <time>2019-11-10T10:17:33.000Z</time>
      </trkpt>
      <trkpt lat="47.84641" lon="7.13761">
        <ele>837.20001220703</ele>
        <time>2019-11-10T10:17:34.000Z</time>
      </trkpt>
      <trkpt lat="47.84639" lon="7.13758">
        <ele>837.59997558594</ele>
        <time>2019-11-10T10:17:35.000Z</time>
      </trkpt>
      <trkpt lat="47.84638" lon="7.13755">
        <ele>837.59997558594</ele>
        <time>2019-11-10T10:17:36.000Z</time>
      </trkpt>
      <trkpt lat="47.84635" lon="7.1375">
        <ele>838</ele>
        <time>2019-11-10T10:17:38.000Z</time>
      </trkpt>
      <trkpt lat="47.84634" lon="7.13748">
        <ele>838.59997558594</ele>
        <time>2019-11-10T10:17:39.000Z</time>
      </trkpt>
      <trkpt lat="47.84632" lon="7.13746">
        <ele>839</ele>
        <time>2019-11-10T10:17:40.000Z</time>
      </trkpt>
      <trkpt lat="47.84631" lon="7.13744">
        <ele>839.40002441406</ele>
        <time>2019-11-10T10:17:41.000Z</time>
      </trkpt>
      <trkpt lat="47.84629" lon="7.13742">
        <ele>839.79998779297</ele>
        <time>2019-11-10T10:17:42.000Z</time>
      </trkpt>
      <trkpt lat="47.84625" lon="7.13734">
        <ele>840.40002441406</ele>
        <time>2019-11-10T10:17:45.000Z</time>
      </trkpt>
      <trkpt lat="47.84623" lon="7.13731">
        <ele>840.79998779297</ele>
        <time>2019-11-10T10:17:46.000Z</time>
      </trkpt>
      <trkpt lat="47.84622" lon="7.13729">
        <ele>841.40002441406</ele>
        <time>2019-11-10T10:17:47.000Z</time>
      </trkpt>
      <trkpt lat="47.8462" lon="7.13726">
        <ele>841.79998779297</ele>
        <time>2019-11-10T10:17:48.000Z</time>
      </trkpt>
      <trkpt lat="47.84618" lon="7.13723">
        <ele>842.40002441406</ele>
        <time>2019-11-10T10:17:49.000Z</time>
      </trkpt>
      <trkpt lat="47.84612" lon="7.13711">
        <ele>842.79998779297</ele>
        <time>2019-11-10T10:17:53.000Z</time>
      </trkpt>
      <trkpt lat="47.8461" lon="7.13709">
        <ele>843.20001220703</ele>
        <time>2019-11-10T10:17:54.000Z</time>
      </trkpt>
      <trkpt lat="47.84608" lon="7.13706">
        <ele>843.59997558594</ele>
        <time>2019-11-10T10:17:55.000Z</time>
      </trkpt>
      <trkpt lat="47.84606" lon="7.13703">
        <ele>844</ele>
        <time>2019-11-10T10:17:56.000Z</time>
      </trkpt>
      <trkpt lat="47.84604" lon="7.13701">
        <ele>844.40002441406</ele>
        <time>2019-11-10T10:17:57.000Z</time>
      </trkpt>
      <trkpt lat="47.84602" lon="7.13699">
        <ele>844.40002441406</ele>
        <time>2019-11-10T10:17:58.000Z</time>
      </trkpt>
      <trkpt lat="47.846" lon="7.13697">
        <ele>844.79998779297</ele>
        <time>2019-11-10T10:17:59.000Z</time>
      </trkpt>
      <trkpt lat="47.84598" lon="7.13695">
        <ele>845.20001220703</ele>
        <time>2019-11-10T10:18:00.000Z</time>
      </trkpt>
      <trkpt lat="47.84596" lon="7.13692">
        <ele>845.59997558594</ele>
        <time>2019-11-10T10:18:01.000Z</time>
      </trkpt>
      <trkpt lat="47.84594" lon="7.1369">
        <ele>846.20001220703</ele>
        <time>2019-11-10T10:18:02.000Z</time>
      </trkpt>
      <trkpt lat="47.8459" lon="7.13687">
        <ele>846.59997558594</ele>
        <time>2019-11-10T10:18:03.000Z</time>
      </trkpt>
      <trkpt lat="47.84588" lon="7.13684">
        <ele>846.59997558594</ele>
        <time>2019-11-10T10:18:04.000Z</time>
      </trkpt>
      <trkpt lat="47.84583" lon="7.1368">
        <ele>847</ele>
        <time>2019-11-10T10:18:06.000Z</time>
      </trkpt>
      <trkpt lat="47.84581" lon="7.13677">
        <ele>847.40002441406</ele>
        <time>2019-11-10T10:18:07.000Z</time>
      </trkpt>
      <trkpt lat="47.84579" lon="7.13675">
        <ele>847.79998779297</ele>
        <time>2019-11-10T10:18:08.000Z</time>
      </trkpt>
      <trkpt lat="47.84577" lon="7.13673">
        <ele>848.40002441406</ele>
        <time>2019-11-10T10:18:09.000Z</time>
      </trkpt>
      <trkpt lat="47.84575" lon="7.13671">
        <ele>848.79998779297</ele>
        <time>2019-11-10T10:18:10.000Z</time>
      </trkpt>
      <trkpt lat="47.84569" lon="7.13666">
        <ele>849.20001220703</ele>
        <time>2019-11-10T10:18:13.000Z</time>
      </trkpt>
      <trkpt lat="47.84568" lon="7.13664">
        <ele>849.59997558594</ele>
        <time>2019-11-10T10:18:14.000Z</time>
      </trkpt>
      <trkpt lat="47.84566" lon="7.13662">
        <ele>850</ele>
        <time>2019-11-10T10:18:15.000Z</time>
      </trkpt>
      <trkpt lat="47.84564" lon="7.1366">
        <ele>850.40002441406</ele>
        <time>2019-11-10T10:18:16.000Z</time>
      </trkpt>
      <trkpt lat="47.84562" lon="7.13658">
        <ele>851</ele>
        <time>2019-11-10T10:18:17.000Z</time>
      </trkpt>
      <trkpt lat="47.84556" lon="7.1365">
        <ele>851.40002441406</ele>
        <time>2019-11-10T10:18:21.000Z</time>
      </trkpt>
      <trkpt lat="47.84555" lon="7.13647">
        <ele>851.79998779297</ele>
        <time>2019-11-10T10:18:22.000Z</time>
      </trkpt>
      <trkpt lat="47.84554" lon="7.13644">
        <ele>852.59997558594</ele>
        <time>2019-11-10T10:18:23.000Z</time>
      </trkpt>
      <trkpt lat="47.84553" lon="7.1364">
        <ele>853</ele>
        <time>2019-11-10T10:18:24.000Z</time>
      </trkpt>
      <trkpt lat="47.8455" lon="7.13629">
        <ele>853</ele>
        <time>2019-11-10T10:18:27.000Z</time>
      </trkpt>
      <trkpt lat="47.84549" lon="7.13622">
        <ele>853.40002441406</ele>
        <time>2019-11-10T10:18:29.000Z</time>
      </trkpt>
      <trkpt lat="47.84548" lon="7.13619">
        <ele>853.79998779297</ele>
        <time>2019-11-10T10:18:30.000Z</time>
      </trkpt>
      <trkpt lat="47.84548" lon="7.13616">
        <ele>854.20001220703</ele>
        <time>2019-11-10T10:18:31.000Z</time>
      </trkpt>
      <trkpt lat="47.84548" lon="7.13613">
        <ele>854.59997558594</ele>
        <time>2019-11-10T10:18:32.000Z</time>
      </trkpt>
      <trkpt lat="47.84547" lon="7.1361">
        <ele>855.20001220703</ele>
        <time>2019-11-10T10:18:33.000Z</time>
      </trkpt>
      <trkpt lat="47.84547" lon="7.136">
        <ele>855.59997558594</ele>
        <time>2019-11-10T10:18:36.000Z</time>
      </trkpt>
      <trkpt lat="47.84548" lon="7.13597">
        <ele>856</ele>
        <time>2019-11-10T10:18:37.000Z</time>
      </trkpt>
      <trkpt lat="47.84548" lon="7.13593">
        <ele>856.40002441406</ele>
        <time>2019-11-10T10:18:38.000Z</time>
      </trkpt>
      <trkpt lat="47.84548" lon="7.1359">
        <ele>856.79998779297</ele>
        <time>2019-11-10T10:18:39.000Z</time>
      </trkpt>
      <trkpt lat="47.84549" lon="7.13587">
        <ele>857.20001220703</ele>
        <time>2019-11-10T10:18:40.000Z</time>
      </trkpt>
      <trkpt lat="47.8455" lon="7.1358">
        <ele>857.79998779297</ele>
        <time>2019-11-10T10:18:42.000Z</time>
      </trkpt>
      <trkpt lat="47.8455" lon="7.13577">
        <ele>858.20001220703</ele>
        <time>2019-11-10T10:18:43.000Z</time>
      </trkpt>
      <trkpt lat="47.8455" lon="7.13573">
        <ele>858.59997558594</ele>
        <time>2019-11-10T10:18:44.000Z</time>
      </trkpt>
      <trkpt lat="47.8455" lon="7.1357">
        <ele>859</ele>
        <time>2019-11-10T10:18:45.000Z</time>
      </trkpt>
      <trkpt lat="47.84551" lon="7.13566">
        <ele>859.40002441406</ele>
        <time>2019-11-10T10:18:46.000Z</time>
      </trkpt>
      <trkpt lat="47.84552" lon="7.13552">
        <ele>859.79998779297</ele>
        <time>2019-11-10T10:18:50.000Z</time>
      </trkpt>
      <trkpt lat="47.84551" lon="7.13549">
        <ele>860.20001220703</ele>
        <time>2019-11-10T10:18:51.000Z</time>
      </trkpt>
      <trkpt lat="47.84552" lon="7.13546">
        <ele>860.79998779297</ele>
        <time>2019-11-10T10:18:52.000Z</time>
      </trkpt>
      <trkpt lat="47.84553" lon="7.13542">
        <ele>861.20001220703</ele>
        <time>2019-11-10T10:18:53.000Z</time>
      </trkpt>
      <trkpt lat="47.84554" lon="7.13539">
        <ele>861.59997558594</ele>
        <time>2019-11-10T10:18:54.000Z</time>
      </trkpt>
      <trkpt lat="47.84559" lon="7.13522">
        <ele>861.59997558594</ele>
        <time>2019-11-10T10:18:59.000Z</time>
      </trkpt>
      <trkpt lat="47.84566" lon="7.13507">
        <ele>862</ele>
        <time>2019-11-10T10:19:04.000Z</time>
      </trkpt>
      <trkpt lat="47.84567" lon="7.13503">
        <ele>862.40002441406</ele>
        <time>2019-11-10T10:19:05.000Z</time>
      </trkpt>
      <trkpt lat="47.84569" lon="7.135">
        <ele>862.79998779297</ele>
        <time>2019-11-10T10:19:06.000Z</time>
      </trkpt>
      <trkpt lat="47.84571" lon="7.13497">
        <ele>863.20001220703</ele>
        <time>2019-11-10T10:19:07.000Z</time>
      </trkpt>
      <trkpt lat="47.84573" lon="7.13494">
        <ele>863.59997558594</ele>
        <time>2019-11-10T10:19:08.000Z</time>
      </trkpt>
      <trkpt lat="47.84579" lon="7.13486">
        <ele>863.59997558594</ele>
        <time>2019-11-10T10:19:11.000Z</time>
      </trkpt>
      <trkpt lat="47.84583" lon="7.13481">
        <ele>864</ele>
        <time>2019-11-10T10:19:13.000Z</time>
      </trkpt>
      <trkpt lat="47.84585" lon="7.13478">
        <ele>864.59997558594</ele>
        <time>2019-11-10T10:19:14.000Z</time>
      </trkpt>
      <trkpt lat="47.84587" lon="7.13476">
        <ele>865</ele>
        <time>2019-11-10T10:19:15.000Z</time>
      </trkpt>
      <trkpt lat="47.8459" lon="7.13474">
        <ele>865.40002441406</ele>
        <time>2019-11-10T10:19:16.000Z</time>
      </trkpt>
      <trkpt lat="47.84591" lon="7.13473">
        <ele>865.79998779297</ele>
        <time>2019-11-10T10:19:17.000Z</time>
      </trkpt>
      <trkpt lat="47.84595" lon="7.13468">
        <ele>866.20001220703</ele>
        <time>2019-11-10T10:19:19.000Z</time>
      </trkpt>
      <trkpt lat="47.84597" lon="7.13466">
        <ele>866.79998779297</ele>
        <time>2019-11-10T10:19:20.000Z</time>
      </trkpt>
      <trkpt lat="47.84599" lon="7.13464">
        <ele>867.20001220703</ele>
        <time>2019-11-10T10:19:21.000Z</time>
      </trkpt>
      <trkpt lat="47.84601" lon="7.13461">
        <ele>867.59997558594</ele>
        <time>2019-11-10T10:19:22.000Z</time>
      </trkpt>
      <trkpt lat="47.84603" lon="7.1346">
        <ele>868</ele>
        <time>2019-11-10T10:19:23.000Z</time>
      </trkpt>
      <trkpt lat="47.84607" lon="7.13456">
        <ele>868.40002441406</ele>
        <time>2019-11-10T10:19:25.000Z</time>
      </trkpt>
      <trkpt lat="47.84609" lon="7.13453">
        <ele>869</ele>
        <time>2019-11-10T10:19:26.000Z</time>
      </trkpt>
      <trkpt lat="47.84611" lon="7.13451">
        <ele>869.40002441406</ele>
        <time>2019-11-10T10:19:27.000Z</time>
      </trkpt>
      <trkpt lat="47.84612" lon="7.13449">
        <ele>870</ele>
        <time>2019-11-10T10:19:28.000Z</time>
      </trkpt>
      <trkpt lat="47.84614" lon="7.13447">
        <ele>870.40002441406</ele>
        <time>2019-11-10T10:19:29.000Z</time>
      </trkpt>
      <trkpt lat="47.84617" lon="7.13441">
        <ele>870.79998779297</ele>
        <time>2019-11-10T10:19:31.000Z</time>
      </trkpt>
      <trkpt lat="47.84618" lon="7.13438">
        <ele>871.20001220703</ele>
        <time>2019-11-10T10:19:32.000Z</time>
      </trkpt>
      <trkpt lat="47.8462" lon="7.13434">
        <ele>871.59997558594</ele>
        <time>2019-11-10T10:19:33.000Z</time>
      </trkpt>
      <trkpt lat="47.84621" lon="7.1343">
        <ele>872.20001220703</ele>
        <time>2019-11-10T10:19:34.000Z</time>
      </trkpt>
      <trkpt lat="47.84623" lon="7.13426">
        <ele>872.59997558594</ele>
        <time>2019-11-10T10:19:35.000Z</time>
      </trkpt>
      <trkpt lat="47.84624" lon="7.13424">
        <ele>873</ele>
        <time>2019-11-10T10:19:36.000Z</time>
      </trkpt>
      <trkpt lat="47.84626" lon="7.1342">
        <ele>873.40002441406</ele>
        <time>2019-11-10T10:19:37.000Z</time>
      </trkpt>
      <trkpt lat="47.84627" lon="7.13418">
        <ele>873.79998779297</ele>
        <time>2019-11-10T10:19:38.000Z</time>
      </trkpt>
      <trkpt lat="47.84628" lon="7.13415">
        <ele>874.20001220703</ele>
        <time>2019-11-10T10:19:39.000Z</time>
      </trkpt>
      <trkpt lat="47.84629" lon="7.13411">
        <ele>874.59997558594</ele>
        <time>2019-11-10T10:19:40.000Z</time>
      </trkpt>
      <trkpt lat="47.8463" lon="7.13407">
        <ele>874.59997558594</ele>
        <time>2019-11-10T10:19:41.000Z</time>
      </trkpt>
      <trkpt lat="47.84631" lon="7.13394">
        <ele>875.20001220703</ele>
        <time>2019-11-10T10:19:44.000Z</time>
      </trkpt>
      <trkpt lat="47.84632" lon="7.13391">
        <ele>875.59997558594</ele>
        <time>2019-11-10T10:19:45.000Z</time>
      </trkpt>
      <trkpt lat="47.84632" lon="7.13388">
        <ele>876</ele>
        <time>2019-11-10T10:19:46.000Z</time>
      </trkpt>
      <trkpt lat="47.84632" lon="7.13384">
        <ele>876.40002441406</ele>
        <time>2019-11-10T10:19:47.000Z</time>
      </trkpt>
      <trkpt lat="47.84632" lon="7.13381">
        <ele>876.79998779297</ele>
        <time>2019-11-10T10:19:48.000Z</time>
      </trkpt>
      <trkpt lat="47.84627" lon="7.13371">
        <ele>876.79998779297</ele>
        <time>2019-11-10T10:19:51.000Z</time>
      </trkpt>
      <trkpt lat="47.84625" lon="7.13368">
        <ele>877.20001220703</ele>
        <time>2019-11-10T10:19:52.000Z</time>
      </trkpt>
      <trkpt lat="47.84623" lon="7.13365">
        <ele>877.79998779297</ele>
        <time>2019-11-10T10:19:53.000Z</time>
      </trkpt>
      <trkpt lat="47.84622" lon="7.13362">
        <ele>878.20001220703</ele>
        <time>2019-11-10T10:19:54.000Z</time>
      </trkpt>
      <trkpt lat="47.8462" lon="7.13359">
        <ele>878.59997558594</ele>
        <time>2019-11-10T10:19:55.000Z</time>
      </trkpt>
      <trkpt lat="47.84618" lon="7.13357">
        <ele>879</ele>
        <time>2019-11-10T10:19:56.000Z</time>
      </trkpt>
      <trkpt lat="47.84616" lon="7.13355">
        <ele>879</ele>
        <time>2019-11-10T10:19:57.000Z</time>
      </trkpt>
      <trkpt lat="47.84602" lon="7.13347">
        <ele>879</ele>
        <time>2019-11-10T10:20:02.000Z</time>
      </trkpt>
      <trkpt lat="47.84599" lon="7.13346">
        <ele>879.40002441406</ele>
        <time>2019-11-10T10:20:03.000Z</time>
      </trkpt>
      <trkpt lat="47.84597" lon="7.13344">
        <ele>879.79998779297</ele>
        <time>2019-11-10T10:20:04.000Z</time>
      </trkpt>
      <trkpt lat="47.84593" lon="7.13342">
        <ele>880.20001220703</ele>
        <time>2019-11-10T10:20:05.000Z</time>
      </trkpt>
      <trkpt lat="47.8459" lon="7.13341">
        <ele>880.59997558594</ele>
        <time>2019-11-10T10:20:06.000Z</time>
      </trkpt>
      <trkpt lat="47.84587" lon="7.1334">
        <ele>881</ele>
        <time>2019-11-10T10:20:07.000Z</time>
      </trkpt>
      <trkpt lat="47.84585" lon="7.13338">
        <ele>881</ele>
        <time>2019-11-10T10:20:08.000Z</time>
      </trkpt>
      <trkpt lat="47.84574" lon="7.13331">
        <ele>881.40002441406</ele>
        <time>2019-11-10T10:20:12.000Z</time>
      </trkpt>
      <trkpt lat="47.84572" lon="7.13328">
        <ele>881.79998779297</ele>
        <time>2019-11-10T10:20:13.000Z</time>
      </trkpt>
      <trkpt lat="47.84569" lon="7.13326">
        <ele>882.20001220703</ele>
        <time>2019-11-10T10:20:14.000Z</time>
      </trkpt>
      <trkpt lat="47.84567" lon="7.13323">
        <ele>882.59997558594</ele>
        <time>2019-11-10T10:20:15.000Z</time>
      </trkpt>
      <trkpt lat="47.84565" lon="7.1332">
        <ele>883</ele>
        <time>2019-11-10T10:20:16.000Z</time>
      </trkpt>
      <trkpt lat="47.84561" lon="7.13315">
        <ele>883</ele>
        <time>2019-11-10T10:20:18.000Z</time>
      </trkpt>
      <trkpt lat="47.8455" lon="7.13295">
        <ele>883</ele>
        <time>2019-11-10T10:20:24.000Z</time>
      </trkpt>
      <trkpt lat="47.84547" lon="7.13287">
        <ele>883.79998779297</ele>
        <time>2019-11-10T10:20:26.000Z</time>
      </trkpt>
      <trkpt lat="47.84545" lon="7.13283">
        <ele>884.20001220703</ele>
        <time>2019-11-10T10:20:27.000Z</time>
      </trkpt>
      <trkpt lat="47.84544" lon="7.13279">
        <ele>884.59997558594</ele>
        <time>2019-11-10T10:20:28.000Z</time>
      </trkpt>
      <trkpt lat="47.84543" lon="7.13273">
        <ele>885</ele>
        <time>2019-11-10T10:20:29.000Z</time>
      </trkpt>
      <trkpt lat="47.84542" lon="7.13268">
        <ele>885</ele>
        <time>2019-11-10T10:20:30.000Z</time>
      </trkpt>
      <trkpt lat="47.84541" lon="7.13259">
        <ele>885.59997558594</ele>
        <time>2019-11-10T10:20:32.000Z</time>
      </trkpt>
      <trkpt lat="47.8454" lon="7.13255">
        <ele>886</ele>
        <time>2019-11-10T10:20:33.000Z</time>
      </trkpt>
      <trkpt lat="47.84538" lon="7.13252">
        <ele>886.40002441406</ele>
        <time>2019-11-10T10:20:34.000Z</time>
      </trkpt>
      <trkpt lat="47.84536" lon="7.13248">
        <ele>886.79998779297</ele>
        <time>2019-11-10T10:20:35.000Z</time>
      </trkpt>
      <trkpt lat="47.84535" lon="7.13244">
        <ele>887.20001220703</ele>
        <time>2019-11-10T10:20:36.000Z</time>
      </trkpt>
      <trkpt lat="47.84532" lon="7.13238">
        <ele>887.20001220703</ele>
        <time>2019-11-10T10:20:38.000Z</time>
      </trkpt>
      <trkpt lat="47.8453" lon="7.13232">
        <ele>887.20001220703</ele>
        <time>2019-11-10T10:20:40.000Z</time>
      </trkpt>
      <trkpt lat="47.84525" lon="7.13221">
        <ele>887.59997558594</ele>
        <time>2019-11-10T10:20:43.000Z</time>
      </trkpt>
      <trkpt lat="47.84524" lon="7.13216">
        <ele>888</ele>
        <time>2019-11-10T10:20:44.000Z</time>
      </trkpt>
      <trkpt lat="47.84523" lon="7.13211">
        <ele>888.40002441406</ele>
        <time>2019-11-10T10:20:45.000Z</time>
      </trkpt>
      <trkpt lat="47.84521" lon="7.13206">
        <ele>889</ele>
        <time>2019-11-10T10:20:46.000Z</time>
      </trkpt>
      <trkpt lat="47.84519" lon="7.13201">
        <ele>889.40002441406</ele>
        <time>2019-11-10T10:20:47.000Z</time>
      </trkpt>
      <trkpt lat="47.84514" lon="7.13187">
        <ele>889.79998779297</ele>
        <time>2019-11-10T10:20:50.000Z</time>
      </trkpt>
      <trkpt lat="47.84511" lon="7.13182">
        <ele>890.20001220703</ele>
        <time>2019-11-10T10:20:51.000Z</time>
      </trkpt>
      <trkpt lat="47.84509" lon="7.13178">
        <ele>890.79998779297</ele>
        <time>2019-11-10T10:20:52.000Z</time>
      </trkpt>
      <trkpt lat="47.84507" lon="7.13174">
        <ele>891.20001220703</ele>
        <time>2019-11-10T10:20:53.000Z</time>
      </trkpt>
      <trkpt lat="47.84506" lon="7.1317">
        <ele>891.59997558594</ele>
        <time>2019-11-10T10:20:54.000Z</time>
      </trkpt>
      <trkpt lat="47.84502" lon="7.13162">
        <ele>892</ele>
        <time>2019-11-10T10:20:56.000Z</time>
      </trkpt>
      <trkpt lat="47.845" lon="7.13157">
        <ele>892.40002441406</ele>
        <time>2019-11-10T10:20:57.000Z</time>
      </trkpt>
      <trkpt lat="47.84499" lon="7.13152">
        <ele>892.79998779297</ele>
        <time>2019-11-10T10:20:58.000Z</time>
      </trkpt>
      <trkpt lat="47.84497" lon="7.13146">
        <ele>893.20001220703</ele>
        <time>2019-11-10T10:20:59.000Z</time>
      </trkpt>
      <trkpt lat="47.84497" lon="7.13141">
        <ele>893.59997558594</ele>
        <time>2019-11-10T10:21:00.000Z</time>
      </trkpt>
      <trkpt lat="47.84494" lon="7.13132">
        <ele>894.20001220703</ele>
        <time>2019-11-10T10:21:02.000Z</time>
      </trkpt>
      <trkpt lat="47.84493" lon="7.13128">
        <ele>894.59997558594</ele>
        <time>2019-11-10T10:21:03.000Z</time>
      </trkpt>
      <trkpt lat="47.84491" lon="7.13124">
        <ele>895</ele>
        <time>2019-11-10T10:21:04.000Z</time>
      </trkpt>
      <trkpt lat="47.8449" lon="7.13119">
        <ele>895.59997558594</ele>
        <time>2019-11-10T10:21:05.000Z</time>
      </trkpt>
      <trkpt lat="47.84489" lon="7.13115">
        <ele>896</ele>
        <time>2019-11-10T10:21:06.000Z</time>
      </trkpt>
      <trkpt lat="47.84487" lon="7.13107">
        <ele>896.59997558594</ele>
        <time>2019-11-10T10:21:08.000Z</time>
      </trkpt>
      <trkpt lat="47.84487" lon="7.13102">
        <ele>897</ele>
        <time>2019-11-10T10:21:09.000Z</time>
      </trkpt>
      <trkpt lat="47.84487" lon="7.13097">
        <ele>897.59997558594</ele>
        <time>2019-11-10T10:21:10.000Z</time>
      </trkpt>
      <trkpt lat="47.84487" lon="7.13093">
        <ele>898</ele>
        <time>2019-11-10T10:21:11.000Z</time>
      </trkpt>
      <trkpt lat="47.84488" lon="7.13088">
        <ele>898.59997558594</ele>
        <time>2019-11-10T10:21:12.000Z</time>
      </trkpt>
      <trkpt lat="47.84489" lon="7.13084">
        <ele>898.59997558594</ele>
        <time>2019-11-10T10:21:13.000Z</time>
      </trkpt>
      <trkpt lat="47.84489" lon="7.1308">
        <ele>899</ele>
        <time>2019-11-10T10:21:14.000Z</time>
      </trkpt>
      <trkpt lat="47.8449" lon="7.13078">
        <ele>899.79998779297</ele>
        <time>2019-11-10T10:21:15.000Z</time>
      </trkpt>
      <trkpt lat="47.84491" lon="7.13075">
        <ele>900.20001220703</ele>
        <time>2019-11-10T10:21:16.000Z</time>
      </trkpt>
      <trkpt lat="47.84493" lon="7.13071">
        <ele>900.59997558594</ele>
        <time>2019-11-10T10:21:17.000Z</time>
      </trkpt>
      <trkpt lat="47.84494" lon="7.13068">
        <ele>901.20001220703</ele>
        <time>2019-11-10T10:21:18.000Z</time>
      </trkpt>
      <trkpt lat="47.84496" lon="7.13065">
        <ele>901.59997558594</ele>
        <time>2019-11-10T10:21:19.000Z</time>
      </trkpt>
      <trkpt lat="47.84497" lon="7.13062">
        <ele>902.20001220703</ele>
        <time>2019-11-10T10:21:20.000Z</time>
      </trkpt>
      <trkpt lat="47.84498" lon="7.13059">
        <ele>902.59997558594</ele>
        <time>2019-11-10T10:21:21.000Z</time>
      </trkpt>
      <trkpt lat="47.845" lon="7.13056">
        <ele>903</ele>
        <time>2019-11-10T10:21:22.000Z</time>
      </trkpt>
      <trkpt lat="47.84503" lon="7.1305">
        <ele>903</ele>
        <time>2019-11-10T10:21:24.000Z</time>
      </trkpt>
      <trkpt lat="47.84504" lon="7.13047">
        <ele>903.59997558594</ele>
        <time>2019-11-10T10:21:25.000Z</time>
      </trkpt>
      <trkpt lat="47.84505" lon="7.13043">
        <ele>904</ele>
        <time>2019-11-10T10:21:26.000Z</time>
      </trkpt>
      <trkpt lat="47.84507" lon="7.1304">
        <ele>904.40002441406</ele>
        <time>2019-11-10T10:21:27.000Z</time>
      </trkpt>
      <trkpt lat="47.84508" lon="7.13036">
        <ele>904.79998779297</ele>
        <time>2019-11-10T10:21:28.000Z</time>
      </trkpt>
      <trkpt lat="47.84509" lon="7.13032">
        <ele>905.20001220703</ele>
        <time>2019-11-10T10:21:29.000Z</time>
      </trkpt>
      <trkpt lat="47.84511" lon="7.13025">
        <ele>905.20001220703</ele>
        <time>2019-11-10T10:21:31.000Z</time>
      </trkpt>
      <trkpt lat="47.84513" lon="7.13022">
        <ele>905.59997558594</ele>
        <time>2019-11-10T10:21:32.000Z</time>
      </trkpt>
      <trkpt lat="47.84514" lon="7.13018">
        <ele>906</ele>
        <time>2019-11-10T10:21:33.000Z</time>
      </trkpt>
      <trkpt lat="47.84515" lon="7.13015">
        <ele>906.59997558594</ele>
        <time>2019-11-10T10:21:34.000Z</time>
      </trkpt>
      <trkpt lat="47.84516" lon="7.13012">
        <ele>907</ele>
        <time>2019-11-10T10:21:35.000Z</time>
      </trkpt>
      <trkpt lat="47.84518" lon="7.13009">
        <ele>907.40002441406</ele>
        <time>2019-11-10T10:21:36.000Z</time>
      </trkpt>
      <trkpt lat="47.84519" lon="7.13006">
        <ele>907.40002441406</ele>
        <time>2019-11-10T10:21:37.000Z</time>
      </trkpt>
      <trkpt lat="47.84521" lon="7.12999">
        <ele>907.79998779297</ele>
        <time>2019-11-10T10:21:39.000Z</time>
      </trkpt>
      <trkpt lat="47.84522" lon="7.12997">
        <ele>908.59997558594</ele>
        <time>2019-11-10T10:21:40.000Z</time>
      </trkpt>
      <trkpt lat="47.84522" lon="7.12994">
        <ele>909</ele>
        <time>2019-11-10T10:21:41.000Z</time>
      </trkpt>
      <trkpt lat="47.84524" lon="7.12993">
        <ele>909.40002441406</ele>
        <time>2019-11-10T10:21:42.000Z</time>
      </trkpt>
      <trkpt lat="47.84526" lon="7.12989">
        <ele>909.40002441406</ele>
        <time>2019-11-10T10:21:45.000Z</time>
      </trkpt>
      <trkpt lat="47.84528" lon="7.12986">
        <ele>909.40002441406</ele>
        <time>2019-11-10T10:21:47.000Z</time>
      </trkpt>
      <trkpt lat="47.84529" lon="7.1298">
        <ele>909.40002441406</ele>
        <time>2019-11-10T10:21:51.000Z</time>
      </trkpt>
      <trkpt lat="47.84533" lon="7.12978">
        <ele>909.40002441406</ele>
        <time>2019-11-10T10:23:07.000Z</time>
      </trkpt>
      <trkpt lat="47.84539" lon="7.12971">
        <ele>909.40002441406</ele>
        <time>2019-11-10T10:23:11.000Z</time>
      </trkpt>
      <trkpt lat="47.84541" lon="7.12967">
        <ele>909.40002441406</ele>
        <time>2019-11-10T10:23:12.000Z</time>
      </trkpt>
      <trkpt lat="47.84555" lon="7.12947">
        <ele>909.40002441406</ele>
        <time>2019-11-10T10:23:17.000Z</time>
      </trkpt>
      <trkpt lat="47.84557" lon="7.12942">
        <ele>909</ele>
        <time>2019-11-10T10:23:18.000Z</time>
      </trkpt>
      <trkpt lat="47.84561" lon="7.12936">
        <ele>908.59997558594</ele>
        <time>2019-11-10T10:23:19.000Z</time>
      </trkpt>
      <trkpt lat="47.84564" lon="7.12931">
        <ele>908.20001220703</ele>
        <time>2019-11-10T10:23:20.000Z</time>
      </trkpt>
      <trkpt lat="47.84567" lon="7.12925">
        <ele>907.79998779297</ele>
        <time>2019-11-10T10:23:21.000Z</time>
      </trkpt>
      <trkpt lat="47.8457" lon="7.1292">
        <ele>907.20001220703</ele>
        <time>2019-11-10T10:23:22.000Z</time>
      </trkpt>
      <trkpt lat="47.84581" lon="7.1289">
        <ele>907.20001220703</ele>
        <time>2019-11-10T10:23:27.000Z</time>
      </trkpt>
      <trkpt lat="47.84582" lon="7.12877">
        <ele>907.20001220703</ele>
        <time>2019-11-10T10:23:29.000Z</time>
      </trkpt>
      <trkpt lat="47.84582" lon="7.12863">
        <ele>906.79998779297</ele>
        <time>2019-11-10T10:23:31.000Z</time>
      </trkpt>
      <trkpt lat="47.84581" lon="7.12858">
        <ele>906.40002441406</ele>
        <time>2019-11-10T10:23:32.000Z</time>
      </trkpt>
      <trkpt lat="47.84581" lon="7.12852">
        <ele>906</ele>
        <time>2019-11-10T10:23:33.000Z</time>
      </trkpt>
      <trkpt lat="47.84581" lon="7.12846">
        <ele>905.59997558594</ele>
        <time>2019-11-10T10:23:34.000Z</time>
      </trkpt>
      <trkpt lat="47.84581" lon="7.12841">
        <ele>905.20001220703</ele>
        <time>2019-11-10T10:23:35.000Z</time>
      </trkpt>
      <trkpt lat="47.84582" lon="7.12812">
        <ele>905.20001220703</ele>
        <time>2019-11-10T10:23:40.000Z</time>
      </trkpt>
      <trkpt lat="47.84582" lon="7.12778">
        <ele>905.20001220703</ele>
        <time>2019-11-10T10:23:45.000Z</time>
      </trkpt>
      <trkpt lat="47.84582" lon="7.12772">
        <ele>905.20001220703</ele>
        <time>2019-11-10T10:23:46.000Z</time>
      </trkpt>
      <trkpt lat="47.84587" lon="7.12741">
        <ele>905.20001220703</ele>
        <time>2019-11-10T10:23:51.000Z</time>
      </trkpt>
      <trkpt lat="47.84602" lon="7.12731">
        <ele>905.20001220703</ele>
        <time>2019-11-10T10:23:55.000Z</time>
      </trkpt>
      <trkpt lat="47.84618" lon="7.12737">
        <ele>905.20001220703</ele>
        <time>2019-11-10T10:24:00.000Z</time>
      </trkpt>
      <trkpt lat="47.84628" lon="7.12753">
        <ele>905.20001220703</ele>
        <time>2019-11-10T10:24:04.000Z</time>
      </trkpt>
      <trkpt lat="47.84642" lon="7.12777">
        <ele>905.20001220703</ele>
        <time>2019-11-10T10:24:10.000Z</time>
      </trkpt>
      <trkpt lat="47.84653" lon="7.12795">
        <ele>905.20001220703</ele>
        <time>2019-11-10T10:24:15.000Z</time>
      </trkpt>
      <trkpt lat="47.84671" lon="7.1282">
        <ele>905.20001220703</ele>
        <time>2019-11-10T10:24:21.000Z</time>
      </trkpt>
      <trkpt lat="47.84688" lon="7.12845">
        <ele>905.20001220703</ele>
        <time>2019-11-10T10:24:27.000Z</time>
      </trkpt>
      <trkpt lat="47.84691" lon="7.12849">
        <ele>905.20001220703</ele>
        <time>2019-11-10T10:24:28.000Z</time>
      </trkpt>
      <trkpt lat="47.84711" lon="7.12865">
        <ele>905.20001220703</ele>
        <time>2019-11-10T10:24:33.000Z</time>
      </trkpt>
      <trkpt lat="47.84716" lon="7.12868">
        <ele>905.20001220703</ele>
        <time>2019-11-10T10:24:34.000Z</time>
      </trkpt>
      <trkpt lat="47.84727" lon="7.12877">
        <ele>905.20001220703</ele>
        <time>2019-11-10T10:24:37.000Z</time>
      </trkpt>
      <trkpt lat="47.8474" lon="7.12885">
        <ele>905.20001220703</ele>
        <time>2019-11-10T10:24:40.000Z</time>
      </trkpt>
      <trkpt lat="47.84748" lon="7.12892">
        <ele>905.20001220703</ele>
        <time>2019-11-10T10:24:42.000Z</time>
      </trkpt>
      <trkpt lat="47.84757" lon="7.12899">
        <ele>905.20001220703</ele>
        <time>2019-11-10T10:24:45.000Z</time>
      </trkpt>
      <trkpt lat="47.84767" lon="7.12899">
        <ele>905.20001220703</ele>
        <time>2019-11-10T10:24:48.000Z</time>
      </trkpt>
      <trkpt lat="47.8477" lon="7.12896">
        <ele>905.20001220703</ele>
        <time>2019-11-10T10:24:49.000Z</time>
      </trkpt>
      <trkpt lat="47.84777" lon="7.12875">
        <ele>905.20001220703</ele>
        <time>2019-11-10T10:24:53.000Z</time>
      </trkpt>
      <trkpt lat="47.84783" lon="7.12842">
        <ele>905.20001220703</ele>
        <time>2019-11-10T10:24:58.000Z</time>
      </trkpt>
      <trkpt lat="47.84785" lon="7.12836">
        <ele>905.20001220703</ele>
        <time>2019-11-10T10:24:59.000Z</time>
      </trkpt>
      <trkpt lat="47.84787" lon="7.1283">
        <ele>905.20001220703</ele>
        <time>2019-11-10T10:25:00.000Z</time>
      </trkpt>
      <trkpt lat="47.84795" lon="7.12804">
        <ele>905.20001220703</ele>
        <time>2019-11-10T10:25:04.000Z</time>
      </trkpt>
      <trkpt lat="47.84804" lon="7.12777">
        <ele>905.20001220703</ele>
        <time>2019-11-10T10:25:08.000Z</time>
      </trkpt>
      <trkpt lat="47.84806" lon="7.12771">
        <ele>905.20001220703</ele>
        <time>2019-11-10T10:25:09.000Z</time>
      </trkpt>
      <trkpt lat="47.84809" lon="7.12764">
        <ele>905.20001220703</ele>
        <time>2019-11-10T10:25:10.000Z</time>
      </trkpt>
      <trkpt lat="47.8482" lon="7.12748">
        <ele>905.20001220703</ele>
        <time>2019-11-10T10:25:13.000Z</time>
      </trkpt>
      <trkpt lat="47.84832" lon="7.12737">
        <ele>905.20001220703</ele>
        <time>2019-11-10T10:25:16.000Z</time>
      </trkpt>
      <trkpt lat="47.84836" lon="7.12734">
        <ele>905.20001220703</ele>
        <time>2019-11-10T10:25:17.000Z</time>
      </trkpt>
      <trkpt lat="47.8486" lon="7.1272">
        <ele>905.20001220703</ele>
        <time>2019-11-10T10:25:22.000Z</time>
      </trkpt>
      <trkpt lat="47.84865" lon="7.12718">
        <ele>905.20001220703</ele>
        <time>2019-11-10T10:25:23.000Z</time>
      </trkpt>
      <trkpt lat="47.84879" lon="7.12712">
        <ele>905.20001220703</ele>
        <time>2019-11-10T10:25:26.000Z</time>
      </trkpt>
      <trkpt lat="47.84885" lon="7.12702">
        <ele>905.20001220703</ele>
        <time>2019-11-10T10:25:28.000Z</time>
      </trkpt>
      <trkpt lat="47.84883" lon="7.12683">
        <ele>905.20001220703</ele>
        <time>2019-11-10T10:25:31.000Z</time>
      </trkpt>
      <trkpt lat="47.84877" lon="7.12671">
        <ele>905.20001220703</ele>
        <time>2019-11-10T10:25:33.000Z</time>
      </trkpt>
      <trkpt lat="47.84865" lon="7.12645">
        <ele>905.20001220703</ele>
        <time>2019-11-10T10:25:37.000Z</time>
      </trkpt>
      <trkpt lat="47.84864" lon="7.12638">
        <ele>905.20001220703</ele>
        <time>2019-11-10T10:25:38.000Z</time>
      </trkpt>
      <trkpt lat="47.84864" lon="7.12617">
        <ele>905.20001220703</ele>
        <time>2019-11-10T10:25:41.000Z</time>
      </trkpt>
      <trkpt lat="47.84864" lon="7.12609">
        <ele>905.20001220703</ele>
        <time>2019-11-10T10:25:42.000Z</time>
      </trkpt>
      <trkpt lat="47.84866" lon="7.12574">
        <ele>905.20001220703</ele>
        <time>2019-11-10T10:25:47.000Z</time>
      </trkpt>
      <trkpt lat="47.84867" lon="7.12567">
        <ele>905.20001220703</ele>
        <time>2019-11-10T10:25:48.000Z</time>
      </trkpt>
      <trkpt lat="47.84876" lon="7.12533">
        <ele>905.20001220703</ele>
        <time>2019-11-10T10:25:53.000Z</time>
      </trkpt>
      <trkpt lat="47.84881" lon="7.12512">
        <ele>905.20001220703</ele>
        <time>2019-11-10T10:25:56.000Z</time>
      </trkpt>
      <trkpt lat="47.84887" lon="7.12492">
        <ele>905.20001220703</ele>
        <time>2019-11-10T10:25:59.000Z</time>
      </trkpt>
      <trkpt lat="47.8489" lon="7.12485">
        <ele>905.20001220703</ele>
        <time>2019-11-10T10:26:00.000Z</time>
      </trkpt>
      <trkpt lat="47.84896" lon="7.12474">
        <ele>905.20001220703</ele>
        <time>2019-11-10T10:26:02.000Z</time>
      </trkpt>
      <trkpt lat="47.84903" lon="7.12464">
        <ele>905.20001220703</ele>
        <time>2019-11-10T10:26:04.000Z</time>
      </trkpt>
      <trkpt lat="47.84909" lon="7.12453">
        <ele>905.20001220703</ele>
        <time>2019-11-10T10:26:06.000Z</time>
      </trkpt>
      <trkpt lat="47.84914" lon="7.12443">
        <ele>905.20001220703</ele>
        <time>2019-11-10T10:26:08.000Z</time>
      </trkpt>
      <trkpt lat="47.84917" lon="7.12437">
        <ele>905.20001220703</ele>
        <time>2019-11-10T10:26:09.000Z</time>
      </trkpt>
      <trkpt lat="47.84919" lon="7.12431">
        <ele>905.20001220703</ele>
        <time>2019-11-10T10:26:10.000Z</time>
      </trkpt>
      <trkpt lat="47.84925" lon="7.12409">
        <ele>905.20001220703</ele>
        <time>2019-11-10T10:26:14.000Z</time>
      </trkpt>
      <trkpt lat="47.84932" lon="7.12379">
        <ele>905.20001220703</ele>
        <time>2019-11-10T10:26:21.000Z</time>
      </trkpt>
      <trkpt lat="47.84936" lon="7.12345">
        <ele>905.20001220703</ele>
        <time>2019-11-10T10:26:27.000Z</time>
      </trkpt>
      <trkpt lat="47.84939" lon="7.12332">
        <ele>905.20001220703</ele>
        <time>2019-11-10T10:26:29.000Z</time>
      </trkpt>
      <trkpt lat="47.84941" lon="7.12312">
        <ele>905.20001220703</ele>
        <time>2019-11-10T10:26:32.000Z</time>
      </trkpt>
      <trkpt lat="47.84943" lon="7.12286">
        <ele>905.20001220703</ele>
        <time>2019-11-10T10:26:36.000Z</time>
      </trkpt>
      <trkpt lat="47.84944" lon="7.1228">
        <ele>905.20001220703</ele>
        <time>2019-11-10T10:26:37.000Z</time>
      </trkpt>
      <trkpt lat="47.84941" lon="7.12249">
        <ele>905.20001220703</ele>
        <time>2019-11-10T10:26:42.000Z</time>
      </trkpt>
      <trkpt lat="47.84933" lon="7.12232">
        <ele>905.20001220703</ele>
        <time>2019-11-10T10:26:45.000Z</time>
      </trkpt>
      <trkpt lat="47.84926" lon="7.12223">
        <ele>905.20001220703</ele>
        <time>2019-11-10T10:26:47.000Z</time>
      </trkpt>
      <trkpt lat="47.84904" lon="7.12201">
        <ele>905.20001220703</ele>
        <time>2019-11-10T10:26:53.000Z</time>
      </trkpt>
      <trkpt lat="47.84901" lon="7.12197">
        <ele>905.20001220703</ele>
        <time>2019-11-10T10:26:54.000Z</time>
      </trkpt>
      <trkpt lat="47.84886" lon="7.12182">
        <ele>905.20001220703</ele>
        <time>2019-11-10T10:26:58.000Z</time>
      </trkpt>
      <trkpt lat="47.84878" lon="7.12173">
        <ele>905.20001220703</ele>
        <time>2019-11-10T10:27:00.000Z</time>
      </trkpt>
      <trkpt lat="47.84871" lon="7.12163">
        <ele>905.20001220703</ele>
        <time>2019-11-10T10:27:02.000Z</time>
      </trkpt>
      <trkpt lat="47.84865" lon="7.12152">
        <ele>905.20001220703</ele>
        <time>2019-11-10T10:27:04.000Z</time>
      </trkpt>
      <trkpt lat="47.84863" lon="7.12145">
        <ele>905.20001220703</ele>
        <time>2019-11-10T10:27:05.000Z</time>
      </trkpt>
      <trkpt lat="47.8486" lon="7.12124">
        <ele>905.20001220703</ele>
        <time>2019-11-10T10:27:08.000Z</time>
      </trkpt>
      <trkpt lat="47.84859" lon="7.12117">
        <ele>905.20001220703</ele>
        <time>2019-11-10T10:27:09.000Z</time>
      </trkpt>
      <trkpt lat="47.84859" lon="7.1211">
        <ele>905.20001220703</ele>
        <time>2019-11-10T10:27:10.000Z</time>
      </trkpt>
      <trkpt lat="47.84861" lon="7.1209">
        <ele>905.20001220703</ele>
        <time>2019-11-10T10:27:13.000Z</time>
      </trkpt>
      <trkpt lat="47.84864" lon="7.12077">
        <ele>905.20001220703</ele>
        <time>2019-11-10T10:27:15.000Z</time>
      </trkpt>
      <trkpt lat="47.84869" lon="7.12059">
        <ele>905.20001220703</ele>
        <time>2019-11-10T10:27:18.000Z</time>
      </trkpt>
      <trkpt lat="47.84871" lon="7.12053">
        <ele>905.20001220703</ele>
        <time>2019-11-10T10:27:19.000Z</time>
      </trkpt>
      <trkpt lat="47.84879" lon="7.12028">
        <ele>905.20001220703</ele>
        <time>2019-11-10T10:27:23.000Z</time>
      </trkpt>
      <trkpt lat="47.84881" lon="7.12022">
        <ele>905.20001220703</ele>
        <time>2019-11-10T10:27:24.000Z</time>
      </trkpt>
      <trkpt lat="47.84883" lon="7.12015">
        <ele>905.20001220703</ele>
        <time>2019-11-10T10:27:25.000Z</time>
      </trkpt>
      <trkpt lat="47.84886" lon="7.11996">
        <ele>905.20001220703</ele>
        <time>2019-11-10T10:27:28.000Z</time>
      </trkpt>
      <trkpt lat="47.84886" lon="7.11989">
        <ele>905.20001220703</ele>
        <time>2019-11-10T10:27:29.000Z</time>
      </trkpt>
      <trkpt lat="47.84886" lon="7.11967">
        <ele>905.20001220703</ele>
        <time>2019-11-10T10:27:32.000Z</time>
      </trkpt>
      <trkpt lat="47.84886" lon="7.11959">
        <ele>905.20001220703</ele>
        <time>2019-11-10T10:27:33.000Z</time>
      </trkpt>
      <trkpt lat="47.84884" lon="7.1192">
        <ele>905.59997558594</ele>
        <time>2019-11-10T10:27:38.000Z</time>
      </trkpt>
      <trkpt lat="47.84884" lon="7.11911">
        <ele>906</ele>
        <time>2019-11-10T10:27:39.000Z</time>
      </trkpt>
      <trkpt lat="47.84884" lon="7.11903">
        <ele>906.40002441406</ele>
        <time>2019-11-10T10:27:40.000Z</time>
      </trkpt>
      <trkpt lat="47.84884" lon="7.11896">
        <ele>906.79998779297</ele>
        <time>2019-11-10T10:27:41.000Z</time>
      </trkpt>
      <trkpt lat="47.84884" lon="7.11888">
        <ele>907.20001220703</ele>
        <time>2019-11-10T10:27:42.000Z</time>
      </trkpt>
      <trkpt lat="47.84883" lon="7.11873">
        <ele>907.20001220703</ele>
        <time>2019-11-10T10:27:44.000Z</time>
      </trkpt>
      <trkpt lat="47.84878" lon="7.11827">
        <ele>907.20001220703</ele>
        <time>2019-11-10T10:27:50.000Z</time>
      </trkpt>
      <trkpt lat="47.84875" lon="7.11803">
        <ele>907.20001220703</ele>
        <time>2019-11-10T10:27:54.000Z</time>
      </trkpt>
      <trkpt lat="47.84877" lon="7.11784">
        <ele>907.20001220703</ele>
        <time>2019-11-10T10:27:59.000Z</time>
      </trkpt>
      <trkpt lat="47.84876" lon="7.11773">
        <ele>907.20001220703</ele>
        <time>2019-11-10T10:28:04.000Z</time>
      </trkpt>
      <trkpt lat="47.84875" lon="7.11772">
        <ele>907.20001220703</ele>
        <time>2019-11-10T10:28:06.000Z</time>
      </trkpt>
      <trkpt lat="47.84872" lon="7.11774">
        <ele>907.20001220703</ele>
        <time>2019-11-10T10:29:12.000Z</time>
      </trkpt>
      <trkpt lat="47.8487" lon="7.11775">
        <ele>907.20001220703</ele>
        <time>2019-11-10T10:29:13.000Z</time>
      </trkpt>
      <trkpt lat="47.84859" lon="7.11782">
        <ele>907.20001220703</ele>
        <time>2019-11-10T10:29:18.000Z</time>
      </trkpt>
      <trkpt lat="47.84856" lon="7.11781">
        <ele>907.20001220703</ele>
        <time>2019-11-10T10:29:19.000Z</time>
      </trkpt>
      <trkpt lat="47.84852" lon="7.11781">
        <ele>906.79998779297</ele>
        <time>2019-11-10T10:29:20.000Z</time>
      </trkpt>
      <trkpt lat="47.84846" lon="7.1178">
        <ele>906.40002441406</ele>
        <time>2019-11-10T10:29:21.000Z</time>
      </trkpt>
      <trkpt lat="47.8484" lon="7.11779">
        <ele>905.79998779297</ele>
        <time>2019-11-10T10:29:22.000Z</time>
      </trkpt>
      <trkpt lat="47.84833" lon="7.11777">
        <ele>905</ele>
        <time>2019-11-10T10:29:23.000Z</time>
      </trkpt>
      <trkpt lat="47.84827" lon="7.11774">
        <ele>904.20001220703</ele>
        <time>2019-11-10T10:29:24.000Z</time>
      </trkpt>
      <trkpt lat="47.84821" lon="7.11771">
        <ele>903.40002441406</ele>
        <time>2019-11-10T10:29:25.000Z</time>
      </trkpt>
      <trkpt lat="47.84814" lon="7.11767">
        <ele>902.59997558594</ele>
        <time>2019-11-10T10:29:26.000Z</time>
      </trkpt>
      <trkpt lat="47.84806" lon="7.11763">
        <ele>902</ele>
        <time>2019-11-10T10:29:27.000Z</time>
      </trkpt>
      <trkpt lat="47.84799" lon="7.1176">
        <ele>901.20001220703</ele>
        <time>2019-11-10T10:29:28.000Z</time>
      </trkpt>
      <trkpt lat="47.84791" lon="7.11756">
        <ele>900.40002441406</ele>
        <time>2019-11-10T10:29:29.000Z</time>
      </trkpt>
      <trkpt lat="47.84783" lon="7.11752">
        <ele>899.20001220703</ele>
        <time>2019-11-10T10:29:30.000Z</time>
      </trkpt>
      <trkpt lat="47.84774" lon="7.11747">
        <ele>898.59997558594</ele>
        <time>2019-11-10T10:29:31.000Z</time>
      </trkpt>
      <trkpt lat="47.84766" lon="7.11742">
        <ele>897.79998779297</ele>
        <time>2019-11-10T10:29:32.000Z</time>
      </trkpt>
      <trkpt lat="47.84757" lon="7.11738">
        <ele>897</ele>
        <time>2019-11-10T10:29:33.000Z</time>
      </trkpt>
      <trkpt lat="47.84748" lon="7.11732">
        <ele>896.40002441406</ele>
        <time>2019-11-10T10:29:34.000Z</time>
      </trkpt>
      <trkpt lat="47.8474" lon="7.11726">
        <ele>895.59997558594</ele>
        <time>2019-11-10T10:29:35.000Z</time>
      </trkpt>
      <trkpt lat="47.84732" lon="7.1172">
        <ele>895</ele>
        <time>2019-11-10T10:29:36.000Z</time>
      </trkpt>
      <trkpt lat="47.84705" lon="7.11695">
        <ele>895</ele>
        <time>2019-11-10T10:29:40.000Z</time>
      </trkpt>
      <trkpt lat="47.84692" lon="7.11688">
        <ele>894.40002441406</ele>
        <time>2019-11-10T10:29:42.000Z</time>
      </trkpt>
      <trkpt lat="47.84685" lon="7.11687">
        <ele>894</ele>
        <time>2019-11-10T10:29:43.000Z</time>
      </trkpt>
      <trkpt lat="47.84677" lon="7.11686">
        <ele>893.59997558594</ele>
        <time>2019-11-10T10:29:44.000Z</time>
      </trkpt>
      <trkpt lat="47.84669" lon="7.11684">
        <ele>893</ele>
        <time>2019-11-10T10:29:45.000Z</time>
      </trkpt>
      <trkpt lat="47.8466" lon="7.11684">
        <ele>892.20001220703</ele>
        <time>2019-11-10T10:29:46.000Z</time>
      </trkpt>
      <trkpt lat="47.8465" lon="7.11683">
        <ele>891.20001220703</ele>
        <time>2019-11-10T10:29:47.000Z</time>
      </trkpt>
      <trkpt lat="47.84639" lon="7.11682">
        <ele>889.79998779297</ele>
        <time>2019-11-10T10:29:48.000Z</time>
      </trkpt>
      <trkpt lat="47.84629" lon="7.11681">
        <ele>888.40002441406</ele>
        <time>2019-11-10T10:29:49.000Z</time>
      </trkpt>
      <trkpt lat="47.84619" lon="7.11681">
        <ele>887.20001220703</ele>
        <time>2019-11-10T10:29:50.000Z</time>
      </trkpt>
      <trkpt lat="47.84609" lon="7.11682">
        <ele>886</ele>
        <time>2019-11-10T10:29:51.000Z</time>
      </trkpt>
      <trkpt lat="47.84599" lon="7.11684">
        <ele>884.59997558594</ele>
        <time>2019-11-10T10:29:52.000Z</time>
      </trkpt>
      <trkpt lat="47.84589" lon="7.11688">
        <ele>883.59997558594</ele>
        <time>2019-11-10T10:29:53.000Z</time>
      </trkpt>
      <trkpt lat="47.8458" lon="7.11691">
        <ele>882.59997558594</ele>
        <time>2019-11-10T10:29:54.000Z</time>
      </trkpt>
      <trkpt lat="47.84571" lon="7.11694">
        <ele>880.59997558594</ele>
        <time>2019-11-10T10:29:55.000Z</time>
      </trkpt>
      <trkpt lat="47.84561" lon="7.11694">
        <ele>879.59997558594</ele>
        <time>2019-11-10T10:29:56.000Z</time>
      </trkpt>
      <trkpt lat="47.84545" lon="7.11691">
        <ele>879.59997558594</ele>
        <time>2019-11-10T10:29:58.000Z</time>
      </trkpt>
      <trkpt lat="47.84508" lon="7.11687">
        <ele>879.59997558594</ele>
        <time>2019-11-10T10:30:03.000Z</time>
      </trkpt>
      <trkpt lat="47.84482" lon="7.11683">
        <ele>879.59997558594</ele>
        <time>2019-11-10T10:30:07.000Z</time>
      </trkpt>
      <trkpt lat="47.84462" lon="7.11682">
        <ele>879.20001220703</ele>
        <time>2019-11-10T10:30:10.000Z</time>
      </trkpt>
      <trkpt lat="47.84456" lon="7.11681">
        <ele>878.79998779297</ele>
        <time>2019-11-10T10:30:11.000Z</time>
      </trkpt>
      <trkpt lat="47.84448" lon="7.11681">
        <ele>878.40002441406</ele>
        <time>2019-11-10T10:30:12.000Z</time>
      </trkpt>
      <trkpt lat="47.84441" lon="7.11681">
        <ele>877.79998779297</ele>
        <time>2019-11-10T10:30:13.000Z</time>
      </trkpt>
      <trkpt lat="47.84433" lon="7.11681">
        <ele>877.40002441406</ele>
        <time>2019-11-10T10:30:14.000Z</time>
      </trkpt>
      <trkpt lat="47.84426" lon="7.11681">
        <ele>876.79998779297</ele>
        <time>2019-11-10T10:30:15.000Z</time>
      </trkpt>
      <trkpt lat="47.84418" lon="7.11681">
        <ele>876.20001220703</ele>
        <time>2019-11-10T10:30:16.000Z</time>
      </trkpt>
      <trkpt lat="47.84412" lon="7.11681">
        <ele>875.59997558594</ele>
        <time>2019-11-10T10:30:17.000Z</time>
      </trkpt>
      <trkpt lat="47.84405" lon="7.11681">
        <ele>875</ele>
        <time>2019-11-10T10:30:18.000Z</time>
      </trkpt>
      <trkpt lat="47.84399" lon="7.11683">
        <ele>875</ele>
        <time>2019-11-10T10:30:19.000Z</time>
      </trkpt>
      <trkpt lat="47.84377" lon="7.11681">
        <ele>875</ele>
        <time>2019-11-10T10:30:22.000Z</time>
      </trkpt>
      <trkpt lat="47.8437" lon="7.11678">
        <ele>875</ele>
        <time>2019-11-10T10:30:23.000Z</time>
      </trkpt>
      <trkpt lat="47.84355" lon="7.11659">
        <ele>875</ele>
        <time>2019-11-10T10:30:26.000Z</time>
      </trkpt>
      <trkpt lat="47.84351" lon="7.11653">
        <ele>875</ele>
        <time>2019-11-10T10:30:27.000Z</time>
      </trkpt>
      <trkpt lat="47.84329" lon="7.1163">
        <ele>874.59997558594</ele>
        <time>2019-11-10T10:30:31.000Z</time>
      </trkpt>
      <trkpt lat="47.84323" lon="7.11626">
        <ele>874.20001220703</ele>
        <time>2019-11-10T10:30:32.000Z</time>
      </trkpt>
      <trkpt lat="47.84318" lon="7.11622">
        <ele>873.79998779297</ele>
        <time>2019-11-10T10:30:33.000Z</time>
      </trkpt>
      <trkpt lat="47.84313" lon="7.11618">
        <ele>873.40002441406</ele>
        <time>2019-11-10T10:30:34.000Z</time>
      </trkpt>
      <trkpt lat="47.84307" lon="7.11615">
        <ele>873</ele>
        <time>2019-11-10T10:30:35.000Z</time>
      </trkpt>
      <trkpt lat="47.84302" lon="7.1161">
        <ele>872.40002441406</ele>
        <time>2019-11-10T10:30:36.000Z</time>
      </trkpt>
      <trkpt lat="47.84296" lon="7.11604">
        <ele>871.79998779297</ele>
        <time>2019-11-10T10:30:37.000Z</time>
      </trkpt>
      <trkpt lat="47.8429" lon="7.11596">
        <ele>871.40002441406</ele>
        <time>2019-11-10T10:30:38.000Z</time>
      </trkpt>
      <trkpt lat="47.84284" lon="7.11588">
        <ele>870.79998779297</ele>
        <time>2019-11-10T10:30:39.000Z</time>
      </trkpt>
      <trkpt lat="47.84278" lon="7.11582">
        <ele>870.20001220703</ele>
        <time>2019-11-10T10:30:40.000Z</time>
      </trkpt>
      <trkpt lat="47.84271" lon="7.11576">
        <ele>869.79998779297</ele>
        <time>2019-11-10T10:30:41.000Z</time>
      </trkpt>
      <trkpt lat="47.84263" lon="7.1157">
        <ele>869</ele>
        <time>2019-11-10T10:30:42.000Z</time>
      </trkpt>
      <trkpt lat="47.84255" lon="7.11563">
        <ele>867.20001220703</ele>
        <time>2019-11-10T10:30:43.000Z</time>
      </trkpt>
      <trkpt lat="47.84247" lon="7.11556">
        <ele>866.20001220703</ele>
        <time>2019-11-10T10:30:44.000Z</time>
      </trkpt>
      <trkpt lat="47.84238" lon="7.11548">
        <ele>865.40002441406</ele>
        <time>2019-11-10T10:30:45.000Z</time>
      </trkpt>
      <trkpt lat="47.84229" lon="7.1154">
        <ele>864.59997558594</ele>
        <time>2019-11-10T10:30:46.000Z</time>
      </trkpt>
      <trkpt lat="47.8422" lon="7.11533">
        <ele>863.59997558594</ele>
        <time>2019-11-10T10:30:47.000Z</time>
      </trkpt>
      <trkpt lat="47.84212" lon="7.11525">
        <ele>862.79998779297</ele>
        <time>2019-11-10T10:30:48.000Z</time>
      </trkpt>
      <trkpt lat="47.84203" lon="7.11516">
        <ele>862</ele>
        <time>2019-11-10T10:30:49.000Z</time>
      </trkpt>
      <trkpt lat="47.84194" lon="7.11507">
        <ele>861.20001220703</ele>
        <time>2019-11-10T10:30:50.000Z</time>
      </trkpt>
      <trkpt lat="47.84186" lon="7.11496">
        <ele>860.20001220703</ele>
        <time>2019-11-10T10:30:51.000Z</time>
      </trkpt>
      <trkpt lat="47.84178" lon="7.11487">
        <ele>859.40002441406</ele>
        <time>2019-11-10T10:30:52.000Z</time>
      </trkpt>
      <trkpt lat="47.8417" lon="7.11478">
        <ele>858.59997558594</ele>
        <time>2019-11-10T10:30:53.000Z</time>
      </trkpt>
      <trkpt lat="47.84161" lon="7.11469">
        <ele>857.79998779297</ele>
        <time>2019-11-10T10:30:54.000Z</time>
      </trkpt>
      <trkpt lat="47.84153" lon="7.11461">
        <ele>857</ele>
        <time>2019-11-10T10:30:55.000Z</time>
      </trkpt>
      <trkpt lat="47.84145" lon="7.11452">
        <ele>856.40002441406</ele>
        <time>2019-11-10T10:30:56.000Z</time>
      </trkpt>
      <trkpt lat="47.84136" lon="7.11445">
        <ele>855.79998779297</ele>
        <time>2019-11-10T10:30:57.000Z</time>
      </trkpt>
      <trkpt lat="47.84128" lon="7.11438">
        <ele>855.20001220703</ele>
        <time>2019-11-10T10:30:58.000Z</time>
      </trkpt>
      <trkpt lat="47.84119" lon="7.11434">
        <ele>854.40002441406</ele>
        <time>2019-11-10T10:30:59.000Z</time>
      </trkpt>
      <trkpt lat="47.84114" lon="7.11433">
        <ele>853.59997558594</ele>
        <time>2019-11-10T10:31:00.000Z</time>
      </trkpt>
      <trkpt lat="47.8411" lon="7.11434">
        <ele>853</ele>
        <time>2019-11-10T10:31:01.000Z</time>
      </trkpt>
      <trkpt lat="47.84107" lon="7.11436">
        <ele>853</ele>
        <time>2019-11-10T10:31:02.000Z</time>
      </trkpt>
      <trkpt lat="47.84105" lon="7.11439">
        <ele>853.20001220703</ele>
        <time>2019-11-10T10:31:03.000Z</time>
      </trkpt>
      <trkpt lat="47.84103" lon="7.1144">
        <ele>853.40002441406</ele>
        <time>2019-11-10T10:31:04.000Z</time>
      </trkpt>
      <trkpt lat="47.84101" lon="7.11442">
        <ele>853.59997558594</ele>
        <time>2019-11-10T10:31:05.000Z</time>
      </trkpt>
      <trkpt lat="47.841" lon="7.11442">
        <ele>853.79998779297</ele>
        <time>2019-11-10T10:31:06.000Z</time>
      </trkpt>
      <trkpt lat="47.841" lon="7.11442">
        <ele>853.79998779297</ele>
        <time>2019-11-10T10:31:07.000Z</time>
      </trkpt>
      <trkpt lat="47.841" lon="7.11442">
        <ele>853.79998779297</ele>
        <time>2019-11-10T10:31:08.000Z</time>
      </trkpt>
      <trkpt lat="47.84095" lon="7.11444">
        <ele>853.79998779297</ele>
        <time>2019-11-10T10:31:32.000Z</time>
      </trkpt>
      <trkpt lat="47.84091" lon="7.11447">
        <ele>853.79998779297</ele>
        <time>2019-11-10T10:31:33.000Z</time>
      </trkpt>
      <trkpt lat="47.84081" lon="7.11453">
        <ele>853.20001220703</ele>
        <time>2019-11-10T10:31:35.000Z</time>
      </trkpt>
      <trkpt lat="47.84076" lon="7.11455">
        <ele>852.79998779297</ele>
        <time>2019-11-10T10:31:36.000Z</time>
      </trkpt>
      <trkpt lat="47.84072" lon="7.11458">
        <ele>852.40002441406</ele>
        <time>2019-11-10T10:31:37.000Z</time>
      </trkpt>
      <trkpt lat="47.84066" lon="7.11461">
        <ele>852</ele>
        <time>2019-11-10T10:31:38.000Z</time>
      </trkpt>
      <trkpt lat="47.84061" lon="7.11464">
        <ele>851.40002441406</ele>
        <time>2019-11-10T10:31:39.000Z</time>
      </trkpt>
      <trkpt lat="47.84051" lon="7.11472">
        <ele>851</ele>
        <time>2019-11-10T10:31:42.000Z</time>
      </trkpt>
      <trkpt lat="47.84048" lon="7.11473">
        <ele>850.59997558594</ele>
        <time>2019-11-10T10:31:43.000Z</time>
      </trkpt>
      <trkpt lat="47.84045" lon="7.11475">
        <ele>850.20001220703</ele>
        <time>2019-11-10T10:31:44.000Z</time>
      </trkpt>
      <trkpt lat="47.84043" lon="7.11477">
        <ele>849.79998779297</ele>
        <time>2019-11-10T10:31:45.000Z</time>
      </trkpt>
      <trkpt lat="47.84041" lon="7.11478">
        <ele>849.40002441406</ele>
        <time>2019-11-10T10:31:46.000Z</time>
      </trkpt>
      <trkpt lat="47.84036" lon="7.1148">
        <ele>849.40002441406</ele>
        <time>2019-11-10T10:31:48.000Z</time>
      </trkpt>
      <trkpt lat="47.84027" lon="7.11486">
        <ele>849.40002441406</ele>
        <time>2019-11-10T10:31:51.000Z</time>
      </trkpt>
      <trkpt lat="47.84023" lon="7.11492">
        <ele>849.40002441406</ele>
        <time>2019-11-10T10:31:52.000Z</time>
      </trkpt>
      <trkpt lat="47.84019" lon="7.11496">
        <ele>848.79998779297</ele>
        <time>2019-11-10T10:31:53.000Z</time>
      </trkpt>
      <trkpt lat="47.84015" lon="7.115">
        <ele>848.40002441406</ele>
        <time>2019-11-10T10:31:54.000Z</time>
      </trkpt>
      <trkpt lat="47.84012" lon="7.11504">
        <ele>848</ele>
        <time>2019-11-10T10:31:55.000Z</time>
      </trkpt>
      <trkpt lat="47.8401" lon="7.11508">
        <ele>847.40002441406</ele>
        <time>2019-11-10T10:31:56.000Z</time>
      </trkpt>
      <trkpt lat="47.84008" lon="7.11512">
        <ele>847</ele>
        <time>2019-11-10T10:31:57.000Z</time>
      </trkpt>
      <trkpt lat="47.84002" lon="7.11522">
        <ele>847</ele>
        <time>2019-11-10T10:31:59.000Z</time>
      </trkpt>
      <trkpt lat="47.83997" lon="7.11533">
        <ele>847</ele>
        <time>2019-11-10T10:32:01.000Z</time>
      </trkpt>
      <trkpt lat="47.83989" lon="7.11551">
        <ele>847</ele>
        <time>2019-11-10T10:32:04.000Z</time>
      </trkpt>
      <trkpt lat="47.8398" lon="7.11568">
        <ele>847</ele>
        <time>2019-11-10T10:32:07.000Z</time>
      </trkpt>
      <trkpt lat="47.83971" lon="7.11586">
        <ele>846.59997558594</ele>
        <time>2019-11-10T10:32:10.000Z</time>
      </trkpt>
      <trkpt lat="47.83967" lon="7.11592">
        <ele>846.20001220703</ele>
        <time>2019-11-10T10:32:11.000Z</time>
      </trkpt>
      <trkpt lat="47.83964" lon="7.116">
        <ele>845.79998779297</ele>
        <time>2019-11-10T10:32:12.000Z</time>
      </trkpt>
      <trkpt lat="47.8396" lon="7.11607">
        <ele>845.40002441406</ele>
        <time>2019-11-10T10:32:13.000Z</time>
      </trkpt>
      <trkpt lat="47.83956" lon="7.11616">
        <ele>844.79998779297</ele>
        <time>2019-11-10T10:32:14.000Z</time>
      </trkpt>
      <trkpt lat="47.83952" lon="7.11626">
        <ele>844.20001220703</ele>
        <time>2019-11-10T10:32:15.000Z</time>
      </trkpt>
      <trkpt lat="47.83946" lon="7.11637">
        <ele>843.59997558594</ele>
        <time>2019-11-10T10:32:16.000Z</time>
      </trkpt>
      <trkpt lat="47.83941" lon="7.11647">
        <ele>842.79998779297</ele>
        <time>2019-11-10T10:32:17.000Z</time>
      </trkpt>
      <trkpt lat="47.83936" lon="7.11658">
        <ele>842</ele>
        <time>2019-11-10T10:32:18.000Z</time>
      </trkpt>
      <trkpt lat="47.83932" lon="7.11669">
        <ele>841.40002441406</ele>
        <time>2019-11-10T10:32:19.000Z</time>
      </trkpt>
      <trkpt lat="47.83928" lon="7.11681">
        <ele>840.40002441406</ele>
        <time>2019-11-10T10:32:20.000Z</time>
      </trkpt>
      <trkpt lat="47.83923" lon="7.11694">
        <ele>839.59997558594</ele>
        <time>2019-11-10T10:32:21.000Z</time>
      </trkpt>
      <trkpt lat="47.83919" lon="7.11705">
        <ele>837.59997558594</ele>
        <time>2019-11-10T10:32:22.000Z</time>
      </trkpt>
      <trkpt lat="47.83914" lon="7.11718">
        <ele>836.40002441406</ele>
        <time>2019-11-10T10:32:23.000Z</time>
      </trkpt>
      <trkpt lat="47.8391" lon="7.1173">
        <ele>835.40002441406</ele>
        <time>2019-11-10T10:32:24.000Z</time>
      </trkpt>
      <trkpt lat="47.83906" lon="7.11741">
        <ele>834</ele>
        <time>2019-11-10T10:32:25.000Z</time>
      </trkpt>
      <trkpt lat="47.83903" lon="7.11752">
        <ele>832.59997558594</ele>
        <time>2019-11-10T10:32:26.000Z</time>
      </trkpt>
      <trkpt lat="47.83901" lon="7.11763">
        <ele>831.40002441406</ele>
        <time>2019-11-10T10:32:27.000Z</time>
      </trkpt>
      <trkpt lat="47.839" lon="7.11774">
        <ele>830</ele>
        <time>2019-11-10T10:32:28.000Z</time>
      </trkpt>
      <trkpt lat="47.83901" lon="7.11783">
        <ele>828.79998779297</ele>
        <time>2019-11-10T10:32:29.000Z</time>
      </trkpt>
      <trkpt lat="47.83901" lon="7.11793">
        <ele>827.79998779297</ele>
        <time>2019-11-10T10:32:30.000Z</time>
      </trkpt>
      <trkpt lat="47.83901" lon="7.11802">
        <ele>826.79998779297</ele>
        <time>2019-11-10T10:32:31.000Z</time>
      </trkpt>
      <trkpt lat="47.83901" lon="7.11812">
        <ele>825.79998779297</ele>
        <time>2019-11-10T10:32:32.000Z</time>
      </trkpt>
      <trkpt lat="47.839" lon="7.11821">
        <ele>824.79998779297</ele>
        <time>2019-11-10T10:32:33.000Z</time>
      </trkpt>
      <trkpt lat="47.83898" lon="7.11831">
        <ele>824</ele>
        <time>2019-11-10T10:32:34.000Z</time>
      </trkpt>
      <trkpt lat="47.83896" lon="7.11841">
        <ele>822.79998779297</ele>
        <time>2019-11-10T10:32:35.000Z</time>
      </trkpt>
      <trkpt lat="47.83894" lon="7.11852">
        <ele>821.59997558594</ele>
        <time>2019-11-10T10:32:36.000Z</time>
      </trkpt>
      <trkpt lat="47.83891" lon="7.11863">
        <ele>820.40002441406</ele>
        <time>2019-11-10T10:32:37.000Z</time>
      </trkpt>
      <trkpt lat="47.83889" lon="7.11875">
        <ele>819.20001220703</ele>
        <time>2019-11-10T10:32:38.000Z</time>
      </trkpt>
      <trkpt lat="47.83886" lon="7.11887">
        <ele>817.79998779297</ele>
        <time>2019-11-10T10:32:39.000Z</time>
      </trkpt>
      <trkpt lat="47.83882" lon="7.11898">
        <ele>816.40002441406</ele>
        <time>2019-11-10T10:32:40.000Z</time>
      </trkpt>
      <trkpt lat="47.83876" lon="7.11909">
        <ele>815</ele>
        <time>2019-11-10T10:32:41.000Z</time>
      </trkpt>
      <trkpt lat="47.8387" lon="7.11918">
        <ele>813.40002441406</ele>
        <time>2019-11-10T10:32:42.000Z</time>
      </trkpt>
      <trkpt lat="47.83865" lon="7.11925">
        <ele>812</ele>
        <time>2019-11-10T10:32:43.000Z</time>
      </trkpt>
      <trkpt lat="47.83861" lon="7.11931">
        <ele>810.59997558594</ele>
        <time>2019-11-10T10:32:44.000Z</time>
      </trkpt>
      <trkpt lat="47.83858" lon="7.11932">
        <ele>809.20001220703</ele>
        <time>2019-11-10T10:32:45.000Z</time>
      </trkpt>
      <trkpt lat="47.83855" lon="7.11934">
        <ele>807.79998779297</ele>
        <time>2019-11-10T10:32:46.000Z</time>
      </trkpt>
      <trkpt lat="47.83852" lon="7.11936">
        <ele>806</ele>
        <time>2019-11-10T10:32:47.000Z</time>
      </trkpt>
      <trkpt lat="47.83849" lon="7.11937">
        <ele>805.59997558594</ele>
        <time>2019-11-10T10:32:48.000Z</time>
      </trkpt>
      <trkpt lat="47.83844" lon="7.11937">
        <ele>805</ele>
        <time>2019-11-10T10:32:49.000Z</time>
      </trkpt>
      <trkpt lat="47.8384" lon="7.11937">
        <ele>804.59997558594</ele>
        <time>2019-11-10T10:32:50.000Z</time>
      </trkpt>
      <trkpt lat="47.83835" lon="7.11937">
        <ele>804</ele>
        <time>2019-11-10T10:32:51.000Z</time>
      </trkpt>
      <trkpt lat="47.8383" lon="7.11938">
        <ele>803.40002441406</ele>
        <time>2019-11-10T10:32:52.000Z</time>
      </trkpt>
      <trkpt lat="47.83824" lon="7.11938">
        <ele>803</ele>
        <time>2019-11-10T10:32:53.000Z</time>
      </trkpt>
      <trkpt lat="47.83819" lon="7.11939">
        <ele>802.40002441406</ele>
        <time>2019-11-10T10:32:54.000Z</time>
      </trkpt>
      <trkpt lat="47.83813" lon="7.11939">
        <ele>802</ele>
        <time>2019-11-10T10:32:55.000Z</time>
      </trkpt>
      <trkpt lat="47.83803" lon="7.1194">
        <ele>801.59997558594</ele>
        <time>2019-11-10T10:32:57.000Z</time>
      </trkpt>
      <trkpt lat="47.83797" lon="7.11939">
        <ele>801</ele>
        <time>2019-11-10T10:32:58.000Z</time>
      </trkpt>
      <trkpt lat="47.83791" lon="7.1194">
        <ele>800.59997558594</ele>
        <time>2019-11-10T10:32:59.000Z</time>
      </trkpt>
      <trkpt lat="47.83786" lon="7.11939">
        <ele>800.20001220703</ele>
        <time>2019-11-10T10:33:00.000Z</time>
      </trkpt>
      <trkpt lat="47.8378" lon="7.11938">
        <ele>799.79998779297</ele>
        <time>2019-11-10T10:33:01.000Z</time>
      </trkpt>
      <trkpt lat="47.83769" lon="7.11936">
        <ele>799.40002441406</ele>
        <time>2019-11-10T10:33:03.000Z</time>
      </trkpt>
      <trkpt lat="47.83766" lon="7.11936">
        <ele>799</ele>
        <time>2019-11-10T10:33:04.000Z</time>
      </trkpt>
      <trkpt lat="47.83766" lon="7.11936">
        <ele>798.40002441406</ele>
        <time>2019-11-10T10:33:05.000Z</time>
      </trkpt>
      <trkpt lat="47.83766" lon="7.11936">
        <ele>798</ele>
        <time>2019-11-10T10:33:06.000Z</time>
      </trkpt>
      <trkpt lat="47.8376" lon="7.11926">
        <ele>797.59997558594</ele>
        <time>2019-11-10T10:33:35.000Z</time>
      </trkpt>
      <trkpt lat="47.83757" lon="7.11921">
        <ele>797.59997558594</ele>
        <time>2019-11-10T10:33:37.000Z</time>
      </trkpt>
      <trkpt lat="47.83752" lon="7.11912">
        <ele>797.59997558594</ele>
        <time>2019-11-10T10:33:40.000Z</time>
      </trkpt>
      <trkpt lat="47.83747" lon="7.11901">
        <ele>797.59997558594</ele>
        <time>2019-11-10T10:33:43.000Z</time>
      </trkpt>
      <trkpt lat="47.83737" lon="7.11876">
        <ele>797.59997558594</ele>
        <time>2019-11-10T10:33:49.000Z</time>
      </trkpt>
      <trkpt lat="47.83733" lon="7.11866">
        <ele>797.20001220703</ele>
        <time>2019-11-10T10:33:51.000Z</time>
      </trkpt>
      <trkpt lat="47.83731" lon="7.11861">
        <ele>796.59997558594</ele>
        <time>2019-11-10T10:33:52.000Z</time>
      </trkpt>
      <trkpt lat="47.83729" lon="7.11855">
        <ele>796.20001220703</ele>
        <time>2019-11-10T10:33:53.000Z</time>
      </trkpt>
      <trkpt lat="47.83727" lon="7.1185">
        <ele>795.79998779297</ele>
        <time>2019-11-10T10:33:54.000Z</time>
      </trkpt>
      <trkpt lat="47.83724" lon="7.11843">
        <ele>795.40002441406</ele>
        <time>2019-11-10T10:33:55.000Z</time>
      </trkpt>
      <trkpt lat="47.83721" lon="7.11819">
        <ele>795.40002441406</ele>
        <time>2019-11-10T10:33:58.000Z</time>
      </trkpt>
      <trkpt lat="47.83721" lon="7.1181">
        <ele>795</ele>
        <time>2019-11-10T10:33:59.000Z</time>
      </trkpt>
      <trkpt lat="47.83722" lon="7.11801">
        <ele>794.59997558594</ele>
        <time>2019-11-10T10:34:00.000Z</time>
      </trkpt>
      <trkpt lat="47.83723" lon="7.11792">
        <ele>793.59997558594</ele>
        <time>2019-11-10T10:34:01.000Z</time>
      </trkpt>
      <trkpt lat="47.83722" lon="7.11782">
        <ele>793</ele>
        <time>2019-11-10T10:34:02.000Z</time>
      </trkpt>
      <trkpt lat="47.83722" lon="7.11771">
        <ele>792.40002441406</ele>
        <time>2019-11-10T10:34:03.000Z</time>
      </trkpt>
      <trkpt lat="47.83722" lon="7.11759">
        <ele>792</ele>
        <time>2019-11-10T10:34:04.000Z</time>
      </trkpt>
      <trkpt lat="47.83721" lon="7.11748">
        <ele>791.40002441406</ele>
        <time>2019-11-10T10:34:05.000Z</time>
      </trkpt>
      <trkpt lat="47.83719" lon="7.11737">
        <ele>790.79998779297</ele>
        <time>2019-11-10T10:34:06.000Z</time>
      </trkpt>
      <trkpt lat="47.83717" lon="7.11727">
        <ele>790.20001220703</ele>
        <time>2019-11-10T10:34:07.000Z</time>
      </trkpt>
      <trkpt lat="47.83713" lon="7.11716">
        <ele>789.40002441406</ele>
        <time>2019-11-10T10:34:08.000Z</time>
      </trkpt>
      <trkpt lat="47.83708" lon="7.11707">
        <ele>788.79998779297</ele>
        <time>2019-11-10T10:34:09.000Z</time>
      </trkpt>
      <trkpt lat="47.83704" lon="7.11698">
        <ele>788</ele>
        <time>2019-11-10T10:34:10.000Z</time>
      </trkpt>
      <trkpt lat="47.83699" lon="7.11689">
        <ele>787.40002441406</ele>
        <time>2019-11-10T10:34:11.000Z</time>
      </trkpt>
      <trkpt lat="47.83695" lon="7.11682">
        <ele>786.59997558594</ele>
        <time>2019-11-10T10:34:12.000Z</time>
      </trkpt>
      <trkpt lat="47.83692" lon="7.11675">
        <ele>786</ele>
        <time>2019-11-10T10:34:13.000Z</time>
      </trkpt>
      <trkpt lat="47.83687" lon="7.11672">
        <ele>785.59997558594</ele>
        <time>2019-11-10T10:34:14.000Z</time>
      </trkpt>
      <trkpt lat="47.83682" lon="7.1167">
        <ele>785</ele>
        <time>2019-11-10T10:34:15.000Z</time>
      </trkpt>
      <trkpt lat="47.83677" lon="7.11669">
        <ele>784.59997558594</ele>
        <time>2019-11-10T10:34:16.000Z</time>
      </trkpt>
      <trkpt lat="47.83672" lon="7.11669">
        <ele>784.20001220703</ele>
        <time>2019-11-10T10:34:17.000Z</time>
      </trkpt>
      <trkpt lat="47.83665" lon="7.11669">
        <ele>783.59997558594</ele>
        <time>2019-11-10T10:34:18.000Z</time>
      </trkpt>
      <trkpt lat="47.83659" lon="7.11671">
        <ele>783</ele>
        <time>2019-11-10T10:34:19.000Z</time>
      </trkpt>
      <trkpt lat="47.83654" lon="7.11675">
        <ele>782.59997558594</ele>
        <time>2019-11-10T10:34:20.000Z</time>
      </trkpt>
      <trkpt lat="47.83648" lon="7.11679">
        <ele>782</ele>
        <time>2019-11-10T10:34:21.000Z</time>
      </trkpt>
      <trkpt lat="47.83641" lon="7.11683">
        <ele>781.40002441406</ele>
        <time>2019-11-10T10:34:22.000Z</time>
      </trkpt>
      <trkpt lat="47.83635" lon="7.11686">
        <ele>780.79998779297</ele>
        <time>2019-11-10T10:34:23.000Z</time>
      </trkpt>
      <trkpt lat="47.83629" lon="7.1169">
        <ele>780.20001220703</ele>
        <time>2019-11-10T10:34:24.000Z</time>
      </trkpt>
      <trkpt lat="47.83622" lon="7.11693">
        <ele>779.59997558594</ele>
        <time>2019-11-10T10:34:25.000Z</time>
      </trkpt>
      <trkpt lat="47.83616" lon="7.11696">
        <ele>778.40002441406</ele>
        <time>2019-11-10T10:34:26.000Z</time>
      </trkpt>
      <trkpt lat="47.83609" lon="7.11697">
        <ele>777.59997558594</ele>
        <time>2019-11-10T10:34:27.000Z</time>
      </trkpt>
      <trkpt lat="47.83603" lon="7.117">
        <ele>777</ele>
        <time>2019-11-10T10:34:28.000Z</time>
      </trkpt>
      <trkpt lat="47.83598" lon="7.11702">
        <ele>776.59997558594</ele>
        <time>2019-11-10T10:34:29.000Z</time>
      </trkpt>
      <trkpt lat="47.83594" lon="7.11703">
        <ele>776.20001220703</ele>
        <time>2019-11-10T10:34:30.000Z</time>
      </trkpt>
      <trkpt lat="47.83592" lon="7.11703">
        <ele>775.79998779297</ele>
        <time>2019-11-10T10:34:31.000Z</time>
      </trkpt>
      <trkpt lat="47.83591" lon="7.11704">
        <ele>775.40002441406</ele>
        <time>2019-11-10T10:34:32.000Z</time>
      </trkpt>
      <trkpt lat="47.83591" lon="7.11704">
        <ele>775</ele>
        <time>2019-11-10T10:34:33.000Z</time>
      </trkpt>
      <trkpt lat="47.8359" lon="7.11705">
        <ele>775</ele>
        <time>2019-11-10T10:35:04.000Z</time>
      </trkpt>
      <trkpt lat="47.83577" lon="7.11709">
        <ele>775</ele>
        <time>2019-11-10T10:35:07.000Z</time>
      </trkpt>
      <trkpt lat="47.83565" lon="7.11717">
        <ele>774.40002441406</ele>
        <time>2019-11-10T10:35:09.000Z</time>
      </trkpt>
      <trkpt lat="47.83561" lon="7.11721">
        <ele>774</ele>
        <time>2019-11-10T10:35:10.000Z</time>
      </trkpt>
      <trkpt lat="47.83556" lon="7.11723">
        <ele>773.40002441406</ele>
        <time>2019-11-10T10:35:11.000Z</time>
      </trkpt>
      <trkpt lat="47.83553" lon="7.11727">
        <ele>772.79998779297</ele>
        <time>2019-11-10T10:35:12.000Z</time>
      </trkpt>
      <trkpt lat="47.83548" lon="7.1173">
        <ele>772.40002441406</ele>
        <time>2019-11-10T10:35:13.000Z</time>
      </trkpt>
      <trkpt lat="47.83542" lon="7.11735">
        <ele>771.79998779297</ele>
        <time>2019-11-10T10:35:14.000Z</time>
      </trkpt>
      <trkpt lat="47.83537" lon="7.11742">
        <ele>771.20001220703</ele>
        <time>2019-11-10T10:35:15.000Z</time>
      </trkpt>
      <trkpt lat="47.83533" lon="7.11749">
        <ele>770.79998779297</ele>
        <time>2019-11-10T10:35:16.000Z</time>
      </trkpt>
      <trkpt lat="47.83529" lon="7.11757">
        <ele>769.59997558594</ele>
        <time>2019-11-10T10:35:17.000Z</time>
      </trkpt>
      <trkpt lat="47.83525" lon="7.11764">
        <ele>769.20001220703</ele>
        <time>2019-11-10T10:35:18.000Z</time>
      </trkpt>
      <trkpt lat="47.8352" lon="7.11771">
        <ele>768.59997558594</ele>
        <time>2019-11-10T10:35:19.000Z</time>
      </trkpt>
      <trkpt lat="47.83515" lon="7.11779">
        <ele>768</ele>
        <time>2019-11-10T10:35:20.000Z</time>
      </trkpt>
      <trkpt lat="47.83511" lon="7.11787">
        <ele>767.59997558594</ele>
        <time>2019-11-10T10:35:21.000Z</time>
      </trkpt>
      <trkpt lat="47.83506" lon="7.11793">
        <ele>767</ele>
        <time>2019-11-10T10:35:22.000Z</time>
      </trkpt>
      <trkpt lat="47.83501" lon="7.11798">
        <ele>766.40002441406</ele>
        <time>2019-11-10T10:35:23.000Z</time>
      </trkpt>
      <trkpt lat="47.83494" lon="7.11804">
        <ele>766</ele>
        <time>2019-11-10T10:35:24.000Z</time>
      </trkpt>
      <trkpt lat="47.83487" lon="7.11809">
        <ele>765.40002441406</ele>
        <time>2019-11-10T10:35:25.000Z</time>
      </trkpt>
      <trkpt lat="47.83481" lon="7.11813">
        <ele>764.79998779297</ele>
        <time>2019-11-10T10:35:26.000Z</time>
      </trkpt>
      <trkpt lat="47.83476" lon="7.11817">
        <ele>764.40002441406</ele>
        <time>2019-11-10T10:35:27.000Z</time>
      </trkpt>
      <trkpt lat="47.8347" lon="7.1182">
        <ele>763.79998779297</ele>
        <time>2019-11-10T10:35:28.000Z</time>
      </trkpt>
      <trkpt lat="47.83465" lon="7.11823">
        <ele>763.40002441406</ele>
        <time>2019-11-10T10:35:29.000Z</time>
      </trkpt>
      <trkpt lat="47.83456" lon="7.11834">
        <ele>762.59997558594</ele>
        <time>2019-11-10T10:35:31.000Z</time>
      </trkpt>
      <trkpt lat="47.83451" lon="7.11841">
        <ele>762</ele>
        <time>2019-11-10T10:35:32.000Z</time>
      </trkpt>
      <trkpt lat="47.83447" lon="7.1185">
        <ele>761</ele>
        <time>2019-11-10T10:35:33.000Z</time>
      </trkpt>
      <trkpt lat="47.83443" lon="7.11854">
        <ele>760</ele>
        <time>2019-11-10T10:35:34.000Z</time>
      </trkpt>
      <trkpt lat="47.83439" lon="7.11858">
        <ele>759.20001220703</ele>
        <time>2019-11-10T10:35:35.000Z</time>
      </trkpt>
      <trkpt lat="47.83436" lon="7.11863">
        <ele>758.20001220703</ele>
        <time>2019-11-10T10:35:36.000Z</time>
      </trkpt>
      <trkpt lat="47.83432" lon="7.11868">
        <ele>757.59997558594</ele>
        <time>2019-11-10T10:35:37.000Z</time>
      </trkpt>
      <trkpt lat="47.83429" lon="7.11875">
        <ele>756.79998779297</ele>
        <time>2019-11-10T10:35:38.000Z</time>
      </trkpt>
      <trkpt lat="47.83426" lon="7.11883">
        <ele>756</ele>
        <time>2019-11-10T10:35:39.000Z</time>
      </trkpt>
      <trkpt lat="47.83422" lon="7.1189">
        <ele>755.20001220703</ele>
        <time>2019-11-10T10:35:40.000Z</time>
      </trkpt>
      <trkpt lat="47.83418" lon="7.11898">
        <ele>754</ele>
        <time>2019-11-10T10:35:41.000Z</time>
      </trkpt>
      <trkpt lat="47.83414" lon="7.11905">
        <ele>751.79998779297</ele>
        <time>2019-11-10T10:35:42.000Z</time>
      </trkpt>
      <trkpt lat="47.8341" lon="7.11913">
        <ele>750.79998779297</ele>
        <time>2019-11-10T10:35:43.000Z</time>
      </trkpt>
      <trkpt lat="47.83405" lon="7.11922">
        <ele>749.40002441406</ele>
        <time>2019-11-10T10:35:44.000Z</time>
      </trkpt>
      <trkpt lat="47.834" lon="7.11932">
        <ele>748.20001220703</ele>
        <time>2019-11-10T10:35:45.000Z</time>
      </trkpt>
      <trkpt lat="47.83395" lon="7.11943">
        <ele>747</ele>
        <time>2019-11-10T10:35:46.000Z</time>
      </trkpt>
      <trkpt lat="47.8339" lon="7.11954">
        <ele>745.59997558594</ele>
        <time>2019-11-10T10:35:47.000Z</time>
      </trkpt>
      <trkpt lat="47.83386" lon="7.11965">
        <ele>744.40002441406</ele>
        <time>2019-11-10T10:35:48.000Z</time>
      </trkpt>
      <trkpt lat="47.8338" lon="7.11973">
        <ele>743.20001220703</ele>
        <time>2019-11-10T10:35:49.000Z</time>
      </trkpt>
      <trkpt lat="47.83373" lon="7.11978">
        <ele>742</ele>
        <time>2019-11-10T10:35:50.000Z</time>
      </trkpt>
      <trkpt lat="47.83367" lon="7.11983">
        <ele>740.59997558594</ele>
        <time>2019-11-10T10:35:51.000Z</time>
      </trkpt>
      <trkpt lat="47.83363" lon="7.11987">
        <ele>740</ele>
        <time>2019-11-10T10:35:52.000Z</time>
      </trkpt>
      <trkpt lat="47.83359" lon="7.11992">
        <ele>739.20001220703</ele>
        <time>2019-11-10T10:35:53.000Z</time>
      </trkpt>
      <trkpt lat="47.83356" lon="7.11997">
        <ele>738.40002441406</ele>
        <time>2019-11-10T10:35:54.000Z</time>
      </trkpt>
      <trkpt lat="47.83352" lon="7.12001">
        <ele>737.59997558594</ele>
        <time>2019-11-10T10:35:55.000Z</time>
      </trkpt>
      <trkpt lat="47.83345" lon="7.12004">
        <ele>736.59997558594</ele>
        <time>2019-11-10T10:35:56.000Z</time>
      </trkpt>
      <trkpt lat="47.8334" lon="7.12008">
        <ele>735.59997558594</ele>
        <time>2019-11-10T10:35:57.000Z</time>
      </trkpt>
      <trkpt lat="47.83335" lon="7.12012">
        <ele>734.40002441406</ele>
        <time>2019-11-10T10:35:58.000Z</time>
      </trkpt>
      <trkpt lat="47.83331" lon="7.12017">
        <ele>733.40002441406</ele>
        <time>2019-11-10T10:35:59.000Z</time>
      </trkpt>
      <trkpt lat="47.83327" lon="7.12017">
        <ele>732</ele>
        <time>2019-11-10T10:36:00.000Z</time>
      </trkpt>
      <trkpt lat="47.83323" lon="7.12014">
        <ele>730.79998779297</ele>
        <time>2019-11-10T10:36:01.000Z</time>
      </trkpt>
      <trkpt lat="47.8332" lon="7.12012">
        <ele>729.59997558594</ele>
        <time>2019-11-10T10:36:02.000Z</time>
      </trkpt>
      <trkpt lat="47.83316" lon="7.12007">
        <ele>728.20001220703</ele>
        <time>2019-11-10T10:36:03.000Z</time>
      </trkpt>
      <trkpt lat="47.83312" lon="7.12001">
        <ele>727</ele>
        <time>2019-11-10T10:36:04.000Z</time>
      </trkpt>
      <trkpt lat="47.83309" lon="7.11997">
        <ele>725.79998779297</ele>
        <time>2019-11-10T10:36:05.000Z</time>
      </trkpt>
      <trkpt lat="47.83307" lon="7.11996">
        <ele>724.59997558594</ele>
        <time>2019-11-10T10:36:06.000Z</time>
      </trkpt>
      <trkpt lat="47.83307" lon="7.11995">
        <ele>722.59997558594</ele>
        <time>2019-11-10T10:36:07.000Z</time>
      </trkpt>
      <trkpt lat="47.83306" lon="7.11996">
        <ele>721.59997558594</ele>
        <time>2019-11-10T10:36:08.000Z</time>
      </trkpt>
      <trkpt lat="47.83306" lon="7.11996">
        <ele>720.59997558594</ele>
        <time>2019-11-10T10:36:09.000Z</time>
      </trkpt>
      <trkpt lat="47.83302" lon="7.11988">
        <ele>719.59997558594</ele>
        <time>2019-11-10T10:36:31.000Z</time>
      </trkpt>
      <trkpt lat="47.83301" lon="7.11984">
        <ele>719.59997558594</ele>
        <time>2019-11-10T10:36:32.000Z</time>
      </trkpt>
      <trkpt lat="47.83295" lon="7.11969">
        <ele>719.59997558594</ele>
        <time>2019-11-10T10:36:36.000Z</time>
      </trkpt>
      <trkpt lat="47.83288" lon="7.11963">
        <ele>719.59997558594</ele>
        <time>2019-11-10T10:36:40.000Z</time>
      </trkpt>
      <trkpt lat="47.83286" lon="7.11961">
        <ele>719.59997558594</ele>
        <time>2019-11-10T10:36:41.000Z</time>
      </trkpt>
      <trkpt lat="47.8327" lon="7.11949">
        <ele>719.59997558594</ele>
        <time>2019-11-10T10:36:45.000Z</time>
      </trkpt>
      <trkpt lat="47.83253" lon="7.11942">
        <ele>719.59997558594</ele>
        <time>2019-11-10T10:36:49.000Z</time>
      </trkpt>
      <trkpt lat="47.83248" lon="7.11942">
        <ele>719.20001220703</ele>
        <time>2019-11-10T10:36:50.000Z</time>
      </trkpt>
      <trkpt lat="47.83243" lon="7.11942">
        <ele>718.79998779297</ele>
        <time>2019-11-10T10:36:51.000Z</time>
      </trkpt>
      <trkpt lat="47.83237" lon="7.11944">
        <ele>718.20001220703</ele>
        <time>2019-11-10T10:36:52.000Z</time>
      </trkpt>
      <trkpt lat="47.83231" lon="7.11943">
        <ele>717.59997558594</ele>
        <time>2019-11-10T10:36:53.000Z</time>
      </trkpt>
      <trkpt lat="47.83225" lon="7.11942">
        <ele>716</ele>
        <time>2019-11-10T10:36:54.000Z</time>
      </trkpt>
      <trkpt lat="47.83219" lon="7.11941">
        <ele>715.20001220703</ele>
        <time>2019-11-10T10:36:55.000Z</time>
      </trkpt>
      <trkpt lat="47.83213" lon="7.11943">
        <ele>714.40002441406</ele>
        <time>2019-11-10T10:36:56.000Z</time>
      </trkpt>
      <trkpt lat="47.83207" lon="7.11943">
        <ele>713.79998779297</ele>
        <time>2019-11-10T10:36:57.000Z</time>
      </trkpt>
      <trkpt lat="47.83201" lon="7.11945">
        <ele>713</ele>
        <time>2019-11-10T10:36:58.000Z</time>
      </trkpt>
      <trkpt lat="47.83193" lon="7.11946">
        <ele>712.20001220703</ele>
        <time>2019-11-10T10:36:59.000Z</time>
      </trkpt>
      <trkpt lat="47.83185" lon="7.11946">
        <ele>711.40002441406</ele>
        <time>2019-11-10T10:37:00.000Z</time>
      </trkpt>
      <trkpt lat="47.83176" lon="7.11946">
        <ele>710.59997558594</ele>
        <time>2019-11-10T10:37:01.000Z</time>
      </trkpt>
      <trkpt lat="47.83168" lon="7.11946">
        <ele>709.59997558594</ele>
        <time>2019-11-10T10:37:02.000Z</time>
      </trkpt>
      <trkpt lat="47.83162" lon="7.11945">
        <ele>708.79998779297</ele>
        <time>2019-11-10T10:37:03.000Z</time>
      </trkpt>
      <trkpt lat="47.83157" lon="7.11944">
        <ele>707.79998779297</ele>
        <time>2019-11-10T10:37:04.000Z</time>
      </trkpt>
      <trkpt lat="47.83153" lon="7.11943">
        <ele>706.79998779297</ele>
        <time>2019-11-10T10:37:05.000Z</time>
      </trkpt>
      <trkpt lat="47.83147" lon="7.11943">
        <ele>706.79998779297</ele>
        <time>2019-11-10T10:37:06.000Z</time>
      </trkpt>
      <trkpt lat="47.83141" lon="7.11945">
        <ele>706.40002441406</ele>
        <time>2019-11-10T10:37:07.000Z</time>
      </trkpt>
      <trkpt lat="47.83135" lon="7.11946">
        <ele>705.79998779297</ele>
        <time>2019-11-10T10:37:08.000Z</time>
      </trkpt>
      <trkpt lat="47.83128" lon="7.11946">
        <ele>705.20001220703</ele>
        <time>2019-11-10T10:37:09.000Z</time>
      </trkpt>
      <trkpt lat="47.83121" lon="7.11946">
        <ele>704.40002441406</ele>
        <time>2019-11-10T10:37:10.000Z</time>
      </trkpt>
      <trkpt lat="47.83114" lon="7.11945">
        <ele>703.79998779297</ele>
        <time>2019-11-10T10:37:11.000Z</time>
      </trkpt>
      <trkpt lat="47.83108" lon="7.11943">
        <ele>703</ele>
        <time>2019-11-10T10:37:12.000Z</time>
      </trkpt>
      <trkpt lat="47.831" lon="7.11943">
        <ele>702.40002441406</ele>
        <time>2019-11-10T10:37:13.000Z</time>
      </trkpt>
      <trkpt lat="47.83093" lon="7.11941">
        <ele>701.59997558594</ele>
        <time>2019-11-10T10:37:14.000Z</time>
      </trkpt>
      <trkpt lat="47.83087" lon="7.11936">
        <ele>701</ele>
        <time>2019-11-10T10:37:15.000Z</time>
      </trkpt>
      <trkpt lat="47.83081" lon="7.1193">
        <ele>700.20001220703</ele>
        <time>2019-11-10T10:37:16.000Z</time>
      </trkpt>
      <trkpt lat="47.83077" lon="7.11922">
        <ele>699.40002441406</ele>
        <time>2019-11-10T10:37:17.000Z</time>
      </trkpt>
      <trkpt lat="47.83072" lon="7.11916">
        <ele>698.40002441406</ele>
        <time>2019-11-10T10:37:18.000Z</time>
      </trkpt>
      <trkpt lat="47.83068" lon="7.1191">
        <ele>697</ele>
        <time>2019-11-10T10:37:19.000Z</time>
      </trkpt>
      <trkpt lat="47.83065" lon="7.11902">
        <ele>696.40002441406</ele>
        <time>2019-11-10T10:37:20.000Z</time>
      </trkpt>
      <trkpt lat="47.83061" lon="7.11896">
        <ele>695.79998779297</ele>
        <time>2019-11-10T10:37:21.000Z</time>
      </trkpt>
      <trkpt lat="47.83057" lon="7.11889">
        <ele>695.20001220703</ele>
        <time>2019-11-10T10:37:22.000Z</time>
      </trkpt>
      <trkpt lat="47.83052" lon="7.11882">
        <ele>694.59997558594</ele>
        <time>2019-11-10T10:37:23.000Z</time>
      </trkpt>
      <trkpt lat="47.83048" lon="7.11874">
        <ele>694</ele>
        <time>2019-11-10T10:37:24.000Z</time>
      </trkpt>
      <trkpt lat="47.83044" lon="7.11867">
        <ele>693.40002441406</ele>
        <time>2019-11-10T10:37:25.000Z</time>
      </trkpt>
      <trkpt lat="47.8304" lon="7.11859">
        <ele>692.79998779297</ele>
        <time>2019-11-10T10:37:26.000Z</time>
      </trkpt>
      <trkpt lat="47.83036" lon="7.11851">
        <ele>692.20001220703</ele>
        <time>2019-11-10T10:37:27.000Z</time>
      </trkpt>
      <trkpt lat="47.83032" lon="7.11843">
        <ele>691.59997558594</ele>
        <time>2019-11-10T10:37:28.000Z</time>
      </trkpt>
      <trkpt lat="47.83027" lon="7.11835">
        <ele>690.79998779297</ele>
        <time>2019-11-10T10:37:29.000Z</time>
      </trkpt>
      <trkpt lat="47.83022" lon="7.11825">
        <ele>690</ele>
        <time>2019-11-10T10:37:30.000Z</time>
      </trkpt>
      <trkpt lat="47.83019" lon="7.11818">
        <ele>689.40002441406</ele>
        <time>2019-11-10T10:37:31.000Z</time>
      </trkpt>
      <trkpt lat="47.83017" lon="7.11812">
        <ele>688.59997558594</ele>
        <time>2019-11-10T10:37:32.000Z</time>
      </trkpt>
      <trkpt lat="47.83014" lon="7.11806">
        <ele>688</ele>
        <time>2019-11-10T10:37:33.000Z</time>
      </trkpt>
      <trkpt lat="47.8301" lon="7.118">
        <ele>687.59997558594</ele>
        <time>2019-11-10T10:37:34.000Z</time>
      </trkpt>
      <trkpt lat="47.83008" lon="7.11795">
        <ele>687</ele>
        <time>2019-11-10T10:37:35.000Z</time>
      </trkpt>
      <trkpt lat="47.83005" lon="7.11791">
        <ele>686.40002441406</ele>
        <time>2019-11-10T10:37:36.000Z</time>
      </trkpt>
      <trkpt lat="47.83" lon="7.11787">
        <ele>685.79998779297</ele>
        <time>2019-11-10T10:37:37.000Z</time>
      </trkpt>
      <trkpt lat="47.82995" lon="7.11782">
        <ele>685.20001220703</ele>
        <time>2019-11-10T10:37:38.000Z</time>
      </trkpt>
      <trkpt lat="47.8299" lon="7.11778">
        <ele>684.40002441406</ele>
        <time>2019-11-10T10:37:39.000Z</time>
      </trkpt>
      <trkpt lat="47.82985" lon="7.11773">
        <ele>683.59997558594</ele>
        <time>2019-11-10T10:37:40.000Z</time>
      </trkpt>
      <trkpt lat="47.8298" lon="7.11769">
        <ele>682.79998779297</ele>
        <time>2019-11-10T10:37:41.000Z</time>
      </trkpt>
      <trkpt lat="47.82976" lon="7.11766">
        <ele>682</ele>
        <time>2019-11-10T10:37:42.000Z</time>
      </trkpt>
      <trkpt lat="47.82974" lon="7.11764">
        <ele>681.40002441406</ele>
        <time>2019-11-10T10:37:43.000Z</time>
      </trkpt>
      <trkpt lat="47.8297" lon="7.11762">
        <ele>680.40002441406</ele>
        <time>2019-11-10T10:37:44.000Z</time>
      </trkpt>
      <trkpt lat="47.82966" lon="7.11762">
        <ele>679.79998779297</ele>
        <time>2019-11-10T10:37:45.000Z</time>
      </trkpt>
      <trkpt lat="47.82961" lon="7.11761">
        <ele>679.20001220703</ele>
        <time>2019-11-10T10:37:46.000Z</time>
      </trkpt>
      <trkpt lat="47.82957" lon="7.11763">
        <ele>678.59997558594</ele>
        <time>2019-11-10T10:37:47.000Z</time>
      </trkpt>
      <trkpt lat="47.82952" lon="7.11765">
        <ele>678</ele>
        <time>2019-11-10T10:37:48.000Z</time>
      </trkpt>
      <trkpt lat="47.82947" lon="7.11768">
        <ele>677.40002441406</ele>
        <time>2019-11-10T10:37:49.000Z</time>
      </trkpt>
      <trkpt lat="47.82942" lon="7.11769">
        <ele>676.79998779297</ele>
        <time>2019-11-10T10:37:50.000Z</time>
      </trkpt>
      <trkpt lat="47.82939" lon="7.11771">
        <ele>676.79998779297</ele>
        <time>2019-11-10T10:37:51.000Z</time>
      </trkpt>
      <trkpt lat="47.82931" lon="7.11773">
        <ele>676.40002441406</ele>
        <time>2019-11-10T10:37:53.000Z</time>
      </trkpt>
      <trkpt lat="47.82926" lon="7.11774">
        <ele>676</ele>
        <time>2019-11-10T10:37:54.000Z</time>
      </trkpt>
      <trkpt lat="47.82921" lon="7.11776">
        <ele>675.59997558594</ele>
        <time>2019-11-10T10:37:55.000Z</time>
      </trkpt>
      <trkpt lat="47.82915" lon="7.11781">
        <ele>675.20001220703</ele>
        <time>2019-11-10T10:37:56.000Z</time>
      </trkpt>
      <trkpt lat="47.82909" lon="7.11783">
        <ele>674.59997558594</ele>
        <time>2019-11-10T10:37:57.000Z</time>
      </trkpt>
      <trkpt lat="47.82903" lon="7.11786">
        <ele>674</ele>
        <time>2019-11-10T10:37:58.000Z</time>
      </trkpt>
      <trkpt lat="47.82897" lon="7.11789">
        <ele>673.40002441406</ele>
        <time>2019-11-10T10:37:59.000Z</time>
      </trkpt>
      <trkpt lat="47.82891" lon="7.11791">
        <ele>672.79998779297</ele>
        <time>2019-11-10T10:38:00.000Z</time>
      </trkpt>
      <trkpt lat="47.82887" lon="7.11793">
        <ele>672</ele>
        <time>2019-11-10T10:38:01.000Z</time>
      </trkpt>
      <trkpt lat="47.82884" lon="7.11794">
        <ele>671.20001220703</ele>
        <time>2019-11-10T10:38:02.000Z</time>
      </trkpt>
      <trkpt lat="47.8288" lon="7.11796">
        <ele>670.40002441406</ele>
        <time>2019-11-10T10:38:03.000Z</time>
      </trkpt>
      <trkpt lat="47.82875" lon="7.11797">
        <ele>669.59997558594</ele>
        <time>2019-11-10T10:38:04.000Z</time>
      </trkpt>
      <trkpt lat="47.82868" lon="7.11797">
        <ele>669.20001220703</ele>
        <time>2019-11-10T10:38:05.000Z</time>
      </trkpt>
      <trkpt lat="47.82862" lon="7.11799">
        <ele>668.79998779297</ele>
        <time>2019-11-10T10:38:06.000Z</time>
      </trkpt>
      <trkpt lat="47.82857" lon="7.118">
        <ele>668</ele>
        <time>2019-11-10T10:38:07.000Z</time>
      </trkpt>
      <trkpt lat="47.82852" lon="7.11798">
        <ele>667.20001220703</ele>
        <time>2019-11-10T10:38:08.000Z</time>
      </trkpt>
      <trkpt lat="47.82846" lon="7.11795">
        <ele>665.79998779297</ele>
        <time>2019-11-10T10:38:09.000Z</time>
      </trkpt>
      <trkpt lat="47.82842" lon="7.11791">
        <ele>665</ele>
        <time>2019-11-10T10:38:10.000Z</time>
      </trkpt>
      <trkpt lat="47.8284" lon="7.11787">
        <ele>664</ele>
        <time>2019-11-10T10:38:11.000Z</time>
      </trkpt>
      <trkpt lat="47.82837" lon="7.11784">
        <ele>663.20001220703</ele>
        <time>2019-11-10T10:38:12.000Z</time>
      </trkpt>
      <trkpt lat="47.82833" lon="7.11781">
        <ele>662.79998779297</ele>
        <time>2019-11-10T10:38:13.000Z</time>
      </trkpt>
      <trkpt lat="47.82831" lon="7.11777">
        <ele>662.20001220703</ele>
        <time>2019-11-10T10:38:14.000Z</time>
      </trkpt>
      <trkpt lat="47.82827" lon="7.11773">
        <ele>661.59997558594</ele>
        <time>2019-11-10T10:38:15.000Z</time>
      </trkpt>
      <trkpt lat="47.82824" lon="7.11769">
        <ele>661</ele>
        <time>2019-11-10T10:38:16.000Z</time>
      </trkpt>
      <trkpt lat="47.82821" lon="7.11762">
        <ele>660.40002441406</ele>
        <time>2019-11-10T10:38:17.000Z</time>
      </trkpt>
      <trkpt lat="47.82818" lon="7.11754">
        <ele>660.40002441406</ele>
        <time>2019-11-10T10:38:18.000Z</time>
      </trkpt>
      <trkpt lat="47.82813" lon="7.11744">
        <ele>660</ele>
        <time>2019-11-10T10:38:20.000Z</time>
      </trkpt>
      <trkpt lat="47.8281" lon="7.11739">
        <ele>659.40002441406</ele>
        <time>2019-11-10T10:38:21.000Z</time>
      </trkpt>
      <trkpt lat="47.82806" lon="7.11733">
        <ele>658.79998779297</ele>
        <time>2019-11-10T10:38:22.000Z</time>
      </trkpt>
      <trkpt lat="47.82804" lon="7.11726">
        <ele>658</ele>
        <time>2019-11-10T10:38:23.000Z</time>
      </trkpt>
      <trkpt lat="47.82801" lon="7.11717">
        <ele>657</ele>
        <time>2019-11-10T10:38:24.000Z</time>
      </trkpt>
      <trkpt lat="47.82799" lon="7.11709">
        <ele>656.20001220703</ele>
        <time>2019-11-10T10:38:25.000Z</time>
      </trkpt>
      <trkpt lat="47.82795" lon="7.11701">
        <ele>655.20001220703</ele>
        <time>2019-11-10T10:38:26.000Z</time>
      </trkpt>
      <trkpt lat="47.82791" lon="7.11693">
        <ele>654.40002441406</ele>
        <time>2019-11-10T10:38:27.000Z</time>
      </trkpt>
      <trkpt lat="47.82786" lon="7.11687">
        <ele>653.59997558594</ele>
        <time>2019-11-10T10:38:28.000Z</time>
      </trkpt>
      <trkpt lat="47.82782" lon="7.11683">
        <ele>652.59997558594</ele>
        <time>2019-11-10T10:38:29.000Z</time>
      </trkpt>
      <trkpt lat="47.82775" lon="7.11679">
        <ele>651.79998779297</ele>
        <time>2019-11-10T10:38:30.000Z</time>
      </trkpt>
      <trkpt lat="47.82769" lon="7.11674">
        <ele>651.20001220703</ele>
        <time>2019-11-10T10:38:31.000Z</time>
      </trkpt>
      <trkpt lat="47.82763" lon="7.11671">
        <ele>650.59997558594</ele>
        <time>2019-11-10T10:38:32.000Z</time>
      </trkpt>
      <trkpt lat="47.82759" lon="7.11669">
        <ele>649</ele>
        <time>2019-11-10T10:38:33.000Z</time>
      </trkpt>
      <trkpt lat="47.82754" lon="7.11667">
        <ele>648.20001220703</ele>
        <time>2019-11-10T10:38:34.000Z</time>
      </trkpt>
      <trkpt lat="47.8275" lon="7.11666">
        <ele>647.40002441406</ele>
        <time>2019-11-10T10:38:35.000Z</time>
      </trkpt>
      <trkpt lat="47.82747" lon="7.11667">
        <ele>646.40002441406</ele>
        <time>2019-11-10T10:38:36.000Z</time>
      </trkpt>
      <trkpt lat="47.82742" lon="7.11667">
        <ele>646</ele>
        <time>2019-11-10T10:38:37.000Z</time>
      </trkpt>
      <trkpt lat="47.82738" lon="7.11666">
        <ele>645.59997558594</ele>
        <time>2019-11-10T10:38:38.000Z</time>
      </trkpt>
      <trkpt lat="47.82735" lon="7.11665">
        <ele>645</ele>
        <time>2019-11-10T10:38:39.000Z</time>
      </trkpt>
      <trkpt lat="47.82731" lon="7.11665">
        <ele>644.59997558594</ele>
        <time>2019-11-10T10:38:40.000Z</time>
      </trkpt>
      <trkpt lat="47.82728" lon="7.11667">
        <ele>644.20001220703</ele>
        <time>2019-11-10T10:38:41.000Z</time>
      </trkpt>
      <trkpt lat="47.82726" lon="7.11668">
        <ele>643.59997558594</ele>
        <time>2019-11-10T10:38:42.000Z</time>
      </trkpt>
      <trkpt lat="47.82723" lon="7.1167">
        <ele>643.20001220703</ele>
        <time>2019-11-10T10:38:43.000Z</time>
      </trkpt>
      <trkpt lat="47.8272" lon="7.11672">
        <ele>642.59997558594</ele>
        <time>2019-11-10T10:38:44.000Z</time>
      </trkpt>
      <trkpt lat="47.82717" lon="7.11674">
        <ele>642.20001220703</ele>
        <time>2019-11-10T10:38:45.000Z</time>
      </trkpt>
      <trkpt lat="47.82715" lon="7.11678">
        <ele>641.59997558594</ele>
        <time>2019-11-10T10:38:46.000Z</time>
      </trkpt>
      <trkpt lat="47.82712" lon="7.11684">
        <ele>641.20001220703</ele>
        <time>2019-11-10T10:38:47.000Z</time>
      </trkpt>
      <trkpt lat="47.8271" lon="7.11689">
        <ele>640.79998779297</ele>
        <time>2019-11-10T10:38:48.000Z</time>
      </trkpt>
      <trkpt lat="47.82706" lon="7.11694">
        <ele>640.40002441406</ele>
        <time>2019-11-10T10:38:49.000Z</time>
      </trkpt>
      <trkpt lat="47.82703" lon="7.11697">
        <ele>639.79998779297</ele>
        <time>2019-11-10T10:38:50.000Z</time>
      </trkpt>
      <trkpt lat="47.82702" lon="7.11701">
        <ele>639.20001220703</ele>
        <time>2019-11-10T10:38:51.000Z</time>
      </trkpt>
      <trkpt lat="47.82699" lon="7.11703">
        <ele>638.79998779297</ele>
        <time>2019-11-10T10:38:52.000Z</time>
      </trkpt>
      <trkpt lat="47.82696" lon="7.11705">
        <ele>638.20001220703</ele>
        <time>2019-11-10T10:38:53.000Z</time>
      </trkpt>
      <trkpt lat="47.82695" lon="7.11709">
        <ele>637.59997558594</ele>
        <time>2019-11-10T10:38:54.000Z</time>
      </trkpt>
      <trkpt lat="47.82691" lon="7.1171">
        <ele>637.20001220703</ele>
        <time>2019-11-10T10:38:55.000Z</time>
      </trkpt>
      <trkpt lat="47.82689" lon="7.11714">
        <ele>636.59997558594</ele>
        <time>2019-11-10T10:38:56.000Z</time>
      </trkpt>
      <trkpt lat="47.82686" lon="7.11717">
        <ele>635.59997558594</ele>
        <time>2019-11-10T10:38:57.000Z</time>
      </trkpt>
      <trkpt lat="47.82682" lon="7.11721">
        <ele>635</ele>
        <time>2019-11-10T10:38:58.000Z</time>
      </trkpt>
      <trkpt lat="47.82679" lon="7.11725">
        <ele>634.40002441406</ele>
        <time>2019-11-10T10:38:59.000Z</time>
      </trkpt>
      <trkpt lat="47.82674" lon="7.11732">
        <ele>633.59997558594</ele>
        <time>2019-11-10T10:39:00.000Z</time>
      </trkpt>
      <trkpt lat="47.82668" lon="7.11741">
        <ele>632.59997558594</ele>
        <time>2019-11-10T10:39:01.000Z</time>
      </trkpt>
      <trkpt lat="47.82663" lon="7.11749">
        <ele>631.59997558594</ele>
        <time>2019-11-10T10:39:02.000Z</time>
      </trkpt>
      <trkpt lat="47.82657" lon="7.11756">
        <ele>630.59997558594</ele>
        <time>2019-11-10T10:39:03.000Z</time>
      </trkpt>
      <trkpt lat="47.82652" lon="7.11762">
        <ele>629.40002441406</ele>
        <time>2019-11-10T10:39:04.000Z</time>
      </trkpt>
      <trkpt lat="47.82648" lon="7.11768">
        <ele>628.59997558594</ele>
        <time>2019-11-10T10:39:05.000Z</time>
      </trkpt>
      <trkpt lat="47.82643" lon="7.11772">
        <ele>627.79998779297</ele>
        <time>2019-11-10T10:39:06.000Z</time>
      </trkpt>
      <trkpt lat="47.8264" lon="7.11777">
        <ele>627</ele>
        <time>2019-11-10T10:39:07.000Z</time>
      </trkpt>
      <trkpt lat="47.82636" lon="7.11781">
        <ele>626.20001220703</ele>
        <time>2019-11-10T10:39:08.000Z</time>
      </trkpt>
      <trkpt lat="47.82634" lon="7.11785">
        <ele>625.40002441406</ele>
        <time>2019-11-10T10:39:09.000Z</time>
      </trkpt>
      <trkpt lat="47.82631" lon="7.11789">
        <ele>624.79998779297</ele>
        <time>2019-11-10T10:39:10.000Z</time>
      </trkpt>
      <trkpt lat="47.82627" lon="7.11792">
        <ele>624.20001220703</ele>
        <time>2019-11-10T10:39:11.000Z</time>
      </trkpt>
      <trkpt lat="47.82623" lon="7.11797">
        <ele>623.59997558594</ele>
        <time>2019-11-10T10:39:12.000Z</time>
      </trkpt>
      <trkpt lat="47.82618" lon="7.118">
        <ele>623</ele>
        <time>2019-11-10T10:39:13.000Z</time>
      </trkpt>
      <trkpt lat="47.82615" lon="7.11804">
        <ele>622.59997558594</ele>
        <time>2019-11-10T10:39:14.000Z</time>
      </trkpt>
      <trkpt lat="47.82611" lon="7.11806">
        <ele>622</ele>
        <time>2019-11-10T10:39:15.000Z</time>
      </trkpt>
      <trkpt lat="47.82608" lon="7.11809">
        <ele>621.59997558594</ele>
        <time>2019-11-10T10:39:16.000Z</time>
      </trkpt>
      <trkpt lat="47.82605" lon="7.11812">
        <ele>621</ele>
        <time>2019-11-10T10:39:17.000Z</time>
      </trkpt>
      <trkpt lat="47.82601" lon="7.11815">
        <ele>620.59997558594</ele>
        <time>2019-11-10T10:39:18.000Z</time>
      </trkpt>
      <trkpt lat="47.82597" lon="7.11818">
        <ele>620.20001220703</ele>
        <time>2019-11-10T10:39:19.000Z</time>
      </trkpt>
      <trkpt lat="47.82593" lon="7.11821">
        <ele>619.79998779297</ele>
        <time>2019-11-10T10:39:20.000Z</time>
      </trkpt>
      <trkpt lat="47.8259" lon="7.11824">
        <ele>619</ele>
        <time>2019-11-10T10:39:21.000Z</time>
      </trkpt>
      <trkpt lat="47.82587" lon="7.11829">
        <ele>619</ele>
        <time>2019-11-10T10:39:22.000Z</time>
      </trkpt>
      <trkpt lat="47.82584" lon="7.11835">
        <ele>618.59997558594</ele>
        <time>2019-11-10T10:39:23.000Z</time>
      </trkpt>
      <trkpt lat="47.82581" lon="7.11841">
        <ele>618</ele>
        <time>2019-11-10T10:39:24.000Z</time>
      </trkpt>
      <trkpt lat="47.82579" lon="7.11848">
        <ele>617.59997558594</ele>
        <time>2019-11-10T10:39:25.000Z</time>
      </trkpt>
      <trkpt lat="47.82578" lon="7.11856">
        <ele>617.20001220703</ele>
        <time>2019-11-10T10:39:26.000Z</time>
      </trkpt>
      <trkpt lat="47.82578" lon="7.11863">
        <ele>616.79998779297</ele>
        <time>2019-11-10T10:39:27.000Z</time>
      </trkpt>
      <trkpt lat="47.8258" lon="7.11869">
        <ele>616.79998779297</ele>
        <time>2019-11-10T10:39:28.000Z</time>
      </trkpt>
      <trkpt lat="47.82581" lon="7.11877">
        <ele>616.79998779297</ele>
        <time>2019-11-10T10:39:29.000Z</time>
      </trkpt>
      <trkpt lat="47.82583" lon="7.11885">
        <ele>616.40002441406</ele>
        <time>2019-11-10T10:39:30.000Z</time>
      </trkpt>
      <trkpt lat="47.82586" lon="7.11893">
        <ele>616</ele>
        <time>2019-11-10T10:39:31.000Z</time>
      </trkpt>
      <trkpt lat="47.82589" lon="7.11901">
        <ele>615.59997558594</ele>
        <time>2019-11-10T10:39:32.000Z</time>
      </trkpt>
      <trkpt lat="47.82591" lon="7.11909">
        <ele>615</ele>
        <time>2019-11-10T10:39:33.000Z</time>
      </trkpt>
      <trkpt lat="47.82593" lon="7.11917">
        <ele>614.59997558594</ele>
        <time>2019-11-10T10:39:34.000Z</time>
      </trkpt>
      <trkpt lat="47.82594" lon="7.11926">
        <ele>614.59997558594</ele>
        <time>2019-11-10T10:39:35.000Z</time>
      </trkpt>
      <trkpt lat="47.82595" lon="7.11939">
        <ele>614.59997558594</ele>
        <time>2019-11-10T10:39:37.000Z</time>
      </trkpt>
      <trkpt lat="47.82595" lon="7.11958">
        <ele>614.59997558594</ele>
        <time>2019-11-10T10:39:40.000Z</time>
      </trkpt>
      <trkpt lat="47.82593" lon="7.11964">
        <ele>614.59997558594</ele>
        <time>2019-11-10T10:39:41.000Z</time>
      </trkpt>
      <trkpt lat="47.82586" lon="7.11991">
        <ele>614.59997558594</ele>
        <time>2019-11-10T10:39:46.000Z</time>
      </trkpt>
      <trkpt lat="47.82581" lon="7.12002">
        <ele>614.20001220703</ele>
        <time>2019-11-10T10:39:48.000Z</time>
      </trkpt>
      <trkpt lat="47.82578" lon="7.12008">
        <ele>613.79998779297</ele>
        <time>2019-11-10T10:39:49.000Z</time>
      </trkpt>
      <trkpt lat="47.82576" lon="7.12013">
        <ele>613.40002441406</ele>
        <time>2019-11-10T10:39:50.000Z</time>
      </trkpt>
      <trkpt lat="47.82572" lon="7.12018">
        <ele>613</ele>
        <time>2019-11-10T10:39:51.000Z</time>
      </trkpt>
      <trkpt lat="47.82569" lon="7.12024">
        <ele>612.59997558594</ele>
        <time>2019-11-10T10:39:52.000Z</time>
      </trkpt>
      <trkpt lat="47.8256" lon="7.12031">
        <ele>612.59997558594</ele>
        <time>2019-11-10T10:39:54.000Z</time>
      </trkpt>
      <trkpt lat="47.82541" lon="7.1204">
        <ele>612.59997558594</ele>
        <time>2019-11-10T10:39:58.000Z</time>
      </trkpt>
      <trkpt lat="47.82535" lon="7.12042">
        <ele>612.59997558594</ele>
        <time>2019-11-10T10:39:59.000Z</time>
      </trkpt>
      <trkpt lat="47.82529" lon="7.12045">
        <ele>612.20001220703</ele>
        <time>2019-11-10T10:40:00.000Z</time>
      </trkpt>
      <trkpt lat="47.82524" lon="7.12049">
        <ele>611.79998779297</ele>
        <time>2019-11-10T10:40:01.000Z</time>
      </trkpt>
      <trkpt lat="47.8252" lon="7.12051">
        <ele>611.20001220703</ele>
        <time>2019-11-10T10:40:02.000Z</time>
      </trkpt>
      <trkpt lat="47.82515" lon="7.12055">
        <ele>610.79998779297</ele>
        <time>2019-11-10T10:40:03.000Z</time>
      </trkpt>
      <trkpt lat="47.82509" lon="7.12059">
        <ele>610.20001220703</ele>
        <time>2019-11-10T10:40:04.000Z</time>
      </trkpt>
      <trkpt lat="47.82502" lon="7.12062">
        <ele>609.79998779297</ele>
        <time>2019-11-10T10:40:05.000Z</time>
      </trkpt>
      <trkpt lat="47.82495" lon="7.12064">
        <ele>609.20001220703</ele>
        <time>2019-11-10T10:40:06.000Z</time>
      </trkpt>
      <trkpt lat="47.82488" lon="7.12067">
        <ele>608.59997558594</ele>
        <time>2019-11-10T10:40:07.000Z</time>
      </trkpt>
      <trkpt lat="47.82481" lon="7.12068">
        <ele>608</ele>
        <time>2019-11-10T10:40:08.000Z</time>
      </trkpt>
      <trkpt lat="47.82473" lon="7.1207">
        <ele>607.40002441406</ele>
        <time>2019-11-10T10:40:09.000Z</time>
      </trkpt>
      <trkpt lat="47.82465" lon="7.12069">
        <ele>606.79998779297</ele>
        <time>2019-11-10T10:40:10.000Z</time>
      </trkpt>
      <trkpt lat="47.82456" lon="7.12067">
        <ele>605.59997558594</ele>
        <time>2019-11-10T10:40:11.000Z</time>
      </trkpt>
      <trkpt lat="47.82446" lon="7.12063">
        <ele>604.79998779297</ele>
        <time>2019-11-10T10:40:12.000Z</time>
      </trkpt>
      <trkpt lat="47.82437" lon="7.12058">
        <ele>604</ele>
        <time>2019-11-10T10:40:13.000Z</time>
      </trkpt>
      <trkpt lat="47.82427" lon="7.12054">
        <ele>603</ele>
        <time>2019-11-10T10:40:14.000Z</time>
      </trkpt>
      <trkpt lat="47.82417" lon="7.1205">
        <ele>601.59997558594</ele>
        <time>2019-11-10T10:40:15.000Z</time>
      </trkpt>
      <trkpt lat="47.82407" lon="7.12045">
        <ele>600</ele>
        <time>2019-11-10T10:40:16.000Z</time>
      </trkpt>
      <trkpt lat="47.82396" lon="7.12039">
        <ele>598.40002441406</ele>
        <time>2019-11-10T10:40:17.000Z</time>
      </trkpt>
      <trkpt lat="47.82386" lon="7.12032">
        <ele>596.59997558594</ele>
        <time>2019-11-10T10:40:18.000Z</time>
      </trkpt>
      <trkpt lat="47.82376" lon="7.12024">
        <ele>595</ele>
        <time>2019-11-10T10:40:19.000Z</time>
      </trkpt>
      <trkpt lat="47.82368" lon="7.12015">
        <ele>593.59997558594</ele>
        <time>2019-11-10T10:40:20.000Z</time>
      </trkpt>
      <trkpt lat="47.82361" lon="7.12009">
        <ele>592.20001220703</ele>
        <time>2019-11-10T10:40:21.000Z</time>
      </trkpt>
      <trkpt lat="47.82354" lon="7.12006">
        <ele>590.79998779297</ele>
        <time>2019-11-10T10:40:22.000Z</time>
      </trkpt>
      <trkpt lat="47.82346" lon="7.12008">
        <ele>589.40002441406</ele>
        <time>2019-11-10T10:40:23.000Z</time>
      </trkpt>
      <trkpt lat="47.82336" lon="7.12012">
        <ele>588</ele>
        <time>2019-11-10T10:40:24.000Z</time>
      </trkpt>
      <trkpt lat="47.82328" lon="7.12018">
        <ele>587.20001220703</ele>
        <time>2019-11-10T10:40:25.000Z</time>
      </trkpt>
      <trkpt lat="47.82319" lon="7.12025">
        <ele>586.40002441406</ele>
        <time>2019-11-10T10:40:26.000Z</time>
      </trkpt>
      <trkpt lat="47.82311" lon="7.12031">
        <ele>585.59997558594</ele>
        <time>2019-11-10T10:40:27.000Z</time>
      </trkpt>
      <trkpt lat="47.82301" lon="7.12037">
        <ele>584.79998779297</ele>
        <time>2019-11-10T10:40:28.000Z</time>
      </trkpt>
      <trkpt lat="47.82294" lon="7.12043">
        <ele>584</ele>
        <time>2019-11-10T10:40:29.000Z</time>
      </trkpt>
      <trkpt lat="47.82286" lon="7.12048">
        <ele>583.20001220703</ele>
        <time>2019-11-10T10:40:30.000Z</time>
      </trkpt>
      <trkpt lat="47.82279" lon="7.12053">
        <ele>582.40002441406</ele>
        <time>2019-11-10T10:40:31.000Z</time>
      </trkpt>
      <trkpt lat="47.82271" lon="7.12062">
        <ele>581.59997558594</ele>
        <time>2019-11-10T10:40:32.000Z</time>
      </trkpt>
      <trkpt lat="47.82264" lon="7.1207">
        <ele>581</ele>
        <time>2019-11-10T10:40:33.000Z</time>
      </trkpt>
      <trkpt lat="47.82257" lon="7.12077">
        <ele>580.20001220703</ele>
        <time>2019-11-10T10:40:34.000Z</time>
      </trkpt>
      <trkpt lat="47.82249" lon="7.12085">
        <ele>578.40002441406</ele>
        <time>2019-11-10T10:40:35.000Z</time>
      </trkpt>
      <trkpt lat="47.82241" lon="7.12093">
        <ele>577</ele>
        <time>2019-11-10T10:40:36.000Z</time>
      </trkpt>
      <trkpt lat="47.82234" lon="7.12101">
        <ele>575.79998779297</ele>
        <time>2019-11-10T10:40:37.000Z</time>
      </trkpt>
      <trkpt lat="47.82227" lon="7.12108">
        <ele>574.59997558594</ele>
        <time>2019-11-10T10:40:38.000Z</time>
      </trkpt>
      <trkpt lat="47.82222" lon="7.12113">
        <ele>573.20001220703</ele>
        <time>2019-11-10T10:40:39.000Z</time>
      </trkpt>
      <trkpt lat="47.82218" lon="7.12117">
        <ele>572</ele>
        <time>2019-11-10T10:40:40.000Z</time>
      </trkpt>
      <trkpt lat="47.82215" lon="7.12119">
        <ele>570.79998779297</ele>
        <time>2019-11-10T10:40:41.000Z</time>
      </trkpt>
      <trkpt lat="47.82213" lon="7.1212">
        <ele>569.40002441406</ele>
        <time>2019-11-10T10:40:42.000Z</time>
      </trkpt>
      <trkpt lat="47.82207" lon="7.12122">
        <ele>569.40002441406</ele>
        <time>2019-11-10T10:40:47.000Z</time>
      </trkpt>
      <trkpt lat="47.82208" lon="7.12122">
        <ele>569.40002441406</ele>
        <time>2019-11-10T10:40:48.000Z</time>
      </trkpt>
      <trkpt lat="47.82205" lon="7.12116">
        <ele>569.40002441406</ele>
        <time>2019-11-10T10:40:55.000Z</time>
      </trkpt>
      <trkpt lat="47.82205" lon="7.12114">
        <ele>569.40002441406</ele>
        <time>2019-11-10T10:40:56.000Z</time>
      </trkpt>
      <trkpt lat="47.82202" lon="7.12111">
        <ele>569.40002441406</ele>
        <time>2019-11-10T10:40:58.000Z</time>
      </trkpt>
      <trkpt lat="47.82198" lon="7.12106">
        <ele>569.40002441406</ele>
        <time>2019-11-10T10:41:01.000Z</time>
      </trkpt>
      <trkpt lat="47.82189" lon="7.12095">
        <ele>569.40002441406</ele>
        <time>2019-11-10T10:41:06.000Z</time>
      </trkpt>
      <trkpt lat="47.82183" lon="7.12088">
        <ele>569.40002441406</ele>
        <time>2019-11-10T10:41:08.000Z</time>
      </trkpt>
      <trkpt lat="47.82176" lon="7.12083">
        <ele>569.40002441406</ele>
        <time>2019-11-10T10:41:11.000Z</time>
      </trkpt>
      <trkpt lat="47.82169" lon="7.12083">
        <ele>569.40002441406</ele>
        <time>2019-11-10T10:41:16.000Z</time>
      </trkpt>
      <trkpt lat="47.82167" lon="7.12083">
        <ele>569.40002441406</ele>
        <time>2019-11-10T10:41:18.000Z</time>
      </trkpt>
      <trkpt lat="47.82163" lon="7.12083">
        <ele>569.40002441406</ele>
        <time>2019-11-10T10:41:22.000Z</time>
      </trkpt>
      <trkpt lat="47.82162" lon="7.12083">
        <ele>569.40002441406</ele>
        <time>2019-11-10T10:41:23.000Z</time>
      </trkpt>
      <trkpt lat="47.82158" lon="7.12083">
        <ele>569.40002441406</ele>
        <time>2019-11-10T10:41:33.000Z</time>
      </trkpt>
      <trkpt lat="47.82155" lon="7.12082">
        <ele>569</ele>
        <time>2019-11-10T10:41:34.000Z</time>
      </trkpt>
      <trkpt lat="47.82152" lon="7.12083">
        <ele>568.59997558594</ele>
        <time>2019-11-10T10:41:35.000Z</time>
      </trkpt>
      <trkpt lat="47.82148" lon="7.12083">
        <ele>568.20001220703</ele>
        <time>2019-11-10T10:41:36.000Z</time>
      </trkpt>
      <trkpt lat="47.82145" lon="7.12084">
        <ele>567.59997558594</ele>
        <time>2019-11-10T10:41:37.000Z</time>
      </trkpt>
      <trkpt lat="47.82141" lon="7.12085">
        <ele>567</ele>
        <time>2019-11-10T10:41:38.000Z</time>
      </trkpt>
      <trkpt lat="47.82138" lon="7.12087">
        <ele>566.40002441406</ele>
        <time>2019-11-10T10:41:39.000Z</time>
      </trkpt>
      <trkpt lat="47.82135" lon="7.12088">
        <ele>565.79998779297</ele>
        <time>2019-11-10T10:41:40.000Z</time>
      </trkpt>
      <trkpt lat="47.82132" lon="7.12089">
        <ele>565.20001220703</ele>
        <time>2019-11-10T10:41:41.000Z</time>
      </trkpt>
      <trkpt lat="47.82128" lon="7.1209">
        <ele>564.79998779297</ele>
        <time>2019-11-10T10:41:42.000Z</time>
      </trkpt>
      <trkpt lat="47.82124" lon="7.12094">
        <ele>564.40002441406</ele>
        <time>2019-11-10T10:41:43.000Z</time>
      </trkpt>
      <trkpt lat="47.82119" lon="7.12098">
        <ele>563.79998779297</ele>
        <time>2019-11-10T10:41:44.000Z</time>
      </trkpt>
      <trkpt lat="47.82115" lon="7.12104">
        <ele>563.20001220703</ele>
        <time>2019-11-10T10:41:45.000Z</time>
      </trkpt>
      <trkpt lat="47.82109" lon="7.12111">
        <ele>562.59997558594</ele>
        <time>2019-11-10T10:41:46.000Z</time>
      </trkpt>
      <trkpt lat="47.82102" lon="7.12118">
        <ele>562</ele>
        <time>2019-11-10T10:41:47.000Z</time>
      </trkpt>
      <trkpt lat="47.82096" lon="7.12125">
        <ele>560.40002441406</ele>
        <time>2019-11-10T10:41:48.000Z</time>
      </trkpt>
      <trkpt lat="47.8209" lon="7.12131">
        <ele>559.59997558594</ele>
        <time>2019-11-10T10:41:49.000Z</time>
      </trkpt>
      <trkpt lat="47.82084" lon="7.12139">
        <ele>558.59997558594</ele>
        <time>2019-11-10T10:41:50.000Z</time>
      </trkpt>
      <trkpt lat="47.82079" lon="7.12145">
        <ele>557.79998779297</ele>
        <time>2019-11-10T10:41:51.000Z</time>
      </trkpt>
      <trkpt lat="47.82075" lon="7.1215">
        <ele>556.79998779297</ele>
        <time>2019-11-10T10:41:52.000Z</time>
      </trkpt>
      <trkpt lat="47.8207" lon="7.12153">
        <ele>556.20001220703</ele>
        <time>2019-11-10T10:41:53.000Z</time>
      </trkpt>
      <trkpt lat="47.82064" lon="7.12158">
        <ele>555.59997558594</ele>
        <time>2019-11-10T10:41:54.000Z</time>
      </trkpt>
      <trkpt lat="47.82057" lon="7.12163">
        <ele>555</ele>
        <time>2019-11-10T10:41:55.000Z</time>
      </trkpt>
      <trkpt lat="47.82051" lon="7.12168">
        <ele>554.20001220703</ele>
        <time>2019-11-10T10:41:56.000Z</time>
      </trkpt>
      <trkpt lat="47.82045" lon="7.12173">
        <ele>553.40002441406</ele>
        <time>2019-11-10T10:41:57.000Z</time>
      </trkpt>
      <trkpt lat="47.82037" lon="7.12179">
        <ele>552.59997558594</ele>
        <time>2019-11-10T10:41:58.000Z</time>
      </trkpt>
      <trkpt lat="47.82031" lon="7.12185">
        <ele>551.59997558594</ele>
        <time>2019-11-10T10:41:59.000Z</time>
      </trkpt>
      <trkpt lat="47.82024" lon="7.12193">
        <ele>550.59997558594</ele>
        <time>2019-11-10T10:42:00.000Z</time>
      </trkpt>
      <trkpt lat="47.82018" lon="7.12201">
        <ele>549.79998779297</ele>
        <time>2019-11-10T10:42:01.000Z</time>
      </trkpt>
      <trkpt lat="47.82012" lon="7.12208">
        <ele>548.59997558594</ele>
        <time>2019-11-10T10:42:02.000Z</time>
      </trkpt>
      <trkpt lat="47.82006" lon="7.12218">
        <ele>547.59997558594</ele>
        <time>2019-11-10T10:42:03.000Z</time>
      </trkpt>
      <trkpt lat="47.82" lon="7.12227">
        <ele>546.40002441406</ele>
        <time>2019-11-10T10:42:04.000Z</time>
      </trkpt>
      <trkpt lat="47.81994" lon="7.12237">
        <ele>545</ele>
        <time>2019-11-10T10:42:05.000Z</time>
      </trkpt>
      <trkpt lat="47.81988" lon="7.12246">
        <ele>543.79998779297</ele>
        <time>2019-11-10T10:42:06.000Z</time>
      </trkpt>
      <trkpt lat="47.81981" lon="7.12256">
        <ele>542.79998779297</ele>
        <time>2019-11-10T10:42:07.000Z</time>
      </trkpt>
      <trkpt lat="47.81974" lon="7.12266">
        <ele>541.79998779297</ele>
        <time>2019-11-10T10:42:08.000Z</time>
      </trkpt>
      <trkpt lat="47.81967" lon="7.12277">
        <ele>540.59997558594</ele>
        <time>2019-11-10T10:42:09.000Z</time>
      </trkpt>
      <trkpt lat="47.8196" lon="7.12287">
        <ele>539.40002441406</ele>
        <time>2019-11-10T10:42:10.000Z</time>
      </trkpt>
      <trkpt lat="47.81955" lon="7.12297">
        <ele>538</ele>
        <time>2019-11-10T10:42:11.000Z</time>
      </trkpt>
      <trkpt lat="47.8195" lon="7.12306">
        <ele>536.79998779297</ele>
        <time>2019-11-10T10:42:12.000Z</time>
      </trkpt>
      <trkpt lat="47.81945" lon="7.12313">
        <ele>534.20001220703</ele>
        <time>2019-11-10T10:42:13.000Z</time>
      </trkpt>
      <trkpt lat="47.81941" lon="7.1232">
        <ele>533</ele>
        <time>2019-11-10T10:42:14.000Z</time>
      </trkpt>
      <trkpt lat="47.81936" lon="7.12325">
        <ele>532.40002441406</ele>
        <time>2019-11-10T10:42:15.000Z</time>
      </trkpt>
      <trkpt lat="47.81929" lon="7.12328">
        <ele>531.79998779297</ele>
        <time>2019-11-10T10:42:16.000Z</time>
      </trkpt>
      <trkpt lat="47.81922" lon="7.1233">
        <ele>531.40002441406</ele>
        <time>2019-11-10T10:42:17.000Z</time>
      </trkpt>
      <trkpt lat="47.81914" lon="7.12333">
        <ele>530.59997558594</ele>
        <time>2019-11-10T10:42:18.000Z</time>
      </trkpt>
      <trkpt lat="47.81907" lon="7.12336">
        <ele>529.79998779297</ele>
        <time>2019-11-10T10:42:19.000Z</time>
      </trkpt>
      <trkpt lat="47.81899" lon="7.12338">
        <ele>528.59997558594</ele>
        <time>2019-11-10T10:42:20.000Z</time>
      </trkpt>
      <trkpt lat="47.8189" lon="7.12341">
        <ele>527.59997558594</ele>
        <time>2019-11-10T10:42:21.000Z</time>
      </trkpt>
      <trkpt lat="47.81881" lon="7.12341">
        <ele>526.40002441406</ele>
        <time>2019-11-10T10:42:22.000Z</time>
      </trkpt>
      <trkpt lat="47.81872" lon="7.1234">
        <ele>525</ele>
        <time>2019-11-10T10:42:23.000Z</time>
      </trkpt>
      <trkpt lat="47.81863" lon="7.12338">
        <ele>523.79998779297</ele>
        <time>2019-11-10T10:42:24.000Z</time>
      </trkpt>
      <trkpt lat="47.81855" lon="7.12337">
        <ele>522.59997558594</ele>
        <time>2019-11-10T10:42:25.000Z</time>
      </trkpt>
      <trkpt lat="47.81847" lon="7.12338">
        <ele>521.20001220703</ele>
        <time>2019-11-10T10:42:26.000Z</time>
      </trkpt>
      <trkpt lat="47.8184" lon="7.12336">
        <ele>520.40002441406</ele>
        <time>2019-11-10T10:42:27.000Z</time>
      </trkpt>
      <trkpt lat="47.81833" lon="7.12338">
        <ele>519.40002441406</ele>
        <time>2019-11-10T10:42:28.000Z</time>
      </trkpt>
      <trkpt lat="47.81826" lon="7.12341">
        <ele>518.59997558594</ele>
        <time>2019-11-10T10:42:29.000Z</time>
      </trkpt>
      <trkpt lat="47.81821" lon="7.12345">
        <ele>517.59997558594</ele>
        <time>2019-11-10T10:42:30.000Z</time>
      </trkpt>
      <trkpt lat="47.81817" lon="7.12353">
        <ele>516.59997558594</ele>
        <time>2019-11-10T10:42:31.000Z</time>
      </trkpt>
      <trkpt lat="47.81813" lon="7.1236">
        <ele>516.20001220703</ele>
        <time>2019-11-10T10:42:32.000Z</time>
      </trkpt>
      <trkpt lat="47.81809" lon="7.12368">
        <ele>515.59997558594</ele>
        <time>2019-11-10T10:42:33.000Z</time>
      </trkpt>
      <trkpt lat="47.81804" lon="7.1238">
        <ele>514.79998779297</ele>
        <time>2019-11-10T10:42:34.000Z</time>
      </trkpt>
      <trkpt lat="47.81799" lon="7.12393">
        <ele>514</ele>
        <time>2019-11-10T10:42:35.000Z</time>
      </trkpt>
      <trkpt lat="47.81794" lon="7.12403">
        <ele>512.79998779297</ele>
        <time>2019-11-10T10:42:36.000Z</time>
      </trkpt>
      <trkpt lat="47.8179" lon="7.12411">
        <ele>511.60000610352</ele>
        <time>2019-11-10T10:42:37.000Z</time>
      </trkpt>
      <trkpt lat="47.81784" lon="7.12416">
        <ele>509</ele>
        <time>2019-11-10T10:42:38.000Z</time>
      </trkpt>
      <trkpt lat="47.81779" lon="7.12419">
        <ele>507.79998779297</ele>
        <time>2019-11-10T10:42:39.000Z</time>
      </trkpt>
      <trkpt lat="47.81774" lon="7.12421">
        <ele>506.60000610352</ele>
        <time>2019-11-10T10:42:40.000Z</time>
      </trkpt>
      <trkpt lat="47.81768" lon="7.12421">
        <ele>505.39999389648</ele>
        <time>2019-11-10T10:42:41.000Z</time>
      </trkpt>
      <trkpt lat="47.81761" lon="7.1242">
        <ele>504.20001220703</ele>
        <time>2019-11-10T10:42:42.000Z</time>
      </trkpt>
      <trkpt lat="47.81755" lon="7.1242">
        <ele>503.39999389648</ele>
        <time>2019-11-10T10:42:43.000Z</time>
      </trkpt>
      <trkpt lat="47.81749" lon="7.12418">
        <ele>502.60000610352</ele>
        <time>2019-11-10T10:42:44.000Z</time>
      </trkpt>
      <trkpt lat="47.81743" lon="7.12416">
        <ele>502</ele>
        <time>2019-11-10T10:42:45.000Z</time>
      </trkpt>
      <trkpt lat="47.81736" lon="7.12415">
        <ele>501.20001220703</ele>
        <time>2019-11-10T10:42:46.000Z</time>
      </trkpt>
      <trkpt lat="47.8173" lon="7.12412">
        <ele>500.39999389648</ele>
        <time>2019-11-10T10:42:47.000Z</time>
      </trkpt>
      <trkpt lat="47.81724" lon="7.12409">
        <ele>499.79998779297</ele>
        <time>2019-11-10T10:42:48.000Z</time>
      </trkpt>
      <trkpt lat="47.81718" lon="7.12406">
        <ele>499</ele>
        <time>2019-11-10T10:42:49.000Z</time>
      </trkpt>
      <trkpt lat="47.81711" lon="7.12402">
        <ele>498.20001220703</ele>
        <time>2019-11-10T10:42:50.000Z</time>
      </trkpt>
      <trkpt lat="47.81705" lon="7.12397">
        <ele>497.60000610352</ele>
        <time>2019-11-10T10:42:51.000Z</time>
      </trkpt>
      <trkpt lat="47.81699" lon="7.12391">
        <ele>497</ele>
        <time>2019-11-10T10:42:52.000Z</time>
      </trkpt>
      <trkpt lat="47.81693" lon="7.12385">
        <ele>496.20001220703</ele>
        <time>2019-11-10T10:42:53.000Z</time>
      </trkpt>
      <trkpt lat="47.81687" lon="7.12378">
        <ele>495.39999389648</ele>
        <time>2019-11-10T10:42:54.000Z</time>
      </trkpt>
      <trkpt lat="47.8168" lon="7.12371">
        <ele>494.60000610352</ele>
        <time>2019-11-10T10:42:55.000Z</time>
      </trkpt>
      <trkpt lat="47.81673" lon="7.12364">
        <ele>493.60000610352</ele>
        <time>2019-11-10T10:42:56.000Z</time>
      </trkpt>
      <trkpt lat="47.81667" lon="7.12358">
        <ele>492.79998779297</ele>
        <time>2019-11-10T10:42:57.000Z</time>
      </trkpt>
      <trkpt lat="47.81661" lon="7.12353">
        <ele>491.60000610352</ele>
        <time>2019-11-10T10:42:58.000Z</time>
      </trkpt>
      <trkpt lat="47.81654" lon="7.12349">
        <ele>490.60000610352</ele>
        <time>2019-11-10T10:42:59.000Z</time>
      </trkpt>
      <trkpt lat="47.81646" lon="7.12348">
        <ele>489.39999389648</ele>
        <time>2019-11-10T10:43:00.000Z</time>
      </trkpt>
      <trkpt lat="47.8164" lon="7.12349">
        <ele>488.20001220703</ele>
        <time>2019-11-10T10:43:01.000Z</time>
      </trkpt>
      <trkpt lat="47.81634" lon="7.12351">
        <ele>487.20001220703</ele>
        <time>2019-11-10T10:43:02.000Z</time>
      </trkpt>
      <trkpt lat="47.81628" lon="7.12356">
        <ele>485</ele>
        <time>2019-11-10T10:43:03.000Z</time>
      </trkpt>
      <trkpt lat="47.81622" lon="7.12362">
        <ele>484</ele>
        <time>2019-11-10T10:43:04.000Z</time>
      </trkpt>
      <trkpt lat="47.81617" lon="7.12366">
        <ele>482.79998779297</ele>
        <time>2019-11-10T10:43:05.000Z</time>
      </trkpt>
      <trkpt lat="47.81612" lon="7.12371">
        <ele>482.20001220703</ele>
        <time>2019-11-10T10:43:06.000Z</time>
      </trkpt>
      <trkpt lat="47.81605" lon="7.12373">
        <ele>481.39999389648</ele>
        <time>2019-11-10T10:43:07.000Z</time>
      </trkpt>
      <trkpt lat="47.816" lon="7.12376">
        <ele>480.60000610352</ele>
        <time>2019-11-10T10:43:08.000Z</time>
      </trkpt>
      <trkpt lat="47.81594" lon="7.12377">
        <ele>479.79998779297</ele>
        <time>2019-11-10T10:43:09.000Z</time>
      </trkpt>
      <trkpt lat="47.81587" lon="7.12377">
        <ele>478.79998779297</ele>
        <time>2019-11-10T10:43:10.000Z</time>
      </trkpt>
      <trkpt lat="47.81581" lon="7.12376">
        <ele>478</ele>
        <time>2019-11-10T10:43:11.000Z</time>
      </trkpt>
      <trkpt lat="47.81573" lon="7.12376">
        <ele>477.20001220703</ele>
        <time>2019-11-10T10:43:12.000Z</time>
      </trkpt>
      <trkpt lat="47.81564" lon="7.12375">
        <ele>476.20001220703</ele>
        <time>2019-11-10T10:43:13.000Z</time>
      </trkpt>
      <trkpt lat="47.81557" lon="7.12375">
        <ele>475.20001220703</ele>
        <time>2019-11-10T10:43:14.000Z</time>
      </trkpt>
      <trkpt lat="47.81552" lon="7.12376">
        <ele>474</ele>
        <time>2019-11-10T10:43:15.000Z</time>
      </trkpt>
      <trkpt lat="47.81546" lon="7.12379">
        <ele>473</ele>
        <time>2019-11-10T10:43:16.000Z</time>
      </trkpt>
      <trkpt lat="47.81541" lon="7.12383">
        <ele>472</ele>
        <time>2019-11-10T10:43:17.000Z</time>
      </trkpt>
      <trkpt lat="47.81539" lon="7.12383">
        <ele>471.39999389648</ele>
        <time>2019-11-10T10:43:18.000Z</time>
      </trkpt>
      <trkpt lat="47.81538" lon="7.12384">
        <ele>470.60000610352</ele>
        <time>2019-11-10T10:43:19.000Z</time>
      </trkpt>
      <trkpt lat="47.81537" lon="7.12386">
        <ele>470</ele>
        <time>2019-11-10T10:43:20.000Z</time>
      </trkpt>
      <trkpt lat="47.81533" lon="7.12384">
        <ele>468.79998779297</ele>
        <time>2019-11-10T10:44:15.000Z</time>
      </trkpt>
      <trkpt lat="47.81533" lon="7.12382">
        <ele>468.79998779297</ele>
        <time>2019-11-10T10:44:16.000Z</time>
      </trkpt>
      <trkpt lat="47.81533" lon="7.12376">
        <ele>468.79998779297</ele>
        <time>2019-11-10T10:44:19.000Z</time>
      </trkpt>
      <trkpt lat="47.81532" lon="7.12375">
        <ele>468.79998779297</ele>
        <time>2019-11-10T10:44:20.000Z</time>
      </trkpt>
      <trkpt lat="47.8153" lon="7.12373">
        <ele>468.79998779297</ele>
        <time>2019-11-10T10:44:22.000Z</time>
      </trkpt>
      <trkpt lat="47.81527" lon="7.12379">
        <ele>468.79998779297</ele>
        <time>2019-11-10T10:47:02.000Z</time>
      </trkpt>
      <trkpt lat="47.81522" lon="7.12374">
        <ele>468.79998779297</ele>
        <time>2019-11-10T10:47:04.000Z</time>
      </trkpt>
      <trkpt lat="47.81518" lon="7.12372">
        <ele>468.79998779297</ele>
        <time>2019-11-10T10:47:05.000Z</time>
      </trkpt>
      <trkpt lat="47.81512" lon="7.12367">
        <ele>468.39999389648</ele>
        <time>2019-11-10T10:47:07.000Z</time>
      </trkpt>
      <trkpt lat="47.81509" lon="7.12364">
        <ele>468</ele>
        <time>2019-11-10T10:47:08.000Z</time>
      </trkpt>
      <trkpt lat="47.81506" lon="7.12363">
        <ele>467.60000610352</ele>
        <time>2019-11-10T10:47:09.000Z</time>
      </trkpt>
      <trkpt lat="47.81503" lon="7.12361">
        <ele>467.20001220703</ele>
        <time>2019-11-10T10:47:10.000Z</time>
      </trkpt>
      <trkpt lat="47.81502" lon="7.12359">
        <ele>466.79998779297</ele>
        <time>2019-11-10T10:47:11.000Z</time>
      </trkpt>
      <trkpt lat="47.815" lon="7.12355">
        <ele>466.79998779297</ele>
        <time>2019-11-10T10:47:13.000Z</time>
      </trkpt>
      <trkpt lat="47.81501" lon="7.12352">
        <ele>466.79998779297</ele>
        <time>2019-11-10T10:47:16.000Z</time>
      </trkpt>
      <trkpt lat="47.81498" lon="7.12347">
        <ele>466.79998779297</ele>
        <time>2019-11-10T10:53:38.000Z</time>
      </trkpt>
      <trkpt lat="47.81499" lon="7.12341">
        <ele>466.79998779297</ele>
        <time>2019-11-10T10:53:41.000Z</time>
      </trkpt>
      <trkpt lat="47.815" lon="7.12337">
        <ele>466.79998779297</ele>
        <time>2019-11-10T10:53:45.000Z</time>
      </trkpt>
      <trkpt lat="47.81504" lon="7.12316">
        <ele>466.20001220703</ele>
        <time>2019-11-10T10:53:49.000Z</time>
      </trkpt>
      <trkpt lat="47.81505" lon="7.12309">
        <ele>465.79998779297</ele>
        <time>2019-11-10T10:53:50.000Z</time>
      </trkpt>
      <trkpt lat="47.81507" lon="7.12302">
        <ele>465.20001220703</ele>
        <time>2019-11-10T10:53:51.000Z</time>
      </trkpt>
      <trkpt lat="47.81507" lon="7.12294">
        <ele>464.60000610352</ele>
        <time>2019-11-10T10:53:52.000Z</time>
      </trkpt>
      <trkpt lat="47.81507" lon="7.12288">
        <ele>463.79998779297</ele>
        <time>2019-11-10T10:53:53.000Z</time>
      </trkpt>
      <trkpt lat="47.81508" lon="7.12282">
        <ele>463.20001220703</ele>
        <time>2019-11-10T10:53:54.000Z</time>
      </trkpt>
      <trkpt lat="47.81509" lon="7.12276">
        <ele>462.60000610352</ele>
        <time>2019-11-10T10:53:55.000Z</time>
      </trkpt>
      <trkpt lat="47.81508" lon="7.1227">
        <ele>461.79998779297</ele>
        <time>2019-11-10T10:53:56.000Z</time>
      </trkpt>
      <trkpt lat="47.81508" lon="7.12264">
        <ele>461.20001220703</ele>
        <time>2019-11-10T10:53:57.000Z</time>
      </trkpt>
      <trkpt lat="47.81508" lon="7.12257">
        <ele>460.39999389648</ele>
        <time>2019-11-10T10:53:58.000Z</time>
      </trkpt>
      <trkpt lat="47.81509" lon="7.12246">
        <ele>459.79998779297</ele>
        <time>2019-11-10T10:53:59.000Z</time>
      </trkpt>
      <trkpt lat="47.81508" lon="7.12237">
        <ele>459</ele>
        <time>2019-11-10T10:54:00.000Z</time>
      </trkpt>
      <trkpt lat="47.81508" lon="7.12229">
        <ele>458.20001220703</ele>
        <time>2019-11-10T10:54:01.000Z</time>
      </trkpt>
      <trkpt lat="47.81508" lon="7.12223">
        <ele>457.39999389648</ele>
        <time>2019-11-10T10:54:02.000Z</time>
      </trkpt>
      <trkpt lat="47.81508" lon="7.12218">
        <ele>456.39999389648</ele>
        <time>2019-11-10T10:54:03.000Z</time>
      </trkpt>
      <trkpt lat="47.81508" lon="7.12216">
        <ele>455.60000610352</ele>
        <time>2019-11-10T10:54:04.000Z</time>
      </trkpt>
      <trkpt lat="47.81508" lon="7.12215">
        <ele>454.79998779297</ele>
        <time>2019-11-10T10:54:05.000Z</time>
      </trkpt>
      <trkpt lat="47.81508" lon="7.12211">
        <ele>452.20001220703</ele>
        <time>2019-11-10T10:54:08.000Z</time>
      </trkpt>
      <trkpt lat="47.81508" lon="7.12206">
        <ele>452.20001220703</ele>
        <time>2019-11-10T10:54:09.000Z</time>
      </trkpt>
      <trkpt lat="47.81509" lon="7.12192">
        <ele>451.79998779297</ele>
        <time>2019-11-10T10:54:13.000Z</time>
      </trkpt>
      <trkpt lat="47.8151" lon="7.1219">
        <ele>451.39999389648</ele>
        <time>2019-11-10T10:54:14.000Z</time>
      </trkpt>
      <trkpt lat="47.81509" lon="7.12188">
        <ele>451</ele>
        <time>2019-11-10T10:54:15.000Z</time>
      </trkpt>
      <trkpt lat="47.81509" lon="7.12188">
        <ele>450.60000610352</ele>
        <time>2019-11-10T10:54:16.000Z</time>
      </trkpt>
      <trkpt lat="47.81509" lon="7.12188">
        <ele>450.20001220703</ele>
        <time>2019-11-10T10:54:17.000Z</time>
      </trkpt>
      <trkpt lat="47.81505" lon="7.12192">
        <ele>449.60000610352</ele>
        <time>2019-11-10T10:54:21.000Z</time>
      </trkpt>
      <trkpt lat="47.81504" lon="7.12194">
        <ele>449.20001220703</ele>
        <time>2019-11-10T10:54:22.000Z</time>
      </trkpt>
      <trkpt lat="47.81502" lon="7.12197">
        <ele>448.60000610352</ele>
        <time>2019-11-10T10:54:23.000Z</time>
      </trkpt>
      <trkpt lat="47.81501" lon="7.122">
        <ele>448.20001220703</ele>
        <time>2019-11-10T10:54:24.000Z</time>
      </trkpt>
      <trkpt lat="47.815" lon="7.12201">
        <ele>447.79998779297</ele>
        <time>2019-11-10T10:54:25.000Z</time>
      </trkpt>
      <trkpt lat="47.815" lon="7.12202">
        <ele>447.79998779297</ele>
        <time>2019-11-10T10:54:27.000Z</time>
      </trkpt>
      <trkpt lat="47.81498" lon="7.12209">
        <ele>445.60000610352</ele>
        <time>2019-11-10T10:54:34.000Z</time>
      </trkpt>
      <trkpt lat="47.81496" lon="7.12213">
        <ele>445.60000610352</ele>
        <time>2019-11-10T10:54:36.000Z</time>
      </trkpt>
      <trkpt lat="47.81495" lon="7.12217">
        <ele>445</ele>
        <time>2019-11-10T10:54:37.000Z</time>
      </trkpt>
      <trkpt lat="47.81493" lon="7.12222">
        <ele>444.60000610352</ele>
        <time>2019-11-10T10:54:38.000Z</time>
      </trkpt>
      <trkpt lat="47.81492" lon="7.12225">
        <ele>444</ele>
        <time>2019-11-10T10:54:39.000Z</time>
      </trkpt>
      <trkpt lat="47.8149" lon="7.12229">
        <ele>443.39999389648</ele>
        <time>2019-11-10T10:54:40.000Z</time>
      </trkpt>
      <trkpt lat="47.81488" lon="7.12231">
        <ele>442.79998779297</ele>
        <time>2019-11-10T10:54:41.000Z</time>
      </trkpt>
      <trkpt lat="47.81485" lon="7.12235">
        <ele>442.20001220703</ele>
        <time>2019-11-10T10:54:42.000Z</time>
      </trkpt>
      <trkpt lat="47.81483" lon="7.12238">
        <ele>441.39999389648</ele>
        <time>2019-11-10T10:54:43.000Z</time>
      </trkpt>
      <trkpt lat="47.81481" lon="7.12243">
        <ele>440.79998779297</ele>
        <time>2019-11-10T10:54:44.000Z</time>
      </trkpt>
      <trkpt lat="47.81479" lon="7.12246">
        <ele>440.20001220703</ele>
        <time>2019-11-10T10:54:45.000Z</time>
      </trkpt>
      <trkpt lat="47.81476" lon="7.12248">
        <ele>439.39999389648</ele>
        <time>2019-11-10T10:54:46.000Z</time>
      </trkpt>
      <trkpt lat="47.81473" lon="7.12249">
        <ele>438.60000610352</ele>
        <time>2019-11-10T10:54:47.000Z</time>
      </trkpt>
      <trkpt lat="47.8147" lon="7.1225">
        <ele>438</ele>
        <time>2019-11-10T10:54:48.000Z</time>
      </trkpt>
      <trkpt lat="47.81467" lon="7.12251">
        <ele>437.20001220703</ele>
        <time>2019-11-10T10:54:49.000Z</time>
      </trkpt>
      <trkpt lat="47.81465" lon="7.12252">
        <ele>436.60000610352</ele>
        <time>2019-11-10T10:54:50.000Z</time>
      </trkpt>
      <trkpt lat="47.81463" lon="7.12252">
        <ele>436</ele>
        <time>2019-11-10T10:54:51.000Z</time>
      </trkpt>
      <trkpt lat="47.8146" lon="7.12254">
        <ele>435.39999389648</ele>
        <time>2019-11-10T10:54:52.000Z</time>
      </trkpt>
      <trkpt lat="47.81457" lon="7.12254">
        <ele>434.79998779297</ele>
        <time>2019-11-10T10:54:53.000Z</time>
      </trkpt>
      <trkpt lat="47.81454" lon="7.12256">
        <ele>434.20001220703</ele>
        <time>2019-11-10T10:54:54.000Z</time>
      </trkpt>
      <trkpt lat="47.81451" lon="7.12256">
        <ele>433.60000610352</ele>
        <time>2019-11-10T10:54:55.000Z</time>
      </trkpt>
      <trkpt lat="47.81448" lon="7.12256">
        <ele>433</ele>
        <time>2019-11-10T10:54:56.000Z</time>
      </trkpt>
      <trkpt lat="47.81444" lon="7.12258">
        <ele>432.60000610352</ele>
        <time>2019-11-10T10:54:57.000Z</time>
      </trkpt>
      <trkpt lat="47.81439" lon="7.12259">
        <ele>431.20001220703</ele>
        <time>2019-11-10T10:54:58.000Z</time>
      </trkpt>
      <trkpt lat="47.81435" lon="7.12258">
        <ele>430.39999389648</ele>
        <time>2019-11-10T10:54:59.000Z</time>
      </trkpt>
      <trkpt lat="47.81431" lon="7.12258">
        <ele>429.60000610352</ele>
        <time>2019-11-10T10:55:00.000Z</time>
      </trkpt>
      <trkpt lat="47.81425" lon="7.12258">
        <ele>428.79998779297</ele>
        <time>2019-11-10T10:55:01.000Z</time>
      </trkpt>
      <trkpt lat="47.8142" lon="7.12256">
        <ele>428</ele>
        <time>2019-11-10T10:55:02.000Z</time>
      </trkpt>
      <trkpt lat="47.81414" lon="7.12254">
        <ele>427</ele>
        <time>2019-11-10T10:55:03.000Z</time>
      </trkpt>
      <trkpt lat="47.81408" lon="7.12253">
        <ele>426</ele>
        <time>2019-11-10T10:55:04.000Z</time>
      </trkpt>
      <trkpt lat="47.81402" lon="7.12254">
        <ele>425</ele>
        <time>2019-11-10T10:55:05.000Z</time>
      </trkpt>
      <trkpt lat="47.81396" lon="7.12256">
        <ele>424</ele>
        <time>2019-11-10T10:55:06.000Z</time>
      </trkpt>
      <trkpt lat="47.8139" lon="7.12258">
        <ele>423</ele>
        <time>2019-11-10T10:55:07.000Z</time>
      </trkpt>
      <trkpt lat="47.81385" lon="7.12259">
        <ele>422.20001220703</ele>
        <time>2019-11-10T10:55:08.000Z</time>
      </trkpt>
      <trkpt lat="47.81379" lon="7.1226">
        <ele>421.39999389648</ele>
        <time>2019-11-10T10:55:09.000Z</time>
      </trkpt>
      <trkpt lat="47.81374" lon="7.12261">
        <ele>420.60000610352</ele>
        <time>2019-11-10T10:55:10.000Z</time>
      </trkpt>
      <trkpt lat="47.81369" lon="7.12261">
        <ele>420</ele>
        <time>2019-11-10T10:55:11.000Z</time>
      </trkpt>
      <trkpt lat="47.81364" lon="7.12259">
        <ele>419.20001220703</ele>
        <time>2019-11-10T10:55:12.000Z</time>
      </trkpt>
      <trkpt lat="47.81359" lon="7.12257">
        <ele>418.39999389648</ele>
        <time>2019-11-10T10:55:13.000Z</time>
      </trkpt>
      <trkpt lat="47.81355" lon="7.12255">
        <ele>417.60000610352</ele>
        <time>2019-11-10T10:55:14.000Z</time>
      </trkpt>
      <trkpt lat="47.8135" lon="7.12253">
        <ele>416.60000610352</ele>
        <time>2019-11-10T10:55:15.000Z</time>
      </trkpt>
      <trkpt lat="47.81344" lon="7.12251">
        <ele>415.60000610352</ele>
        <time>2019-11-10T10:55:16.000Z</time>
      </trkpt>
      <trkpt lat="47.81339" lon="7.12248">
        <ele>414.39999389648</ele>
        <time>2019-11-10T10:55:17.000Z</time>
      </trkpt>
      <trkpt lat="47.81334" lon="7.12246">
        <ele>413.20001220703</ele>
        <time>2019-11-10T10:55:18.000Z</time>
      </trkpt>
      <trkpt lat="47.81328" lon="7.12244">
        <ele>412.20001220703</ele>
        <time>2019-11-10T10:55:19.000Z</time>
      </trkpt>
      <trkpt lat="47.81322" lon="7.12243">
        <ele>411.20001220703</ele>
        <time>2019-11-10T10:55:20.000Z</time>
      </trkpt>
      <trkpt lat="47.81318" lon="7.12242">
        <ele>410.20001220703</ele>
        <time>2019-11-10T10:55:21.000Z</time>
      </trkpt>
      <trkpt lat="47.81313" lon="7.12242">
        <ele>409.39999389648</ele>
        <time>2019-11-10T10:55:22.000Z</time>
      </trkpt>
      <trkpt lat="47.81308" lon="7.12242">
        <ele>407.60000610352</ele>
        <time>2019-11-10T10:55:23.000Z</time>
      </trkpt>
      <trkpt lat="47.81305" lon="7.1224">
        <ele>407</ele>
        <time>2019-11-10T10:55:24.000Z</time>
      </trkpt>
      <trkpt lat="47.813" lon="7.12239">
        <ele>406.20001220703</ele>
        <time>2019-11-10T10:55:25.000Z</time>
      </trkpt>
      <trkpt lat="47.81295" lon="7.12237">
        <ele>405.39999389648</ele>
        <time>2019-11-10T10:55:26.000Z</time>
      </trkpt>
      <trkpt lat="47.81291" lon="7.12235">
        <ele>404.79998779297</ele>
        <time>2019-11-10T10:55:27.000Z</time>
      </trkpt>
      <trkpt lat="47.81286" lon="7.12234">
        <ele>404</ele>
        <time>2019-11-10T10:55:28.000Z</time>
      </trkpt>
      <trkpt lat="47.81281" lon="7.12233">
        <ele>403.20001220703</ele>
        <time>2019-11-10T10:55:29.000Z</time>
      </trkpt>
      <trkpt lat="47.81278" lon="7.12232">
        <ele>402.39999389648</ele>
        <time>2019-11-10T10:55:30.000Z</time>
      </trkpt>
      <trkpt lat="47.81277" lon="7.12229">
        <ele>401.79998779297</ele>
        <time>2019-11-10T10:55:31.000Z</time>
      </trkpt>
      <trkpt lat="47.81277" lon="7.12225">
        <ele>401</ele>
        <time>2019-11-10T10:55:32.000Z</time>
      </trkpt>
      <trkpt lat="47.81278" lon="7.12223">
        <ele>400.39999389648</ele>
        <time>2019-11-10T10:55:33.000Z</time>
      </trkpt>
      <trkpt lat="47.8128" lon="7.12219">
        <ele>399.79998779297</ele>
        <time>2019-11-10T10:55:34.000Z</time>
      </trkpt>
      <trkpt lat="47.81282" lon="7.12215">
        <ele>399.20001220703</ele>
        <time>2019-11-10T10:55:35.000Z</time>
      </trkpt>
      <trkpt lat="47.81284" lon="7.12211">
        <ele>398.60000610352</ele>
        <time>2019-11-10T10:55:36.000Z</time>
      </trkpt>
      <trkpt lat="47.81286" lon="7.12207">
        <ele>398</ele>
        <time>2019-11-10T10:55:37.000Z</time>
      </trkpt>
      <trkpt lat="47.81289" lon="7.12204">
        <ele>397.39999389648</ele>
        <time>2019-11-10T10:55:38.000Z</time>
      </trkpt>
      <trkpt lat="47.81291" lon="7.12201">
        <ele>396.79998779297</ele>
        <time>2019-11-10T10:55:39.000Z</time>
      </trkpt>
      <trkpt lat="47.81293" lon="7.12198">
        <ele>396</ele>
        <time>2019-11-10T10:55:40.000Z</time>
      </trkpt>
      <trkpt lat="47.81296" lon="7.12194">
        <ele>395.39999389648</ele>
        <time>2019-11-10T10:55:41.000Z</time>
      </trkpt>
      <trkpt lat="47.81299" lon="7.1219">
        <ele>394.79998779297</ele>
        <time>2019-11-10T10:55:42.000Z</time>
      </trkpt>
      <trkpt lat="47.81303" lon="7.12185">
        <ele>394.39999389648</ele>
        <time>2019-11-10T10:55:43.000Z</time>
      </trkpt>
      <trkpt lat="47.81305" lon="7.12179">
        <ele>393.79998779297</ele>
        <time>2019-11-10T10:55:44.000Z</time>
      </trkpt>
      <trkpt lat="47.81308" lon="7.12172">
        <ele>393.20001220703</ele>
        <time>2019-11-10T10:55:45.000Z</time>
      </trkpt>
      <trkpt lat="47.81309" lon="7.12167">
        <ele>392.60000610352</ele>
        <time>2019-11-10T10:55:46.000Z</time>
      </trkpt>
      <trkpt lat="47.81309" lon="7.12164">
        <ele>392</ele>
        <time>2019-11-10T10:55:47.000Z</time>
      </trkpt>
      <trkpt lat="47.81309" lon="7.12162">
        <ele>390.79998779297</ele>
        <time>2019-11-10T10:55:48.000Z</time>
      </trkpt>
      <trkpt lat="47.81309" lon="7.1216">
        <ele>390</ele>
        <time>2019-11-10T10:55:49.000Z</time>
      </trkpt>
      <trkpt lat="47.81311" lon="7.12137">
        <ele>387.60000610352</ele>
        <time>2019-11-10T11:01:56.000Z</time>
      </trkpt>
      <trkpt lat="47.81312" lon="7.12137">
        <ele>387.60000610352</ele>
        <time>2019-11-10T11:01:57.000Z</time>
      </trkpt>
      <trkpt lat="47.81314" lon="7.12137">
        <ele>387.20001220703</ele>
        <time>2019-11-10T11:01:58.000Z</time>
      </trkpt>
      <trkpt lat="47.81317" lon="7.12138">
        <ele>386.79998779297</ele>
        <time>2019-11-10T11:01:59.000Z</time>
      </trkpt>
      <trkpt lat="47.81321" lon="7.12138">
        <ele>386.39999389648</ele>
        <time>2019-11-10T11:02:00.000Z</time>
      </trkpt>
      <trkpt lat="47.81325" lon="7.12138">
        <ele>386</ele>
        <time>2019-11-10T11:02:01.000Z</time>
      </trkpt>
      <trkpt lat="47.81329" lon="7.12136">
        <ele>385.39999389648</ele>
        <time>2019-11-10T11:02:02.000Z</time>
      </trkpt>
      <trkpt lat="47.81332" lon="7.12131">
        <ele>385</ele>
        <time>2019-11-10T11:02:03.000Z</time>
      </trkpt>
      <trkpt lat="47.81333" lon="7.12126">
        <ele>384.39999389648</ele>
        <time>2019-11-10T11:02:04.000Z</time>
      </trkpt>
      <trkpt lat="47.81332" lon="7.12121">
        <ele>383.39999389648</ele>
        <time>2019-11-10T11:02:05.000Z</time>
      </trkpt>
      <trkpt lat="47.8133" lon="7.12115">
        <ele>382.79998779297</ele>
        <time>2019-11-10T11:02:06.000Z</time>
      </trkpt>
      <trkpt lat="47.81327" lon="7.12109">
        <ele>382.39999389648</ele>
        <time>2019-11-10T11:02:07.000Z</time>
      </trkpt>
      <trkpt lat="47.81322" lon="7.12102">
        <ele>382</ele>
        <time>2019-11-10T11:02:08.000Z</time>
      </trkpt>
      <trkpt lat="47.81317" lon="7.12096">
        <ele>381.20001220703</ele>
        <time>2019-11-10T11:02:09.000Z</time>
      </trkpt>
      <trkpt lat="47.81311" lon="7.12088">
        <ele>380.39999389648</ele>
        <time>2019-11-10T11:02:10.000Z</time>
      </trkpt>
      <trkpt lat="47.81305" lon="7.12081">
        <ele>379.39999389648</ele>
        <time>2019-11-10T11:02:11.000Z</time>
      </trkpt>
      <trkpt lat="47.81299" lon="7.12075">
        <ele>378.39999389648</ele>
        <time>2019-11-10T11:02:12.000Z</time>
      </trkpt>
      <trkpt lat="47.81293" lon="7.12071">
        <ele>377.20001220703</ele>
        <time>2019-11-10T11:02:13.000Z</time>
      </trkpt>
      <trkpt lat="47.81288" lon="7.12069">
        <ele>376</ele>
        <time>2019-11-10T11:02:14.000Z</time>
      </trkpt>
      <trkpt lat="47.81283" lon="7.12068">
        <ele>375</ele>
        <time>2019-11-10T11:02:15.000Z</time>
      </trkpt>
      <trkpt lat="47.81279" lon="7.12069">
        <ele>373.79998779297</ele>
        <time>2019-11-10T11:02:16.000Z</time>
      </trkpt>
      <trkpt lat="47.81273" lon="7.12073">
        <ele>372.60000610352</ele>
        <time>2019-11-10T11:02:17.000Z</time>
      </trkpt>
      <trkpt lat="47.81267" lon="7.12078">
        <ele>371.60000610352</ele>
        <time>2019-11-10T11:02:18.000Z</time>
      </trkpt>
      <trkpt lat="47.8126" lon="7.12084">
        <ele>370.20001220703</ele>
        <time>2019-11-10T11:02:19.000Z</time>
      </trkpt>
      <trkpt lat="47.81253" lon="7.12088">
        <ele>369</ele>
        <time>2019-11-10T11:02:20.000Z</time>
      </trkpt>
      <trkpt lat="47.81247" lon="7.12093">
        <ele>367.60000610352</ele>
        <time>2019-11-10T11:02:21.000Z</time>
      </trkpt>
      <trkpt lat="47.8124" lon="7.12099">
        <ele>366.20001220703</ele>
        <time>2019-11-10T11:02:22.000Z</time>
      </trkpt>
      <trkpt lat="47.81232" lon="7.12105">
        <ele>364.60000610352</ele>
        <time>2019-11-10T11:02:23.000Z</time>
      </trkpt>
      <trkpt lat="47.81223" lon="7.12111">
        <ele>363</ele>
        <time>2019-11-10T11:02:24.000Z</time>
      </trkpt>
      <trkpt lat="47.81212" lon="7.12117">
        <ele>361.39999389648</ele>
        <time>2019-11-10T11:02:25.000Z</time>
      </trkpt>
      <trkpt lat="47.81202" lon="7.12122">
        <ele>360</ele>
        <time>2019-11-10T11:02:26.000Z</time>
      </trkpt>
      <trkpt lat="47.81191" lon="7.12127">
        <ele>358.39999389648</ele>
        <time>2019-11-10T11:02:27.000Z</time>
      </trkpt>
      <trkpt lat="47.81181" lon="7.12131">
        <ele>357</ele>
        <time>2019-11-10T11:02:28.000Z</time>
      </trkpt>
      <trkpt lat="47.81171" lon="7.12135">
        <ele>354</ele>
        <time>2019-11-10T11:02:29.000Z</time>
      </trkpt>
      <trkpt lat="47.8116" lon="7.12138">
        <ele>352.60000610352</ele>
        <time>2019-11-10T11:02:30.000Z</time>
      </trkpt>
      <trkpt lat="47.81153" lon="7.1214">
        <ele>351.20001220703</ele>
        <time>2019-11-10T11:02:31.000Z</time>
      </trkpt>
      <trkpt lat="47.81149" lon="7.12139">
        <ele>349.79998779297</ele>
        <time>2019-11-10T11:02:32.000Z</time>
      </trkpt>
      <trkpt lat="47.81145" lon="7.12142">
        <ele>349.79998779297</ele>
        <time>2019-11-10T11:02:33.000Z</time>
      </trkpt>
      <trkpt lat="47.81141" lon="7.12144">
        <ele>349.79998779297</ele>
        <time>2019-11-10T11:02:35.000Z</time>
      </trkpt>
      <trkpt lat="47.81138" lon="7.12138">
        <ele>349.79998779297</ele>
        <time>2019-11-10T11:02:54.000Z</time>
      </trkpt>
      <trkpt lat="47.81137" lon="7.12135">
        <ele>349.79998779297</ele>
        <time>2019-11-10T11:02:55.000Z</time>
      </trkpt>
      <trkpt lat="47.81136" lon="7.1213">
        <ele>349.20001220703</ele>
        <time>2019-11-10T11:02:56.000Z</time>
      </trkpt>
      <trkpt lat="47.81133" lon="7.12125">
        <ele>348.79998779297</ele>
        <time>2019-11-10T11:02:57.000Z</time>
      </trkpt>
      <trkpt lat="47.81131" lon="7.12121">
        <ele>348.20001220703</ele>
        <time>2019-11-10T11:02:58.000Z</time>
      </trkpt>
      <trkpt lat="47.81129" lon="7.12118">
        <ele>347.79998779297</ele>
        <time>2019-11-10T11:02:59.000Z</time>
      </trkpt>
      <trkpt lat="47.81126" lon="7.12116">
        <ele>347.20001220703</ele>
        <time>2019-11-10T11:03:00.000Z</time>
      </trkpt>
      <trkpt lat="47.81123" lon="7.12114">
        <ele>346.79998779297</ele>
        <time>2019-11-10T11:03:01.000Z</time>
      </trkpt>
      <trkpt lat="47.8112" lon="7.12112">
        <ele>346.20001220703</ele>
        <time>2019-11-10T11:03:02.000Z</time>
      </trkpt>
      <trkpt lat="47.81116" lon="7.1211">
        <ele>345.60000610352</ele>
        <time>2019-11-10T11:03:03.000Z</time>
      </trkpt>
      <trkpt lat="47.8111" lon="7.12108">
        <ele>345</ele>
        <time>2019-11-10T11:03:04.000Z</time>
      </trkpt>
      <trkpt lat="47.81104" lon="7.12106">
        <ele>344.39999389648</ele>
        <time>2019-11-10T11:03:05.000Z</time>
      </trkpt>
      <trkpt lat="47.81096" lon="7.12103">
        <ele>343.60000610352</ele>
        <time>2019-11-10T11:03:06.000Z</time>
      </trkpt>
      <trkpt lat="47.81088" lon="7.121">
        <ele>342.79998779297</ele>
        <time>2019-11-10T11:03:07.000Z</time>
      </trkpt>
      <trkpt lat="47.81078" lon="7.12096">
        <ele>342</ele>
        <time>2019-11-10T11:03:08.000Z</time>
      </trkpt>
      <trkpt lat="47.81069" lon="7.12093">
        <ele>340.79998779297</ele>
        <time>2019-11-10T11:03:09.000Z</time>
      </trkpt>
      <trkpt lat="47.81059" lon="7.1209">
        <ele>339.60000610352</ele>
        <time>2019-11-10T11:03:10.000Z</time>
      </trkpt>
      <trkpt lat="47.81049" lon="7.12087">
        <ele>338.39999389648</ele>
        <time>2019-11-10T11:03:11.000Z</time>
      </trkpt>
      <trkpt lat="47.8104" lon="7.12084">
        <ele>337.20001220703</ele>
        <time>2019-11-10T11:03:12.000Z</time>
      </trkpt>
      <trkpt lat="47.81032" lon="7.1208">
        <ele>335.79998779297</ele>
        <time>2019-11-10T11:03:13.000Z</time>
      </trkpt>
      <trkpt lat="47.81027" lon="7.12075">
        <ele>334.79998779297</ele>
        <time>2019-11-10T11:03:14.000Z</time>
      </trkpt>
      <trkpt lat="47.81024" lon="7.12068">
        <ele>334</ele>
        <time>2019-11-10T11:03:15.000Z</time>
      </trkpt>
      <trkpt lat="47.81023" lon="7.12062">
        <ele>333</ele>
        <time>2019-11-10T11:03:16.000Z</time>
      </trkpt>
      <trkpt lat="47.81023" lon="7.12055">
        <ele>332</ele>
        <time>2019-11-10T11:03:17.000Z</time>
      </trkpt>
      <trkpt lat="47.81025" lon="7.12048">
        <ele>331</ele>
        <time>2019-11-10T11:03:18.000Z</time>
      </trkpt>
      <trkpt lat="47.81031" lon="7.12023">
        <ele>331</ele>
        <time>2019-11-10T11:03:22.000Z</time>
      </trkpt>
      <trkpt lat="47.81031" lon="7.1199">
        <ele>331</ele>
        <time>2019-11-10T11:03:27.000Z</time>
      </trkpt>
      <trkpt lat="47.8103" lon="7.11983">
        <ele>331</ele>
        <time>2019-11-10T11:03:28.000Z</time>
      </trkpt>
      <trkpt lat="47.81026" lon="7.11956">
        <ele>331</ele>
        <time>2019-11-10T11:03:31.000Z</time>
      </trkpt>
      <trkpt lat="47.81025" lon="7.11946">
        <ele>330.60000610352</ele>
        <time>2019-11-10T11:03:32.000Z</time>
      </trkpt>
      <trkpt lat="47.81024" lon="7.11935">
        <ele>330</ele>
        <time>2019-11-10T11:03:33.000Z</time>
      </trkpt>
      <trkpt lat="47.81023" lon="7.1192">
        <ele>329.20001220703</ele>
        <time>2019-11-10T11:03:34.000Z</time>
      </trkpt>
      <trkpt lat="47.81023" lon="7.11906">
        <ele>328.39999389648</ele>
        <time>2019-11-10T11:03:35.000Z</time>
      </trkpt>
      <trkpt lat="47.81024" lon="7.11891">
        <ele>327.20001220703</ele>
        <time>2019-11-10T11:03:36.000Z</time>
      </trkpt>
      <trkpt lat="47.81025" lon="7.11875">
        <ele>326.20001220703</ele>
        <time>2019-11-10T11:03:37.000Z</time>
      </trkpt>
      <trkpt lat="47.81026" lon="7.11859">
        <ele>324.79998779297</ele>
        <time>2019-11-10T11:03:38.000Z</time>
      </trkpt>
      <trkpt lat="47.81027" lon="7.11846">
        <ele>323.60000610352</ele>
        <time>2019-11-10T11:03:39.000Z</time>
      </trkpt>
      <trkpt lat="47.81028" lon="7.11832">
        <ele>322.60000610352</ele>
        <time>2019-11-10T11:03:40.000Z</time>
      </trkpt>
      <trkpt lat="47.81027" lon="7.1182">
        <ele>321.39999389648</ele>
        <time>2019-11-10T11:03:41.000Z</time>
      </trkpt>
      <trkpt lat="47.81025" lon="7.11808">
        <ele>320.20001220703</ele>
        <time>2019-11-10T11:03:42.000Z</time>
      </trkpt>
      <trkpt lat="47.81023" lon="7.11797">
        <ele>317.79998779297</ele>
        <time>2019-11-10T11:03:43.000Z</time>
      </trkpt>
      <trkpt lat="47.81022" lon="7.11785">
        <ele>317.39999389648</ele>
        <time>2019-11-10T11:03:44.000Z</time>
      </trkpt>
      <trkpt lat="47.81021" lon="7.11775">
        <ele>317</ele>
        <time>2019-11-10T11:03:45.000Z</time>
      </trkpt>
      <trkpt lat="47.81019" lon="7.11765">
        <ele>316.60000610352</ele>
        <time>2019-11-10T11:03:46.000Z</time>
      </trkpt>
      <trkpt lat="47.81017" lon="7.11755">
        <ele>316.20001220703</ele>
        <time>2019-11-10T11:03:47.000Z</time>
      </trkpt>
      <trkpt lat="47.81015" lon="7.11746">
        <ele>315.79998779297</ele>
        <time>2019-11-10T11:03:48.000Z</time>
      </trkpt>
      <trkpt lat="47.81012" lon="7.11728">
        <ele>315.79998779297</ele>
        <time>2019-11-10T11:03:50.000Z</time>
      </trkpt>
      <trkpt lat="47.81008" lon="7.11705">
        <ele>315.79998779297</ele>
        <time>2019-11-10T11:03:53.000Z</time>
      </trkpt>
      <trkpt lat="47.81003" lon="7.11663">
        <ele>315.79998779297</ele>
        <time>2019-11-10T11:03:59.000Z</time>
      </trkpt>
      <trkpt lat="47.80999" lon="7.11629">
        <ele>315.79998779297</ele>
        <time>2019-11-10T11:04:04.000Z</time>
      </trkpt>
      <trkpt lat="47.80999" lon="7.11623">
        <ele>315.79998779297</ele>
        <time>2019-11-10T11:04:05.000Z</time>
      </trkpt>
      <trkpt lat="47.80997" lon="7.11582">
        <ele>315.79998779297</ele>
        <time>2019-11-10T11:04:11.000Z</time>
      </trkpt>
      <trkpt lat="47.80997" lon="7.11562">
        <ele>315.79998779297</ele>
        <time>2019-11-10T11:04:14.000Z</time>
      </trkpt>
      <trkpt lat="47.80997" lon="7.11549">
        <ele>316.20001220703</ele>
        <time>2019-11-10T11:04:16.000Z</time>
      </trkpt>
      <trkpt lat="47.80997" lon="7.11543">
        <ele>316.60000610352</ele>
        <time>2019-11-10T11:04:17.000Z</time>
      </trkpt>
      <trkpt lat="47.80997" lon="7.11536">
        <ele>317</ele>
        <time>2019-11-10T11:04:18.000Z</time>
      </trkpt>
      <trkpt lat="47.80997" lon="7.1153">
        <ele>317.39999389648</ele>
        <time>2019-11-10T11:04:19.000Z</time>
      </trkpt>
      <trkpt lat="47.80998" lon="7.11523">
        <ele>317.79998779297</ele>
        <time>2019-11-10T11:04:20.000Z</time>
      </trkpt>
      <trkpt lat="47.81001" lon="7.11503">
        <ele>317.79998779297</ele>
        <time>2019-11-10T11:04:23.000Z</time>
      </trkpt>
      <trkpt lat="47.81003" lon="7.11497">
        <ele>317.79998779297</ele>
        <time>2019-11-10T11:04:24.000Z</time>
      </trkpt>
      <trkpt lat="47.81012" lon="7.11454">
        <ele>317.79998779297</ele>
        <time>2019-11-10T11:04:31.000Z</time>
      </trkpt>
      <trkpt lat="47.81013" lon="7.11448">
        <ele>317.79998779297</ele>
        <time>2019-11-10T11:04:32.000Z</time>
      </trkpt>
      <trkpt lat="47.81016" lon="7.11423">
        <ele>317.79998779297</ele>
        <time>2019-11-10T11:04:36.000Z</time>
      </trkpt>
      <trkpt lat="47.81019" lon="7.11383">
        <ele>317.79998779297</ele>
        <time>2019-11-10T11:04:42.000Z</time>
      </trkpt>
      <trkpt lat="47.8102" lon="7.11377">
        <ele>317.79998779297</ele>
        <time>2019-11-10T11:04:43.000Z</time>
      </trkpt>
      <trkpt lat="47.81023" lon="7.1133">
        <ele>318.20001220703</ele>
        <time>2019-11-10T11:04:50.000Z</time>
      </trkpt>
      <trkpt lat="47.81023" lon="7.11323">
        <ele>318.60000610352</ele>
        <time>2019-11-10T11:04:51.000Z</time>
      </trkpt>
      <trkpt lat="47.81023" lon="7.11317">
        <ele>319</ele>
        <time>2019-11-10T11:04:52.000Z</time>
      </trkpt>
      <trkpt lat="47.81023" lon="7.1131">
        <ele>319.39999389648</ele>
        <time>2019-11-10T11:04:53.000Z</time>
      </trkpt>
      <trkpt lat="47.81024" lon="7.11304">
        <ele>319.79998779297</ele>
        <time>2019-11-10T11:04:54.000Z</time>
      </trkpt>
      <trkpt lat="47.81025" lon="7.11271">
        <ele>319.79998779297</ele>
        <time>2019-11-10T11:04:59.000Z</time>
      </trkpt>
      <trkpt lat="47.81024" lon="7.11217">
        <ele>319.79998779297</ele>
        <time>2019-11-10T11:05:07.000Z</time>
      </trkpt>
      <trkpt lat="47.81024" lon="7.11185">
        <ele>319.79998779297</ele>
        <time>2019-11-10T11:05:12.000Z</time>
      </trkpt>
      <trkpt lat="47.81025" lon="7.11172">
        <ele>319.79998779297</ele>
        <time>2019-11-10T11:05:14.000Z</time>
      </trkpt>
      <trkpt lat="47.81031" lon="7.11154">
        <ele>319.79998779297</ele>
        <time>2019-11-10T11:05:17.000Z</time>
      </trkpt>
      <trkpt lat="47.81034" lon="7.11142">
        <ele>319.79998779297</ele>
        <time>2019-11-10T11:05:19.000Z</time>
      </trkpt>
      <trkpt lat="47.81037" lon="7.11137">
        <ele>319.79998779297</ele>
        <time>2019-11-10T11:05:20.000Z</time>
      </trkpt>
      <trkpt lat="47.81046" lon="7.11122">
        <ele>319.79998779297</ele>
        <time>2019-11-10T11:05:23.000Z</time>
      </trkpt>
      <trkpt lat="47.81056" lon="7.11109">
        <ele>319.79998779297</ele>
        <time>2019-11-10T11:05:26.000Z</time>
      </trkpt>
      <trkpt lat="47.81082" lon="7.11082">
        <ele>319.79998779297</ele>
        <time>2019-11-10T11:05:33.000Z</time>
      </trkpt>
      <trkpt lat="47.81085" lon="7.11078">
        <ele>320.39999389648</ele>
        <time>2019-11-10T11:05:34.000Z</time>
      </trkpt>
      <trkpt lat="47.81088" lon="7.11075">
        <ele>320.79998779297</ele>
        <time>2019-11-10T11:05:35.000Z</time>
      </trkpt>
      <trkpt lat="47.81091" lon="7.11072">
        <ele>321.20001220703</ele>
        <time>2019-11-10T11:05:36.000Z</time>
      </trkpt>
      <trkpt lat="47.81094" lon="7.11068">
        <ele>321.60000610352</ele>
        <time>2019-11-10T11:05:37.000Z</time>
      </trkpt>
      <trkpt lat="47.81097" lon="7.11065">
        <ele>322</ele>
        <time>2019-11-10T11:05:38.000Z</time>
      </trkpt>
      <trkpt lat="47.81102" lon="7.11056">
        <ele>322</ele>
        <time>2019-11-10T11:05:40.000Z</time>
      </trkpt>
      <trkpt lat="47.8111" lon="7.11038">
        <ele>322.39999389648</ele>
        <time>2019-11-10T11:05:44.000Z</time>
      </trkpt>
      <trkpt lat="47.81112" lon="7.11034">
        <ele>322.79998779297</ele>
        <time>2019-11-10T11:05:45.000Z</time>
      </trkpt>
      <trkpt lat="47.81114" lon="7.11029">
        <ele>323.20001220703</ele>
        <time>2019-11-10T11:05:46.000Z</time>
      </trkpt>
      <trkpt lat="47.81116" lon="7.11024">
        <ele>324.20001220703</ele>
        <time>2019-11-10T11:05:47.000Z</time>
      </trkpt>
      <trkpt lat="47.81128" lon="7.10992">
        <ele>324.20001220703</ele>
        <time>2019-11-10T11:05:53.000Z</time>
      </trkpt>
      <trkpt lat="47.81139" lon="7.10953">
        <ele>324.20001220703</ele>
        <time>2019-11-10T11:06:00.000Z</time>
      </trkpt>
      <trkpt lat="47.81152" lon="7.10901">
        <ele>324.20001220703</ele>
        <time>2019-11-10T11:06:09.000Z</time>
      </trkpt>
      <trkpt lat="47.81163" lon="7.10862">
        <ele>324.20001220703</ele>
        <time>2019-11-10T11:06:16.000Z</time>
      </trkpt>
      <trkpt lat="47.81171" lon="7.10832">
        <ele>324.20001220703</ele>
        <time>2019-11-10T11:06:22.000Z</time>
      </trkpt>
      <trkpt lat="47.81178" lon="7.10806">
        <ele>324.20001220703</ele>
        <time>2019-11-10T11:06:27.000Z</time>
      </trkpt>
      <trkpt lat="47.81189" lon="7.10769">
        <ele>324.20001220703</ele>
        <time>2019-11-10T11:06:34.000Z</time>
      </trkpt>
      <trkpt lat="47.81201" lon="7.10728">
        <ele>324.20001220703</ele>
        <time>2019-11-10T11:06:42.000Z</time>
      </trkpt>
      <trkpt lat="47.8121" lon="7.10693">
        <ele>324.20001220703</ele>
        <time>2019-11-10T11:06:48.000Z</time>
      </trkpt>
      <trkpt lat="47.81219" lon="7.10664">
        <ele>324.20001220703</ele>
        <time>2019-11-10T11:06:53.000Z</time>
      </trkpt>
      <trkpt lat="47.81224" lon="7.10646">
        <ele>324.20001220703</ele>
        <time>2019-11-10T11:06:56.000Z</time>
      </trkpt>
      <trkpt lat="47.81237" lon="7.10597">
        <ele>324.20001220703</ele>
        <time>2019-11-10T11:07:04.000Z</time>
      </trkpt>
      <trkpt lat="47.81249" lon="7.10551">
        <ele>324.20001220703</ele>
        <time>2019-11-10T11:07:12.000Z</time>
      </trkpt>
      <trkpt lat="47.81254" lon="7.10537">
        <ele>324.60000610352</ele>
        <time>2019-11-10T11:07:15.000Z</time>
      </trkpt>
      <trkpt lat="47.81255" lon="7.10532">
        <ele>325</ele>
        <time>2019-11-10T11:07:16.000Z</time>
      </trkpt>
      <trkpt lat="47.81256" lon="7.10527">
        <ele>325.39999389648</ele>
        <time>2019-11-10T11:07:17.000Z</time>
      </trkpt>
      <trkpt lat="47.81257" lon="7.10523">
        <ele>325.79998779297</ele>
        <time>2019-11-10T11:07:18.000Z</time>
      </trkpt>
      <trkpt lat="47.81258" lon="7.10519">
        <ele>326.20001220703</ele>
        <time>2019-11-10T11:07:19.000Z</time>
      </trkpt>
      <trkpt lat="47.81261" lon="7.10502">
        <ele>326.20001220703</ele>
        <time>2019-11-10T11:07:24.000Z</time>
      </trkpt>
      <trkpt lat="47.81253" lon="7.10488">
        <ele>326.20001220703</ele>
        <time>2019-11-10T11:07:28.000Z</time>
      </trkpt>
      <trkpt lat="47.81238" lon="7.1048">
        <ele>326.20001220703</ele>
        <time>2019-11-10T11:07:33.000Z</time>
      </trkpt>
      <trkpt lat="47.8122" lon="7.10474">
        <ele>326.20001220703</ele>
        <time>2019-11-10T11:07:38.000Z</time>
      </trkpt>
      <trkpt lat="47.81193" lon="7.10468">
        <ele>326.20001220703</ele>
        <time>2019-11-10T11:07:46.000Z</time>
      </trkpt>
      <trkpt lat="47.81165" lon="7.10466">
        <ele>326.20001220703</ele>
        <time>2019-11-10T11:07:54.000Z</time>
      </trkpt>
      <trkpt lat="47.81147" lon="7.10468">
        <ele>326.20001220703</ele>
        <time>2019-11-10T11:07:58.000Z</time>
      </trkpt>
      <trkpt lat="47.81143" lon="7.10468">
        <ele>326.20001220703</ele>
        <time>2019-11-10T11:07:59.000Z</time>
      </trkpt>
      <trkpt lat="47.81129" lon="7.10475">
        <ele>326.20001220703</ele>
        <time>2019-11-10T11:08:02.000Z</time>
      </trkpt>
      <trkpt lat="47.81119" lon="7.1048">
        <ele>326.20001220703</ele>
        <time>2019-11-10T11:08:05.000Z</time>
      </trkpt>
      <trkpt lat="47.81117" lon="7.10484">
        <ele>326.20001220703</ele>
        <time>2019-11-10T11:08:07.000Z</time>
      </trkpt>
      <trkpt lat="47.81117" lon="7.10484">
        <ele>326.20001220703</ele>
        <time>2019-11-10T11:08:09.000Z</time>
      </trkpt>
      <trkpt lat="47.81118" lon="7.10478">
        <ele>326.20001220703</ele>
        <time>2019-11-10T11:14:55.000Z</time>
      </trkpt>
      <trkpt lat="47.81116" lon="7.10472">
        <ele>326.20001220703</ele>
        <time>2019-11-10T11:14:57.000Z</time>
      </trkpt>
      <trkpt lat="47.8111" lon="7.10463">
        <ele>326.20001220703</ele>
        <time>2019-11-10T11:15:00.000Z</time>
      </trkpt>
      <trkpt lat="47.81109" lon="7.10454">
        <ele>326.20001220703</ele>
        <time>2019-11-10T11:15:02.000Z</time>
      </trkpt>
      <trkpt lat="47.81117" lon="7.10435">
        <ele>326.20001220703</ele>
        <time>2019-11-10T11:15:06.000Z</time>
      </trkpt>
      <trkpt lat="47.8113" lon="7.10406">
        <ele>326.60000610352</ele>
        <time>2019-11-10T11:15:13.000Z</time>
      </trkpt>
      <trkpt lat="47.81131" lon="7.10401">
        <ele>327</ele>
        <time>2019-11-10T11:15:14.000Z</time>
      </trkpt>
      <trkpt lat="47.81133" lon="7.10396">
        <ele>327.79998779297</ele>
        <time>2019-11-10T11:15:15.000Z</time>
      </trkpt>
      <trkpt lat="47.81135" lon="7.1039">
        <ele>328.20001220703</ele>
        <time>2019-11-10T11:15:16.000Z</time>
      </trkpt>
      <trkpt lat="47.81135" lon="7.10384">
        <ele>328.20001220703</ele>
        <time>2019-11-10T11:15:17.000Z</time>
      </trkpt>
      <trkpt lat="47.8113" lon="7.1036">
        <ele>328.20001220703</ele>
        <time>2019-11-10T11:15:20.000Z</time>
      </trkpt>
      <trkpt lat="47.81115" lon="7.10342">
        <ele>328.20001220703</ele>
        <time>2019-11-10T11:15:23.000Z</time>
      </trkpt>
      <trkpt lat="47.81109" lon="7.10336">
        <ele>328.20001220703</ele>
        <time>2019-11-10T11:15:24.000Z</time>
      </trkpt>
      <trkpt lat="47.81097" lon="7.10324">
        <ele>328.60000610352</ele>
        <time>2019-11-10T11:15:26.000Z</time>
      </trkpt>
      <trkpt lat="47.81091" lon="7.10318">
        <ele>329.20001220703</ele>
        <time>2019-11-10T11:15:27.000Z</time>
      </trkpt>
      <trkpt lat="47.81085" lon="7.10313">
        <ele>329.60000610352</ele>
        <time>2019-11-10T11:15:28.000Z</time>
      </trkpt>
      <trkpt lat="47.8108" lon="7.10307">
        <ele>330</ele>
        <time>2019-11-10T11:15:29.000Z</time>
      </trkpt>
      <trkpt lat="47.81076" lon="7.103">
        <ele>330.39999389648</ele>
        <time>2019-11-10T11:15:30.000Z</time>
      </trkpt>
      <trkpt lat="47.81066" lon="7.10286">
        <ele>330.39999389648</ele>
        <time>2019-11-10T11:15:33.000Z</time>
      </trkpt>
      <trkpt lat="47.81046" lon="7.10269">
        <ele>330.39999389648</ele>
        <time>2019-11-10T11:15:37.000Z</time>
      </trkpt>
      <trkpt lat="47.81018" lon="7.10248">
        <ele>330.39999389648</ele>
        <time>2019-11-10T11:15:43.000Z</time>
      </trkpt>
      <trkpt lat="47.81007" lon="7.1024">
        <ele>330.39999389648</ele>
        <time>2019-11-10T11:15:47.000Z</time>
      </trkpt>
      <trkpt lat="47.81001" lon="7.10236">
        <ele>330.39999389648</ele>
        <time>2019-11-10T11:15:52.000Z</time>
      </trkpt>
      <trkpt lat="47.81001" lon="7.10237">
        <ele>330.39999389648</ele>
        <time>2019-11-10T11:15:53.000Z</time>
      </trkpt>
      <trkpt lat="47.81" lon="7.10236">
        <ele>330.39999389648</ele>
        <time>2019-11-10T11:15:58.000Z</time>
      </trkpt>
      <trkpt lat="47.80993" lon="7.1023">
        <ele>330.39999389648</ele>
        <time>2019-11-10T11:16:00.000Z</time>
      </trkpt>
      <trkpt lat="47.80977" lon="7.1022">
        <ele>330.39999389648</ele>
        <time>2019-11-10T11:16:04.000Z</time>
      </trkpt>
      <trkpt lat="47.80972" lon="7.1022">
        <ele>330.39999389648</ele>
        <time>2019-11-10T11:16:05.000Z</time>
      </trkpt>
      <trkpt lat="47.80968" lon="7.10224">
        <ele>330.79998779297</ele>
        <time>2019-11-10T11:16:06.000Z</time>
      </trkpt>
      <trkpt lat="47.80964" lon="7.10229">
        <ele>331.20001220703</ele>
        <time>2019-11-10T11:16:07.000Z</time>
      </trkpt>
      <trkpt lat="47.80962" lon="7.10235">
        <ele>331.60000610352</ele>
        <time>2019-11-10T11:16:08.000Z</time>
      </trkpt>
      <trkpt lat="47.80961" lon="7.10241">
        <ele>332</ele>
        <time>2019-11-10T11:16:09.000Z</time>
      </trkpt>
      <trkpt lat="47.8096" lon="7.10245">
        <ele>332.39999389648</ele>
        <time>2019-11-10T11:16:10.000Z</time>
      </trkpt>
      <trkpt lat="47.80958" lon="7.10251">
        <ele>332.39999389648</ele>
        <time>2019-11-10T11:16:12.000Z</time>
      </trkpt>
      <trkpt lat="47.80956" lon="7.10261">
        <ele>332.39999389648</ele>
        <time>2019-11-10T11:16:18.000Z</time>
      </trkpt>
      <trkpt lat="47.80954" lon="7.10267">
        <ele>332.39999389648</ele>
        <time>2019-11-10T11:16:23.000Z</time>
      </trkpt>
      <trkpt lat="47.80952" lon="7.10278">
        <ele>332.39999389648</ele>
        <time>2019-11-10T11:16:25.000Z</time>
      </trkpt>
      <trkpt lat="47.80945" lon="7.10318">
        <ele>332.39999389648</ele>
        <time>2019-11-10T11:16:30.000Z</time>
      </trkpt>
      <trkpt lat="47.80937" lon="7.10362">
        <ele>332.39999389648</ele>
        <time>2019-11-10T11:16:34.000Z</time>
      </trkpt>
      <trkpt lat="47.80921" lon="7.10425">
        <ele>332.39999389648</ele>
        <time>2019-11-10T11:16:39.000Z</time>
      </trkpt>
      <trkpt lat="47.80912" lon="7.10448">
        <ele>332.39999389648</ele>
        <time>2019-11-10T11:16:41.000Z</time>
      </trkpt>
      <trkpt lat="47.80895" lon="7.10484">
        <ele>332.39999389648</ele>
        <time>2019-11-10T11:16:44.000Z</time>
      </trkpt>
      <trkpt lat="47.80872" lon="7.10562">
        <ele>332</ele>
        <time>2019-11-10T11:16:50.000Z</time>
      </trkpt>
      <trkpt lat="47.80871" lon="7.10576">
        <ele>331.60000610352</ele>
        <time>2019-11-10T11:16:51.000Z</time>
      </trkpt>
      <trkpt lat="47.8087" lon="7.10592">
        <ele>330.79998779297</ele>
        <time>2019-11-10T11:16:52.000Z</time>
      </trkpt>
      <trkpt lat="47.80869" lon="7.10606">
        <ele>330.39999389648</ele>
        <time>2019-11-10T11:16:53.000Z</time>
      </trkpt>
      <trkpt lat="47.80869" lon="7.1062">
        <ele>330.39999389648</ele>
        <time>2019-11-10T11:16:54.000Z</time>
      </trkpt>
      <trkpt lat="47.80864" lon="7.10649">
        <ele>330.39999389648</ele>
        <time>2019-11-10T11:16:56.000Z</time>
      </trkpt>
      <trkpt lat="47.80858" lon="7.10677">
        <ele>330.39999389648</ele>
        <time>2019-11-10T11:16:58.000Z</time>
      </trkpt>
      <trkpt lat="47.80839" lon="7.1076">
        <ele>330.39999389648</ele>
        <time>2019-11-10T11:17:04.000Z</time>
      </trkpt>
      <trkpt lat="47.8083" lon="7.10802">
        <ele>330.39999389648</ele>
        <time>2019-11-10T11:17:07.000Z</time>
      </trkpt>
      <trkpt lat="47.80823" lon="7.1083">
        <ele>330.39999389648</ele>
        <time>2019-11-10T11:17:09.000Z</time>
      </trkpt>
      <trkpt lat="47.80812" lon="7.10854">
        <ele>330.39999389648</ele>
        <time>2019-11-10T11:17:11.000Z</time>
      </trkpt>
      <trkpt lat="47.80777" lon="7.10923">
        <ele>330.39999389648</ele>
        <time>2019-11-10T11:17:17.000Z</time>
      </trkpt>
      <trkpt lat="47.80771" lon="7.10934">
        <ele>330</ele>
        <time>2019-11-10T11:17:18.000Z</time>
      </trkpt>
      <trkpt lat="47.80764" lon="7.10944">
        <ele>329.60000610352</ele>
        <time>2019-11-10T11:17:19.000Z</time>
      </trkpt>
      <trkpt lat="47.80755" lon="7.10953">
        <ele>329.20001220703</ele>
        <time>2019-11-10T11:17:20.000Z</time>
      </trkpt>
      <trkpt lat="47.80747" lon="7.10962">
        <ele>328.79998779297</ele>
        <time>2019-11-10T11:17:21.000Z</time>
      </trkpt>
      <trkpt lat="47.80739" lon="7.10972">
        <ele>328.39999389648</ele>
        <time>2019-11-10T11:17:22.000Z</time>
      </trkpt>
      <trkpt lat="47.80726" lon="7.10992">
        <ele>328.39999389648</ele>
        <time>2019-11-10T11:17:24.000Z</time>
      </trkpt>
      <trkpt lat="47.80714" lon="7.11016">
        <ele>328.39999389648</ele>
        <time>2019-11-10T11:17:26.000Z</time>
      </trkpt>
      <trkpt lat="47.8069" lon="7.11088">
        <ele>328.39999389648</ele>
        <time>2019-11-10T11:17:32.000Z</time>
      </trkpt>
      <trkpt lat="47.80687" lon="7.11095">
        <ele>328.39999389648</ele>
        <time>2019-11-10T11:17:33.000Z</time>
      </trkpt>
      <trkpt lat="47.80682" lon="7.11102">
        <ele>328</ele>
        <time>2019-11-10T11:17:35.000Z</time>
      </trkpt>
      <trkpt lat="47.8068" lon="7.11103">
        <ele>327.60000610352</ele>
        <time>2019-11-10T11:17:36.000Z</time>
      </trkpt>
      <trkpt lat="47.8068" lon="7.11104">
        <ele>327.20001220703</ele>
        <time>2019-11-10T11:17:37.000Z</time>
      </trkpt>
      <trkpt lat="47.8068" lon="7.11105">
        <ele>326.39999389648</ele>
        <time>2019-11-10T11:17:44.000Z</time>
      </trkpt>
      <trkpt lat="47.8068" lon="7.11107">
        <ele>326.39999389648</ele>
        <time>2019-11-10T11:17:46.000Z</time>
      </trkpt>
    </trkseg>
  </trk>
</gpx>